<?xml version='1.0' encoding='UTF-8'?><gpx version="1.1" creator="JPX - https://github.com/jenetics/jpx" xmlns="http://www.topografix.com/GPX/1/1"><trk><trkseg><trkpt lat="45.58537519298358" lon="9.950517639801255"><ele>257.0</ele><time>2026-03-15T10:48:39Z</time></trkpt><trkpt lat="45.585348881257666" lon="9.95060825478059"><ele>257.0</ele><time>2026-03-15T10:49:02.999Z</time></trkpt><trkpt lat="45.58530160435727" lon="9.950752682508444"><ele>257.0</ele><time>2026-03-15T10:49:04.999Z</time></trkpt><trkpt lat="45.585279607672135" lon="9.95084285882695"><ele>257.0</ele><time>2026-03-15T10:49:05.999Z</time></trkpt><trkpt lat="45.585267839733824" lon="9.95096395165807"><ele>257.0</ele><time>2026-03-15T10:49:06.999Z</time></trkpt><trkpt lat="45.585304521351425" lon="9.951097328506247"><ele>257.0</ele><time>2026-03-15T10:49:07.999Z</time></trkpt><trkpt lat="45.58528812757083" lon="9.95121309758872"><ele>254.0</ele><time>2026-03-15T10:49:08.999Z</time></trkpt><trkpt lat="45.58530285150489" lon="9.951313804728064"><ele>251.0</ele><time>2026-03-15T10:49:09.999Z</time></trkpt><trkpt lat="45.58519833719901" lon="9.951412561195527"><ele>248.0</ele><time>2026-03-15T10:49:11.999Z</time></trkpt><trkpt lat="45.5851345589968" lon="9.95143465744935"><ele>245.0</ele><time>2026-03-15T10:49:12.999Z</time></trkpt><trkpt lat="45.585052818775544" lon="9.951511355182912"><ele>242.0</ele><time>2026-03-15T10:49:13.999Z</time></trkpt><trkpt lat="45.58497439899416" lon="9.951596325447252"><ele>242.00000000000003</ele><time>2026-03-15T10:49:14.999Z</time></trkpt><trkpt lat="45.58490940568999" lon="9.95169338683978"><ele>242.0</ele><time>2026-03-15T10:49:15.999Z</time></trkpt><trkpt lat="45.58485808132087" lon="9.951771518607742"><ele>242.0</ele><time>2026-03-15T10:49:16.999Z</time></trkpt><trkpt lat="45.584808900243" lon="9.951856262167844"><ele>242.0</ele><time>2026-03-15T10:49:17.999Z</time></trkpt><trkpt lat="45.58476036571206" lon="9.95195597894775"><ele>242.00000000000003</ele><time>2026-03-15T10:49:18.999Z</time></trkpt><trkpt lat="45.584725948061845" lon="9.952049850028967"><ele>242.0</ele><time>2026-03-15T10:49:19.999Z</time></trkpt><trkpt lat="45.58470747911096" lon="9.952138820869823"><ele>244.8</ele><time>2026-03-15T10:49:20.999Z</time></trkpt><trkpt lat="45.58469060244479" lon="9.952241048124556"><ele>247.6</ele><time>2026-03-15T10:49:21.999Z</time></trkpt><trkpt lat="45.58469786380682" lon="9.95236645639026"><ele>250.40000000000003</ele><time>2026-03-15T10:49:22.999Z</time></trkpt><trkpt lat="45.58469698692523" lon="9.952488103845367"><ele>253.20000000000002</ele><time>2026-03-15T10:49:23.999Z</time></trkpt><trkpt lat="45.5847121115093" lon="9.952640591586869"><ele>256.0</ele><time>2026-03-15T10:49:24.999Z</time></trkpt><trkpt lat="45.58474864624347" lon="9.95280171659801"><ele>256.5</ele><time>2026-03-15T10:49:25.999Z</time></trkpt><trkpt lat="45.58480958875895" lon="9.952983952894623"><ele>257.0</ele><time>2026-03-15T10:49:26.999Z</time></trkpt><trkpt lat="45.58488374469276" lon="9.953160018343434"><ele>257.5</ele><time>2026-03-15T10:49:27.999Z</time></trkpt><trkpt lat="45.584949504785996" lon="9.953293430858517"><ele>258.0</ele><time>2026-03-15T10:49:28.999Z</time></trkpt><trkpt lat="45.58501658708277" lon="9.953392507414282"><ele>255.75</ele><time>2026-03-15T10:49:29.999Z</time></trkpt><trkpt lat="45.58508701338626" lon="9.953485522504355"><ele>253.5</ele><time>2026-03-15T10:49:30.999Z</time></trkpt><trkpt lat="45.58518129638239" lon="9.953584535858594"><ele>251.25</ele><time>2026-03-15T10:49:31.999Z</time></trkpt><trkpt lat="45.585322402865856" lon="9.953698426916924"><ele>249.0</ele><time>2026-03-15T10:49:32.999Z</time></trkpt><trkpt lat="45.585458747121876" lon="9.953794609402356"><ele>255.79999999999998</ele><time>2026-03-15T10:49:33.999Z</time></trkpt><trkpt lat="45.58553016566548" lon="9.95388288731656"><ele>262.59999999999997</ele><time>2026-03-15T10:49:34.999Z</time></trkpt><trkpt lat="45.58557359241969" lon="9.953963935418907"><ele>269.4</ele><time>2026-03-15T10:49:35.999Z</time></trkpt><trkpt lat="45.5855274652963" lon="9.95409103682443"><ele>276.2</ele><time>2026-03-15T10:49:36.998Z</time></trkpt><trkpt lat="45.58551684054511" lon="9.954247516482134"><ele>283.0</ele><time>2026-03-15T10:49:37.998Z</time></trkpt><trkpt lat="45.58549845484247" lon="9.954416805566362"><ele>285.6</ele><time>2026-03-15T10:49:38.998Z</time></trkpt><trkpt lat="45.58548790158885" lon="9.954601025734762"><ele>288.20000000000005</ele><time>2026-03-15T10:49:39.998Z</time></trkpt><trkpt lat="45.5854632220502" lon="9.954756357146513"><ele>290.8</ele><time>2026-03-15T10:49:40.998Z</time></trkpt><trkpt lat="45.58546007726741" lon="9.954875539588171"><ele>293.40000000000003</ele><time>2026-03-15T10:49:41.998Z</time></trkpt><trkpt lat="45.58544736061357" lon="9.954995016599034"><ele>296.0</ele><time>2026-03-15T10:49:42.998Z</time></trkpt><trkpt lat="45.5854307190584" lon="9.955110133344176"><ele>298.2</ele><time>2026-03-15T10:49:43.998Z</time></trkpt><trkpt lat="45.58542723879941" lon="9.95522325614737"><ele>300.40000000000003</ele><time>2026-03-15T10:49:44.998Z</time></trkpt><trkpt lat="45.585426350987966" lon="9.95534115895926"><ele>302.6</ele><time>2026-03-15T10:49:45.998Z</time></trkpt><trkpt lat="45.58543160071033" lon="9.95546320308418"><ele>304.8</ele><time>2026-03-15T10:49:46.998Z</time></trkpt><trkpt lat="45.58544546449346" lon="9.955598869461742"><ele>307.0</ele><time>2026-03-15T10:49:47.998Z</time></trkpt><trkpt lat="45.585466464088114" lon="9.955785225952509"><ele>308.66666666666663</ele><time>2026-03-15T10:49:48.998Z</time></trkpt><trkpt lat="45.5854922628284" lon="9.956002610280157"><ele>310.3333333333333</ele><time>2026-03-15T10:49:49.998Z</time></trkpt><trkpt lat="45.58552379162591" lon="9.956229494948282"><ele>312.0</ele><time>2026-03-15T10:49:50.998Z</time></trkpt><trkpt lat="45.58553547773018" lon="9.956474567402207"><ele>315.0</ele><time>2026-03-15T10:49:51.998Z</time></trkpt><trkpt lat="45.58555319794247" lon="9.956713363210735"><ele>318.0</ele><time>2026-03-15T10:49:52.998Z</time></trkpt><trkpt lat="45.58556828535689" lon="9.956960475650384"><ele>321.0</ele><time>2026-03-15T10:49:53.998Z</time></trkpt><trkpt lat="45.58558890289319" lon="9.957199708538909"><ele>321.0</ele><time>2026-03-15T10:49:54.998Z</time></trkpt><trkpt lat="45.5855607209118" lon="9.957418031851173"><ele>321.0</ele><time>2026-03-15T10:49:55.998Z</time></trkpt><trkpt lat="45.58553094691241" lon="9.957638069530264"><ele>321.0</ele><time>2026-03-15T10:49:56.998Z</time></trkpt><trkpt lat="45.58550641812835" lon="9.957850209385558"><ele>321.0</ele><time>2026-03-15T10:49:57.998Z</time></trkpt><trkpt lat="45.58543653542709" lon="9.958077514400188"><ele>321.0</ele><time>2026-03-15T10:49:58.998Z</time></trkpt><trkpt lat="45.58538550626922" lon="9.9582889379928"><ele>321.0</ele><time>2026-03-15T10:49:59.998Z</time></trkpt><trkpt lat="45.58533797492099" lon="9.958472360433001"><ele>321.0</ele><time>2026-03-15T10:50:00.998Z</time></trkpt><trkpt lat="45.585283838263415" lon="9.958618500160656"><ele>321.0</ele><time>2026-03-15T10:50:01.998Z</time></trkpt><trkpt lat="45.58523387061974" lon="9.958737311771745"><ele>321.0</ele><time>2026-03-15T10:50:02.998Z</time></trkpt><trkpt lat="45.585196693720306" lon="9.958849295832954"><ele>321.0</ele><time>2026-03-15T10:50:03.998Z</time></trkpt><trkpt lat="45.585174181344335" lon="9.95896958821873"><ele>321.0</ele><time>2026-03-15T10:50:05.998Z</time></trkpt><trkpt lat="45.58515430954056" lon="9.959076607580243"><ele>321.0</ele><time>2026-03-15T10:50:07.998Z</time></trkpt><trkpt lat="45.58522104443788" lon="9.959158275227567"><ele>321.0</ele><time>2026-03-15T10:50:09.998Z</time></trkpt><trkpt lat="45.58531609759493" lon="9.959183386724568"><ele>321.0</ele><time>2026-03-15T10:50:11.998Z</time></trkpt><trkpt lat="45.585367415561784" lon="9.959107530118047"><ele>321.0</ele><time>2026-03-15T10:50:12.998Z</time></trkpt><trkpt lat="45.58541766248798" lon="9.95897376791936"><ele>321.0</ele><time>2026-03-15T10:50:13.998Z</time></trkpt><trkpt lat="45.58547336416639" lon="9.95882478471752"><ele>320.6666666666667</ele><time>2026-03-15T10:50:14.998Z</time></trkpt><trkpt lat="45.585550142737716" lon="9.958679588474766"><ele>320.33333333333337</ele><time>2026-03-15T10:50:15.998Z</time></trkpt><trkpt lat="45.585633278701486" lon="9.95850639223138"><ele>320.0</ele><time>2026-03-15T10:50:16.998Z</time></trkpt><trkpt lat="45.58575686697486" lon="9.958319298920303"><ele>322.33333333333337</ele><time>2026-03-15T10:50:17.998Z</time></trkpt><trkpt lat="45.58586856290281" lon="9.958080752186934"><ele>324.6666666666667</ele><time>2026-03-15T10:50:18.998Z</time></trkpt><trkpt lat="45.58599131363584" lon="9.957862347696702"><ele>327.0</ele><time>2026-03-15T10:50:19.998Z</time></trkpt><trkpt lat="45.58609515878401" lon="9.957700719093971"><ele>327.75</ele><time>2026-03-15T10:50:20.998Z</time></trkpt><trkpt lat="45.58617106150068" lon="9.95752856482859"><ele>328.5</ele><time>2026-03-15T10:50:21.998Z</time></trkpt><trkpt lat="45.58625690510549" lon="9.957394489671655"><ele>329.25</ele><time>2026-03-15T10:50:23Z</time></trkpt><trkpt lat="45.58631626436528" lon="9.957257773620936"><ele>330.0</ele><time>2026-03-15T10:50:24Z</time></trkpt><trkpt lat="45.58635117022198" lon="9.957111819792878"><ele>330.0</ele><time>2026-03-15T10:50:25Z</time></trkpt><trkpt lat="45.58639182575918" lon="9.956952586078073"><ele>330.0</ele><time>2026-03-15T10:50:26Z</time></trkpt><trkpt lat="45.58643285464715" lon="9.956759802731577"><ele>330.0</ele><time>2026-03-15T10:50:27Z</time></trkpt><trkpt lat="45.58647784781212" lon="9.956543359091363"><ele>330.0</ele><time>2026-03-15T10:50:28Z</time></trkpt><trkpt lat="45.5865218371877" lon="9.956318555303953"><ele>334.3333333333333</ele><time>2026-03-15T10:50:29Z</time></trkpt><trkpt lat="45.586591834078504" lon="9.956097240783446"><ele>338.66666666666663</ele><time>2026-03-15T10:50:30Z</time></trkpt><trkpt lat="45.58665411543117" lon="9.955850410322842"><ele>343.0</ele><time>2026-03-15T10:50:31Z</time></trkpt><trkpt lat="45.586724456133645" lon="9.955571529452017"><ele>343.25</ele><time>2026-03-15T10:50:32Z</time></trkpt><trkpt lat="45.58678315240672" lon="9.955328878834479"><ele>343.5</ele><time>2026-03-15T10:50:33Z</time></trkpt><trkpt lat="45.58682220861723" lon="9.955137249250324"><ele>343.75</ele><time>2026-03-15T10:50:34Z</time></trkpt><trkpt lat="45.58687666183082" lon="9.95498902463252"><ele>344.0</ele><time>2026-03-15T10:50:35Z</time></trkpt><trkpt lat="45.58692607689002" lon="9.954861921672327"><ele>344.0</ele><time>2026-03-15T10:50:36Z</time></trkpt><trkpt lat="45.58697388396519" lon="9.954750966246772"><ele>344.0</ele><time>2026-03-15T10:50:37Z</time></trkpt><trkpt lat="45.58704007357977" lon="9.95466802648274"><ele>344.0</ele><time>2026-03-15T10:50:38Z</time></trkpt><trkpt lat="45.58708365876197" lon="9.954590483626191"><ele>344.0</ele><time>2026-03-15T10:50:39Z</time></trkpt><trkpt lat="45.58711242751881" lon="9.954494156328101"><ele>344.0</ele><time>2026-03-15T10:50:40Z</time></trkpt><trkpt lat="45.587159480387264" lon="9.954406241943618"><ele>344.0</ele><time>2026-03-15T10:50:41Z</time></trkpt><trkpt lat="45.587203506344956" lon="9.954299722900066"><ele>351.6</ele><time>2026-03-15T10:50:42Z</time></trkpt><trkpt lat="45.58725404568654" lon="9.954183959862524"><ele>359.2</ele><time>2026-03-15T10:50:43Z</time></trkpt><trkpt lat="45.587285171345385" lon="9.954063684613285"><ele>366.8</ele><time>2026-03-15T10:50:44Z</time></trkpt><trkpt lat="45.58731205700981" lon="9.953940301781861"><ele>374.40000000000003</ele><time>2026-03-15T10:50:45Z</time></trkpt><trkpt lat="45.587343359630935" lon="9.953808524029858"><ele>382.0</ele><time>2026-03-15T10:50:46Z</time></trkpt><trkpt lat="45.58736211605876" lon="9.9536722063629"><ele>382.0</ele><time>2026-03-15T10:50:47Z</time></trkpt><trkpt lat="45.58739715123334" lon="9.953533006084022"><ele>382.0</ele><time>2026-03-15T10:50:48Z</time></trkpt><trkpt lat="45.58742789935063" lon="9.953397869096872"><ele>382.0</ele><time>2026-03-15T10:50:49Z</time></trkpt><trkpt lat="45.587477192058785" lon="9.95326116034294"><ele>382.0</ele><time>2026-03-15T10:50:50Z</time></trkpt><trkpt lat="45.587534384654255" lon="9.953133512306243"><ele>382.0</ele><time>2026-03-15T10:50:51Z</time></trkpt><trkpt lat="45.58757771374756" lon="9.952991013704292"><ele>382.6</ele><time>2026-03-15T10:50:52Z</time></trkpt><trkpt lat="45.587648272714446" lon="9.952872707100608"><ele>383.20000000000005</ele><time>2026-03-15T10:50:53Z</time></trkpt><trkpt lat="45.58769160894799" lon="9.952732450166454"><ele>383.8</ele><time>2026-03-15T10:50:54Z</time></trkpt><trkpt lat="45.58775484656005" lon="9.952606213735981"><ele>384.4</ele><time>2026-03-15T10:50:55Z</time></trkpt><trkpt lat="45.587798943874496" lon="9.952482727220984"><ele>385.0</ele><time>2026-03-15T10:50:56Z</time></trkpt><trkpt lat="45.58785016988109" lon="9.95239681160416"><ele>390.6666666666667</ele><time>2026-03-15T10:50:57Z</time></trkpt><trkpt lat="45.58788717585562" lon="9.952318641426976"><ele>396.33333333333337</ele><time>2026-03-15T10:50:58Z</time></trkpt><trkpt lat="45.58793647433339" lon="9.952234096601687"><ele>402.0</ele><time>2026-03-15T10:50:59Z</time></trkpt><trkpt lat="45.58798945899198" lon="9.952160692850567"><ele>407.66666666666663</ele><time>2026-03-15T10:51:00Z</time></trkpt><trkpt lat="45.5880535441746" lon="9.952099438448588"><ele>413.3333333333333</ele><time>2026-03-15T10:51:01Z</time></trkpt><trkpt lat="45.588143198069226" lon="9.95202246250238"><ele>419.0</ele><time>2026-03-15T10:51:02Z</time></trkpt><trkpt lat="45.58822005514305" lon="9.951958707108128"><ele>419.0</ele><time>2026-03-15T10:51:03Z</time></trkpt><trkpt lat="45.588301193312354" lon="9.951887472226485"><ele>419.0</ele><time>2026-03-15T10:51:04Z</time></trkpt><trkpt lat="45.588378215666744" lon="9.951810100511599"><ele>419.0</ele><time>2026-03-15T10:51:05Z</time></trkpt><trkpt lat="45.58846051027884" lon="9.951692762622457"><ele>419.0</ele><time>2026-03-15T10:51:06Z</time></trkpt><trkpt lat="45.588586438286605" lon="9.95156669292829"><ele>423.2</ele><time>2026-03-15T10:51:07Z</time></trkpt><trkpt lat="45.58870750562602" lon="9.951427575650406"><ele>427.4</ele><time>2026-03-15T10:51:08Z</time></trkpt><trkpt lat="45.58880182318639" lon="9.951330141523428"><ele>431.6</ele><time>2026-03-15T10:51:08.999Z</time></trkpt><trkpt lat="45.58887896967204" lon="9.951272613844486"><ele>435.8</ele><time>2026-03-15T10:51:09.999Z</time></trkpt><trkpt lat="45.58895299264191" lon="9.951232587668068"><ele>440.0</ele><time>2026-03-15T10:51:10.999Z</time></trkpt><trkpt lat="45.58903513539424" lon="9.951200374098809"><ele>440.0</ele><time>2026-03-15T10:51:11.999Z</time></trkpt><trkpt lat="45.589119657523646" lon="9.95115038043708"><ele>440.0</ele><time>2026-03-15T10:51:12.999Z</time></trkpt><trkpt lat="45.58920617042022" lon="9.951099697701046"><ele>440.0</ele><time>2026-03-15T10:51:13.999Z</time></trkpt><trkpt lat="45.58929733519252" lon="9.951049488772647"><ele>440.0</ele><time>2026-03-15T10:51:14.999Z</time></trkpt><trkpt lat="45.58939402535985" lon="9.951002289283586"><ele>440.0</ele><time>2026-03-15T10:51:15.999Z</time></trkpt><trkpt lat="45.58948213954695" lon="9.950969202121858"><ele>439.8333333333333</ele><time>2026-03-15T10:51:16.999Z</time></trkpt><trkpt lat="45.58956826548558" lon="9.950953695505163"><ele>439.66666666666663</ele><time>2026-03-15T10:51:17.999Z</time></trkpt><trkpt lat="45.589658391472895" lon="9.950942033443956"><ele>439.5</ele><time>2026-03-15T10:51:18.999Z</time></trkpt><trkpt lat="45.589720255510976" lon="9.950924831956783"><ele>439.33333333333337</ele><time>2026-03-15T10:51:19.999Z</time></trkpt><trkpt lat="45.589784678753944" lon="9.950901244919683"><ele>439.1666666666667</ele><time>2026-03-15T10:51:22.999Z</time></trkpt><trkpt lat="45.58987327179149" lon="9.950840768302111"><ele>439.0</ele><time>2026-03-15T10:51:24.999Z</time></trkpt><trkpt lat="45.58993091003032" lon="9.950790291124529"><ele>439.0</ele><time>2026-03-15T10:51:26.999Z</time></trkpt><trkpt lat="45.59000167854262" lon="9.950716931066278"><ele>439.0</ele><time>2026-03-15T10:51:28.999Z</time></trkpt><trkpt lat="45.590060492171474" lon="9.950647045190284"><ele>439.0</ele><time>2026-03-15T10:51:30.999Z</time></trkpt><trkpt lat="45.590144395073445" lon="9.950507796132156"><ele>439.0</ele><time>2026-03-15T10:51:32.999Z</time></trkpt><trkpt lat="45.590092793698986" lon="9.950628777715776"><ele>439.0</ele><time>2026-03-15T10:51:33.999Z</time></trkpt><trkpt lat="45.590250989390114" lon="9.95106371721135"><ele>439.0</ele><time>2026-03-15T10:51:38.999Z</time></trkpt><trkpt lat="45.59020124522089" lon="9.951185481737085"><ele>439.0</ele><time>2026-03-15T10:51:40.999Z</time></trkpt><trkpt lat="45.59008721886168" lon="9.951258868429388"><ele>439.0</ele><time>2026-03-15T10:51:42.999Z</time></trkpt><trkpt lat="45.590012097208984" lon="9.95130715328903"><ele>439.0</ele><time>2026-03-15T10:51:44.999Z</time></trkpt><trkpt lat="45.58995328065781" lon="9.951389282209627"><ele>439.0</ele><time>2026-03-15T10:51:46.999Z</time></trkpt><trkpt lat="45.58988741388502" lon="9.951425662791651"><ele>439.0</ele><time>2026-03-15T10:51:48.999Z</time></trkpt><trkpt lat="45.58978475927971" lon="9.951499608729897"><ele>439.0</ele><time>2026-03-15T10:52:20.998Z</time></trkpt><trkpt lat="45.58968225294333" lon="9.951558843459038"><ele>439.0</ele><time>2026-03-15T10:52:22.998Z</time></trkpt><trkpt lat="45.58956327990531" lon="9.951602464720242"><ele>439.0</ele><time>2026-03-15T10:52:24.998Z</time></trkpt><trkpt lat="45.58949825938685" lon="9.951619793769767"><ele>439.0</ele><time>2026-03-15T10:52:25.998Z</time></trkpt><trkpt lat="45.58941213522065" lon="9.951654341166316"><ele>439.1666666666667</ele><time>2026-03-15T10:52:27.998Z</time></trkpt><trkpt lat="45.58932356336556" lon="9.951694927201423"><ele>439.33333333333337</ele><time>2026-03-15T10:52:30.001Z</time></trkpt><trkpt lat="45.58924627712215" lon="9.9517207976403"><ele>439.5</ele><time>2026-03-15T10:52:32Z</time></trkpt><trkpt lat="45.589182575208795" lon="9.951764246391019"><ele>439.66666666666663</ele><time>2026-03-15T10:52:34Z</time></trkpt><trkpt lat="45.58911711137564" lon="9.951829565032762"><ele>439.8333333333333</ele><time>2026-03-15T10:52:36.001Z</time></trkpt><trkpt lat="45.589072297435536" lon="9.951926275212575"><ele>440.0</ele><time>2026-03-15T10:52:38.001Z</time></trkpt><trkpt lat="45.589002462191694" lon="9.952045123486757"><ele>438.2</ele><time>2026-03-15T10:52:40Z</time></trkpt><trkpt lat="45.58891125980977" lon="9.952132090053208"><ele>436.4</ele><time>2026-03-15T10:52:42.001Z</time></trkpt><trkpt lat="45.588812562365995" lon="9.952270004968883"><ele>434.6</ele><time>2026-03-15T10:52:44Z</time></trkpt><trkpt lat="45.588765751122175" lon="9.952346885591302"><ele>432.8</ele><time>2026-03-15T10:52:45Z</time></trkpt><trkpt lat="45.58872008850957" lon="9.952410837582265"><ele>431.0</ele><time>2026-03-15T10:52:46Z</time></trkpt><trkpt lat="45.58863090836527" lon="9.952521810722807"><ele>428.66666666666663</ele><time>2026-03-15T10:52:48Z</time></trkpt><trkpt lat="45.58854052597479" lon="9.952619230856884"><ele>426.3333333333333</ele><time>2026-03-15T10:52:50Z</time></trkpt><trkpt lat="45.58847721437085" lon="9.95268339092852"><ele>424.0</ele><time>2026-03-15T10:52:52Z</time></trkpt><trkpt lat="45.58841986384241" lon="9.952789694270765"><ele>421.66666666666663</ele><time>2026-03-15T10:52:55Z</time></trkpt><trkpt lat="45.588362512533394" lon="9.952840571050304"><ele>419.3333333333333</ele><time>2026-03-15T10:52:57Z</time></trkpt><trkpt lat="45.58830133431488" lon="9.952861947465559"><ele>417.0</ele><time>2026-03-15T10:53:00Z</time></trkpt><trkpt lat="45.588359490322965" lon="9.95290422507084"><ele>417.0</ele><time>2026-03-15T10:56:11.998Z</time></trkpt><trkpt lat="45.58843490370674" lon="9.95276798204179"><ele>417.0</ele><time>2026-03-15T10:56:13.998Z</time></trkpt><trkpt lat="45.5884877793634" lon="9.952679156931802"><ele>417.0</ele><time>2026-03-15T10:56:14.998Z</time></trkpt><trkpt lat="45.58854821683496" lon="9.952589039845911"><ele>417.0</ele><time>2026-03-15T10:56:15.998Z</time></trkpt><trkpt lat="45.588623498694176" lon="9.952529568521488"><ele>417.0</ele><time>2026-03-15T10:56:17.998Z</time></trkpt><trkpt lat="45.58868715873466" lon="9.952462599792796"><ele>419.8</ele><time>2026-03-15T10:56:18.998Z</time></trkpt><trkpt lat="45.58876640553063" lon="9.952357386594686"><ele>422.6</ele><time>2026-03-15T10:56:19.998Z</time></trkpt><trkpt lat="45.588813593071016" lon="9.952272276628163"><ele>425.40000000000003</ele><time>2026-03-15T10:56:20.998Z</time></trkpt><trkpt lat="45.588895672707906" lon="9.9521466844404"><ele>428.20000000000005</ele><time>2026-03-15T10:56:22.998Z</time></trkpt><trkpt lat="45.58898681492106" lon="9.952040287278843"><ele>431.0</ele><time>2026-03-15T10:56:24.998Z</time></trkpt><trkpt lat="45.58907513163784" lon="9.951933876452284"><ele>430.99999999999994</ele><time>2026-03-15T10:56:26.998Z</time></trkpt><trkpt lat="45.58914536674613" lon="9.951815559963812"><ele>431.0</ele><time>2026-03-15T10:56:28.998Z</time></trkpt><trkpt lat="45.58921018419429" lon="9.95173293131111"><ele>431.0</ele><time>2026-03-15T10:56:30.998Z</time></trkpt><trkpt lat="45.589281820978286" lon="9.951679358646121"><ele>431.0</ele><time>2026-03-15T10:56:32.998Z</time></trkpt><trkpt lat="45.58938690134911" lon="9.951660582218008"><ele>430.99999999999994</ele><time>2026-03-15T10:56:34.997Z</time></trkpt><trkpt lat="45.58944975886032" lon="9.95162712342782"><ele>431.0</ele><time>2026-03-15T10:56:35.997Z</time></trkpt><trkpt lat="45.58955459096638" lon="9.951580448910462"><ele>432.6</ele><time>2026-03-15T10:56:37.997Z</time></trkpt><trkpt lat="45.589664670318975" lon="9.951543320044395"><ele>434.20000000000005</ele><time>2026-03-15T10:56:40Z</time></trkpt><trkpt lat="45.589755778164346" lon="9.951500369106554"><ele>435.79999999999995</ele><time>2026-03-15T10:56:42Z</time></trkpt><trkpt lat="45.589832265183844" lon="9.951438121858088"><ele>437.4</ele><time>2026-03-15T10:56:44Z</time></trkpt><trkpt lat="45.58991921771636" lon="9.951381028551085"><ele>439.0</ele><time>2026-03-15T10:56:46Z</time></trkpt><trkpt lat="45.589989874996476" lon="9.951309294894825"><ele>439.0</ele><time>2026-03-15T10:56:49Z</time></trkpt><trkpt lat="45.590038526643006" lon="9.951252003543125"><ele>439.0</ele><time>2026-03-15T10:56:51Z</time></trkpt><trkpt lat="45.590104113183706" lon="9.951226493127"><ele>439.0</ele><time>2026-03-15T10:56:53Z</time></trkpt><trkpt lat="45.59017193085488" lon="9.95117497316463"><ele>439.0</ele><time>2026-03-15T10:56:55Z</time></trkpt><trkpt lat="45.59018878645685" lon="9.951083469337718"><ele>439.0</ele><time>2026-03-15T10:56:57Z</time></trkpt><trkpt lat="45.59021885423749" lon="9.951003435320425"><ele>439.0</ele><time>2026-03-15T10:57:00Z</time></trkpt><trkpt lat="45.590213449064784" lon="9.950906015562145"><ele>439.0</ele><time>2026-03-15T10:57:14.999Z</time></trkpt><trkpt lat="45.590182669734055" lon="9.950827332372906"><ele>439.0</ele><time>2026-03-15T10:57:17.999Z</time></trkpt><trkpt lat="45.590120983962635" lon="9.950759142693563"><ele>439.0</ele><time>2026-03-15T10:57:20.999Z</time></trkpt><trkpt lat="45.59005507645039" lon="9.950766770290146"><ele>439.0</ele><time>2026-03-15T10:57:22.999Z</time></trkpt><trkpt lat="45.58999215520824" lon="9.950778768812002"><ele>439.0</ele><time>2026-03-15T10:57:25.999Z</time></trkpt><trkpt lat="45.58992193093858" lon="9.950779941872966"><ele>439.0</ele><time>2026-03-15T10:57:27.999Z</time></trkpt><trkpt lat="45.589863274155896" lon="9.950852913526134"><ele>439.0</ele><time>2026-03-15T10:57:29.999Z</time></trkpt><trkpt lat="45.58978709348301" lon="9.950874566522561"><ele>439.0</ele><time>2026-03-15T10:57:33.999Z</time></trkpt><trkpt lat="45.58983797889669" lon="9.950794192638197"><ele>438.4</ele><time>2026-03-15T10:57:37.999Z</time></trkpt><trkpt lat="45.589935716215635" lon="9.950719755808482"><ele>437.79999999999995</ele><time>2026-03-15T10:57:39.999Z</time></trkpt><trkpt lat="45.58999985171055" lon="9.950632150595935"><ele>437.20000000000005</ele><time>2026-03-15T10:57:40.999Z</time></trkpt><trkpt lat="45.59007635356248" lon="9.950631059547266"><ele>436.6</ele><time>2026-03-15T10:57:41.999Z</time></trkpt><trkpt lat="45.590163173037446" lon="9.950543560949797"><ele>436.0</ele><time>2026-03-15T10:57:43.999Z</time></trkpt><trkpt lat="45.590263091456166" lon="9.950442859689312"><ele>433.8</ele><time>2026-03-15T10:57:45.999Z</time></trkpt><trkpt lat="45.59035822696428" lon="9.950335113301334"><ele>431.6</ele><time>2026-03-15T10:57:47.999Z</time></trkpt><trkpt lat="45.59045556408419" lon="9.950275709916571"><ele>429.4</ele><time>2026-03-15T10:57:49.999Z</time></trkpt><trkpt lat="45.590541226805676" lon="9.950240925282197"><ele>427.2</ele><time>2026-03-15T10:57:51.999Z</time></trkpt><trkpt lat="45.59060054003403" lon="9.950166881338555"><ele>425.0</ele><time>2026-03-15T10:57:53.999Z</time></trkpt><trkpt lat="45.590600385548086" lon="9.95005546572385"><ele>424.8</ele><time>2026-03-15T10:57:55.999Z</time></trkpt><trkpt lat="45.59052081417175" lon="9.949936266287267"><ele>424.6</ele><time>2026-03-15T10:57:57.999Z</time></trkpt><trkpt lat="45.59042985601442" lon="9.94994426386828"><ele>424.4</ele><time>2026-03-15T10:57:59.998Z</time></trkpt><trkpt lat="45.59030977697104" lon="9.949957306139309"><ele>424.2</ele><time>2026-03-15T10:58:01.998Z</time></trkpt><trkpt lat="45.590221024600226" lon="9.94992793007758"><ele>424.0</ele><time>2026-03-15T10:58:03.998Z</time></trkpt><trkpt lat="45.5901416530732" lon="9.949886691831212"><ele>423.00000000000006</ele><time>2026-03-15T10:58:05.998Z</time></trkpt><trkpt lat="45.590114326354325" lon="9.94975931269646"><ele>422.0</ele><time>2026-03-15T10:58:07.998Z</time></trkpt><trkpt lat="45.590093974496945" lon="9.949642259642532"><ele>421.0</ele><time>2026-03-15T10:58:09.998Z</time></trkpt><trkpt lat="45.5901056979139" lon="9.949521074039783"><ele>420.0</ele><time>2026-03-15T10:58:11.998Z</time></trkpt><trkpt lat="45.59017228489223" lon="9.949434495322729"><ele>419.00000000000006</ele><time>2026-03-15T10:58:13.998Z</time></trkpt><trkpt lat="45.5902073517441" lon="9.94934802580902"><ele>418.0</ele><time>2026-03-15T10:58:16.998Z</time></trkpt><trkpt lat="45.5902439312352" lon="9.949243989976123"><ele>418.0</ele><time>2026-03-15T10:58:22.998Z</time></trkpt><trkpt lat="45.59019896699739" lon="9.94912776175226"><ele>418.0</ele><time>2026-03-15T10:58:24.998Z</time></trkpt><trkpt lat="45.5901330908301" lon="9.949084261316173"><ele>418.0</ele><time>2026-03-15T10:58:27.998Z</time></trkpt><trkpt lat="45.59022211163721" lon="9.949258717812338"><ele>418.0</ele><time>2026-03-15T10:58:32.998Z</time></trkpt><trkpt lat="45.59019979872463" lon="9.949368744415935"><ele>418.0</ele><time>2026-03-15T10:58:35.998Z</time></trkpt><trkpt lat="45.59001404897763" lon="9.949281741632504"><ele>418.0</ele><time>2026-03-15T10:58:36.998Z</time></trkpt><trkpt lat="45.58998098250899" lon="9.949365621642343"><ele>418.0</ele><time>2026-03-15T10:58:38.998Z</time></trkpt><trkpt lat="45.58994830984691" lon="9.949448503329004"><ele>418.0</ele><time>2026-03-15T10:58:40.998Z</time></trkpt><trkpt lat="45.58991724962847" lon="9.949527294680465"><ele>418.0</ele><time>2026-03-15T10:58:42.998Z</time></trkpt><trkpt lat="45.590120425939475" lon="9.949843271773647"><ele>418.00000000000006</ele><time>2026-03-15T10:58:57Z</time></trkpt><trkpt lat="45.590155489417064" lon="9.94993845289764"><ele>418.0</ele><time>2026-03-15T10:59:00Z</time></trkpt><trkpt lat="45.59022173730919" lon="9.949983175627914"><ele>418.0</ele><time>2026-03-15T10:59:01Z</time></trkpt><trkpt lat="45.59032902906582" lon="9.949986115552871"><ele>418.0</ele><time>2026-03-15T10:59:03Z</time></trkpt><trkpt lat="45.59044080577537" lon="9.949992497835144"><ele>418.00000000000006</ele><time>2026-03-15T10:59:05Z</time></trkpt><trkpt lat="45.59051809586134" lon="9.950004181227408"><ele>418.0</ele><time>2026-03-15T10:59:07Z</time></trkpt><trkpt lat="45.59052817805394" lon="9.95019370122069"><ele>419.4</ele><time>2026-03-15T10:59:11Z</time></trkpt><trkpt lat="45.59040397036075" lon="9.95026098601589"><ele>420.79999999999995</ele><time>2026-03-15T10:59:13Z</time></trkpt><trkpt lat="45.59030174000019" lon="9.950336242993187"><ele>422.2</ele><time>2026-03-15T10:59:14Z</time></trkpt><trkpt lat="45.590219994293975" lon="9.950427585218947"><ele>423.6</ele><time>2026-03-15T10:59:15Z</time></trkpt><trkpt lat="45.590141872047745" lon="9.950506948170112"><ele>425.0</ele><time>2026-03-15T10:59:17Z</time></trkpt><trkpt lat="45.590089503587436" lon="9.950559725901856"><ele>426.8333333333333</ele><time>2026-03-15T10:59:21Z</time></trkpt><trkpt lat="45.58998010177772" lon="9.95067655881692"><ele>428.66666666666663</ele><time>2026-03-15T10:59:23Z</time></trkpt><trkpt lat="45.589914032367545" lon="9.950727270069974"><ele>430.5</ele><time>2026-03-15T10:59:24Z</time></trkpt><trkpt lat="45.58986230323388" lon="9.950784503055678"><ele>432.33333333333337</ele><time>2026-03-15T10:59:25Z</time></trkpt><trkpt lat="45.589785719330244" lon="9.950847380938518"><ele>434.1666666666667</ele><time>2026-03-15T10:59:27Z</time></trkpt><trkpt lat="45.58984043905531" lon="9.95080243620519"><ele>436.0</ele><time>2026-03-15T10:59:35Z</time></trkpt><trkpt lat="45.589929027604995" lon="9.950747901506412"><ele>436.00000000000006</ele><time>2026-03-15T10:59:52.999Z</time></trkpt><trkpt lat="45.58997976000786" lon="9.950692048930017"><ele>436.0</ele><time>2026-03-15T10:59:53.999Z</time></trkpt><trkpt lat="45.59005234977304" lon="9.950599081842336"><ele>436.0</ele><time>2026-03-15T10:59:55.999Z</time></trkpt><trkpt lat="45.590107844774806" lon="9.950530366726879"><ele>436.0</ele><time>2026-03-15T10:59:58.999Z</time></trkpt><trkpt lat="45.5901745677833" lon="9.950473996729146"><ele>436.00000000000006</ele><time>2026-03-15T11:00:02.999Z</time></trkpt><trkpt lat="45.590236688148515" lon="9.950410507534391"><ele>436.0</ele><time>2026-03-15T11:00:04.999Z</time></trkpt><trkpt lat="45.59032298663295" lon="9.950530330816202"><ele>433.8</ele><time>2026-03-15T11:00:06.999Z</time></trkpt><trkpt lat="45.59040040136118" lon="9.950524038499898"><ele>431.6</ele><time>2026-03-15T11:00:08.999Z</time></trkpt><trkpt lat="45.59053967794751" lon="9.950508866590535"><ele>429.4</ele><time>2026-03-15T11:00:21.998Z</time></trkpt><trkpt lat="45.59061763218148" lon="9.950466587587862"><ele>427.2</ele><time>2026-03-15T11:00:24.998Z</time></trkpt><trkpt lat="45.590680110995464" lon="9.950425826787438"><ele>425.0</ele><time>2026-03-15T11:00:26.998Z</time></trkpt><trkpt lat="45.590758436354655" lon="9.950346609566157"><ele>425.0</ele><time>2026-03-15T11:00:28.997Z</time></trkpt><trkpt lat="45.59087138333088" lon="9.95028969464701"><ele>425.0</ele><time>2026-03-15T11:00:30.997Z</time></trkpt><trkpt lat="45.59095614208824" lon="9.95020774060263"><ele>425.0</ele><time>2026-03-15T11:00:32.997Z</time></trkpt><trkpt lat="45.59104879579612" lon="9.950140697760265"><ele>425.0</ele><time>2026-03-15T11:00:34.997Z</time></trkpt><trkpt lat="45.591117322364155" lon="9.9500932535231"><ele>425.0</ele><time>2026-03-15T11:00:37.997Z</time></trkpt><trkpt lat="45.59121172293011" lon="9.950040526183558"><ele>424.99999999999994</ele><time>2026-03-15T11:00:40.997Z</time></trkpt><trkpt lat="45.591284756503036" lon="9.94996099173065"><ele>425.0</ele><time>2026-03-15T11:00:42.997Z</time></trkpt><trkpt lat="45.591347239371885" lon="9.949942009069929"><ele>425.0</ele><time>2026-03-15T11:00:43.997Z</time></trkpt><trkpt lat="45.59144302887089" lon="9.949867659097718"><ele>425.0</ele><time>2026-03-15T11:00:45.997Z</time></trkpt><trkpt lat="45.59150837966252" lon="9.949813779740246"><ele>424.99999999999994</ele><time>2026-03-15T11:00:47.997Z</time></trkpt><trkpt lat="45.59160073111459" lon="9.949763299689387"><ele>425.0</ele><time>2026-03-15T11:00:50.997Z</time></trkpt><trkpt lat="45.591660151871686" lon="9.949733076830693"><ele>424.99999999999994</ele><time>2026-03-15T11:00:53Z</time></trkpt><trkpt lat="45.59172408520215" lon="9.949689209744733"><ele>425.0</ele><time>2026-03-15T11:00:55Z</time></trkpt><trkpt lat="45.59179931906038" lon="9.949630006528734"><ele>425.0</ele><time>2026-03-15T11:00:57Z</time></trkpt><trkpt lat="45.59187498981935" lon="9.949534372441272"><ele>425.0</ele><time>2026-03-15T11:00:59Z</time></trkpt><trkpt lat="45.59195486381596" lon="9.949438912503222"><ele>424.99999999999994</ele><time>2026-03-15T11:01:01Z</time></trkpt><trkpt lat="45.5920182153937" lon="9.949356852675514"><ele>425.0</ele><time>2026-03-15T11:01:03Z</time></trkpt><trkpt lat="45.59208055076119" lon="9.949259718393826"><ele>424.99999999999994</ele><time>2026-03-15T11:01:05Z</time></trkpt><trkpt lat="45.59213011925977" lon="9.949184047861015"><ele>425.0</ele><time>2026-03-15T11:01:07Z</time></trkpt><trkpt lat="45.592193108133486" lon="9.949112264754136"><ele>425.0</ele><time>2026-03-15T11:01:10Z</time></trkpt><trkpt lat="45.592136072565765" lon="9.949198188094359"><ele>425.0</ele><time>2026-03-15T11:02:02.999Z</time></trkpt><trkpt lat="45.592092362465465" lon="9.949271607215652"><ele>424.99999999999994</ele><time>2026-03-15T11:02:06.998Z</time></trkpt><trkpt lat="45.59199881842285" lon="9.94940557969243"><ele>425.0</ele><time>2026-03-15T11:02:17.998Z</time></trkpt><trkpt lat="45.591945112704565" lon="9.949478271879183"><ele>425.0</ele><time>2026-03-15T11:02:18.998Z</time></trkpt><trkpt lat="45.59185587741853" lon="9.949574955497685"><ele>425.0</ele><time>2026-03-15T11:02:20.998Z</time></trkpt><trkpt lat="45.59174746793914" lon="9.949650446560538"><ele>425.0</ele><time>2026-03-15T11:02:22.998Z</time></trkpt><trkpt lat="45.59168945171562" lon="9.949697171405425"><ele>425.0</ele><time>2026-03-15T11:02:23.998Z</time></trkpt><trkpt lat="45.59160654513464" lon="9.949750595337205"><ele>425.0</ele><time>2026-03-15T11:02:24.998Z</time></trkpt><trkpt lat="45.59148410947475" lon="9.949863048011835"><ele>425.0</ele><time>2026-03-15T11:02:25.998Z</time></trkpt><trkpt lat="45.591358689263345" lon="9.949932430487646"><ele>425.0</ele><time>2026-03-15T11:02:26.998Z</time></trkpt><trkpt lat="45.59127710345998" lon="9.94996187825232"><ele>425.0</ele><time>2026-03-15T11:02:27.998Z</time></trkpt><trkpt lat="45.59118524996401" lon="9.950033727734471"><ele>425.0</ele><time>2026-03-15T11:02:29.998Z</time></trkpt><trkpt lat="45.591089495372884" lon="9.950130799216343"><ele>425.0</ele><time>2026-03-15T11:02:31.998Z</time></trkpt><trkpt lat="45.59098480473141" lon="9.950208120444788"><ele>424.99999999999994</ele><time>2026-03-15T11:02:32.998Z</time></trkpt><trkpt lat="45.59087527769624" lon="9.950289014777708"><ele>425.0</ele><time>2026-03-15T11:02:33.998Z</time></trkpt><trkpt lat="45.590802487739026" lon="9.950338505860795"><ele>425.0</ele><time>2026-03-15T11:02:34.998Z</time></trkpt><trkpt lat="45.59073752115781" lon="9.950386878734117"><ele>425.0</ele><time>2026-03-15T11:02:35.998Z</time></trkpt><trkpt lat="45.59066509336273" lon="9.950420124776269"><ele>424.99999999999994</ele><time>2026-03-15T11:02:36.998Z</time></trkpt><trkpt lat="45.590593546342724" lon="9.950484494285675"><ele>425.0</ele><time>2026-03-15T11:02:38.998Z</time></trkpt><trkpt lat="45.59048641993127" lon="9.950528269007568"><ele>424.99999999999994</ele><time>2026-03-15T11:02:40.998Z</time></trkpt><trkpt lat="45.59042356355671" lon="9.950539439316941"><ele>425.0</ele><time>2026-03-15T11:02:42.998Z</time></trkpt><trkpt lat="45.59035183833825" lon="9.950534706531084"><ele>425.0</ele><time>2026-03-15T11:02:43.998Z</time></trkpt><trkpt lat="45.590274381072255" lon="9.950524198107788"><ele>425.0</ele><time>2026-03-15T11:02:46.998Z</time></trkpt><trkpt lat="45.59018361954702" lon="9.950512745944211"><ele>424.99999999999994</ele><time>2026-03-15T11:02:50.997Z</time></trkpt><trkpt lat="45.59010813827056" lon="9.950503222142261"><ele>425.0</ele><time>2026-03-15T11:02:53.997Z</time></trkpt><trkpt lat="45.59002957834039" lon="9.950493310172815"><ele>427.2</ele><time>2026-03-15T11:02:56.997Z</time></trkpt><trkpt lat="45.58999507111494" lon="9.9506605294429"><ele>429.4</ele><time>2026-03-15T11:02:58Z</time></trkpt><trkpt lat="45.58990398543536" lon="9.95075817985375"><ele>431.6</ele><time>2026-03-15T11:03:00Z</time></trkpt><trkpt lat="45.58982008267376" lon="9.950818207083442"><ele>433.8</ele><time>2026-03-15T11:03:02Z</time></trkpt><trkpt lat="45.589728285925766" lon="9.950891287139983"><ele>436.0</ele><time>2026-03-15T11:03:04Z</time></trkpt><trkpt lat="45.58961683068937" lon="9.950905511055144"><ele>436.6</ele><time>2026-03-15T11:03:06Z</time></trkpt><trkpt lat="45.58954480758475" lon="9.950906211735413"><ele>437.20000000000005</ele><time>2026-03-15T11:03:07Z</time></trkpt><trkpt lat="45.5894754729663" lon="9.950922725737286"><ele>437.79999999999995</ele><time>2026-03-15T11:03:09Z</time></trkpt><trkpt lat="45.58938954020334" lon="9.950954646609642"><ele>438.4</ele><time>2026-03-15T11:03:12Z</time></trkpt><trkpt lat="45.58947564056739" lon="9.95120089576627"><ele>439.0</ele><time>2026-03-15T11:03:17Z</time></trkpt><trkpt lat="45.589519895241104" lon="9.951110525310423"><ele>439.00000000000006</ele><time>2026-03-15T11:03:21Z</time></trkpt><trkpt lat="45.58960749088537" lon="9.951059243262494"><ele>439.0</ele><time>2026-03-15T11:03:23Z</time></trkpt><trkpt lat="45.58968279343896" lon="9.95101094499151"><ele>439.0</ele><time>2026-03-15T11:03:25Z</time></trkpt><trkpt lat="45.58973825811741" lon="9.95095051881453"><ele>439.0</ele><time>2026-03-15T11:03:27Z</time></trkpt><trkpt lat="45.589778615600174" lon="9.950864130147334"><ele>439.00000000000006</ele><time>2026-03-15T11:03:29.999Z</time></trkpt><trkpt lat="45.58968590786481" lon="9.950824304144819"><ele>439.0</ele><time>2026-03-15T11:03:32.999Z</time></trkpt><trkpt lat="45.58961964654403" lon="9.950897418233428"><ele>439.0</ele><time>2026-03-15T11:03:33.999Z</time></trkpt><trkpt lat="45.58952061607047" lon="9.950890977606312"><ele>439.0</ele><time>2026-03-15T11:03:35.999Z</time></trkpt><trkpt lat="45.58939826217389" lon="9.950928645768384"><ele>439.0</ele><time>2026-03-15T11:03:37.999Z</time></trkpt><trkpt lat="45.58929574254561" lon="9.950999844283896"><ele>439.0</ele><time>2026-03-15T11:03:39.999Z</time></trkpt><trkpt lat="45.58918109643283" lon="9.951062790735948"><ele>439.1428571428571</ele><time>2026-03-15T11:03:41.999Z</time></trkpt><trkpt lat="45.58910777987484" lon="9.951106068846867"><ele>439.2857142857143</ele><time>2026-03-15T11:03:42.999Z</time></trkpt><trkpt lat="45.58903292078757" lon="9.951148778329651"><ele>439.42857142857144</ele><time>2026-03-15T11:03:43.999Z</time></trkpt><trkpt lat="45.58896421010955" lon="9.951178589954527"><ele>439.57142857142856</ele><time>2026-03-15T11:03:44.999Z</time></trkpt><trkpt lat="45.58890373871431" lon="9.951208322144801"><ele>439.7142857142857</ele><time>2026-03-15T11:03:45.999Z</time></trkpt><trkpt lat="45.58884299193551" lon="9.951245599923787"><ele>439.85714285714283</ele><time>2026-03-15T11:03:46.999Z</time></trkpt><trkpt lat="45.588782101484156" lon="9.951291934122317"><ele>440.0</ele><time>2026-03-15T11:03:47.999Z</time></trkpt><trkpt lat="45.58871552492003" lon="9.951334277859129"><ele>436.99999999999994</ele><time>2026-03-15T11:03:48.999Z</time></trkpt><trkpt lat="45.58866583209095" lon="9.95141795737758"><ele>434.0</ele><time>2026-03-15T11:03:49.999Z</time></trkpt><trkpt lat="45.58861346611335" lon="9.951472949310908"><ele>431.0</ele><time>2026-03-15T11:03:50.999Z</time></trkpt><trkpt lat="45.58855741969214" lon="9.951556397125358"><ele>428.0</ele><time>2026-03-15T11:03:51.999Z</time></trkpt><trkpt lat="45.58850523135197" lon="9.951631944727843"><ele>425.0</ele><time>2026-03-15T11:03:52.999Z</time></trkpt><trkpt lat="45.588437675353575" lon="9.951680401239877"><ele>421.99999999999994</ele><time>2026-03-15T11:03:53.999Z</time></trkpt><trkpt lat="45.58838867298879" lon="9.951764845924927"><ele>419.0</ele><time>2026-03-15T11:03:54.999Z</time></trkpt><trkpt lat="45.588321959399664" lon="9.951809911483025"><ele>418.99999999999994</ele><time>2026-03-15T11:03:55.999Z</time></trkpt><trkpt lat="45.58826423347809" lon="9.951877719148094"><ele>419.0</ele><time>2026-03-15T11:03:56.999Z</time></trkpt><trkpt lat="45.588210072164614" lon="9.951935987938368"><ele>419.0</ele><time>2026-03-15T11:03:57.999Z</time></trkpt><trkpt lat="45.58809098290696" lon="9.952031740671439"><ele>419.0</ele><time>2026-03-15T11:03:59.999Z</time></trkpt><trkpt lat="45.588030192089875" lon="9.952074910268976"><ele>418.99999999999994</ele><time>2026-03-15T11:04:00.999Z</time></trkpt><trkpt lat="45.587973594078115" lon="9.952139807526283"><ele>419.0</ele><time>2026-03-15T11:04:01.999Z</time></trkpt><trkpt lat="45.58791145054114" lon="9.95220271664563"><ele>418.99999999999994</ele><time>2026-03-15T11:04:02.999Z</time></trkpt><trkpt lat="45.58785792264873" lon="9.952295520977987"><ele>419.0</ele><time>2026-03-15T11:04:03.999Z</time></trkpt><trkpt lat="45.58781140234869" lon="9.952395942338592"><ele>419.0</ele><time>2026-03-15T11:04:04.999Z</time></trkpt><trkpt lat="45.58777241546232" lon="9.952490585676681"><ele>419.0</ele><time>2026-03-15T11:04:05.999Z</time></trkpt><trkpt lat="45.58774021126186" lon="9.952588087814949"><ele>418.99999999999994</ele><time>2026-03-15T11:04:06.999Z</time></trkpt><trkpt lat="45.58769765646864" lon="9.952677523251102"><ele>419.0</ele><time>2026-03-15T11:04:07.999Z</time></trkpt><trkpt lat="45.587662169533836" lon="9.952753869633176"><ele>413.3333333333333</ele><time>2026-03-15T11:04:08.999Z</time></trkpt><trkpt lat="45.58761896300559" lon="9.952849980224341"><ele>407.66666666666663</ele><time>2026-03-15T11:04:09.999Z</time></trkpt><trkpt lat="45.587577805292284" lon="9.952941533361342"><ele>402.0</ele><time>2026-03-15T11:04:10.999Z</time></trkpt><trkpt lat="45.58755380279506" lon="9.953040868572065"><ele>396.33333333333337</ele><time>2026-03-15T11:04:11.998Z</time></trkpt><trkpt lat="45.58750931804084" lon="9.953132809044911"><ele>390.6666666666667</ele><time>2026-03-15T11:04:12.998Z</time></trkpt><trkpt lat="45.58747846142659" lon="9.953214040782797"><ele>385.0</ele><time>2026-03-15T11:04:13.998Z</time></trkpt><trkpt lat="45.58742510159267" lon="9.953299848740762"><ele>384.50000000000006</ele><time>2026-03-15T11:04:14.998Z</time></trkpt><trkpt lat="45.587407322738486" lon="9.953404793111817"><ele>384.0</ele><time>2026-03-15T11:04:15.998Z</time></trkpt><trkpt lat="45.58737520199036" lon="9.953508688507263"><ele>383.5</ele><time>2026-03-15T11:04:16.998Z</time></trkpt><trkpt lat="45.58735989749506" lon="9.953619011968613"><ele>383.0</ele><time>2026-03-15T11:04:17.998Z</time></trkpt><trkpt lat="45.58734583536672" lon="9.9537438389203"><ele>382.5</ele><time>2026-03-15T11:04:18.998Z</time></trkpt><trkpt lat="45.58730785627109" lon="9.953851155980225"><ele>382.0</ele><time>2026-03-15T11:04:19.998Z</time></trkpt><trkpt lat="45.58728097081519" lon="9.953966718708383"><ele>382.0</ele><time>2026-03-15T11:04:20.998Z</time></trkpt><trkpt lat="45.58724955283168" lon="9.95407818016421"><ele>382.0</ele><time>2026-03-15T11:04:21.998Z</time></trkpt><trkpt lat="45.58721439838178" lon="9.954185092076791"><ele>382.0</ele><time>2026-03-15T11:04:22.998Z</time></trkpt><trkpt lat="45.58717683828998" lon="9.95427958310757"><ele>382.0</ele><time>2026-03-15T11:04:23.998Z</time></trkpt><trkpt lat="45.58713740414901" lon="9.954374061903026"><ele>382.0</ele><time>2026-03-15T11:04:24.998Z</time></trkpt><trkpt lat="45.587112374503214" lon="9.954471874498518"><ele>382.0</ele><time>2026-03-15T11:04:25.998Z</time></trkpt><trkpt lat="45.58707016123663" lon="9.954562225843725"><ele>379.14285714285717</ele><time>2026-03-15T11:04:26.998Z</time></trkpt><trkpt lat="45.58701562445169" lon="9.954631304111464"><ele>376.2857142857143</ele><time>2026-03-15T11:04:27.998Z</time></trkpt><trkpt lat="45.58697834904868" lon="9.954727309045138"><ele>373.42857142857144</ele><time>2026-03-15T11:04:28.998Z</time></trkpt><trkpt lat="45.58693288437754" lon="9.954805243537244"><ele>370.57142857142856</ele><time>2026-03-15T11:04:29.998Z</time></trkpt><trkpt lat="45.586899419030225" lon="9.954894873332233"><ele>367.71428571428567</ele><time>2026-03-15T11:04:30.998Z</time></trkpt><trkpt lat="45.586854675073425" lon="9.954978076036298"><ele>364.85714285714283</ele><time>2026-03-15T11:04:31.998Z</time></trkpt><trkpt lat="45.586821015498266" lon="9.95507551380962"><ele>362.0</ele><time>2026-03-15T11:04:32.998Z</time></trkpt><trkpt lat="45.58679673327591" lon="9.955187614120534"><ele>359.5</ele><time>2026-03-15T11:04:33.998Z</time></trkpt><trkpt lat="45.5867618378873" lon="9.95529971709011"><ele>357.0</ele><time>2026-03-15T11:04:34.998Z</time></trkpt><trkpt lat="45.58673198728928" lon="9.955396610645993"><ele>354.5</ele><time>2026-03-15T11:04:35.998Z</time></trkpt><trkpt lat="45.58671773307817" lon="9.955510168999496"><ele>352.0</ele><time>2026-03-15T11:04:36.998Z</time></trkpt><trkpt lat="45.5866934441478" lon="9.955614740984698"><ele>349.5</ele><time>2026-03-15T11:04:37.998Z</time></trkpt><trkpt lat="45.58666292616996" lon="9.95572512170311"><ele>347.0</ele><time>2026-03-15T11:04:38.998Z</time></trkpt><trkpt lat="45.5866231913393" lon="9.95583040652918"><ele>345.6666666666667</ele><time>2026-03-15T11:04:39.998Z</time></trkpt><trkpt lat="45.58658771679563" lon="9.955990700325446"><ele>344.3333333333333</ele><time>2026-03-15T11:04:40.998Z</time></trkpt><trkpt lat="45.586523023123114" lon="9.956231012065613"><ele>343.0</ele><time>2026-03-15T11:04:41.998Z</time></trkpt><trkpt lat="45.58648307103765" lon="9.956449924976914"><ele>343.0</ele><time>2026-03-15T11:04:42.998Z</time></trkpt><trkpt lat="45.586437870972624" lon="9.956629986786218"><ele>343.0</ele><time>2026-03-15T11:04:43.998Z</time></trkpt><trkpt lat="45.58639153158445" lon="9.956807453396783"><ele>343.0</ele><time>2026-03-15T11:04:44.998Z</time></trkpt><trkpt lat="45.58634603052136" lon="9.956982795989086"><ele>343.0</ele><time>2026-03-15T11:04:45.998Z</time></trkpt><trkpt lat="45.58632631722039" lon="9.957151416168687"><ele>340.4</ele><time>2026-03-15T11:04:46.998Z</time></trkpt><trkpt lat="45.58628021609613" lon="9.957278127295806"><ele>337.79999999999995</ele><time>2026-03-15T11:04:47.998Z</time></trkpt><trkpt lat="45.58622060050932" lon="9.957388924267377"><ele>335.2</ele><time>2026-03-15T11:04:48.998Z</time></trkpt><trkpt lat="45.586163723120606" lon="9.957488387474474"><ele>332.6</ele><time>2026-03-15T11:04:49.998Z</time></trkpt><trkpt lat="45.5861086534805" lon="9.957585219567687"><ele>330.0</ele><time>2026-03-15T11:04:50.998Z</time></trkpt><trkpt lat="45.58606279728803" lon="9.95767514673224"><ele>329.4</ele><time>2026-03-15T11:04:51.998Z</time></trkpt><trkpt lat="45.58599930421054" lon="9.95782881191715"><ele>328.8</ele><time>2026-03-15T11:04:53.998Z</time></trkpt><trkpt lat="45.585916988650666" lon="9.957964867110492"><ele>328.20000000000005</ele><time>2026-03-15T11:04:55.998Z</time></trkpt><trkpt lat="45.585870671341794" lon="9.958062386439435"><ele>327.6</ele><time>2026-03-15T11:04:56.997Z</time></trkpt><trkpt lat="45.58581361508691" lon="9.95816782417988"><ele>327.0</ele><time>2026-03-15T11:04:57.997Z</time></trkpt><trkpt lat="45.58575242324668" lon="9.958281087133722"><ele>325.25</ele><time>2026-03-15T11:04:58.997Z</time></trkpt><trkpt lat="45.58566632088376" lon="9.95842451738265"><ele>323.5</ele><time>2026-03-15T11:04:59.997Z</time></trkpt><trkpt lat="45.58558729002442" lon="9.958568146444712"><ele>321.75</ele><time>2026-03-15T11:05:00.997Z</time></trkpt><trkpt lat="45.5855309044707" lon="9.958697890532193"><ele>320.0</ele><time>2026-03-15T11:05:01.997Z</time></trkpt><trkpt lat="45.585474249720555" lon="9.958809680308573"><ele>320.0</ele><time>2026-03-15T11:05:02.997Z</time></trkpt><trkpt lat="45.58542005620727" lon="9.95892168409623"><ele>320.0</ele><time>2026-03-15T11:05:04Z</time></trkpt><trkpt lat="45.58537369912928" lon="9.959008004940765"><ele>320.0</ele><time>2026-03-15T11:05:05Z</time></trkpt><trkpt lat="45.585309456158306" lon="9.959135361972528"><ele>320.0</ele><time>2026-03-15T11:05:07Z</time></trkpt><trkpt lat="45.58521461314063" lon="9.959145501677723"><ele>320.0</ele><time>2026-03-15T11:05:09Z</time></trkpt><trkpt lat="45.58517289071649" lon="9.959076942113077"><ele>320.0</ele><time>2026-03-15T11:05:10Z</time></trkpt><trkpt lat="45.58519815968059" lon="9.958988705590432"><ele>320.0</ele><time>2026-03-15T11:05:12Z</time></trkpt><trkpt lat="45.58521607828644" lon="9.958874103474379"><ele>320.0</ele><time>2026-03-15T11:05:14Z</time></trkpt><trkpt lat="45.58526693202041" lon="9.958753137759837"><ele>320.0</ele><time>2026-03-15T11:05:15Z</time></trkpt><trkpt lat="45.5853209919138" lon="9.958624409658032"><ele>320.0</ele><time>2026-03-15T11:05:16Z</time></trkpt><trkpt lat="45.58536563874667" lon="9.958495192309304"><ele>320.0</ele><time>2026-03-15T11:05:17Z</time></trkpt><trkpt lat="45.585389683005204" lon="9.958379697036486"><ele>321.1666666666667</ele><time>2026-03-15T11:05:18Z</time></trkpt><trkpt lat="45.585420429206486" lon="9.95826086887984"><ele>322.33333333333337</ele><time>2026-03-15T11:05:19Z</time></trkpt><trkpt lat="45.58544471712439" lon="9.958149764084258"><ele>323.5</ele><time>2026-03-15T11:05:20Z</time></trkpt><trkpt lat="45.585471467636246" lon="9.958034177779675"><ele>324.6666666666667</ele><time>2026-03-15T11:05:21Z</time></trkpt><trkpt lat="45.585494969400074" lon="9.957916849723473"><ele>325.8333333333333</ele><time>2026-03-15T11:05:22Z</time></trkpt><trkpt lat="45.58552324762001" lon="9.957794846535485"><ele>327.0</ele><time>2026-03-15T11:05:23Z</time></trkpt><trkpt lat="45.58555212502527" lon="9.95768102133663"><ele>327.0</ele><time>2026-03-15T11:05:24Z</time></trkpt><trkpt lat="45.585579891043984" lon="9.957563868029911"><ele>327.0</ele><time>2026-03-15T11:05:25Z</time></trkpt><trkpt lat="45.58560463998399" lon="9.957429603426935"><ele>327.0</ele><time>2026-03-15T11:05:26Z</time></trkpt><trkpt lat="45.58560728417895" lon="9.957270501609989"><ele>327.0</ele><time>2026-03-15T11:05:27Z</time></trkpt><trkpt lat="45.58560368869616" lon="9.957098648357286"><ele>327.0</ele><time>2026-03-15T11:05:28Z</time></trkpt><trkpt lat="45.58560437928555" lon="9.956941453983587"><ele>325.5</ele><time>2026-03-15T11:05:29Z</time></trkpt><trkpt lat="45.58557547010099" lon="9.956779372485926"><ele>324.0</ele><time>2026-03-15T11:05:30Z</time></trkpt><trkpt lat="45.5855675757117" lon="9.956631392847632"><ele>322.5</ele><time>2026-03-15T11:05:31Z</time></trkpt><trkpt lat="45.5855578159114" lon="9.95646632161872"><ele>321.0</ele><time>2026-03-15T11:05:32Z</time></trkpt><trkpt lat="45.58554476009397" lon="9.956305653658003"><ele>318.75</ele><time>2026-03-15T11:05:33Z</time></trkpt><trkpt lat="45.585531359540816" lon="9.956144768917701"><ele>316.5</ele><time>2026-03-15T11:05:34Z</time></trkpt><trkpt lat="45.58551193907113" lon="9.955983926300798"><ele>314.25</ele><time>2026-03-15T11:05:35Z</time></trkpt><trkpt lat="45.585480564565366" lon="9.955823488269958"><ele>312.0</ele><time>2026-03-15T11:05:36Z</time></trkpt><trkpt lat="45.58546300996736" lon="9.955657599551746"><ele>310.75</ele><time>2026-03-15T11:05:37Z</time></trkpt><trkpt lat="45.585465676605665" lon="9.955492766339521"><ele>309.5</ele><time>2026-03-15T11:05:38Z</time></trkpt><trkpt lat="45.585459718068186" lon="9.955325948953396"><ele>308.25</ele><time>2026-03-15T11:05:39Z</time></trkpt><trkpt lat="45.5854483139797" lon="9.955155368061849"><ele>307.0</ele><time>2026-03-15T11:05:40Z</time></trkpt><trkpt lat="45.58546963291587" lon="9.955003440003047"><ele>304.8</ele><time>2026-03-15T11:05:41Z</time></trkpt><trkpt lat="45.58547998747961" lon="9.95485068845407"><ele>302.6</ele><time>2026-03-15T11:05:42Z</time></trkpt><trkpt lat="45.585494046392114" lon="9.954710763174116"><ele>300.40000000000003</ele><time>2026-03-15T11:05:43Z</time></trkpt><trkpt lat="45.585495931540024" lon="9.954572827888347"><ele>298.2</ele><time>2026-03-15T11:05:43.999Z</time></trkpt><trkpt lat="45.58551060423422" lon="9.954453696120515"><ele>296.0</ele><time>2026-03-15T11:05:44.999Z</time></trkpt><trkpt lat="45.5855408932764" lon="9.954344291850079"><ele>296.0</ele><time>2026-03-15T11:05:45.999Z</time></trkpt><trkpt lat="45.58555088255327" lon="9.954237694241266"><ele>296.0</ele><time>2026-03-15T11:05:46.999Z</time></trkpt><trkpt lat="45.58555588305649" lon="9.954129643240753"><ele>296.0</ele><time>2026-03-15T11:05:47.999Z</time></trkpt><trkpt lat="45.58555593419385" lon="9.954012628517226"><ele>296.0</ele><time>2026-03-15T11:05:48.999Z</time></trkpt><trkpt lat="45.585554196529706" lon="9.953906975628618"><ele>296.0</ele><time>2026-03-15T11:05:49.999Z</time></trkpt><trkpt lat="45.585511191150516" lon="9.953810552510356"><ele>296.0</ele><time>2026-03-15T11:05:50.999Z</time></trkpt><trkpt lat="45.58543875704143" lon="9.9537342807868"><ele>288.40000000000003</ele><time>2026-03-15T11:05:51.999Z</time></trkpt><trkpt lat="45.58534415086226" lon="9.953674690350113"><ele>280.8</ele><time>2026-03-15T11:05:52.999Z</time></trkpt><trkpt lat="45.58526679043029" lon="9.953586618602271"><ele>273.20000000000005</ele><time>2026-03-15T11:05:53.999Z</time></trkpt><trkpt lat="45.58519255402987" lon="9.95351648978661"><ele>265.6</ele><time>2026-03-15T11:05:54.999Z</time></trkpt><trkpt lat="45.58512547320996" lon="9.953450940061591"><ele>258.0</ele><time>2026-03-15T11:05:55.999Z</time></trkpt><trkpt lat="45.585054735313655" lon="9.953369386636036"><ele>258.0</ele><time>2026-03-15T11:05:56.999Z</time></trkpt><trkpt lat="45.584991055902684" lon="9.95327124494156"><ele>258.0</ele><time>2026-03-15T11:05:57.999Z</time></trkpt><trkpt lat="45.58492655941193" lon="9.9531624763819"><ele>258.0</ele><time>2026-03-15T11:05:58.999Z</time></trkpt><trkpt lat="45.5848703779622" lon="9.953046933684059"><ele>258.0</ele><time>2026-03-15T11:05:59.999Z</time></trkpt><trkpt lat="45.58481965511881" lon="9.952922871875591"><ele>258.0</ele><time>2026-03-15T11:06:00.999Z</time></trkpt><trkpt lat="45.584776062215944" lon="9.952785501546717"><ele>258.0</ele><time>2026-03-15T11:06:01.999Z</time></trkpt><trkpt lat="45.58474104542514" lon="9.952638563609648"><ele>258.0</ele><time>2026-03-15T11:06:02.999Z</time></trkpt><trkpt lat="45.58471763107369" lon="9.952482563652199"><ele>258.0</ele><time>2026-03-15T11:06:03.999Z</time></trkpt><trkpt lat="45.58472110279319" lon="9.952338113775875"><ele>258.0</ele><time>2026-03-15T11:06:04.999Z</time></trkpt><trkpt lat="45.584735466297566" lon="9.95217983102555"><ele>258.0</ele><time>2026-03-15T11:06:05.999Z</time></trkpt><trkpt lat="45.5847680304017" lon="9.952042561859534"><ele>257.6</ele><time>2026-03-15T11:06:06.999Z</time></trkpt><trkpt lat="45.584815793149495" lon="9.951918247443201"><ele>257.20000000000005</ele><time>2026-03-15T11:06:07.999Z</time></trkpt><trkpt lat="45.58486533025242" lon="9.951800882500605"><ele>256.8</ele><time>2026-03-15T11:06:08.999Z</time></trkpt><trkpt lat="45.58495207671291" lon="9.951697469383156"><ele>256.40000000000003</ele><time>2026-03-15T11:06:09.999Z</time></trkpt><trkpt lat="45.58504273632825" lon="9.951607965493128"><ele>256.0</ele><time>2026-03-15T11:06:10.999Z</time></trkpt><trkpt lat="45.58512077762415" lon="9.951502709020138"><ele>253.20000000000002</ele><time>2026-03-15T11:06:11.999Z</time></trkpt><trkpt lat="45.58519120564681" lon="9.951435995221283"><ele>250.40000000000003</ele><time>2026-03-15T11:06:12.999Z</time></trkpt><trkpt lat="45.58525324332261" lon="9.951374047509349"><ele>247.6</ele><time>2026-03-15T11:06:13.999Z</time></trkpt><trkpt lat="45.58531435458628" lon="9.951283161878388"><ele>244.8</ele><time>2026-03-15T11:06:15.999Z</time></trkpt><trkpt lat="45.58531995232657" lon="9.951098998010378"><ele>242.0</ele><time>2026-03-15T11:06:17.999Z</time></trkpt><trkpt lat="45.585299369175424" lon="9.950960436906763"><ele>239.66666666666669</ele><time>2026-03-15T11:06:19.999Z</time></trkpt><trkpt lat="45.58532143978491" lon="9.950824290156028"><ele>237.33333333333334</ele><time>2026-03-15T11:06:21.999Z</time></trkpt><trkpt lat="45.58535045411038" lon="9.950702320346235"><ele>235.0</ele><time>2026-03-15T11:06:22.999Z</time></trkpt><trkpt lat="45.58536445027388" lon="9.950575971823483"><ele>232.66666666666669</ele><time>2026-03-15T11:06:23.999Z</time></trkpt><trkpt lat="45.585394124793" lon="9.950474911011908"><ele>230.33333333333334</ele><time>2026-03-15T11:06:24.999Z</time></trkpt><trkpt lat="45.58538323652184" lon="9.95037572381745"><ele>228.0</ele><time>2026-03-15T11:06:25.999Z</time></trkpt><trkpt lat="45.58535769804127" lon="9.950261093683737"><ele>228.0</ele><time>2026-03-15T11:06:26.999Z</time></trkpt><trkpt lat="45.58526642565775" lon="9.950133669310189"><ele>228.0</ele><time>2026-03-15T11:06:27.999Z</time></trkpt><trkpt lat="45.58517433021049" lon="9.950021427736546"><ele>228.0</ele><time>2026-03-15T11:06:28.998Z</time></trkpt><trkpt lat="45.585086274751966" lon="9.949925812134527"><ele>228.0</ele><time>2026-03-15T11:06:29.998Z</time></trkpt><trkpt lat="45.584999657583765" lon="9.949850196432262"><ele>227.2</ele><time>2026-03-15T11:06:30.998Z</time></trkpt><trkpt lat="45.58492159984094" lon="9.949750623784384"><ele>226.4</ele><time>2026-03-15T11:06:31.998Z</time></trkpt><trkpt lat="45.584831875576" lon="9.949666535452218"><ele>225.59999999999997</ele><time>2026-03-15T11:06:32.998Z</time></trkpt><trkpt lat="45.58472437611047" lon="9.949573662552464"><ele>224.79999999999998</ele><time>2026-03-15T11:06:33.998Z</time></trkpt><trkpt lat="45.58462927503079" lon="9.94949182599539"><ele>224.0</ele><time>2026-03-15T11:06:34.998Z</time></trkpt><trkpt lat="45.58453562889229" lon="9.94940805043064"><ele>219.79999999999998</ele><time>2026-03-15T11:06:35.998Z</time></trkpt><trkpt lat="45.584445733157104" lon="9.949328688573122"><ele>215.59999999999997</ele><time>2026-03-15T11:06:36.998Z</time></trkpt><trkpt lat="45.58436470746817" lon="9.949226528986799"><ele>211.4</ele><time>2026-03-15T11:06:37.998Z</time></trkpt><trkpt lat="45.58427863860089" lon="9.949141871322347"><ele>207.2</ele><time>2026-03-15T11:06:38.998Z</time></trkpt><trkpt lat="45.584196607979635" lon="9.949054091436544"><ele>203.0</ele><time>2026-03-15T11:06:39.998Z</time></trkpt><trkpt lat="45.58412334766242" lon="9.948960623949779"><ele>203.0</ele><time>2026-03-15T11:06:40.998Z</time></trkpt><trkpt lat="45.5840398952828" lon="9.948873759016575"><ele>203.0</ele><time>2026-03-15T11:06:41.998Z</time></trkpt><trkpt lat="45.5839837715789" lon="9.948766288661618"><ele>203.0</ele><time>2026-03-15T11:06:42.998Z</time></trkpt><trkpt lat="45.58391571385548" lon="9.948669078551575"><ele>203.0</ele><time>2026-03-15T11:06:43.998Z</time></trkpt><trkpt lat="45.58384743367408" lon="9.948567663274961"><ele>203.0</ele><time>2026-03-15T11:06:44.998Z</time></trkpt><trkpt lat="45.58378906516286" lon="9.94846645474802"><ele>203.0</ele><time>2026-03-15T11:06:45.998Z</time></trkpt><trkpt lat="45.58373957781955" lon="9.948381441005985"><ele>203.0</ele><time>2026-03-15T11:06:46.998Z</time></trkpt><trkpt lat="45.58376773812276" lon="9.948292116558072"><ele>203.0</ele><time>2026-03-15T11:06:47.998Z</time></trkpt><trkpt lat="45.58388108712271" lon="9.948162207840866"><ele>203.0</ele><time>2026-03-15T11:06:49.998Z</time></trkpt><trkpt lat="45.58394899684559" lon="9.948093494582475"><ele>203.0</ele><time>2026-03-15T11:06:50.998Z</time></trkpt><trkpt lat="45.58402566550186" lon="9.947997652147976"><ele>201.60000000000002</ele><time>2026-03-15T11:06:52.998Z</time></trkpt><trkpt lat="45.584010788088875" lon="9.947895092719985"><ele>200.20000000000002</ele><time>2026-03-15T11:06:54.998Z</time></trkpt><trkpt lat="45.583928185804645" lon="9.947742879914811"><ele>198.8</ele><time>2026-03-15T11:06:56.998Z</time></trkpt><trkpt lat="45.58388062339455" lon="9.947661692229843"><ele>197.4</ele><time>2026-03-15T11:06:57.998Z</time></trkpt><trkpt lat="45.58382003345805" lon="9.947587043324047"><ele>196.0</ele><time>2026-03-15T11:06:58.998Z</time></trkpt><trkpt lat="45.58373230962206" lon="9.947481569475505"><ele>193.0</ele><time>2026-03-15T11:06:59.998Z</time></trkpt><trkpt lat="45.58363772434513" lon="9.947373482830546"><ele>190.0</ele><time>2026-03-15T11:07:00.998Z</time></trkpt><trkpt lat="45.58355628349199" lon="9.947284517773781"><ele>187.0</ele><time>2026-03-15T11:07:01.998Z</time></trkpt><trkpt lat="45.58349575346191" lon="9.947201827073162"><ele>184.0</ele><time>2026-03-15T11:07:02.998Z</time></trkpt><trkpt lat="45.583432069420304" lon="9.947121293077997"><ele>181.0</ele><time>2026-03-15T11:07:03.998Z</time></trkpt><trkpt lat="45.583367000449684" lon="9.947044620567286"><ele>181.0</ele><time>2026-03-15T11:07:04.998Z</time></trkpt><trkpt lat="45.58330804760064" lon="9.946972347336828"><ele>181.0</ele><time>2026-03-15T11:07:05.998Z</time></trkpt><trkpt lat="45.583250285660405" lon="9.946910511357357"><ele>181.0</ele><time>2026-03-15T11:07:06.998Z</time></trkpt><trkpt lat="45.583171955282765" lon="9.946791044861486"><ele>181.0</ele><time>2026-03-15T11:07:09Z</time></trkpt><trkpt lat="45.58307838996821" lon="9.946687101943466"><ele>181.0</ele><time>2026-03-15T11:07:11Z</time></trkpt><trkpt lat="45.58303354224901" lon="9.946619680090198"><ele>181.0</ele><time>2026-03-15T11:07:12Z</time></trkpt><trkpt lat="45.58296932593884" lon="9.946564120736378"><ele>181.4</ele><time>2026-03-15T11:07:14Z</time></trkpt><trkpt lat="45.58285396715086" lon="9.946645498372606"><ele>181.8</ele><time>2026-03-15T11:07:23.999Z</time></trkpt><trkpt lat="45.582815020340995" lon="9.94679162228028"><ele>182.20000000000002</ele><time>2026-03-15T11:07:24.999Z</time></trkpt><trkpt lat="45.582768401992624" lon="9.946944704784636"><ele>182.60000000000002</ele><time>2026-03-15T11:07:25.999Z</time></trkpt><trkpt lat="45.58272320858723" lon="9.947045700790552"><ele>183.0</ele><time>2026-03-15T11:07:26.999Z</time></trkpt><trkpt lat="45.58268899942653" lon="9.947155239807179"><ele>182.5</ele><time>2026-03-15T11:07:27.999Z</time></trkpt><trkpt lat="45.582669468742225" lon="9.947291090639082"><ele>182.0</ele><time>2026-03-15T11:07:28.999Z</time></trkpt><trkpt lat="45.582629458943515" lon="9.94742426528978"><ele>181.5</ele><time>2026-03-15T11:07:29.999Z</time></trkpt><trkpt lat="45.58257327908568" lon="9.94760236257854"><ele>181.0</ele><time>2026-03-15T11:07:30.999Z</time></trkpt><trkpt lat="45.58252990077571" lon="9.947807107901944"><ele>181.0</ele><time>2026-03-15T11:07:31.999Z</time></trkpt><trkpt lat="45.582481117461796" lon="9.948055906285333"><ele>181.0</ele><time>2026-03-15T11:07:32.999Z</time></trkpt><trkpt lat="45.58245053106937" lon="9.948287187603595"><ele>181.0</ele><time>2026-03-15T11:07:33.999Z</time></trkpt><trkpt lat="45.5824201402085" lon="9.948483786723193"><ele>181.0</ele><time>2026-03-15T11:07:34.999Z</time></trkpt><trkpt lat="45.582385093230265" lon="9.948667278733424"><ele>181.0</ele><time>2026-03-15T11:07:35.999Z</time></trkpt><trkpt lat="45.58234235940232" lon="9.948856659656423"><ele>181.0</ele><time>2026-03-15T11:07:36.999Z</time></trkpt><trkpt lat="45.582298863292245" lon="9.949049741746727"><ele>181.0</ele><time>2026-03-15T11:07:37.999Z</time></trkpt><trkpt lat="45.58225599253095" lon="9.949220631825765"><ele>181.0</ele><time>2026-03-15T11:07:38.999Z</time></trkpt><trkpt lat="45.582196099393634" lon="9.949399702577594"><ele>181.0</ele><time>2026-03-15T11:07:39.999Z</time></trkpt><trkpt lat="45.5821242384447" lon="9.949571132673901"><ele>181.0</ele><time>2026-03-15T11:07:40.999Z</time></trkpt><trkpt lat="45.58205237730816" lon="9.949740291119927"><ele>181.0</ele><time>2026-03-15T11:07:41.999Z</time></trkpt><trkpt lat="45.58198400185627" lon="9.949919001053338"><ele>180.0</ele><time>2026-03-15T11:07:42.999Z</time></trkpt><trkpt lat="45.58191882213002" lon="9.950102032201826"><ele>179.0</ele><time>2026-03-15T11:07:43.999Z</time></trkpt><trkpt lat="45.581854463801676" lon="9.950259721363118"><ele>178.0</ele><time>2026-03-15T11:07:44.999Z</time></trkpt><trkpt lat="45.58180000007612" lon="9.95041043387549"><ele>177.0</ele><time>2026-03-15T11:07:45.999Z</time></trkpt><trkpt lat="45.581732429057155" lon="9.950580815721992"><ele>177.0</ele><time>2026-03-15T11:07:46.999Z</time></trkpt><trkpt lat="45.58167556177877" lon="9.950727975541213"><ele>177.0</ele><time>2026-03-15T11:07:47.999Z</time></trkpt><trkpt lat="45.58163204974755" lon="9.950867576613682"><ele>177.0</ele><time>2026-03-15T11:07:48.999Z</time></trkpt><trkpt lat="45.581589541264165" lon="9.951012350437615"><ele>177.0</ele><time>2026-03-15T11:07:49.999Z</time></trkpt><trkpt lat="45.58154740566836" lon="9.95116634759682"><ele>177.0</ele><time>2026-03-15T11:07:50.999Z</time></trkpt><trkpt lat="45.58150837375467" lon="9.951323079534518"><ele>177.0</ele><time>2026-03-15T11:07:51.999Z</time></trkpt><trkpt lat="45.581464167504954" lon="9.951480281712248"><ele>177.0</ele><time>2026-03-15T11:07:52.999Z</time></trkpt><trkpt lat="45.581417216872914" lon="9.951635862473202"><ele>177.0</ele><time>2026-03-15T11:07:53.999Z</time></trkpt><trkpt lat="45.581367941947306" lon="9.951796721871537"><ele>176.66666666666666</ele><time>2026-03-15T11:07:54.999Z</time></trkpt><trkpt lat="45.58131694643331" lon="9.951973158597408"><ele>176.33333333333331</ele><time>2026-03-15T11:07:55.999Z</time></trkpt><trkpt lat="45.58125208360087" lon="9.952222390291977"><ele>176.0</ele><time>2026-03-15T11:07:56.999Z</time></trkpt><trkpt lat="45.581184482799884" lon="9.952469554555236"><ele>175.0</ele><time>2026-03-15T11:07:57.999Z</time></trkpt><trkpt lat="45.58112446534082" lon="9.952685325837798"><ele>174.0</ele><time>2026-03-15T11:07:58.999Z</time></trkpt><trkpt lat="45.58107392465454" lon="9.952879480573124"><ele>173.0</ele><time>2026-03-15T11:07:59.999Z</time></trkpt><trkpt lat="45.58102998786115" lon="9.953058515303484"><ele>172.0</ele><time>2026-03-15T11:08:00.999Z</time></trkpt><trkpt lat="45.580996027939015" lon="9.953227087765626"><ele>172.25</ele><time>2026-03-15T11:08:01.999Z</time></trkpt><trkpt lat="45.58096313375044" lon="9.95339185096375"><ele>172.5</ele><time>2026-03-15T11:08:02.999Z</time></trkpt><trkpt lat="45.58093069049284" lon="9.95356698106025"><ele>172.75</ele><time>2026-03-15T11:08:03.999Z</time></trkpt><trkpt lat="45.58089994048385" lon="9.953735725307165"><ele>173.0</ele><time>2026-03-15T11:08:04.999Z</time></trkpt><trkpt lat="45.580874238047386" lon="9.953906839031683"><ele>173.0</ele><time>2026-03-15T11:08:05.999Z</time></trkpt><trkpt lat="45.58084967480976" lon="9.954071176013057"><ele>173.0</ele><time>2026-03-15T11:08:06.998Z</time></trkpt><trkpt lat="45.58082282928114" lon="9.954234264070868"><ele>173.0</ele><time>2026-03-15T11:08:07.998Z</time></trkpt><trkpt lat="45.58079197233137" lon="9.95440007735099"><ele>173.0</ele><time>2026-03-15T11:08:08.998Z</time></trkpt><trkpt lat="45.58075207499571" lon="9.954557397823322"><ele>173.0</ele><time>2026-03-15T11:08:09.998Z</time></trkpt><trkpt lat="45.58070622988462" lon="9.954711920756358"><ele>173.0</ele><time>2026-03-15T11:08:10.998Z</time></trkpt><trkpt lat="45.58066102960964" lon="9.954857166611244"><ele>173.0</ele><time>2026-03-15T11:08:11.998Z</time></trkpt><trkpt lat="45.58062238217256" lon="9.954995271264792"><ele>173.0</ele><time>2026-03-15T11:08:12.998Z</time></trkpt><trkpt lat="45.58058217483109" lon="9.95513455478824"><ele>173.0</ele><time>2026-03-15T11:08:13.998Z</time></trkpt><trkpt lat="45.58053964643696" lon="9.955272220045732"><ele>173.0</ele><time>2026-03-15T11:08:14.998Z</time></trkpt><trkpt lat="45.58049668573447" lon="9.955402516251937"><ele>173.0</ele><time>2026-03-15T11:08:15.998Z</time></trkpt><trkpt lat="45.5804570758623" lon="9.955528024199987"><ele>173.0</ele><time>2026-03-15T11:08:16.998Z</time></trkpt><trkpt lat="45.58042006934424" lon="9.955660037000158"><ele>173.0</ele><time>2026-03-15T11:08:17.998Z</time></trkpt><trkpt lat="45.58038662952483" lon="9.955794650027407"><ele>173.0</ele><time>2026-03-15T11:08:18.998Z</time></trkpt><trkpt lat="45.58035528285078" lon="9.955914825516457"><ele>172.8</ele><time>2026-03-15T11:08:19.998Z</time></trkpt><trkpt lat="45.580322183188485" lon="9.95602906796723"><ele>172.60000000000002</ele><time>2026-03-15T11:08:20.998Z</time></trkpt><trkpt lat="45.58028637134403" lon="9.956154269408366"><ele>172.39999999999998</ele><time>2026-03-15T11:08:21.998Z</time></trkpt><trkpt lat="45.580247616933576" lon="9.95629482581268"><ele>172.2</ele><time>2026-03-15T11:08:22.998Z</time></trkpt><trkpt lat="45.580207014601605" lon="9.95644222034405"><ele>172.0</ele><time>2026-03-15T11:08:23.998Z</time></trkpt><trkpt lat="45.58016144963298" lon="9.956586606011316"><ele>172.0</ele><time>2026-03-15T11:08:24.998Z</time></trkpt><trkpt lat="45.580106261797035" lon="9.956734604137914"><ele>172.0</ele><time>2026-03-15T11:08:25.998Z</time></trkpt><trkpt lat="45.58004492114194" lon="9.956878918078207"><ele>172.0</ele><time>2026-03-15T11:08:26.998Z</time></trkpt><trkpt lat="45.579971289706435" lon="9.95703059437113"><ele>172.0</ele><time>2026-03-15T11:08:27.998Z</time></trkpt><trkpt lat="45.57987473010272" lon="9.957200901049646"><ele>172.0</ele><time>2026-03-15T11:08:28.998Z</time></trkpt><trkpt lat="45.57976021944801" lon="9.957384829927474"><ele>172.0</ele><time>2026-03-15T11:08:29.998Z</time></trkpt><trkpt lat="45.57965809577833" lon="9.95757563548016"><ele>172.0</ele><time>2026-03-15T11:08:30.998Z</time></trkpt><trkpt lat="45.579556517001514" lon="9.95779669373726"><ele>171.0</ele><time>2026-03-15T11:08:31.998Z</time></trkpt><trkpt lat="45.57944728895969" lon="9.958055950176218"><ele>170.0</ele><time>2026-03-15T11:08:32.998Z</time></trkpt><trkpt lat="45.5793553235925" lon="9.958276111995891"><ele>169.0</ele><time>2026-03-15T11:08:33.998Z</time></trkpt><trkpt lat="45.57927448705312" lon="9.958462905852663"><ele>169.0</ele><time>2026-03-15T11:08:34.998Z</time></trkpt><trkpt lat="45.57920000854755" lon="9.958631080488423"><ele>169.0</ele><time>2026-03-15T11:08:35.998Z</time></trkpt><trkpt lat="45.57913062881979" lon="9.958785558597171"><ele>169.0</ele><time>2026-03-15T11:08:36.998Z</time></trkpt><trkpt lat="45.57906803538786" lon="9.958928707497204"><ele>169.0</ele><time>2026-03-15T11:08:37.998Z</time></trkpt><trkpt lat="45.579006981859024" lon="9.959071463843998"><ele>169.75</ele><time>2026-03-15T11:08:38.998Z</time></trkpt><trkpt lat="45.5789495072257" lon="9.959213112605225"><ele>170.5</ele><time>2026-03-15T11:08:39.998Z</time></trkpt><trkpt lat="45.578882782788156" lon="9.959359065457276"><ele>171.25</ele><time>2026-03-15T11:08:40.998Z</time></trkpt><trkpt lat="45.578811254274356" lon="9.959489714116543"><ele>172.0</ele><time>2026-03-15T11:08:41.998Z</time></trkpt><trkpt lat="45.57873677764879" lon="9.959624437228104"><ele>171.75</ele><time>2026-03-15T11:08:42.998Z</time></trkpt><trkpt lat="45.57866494015849" lon="9.959755799022101"><ele>171.5</ele><time>2026-03-15T11:08:43.998Z</time></trkpt><trkpt lat="45.578585607076924" lon="9.95989974145948"><ele>171.25</ele><time>2026-03-15T11:08:44.998Z</time></trkpt><trkpt lat="45.57849624805656" lon="9.960059148185326"><ele>171.0</ele><time>2026-03-15T11:08:45.998Z</time></trkpt><trkpt lat="45.578390295212195" lon="9.960237299683099"><ele>171.0</ele><time>2026-03-15T11:08:46.998Z</time></trkpt><trkpt lat="45.57826279750128" lon="9.960455542880348"><ele>171.0</ele><time>2026-03-15T11:08:47.998Z</time></trkpt><trkpt lat="45.57812705663951" lon="9.960690809221074"><ele>171.0</ele><time>2026-03-15T11:08:48.998Z</time></trkpt><trkpt lat="45.57801641586354" lon="9.960879319891767"><ele>171.0</ele><time>2026-03-15T11:08:49.998Z</time></trkpt><trkpt lat="45.57791397340238" lon="9.961054214728952"><ele>171.0</ele><time>2026-03-15T11:08:50.998Z</time></trkpt><trkpt lat="45.577821686497835" lon="9.961222967363561"><ele>171.0</ele><time>2026-03-15T11:08:51.997Z</time></trkpt><trkpt lat="45.57774156795598" lon="9.96136794818"><ele>171.0</ele><time>2026-03-15T11:08:52.997Z</time></trkpt><trkpt lat="45.5776574248974" lon="9.961513481771398"><ele>171.0</ele><time>2026-03-15T11:08:53.997Z</time></trkpt><trkpt lat="45.57756872266925" lon="9.961658183185394"><ele>171.0</ele><time>2026-03-15T11:08:54.997Z</time></trkpt><trkpt lat="45.57747726180313" lon="9.96179815691671"><ele>171.0</ele><time>2026-03-15T11:08:55.997Z</time></trkpt><trkpt lat="45.57738663880434" lon="9.961940005150716"><ele>171.0</ele><time>2026-03-15T11:08:56.997Z</time></trkpt><trkpt lat="45.57729481735993" lon="9.962077324005465"><ele>170.75</ele><time>2026-03-15T11:08:57.997Z</time></trkpt><trkpt lat="45.577197468136646" lon="9.962202487085488"><ele>170.5</ele><time>2026-03-15T11:08:58.997Z</time></trkpt><trkpt lat="45.577093350152474" lon="9.962325481395958"><ele>170.25</ele><time>2026-03-15T11:08:59.997Z</time></trkpt><trkpt lat="45.576995228434065" lon="9.96245313601814"><ele>170.0</ele><time>2026-03-15T11:09:00.997Z</time></trkpt><trkpt lat="45.576890406313616" lon="9.962591073784026"><ele>169.66666666666666</ele><time>2026-03-15T11:09:01.997Z</time></trkpt><trkpt lat="45.57678956541846" lon="9.962720224202805"><ele>169.33333333333334</ele><time>2026-03-15T11:09:02.997Z</time></trkpt><trkpt lat="45.57668057875411" lon="9.962850599264192"><ele>169.0</ele><time>2026-03-15T11:09:03.997Z</time></trkpt><trkpt lat="45.57653384722808" lon="9.962980505632013"><ele>169.0</ele><time>2026-03-15T11:09:04.997Z</time></trkpt><trkpt lat="45.57635788364435" lon="9.963111384925927"><ele>169.0</ele><time>2026-03-15T11:09:05.997Z</time></trkpt><trkpt lat="45.57615875559554" lon="9.963254511000683"><ele>169.0</ele><time>2026-03-15T11:09:06.997Z</time></trkpt><trkpt lat="45.57595578000792" lon="9.963414884555059"><ele>168.0</ele><time>2026-03-15T11:09:07.997Z</time></trkpt><trkpt lat="45.57577926971235" lon="9.963567064054038"><ele>167.0</ele><time>2026-03-15T11:09:08.997Z</time></trkpt><trkpt lat="45.57561494851339" lon="9.96370952808336"><ele>166.0</ele><time>2026-03-15T11:09:09.997Z</time></trkpt><trkpt lat="45.575481104865695" lon="9.963844034412569"><ele>166.0</ele><time>2026-03-15T11:09:10.997Z</time></trkpt><trkpt lat="45.57535632396093" lon="9.963987508034434"><ele>166.0</ele><time>2026-03-15T11:09:11.997Z</time></trkpt><trkpt lat="45.57524435321266" lon="9.96414471427892"><ele>166.0</ele><time>2026-03-15T11:09:12.997Z</time></trkpt><trkpt lat="45.5751284321721" lon="9.964328000629603"><ele>166.0</ele><time>2026-03-15T11:09:14Z</time></trkpt><trkpt lat="45.5750115681875" lon="9.964512702008332"><ele>166.0</ele><time>2026-03-15T11:09:15Z</time></trkpt><trkpt lat="45.57488713712644" lon="9.964707351133285"><ele>166.0</ele><time>2026-03-15T11:09:16Z</time></trkpt><trkpt lat="45.57476120748988" lon="9.96490272157888"><ele>166.33333333333334</ele><time>2026-03-15T11:09:17Z</time></trkpt><trkpt lat="45.57465004556036" lon="9.9650871892138"><ele>166.66666666666666</ele><time>2026-03-15T11:09:18Z</time></trkpt><trkpt lat="45.5745414075443" lon="9.965279092534931"><ele>167.0</ele><time>2026-03-15T11:09:19Z</time></trkpt><trkpt lat="45.574442818386714" lon="9.965449184850566"><ele>167.0</ele><time>2026-03-15T11:09:20Z</time></trkpt><trkpt lat="45.574361908789925" lon="9.96560424941275"><ele>167.0</ele><time>2026-03-15T11:09:21Z</time></trkpt><trkpt lat="45.574288557710965" lon="9.965760465366094"><ele>167.0</ele><time>2026-03-15T11:09:22Z</time></trkpt><trkpt lat="45.5742158090013" lon="9.965884446105711"><ele>167.0</ele><time>2026-03-15T11:09:23Z</time></trkpt><trkpt lat="45.574133080204064" lon="9.965984512549959"><ele>166.75</ele><time>2026-03-15T11:09:24Z</time></trkpt><trkpt lat="45.5740325248184" lon="9.966047075874815"><ele>166.5</ele><time>2026-03-15T11:09:25Z</time></trkpt><trkpt lat="45.5739008700669" lon="9.966102372621682"><ele>166.25</ele><time>2026-03-15T11:09:26Z</time></trkpt><trkpt lat="45.57375372036281" lon="9.966143227564698"><ele>166.0</ele><time>2026-03-15T11:09:27Z</time></trkpt><trkpt lat="45.57359502437641" lon="9.966190933668415"><ele>166.0</ele><time>2026-03-15T11:09:28Z</time></trkpt><trkpt lat="45.57343146856708" lon="9.966245231055371"><ele>166.0</ele><time>2026-03-15T11:09:29Z</time></trkpt><trkpt lat="45.573290361323856" lon="9.966274229308372"><ele>166.0</ele><time>2026-03-15T11:09:30Z</time></trkpt><trkpt lat="45.573157827599985" lon="9.966298362870953"><ele>166.0</ele><time>2026-03-15T11:09:31Z</time></trkpt><trkpt lat="45.57303778943017" lon="9.966345652671846"><ele>166.0</ele><time>2026-03-15T11:09:32Z</time></trkpt><trkpt lat="45.57291637299903" lon="9.966429673903404"><ele>166.0</ele><time>2026-03-15T11:09:33Z</time></trkpt><trkpt lat="45.57279258211967" lon="9.966537344688087"><ele>166.0</ele><time>2026-03-15T11:09:34Z</time></trkpt><trkpt lat="45.57267895419987" lon="9.966647018274458"><ele>166.0</ele><time>2026-03-15T11:09:35Z</time></trkpt><trkpt lat="45.5725744661705" lon="9.966742337734381"><ele>165.0</ele><time>2026-03-15T11:09:36Z</time></trkpt><trkpt lat="45.572468869735275" lon="9.96683008656019"><ele>164.0</ele><time>2026-03-15T11:09:37Z</time></trkpt><trkpt lat="45.572351515105915" lon="9.966937389038012"><ele>163.0</ele><time>2026-03-15T11:09:37.999Z</time></trkpt><trkpt lat="45.57223805871335" lon="9.967036192769664"><ele>162.0</ele><time>2026-03-15T11:09:38.999Z</time></trkpt><trkpt lat="45.572127576582886" lon="9.967128571002087"><ele>162.0</ele><time>2026-03-15T11:09:39.999Z</time></trkpt><trkpt lat="45.572015625430524" lon="9.967216824506341"><ele>162.0</ele><time>2026-03-15T11:09:40.999Z</time></trkpt><trkpt lat="45.571915364058455" lon="9.967296767181383"><ele>162.0</ele><time>2026-03-15T11:09:41.999Z</time></trkpt><trkpt lat="45.571827566457756" lon="9.967374248634465"><ele>162.0</ele><time>2026-03-15T11:09:42.999Z</time></trkpt><trkpt lat="45.57175165603014" lon="9.967429216576344"><ele>162.0</ele><time>2026-03-15T11:09:43.999Z</time></trkpt><trkpt lat="45.57168709998936" lon="9.967411592767915"><ele>162.0</ele><time>2026-03-15T11:09:44.999Z</time></trkpt><trkpt lat="45.57165703876423" lon="9.967300585370161"><ele>162.0</ele><time>2026-03-15T11:09:45.999Z</time></trkpt><trkpt lat="45.57158606702811" lon="9.967224818735554"><ele>162.0</ele><time>2026-03-15T11:09:46.999Z</time></trkpt><trkpt lat="45.571458896611695" lon="9.967103395412176"><ele>162.0</ele><time>2026-03-15T11:09:47.999Z</time></trkpt><trkpt lat="45.57132836884663" lon="9.966952748534666"><ele>162.33333333333334</ele><time>2026-03-15T11:09:48.999Z</time></trkpt><trkpt lat="45.57118418891143" lon="9.966800527804105"><ele>162.66666666666669</ele><time>2026-03-15T11:09:49.999Z</time></trkpt><trkpt lat="45.571038288192725" lon="9.966674668084822"><ele>163.0</ele><time>2026-03-15T11:09:50.999Z</time></trkpt><trkpt lat="45.570916451250376" lon="9.9665405939935"><ele>163.25</ele><time>2026-03-15T11:09:51.999Z</time></trkpt><trkpt lat="45.57080599871989" lon="9.966423685510396"><ele>163.5</ele><time>2026-03-15T11:09:52.999Z</time></trkpt><trkpt lat="45.57070076864483" lon="9.966312362655712"><ele>163.75</ele><time>2026-03-15T11:09:53.999Z</time></trkpt><trkpt lat="45.570595225831326" lon="9.966197909121584"><ele>164.0</ele><time>2026-03-15T11:09:54.999Z</time></trkpt><trkpt lat="45.570481063771446" lon="9.966077366828067"><ele>164.0</ele><time>2026-03-15T11:09:55.999Z</time></trkpt><trkpt lat="45.57038021812413" lon="9.965965790918998"><ele>164.0</ele><time>2026-03-15T11:09:56.999Z</time></trkpt><trkpt lat="45.57027787869263" lon="9.965859125678472"><ele>164.0</ele><time>2026-03-15T11:09:57.999Z</time></trkpt><trkpt lat="45.57016506047281" lon="9.965745257101968"><ele>164.0</ele><time>2026-03-15T11:09:58.999Z</time></trkpt><trkpt lat="45.57004922862257" lon="9.96561226308128"><ele>163.25</ele><time>2026-03-15T11:09:59.999Z</time></trkpt><trkpt lat="45.56994080259777" lon="9.965491970668872"><ele>162.5</ele><time>2026-03-15T11:10:00.999Z</time></trkpt><trkpt lat="45.56983775639948" lon="9.965391875653793"><ele>161.75</ele><time>2026-03-15T11:10:01.999Z</time></trkpt><trkpt lat="45.56973852560578" lon="9.965303729002791"><ele>161.0</ele><time>2026-03-15T11:10:02.999Z</time></trkpt><trkpt lat="45.56965023449548" lon="9.965225264285502"><ele>161.0</ele><time>2026-03-15T11:10:03.999Z</time></trkpt><trkpt lat="45.5695666321819" lon="9.965147228384424"><ele>161.0</ele><time>2026-03-15T11:10:04.999Z</time></trkpt><trkpt lat="45.56949834294062" lon="9.965082581361575"><ele>161.0</ele><time>2026-03-15T11:10:05.999Z</time></trkpt><trkpt lat="45.56939316124869" lon="9.964971338591873"><ele>161.0</ele><time>2026-03-15T11:10:07.999Z</time></trkpt><trkpt lat="45.569326785825645" lon="9.964881420463675"><ele>161.0</ele><time>2026-03-15T11:10:08.999Z</time></trkpt><trkpt lat="45.56928861627388" lon="9.96475934090971"><ele>161.25</ele><time>2026-03-15T11:10:09.999Z</time></trkpt><trkpt lat="45.56924772541472" lon="9.964642379594338"><ele>161.5</ele><time>2026-03-15T11:10:10.999Z</time></trkpt><trkpt lat="45.56918315352008" lon="9.964507486339174"><ele>161.75</ele><time>2026-03-15T11:10:11.999Z</time></trkpt><trkpt lat="45.56909740988922" lon="9.964348952359392"><ele>162.0</ele><time>2026-03-15T11:10:12.999Z</time></trkpt><trkpt lat="45.568997447681305" lon="9.964228394678017"><ele>162.0</ele><time>2026-03-15T11:10:13.999Z</time></trkpt><trkpt lat="45.56891220680077" lon="9.96415692532544"><ele>162.0</ele><time>2026-03-15T11:10:14.999Z</time></trkpt><trkpt lat="45.56884989801108" lon="9.964104793844806"><ele>162.0</ele><time>2026-03-15T11:10:15.999Z</time></trkpt><trkpt lat="45.56877026199626" lon="9.963992039759919"><ele>162.0</ele><time>2026-03-15T11:10:17.999Z</time></trkpt><trkpt lat="45.56866906565689" lon="9.964078669469748"><ele>162.0</ele><time>2026-03-15T11:10:19.999Z</time></trkpt><trkpt lat="45.56864674102513" lon="9.964209573293392"><ele>162.0</ele><time>2026-03-15T11:10:20.999Z</time></trkpt><trkpt lat="45.5686195195158" lon="9.96443571910479"><ele>162.0</ele><time>2026-03-15T11:10:21.999Z</time></trkpt><trkpt lat="45.568552918241686" lon="9.964648790360645"><ele>162.0</ele><time>2026-03-15T11:10:22.999Z</time></trkpt><trkpt lat="45.568471820190275" lon="9.964868074949917"><ele>161.66666666666666</ele><time>2026-03-15T11:10:23.999Z</time></trkpt><trkpt lat="45.568403119644444" lon="9.96507789403005"><ele>161.33333333333331</ele><time>2026-03-15T11:10:24.999Z</time></trkpt><trkpt lat="45.56834387542501" lon="9.965266735940578"><ele>161.0</ele><time>2026-03-15T11:10:25.998Z</time></trkpt><trkpt lat="45.568280230794684" lon="9.965450849561584"><ele>161.0</ele><time>2026-03-15T11:10:26.998Z</time></trkpt><trkpt lat="45.568220039244224" lon="9.965618357497366"><ele>161.0</ele><time>2026-03-15T11:10:27.998Z</time></trkpt><trkpt lat="45.5681644117617" lon="9.965781471856666"><ele>161.0</ele><time>2026-03-15T11:10:28.998Z</time></trkpt><trkpt lat="45.56811365923596" lon="9.965929601835796"><ele>161.0</ele><time>2026-03-15T11:10:29.998Z</time></trkpt><trkpt lat="45.56806329930377" lon="9.966068645394024"><ele>161.0</ele><time>2026-03-15T11:10:30.998Z</time></trkpt><trkpt lat="45.56801336498752" lon="9.966203353623571"><ele>161.0</ele><time>2026-03-15T11:10:31.998Z</time></trkpt><trkpt lat="45.567971450624555" lon="9.966327674150417"><ele>161.0</ele><time>2026-03-15T11:10:32.998Z</time></trkpt><trkpt lat="45.56792930948192" lon="9.966452593379762"><ele>161.0</ele><time>2026-03-15T11:10:33.998Z</time></trkpt><trkpt lat="45.56789068276943" lon="9.966562607976106"><ele>161.0</ele><time>2026-03-15T11:10:34.998Z</time></trkpt><trkpt lat="45.56785003606536" lon="9.966667882271988"><ele>161.16666666666666</ele><time>2026-03-15T11:10:35.998Z</time></trkpt><trkpt lat="45.56780628787099" lon="9.966780423414631"><ele>161.33333333333331</ele><time>2026-03-15T11:10:36.998Z</time></trkpt><trkpt lat="45.56776796369583" lon="9.966891609744936"><ele>161.5</ele><time>2026-03-15T11:10:37.998Z</time></trkpt><trkpt lat="45.5677313170952" lon="9.967002804858128"><ele>161.66666666666666</ele><time>2026-03-15T11:10:38.998Z</time></trkpt><trkpt lat="45.56769069004773" lon="9.967118337505884"><ele>161.83333333333334</ele><time>2026-03-15T11:10:39.998Z</time></trkpt><trkpt lat="45.567650447117124" lon="9.967225743652024"><ele>162.0</ele><time>2026-03-15T11:10:40.998Z</time></trkpt><trkpt lat="45.567605942071815" lon="9.96731926257347"><ele>162.0</ele><time>2026-03-15T11:10:41.998Z</time></trkpt><trkpt lat="45.56757654004842" lon="9.967406562774487"><ele>162.0</ele><time>2026-03-15T11:10:42.998Z</time></trkpt><trkpt lat="45.567544484382786" lon="9.967495108986183"><ele>162.0</ele><time>2026-03-15T11:10:44.998Z</time></trkpt><trkpt lat="45.56750647049708" lon="9.967576198714513"><ele>162.0</ele><time>2026-03-15T11:11:02.998Z</time></trkpt><trkpt lat="45.567480267559965" lon="9.967662427284468"><ele>162.0</ele><time>2026-03-15T11:11:03.998Z</time></trkpt><trkpt lat="45.56743746673596" lon="9.967773894246928"><ele>162.0</ele><time>2026-03-15T11:11:04.998Z</time></trkpt><trkpt lat="45.567394356380014" lon="9.967893741989048"><ele>162.0</ele><time>2026-03-15T11:11:05.998Z</time></trkpt><trkpt lat="45.5673474342658" lon="9.968034506941311"><ele>162.0</ele><time>2026-03-15T11:11:06.998Z</time></trkpt><trkpt lat="45.5672967586255" lon="9.968183716238132"><ele>162.0</ele><time>2026-03-15T11:11:07.998Z</time></trkpt><trkpt lat="45.567245770625966" lon="9.96832836088392"><ele>162.0</ele><time>2026-03-15T11:11:08.998Z</time></trkpt><trkpt lat="45.56719373535435" lon="9.968474913790356"><ele>162.0</ele><time>2026-03-15T11:11:09.998Z</time></trkpt><trkpt lat="45.56713955639151" lon="9.968635398457407"><ele>162.0</ele><time>2026-03-15T11:11:10.998Z</time></trkpt><trkpt lat="45.56708653752656" lon="9.968792267824883"><ele>162.0</ele><time>2026-03-15T11:11:11.997Z</time></trkpt><trkpt lat="45.56703767769487" lon="9.96893548154379"><ele>162.0</ele><time>2026-03-15T11:11:12.997Z</time></trkpt><trkpt lat="45.56698811095045" lon="9.969080904597748"><ele>161.5</ele><time>2026-03-15T11:11:13.997Z</time></trkpt><trkpt lat="45.566938551535934" lon="9.969228765242049"><ele>161.0</ele><time>2026-03-15T11:11:14.997Z</time></trkpt><trkpt lat="45.56689310680973" lon="9.969378640389575"><ele>160.5</ele><time>2026-03-15T11:11:15.997Z</time></trkpt><trkpt lat="45.56684739514516" lon="9.969538394557238"><ele>160.0</ele><time>2026-03-15T11:11:16.997Z</time></trkpt><trkpt lat="45.56679977298755" lon="9.969697029655212"><ele>160.0</ele><time>2026-03-15T11:11:17.997Z</time></trkpt><trkpt lat="45.566742663889684" lon="9.96986039353906"><ele>160.0</ele><time>2026-03-15T11:11:19Z</time></trkpt><trkpt lat="45.566687861379116" lon="9.970022190532022"><ele>160.0</ele><time>2026-03-15T11:11:20Z</time></trkpt><trkpt lat="45.56663399943025" lon="9.970185233395606"><ele>160.0</ele><time>2026-03-15T11:11:21Z</time></trkpt><trkpt lat="45.56657924149443" lon="9.970350628016725"><ele>159.75</ele><time>2026-03-15T11:11:22Z</time></trkpt><trkpt lat="45.56652354435995" lon="9.970518022425878"><ele>159.5</ele><time>2026-03-15T11:11:23Z</time></trkpt><trkpt lat="45.56646893748625" lon="9.970679417532134"><ele>159.25</ele><time>2026-03-15T11:11:24Z</time></trkpt><trkpt lat="45.56641121637989" lon="9.97084217101688"><ele>159.0</ele><time>2026-03-15T11:11:25Z</time></trkpt><trkpt lat="45.56635439176721" lon="9.971003966399232"><ele>159.0</ele><time>2026-03-15T11:11:26Z</time></trkpt><trkpt lat="45.566300181308925" lon="9.971172052813415"><ele>159.0</ele><time>2026-03-15T11:11:27Z</time></trkpt><trkpt lat="45.566244602833606" lon="9.971341837003164"><ele>159.0</ele><time>2026-03-15T11:11:28Z</time></trkpt><trkpt lat="45.56618289018398" lon="9.971503288862232"><ele>159.0</ele><time>2026-03-15T11:11:29Z</time></trkpt><trkpt lat="45.56611664767081" lon="9.971647865388423"><ele>158.8</ele><time>2026-03-15T11:11:30Z</time></trkpt><trkpt lat="45.566053026954755" lon="9.97177837869124"><ele>158.60000000000002</ele><time>2026-03-15T11:11:31Z</time></trkpt><trkpt lat="45.56598488036923" lon="9.971885414100397"><ele>158.4</ele><time>2026-03-15T11:11:32Z</time></trkpt><trkpt lat="45.56590368361008" lon="9.971976043742886"><ele>158.20000000000002</ele><time>2026-03-15T11:11:33Z</time></trkpt><trkpt lat="45.56580765705686" lon="9.972046868165384"><ele>158.0</ele><time>2026-03-15T11:11:34Z</time></trkpt><trkpt lat="45.565710337032556" lon="9.972114170008597"><ele>158.0</ele><time>2026-03-15T11:11:35Z</time></trkpt><trkpt lat="45.56561214904633" lon="9.972187339028064"><ele>158.0</ele><time>2026-03-15T11:11:36Z</time></trkpt><trkpt lat="45.56551736260139" lon="9.972263631028083"><ele>158.0</ele><time>2026-03-15T11:11:37Z</time></trkpt><trkpt lat="45.56541835555922" lon="9.972340938602905"><ele>158.0</ele><time>2026-03-15T11:11:38Z</time></trkpt><trkpt lat="45.565328317546786" lon="9.97241744341403"><ele>158.0</ele><time>2026-03-15T11:11:39Z</time></trkpt><trkpt lat="45.56523136624407" lon="9.97249695966481"><ele>158.0</ele><time>2026-03-15T11:11:40Z</time></trkpt><trkpt lat="45.56512938923603" lon="9.972575977009573"><ele>158.0</ele><time>2026-03-15T11:11:41Z</time></trkpt><trkpt lat="45.565023595747455" lon="9.972655358692593"><ele>158.0</ele><time>2026-03-15T11:11:42Z</time></trkpt><trkpt lat="45.5649138297621" lon="9.9727376443856"><ele>158.0</ele><time>2026-03-15T11:11:43Z</time></trkpt><trkpt lat="45.564806074737945" lon="9.9728210087003"><ele>158.0</ele><time>2026-03-15T11:11:44Z</time></trkpt><trkpt lat="45.564696932548706" lon="9.972904098216588"><ele>158.0</ele><time>2026-03-15T11:11:45Z</time></trkpt><trkpt lat="45.564584470368494" lon="9.972989790808631"><ele>158.0</ele><time>2026-03-15T11:11:46Z</time></trkpt><trkpt lat="45.56447301543799" lon="9.973074678715403"><ele>158.0</ele><time>2026-03-15T11:11:47Z</time></trkpt><trkpt lat="45.56437273951219" lon="9.97315137513292"><ele>158.0</ele><time>2026-03-15T11:11:48Z</time></trkpt><trkpt lat="45.56428210173909" lon="9.973222716462251"><ele>158.0</ele><time>2026-03-15T11:11:49Z</time></trkpt><trkpt lat="45.564196274894954" lon="9.973291083608396"><ele>158.0</ele><time>2026-03-15T11:11:50Z</time></trkpt><trkpt lat="45.56411593022339" lon="9.973352753108573"><ele>158.0</ele><time>2026-03-15T11:11:51Z</time></trkpt><trkpt lat="45.564046367319264" lon="9.973412178886704"><ele>158.0</ele><time>2026-03-15T11:11:52Z</time></trkpt><trkpt lat="45.563995528654864" lon="9.973486442474384"><ele>158.0</ele><time>2026-03-15T11:11:53Z</time></trkpt><trkpt lat="45.56395668766773" lon="9.973563616973665"><ele>158.16666666666666</ele><time>2026-03-15T11:11:54Z</time></trkpt><trkpt lat="45.56391535017805" lon="9.973644599715637"><ele>158.33333333333331</ele><time>2026-03-15T11:11:55Z</time></trkpt><trkpt lat="45.56388147805046" lon="9.973724857539143"><ele>158.5</ele><time>2026-03-15T11:11:56Z</time></trkpt><trkpt lat="45.56382674123389" lon="9.97386164922115"><ele>158.66666666666666</ele><time>2026-03-15T11:11:58Z</time></trkpt><trkpt lat="45.56377361565863" lon="9.973990949671862"><ele>158.83333333333334</ele><time>2026-03-15T11:12:00Z</time></trkpt><trkpt lat="45.563737109312974" lon="9.974098877583133"><ele>159.0</ele><time>2026-03-15T11:12:01.999Z</time></trkpt><trkpt lat="45.563780973116295" lon="9.973994438622649"><ele>159.0</ele><time>2026-03-15T11:12:07.999Z</time></trkpt><trkpt lat="45.563874203996136" lon="9.97408404530878"><ele>159.0</ele><time>2026-03-15T11:12:08.999Z</time></trkpt><trkpt lat="45.56379998967381" lon="9.973883674629256"><ele>159.0</ele><time>2026-03-15T11:12:09.999Z</time></trkpt><trkpt lat="45.56391312526599" lon="9.973819290322144"><ele>159.0</ele><time>2026-03-15T11:12:10.999Z</time></trkpt><trkpt lat="45.56402582016201" lon="9.973827716221436"><ele>159.0</ele><time>2026-03-15T11:12:13.999Z</time></trkpt><trkpt lat="45.56408710792624" lon="9.973888758494189"><ele>159.0</ele><time>2026-03-15T11:12:15.999Z</time></trkpt><trkpt lat="45.56415712998706" lon="9.973930523078812"><ele>159.0</ele><time>2026-03-15T11:12:17.999Z</time></trkpt><trkpt lat="45.56427943780107" lon="9.974048882684103"><ele>159.0</ele><time>2026-03-15T11:12:19.999Z</time></trkpt><trkpt lat="45.56437640648793" lon="9.974146511912833"><ele>159.0</ele><time>2026-03-15T11:12:20.999Z</time></trkpt><trkpt lat="45.56448293792066" lon="9.974249976790647"><ele>158.83333333333334</ele><time>2026-03-15T11:12:21.999Z</time></trkpt><trkpt lat="45.56456955160706" lon="9.974341072811605"><ele>158.66666666666666</ele><time>2026-03-15T11:12:22.999Z</time></trkpt><trkpt lat="45.56463193329461" lon="9.974412150087385"><ele>158.5</ele><time>2026-03-15T11:12:23.999Z</time></trkpt><trkpt lat="45.564682342383946" lon="9.974479176648307"><ele>158.33333333333331</ele><time>2026-03-15T11:12:24.999Z</time></trkpt><trkpt lat="45.564730617800215" lon="9.97456564893219"><ele>158.16666666666666</ele><time>2026-03-15T11:12:25.999Z</time></trkpt><trkpt lat="45.56477604343469" lon="9.974657187159053"><ele>158.0</ele><time>2026-03-15T11:12:26.999Z</time></trkpt><trkpt lat="45.56483548161433" lon="9.974752289118273"><ele>158.0</ele><time>2026-03-15T11:12:27.999Z</time></trkpt><trkpt lat="45.56489561227957" lon="9.974838748771427"><ele>158.0</ele><time>2026-03-15T11:12:28.999Z</time></trkpt><trkpt lat="45.56494233126062" lon="9.974913962335815"><ele>158.0</ele><time>2026-03-15T11:12:31.999Z</time></trkpt><trkpt lat="45.56484787940765" lon="9.97506910871457"><ele>158.0</ele><time>2026-03-15T11:12:33.999Z</time></trkpt><trkpt lat="45.56477543376769" lon="9.975164069867343"><ele>158.0</ele><time>2026-03-15T11:12:34.999Z</time></trkpt><trkpt lat="45.56469906813895" lon="9.975262951437077"><ele>158.20000000000002</ele><time>2026-03-15T11:12:35.999Z</time></trkpt><trkpt lat="45.564618622087" lon="9.975367401822247"><ele>158.4</ele><time>2026-03-15T11:12:36.999Z</time></trkpt><trkpt lat="45.56455815191897" lon="9.975433047903788"><ele>158.60000000000002</ele><time>2026-03-15T11:12:37.999Z</time></trkpt><trkpt lat="45.564482753021984" lon="9.975509416571814"><ele>158.8</ele><time>2026-03-15T11:12:38.999Z</time></trkpt><trkpt lat="45.56441446584246" lon="9.975597366929428"><ele>159.0</ele><time>2026-03-15T11:12:39.999Z</time></trkpt><trkpt lat="45.56434463769194" lon="9.975700109137799"><ele>159.16666666666666</ele><time>2026-03-15T11:12:40.999Z</time></trkpt><trkpt lat="45.564283644015596" lon="9.975813917122599"><ele>159.33333333333334</ele><time>2026-03-15T11:12:41.999Z</time></trkpt><trkpt lat="45.564230998245165" lon="9.975921225189325"><ele>159.5</ele><time>2026-03-15T11:12:42.999Z</time></trkpt><trkpt lat="45.5641887256247" lon="9.976020013675427"><ele>159.66666666666669</ele><time>2026-03-15T11:12:43.999Z</time></trkpt><trkpt lat="45.56415384858306" lon="9.976101485038917"><ele>159.83333333333334</ele><time>2026-03-15T11:12:44.999Z</time></trkpt><trkpt lat="45.56411942617014" lon="9.976185788952064"><ele>160.0</ele><time>2026-03-15T11:12:45.998Z</time></trkpt><trkpt lat="45.564074825969755" lon="9.976285202237406"><ele>160.0</ele><time>2026-03-15T11:12:46.998Z</time></trkpt><trkpt lat="45.56403343906837" lon="9.97639228111464"><ele>160.0</ele><time>2026-03-15T11:12:47.998Z</time></trkpt><trkpt lat="45.56399672565423" lon="9.976477879776791"><ele>160.0</ele><time>2026-03-15T11:12:48.998Z</time></trkpt><trkpt lat="45.563924481059814" lon="9.976638246852168"><ele>160.0</ele><time>2026-03-15T11:12:50.998Z</time></trkpt><trkpt lat="45.5638819241955" lon="9.976723847394979"><ele>160.0</ele><time>2026-03-15T11:12:51.998Z</time></trkpt><trkpt lat="45.56384423665266" lon="9.97680035129136"><ele>160.0</ele><time>2026-03-15T11:12:52.998Z</time></trkpt><trkpt lat="45.56377712679461" lon="9.976915681354562"><ele>159.83333333333334</ele><time>2026-03-15T11:12:54.998Z</time></trkpt><trkpt lat="45.56374809841251" lon="9.976999943023827"><ele>159.66666666666669</ele><time>2026-03-15T11:12:56.998Z</time></trkpt><trkpt lat="45.563730903100485" lon="9.977089971319236"><ele>159.5</ele><time>2026-03-15T11:12:59.998Z</time></trkpt><trkpt lat="45.56370217036062" lon="9.977198688759708"><ele>159.33333333333334</ele><time>2026-03-15T11:13:01.998Z</time></trkpt><trkpt lat="45.563639174874304" lon="9.977336606983094"><ele>159.16666666666666</ele><time>2026-03-15T11:13:03.998Z</time></trkpt><trkpt lat="45.563602520369244" lon="9.977411021039885"><ele>159.0</ele><time>2026-03-15T11:13:04.998Z</time></trkpt><trkpt lat="45.56356697913654" lon="9.977489110803534"><ele>159.4</ele><time>2026-03-15T11:13:05.998Z</time></trkpt><trkpt lat="45.56351475452385" lon="9.977582345096826"><ele>159.8</ele><time>2026-03-15T11:13:07.998Z</time></trkpt><trkpt lat="45.563430415298654" lon="9.977582799804686"><ele>160.20000000000002</ele><time>2026-03-15T11:13:10.998Z</time></trkpt><trkpt lat="45.5633571483775" lon="9.97747749430758"><ele>160.60000000000002</ele><time>2026-03-15T11:13:14.998Z</time></trkpt><trkpt lat="45.5633086708047" lon="9.9776474970153"><ele>161.0</ele><time>2026-03-15T11:13:17.998Z</time></trkpt><trkpt lat="45.563327349639465" lon="9.97774647129551"><ele>161.16666666666666</ele><time>2026-03-15T11:13:18.998Z</time></trkpt><trkpt lat="45.5633051471492" lon="9.977840217796969"><ele>161.33333333333331</ele><time>2026-03-15T11:13:19.998Z</time></trkpt><trkpt lat="45.563282585556834" lon="9.97795647014313"><ele>161.5</ele><time>2026-03-15T11:13:20.998Z</time></trkpt><trkpt lat="45.563251549721976" lon="9.978077526123963"><ele>161.66666666666666</ele><time>2026-03-15T11:13:21.998Z</time></trkpt><trkpt lat="45.563218413928546" lon="9.978205825577554"><ele>161.83333333333334</ele><time>2026-03-15T11:13:22.998Z</time></trkpt><trkpt lat="45.563184646440234" lon="9.978341930265659"><ele>162.0</ele><time>2026-03-15T11:13:23.998Z</time></trkpt><trkpt lat="45.56314824819038" lon="9.978478865404803"><ele>161.6</ele><time>2026-03-15T11:13:25.001Z</time></trkpt><trkpt lat="45.56310769106216" lon="9.978613749082399"><ele>161.2</ele><time>2026-03-15T11:13:26.001Z</time></trkpt><trkpt lat="45.563067050227055" lon="9.978752335035425"><ele>160.8</ele><time>2026-03-15T11:13:27Z</time></trkpt><trkpt lat="45.56302190841946" lon="9.978892727650766"><ele>160.4</ele><time>2026-03-15T11:13:28.001Z</time></trkpt><trkpt lat="45.562971923128224" lon="9.979035883914978"><ele>160.0</ele><time>2026-03-15T11:13:29.001Z</time></trkpt><trkpt lat="45.5629270543848" lon="9.979179820515089"><ele>160.16666666666669</ele><time>2026-03-15T11:13:30.001Z</time></trkpt><trkpt lat="45.562878829240596" lon="9.97932204668025"><ele>160.33333333333334</ele><time>2026-03-15T11:13:31.001Z</time></trkpt><trkpt lat="45.562839388529994" lon="9.979450208421996"><ele>160.5</ele><time>2026-03-15T11:13:32.001Z</time></trkpt><trkpt lat="45.56280313909462" lon="9.9795621225112"><ele>160.66666666666666</ele><time>2026-03-15T11:13:33.001Z</time></trkpt><trkpt lat="45.562755201646" lon="9.979651333257369"><ele>160.83333333333331</ele><time>2026-03-15T11:13:34.001Z</time></trkpt><trkpt lat="45.562703337360475" lon="9.979713024937958"><ele>161.0</ele><time>2026-03-15T11:13:35.001Z</time></trkpt><trkpt lat="45.56261495022059" lon="9.979710129420209"><ele>161.20000000000002</ele><time>2026-03-15T11:13:37.001Z</time></trkpt><trkpt lat="45.56255216839443" lon="9.97964087722922"><ele>161.4</ele><time>2026-03-15T11:13:38.001Z</time></trkpt><trkpt lat="45.56243185231181" lon="9.97954663246849"><ele>161.6</ele><time>2026-03-15T11:13:39.001Z</time></trkpt><trkpt lat="45.562307385109705" lon="9.979445268440266"><ele>161.8</ele><time>2026-03-15T11:13:40Z</time></trkpt><trkpt lat="45.56223941493124" lon="9.97940371308219"><ele>162.0</ele><time>2026-03-15T11:13:41Z</time></trkpt><trkpt lat="45.562124905183346" lon="9.979327647759135"><ele>160.66666666666666</ele><time>2026-03-15T11:13:43Z</time></trkpt><trkpt lat="45.561933968677124" lon="9.979303238482514"><ele>159.33333333333331</ele><time>2026-03-15T11:13:45Z</time></trkpt><trkpt lat="45.56175170636237" lon="9.979295550977179"><ele>158.0</ele><time>2026-03-15T11:13:46Z</time></trkpt><trkpt lat="45.56155761285538" lon="9.979298562347543"><ele>158.0</ele><time>2026-03-15T11:13:47Z</time></trkpt><trkpt lat="45.56140144528241" lon="9.979307367188271"><ele>158.0</ele><time>2026-03-15T11:13:48Z</time></trkpt><trkpt lat="45.561261298353514" lon="9.979345801068153"><ele>158.0</ele><time>2026-03-15T11:13:49Z</time></trkpt><trkpt lat="45.56113520080711" lon="9.97938758848997"><ele>158.0</ele><time>2026-03-15T11:13:50Z</time></trkpt><trkpt lat="45.56101483768164" lon="9.97941134631305"><ele>158.0</ele><time>2026-03-15T11:13:51Z</time></trkpt><trkpt lat="45.56089225951214" lon="9.97942312698444"><ele>158.0</ele><time>2026-03-15T11:13:52Z</time></trkpt><trkpt lat="45.56078479074352" lon="9.979435448718068"><ele>158.0</ele><time>2026-03-15T11:13:53Z</time></trkpt><trkpt lat="45.56068095909254" lon="9.97945529553947"><ele>158.0</ele><time>2026-03-15T11:13:54Z</time></trkpt><trkpt lat="45.5605859498913" lon="9.979482691541774"><ele>158.0</ele><time>2026-03-15T11:13:55Z</time></trkpt><trkpt lat="45.56050239962946" lon="9.97950667965708"><ele>158.0</ele><time>2026-03-15T11:13:56Z</time></trkpt><trkpt lat="45.56041217314663" lon="9.979528061713715"><ele>158.0</ele><time>2026-03-15T11:13:57Z</time></trkpt><trkpt lat="45.56029923553263" lon="9.979528280912827"><ele>158.0</ele><time>2026-03-15T11:13:58Z</time></trkpt><trkpt lat="45.56011681731531" lon="9.979499170132929"><ele>158.0</ele><time>2026-03-15T11:13:59Z</time></trkpt><trkpt lat="45.55991229418655" lon="9.979458155418039"><ele>158.0</ele><time>2026-03-15T11:14:00Z</time></trkpt><trkpt lat="45.55974609756209" lon="9.979444815480665"><ele>158.0</ele><time>2026-03-15T11:14:01Z</time></trkpt><trkpt lat="45.55959625503799" lon="9.979429594217082"><ele>158.0</ele><time>2026-03-15T11:14:02Z</time></trkpt><trkpt lat="45.55945653239702" lon="9.979420988416617"><ele>158.0</ele><time>2026-03-15T11:14:03Z</time></trkpt><trkpt lat="45.55931088970663" lon="9.979396788997358"><ele>158.0</ele><time>2026-03-15T11:14:04Z</time></trkpt><trkpt lat="45.55915376379072" lon="9.979381388381102"><ele>158.0</ele><time>2026-03-15T11:14:05Z</time></trkpt><trkpt lat="45.55900588677924" lon="9.979364640934598"><ele>158.0</ele><time>2026-03-15T11:14:06Z</time></trkpt><trkpt lat="45.5588597381414" lon="9.97936357875898"><ele>158.0</ele><time>2026-03-15T11:14:07Z</time></trkpt><trkpt lat="45.55871477560342" lon="9.979352758152633"><ele>158.0</ele><time>2026-03-15T11:14:08Z</time></trkpt><trkpt lat="45.55858346517334" lon="9.979343902152719"><ele>158.0</ele><time>2026-03-15T11:14:09Z</time></trkpt><trkpt lat="45.55846640998616" lon="9.979353562389463"><ele>157.5</ele><time>2026-03-15T11:14:10Z</time></trkpt><trkpt lat="45.55832535019572" lon="9.979346609476895"><ele>157.0</ele><time>2026-03-15T11:14:11Z</time></trkpt><trkpt lat="45.55822342941033" lon="9.979370876196526"><ele>156.5</ele><time>2026-03-15T11:14:12Z</time></trkpt><trkpt lat="45.55813118700084" lon="9.979351312202732"><ele>156.0</ele><time>2026-03-15T11:14:13Z</time></trkpt><trkpt lat="45.557972659085785" lon="9.979380775610023"><ele>155.66666666666666</ele><time>2026-03-15T11:14:14Z</time></trkpt><trkpt lat="45.55777831562599" lon="9.97937527083634"><ele>155.33333333333331</ele><time>2026-03-15T11:14:15Z</time></trkpt><trkpt lat="45.557591848972365" lon="9.979397355088865"><ele>155.0</ele><time>2026-03-15T11:14:16Z</time></trkpt><trkpt lat="45.55742268920629" lon="9.979409796964722"><ele>155.0</ele><time>2026-03-15T11:14:17Z</time></trkpt><trkpt lat="45.557266773515025" lon="9.979415253485604"><ele>155.0</ele><time>2026-03-15T11:14:18Z</time></trkpt><trkpt lat="45.55710676584678" lon="9.979422858195518"><ele>155.0</ele><time>2026-03-15T11:14:19Z</time></trkpt><trkpt lat="45.556953947016325" lon="9.97942959472321"><ele>154.75</ele><time>2026-03-15T11:14:19.999Z</time></trkpt><trkpt lat="45.55680488688702" lon="9.979437222837587"><ele>154.5</ele><time>2026-03-15T11:14:20.999Z</time></trkpt><trkpt lat="45.5566556764442" lon="9.97944907066831"><ele>154.25</ele><time>2026-03-15T11:14:21.999Z</time></trkpt><trkpt lat="45.5565112384645" lon="9.979458192820758"><ele>154.0</ele><time>2026-03-15T11:14:22.998Z</time></trkpt><trkpt lat="45.55638391174532" lon="9.979463945212904"><ele>154.0</ele><time>2026-03-15T11:14:23.998Z</time></trkpt><trkpt lat="45.556260379884286" lon="9.979469730612514"><ele>154.0</ele><time>2026-03-15T11:14:24.998Z</time></trkpt><trkpt lat="45.55615594954802" lon="9.979455897383904"><ele>154.0</ele><time>2026-03-15T11:14:25.998Z</time></trkpt><trkpt lat="45.55607939125711" lon="9.979418594719984"><ele>154.0</ele><time>2026-03-15T11:14:26.998Z</time></trkpt><trkpt lat="45.5560184918485" lon="9.979356196498518"><ele>154.0</ele><time>2026-03-15T11:14:27.998Z</time></trkpt><trkpt lat="45.55595703575789" lon="9.97927668047607"><ele>153.83333333333334</ele><time>2026-03-15T11:14:28.998Z</time></trkpt><trkpt lat="45.55589792623137" lon="9.97922360608873"><ele>153.66666666666669</ele><time>2026-03-15T11:14:29.998Z</time></trkpt><trkpt lat="45.55582183049511" lon="9.979260394510467"><ele>153.5</ele><time>2026-03-15T11:14:30.998Z</time></trkpt><trkpt lat="45.555780688361104" lon="9.979344553654503"><ele>153.33333333333334</ele><time>2026-03-15T11:14:31.998Z</time></trkpt><trkpt lat="45.555790464056194" lon="9.979448349400078"><ele>153.16666666666666</ele><time>2026-03-15T11:14:32.998Z</time></trkpt><trkpt lat="45.55584399824839" lon="9.97954472704099"><ele>153.0</ele><time>2026-03-15T11:14:33.998Z</time></trkpt><trkpt lat="45.55592839898425" lon="9.979677460562549"><ele>153.0</ele><time>2026-03-15T11:14:34.998Z</time></trkpt><trkpt lat="45.55596070619481" lon="9.979817794467852"><ele>153.0</ele><time>2026-03-15T11:14:35.998Z</time></trkpt><trkpt lat="45.55596404581713" lon="9.97994746304163"><ele>153.0</ele><time>2026-03-15T11:14:36.998Z</time></trkpt><trkpt lat="45.555969456018765" lon="9.980110839045853"><ele>153.0</ele><time>2026-03-15T11:14:37.998Z</time></trkpt><trkpt lat="45.55597490883178" lon="9.980289283859554"><ele>153.0</ele><time>2026-03-15T11:14:38.998Z</time></trkpt><trkpt lat="45.555982078095866" lon="9.980484315424567"><ele>153.0</ele><time>2026-03-15T11:14:39.998Z</time></trkpt><trkpt lat="45.55599209529449" lon="9.98068816399954"><ele>153.0</ele><time>2026-03-15T11:14:40.998Z</time></trkpt><trkpt lat="45.55600350118766" lon="9.980880774344"><ele>153.0</ele><time>2026-03-15T11:14:41.998Z</time></trkpt><trkpt lat="45.55602242446657" lon="9.981081169795141"><ele>153.0</ele><time>2026-03-15T11:14:42.998Z</time></trkpt><trkpt lat="45.55604154334214" lon="9.981296384456407"><ele>153.0</ele><time>2026-03-15T11:14:43.998Z</time></trkpt><trkpt lat="45.55604885105926" lon="9.981523271480597"><ele>153.0</ele><time>2026-03-15T11:14:44.998Z</time></trkpt><trkpt lat="45.55606134376276" lon="9.981763729789204"><ele>153.0</ele><time>2026-03-15T11:14:45.998Z</time></trkpt><trkpt lat="45.5560815093411" lon="9.982007032866633"><ele>153.0</ele><time>2026-03-15T11:14:46.998Z</time></trkpt><trkpt lat="45.556110347448154" lon="9.982247049101467"><ele>153.0</ele><time>2026-03-15T11:14:47.998Z</time></trkpt><trkpt lat="45.55613677943664" lon="9.982457219769126"><ele>153.0</ele><time>2026-03-15T11:14:48.998Z</time></trkpt><trkpt lat="45.556150067139704" lon="9.982648485033806"><ele>153.25</ele><time>2026-03-15T11:14:49.998Z</time></trkpt><trkpt lat="45.556145060105905" lon="9.982850309926823"><ele>153.5</ele><time>2026-03-15T11:14:50.998Z</time></trkpt><trkpt lat="45.55611267004509" lon="9.983064375910102"><ele>153.75</ele><time>2026-03-15T11:14:51.998Z</time></trkpt><trkpt lat="45.556101810710075" lon="9.983261229770285"><ele>154.0</ele><time>2026-03-15T11:14:52.998Z</time></trkpt><trkpt lat="45.55611720463675" lon="9.983434591677279"><ele>154.25</ele><time>2026-03-15T11:14:53.998Z</time></trkpt><trkpt lat="45.556152633636245" lon="9.983582697498386"><ele>154.5</ele><time>2026-03-15T11:14:54.998Z</time></trkpt><trkpt lat="45.55617948273056" lon="9.983728928261868"><ele>154.75</ele><time>2026-03-15T11:14:55.998Z</time></trkpt><trkpt lat="45.556194932711946" lon="9.983895698327546"><ele>155.0</ele><time>2026-03-15T11:14:56.998Z</time></trkpt><trkpt lat="45.55621212835945" lon="9.984085460591654"><ele>155.33333333333331</ele><time>2026-03-15T11:14:57.998Z</time></trkpt><trkpt lat="45.556234792134774" lon="9.984300544829043"><ele>155.66666666666666</ele><time>2026-03-15T11:14:58.998Z</time></trkpt><trkpt lat="45.5562565855727" lon="9.984532210649672"><ele>156.0</ele><time>2026-03-15T11:14:59.998Z</time></trkpt><trkpt lat="45.55627017464527" lon="9.984733302826946"><ele>156.0</ele><time>2026-03-15T11:15:00.998Z</time></trkpt><trkpt lat="45.556281536622606" lon="9.984914598428388"><ele>156.0</ele><time>2026-03-15T11:15:01.998Z</time></trkpt><trkpt lat="45.55629064286956" lon="9.985072526356547"><ele>156.0</ele><time>2026-03-15T11:15:02.998Z</time></trkpt><trkpt lat="45.5563035581694" lon="9.98524800106274"><ele>156.0</ele><time>2026-03-15T11:15:03.997Z</time></trkpt><trkpt lat="45.556321811305835" lon="9.985417225160292"><ele>156.0</ele><time>2026-03-15T11:15:04.997Z</time></trkpt><trkpt lat="45.556343186669935" lon="9.985540083764949"><ele>156.0</ele><time>2026-03-15T11:15:05.997Z</time></trkpt><trkpt lat="45.556414300090054" lon="9.985612494651859"><ele>156.0</ele><time>2026-03-15T11:15:07.997Z</time></trkpt><trkpt lat="45.556442844667394" lon="9.98550456903087"><ele>156.0</ele><time>2026-03-15T11:15:09.997Z</time></trkpt><trkpt lat="45.556367761224" lon="9.98548180615027"><ele>156.0</ele><time>2026-03-15T11:15:12.997Z</time></trkpt><trkpt lat="45.556356832759356" lon="9.985334411670213"><ele>156.0</ele><time>2026-03-15T11:15:16.997Z</time></trkpt><trkpt lat="45.55636473563996" lon="9.985237360742548"><ele>156.0</ele><time>2026-03-15T11:15:18.997Z</time></trkpt><trkpt lat="45.55635316678926" lon="9.985132744934601"><ele>156.0</ele><time>2026-03-15T11:15:21.997Z</time></trkpt><trkpt lat="45.55634793660529" lon="9.985036808233358"><ele>156.0</ele><time>2026-03-15T11:15:25.997Z</time></trkpt><trkpt lat="45.556332383612244" lon="9.984946624811755"><ele>156.0</ele><time>2026-03-15T11:15:27.997Z</time></trkpt><trkpt lat="45.556327269741324" lon="9.984727130775894"><ele>156.0</ele><time>2026-03-15T11:15:29.997Z</time></trkpt><trkpt lat="45.556316373077344" lon="9.984482556601078"><ele>156.0</ele><time>2026-03-15T11:15:31Z</time></trkpt><trkpt lat="45.556304825912704" lon="9.984212520631937"><ele>156.0</ele><time>2026-03-15T11:15:32Z</time></trkpt><trkpt lat="45.55630516019977" lon="9.983969864210394"><ele>156.0</ele><time>2026-03-15T11:15:33Z</time></trkpt><trkpt lat="45.556317544224186" lon="9.98376010758512"><ele>155.75</ele><time>2026-03-15T11:15:34Z</time></trkpt><trkpt lat="45.5563515139961" lon="9.983574516251743"><ele>155.5</ele><time>2026-03-15T11:15:35Z</time></trkpt><trkpt lat="45.55638453296829" lon="9.98341215975487"><ele>155.25</ele><time>2026-03-15T11:15:36Z</time></trkpt><trkpt lat="45.55648023641343" lon="9.983286787506255"><ele>155.0</ele><time>2026-03-15T11:15:37Z</time></trkpt><trkpt lat="45.55650134129829" lon="9.983142497331254"><ele>154.8</ele><time>2026-03-15T11:15:38Z</time></trkpt><trkpt lat="45.556464178273245" lon="9.983004917724024"><ele>154.6</ele><time>2026-03-15T11:15:39Z</time></trkpt><trkpt lat="45.55638987589348" lon="9.982909534037445"><ele>154.4</ele><time>2026-03-15T11:15:40Z</time></trkpt><trkpt lat="45.55628731459736" lon="9.982874356928395"><ele>154.2</ele><time>2026-03-15T11:15:41Z</time></trkpt><trkpt lat="45.55618533537417" lon="9.982917035700204"><ele>154.0</ele><time>2026-03-15T11:15:42Z</time></trkpt><trkpt lat="45.55610822798344" lon="9.983008279173248"><ele>154.0</ele><time>2026-03-15T11:15:43Z</time></trkpt><trkpt lat="45.556083494562344" lon="9.98314915361514"><ele>154.0</ele><time>2026-03-15T11:15:44Z</time></trkpt><trkpt lat="45.55604357326089" lon="9.983251553874153"><ele>154.0</ele><time>2026-03-15T11:15:45Z</time></trkpt><trkpt lat="45.556012406723156" lon="9.983331498013364"><ele>154.0</ele><time>2026-03-15T11:15:46Z</time></trkpt><trkpt lat="45.556063372232494" lon="9.983385839012845"><ele>154.0</ele><time>2026-03-15T11:15:47Z</time></trkpt><trkpt lat="45.55592760838664" lon="9.98342818981373"><ele>154.16666666666669</ele><time>2026-03-15T11:22:10Z</time></trkpt><trkpt lat="45.555947840291104" lon="9.983517526675003"><ele>154.33333333333334</ele><time>2026-03-15T11:22:46.999Z</time></trkpt><trkpt lat="45.556004542146674" lon="9.983602907858616"><ele>154.5</ele><time>2026-03-15T11:22:50.999Z</time></trkpt><trkpt lat="45.55607277319623" lon="9.98372116127098"><ele>154.66666666666666</ele><time>2026-03-15T11:22:52.999Z</time></trkpt><trkpt lat="45.556097823722205" lon="9.983811508319592"><ele>154.83333333333331</ele><time>2026-03-15T11:22:53.998Z</time></trkpt><trkpt lat="45.55611196818328" lon="9.983905571578779"><ele>155.0</ele><time>2026-03-15T11:22:54.998Z</time></trkpt><trkpt lat="45.55620486446345" lon="9.984006923076798"><ele>155.0</ele><time>2026-03-15T11:22:55.998Z</time></trkpt><trkpt lat="45.55622887783743" lon="9.984110992831976"><ele>155.0</ele><time>2026-03-15T11:22:56.998Z</time></trkpt><trkpt lat="45.55621038776215" lon="9.984254813227498"><ele>155.0</ele><time>2026-03-15T11:22:57.998Z</time></trkpt><trkpt lat="45.55621908525922" lon="9.984433183519215"><ele>155.0</ele><time>2026-03-15T11:22:59.998Z</time></trkpt><trkpt lat="45.55622627484971" lon="9.984551156379348"><ele>155.0</ele><time>2026-03-15T11:23:01.998Z</time></trkpt><trkpt lat="45.55623475278352" lon="9.98469026949895"><ele>155.2</ele><time>2026-03-15T11:23:04.998Z</time></trkpt><trkpt lat="45.55624167425525" lon="9.984803842419456"><ele>155.4</ele><time>2026-03-15T11:23:06.998Z</time></trkpt><trkpt lat="45.55625154809397" lon="9.984965860414713"><ele>155.6</ele><time>2026-03-15T11:23:08.998Z</time></trkpt><trkpt lat="45.55626235671995" lon="9.98514321762419"><ele>155.8</ele><time>2026-03-15T11:23:10.998Z</time></trkpt><trkpt lat="45.556269555718394" lon="9.98526134412694"><ele>156.0</ele><time>2026-03-15T11:23:11.998Z</time></trkpt><trkpt lat="45.55627548527306" lon="9.985358641114479"><ele>156.0</ele><time>2026-03-15T11:23:12.998Z</time></trkpt><trkpt lat="45.55628429243684" lon="9.985503156267866"><ele>156.0</ele><time>2026-03-15T11:23:13.998Z</time></trkpt><trkpt lat="45.55629492706492" lon="9.98568541407968"><ele>156.0</ele><time>2026-03-15T11:23:14.998Z</time></trkpt><trkpt lat="45.55630453928613" lon="9.985850687774933"><ele>156.0</ele><time>2026-03-15T11:23:15.998Z</time></trkpt><trkpt lat="45.55631508499221" lon="9.986032012102037"><ele>156.25</ele><time>2026-03-15T11:23:16.998Z</time></trkpt><trkpt lat="45.556329671696986" lon="9.9862933471975"><ele>156.5</ele><time>2026-03-15T11:23:17.998Z</time></trkpt><trkpt lat="45.55633798356437" lon="9.986482363411872"><ele>156.75</ele><time>2026-03-15T11:23:18.998Z</time></trkpt><trkpt lat="45.55634251338185" lon="9.98665317169181"><ele>157.0</ele><time>2026-03-15T11:23:19.998Z</time></trkpt><trkpt lat="45.556343594442914" lon="9.986811892154357"><ele>157.25</ele><time>2026-03-15T11:23:20.998Z</time></trkpt><trkpt lat="45.55634074699406" lon="9.986993778975458"><ele>157.5</ele><time>2026-03-15T11:23:21.998Z</time></trkpt><trkpt lat="45.556329947422974" lon="9.987191036269627"><ele>157.75</ele><time>2026-03-15T11:23:22.998Z</time></trkpt><trkpt lat="45.55631879898465" lon="9.987338160265494"><ele>158.0</ele><time>2026-03-15T11:23:23.998Z</time></trkpt><trkpt lat="45.556304275537855" lon="9.98749256283344"><ele>157.83333333333331</ele><time>2026-03-15T11:23:24.998Z</time></trkpt><trkpt lat="45.55628764464929" lon="9.987618465866207"><ele>157.66666666666666</ele><time>2026-03-15T11:23:25.998Z</time></trkpt><trkpt lat="45.556269309721564" lon="9.987738371494169"><ele>157.5</ele><time>2026-03-15T11:23:26.998Z</time></trkpt><trkpt lat="45.5562505880416" lon="9.987839134196607"><ele>157.33333333333334</ele><time>2026-03-15T11:23:27.998Z</time></trkpt><trkpt lat="45.5562280031962" lon="9.987949123823395"><ele>157.16666666666669</ele><time>2026-03-15T11:23:28.998Z</time></trkpt><trkpt lat="45.55620181591342" lon="9.98806134187086"><ele>157.0</ele><time>2026-03-15T11:23:29.998Z</time></trkpt><trkpt lat="45.55617682356102" lon="9.988160867463003"><ele>156.83333333333334</ele><time>2026-03-15T11:23:30.998Z</time></trkpt><trkpt lat="45.55614919792819" lon="9.988259694386961"><ele>156.66666666666669</ele><time>2026-03-15T11:23:31.998Z</time></trkpt><trkpt lat="45.55612315595147" lon="9.988350213919285"><ele>156.5</ele><time>2026-03-15T11:23:32.998Z</time></trkpt><trkpt lat="45.55609354693437" lon="9.988440533852081"><ele>156.33333333333334</ele><time>2026-03-15T11:23:33.998Z</time></trkpt><trkpt lat="45.556059345756886" lon="9.988532071682807"><ele>156.16666666666666</ele><time>2026-03-15T11:23:34.998Z</time></trkpt><trkpt lat="45.55602325005477" lon="9.988618757242484"><ele>156.0</ele><time>2026-03-15T11:23:35.997Z</time></trkpt><trkpt lat="45.555956751370815" lon="9.988771613965389"><ele>155.85714285714286</ele><time>2026-03-15T11:23:37.997Z</time></trkpt><trkpt lat="45.5559161474113" lon="9.988858255578421"><ele>155.7142857142857</ele><time>2026-03-15T11:23:38.997Z</time></trkpt><trkpt lat="45.55587370623815" lon="9.988946684190465"><ele>155.57142857142856</ele><time>2026-03-15T11:23:39.997Z</time></trkpt><trkpt lat="45.5558271690066" lon="9.989036905310227"><ele>155.42857142857144</ele><time>2026-03-15T11:23:40.997Z</time></trkpt><trkpt lat="45.555781328529285" lon="9.989121703120377"><ele>155.28571428571428</ele><time>2026-03-15T11:23:41.997Z</time></trkpt><trkpt lat="45.55573874496469" lon="9.989195724302995"><ele>155.14285714285714</ele><time>2026-03-15T11:23:42.997Z</time></trkpt><trkpt lat="45.555690843377484" lon="9.989273132325485"><ele>155.0</ele><time>2026-03-15T11:23:43.997Z</time></trkpt><trkpt lat="45.55563057601591" lon="9.989364259724443"><ele>155.0</ele><time>2026-03-15T11:23:44.997Z</time></trkpt><trkpt lat="45.55554887952601" lon="9.989477001521621"><ele>155.0</ele><time>2026-03-15T11:23:45.997Z</time></trkpt><trkpt lat="45.555484299095966" lon="9.98956269376532"><ele>155.0</ele><time>2026-03-15T11:23:46.997Z</time></trkpt><trkpt lat="45.55539439880712" lon="9.989664099447563"><ele>155.0</ele><time>2026-03-15T11:23:47.997Z</time></trkpt><trkpt lat="45.5553117812399" lon="9.989750127598096"><ele>155.0</ele><time>2026-03-15T11:23:48.997Z</time></trkpt><trkpt lat="45.55521979685789" lon="9.98983794272507"><ele>154.75</ele><time>2026-03-15T11:23:49.997Z</time></trkpt><trkpt lat="45.5550983580657" lon="9.989945816705127"><ele>154.5</ele><time>2026-03-15T11:23:50.997Z</time></trkpt><trkpt lat="45.554963282593604" lon="9.99005424514995"><ele>154.25</ele><time>2026-03-15T11:23:51.997Z</time></trkpt><trkpt lat="45.55484918434853" lon="9.99013251081"><ele>154.0</ele><time>2026-03-15T11:23:52.997Z</time></trkpt><trkpt lat="45.55475006679126" lon="9.990189310964535"><ele>154.5</ele><time>2026-03-15T11:23:54Z</time></trkpt><trkpt lat="45.55464151583992" lon="9.990241474191615"><ele>155.0</ele><time>2026-03-15T11:23:55Z</time></trkpt><trkpt lat="45.554511238391065" lon="9.990295270987058"><ele>155.5</ele><time>2026-03-15T11:23:56Z</time></trkpt><trkpt lat="45.55441554766911" lon="9.990333346740622"><ele>156.0</ele><time>2026-03-15T11:23:57Z</time></trkpt><trkpt lat="45.554291164176256" lon="9.990371332736157"><ele>156.25</ele><time>2026-03-15T11:23:58Z</time></trkpt><trkpt lat="45.5541423611118" lon="9.990410716780735"><ele>156.5</ele><time>2026-03-15T11:23:59Z</time></trkpt><trkpt lat="45.553998638582" lon="9.990437895979657"><ele>156.75</ele><time>2026-03-15T11:24:00Z</time></trkpt><trkpt lat="45.5538884063989" lon="9.990457614000203"><ele>157.0</ele><time>2026-03-15T11:24:01Z</time></trkpt><trkpt lat="45.55377898749818" lon="9.990473761734146"><ele>156.79999999999998</ele><time>2026-03-15T11:24:02Z</time></trkpt><trkpt lat="45.55368390470985" lon="9.990486622230105"><ele>156.6</ele><time>2026-03-15T11:24:03Z</time></trkpt><trkpt lat="45.55359731282668" lon="9.990497158825969"><ele>156.39999999999998</ele><time>2026-03-15T11:24:04Z</time></trkpt><trkpt lat="45.553470016735126" lon="9.99051140000925"><ele>156.2</ele><time>2026-03-15T11:24:06Z</time></trkpt><trkpt lat="45.55339929392227" lon="9.990519518484449"><ele>156.0</ele><time>2026-03-15T11:24:08Z</time></trkpt><trkpt lat="45.55336983614956" lon="9.990685607023169"><ele>156.0</ele><time>2026-03-15T11:24:12Z</time></trkpt><trkpt lat="45.55341963215424" lon="9.99075119492282"><ele>156.0</ele><time>2026-03-15T11:24:13.999Z</time></trkpt><trkpt lat="45.55351728586133" lon="9.990781098947584"><ele>156.0</ele><time>2026-03-15T11:24:15.999Z</time></trkpt><trkpt lat="45.55359896117187" lon="9.99078272665317"><ele>156.0</ele><time>2026-03-15T11:24:16.999Z</time></trkpt><trkpt lat="45.553722513871456" lon="9.990770835730318"><ele>156.0</ele><time>2026-03-15T11:24:17.999Z</time></trkpt><trkpt lat="45.55386482843396" lon="9.990737311085772"><ele>156.25</ele><time>2026-03-15T11:24:18.999Z</time></trkpt><trkpt lat="45.55400775719871" lon="9.990603434425163"><ele>156.5</ele><time>2026-03-15T11:24:19.999Z</time></trkpt><trkpt lat="45.55414224757185" lon="9.990577592890231"><ele>156.75</ele><time>2026-03-15T11:24:20.999Z</time></trkpt><trkpt lat="45.55428226110793" lon="9.990542909043453"><ele>157.0</ele><time>2026-03-15T11:24:21.999Z</time></trkpt><trkpt lat="45.55439744231579" lon="9.990508444076525"><ele>157.0</ele><time>2026-03-15T11:24:22.999Z</time></trkpt><trkpt lat="45.55451355917335" lon="9.990466551973507"><ele>157.0</ele><time>2026-03-15T11:24:23.999Z</time></trkpt><trkpt lat="45.554662100251186" lon="9.990406015796681"><ele>157.0</ele><time>2026-03-15T11:24:24.999Z</time></trkpt><trkpt lat="45.55478576332177" lon="9.990347444447204"><ele>157.0</ele><time>2026-03-15T11:24:25.999Z</time></trkpt><trkpt lat="45.554883420950674" lon="9.990292297238073"><ele>156.79999999999998</ele><time>2026-03-15T11:24:26.999Z</time></trkpt><trkpt lat="45.55496914703309" lon="9.990238350947324"><ele>156.6</ele><time>2026-03-15T11:24:27.998Z</time></trkpt><trkpt lat="45.55506017595576" lon="9.990168795725348"><ele>156.39999999999998</ele><time>2026-03-15T11:24:28.998Z</time></trkpt><trkpt lat="45.55515222866261" lon="9.990093743496544"><ele>156.2</ele><time>2026-03-15T11:24:29.998Z</time></trkpt><trkpt lat="45.55522526834583" lon="9.990042628706709"><ele>156.0</ele><time>2026-03-15T11:24:30.998Z</time></trkpt><trkpt lat="45.55532384381698" lon="9.989985491775341"><ele>156.0</ele><time>2026-03-15T11:24:32.998Z</time></trkpt><trkpt lat="45.55537993361938" lon="9.989886870553772"><ele>156.0</ele><time>2026-03-15T11:24:34.998Z</time></trkpt><trkpt lat="45.55553195723047" lon="9.990017271524316"><ele>156.0</ele><time>2026-03-15T11:24:37.998Z</time></trkpt><trkpt lat="45.55546544259371" lon="9.989928029885526"><ele>156.0</ele><time>2026-03-15T11:24:38.998Z</time></trkpt><trkpt lat="45.55538212036715" lon="9.98986859581966"><ele>156.0</ele><time>2026-03-15T11:24:40.998Z</time></trkpt><trkpt lat="45.5553158813705" lon="9.98987221802601"><ele>156.0</ele><time>2026-03-15T11:24:55.997Z</time></trkpt><trkpt lat="45.55523163978227" lon="9.989887803364033"><ele>156.0</ele><time>2026-03-15T11:24:56.997Z</time></trkpt><trkpt lat="45.55515788232434" lon="9.989932309134627"><ele>156.0</ele><time>2026-03-15T11:24:57.997Z</time></trkpt><trkpt lat="45.55502893196108" lon="9.990042227266516"><ele>156.0</ele><time>2026-03-15T11:24:58.997Z</time></trkpt><trkpt lat="45.554914187989624" lon="9.990136376256638"><ele>156.0</ele><time>2026-03-15T11:24:59.997Z</time></trkpt><trkpt lat="45.55480832666389" lon="9.990215597308712"><ele>156.0</ele><time>2026-03-15T11:25:00.997Z</time></trkpt><trkpt lat="45.55470379204552" lon="9.990284173062369"><ele>156.0</ele><time>2026-03-15T11:25:01.997Z</time></trkpt><trkpt lat="45.55459088500009" lon="9.990341469124107"><ele>156.0</ele><time>2026-03-15T11:25:02.997Z</time></trkpt><trkpt lat="45.554465012787446" lon="9.990387143281955"><ele>156.25</ele><time>2026-03-15T11:25:03.997Z</time></trkpt><trkpt lat="45.55433255722639" lon="9.990427844848474"><ele>156.5</ele><time>2026-03-15T11:25:04.997Z</time></trkpt><trkpt lat="45.55419234500687" lon="9.99046865475812"><ele>156.75</ele><time>2026-03-15T11:25:05.997Z</time></trkpt><trkpt lat="45.55404943193306" lon="9.990497564269592"><ele>157.0</ele><time>2026-03-15T11:25:06.997Z</time></trkpt><trkpt lat="45.55390620252367" lon="9.990513954383024"><ele>157.0</ele><time>2026-03-15T11:25:07.997Z</time></trkpt><trkpt lat="45.55376040203704" lon="9.99053027655912"><ele>157.0</ele><time>2026-03-15T11:25:08.997Z</time></trkpt><trkpt lat="45.55360938486406" lon="9.990555038712976"><ele>157.0</ele><time>2026-03-15T11:25:09.997Z</time></trkpt><trkpt lat="45.55346535754983" lon="9.990574472918135"><ele>157.0</ele><time>2026-03-15T11:25:10.997Z</time></trkpt><trkpt lat="45.553312006616245" lon="9.990592638904404"><ele>156.75</ele><time>2026-03-15T11:25:11.997Z</time></trkpt><trkpt lat="45.55317363133347" lon="9.990623384374999"><ele>156.5</ele><time>2026-03-15T11:25:12.997Z</time></trkpt><trkpt lat="45.55301874871295" lon="9.990621424019256"><ele>156.25</ele><time>2026-03-15T11:25:13.997Z</time></trkpt><trkpt lat="45.552866473896174" lon="9.990638123058613"><ele>156.0</ele><time>2026-03-15T11:25:14.997Z</time></trkpt><trkpt lat="45.55268198827691" lon="9.990648686262855"><ele>155.66666666666666</ele><time>2026-03-15T11:25:15.997Z</time></trkpt><trkpt lat="45.55251102733427" lon="9.99066901130086"><ele>155.33333333333331</ele><time>2026-03-15T11:25:16.997Z</time></trkpt><trkpt lat="45.552342451675344" lon="9.990684711221194"><ele>155.0</ele><time>2026-03-15T11:25:17.997Z</time></trkpt><trkpt lat="45.552175351482475" lon="9.990699287863617"><ele>154.66666666666666</ele><time>2026-03-15T11:25:18.997Z</time></trkpt><trkpt lat="45.552009334890506" lon="9.990721013994179"><ele>154.33333333333334</ele><time>2026-03-15T11:25:19.997Z</time></trkpt><trkpt lat="45.55183742607399" lon="9.990746032847282"><ele>154.0</ele><time>2026-03-15T11:25:20.997Z</time></trkpt><trkpt lat="45.551670212902806" lon="9.990766031229658"><ele>154.0</ele><time>2026-03-15T11:25:21.997Z</time></trkpt><trkpt lat="45.55150674379876" lon="9.990795756291101"><ele>154.0</ele><time>2026-03-15T11:25:22.997Z</time></trkpt><trkpt lat="45.55134251968236" lon="9.990829164922678"><ele>154.0</ele><time>2026-03-15T11:25:23.997Z</time></trkpt><trkpt lat="45.551198405979456" lon="9.990874021824892"><ele>154.0</ele><time>2026-03-15T11:25:24.997Z</time></trkpt><trkpt lat="45.55107539365195" lon="9.990922200837863"><ele>154.0</ele><time>2026-03-15T11:25:25.997Z</time></trkpt><trkpt lat="45.55100584339658" lon="9.990947985779503"><ele>154.0</ele><time>2026-03-15T11:25:26.997Z</time></trkpt><trkpt lat="45.55091619776507" lon="9.990962353116828"><ele>154.0</ele><time>2026-03-15T11:25:30.997Z</time></trkpt><trkpt lat="45.55085693693475" lon="9.990993786724328"><ele>154.0</ele><time>2026-03-15T11:25:31.997Z</time></trkpt><trkpt lat="45.55079573328789" lon="9.991029699293653"><ele>154.0</ele><time>2026-03-15T11:25:32.997Z</time></trkpt><trkpt lat="45.55072093609091" lon="9.991077956335074"><ele>154.0</ele><time>2026-03-15T11:25:33.997Z</time></trkpt><trkpt lat="45.55062667307282" lon="9.991144679679914"><ele>154.0</ele><time>2026-03-15T11:25:34.996Z</time></trkpt><trkpt lat="45.55054636294844" lon="9.991205370835134"><ele>154.0</ele><time>2026-03-15T11:25:35.996Z</time></trkpt><trkpt lat="45.550464228976345" lon="9.99127061734739"><ele>154.0</ele><time>2026-03-15T11:25:36.996Z</time></trkpt><trkpt lat="45.55036680045137" lon="9.99135333232549"><ele>154.0</ele><time>2026-03-15T11:25:37.996Z</time></trkpt><trkpt lat="45.55025389237448" lon="9.991462217356508"><ele>153.8</ele><time>2026-03-15T11:25:38.996Z</time></trkpt><trkpt lat="45.550163172121366" lon="9.991564362289491"><ele>153.60000000000002</ele><time>2026-03-15T11:25:39.996Z</time></trkpt><trkpt lat="45.55007497813512" lon="9.991670144644615"><ele>153.4</ele><time>2026-03-15T11:25:40.996Z</time></trkpt><trkpt lat="45.54999612346523" lon="9.99177011090897"><ele>153.20000000000002</ele><time>2026-03-15T11:25:41.996Z</time></trkpt><trkpt lat="45.54991783638243" lon="9.991877329902465"><ele>153.0</ele><time>2026-03-15T11:25:42.996Z</time></trkpt><trkpt lat="45.54981949188414" lon="9.992029299460155"><ele>153.0</ele><time>2026-03-15T11:25:43.996Z</time></trkpt><trkpt lat="45.54970907767149" lon="9.992219462343522"><ele>153.0</ele><time>2026-03-15T11:25:44.996Z</time></trkpt><trkpt lat="45.54962153034476" lon="9.992378485178138"><ele>153.0</ele><time>2026-03-15T11:25:45.996Z</time></trkpt><trkpt lat="45.54955446686536" lon="9.992517374754547"><ele>153.0</ele><time>2026-03-15T11:25:46.996Z</time></trkpt><trkpt lat="45.54950255221597" lon="9.992639072031444"><ele>153.5</ele><time>2026-03-15T11:25:47.996Z</time></trkpt><trkpt lat="45.549470196661225" lon="9.992721616387993"><ele>154.0</ele><time>2026-03-15T11:25:48.996Z</time></trkpt><trkpt lat="45.54941154362434" lon="9.992810588515672"><ele>154.5</ele><time>2026-03-15T11:25:50.996Z</time></trkpt><trkpt lat="45.549363160501315" lon="9.992879454287886"><ele>155.0</ele><time>2026-03-15T11:25:51.996Z</time></trkpt><trkpt lat="45.548925658838336" lon="9.992713444030056"><ele>155.0</ele><time>2026-03-15T11:25:52.996Z</time></trkpt><trkpt lat="45.54878987486244" lon="9.992731613369324"><ele>155.0</ele><time>2026-03-15T11:25:53.996Z</time></trkpt><trkpt lat="45.548649115542695" lon="9.99274467134938"><ele>155.0</ele><time>2026-03-15T11:25:54.996Z</time></trkpt><trkpt lat="45.54851114049029" lon="9.992755475379282"><ele>155.0</ele><time>2026-03-15T11:25:55.996Z</time></trkpt><trkpt lat="45.54835711617177" lon="9.992724740499"><ele>154.4</ele><time>2026-03-15T11:25:56.996Z</time></trkpt><trkpt lat="45.5482161178087" lon="9.992698216636228"><ele>153.8</ele><time>2026-03-15T11:25:57.996Z</time></trkpt><trkpt lat="45.54811432099705" lon="9.99270251655645"><ele>153.2</ele><time>2026-03-15T11:25:58.996Z</time></trkpt><trkpt lat="45.54801954260196" lon="9.99272799906686"><ele>152.6</ele><time>2026-03-15T11:25:59.999Z</time></trkpt><trkpt lat="45.54792781908782" lon="9.992768285999022"><ele>152.0</ele><time>2026-03-15T11:26:00.999Z</time></trkpt><trkpt lat="45.547809558055626" lon="9.992824801768784"><ele>152.0</ele><time>2026-03-15T11:26:01.999Z</time></trkpt><trkpt lat="45.54769914837295" lon="9.992860955899404"><ele>152.0</ele><time>2026-03-15T11:26:02.999Z</time></trkpt><trkpt lat="45.5475632560906" lon="9.992869327556601"><ele>152.0</ele><time>2026-03-15T11:26:03.999Z</time></trkpt><trkpt lat="45.54741808502966" lon="9.992853362434241"><ele>152.0</ele><time>2026-03-15T11:26:04.999Z</time></trkpt><trkpt lat="45.547295283840754" lon="9.992845163615229"><ele>152.0</ele><time>2026-03-15T11:26:05.999Z</time></trkpt><trkpt lat="45.54719397281519" lon="9.992845683306962"><ele>152.0</ele><time>2026-03-15T11:26:06.999Z</time></trkpt><trkpt lat="45.54709723208103" lon="9.992835380215638"><ele>152.0</ele><time>2026-03-15T11:26:07.999Z</time></trkpt><trkpt lat="45.54700226434367" lon="9.992814198473555"><ele>152.0</ele><time>2026-03-15T11:26:08.999Z</time></trkpt><trkpt lat="45.54692271223329" lon="9.992792223733955"><ele>152.0</ele><time>2026-03-15T11:26:09.999Z</time></trkpt><trkpt lat="45.546852810182884" lon="9.992755878197583"><ele>152.0</ele><time>2026-03-15T11:26:10.999Z</time></trkpt><trkpt lat="45.54681382233574" lon="9.992684805916683"><ele>152.0</ele><time>2026-03-15T11:26:12Z</time></trkpt><trkpt lat="45.546754960064696" lon="9.992560887242101"><ele>152.0</ele><time>2026-03-15T11:26:14Z</time></trkpt><trkpt lat="45.546671253611656" lon="9.992433901026669"><ele>152.0</ele><time>2026-03-15T11:26:16Z</time></trkpt><trkpt lat="45.546612419979866" lon="9.992358977392346"><ele>152.0</ele><time>2026-03-15T11:26:17Z</time></trkpt><trkpt lat="45.54652769612493" lon="9.99231316069043"><ele>152.0</ele><time>2026-03-15T11:26:18Z</time></trkpt><trkpt lat="45.54642521862299" lon="9.992302450190413"><ele>152.0</ele><time>2026-03-15T11:26:19Z</time></trkpt><trkpt lat="45.546302320375574" lon="9.992307746612827"><ele>152.0</ele><time>2026-03-15T11:26:20Z</time></trkpt><trkpt lat="45.54616785706471" lon="9.992310267983347"><ele>152.0</ele><time>2026-03-15T11:26:21Z</time></trkpt><trkpt lat="45.54605003913271" lon="9.992326712478102"><ele>151.79999999999998</ele><time>2026-03-15T11:26:22Z</time></trkpt><trkpt lat="45.545943416046654" lon="9.992356683284966"><ele>151.6</ele><time>2026-03-15T11:26:23Z</time></trkpt><trkpt lat="45.54585124701579" lon="9.992387308012999"><ele>151.39999999999998</ele><time>2026-03-15T11:26:24Z</time></trkpt><trkpt lat="45.545747417138365" lon="9.992400239115064"><ele>151.2</ele><time>2026-03-15T11:26:25Z</time></trkpt><trkpt lat="45.54564624819858" lon="9.992374490785446"><ele>151.0</ele><time>2026-03-15T11:26:26Z</time></trkpt><trkpt lat="45.545550855821816" lon="9.992341598342747"><ele>151.0</ele><time>2026-03-15T11:26:27Z</time></trkpt><trkpt lat="45.545428921339926" lon="9.992319047766312"><ele>151.0</ele><time>2026-03-15T11:26:28Z</time></trkpt><trkpt lat="45.54528113575003" lon="9.992325244979234"><ele>151.0</ele><time>2026-03-15T11:26:29Z</time></trkpt><trkpt lat="45.545134398325025" lon="9.992332120226852"><ele>151.0</ele><time>2026-03-15T11:26:30Z</time></trkpt><trkpt lat="45.54498178172669" lon="9.992340222771517"><ele>151.0</ele><time>2026-03-15T11:26:31Z</time></trkpt><trkpt lat="45.54484504922968" lon="9.99231316999054"><ele>151.0</ele><time>2026-03-15T11:26:32Z</time></trkpt><trkpt lat="45.54472738746389" lon="9.992308747122623"><ele>151.0</ele><time>2026-03-15T11:26:33Z</time></trkpt><trkpt lat="45.54463302804101" lon="9.992296780627138"><ele>151.0</ele><time>2026-03-15T11:26:34Z</time></trkpt><trkpt lat="45.54454876150562" lon="9.992284217645501"><ele>151.0</ele><time>2026-03-15T11:26:35Z</time></trkpt><trkpt lat="45.54447708090586" lon="9.992271255268625"><ele>151.0</ele><time>2026-03-15T11:26:36Z</time></trkpt><trkpt lat="45.544408839840656" lon="9.992263770572922"><ele>151.0</ele><time>2026-03-15T11:26:37Z</time></trkpt><trkpt lat="45.54434228747934" lon="9.992257310830889"><ele>151.0</ele><time>2026-03-15T11:26:38Z</time></trkpt><trkpt lat="45.544223246335996" lon="9.992245756400255"><ele>151.0</ele><time>2026-03-15T11:26:39.999Z</time></trkpt><trkpt lat="45.54412633659847" lon="9.992205439650645"><ele>151.0</ele><time>2026-03-15T11:26:41.999Z</time></trkpt><trkpt lat="45.544047461666956" lon="9.99207610581633"><ele>151.0</ele><time>2026-03-15T11:26:43.999Z</time></trkpt><trkpt lat="45.54399379260678" lon="9.991931384358447"><ele>151.0</ele><time>2026-03-15T11:26:45.999Z</time></trkpt><trkpt lat="45.543923029342984" lon="9.991892882736796"><ele>151.0</ele><time>2026-03-15T11:26:46.999Z</time></trkpt><trkpt lat="45.54384868228324" lon="9.991867261039717"><ele>151.0</ele><time>2026-03-15T11:26:47.999Z</time></trkpt><trkpt lat="45.543764925635024" lon="9.991868744164824"><ele>151.0</ele><time>2026-03-15T11:26:48.999Z</time></trkpt><trkpt lat="45.54367816543356" lon="9.991862017506914"><ele>151.0</ele><time>2026-03-15T11:26:49.999Z</time></trkpt><trkpt lat="45.543569761901864" lon="9.991826793850565"><ele>150.75</ele><time>2026-03-15T11:26:50.999Z</time></trkpt><trkpt lat="45.54343142007799" lon="9.991803130114384"><ele>150.5</ele><time>2026-03-15T11:26:51.999Z</time></trkpt><trkpt lat="45.54329265254919" lon="9.991778647390943"><ele>150.25</ele><time>2026-03-15T11:26:52.999Z</time></trkpt><trkpt lat="45.543173120423894" lon="9.99175662831569"><ele>150.0</ele><time>2026-03-15T11:26:53.999Z</time></trkpt><trkpt lat="45.54306647530227" lon="9.99173698316103"><ele>150.0</ele><time>2026-03-15T11:26:54.999Z</time></trkpt><trkpt lat="45.542958145089216" lon="9.991728385884825"><ele>150.0</ele><time>2026-03-15T11:26:55.999Z</time></trkpt><trkpt lat="45.54285344489891" lon="9.991709950909469"><ele>150.0</ele><time>2026-03-15T11:26:56.999Z</time></trkpt><trkpt lat="45.54276818139566" lon="9.991682760463922"><ele>150.0</ele><time>2026-03-15T11:26:57.999Z</time></trkpt><trkpt lat="45.54268745359235" lon="9.991658921844152"><ele>150.0</ele><time>2026-03-15T11:26:58.999Z</time></trkpt><trkpt lat="45.542616359971476" lon="9.991636260017891"><ele>150.0</ele><time>2026-03-15T11:26:59.999Z</time></trkpt><trkpt lat="45.54255521177956" lon="9.991605805298633"><ele>150.0</ele><time>2026-03-15T11:27:01.999Z</time></trkpt><trkpt lat="45.542516687011236" lon="9.991882485723478"><ele>150.0</ele><time>2026-03-15T11:27:07.999Z</time></trkpt><trkpt lat="45.54252139482962" lon="9.99202956627832"><ele>150.0</ele><time>2026-03-15T11:27:08.999Z</time></trkpt><trkpt lat="45.54251457893948" lon="9.992177363160865"><ele>149.99999999999997</ele><time>2026-03-15T11:27:09.999Z</time></trkpt><trkpt lat="45.542512293164464" lon="9.992298148163965"><ele>150.0</ele><time>2026-03-15T11:27:10.999Z</time></trkpt><trkpt lat="45.542512272432894" lon="9.992400000314444"><ele>150.0</ele><time>2026-03-15T11:27:11.999Z</time></trkpt><trkpt lat="45.54251277719859" lon="9.992506291980428"><ele>150.0</ele><time>2026-03-15T11:27:12.999Z</time></trkpt><trkpt lat="45.54251211018378" lon="9.992603534242187"><ele>150.0</ele><time>2026-03-15T11:27:13.999Z</time></trkpt><trkpt lat="45.54251732112705" lon="9.9927049482432"><ele>149.99999999999997</ele><time>2026-03-15T11:27:14.999Z</time></trkpt><trkpt lat="45.54251985704447" lon="9.992816352627164"><ele>150.0</ele><time>2026-03-15T11:27:15.999Z</time></trkpt><trkpt lat="45.54252213337144" lon="9.99296861972236"><ele>150.0</ele><time>2026-03-15T11:27:16.999Z</time></trkpt><trkpt lat="45.542528311184064" lon="9.993182847833891"><ele>150.0</ele><time>2026-03-15T11:27:17.999Z</time></trkpt><trkpt lat="45.54253799822454" lon="9.99337480991631"><ele>150.0</ele><time>2026-03-15T11:27:18.999Z</time></trkpt><trkpt lat="45.54253171764659" lon="9.99352839896594"><ele>150.0</ele><time>2026-03-15T11:27:19.999Z</time></trkpt><trkpt lat="45.54253757732461" lon="9.993657626949965"><ele>150.0</ele><time>2026-03-15T11:27:20.999Z</time></trkpt><trkpt lat="45.542542841613695" lon="9.99376584686936"><ele>150.0</ele><time>2026-03-15T11:27:21.999Z</time></trkpt><trkpt lat="45.542557785398465" lon="9.993868888134132"><ele>150.0</ele><time>2026-03-15T11:27:23.999Z</time></trkpt><trkpt lat="45.542394074219395" lon="9.99389701771891"><ele>150.0</ele><time>2026-03-15T11:27:26.998Z</time></trkpt><trkpt lat="45.54230388912271" lon="9.993958323618362"><ele>150.0</ele><time>2026-03-15T11:27:27.998Z</time></trkpt><trkpt lat="45.54223304930653" lon="9.994022740497496"><ele>150.0</ele><time>2026-03-15T11:27:28.998Z</time></trkpt><trkpt lat="45.542187810883085" lon="9.994126871264138"><ele>150.0</ele><time>2026-03-15T11:27:29.998Z</time></trkpt><trkpt lat="45.54218935732043" lon="9.994294045604015"><ele>150.0</ele><time>2026-03-15T11:27:30.998Z</time></trkpt><trkpt lat="45.5421763603965" lon="9.994414291050754"><ele>150.0</ele><time>2026-03-15T11:27:31.998Z</time></trkpt><trkpt lat="45.5421548920713" lon="9.994535908919786"><ele>150.0</ele><time>2026-03-15T11:27:33.998Z</time></trkpt><trkpt lat="45.54226525903056" lon="9.994679677950943"><ele>150.33333333333334</ele><time>2026-03-15T11:27:38.998Z</time></trkpt><trkpt lat="45.54239938844757" lon="9.99477062452832"><ele>150.66666666666669</ele><time>2026-03-15T11:27:39.998Z</time></trkpt><trkpt lat="45.54260557655777" lon="9.994889798106207"><ele>151.0</ele><time>2026-03-15T11:27:40.998Z</time></trkpt><trkpt lat="45.542751905984446" lon="9.994960348154505"><ele>151.0</ele><time>2026-03-15T11:27:41.998Z</time></trkpt><trkpt lat="45.54289122555146" lon="9.995003157806321"><ele>151.0</ele><time>2026-03-15T11:27:42.998Z</time></trkpt><trkpt lat="45.54303851668673" lon="9.995044444182184"><ele>151.0</ele><time>2026-03-15T11:27:43.998Z</time></trkpt><trkpt lat="45.54320080477939" lon="9.995083391816333"><ele>151.0</ele><time>2026-03-15T11:27:44.998Z</time></trkpt><trkpt lat="45.543399927622254" lon="9.995138543436799"><ele>151.0</ele><time>2026-03-15T11:27:45.998Z</time></trkpt><trkpt lat="45.5435754152413" lon="9.995190635553541"><ele>151.0</ele><time>2026-03-15T11:27:46.998Z</time></trkpt><trkpt lat="45.543734066788595" lon="9.995237629065148"><ele>151.0</ele><time>2026-03-15T11:27:47.998Z</time></trkpt><trkpt lat="45.54382679575956" lon="9.995278663896373"><ele>151.0</ele><time>2026-03-15T11:27:48.998Z</time></trkpt><trkpt lat="45.54395007196231" lon="9.995302535183134"><ele>151.0</ele><time>2026-03-15T11:27:49.998Z</time></trkpt><trkpt lat="45.544058241543524" lon="9.99532850905531"><ele>151.0</ele><time>2026-03-15T11:27:50.998Z</time></trkpt><trkpt lat="45.54417176065259" lon="9.995360057659534"><ele>151.0</ele><time>2026-03-15T11:27:51.998Z</time></trkpt><trkpt lat="45.54428321527287" lon="9.995396855660372"><ele>151.0</ele><time>2026-03-15T11:27:52.998Z</time></trkpt><trkpt lat="45.54439580898484" lon="9.995428258490048"><ele>151.0</ele><time>2026-03-15T11:27:53.998Z</time></trkpt><trkpt lat="45.54450957687907" lon="9.995458264785324"><ele>151.0</ele><time>2026-03-15T11:27:54.998Z</time></trkpt><trkpt lat="45.54463339576442" lon="9.995485285717542"><ele>151.0</ele><time>2026-03-15T11:27:55.998Z</time></trkpt><trkpt lat="45.54476062720578" lon="9.99551568020896"><ele>151.25</ele><time>2026-03-15T11:27:56.998Z</time></trkpt><trkpt lat="45.54489178661961" lon="9.995551681282988"><ele>151.5</ele><time>2026-03-15T11:27:57.998Z</time></trkpt><trkpt lat="45.545024441023756" lon="9.995591472967838"><ele>151.75</ele><time>2026-03-15T11:27:58.998Z</time></trkpt><trkpt lat="45.545164101716445" lon="9.995617687325483"><ele>152.0</ele><time>2026-03-15T11:27:59.998Z</time></trkpt><trkpt lat="45.54530524925982" lon="9.995643073130706"><ele>152.5</ele><time>2026-03-15T11:28:00.998Z</time></trkpt><trkpt lat="45.54544486005721" lon="9.995671522220775"><ele>153.0</ele><time>2026-03-15T11:28:01.998Z</time></trkpt><trkpt lat="45.54557785699551" lon="9.99570900472519"><ele>153.5</ele><time>2026-03-15T11:28:02.998Z</time></trkpt><trkpt lat="45.54570438755682" lon="9.995758466301284"><ele>154.0</ele><time>2026-03-15T11:28:03.998Z</time></trkpt><trkpt lat="45.54581955624861" lon="9.995820566351357"><ele>153.6</ele><time>2026-03-15T11:28:04.998Z</time></trkpt><trkpt lat="45.545926664747526" lon="9.995867739534006"><ele>153.2</ele><time>2026-03-15T11:28:06Z</time></trkpt><trkpt lat="45.54601656195879" lon="9.995898372986263"><ele>152.79999999999998</ele><time>2026-03-15T11:28:07Z</time></trkpt><trkpt lat="45.546063960095225" lon="9.995960947175252"><ele>152.4</ele><time>2026-03-15T11:28:08Z</time></trkpt><trkpt lat="45.54599599807064" lon="9.996184384465037"><ele>152.0</ele><time>2026-03-15T11:28:11Z</time></trkpt><trkpt lat="45.54597381199956" lon="9.996269547978374"><ele>152.0</ele><time>2026-03-15T11:28:12Z</time></trkpt><trkpt lat="45.54591138271306" lon="9.996509189157987"><ele>152.0</ele><time>2026-03-15T11:28:13Z</time></trkpt><trkpt lat="45.54585482735456" lon="9.996731862464248"><ele>152.0</ele><time>2026-03-15T11:28:14Z</time></trkpt><trkpt lat="45.54580717930681" lon="9.996924613852247"><ele>152.0</ele><time>2026-03-15T11:28:15Z</time></trkpt><trkpt lat="45.54575982598684" lon="9.99711555861595"><ele>152.0</ele><time>2026-03-15T11:28:16Z</time></trkpt><trkpt lat="45.545709118325476" lon="9.997314667924934"><ele>152.0</ele><time>2026-03-15T11:28:17Z</time></trkpt><trkpt lat="45.545656941192604" lon="9.997519547380925"><ele>152.0</ele><time>2026-03-15T11:28:18Z</time></trkpt><trkpt lat="45.54561394095651" lon="9.997750271235907"><ele>152.0</ele><time>2026-03-15T11:28:19Z</time></trkpt><trkpt lat="45.54555829592327" lon="9.997967308449601"><ele>152.0</ele><time>2026-03-15T11:28:20Z</time></trkpt><trkpt lat="45.5455052397444" lon="9.998186678512674"><ele>152.0</ele><time>2026-03-15T11:28:21Z</time></trkpt><trkpt lat="45.54543270090046" lon="9.998406149417253"><ele>150.66666666666666</ele><time>2026-03-15T11:28:21.999Z</time></trkpt><trkpt lat="45.545375327809786" lon="9.998633426830331"><ele>149.33333333333334</ele><time>2026-03-15T11:28:22.999Z</time></trkpt><trkpt lat="45.54533331908881" lon="9.998857140018075"><ele>148.0</ele><time>2026-03-15T11:28:23.999Z</time></trkpt><trkpt lat="45.54528328317078" lon="9.999065135187287"><ele>148.4</ele><time>2026-03-15T11:28:24.999Z</time></trkpt><trkpt lat="45.545223572544735" lon="9.999234589263619"><ele>148.8</ele><time>2026-03-15T11:28:25.999Z</time></trkpt><trkpt lat="45.545184733831896" lon="9.999390832402014"><ele>149.2</ele><time>2026-03-15T11:28:26.999Z</time></trkpt><trkpt lat="45.54515357709599" lon="9.999519471498001"><ele>149.6</ele><time>2026-03-15T11:28:27.999Z</time></trkpt><trkpt lat="45.54513106082599" lon="9.999611286339322"><ele>150.0</ele><time>2026-03-15T11:28:28.999Z</time></trkpt><trkpt lat="45.545102383030695" lon="9.999730785382745"><ele>150.0</ele><time>2026-03-15T11:28:29.999Z</time></trkpt><trkpt lat="45.545079876255826" lon="9.999827246550428"><ele>150.0</ele><time>2026-03-15T11:28:30.999Z</time></trkpt><trkpt lat="45.54505311795609" lon="9.999917471975168"><ele>150.0</ele><time>2026-03-15T11:28:31.999Z</time></trkpt><trkpt lat="45.54500724277077" lon="10.000065637395354"><ele>150.0</ele><time>2026-03-15T11:28:33.999Z</time></trkpt><trkpt lat="45.54497665618332" lon="10.000164747129517"><ele>150.0</ele><time>2026-03-15T11:28:34.999Z</time></trkpt><trkpt lat="45.5449398051594" lon="10.00027909582224"><ele>150.0</ele><time>2026-03-15T11:28:35.999Z</time></trkpt><trkpt lat="45.54490404885768" lon="10.000414524444318"><ele>150.0</ele><time>2026-03-15T11:28:36.999Z</time></trkpt><trkpt lat="45.54487077119259" lon="10.000557404758212"><ele>150.0</ele><time>2026-03-15T11:28:37.999Z</time></trkpt><trkpt lat="45.54483906884575" lon="10.000698647920983"><ele>150.0</ele><time>2026-03-15T11:28:38.999Z</time></trkpt><trkpt lat="45.54481020278614" lon="10.000818715534741"><ele>150.0</ele><time>2026-03-15T11:28:39.999Z</time></trkpt><trkpt lat="45.54477876653092" lon="10.00093817295243"><ele>150.0</ele><time>2026-03-15T11:28:40.999Z</time></trkpt><trkpt lat="45.544743375690516" lon="10.001080024398119"><ele>150.25</ele><time>2026-03-15T11:28:41.999Z</time></trkpt><trkpt lat="45.54470900725772" lon="10.001223783344587"><ele>150.5</ele><time>2026-03-15T11:28:42.999Z</time></trkpt><trkpt lat="45.544670152757654" lon="10.001380130386565"><ele>150.75</ele><time>2026-03-15T11:28:43.999Z</time></trkpt><trkpt lat="45.54462113955968" lon="10.00157913775119"><ele>151.0</ele><time>2026-03-15T11:28:44.999Z</time></trkpt><trkpt lat="45.54457171769168" lon="10.001764399842365"><ele>151.0</ele><time>2026-03-15T11:28:45.999Z</time></trkpt><trkpt lat="45.54453044167991" lon="10.001942028953557"><ele>151.0</ele><time>2026-03-15T11:28:46.999Z</time></trkpt><trkpt lat="45.544494593099806" lon="10.002096278830434"><ele>151.0</ele><time>2026-03-15T11:28:47.999Z</time></trkpt><trkpt lat="45.54445633230349" lon="10.002246167850396"><ele>151.0</ele><time>2026-03-15T11:28:48.999Z</time></trkpt><trkpt lat="45.54441431730814" lon="10.002414195358334"><ele>151.0</ele><time>2026-03-15T11:28:49.999Z</time></trkpt><trkpt lat="45.544370084271954" lon="10.002571978413357"><ele>151.0</ele><time>2026-03-15T11:28:50.999Z</time></trkpt><trkpt lat="45.54432827239898" lon="10.002742149367284"><ele>151.0</ele><time>2026-03-15T11:28:51.999Z</time></trkpt><trkpt lat="45.54429985231379" lon="10.002864066121784"><ele>151.0</ele><time>2026-03-15T11:28:52.999Z</time></trkpt><trkpt lat="45.544270829975694" lon="10.002987217687139"><ele>151.0</ele><time>2026-03-15T11:28:53.999Z</time></trkpt><trkpt lat="45.54424646112846" lon="10.003096195150224"><ele>151.0</ele><time>2026-03-15T11:28:54.999Z</time></trkpt><trkpt lat="45.5442116683287" lon="10.00324399887309"><ele>151.0</ele><time>2026-03-15T11:28:56.999Z</time></trkpt><trkpt lat="45.544198164792704" lon="10.00338724360776"><ele>151.0</ele><time>2026-03-15T11:28:58.999Z</time></trkpt><trkpt lat="45.54426172987235" lon="10.00343883173463"><ele>151.0</ele><time>2026-03-15T11:29:02.998Z</time></trkpt><trkpt lat="45.544216734111345" lon="10.003358760398928"><ele>151.0</ele><time>2026-03-15T11:29:05.998Z</time></trkpt><trkpt lat="45.54419380944767" lon="10.00325457434862"><ele>151.0</ele><time>2026-03-15T11:29:08.998Z</time></trkpt><trkpt lat="45.544184676239745" lon="10.003146461059693"><ele>151.0</ele><time>2026-03-15T11:29:11.998Z</time></trkpt><trkpt lat="45.54434813362899" lon="10.002897697773996"><ele>151.0</ele><time>2026-03-15T11:29:15.998Z</time></trkpt><trkpt lat="45.5443668864613" lon="10.002705028680825"><ele>151.0</ele><time>2026-03-15T11:29:17.998Z</time></trkpt><trkpt lat="45.54438247056985" lon="10.00260676909287"><ele>151.0</ele><time>2026-03-15T11:29:18.998Z</time></trkpt><trkpt lat="45.54443543773088" lon="10.002465793813602"><ele>151.0</ele><time>2026-03-15T11:29:20.998Z</time></trkpt><trkpt lat="45.54446308600787" lon="10.002340407363238"><ele>151.0</ele><time>2026-03-15T11:29:21.998Z</time></trkpt><trkpt lat="45.544484994331334" lon="10.002241557290235"><ele>151.0</ele><time>2026-03-15T11:29:22.998Z</time></trkpt><trkpt lat="45.544520785693514" lon="10.002091881963542"><ele>151.0</ele><time>2026-03-15T11:29:24.998Z</time></trkpt><trkpt lat="45.544545620604495" lon="10.001983913589573"><ele>151.0</ele><time>2026-03-15T11:29:26.998Z</time></trkpt><trkpt lat="45.54457001931701" lon="10.001895250253037"><ele>151.0</ele><time>2026-03-15T11:29:28.998Z</time></trkpt><trkpt lat="45.5445948642504" lon="10.001776944523519"><ele>151.0</ele><time>2026-03-15T11:29:30.998Z</time></trkpt><trkpt lat="45.54464745265548" lon="10.001604385885585"><ele>151.0</ele><time>2026-03-15T11:29:32.998Z</time></trkpt><trkpt lat="45.54467684316432" lon="10.001475313619471"><ele>151.0</ele><time>2026-03-15T11:29:33.998Z</time></trkpt><trkpt lat="45.54470303246417" lon="10.001345679150138"><ele>151.0</ele><time>2026-03-15T11:29:34.998Z</time></trkpt><trkpt lat="45.5447293949988" lon="10.001224933521305"><ele>151.0</ele><time>2026-03-15T11:29:35.998Z</time></trkpt><trkpt lat="45.544750926105586" lon="10.0011286083939"><ele>151.0</ele><time>2026-03-15T11:29:36.998Z</time></trkpt><trkpt lat="45.544805626773936" lon="10.000973401714697"><ele>151.0</ele><time>2026-03-15T11:29:38.998Z</time></trkpt><trkpt lat="45.5448343077041" lon="10.000852517293483"><ele>151.0</ele><time>2026-03-15T11:29:39.998Z</time></trkpt><trkpt lat="45.54485535965887" lon="10.000734997438725"><ele>151.0</ele><time>2026-03-15T11:29:40.998Z</time></trkpt><trkpt lat="45.54488477309128" lon="10.000628808145873"><ele>151.0</ele><time>2026-03-15T11:29:41.997Z</time></trkpt><trkpt lat="45.54491968850575" lon="10.000514718757984"><ele>150.83333333333334</ele><time>2026-03-15T11:29:42.997Z</time></trkpt><trkpt lat="45.54494529093439" lon="10.000405321857004"><ele>150.66666666666669</ele><time>2026-03-15T11:29:43.997Z</time></trkpt><trkpt lat="45.54496949221963" lon="10.000309011118988"><ele>150.5</ele><time>2026-03-15T11:29:44.997Z</time></trkpt><trkpt lat="45.54501433478115" lon="10.000156448970023"><ele>150.33333333333334</ele><time>2026-03-15T11:29:46.997Z</time></trkpt><trkpt lat="45.544997252919366" lon="10.00006064380698"><ele>150.16666666666666</ele><time>2026-03-15T11:29:48.997Z</time></trkpt><trkpt lat="45.54491813251614" lon="10.000020704395123"><ele>150.0</ele><time>2026-03-15T11:29:50.997Z</time></trkpt><trkpt lat="45.54484415101801" lon="10.000131365092141"><ele>150.0</ele><time>2026-03-15T11:29:52.997Z</time></trkpt><trkpt lat="45.54480915266534" lon="10.000308598919137"><ele>150.0</ele><time>2026-03-15T11:29:54.997Z</time></trkpt><trkpt lat="45.54478286214485" lon="10.000426135378895"><ele>150.0</ele><time>2026-03-15T11:29:55.997Z</time></trkpt><trkpt lat="45.544754211481724" lon="10.00056831105228"><ele>150.0</ele><time>2026-03-15T11:29:56.997Z</time></trkpt><trkpt lat="45.54470365804585" lon="10.000761098911173"><ele>150.0</ele><time>2026-03-15T11:29:57.997Z</time></trkpt><trkpt lat="45.544635191303264" lon="10.000990116434059"><ele>150.0</ele><time>2026-03-15T11:29:58.997Z</time></trkpt><trkpt lat="45.54456878306945" lon="10.001236647893457"><ele>150.0</ele><time>2026-03-15T11:29:59.997Z</time></trkpt><trkpt lat="45.5445162501743" lon="10.00145908744936"><ele>150.0</ele><time>2026-03-15T11:30:00.997Z</time></trkpt><trkpt lat="45.54447251462968" lon="10.001661373908973"><ele>150.0</ele><time>2026-03-15T11:30:01.997Z</time></trkpt><trkpt lat="45.544429944913865" lon="10.00184504975839"><ele>150.0</ele><time>2026-03-15T11:30:02.997Z</time></trkpt><trkpt lat="45.54438355076026" lon="10.002038486460698"><ele>150.0</ele><time>2026-03-15T11:30:03.997Z</time></trkpt><trkpt lat="45.54433100932407" lon="10.002259140051956"><ele>150.33333333333334</ele><time>2026-03-15T11:30:04.997Z</time></trkpt><trkpt lat="45.544275208894426" lon="10.002484027720296"><ele>150.66666666666669</ele><time>2026-03-15T11:30:05.997Z</time></trkpt><trkpt lat="45.54421677590664" lon="10.00269873974585"><ele>151.0</ele><time>2026-03-15T11:30:06.997Z</time></trkpt><trkpt lat="45.54416458276666" lon="10.002893466961751"><ele>151.0</ele><time>2026-03-15T11:30:07.997Z</time></trkpt><trkpt lat="45.5441172747973" lon="10.003071774762201"><ele>151.0</ele><time>2026-03-15T11:30:08.997Z</time></trkpt><trkpt lat="45.54407596383478" lon="10.003236354028678"><ele>151.0</ele><time>2026-03-15T11:30:09.997Z</time></trkpt><trkpt lat="45.5440314643599" lon="10.003397498474955"><ele>151.0</ele><time>2026-03-15T11:30:11Z</time></trkpt><trkpt lat="45.543987517855314" lon="10.003573452475445"><ele>151.25</ele><time>2026-03-15T11:30:12Z</time></trkpt><trkpt lat="45.543943628059395" lon="10.00374934974521"><ele>151.5</ele><time>2026-03-15T11:30:13Z</time></trkpt><trkpt lat="45.543898530267754" lon="10.00393276801381"><ele>151.75</ele><time>2026-03-15T11:30:14Z</time></trkpt><trkpt lat="45.54385859123357" lon="10.004112577290702"><ele>152.0</ele><time>2026-03-15T11:30:15Z</time></trkpt><trkpt lat="45.54382789485626" lon="10.00427803716456"><ele>152.0</ele><time>2026-03-15T11:30:16Z</time></trkpt><trkpt lat="45.54381067908795" lon="10.00444914435725"><ele>152.0</ele><time>2026-03-15T11:30:17Z</time></trkpt><trkpt lat="45.54380153848255" lon="10.004618906057635"><ele>152.0</ele><time>2026-03-15T11:30:18Z</time></trkpt><trkpt lat="45.543793592389264" lon="10.004801719915287"><ele>152.0</ele><time>2026-03-15T11:30:19Z</time></trkpt><trkpt lat="45.54378757784363" lon="10.004984500563408"><ele>151.75</ele><time>2026-03-15T11:30:20Z</time></trkpt><trkpt lat="45.54377695057023" lon="10.005176237412902"><ele>151.5</ele><time>2026-03-15T11:30:21Z</time></trkpt><trkpt lat="45.54376351828658" lon="10.005371047365443"><ele>151.25</ele><time>2026-03-15T11:30:22Z</time></trkpt><trkpt lat="45.543748884075676" lon="10.005575821589028"><ele>151.0</ele><time>2026-03-15T11:30:23Z</time></trkpt><trkpt lat="45.54373320401604" lon="10.005797090284648"><ele>151.0</ele><time>2026-03-15T11:30:24Z</time></trkpt><trkpt lat="45.54371671589595" lon="10.00601686893165"><ele>151.0</ele><time>2026-03-15T11:30:25Z</time></trkpt><trkpt lat="45.54370050816658" lon="10.006239877370541"><ele>151.0</ele><time>2026-03-15T11:30:26Z</time></trkpt><trkpt lat="45.543687761656386" lon="10.006454900728915"><ele>151.0</ele><time>2026-03-15T11:30:27Z</time></trkpt><trkpt lat="45.54367210740316" lon="10.006655184343307"><ele>151.0</ele><time>2026-03-15T11:30:28Z</time></trkpt><trkpt lat="45.543655222106054" lon="10.006835577913105"><ele>151.0</ele><time>2026-03-15T11:30:29Z</time></trkpt><trkpt lat="45.54364426244583" lon="10.007058691091936"><ele>151.0</ele><time>2026-03-15T11:30:30Z</time></trkpt><trkpt lat="45.54363428579622" lon="10.007334654202948"><ele>150.66666666666669</ele><time>2026-03-15T11:30:30.999Z</time></trkpt><trkpt lat="45.54361682293694" lon="10.007594512832345"><ele>150.33333333333334</ele><time>2026-03-15T11:30:31.999Z</time></trkpt><trkpt lat="45.54360200267382" lon="10.007812899014516"><ele>150.0</ele><time>2026-03-15T11:30:32.999Z</time></trkpt><trkpt lat="45.543589120274966" lon="10.008003196755372"><ele>150.0</ele><time>2026-03-15T11:30:33.999Z</time></trkpt><trkpt lat="45.54357758039942" lon="10.008189398009646"><ele>150.0</ele><time>2026-03-15T11:30:34.999Z</time></trkpt><trkpt lat="45.5435700931375" lon="10.008364421474614"><ele>150.0</ele><time>2026-03-15T11:30:35.999Z</time></trkpt><trkpt lat="45.54356676575047" lon="10.008526035396256"><ele>150.0</ele><time>2026-03-15T11:30:36.999Z</time></trkpt><trkpt lat="45.54356789865921" lon="10.008679111737825"><ele>150.2</ele><time>2026-03-15T11:30:37.999Z</time></trkpt><trkpt lat="45.54356287060723" lon="10.008818587611097"><ele>150.4</ele><time>2026-03-15T11:30:38.999Z</time></trkpt><trkpt lat="45.543548943915205" lon="10.008962374893525"><ele>150.6</ele><time>2026-03-15T11:30:39.999Z</time></trkpt><trkpt lat="45.54353863493734" lon="10.00909048610376"><ele>150.8</ele><time>2026-03-15T11:30:40.999Z</time></trkpt><trkpt lat="45.54352043270797" lon="10.00922479828243"><ele>151.0</ele><time>2026-03-15T11:30:41.999Z</time></trkpt><trkpt lat="45.543497611703366" lon="10.00937861584888"><ele>151.0</ele><time>2026-03-15T11:30:42.999Z</time></trkpt><trkpt lat="45.54348795451824" lon="10.009574458247892"><ele>151.0</ele><time>2026-03-15T11:30:43.999Z</time></trkpt><trkpt lat="45.54347494106105" lon="10.009816143160592"><ele>151.0</ele><time>2026-03-15T11:30:44.999Z</time></trkpt><trkpt lat="45.54346061830533" lon="10.010039348399117"><ele>151.0</ele><time>2026-03-15T11:30:45.999Z</time></trkpt><trkpt lat="45.54344721437433" lon="10.010231230295277"><ele>151.0</ele><time>2026-03-15T11:30:46.999Z</time></trkpt><trkpt lat="45.54343642652302" lon="10.010408721302182"><ele>151.0</ele><time>2026-03-15T11:30:47.999Z</time></trkpt><trkpt lat="45.54343059305686" lon="10.010569885397144"><ele>151.0</ele><time>2026-03-15T11:30:48.999Z</time></trkpt><trkpt lat="45.543397009770146" lon="10.01070511469745"><ele>151.0</ele><time>2026-03-15T11:30:49.999Z</time></trkpt><trkpt lat="45.54336513035882" lon="10.010834331303279"><ele>151.0</ele><time>2026-03-15T11:30:50.999Z</time></trkpt><trkpt lat="45.54327576987935" lon="10.010963527734196"><ele>151.0</ele><time>2026-03-15T11:30:51.999Z</time></trkpt><trkpt lat="45.54316823636344" lon="10.011089410144352"><ele>151.0</ele><time>2026-03-15T11:30:52.999Z</time></trkpt><trkpt lat="45.54309836179232" lon="10.011207466535208"><ele>151.0</ele><time>2026-03-15T11:30:53.999Z</time></trkpt><trkpt lat="45.54305238773091" lon="10.011320639961523"><ele>151.0</ele><time>2026-03-15T11:30:54.999Z</time></trkpt><trkpt lat="45.54301150984353" lon="10.011410368347757"><ele>151.0</ele><time>2026-03-15T11:30:55.999Z</time></trkpt><trkpt lat="45.54296962147682" lon="10.011479036364316"><ele>151.0</ele><time>2026-03-15T11:30:58.999Z</time></trkpt><trkpt lat="45.54291763915188" lon="10.011593132143265"><ele>151.0</ele><time>2026-03-15T11:31:00.999Z</time></trkpt><trkpt lat="45.54288727971143" lon="10.011677538742179"><ele>151.0</ele><time>2026-03-15T11:31:01.999Z</time></trkpt><trkpt lat="45.54284399511715" lon="10.011776631112726"><ele>150.66666666666669</ele><time>2026-03-15T11:31:02.999Z</time></trkpt><trkpt lat="45.54279663237302" lon="10.01187198628622"><ele>150.33333333333334</ele><time>2026-03-15T11:31:03.999Z</time></trkpt><trkpt lat="45.54275708504596" lon="10.011954119907791"><ele>150.0</ele><time>2026-03-15T11:31:04.999Z</time></trkpt><trkpt lat="45.54271157170142" lon="10.012017996441621"><ele>149.66666666666666</ele><time>2026-03-15T11:31:05.999Z</time></trkpt><trkpt lat="45.54263076292372" lon="10.011964025237692"><ele>149.33333333333331</ele><time>2026-03-15T11:31:09.999Z</time></trkpt><trkpt lat="45.542550211257584" lon="10.011940215388396"><ele>149.0</ele><time>2026-03-15T11:31:10.999Z</time></trkpt><trkpt lat="45.54244525459528" lon="10.011912435740669"><ele>149.0</ele><time>2026-03-15T11:31:12.999Z</time></trkpt><trkpt lat="45.54238285803162" lon="10.011897002642248"><ele>149.0</ele><time>2026-03-15T11:31:13.998Z</time></trkpt><trkpt lat="45.542301367521596" lon="10.012257301914747"><ele>149.0</ele><time>2026-03-15T11:31:14.998Z</time></trkpt><trkpt lat="45.54227459099682" lon="10.012402292066183"><ele>149.0</ele><time>2026-03-15T11:31:15.998Z</time></trkpt><trkpt lat="45.54222561498512" lon="10.012529116118335"><ele>149.0</ele><time>2026-03-15T11:31:16.998Z</time></trkpt><trkpt lat="45.542157450228515" lon="10.012675850769748"><ele>149.0</ele><time>2026-03-15T11:31:17.998Z</time></trkpt><trkpt lat="45.542053082736416" lon="10.012753720377148"><ele>149.0</ele><time>2026-03-15T11:31:18.998Z</time></trkpt><trkpt lat="45.54195882871799" lon="10.012818465838981"><ele>149.0</ele><time>2026-03-15T11:31:19.998Z</time></trkpt><trkpt lat="45.541844876717846" lon="10.01287940593906"><ele>149.0</ele><time>2026-03-15T11:31:20.998Z</time></trkpt><trkpt lat="45.541726263896685" lon="10.012940760261449"><ele>149.0</ele><time>2026-03-15T11:31:21.998Z</time></trkpt><trkpt lat="45.54159947402458" lon="10.012967748297323"><ele>149.0</ele><time>2026-03-15T11:31:22.998Z</time></trkpt><trkpt lat="45.54147485702149" lon="10.01299616078023"><ele>149.0</ele><time>2026-03-15T11:31:23.998Z</time></trkpt><trkpt lat="45.541344907785955" lon="10.013029217229898"><ele>149.25</ele><time>2026-03-15T11:31:24.998Z</time></trkpt><trkpt lat="45.541210248753515" lon="10.013065087949526"><ele>149.5</ele><time>2026-03-15T11:31:25.998Z</time></trkpt><trkpt lat="45.54107478016713" lon="10.01310598713518"><ele>149.75</ele><time>2026-03-15T11:31:26.998Z</time></trkpt><trkpt lat="45.54093595945172" lon="10.013170364219562"><ele>150.0</ele><time>2026-03-15T11:31:27.998Z</time></trkpt><trkpt lat="45.54081032129498" lon="10.013258366587783"><ele>149.75</ele><time>2026-03-15T11:31:28.998Z</time></trkpt><trkpt lat="45.54068988027732" lon="10.01336316815151"><ele>149.5</ele><time>2026-03-15T11:31:29.998Z</time></trkpt><trkpt lat="45.54058585979065" lon="10.013457724518238"><ele>149.25</ele><time>2026-03-15T11:31:30.998Z</time></trkpt><trkpt lat="45.54048420984869" lon="10.013539216308914"><ele>149.0</ele><time>2026-03-15T11:31:31.998Z</time></trkpt><trkpt lat="45.54038485140689" lon="10.01361951608361"><ele>149.0</ele><time>2026-03-15T11:31:32.998Z</time></trkpt><trkpt lat="45.540282584924924" lon="10.013704759130308"><ele>149.0</ele><time>2026-03-15T11:31:33.998Z</time></trkpt><trkpt lat="45.540180267587594" lon="10.013790497510461"><ele>149.0</ele><time>2026-03-15T11:31:34.998Z</time></trkpt><trkpt lat="45.54007498016841" lon="10.013876511859838"><ele>149.0</ele><time>2026-03-15T11:31:35.998Z</time></trkpt><trkpt lat="45.53996962074139" lon="10.013961357564492"><ele>149.0</ele><time>2026-03-15T11:31:36.998Z</time></trkpt><trkpt lat="45.53987238207395" lon="10.014042446501142"><ele>149.0</ele><time>2026-03-15T11:31:37.998Z</time></trkpt><trkpt lat="45.53978770102794" lon="10.014114477873335"><ele>149.0</ele><time>2026-03-15T11:31:38.998Z</time></trkpt><trkpt lat="45.53970916970095" lon="10.01417993691732"><ele>149.0</ele><time>2026-03-15T11:31:39.998Z</time></trkpt><trkpt lat="45.53964344486561" lon="10.014236549944847"><ele>149.0</ele><time>2026-03-15T11:31:40.998Z</time></trkpt><trkpt lat="45.53958959425265" lon="10.014285136927066"><ele>149.0</ele><time>2026-03-15T11:31:41.998Z</time></trkpt><trkpt lat="45.539522187734" lon="10.01433632339538"><ele>148.66666666666666</ele><time>2026-03-15T11:31:43.998Z</time></trkpt><trkpt lat="45.53956985908036" lon="10.014618668147907"><ele>148.33333333333334</ele><time>2026-03-15T11:31:44.998Z</time></trkpt><trkpt lat="45.53956089045195" lon="10.014842635628332"><ele>148.0</ele><time>2026-03-15T11:31:45.998Z</time></trkpt><trkpt lat="45.53954848246026" lon="10.01507180856696"><ele>147.75</ele><time>2026-03-15T11:31:46.998Z</time></trkpt><trkpt lat="45.5395509309423" lon="10.015268057674923"><ele>147.5</ele><time>2026-03-15T11:31:47.998Z</time></trkpt><trkpt lat="45.53957576621214" lon="10.015432111633416"><ele>147.25</ele><time>2026-03-15T11:31:48.998Z</time></trkpt><trkpt lat="45.53960696716242" lon="10.015581577535695"><ele>147.0</ele><time>2026-03-15T11:31:49.998Z</time></trkpt><trkpt lat="45.5396236330279" lon="10.015751368692893"><ele>147.16666666666666</ele><time>2026-03-15T11:31:50.998Z</time></trkpt><trkpt lat="45.53961605589895" lon="10.015907795913295"><ele>147.33333333333334</ele><time>2026-03-15T11:31:51.998Z</time></trkpt><trkpt lat="45.53960261590738" lon="10.016047324369088"><ele>147.5</ele><time>2026-03-15T11:31:52.998Z</time></trkpt><trkpt lat="45.539595165733665" lon="10.016176283244935"><ele>147.66666666666669</ele><time>2026-03-15T11:31:53.998Z</time></trkpt><trkpt lat="45.5396099261665" lon="10.016280776335197"><ele>147.83333333333334</ele><time>2026-03-15T11:31:54.998Z</time></trkpt><trkpt lat="45.53965511102245" lon="10.01636407364856"><ele>148.0</ele><time>2026-03-15T11:31:55.998Z</time></trkpt><trkpt lat="45.53971758794657" lon="10.016391296937812"><ele>148.0</ele><time>2026-03-15T11:31:56.997Z</time></trkpt><trkpt lat="45.539790644582254" lon="10.016409659550453"><ele>148.0</ele><time>2026-03-15T11:31:57.997Z</time></trkpt><trkpt lat="45.53988002112795" lon="10.016398483300472"><ele>148.0</ele><time>2026-03-15T11:31:58.997Z</time></trkpt><trkpt lat="45.539964834366955" lon="10.016402452078664"><ele>148.0</ele><time>2026-03-15T11:31:59.997Z</time></trkpt><trkpt lat="45.540030730283455" lon="10.01640599512112"><ele>148.0</ele><time>2026-03-15T11:32:00.997Z</time></trkpt><trkpt lat="45.5400728702248" lon="10.016477255616975"><ele>148.0</ele><time>2026-03-15T11:32:01.997Z</time></trkpt><trkpt lat="45.54008044975866" lon="10.01669807728359"><ele>147.66666666666669</ele><time>2026-03-15T11:32:03.997Z</time></trkpt><trkpt lat="45.5400782187554" lon="10.016899152998445"><ele>147.33333333333334</ele><time>2026-03-15T11:32:04.997Z</time></trkpt><trkpt lat="45.54007536407304" lon="10.017120798260303"><ele>147.0</ele><time>2026-03-15T11:32:05.997Z</time></trkpt><trkpt lat="45.54007063719736" lon="10.017351754874142"><ele>147.0</ele><time>2026-03-15T11:32:06.997Z</time></trkpt><trkpt lat="45.540066236943964" lon="10.017562058517088"><ele>147.0</ele><time>2026-03-15T11:32:07.997Z</time></trkpt><trkpt lat="45.540060388565436" lon="10.017741056849994"><ele>147.0</ele><time>2026-03-15T11:32:08.997Z</time></trkpt><trkpt lat="45.54005455267325" lon="10.017909744258484"><ele>147.0</ele><time>2026-03-15T11:32:09.997Z</time></trkpt><trkpt lat="45.54005182559785" lon="10.018067509558037"><ele>147.0</ele><time>2026-03-15T11:32:10.997Z</time></trkpt><trkpt lat="45.54004816783377" lon="10.01821513377439"><ele>147.0</ele><time>2026-03-15T11:32:11.997Z</time></trkpt><trkpt lat="45.540041202075706" lon="10.018362216024608"><ele>147.0</ele><time>2026-03-15T11:32:12.997Z</time></trkpt><trkpt lat="45.540034172564155" lon="10.018522809285331"><ele>147.0</ele><time>2026-03-15T11:32:13.997Z</time></trkpt><trkpt lat="45.54003039689465" lon="10.018686966429934"><ele>147.0</ele><time>2026-03-15T11:32:14.997Z</time></trkpt><trkpt lat="45.5400258251419" lon="10.018851556310112"><ele>147.0</ele><time>2026-03-15T11:32:15.997Z</time></trkpt><trkpt lat="45.54002030632318" lon="10.01900290038809"><ele>147.0</ele><time>2026-03-15T11:32:17Z</time></trkpt><trkpt lat="45.540011485847906" lon="10.019140522814565"><ele>147.0</ele><time>2026-03-15T11:32:18Z</time></trkpt><trkpt lat="45.54000289762292" lon="10.019261023733417"><ele>147.0</ele><time>2026-03-15T11:32:19Z</time></trkpt><trkpt lat="45.5400020472978" lon="10.019357137620066"><ele>147.0</ele><time>2026-03-15T11:32:20Z</time></trkpt><trkpt lat="45.54001219993636" lon="10.01947553549051"><ele>147.0</ele><time>2026-03-15T11:32:22Z</time></trkpt><trkpt lat="45.54022402908636" lon="10.019480350969431"><ele>147.0</ele><time>2026-03-15T11:32:26Z</time></trkpt><trkpt lat="45.54036385258319" lon="10.01945891238536"><ele>147.0</ele><time>2026-03-15T11:32:27Z</time></trkpt><trkpt lat="45.54052162971964" lon="10.01941944572959"><ele>147.0</ele><time>2026-03-15T11:32:28Z</time></trkpt><trkpt lat="45.54069123497905" lon="10.019376647728867"><ele>147.0</ele><time>2026-03-15T11:32:29Z</time></trkpt><trkpt lat="45.540851738820784" lon="10.019326958510995"><ele>147.0</ele><time>2026-03-15T11:32:30Z</time></trkpt><trkpt lat="45.54099486248519" lon="10.019333713378224"><ele>147.0</ele><time>2026-03-15T11:32:31Z</time></trkpt><trkpt lat="45.54112335648669" lon="10.019351009764726"><ele>147.0</ele><time>2026-03-15T11:32:32Z</time></trkpt><trkpt lat="45.54124067987582" lon="10.019371001520515"><ele>147.2</ele><time>2026-03-15T11:32:33Z</time></trkpt><trkpt lat="45.54135105745166" lon="10.019397339346996"><ele>147.39999999999998</ele><time>2026-03-15T11:32:34Z</time></trkpt><trkpt lat="45.54144755120099" lon="10.019435107043359"><ele>147.60000000000002</ele><time>2026-03-15T11:32:35Z</time></trkpt><trkpt lat="45.54154491232697" lon="10.019465502354734"><ele>147.8</ele><time>2026-03-15T11:32:36Z</time></trkpt><trkpt lat="45.54162662980629" lon="10.019488124107033"><ele>148.0</ele><time>2026-03-15T11:32:37Z</time></trkpt><trkpt lat="45.541690423388665" lon="10.019527658049451"><ele>148.0</ele><time>2026-03-15T11:32:38Z</time></trkpt><trkpt lat="45.54175257588244" lon="10.019598101641485"><ele>148.0</ele><time>2026-03-15T11:32:40Z</time></trkpt><trkpt lat="45.54168244472068" lon="10.01977064070674"><ele>148.0</ele><time>2026-03-15T11:32:41Z</time></trkpt><trkpt lat="45.541619692601195" lon="10.019900129920673"><ele>148.0</ele><time>2026-03-15T11:32:42Z</time></trkpt><trkpt lat="45.54160801510488" lon="10.0200602657364"><ele>148.0</ele><time>2026-03-15T11:32:43Z</time></trkpt><trkpt lat="45.54158970566382" lon="10.020216405516509"><ele>148.0</ele><time>2026-03-15T11:32:44Z</time></trkpt><trkpt lat="45.541556471492896" lon="10.02038278092555"><ele>148.0</ele><time>2026-03-15T11:32:45Z</time></trkpt><trkpt lat="45.54153753541225" lon="10.020574102758639"><ele>148.0</ele><time>2026-03-15T11:32:46Z</time></trkpt><trkpt lat="45.54152895103398" lon="10.020782173385049"><ele>148.0</ele><time>2026-03-15T11:32:47Z</time></trkpt><trkpt lat="45.54152598010269" lon="10.021066326909708"><ele>148.0</ele><time>2026-03-15T11:32:48Z</time></trkpt><trkpt lat="45.54152481630903" lon="10.021386471591624"><ele>148.0</ele><time>2026-03-15T11:32:49Z</time></trkpt><trkpt lat="45.54150902194219" lon="10.021619122736656"><ele>148.0</ele><time>2026-03-15T11:32:50Z</time></trkpt><trkpt lat="45.54149369011697" lon="10.021832405897976"><ele>148.0</ele><time>2026-03-15T11:32:51Z</time></trkpt><trkpt lat="45.54148588586396" lon="10.022025798478182"><ele>148.0</ele><time>2026-03-15T11:32:52Z</time></trkpt><trkpt lat="45.541483750977555" lon="10.022188449976655"><ele>148.0</ele><time>2026-03-15T11:32:53Z</time></trkpt><trkpt lat="45.54147693159053" lon="10.0223145058232"><ele>148.0</ele><time>2026-03-15T11:32:54Z</time></trkpt><trkpt lat="45.54146149739231" lon="10.022408656428402"><ele>148.0</ele><time>2026-03-15T11:32:54.999Z</time></trkpt><trkpt lat="45.54137689803729" lon="10.02247476530931"><ele>148.0</ele><time>2026-03-15T11:32:56.999Z</time></trkpt><trkpt lat="45.54130230310355" lon="10.022435013035356"><ele>148.0</ele><time>2026-03-15T11:32:57.999Z</time></trkpt><trkpt lat="45.5412057821271" lon="10.022450674572466"><ele>148.0</ele><time>2026-03-15T11:32:58.999Z</time></trkpt><trkpt lat="45.541101226021766" lon="10.022443277858526"><ele>148.0</ele><time>2026-03-15T11:32:59.999Z</time></trkpt><trkpt lat="45.54101529747769" lon="10.022442467146409"><ele>148.0</ele><time>2026-03-15T11:33:00.999Z</time></trkpt><trkpt lat="45.54094505104708" lon="10.02245153200949"><ele>148.0</ele><time>2026-03-15T11:33:01.999Z</time></trkpt><trkpt lat="45.54087862109749" lon="10.022564765218455"><ele>147.6</ele><time>2026-03-15T11:33:03.999Z</time></trkpt><trkpt lat="45.54085492500172" lon="10.02266540005117"><ele>147.20000000000002</ele><time>2026-03-15T11:33:04.999Z</time></trkpt><trkpt lat="45.540820642116955" lon="10.022772776162677"><ele>146.8</ele><time>2026-03-15T11:33:05.999Z</time></trkpt><trkpt lat="45.54078078555753" lon="10.022900739688001"><ele>146.4</ele><time>2026-03-15T11:33:06.999Z</time></trkpt><trkpt lat="45.540759459381434" lon="10.023046737574631"><ele>146.0</ele><time>2026-03-15T11:33:07.999Z</time></trkpt><trkpt lat="45.54075685975451" lon="10.023193724112458"><ele>146.0</ele><time>2026-03-15T11:33:08.999Z</time></trkpt><trkpt lat="45.54073310764556" lon="10.023298867380833"><ele>146.0</ele><time>2026-03-15T11:33:09.999Z</time></trkpt><trkpt lat="45.54078293692419" lon="10.023494972865286"><ele>146.0</ele><time>2026-03-15T11:33:11.999Z</time></trkpt><trkpt lat="45.5407799293092" lon="10.023595452310749"><ele>146.0</ele><time>2026-03-15T11:33:13.999Z</time></trkpt><trkpt lat="45.54086997950118" lon="10.023598346698304"><ele>146.0</ele><time>2026-03-15T11:33:15.999Z</time></trkpt><trkpt lat="45.54094553006526" lon="10.023610590462088"><ele>146.2</ele><time>2026-03-15T11:33:16.999Z</time></trkpt><trkpt lat="45.5410332526153" lon="10.02362924760934"><ele>146.39999999999998</ele><time>2026-03-15T11:33:17.999Z</time></trkpt><trkpt lat="45.54113018234481" lon="10.023642888167709"><ele>146.6</ele><time>2026-03-15T11:33:18.999Z</time></trkpt><trkpt lat="45.54122901065698" lon="10.023638615184787"><ele>146.79999999999998</ele><time>2026-03-15T11:33:19.999Z</time></trkpt><trkpt lat="45.541319386412916" lon="10.023654734185724"><ele>147.0</ele><time>2026-03-15T11:33:20.999Z</time></trkpt><trkpt lat="45.5414457258819" lon="10.023675697795168"><ele>147.33333333333334</ele><time>2026-03-15T11:33:21.999Z</time></trkpt><trkpt lat="45.54160714197091" lon="10.023698850632286"><ele>147.66666666666669</ele><time>2026-03-15T11:33:22.999Z</time></trkpt><trkpt lat="45.541779158169156" lon="10.023720138951713"><ele>148.0</ele><time>2026-03-15T11:33:23.999Z</time></trkpt><trkpt lat="45.54196251803668" lon="10.02374374271934"><ele>147.66666666666669</ele><time>2026-03-15T11:33:24.999Z</time></trkpt><trkpt lat="45.54212568370346" lon="10.023767139498846"><ele>147.33333333333334</ele><time>2026-03-15T11:33:25.999Z</time></trkpt><trkpt lat="45.542292823991126" lon="10.023798709952512"><ele>147.0</ele><time>2026-03-15T11:33:26.999Z</time></trkpt><trkpt lat="45.54243263582672" lon="10.023835238391763"><ele>147.0</ele><time>2026-03-15T11:33:27.999Z</time></trkpt><trkpt lat="45.5425651987648" lon="10.023849069692893"><ele>147.0</ele><time>2026-03-15T11:33:28.999Z</time></trkpt><trkpt lat="45.54269036539243" lon="10.023865599257599"><ele>147.0</ele><time>2026-03-15T11:33:29.999Z</time></trkpt><trkpt lat="45.54280075629031" lon="10.023881357479997"><ele>147.0</ele><time>2026-03-15T11:33:30.999Z</time></trkpt><trkpt lat="45.542950146422584" lon="10.023901376720914"><ele>147.0</ele><time>2026-03-15T11:33:31.999Z</time></trkpt><trkpt lat="45.54312580178289" lon="10.02390360689146"><ele>147.0</ele><time>2026-03-15T11:33:32.999Z</time></trkpt><trkpt lat="45.54330142201943" lon="10.023929260725907"><ele>147.0</ele><time>2026-03-15T11:33:33.999Z</time></trkpt><trkpt lat="45.543441951561896" lon="10.023951441828315"><ele>147.0</ele><time>2026-03-15T11:33:34.999Z</time></trkpt><trkpt lat="45.54358545988112" lon="10.0239767799638"><ele>147.0</ele><time>2026-03-15T11:33:35.999Z</time></trkpt><trkpt lat="45.543721133598076" lon="10.024027358081456"><ele>147.0</ele><time>2026-03-15T11:33:36.999Z</time></trkpt><trkpt lat="45.543844641173756" lon="10.024044344005825"><ele>147.0</ele><time>2026-03-15T11:33:37.999Z</time></trkpt><trkpt lat="45.54394793040529" lon="10.024062312031727"><ele>147.4</ele><time>2026-03-15T11:33:38.998Z</time></trkpt><trkpt lat="45.54402957196012" lon="10.024075900949848"><ele>147.79999999999998</ele><time>2026-03-15T11:33:39.998Z</time></trkpt><trkpt lat="45.54411112567708" lon="10.0240850689445"><ele>148.2</ele><time>2026-03-15T11:33:40.998Z</time></trkpt><trkpt lat="45.544199551454284" lon="10.024069761543625"><ele>148.6</ele><time>2026-03-15T11:33:42.998Z</time></trkpt><trkpt lat="45.54420968562628" lon="10.024272025543278"><ele>149.0</ele><time>2026-03-15T11:33:46.998Z</time></trkpt><trkpt lat="45.544189121828985" lon="10.024443875007087"><ele>149.2</ele><time>2026-03-15T11:33:48.998Z</time></trkpt><trkpt lat="45.54417235697209" lon="10.024544439799387"><ele>149.4</ele><time>2026-03-15T11:33:50.998Z</time></trkpt><trkpt lat="45.54430085944719" lon="10.024510914215378"><ele>149.6</ele><time>2026-03-15T11:33:55.998Z</time></trkpt><trkpt lat="45.544369509107064" lon="10.024527267077028"><ele>149.8</ele><time>2026-03-15T11:33:56.998Z</time></trkpt><trkpt lat="45.544445470399346" lon="10.024545361662302"><ele>150.0</ele><time>2026-03-15T11:33:57.998Z</time></trkpt><trkpt lat="45.5445514426727" lon="10.024570605020008"><ele>150.0</ele><time>2026-03-15T11:33:58.998Z</time></trkpt><trkpt lat="45.54468229333629" lon="10.024601774660608"><ele>150.0</ele><time>2026-03-15T11:33:59.998Z</time></trkpt><trkpt lat="45.54482294388582" lon="10.024635278650724"><ele>150.0</ele><time>2026-03-15T11:34:00.998Z</time></trkpt><trkpt lat="45.544964134731124" lon="10.024669130117454"><ele>150.0</ele><time>2026-03-15T11:34:01.998Z</time></trkpt><trkpt lat="45.54513226602015" lon="10.024709451832448"><ele>150.0</ele><time>2026-03-15T11:34:02.998Z</time></trkpt><trkpt lat="45.545331421418446" lon="10.024766359496988"><ele>150.0</ele><time>2026-03-15T11:34:03.998Z</time></trkpt><trkpt lat="45.54547178169113" lon="10.024802263988608"><ele>150.0</ele><time>2026-03-15T11:34:04.998Z</time></trkpt><trkpt lat="45.545613218569095" lon="10.024824710814377"><ele>150.0</ele><time>2026-03-15T11:34:05.998Z</time></trkpt><trkpt lat="45.5458370753937" lon="10.024873963191347"><ele>150.0</ele><time>2026-03-15T11:34:06.998Z</time></trkpt><trkpt lat="45.546091148086646" lon="10.024937424604111"><ele>151.0</ele><time>2026-03-15T11:34:07.998Z</time></trkpt><trkpt lat="45.546326315781634" lon="10.024994703466348"><ele>152.0</ele><time>2026-03-15T11:34:08.998Z</time></trkpt><trkpt lat="45.5465084820575" lon="10.025040097530784"><ele>153.0</ele><time>2026-03-15T11:34:09.998Z</time></trkpt><trkpt lat="45.54667054719313" lon="10.025069240996325"><ele>153.0</ele><time>2026-03-15T11:34:10.998Z</time></trkpt><trkpt lat="45.546821307483235" lon="10.025104583112302"><ele>153.0</ele><time>2026-03-15T11:34:11.998Z</time></trkpt><trkpt lat="45.54696108545274" lon="10.02513121216306"><ele>153.0</ele><time>2026-03-15T11:34:12.998Z</time></trkpt><trkpt lat="45.54708152554141" lon="10.025155239369203"><ele>153.0</ele><time>2026-03-15T11:34:13.998Z</time></trkpt><trkpt lat="45.547184631732335" lon="10.0251797586922"><ele>153.16666666666666</ele><time>2026-03-15T11:34:14.998Z</time></trkpt><trkpt lat="45.547268034871976" lon="10.025204752747811"><ele>153.33333333333334</ele><time>2026-03-15T11:34:15.998Z</time></trkpt><trkpt lat="45.547347444046004" lon="10.025209390126317"><ele>153.5</ele><time>2026-03-15T11:34:16.998Z</time></trkpt><trkpt lat="45.54741726551274" lon="10.02521377644687"><ele>153.66666666666669</ele><time>2026-03-15T11:34:17.998Z</time></trkpt><trkpt lat="45.54749389982074" lon="10.025228913363037"><ele>153.83333333333334</ele><time>2026-03-15T11:34:18.998Z</time></trkpt><trkpt lat="45.547612655232946" lon="10.025242148953179"><ele>154.0</ele><time>2026-03-15T11:34:19.998Z</time></trkpt><trkpt lat="45.54770057014064" lon="10.02526341477567"><ele>154.0</ele><time>2026-03-15T11:34:20.997Z</time></trkpt><trkpt lat="45.547768885798945" lon="10.025276442298455"><ele>154.0</ele><time>2026-03-15T11:34:21.997Z</time></trkpt><trkpt lat="45.547826528068796" lon="10.025316848201161"><ele>154.0</ele><time>2026-03-15T11:34:25Z</time></trkpt><trkpt lat="45.54779949911074" lon="10.02552970964419"><ele>154.0</ele><time>2026-03-15T11:34:28Z</time></trkpt><trkpt lat="45.54775389387855" lon="10.025680798428224"><ele>154.0</ele><time>2026-03-15T11:34:29Z</time></trkpt><trkpt lat="45.547718902906134" lon="10.025854524709926"><ele>154.25</ele><time>2026-03-15T11:34:30Z</time></trkpt><trkpt lat="45.54768183431981" lon="10.026036176435719"><ele>154.5</ele><time>2026-03-15T11:34:31Z</time></trkpt><trkpt lat="45.547638351205485" lon="10.026267622758407"><ele>154.75</ele><time>2026-03-15T11:34:32Z</time></trkpt><trkpt lat="45.54759370605673" lon="10.026449750764554"><ele>155.0</ele><time>2026-03-15T11:34:33Z</time></trkpt><trkpt lat="45.54756624187547" lon="10.026623121855643"><ele>154.75</ele><time>2026-03-15T11:34:34Z</time></trkpt><trkpt lat="45.54754305949213" lon="10.026818283701715"><ele>154.5</ele><time>2026-03-15T11:34:35Z</time></trkpt><trkpt lat="45.54752672154282" lon="10.02702319418874"><ele>154.25</ele><time>2026-03-15T11:34:36Z</time></trkpt><trkpt lat="45.54751909821819" lon="10.027236166028564"><ele>154.0</ele><time>2026-03-15T11:34:37Z</time></trkpt><trkpt lat="45.547509317886686" lon="10.027441838303682"><ele>153.75</ele><time>2026-03-15T11:34:38Z</time></trkpt><trkpt lat="45.54750986408903" lon="10.02763270517014"><ele>153.5</ele><time>2026-03-15T11:34:39Z</time></trkpt><trkpt lat="45.54751016758208" lon="10.027813048435512"><ele>153.25</ele><time>2026-03-15T11:34:40Z</time></trkpt><trkpt lat="45.547504257285546" lon="10.027991363476891"><ele>153.0</ele><time>2026-03-15T11:34:41Z</time></trkpt><trkpt lat="45.54750067180108" lon="10.028169377119918"><ele>153.25</ele><time>2026-03-15T11:34:42Z</time></trkpt><trkpt lat="45.54748647436499" lon="10.028347143199719"><ele>153.5</ele><time>2026-03-15T11:34:43Z</time></trkpt><trkpt lat="45.54744817358756" lon="10.028510337743052"><ele>153.75</ele><time>2026-03-15T11:34:44Z</time></trkpt><trkpt lat="45.54743065191094" lon="10.028696195776103"><ele>154.0</ele><time>2026-03-15T11:34:45Z</time></trkpt><trkpt lat="45.547393406711336" lon="10.028879196648914"><ele>154.0</ele><time>2026-03-15T11:34:46Z</time></trkpt><trkpt lat="45.54735424866443" lon="10.029062859458376"><ele>154.0</ele><time>2026-03-15T11:34:47Z</time></trkpt><trkpt lat="45.54731854431223" lon="10.029248142988404"><ele>154.0</ele><time>2026-03-15T11:34:48Z</time></trkpt><trkpt lat="45.54725416548864" lon="10.029430966696886"><ele>154.0</ele><time>2026-03-15T11:34:49Z</time></trkpt><trkpt lat="45.54720822949819" lon="10.029654907207423"><ele>153.75</ele><time>2026-03-15T11:34:50Z</time></trkpt><trkpt lat="45.54716834895443" lon="10.029859994138295"><ele>153.5</ele><time>2026-03-15T11:34:51Z</time></trkpt><trkpt lat="45.547120271742735" lon="10.030061377529632"><ele>153.25</ele><time>2026-03-15T11:34:52Z</time></trkpt><trkpt lat="45.547089873439624" lon="10.030271218797896"><ele>153.0</ele><time>2026-03-15T11:34:53Z</time></trkpt><trkpt lat="45.54705660108581" lon="10.030484880727327"><ele>153.0</ele><time>2026-03-15T11:34:54Z</time></trkpt><trkpt lat="45.54703544693755" lon="10.030684214957226"><ele>153.0</ele><time>2026-03-15T11:34:55Z</time></trkpt><trkpt lat="45.54702166999123" lon="10.03086403824064"><ele>153.0</ele><time>2026-03-15T11:34:56Z</time></trkpt><trkpt lat="45.54699054384544" lon="10.031024360311887"><ele>153.0</ele><time>2026-03-15T11:34:57Z</time></trkpt><trkpt lat="45.54698641999981" lon="10.031167170861874"><ele>153.0</ele><time>2026-03-15T11:34:58Z</time></trkpt><trkpt lat="45.54695577095221" lon="10.031288609177377"><ele>153.0</ele><time>2026-03-15T11:34:59Z</time></trkpt><trkpt lat="45.54688042485372" lon="10.031382095971953"><ele>153.0</ele><time>2026-03-15T11:35:00Z</time></trkpt><trkpt lat="45.54678950418719" lon="10.031517476340522"><ele>153.0</ele><time>2026-03-15T11:35:01Z</time></trkpt><trkpt lat="45.54669568851118" lon="10.031621040682133"><ele>153.0</ele><time>2026-03-15T11:35:02Z</time></trkpt><trkpt lat="45.546610256499584" lon="10.031711990591088"><ele>153.0</ele><time>2026-03-15T11:35:03Z</time></trkpt><trkpt lat="45.54653417346869" lon="10.031812571920886"><ele>153.0</ele><time>2026-03-15T11:35:04Z</time></trkpt><trkpt lat="45.546457506247116" lon="10.031909198123248"><ele>153.0</ele><time>2026-03-15T11:35:05Z</time></trkpt><trkpt lat="45.54637703897731" lon="10.03200113920065"><ele>153.0</ele><time>2026-03-15T11:35:06Z</time></trkpt><trkpt lat="45.546314616211006" lon="10.032118784512978"><ele>153.0</ele><time>2026-03-15T11:35:07Z</time></trkpt><trkpt lat="45.546252301493865" lon="10.032224954442823"><ele>153.20000000000002</ele><time>2026-03-15T11:35:08Z</time></trkpt><trkpt lat="45.54618996114142" lon="10.032328712795863"><ele>153.4</ele><time>2026-03-15T11:35:09Z</time></trkpt><trkpt lat="45.546118188967505" lon="10.032441292373662"><ele>153.60000000000002</ele><time>2026-03-15T11:35:10Z</time></trkpt><trkpt lat="45.546057710644696" lon="10.032561116903482"><ele>153.8</ele><time>2026-03-15T11:35:11Z</time></trkpt><trkpt lat="45.54601156778983" lon="10.032680988760921"><ele>154.0</ele><time>2026-03-15T11:35:12Z</time></trkpt><trkpt lat="45.54596881778077" lon="10.03278201794774"><ele>154.0</ele><time>2026-03-15T11:35:13Z</time></trkpt><trkpt lat="45.545883396915805" lon="10.032846064573183"><ele>154.0</ele><time>2026-03-15T11:35:14.999Z</time></trkpt><trkpt lat="45.54582269544942" lon="10.03276910548208"><ele>154.0</ele><time>2026-03-15T11:35:15.999Z</time></trkpt><trkpt lat="45.54575023573679" lon="10.032757111548948"><ele>154.0</ele><time>2026-03-15T11:35:16.999Z</time></trkpt><trkpt lat="45.545666897431374" lon="10.032769669327465"><ele>154.0</ele><time>2026-03-15T11:35:17.999Z</time></trkpt><trkpt lat="45.54558668255851" lon="10.032763532122605"><ele>154.0</ele><time>2026-03-15T11:35:18.999Z</time></trkpt><trkpt lat="45.54552378142848" lon="10.032801115533257"><ele>154.0</ele><time>2026-03-15T11:35:19.999Z</time></trkpt><trkpt lat="45.54548743989975" lon="10.032892281399002"><ele>154.0</ele><time>2026-03-15T11:35:20.999Z</time></trkpt><trkpt lat="45.54546848212589" lon="10.033022849704052"><ele>154.0</ele><time>2026-03-15T11:35:21.999Z</time></trkpt><trkpt lat="45.54546335385631" lon="10.033214771290645"><ele>154.0</ele><time>2026-03-15T11:35:22.999Z</time></trkpt><trkpt lat="45.54543606290907" lon="10.033383517076606"><ele>154.0</ele><time>2026-03-15T11:35:23.998Z</time></trkpt><trkpt lat="45.54537221515943" lon="10.03347704360478"><ele>153.75</ele><time>2026-03-15T11:35:24.998Z</time></trkpt><trkpt lat="45.54525750772691" lon="10.033559527810285"><ele>153.5</ele><time>2026-03-15T11:35:25.998Z</time></trkpt><trkpt lat="45.545153041225284" lon="10.033698654007189"><ele>153.25</ele><time>2026-03-15T11:35:26.998Z</time></trkpt><trkpt lat="45.5450567162037" lon="10.033798111372938"><ele>153.0</ele><time>2026-03-15T11:35:27.998Z</time></trkpt><trkpt lat="45.54495403649668" lon="10.033891123507612"><ele>153.0</ele><time>2026-03-15T11:35:28.998Z</time></trkpt><trkpt lat="45.544871547350574" lon="10.034053977614345"><ele>153.0</ele><time>2026-03-15T11:35:29.998Z</time></trkpt><trkpt lat="45.54478416785008" lon="10.034240216719295"><ele>153.0</ele><time>2026-03-15T11:35:30.998Z</time></trkpt><trkpt lat="45.544677326858235" lon="10.034430663030658"><ele>152.66666666666666</ele><time>2026-03-15T11:35:31.998Z</time></trkpt><trkpt lat="45.54457773967686" lon="10.034628123991673"><ele>152.33333333333331</ele><time>2026-03-15T11:35:32.998Z</time></trkpt><trkpt lat="45.54447497073296" lon="10.03481599208163"><ele>152.0</ele><time>2026-03-15T11:35:33.998Z</time></trkpt><trkpt lat="45.54436869719892" lon="10.034952219266062"><ele>151.0</ele><time>2026-03-15T11:35:34.998Z</time></trkpt><trkpt lat="45.544262941619955" lon="10.035058152442648"><ele>150.0</ele><time>2026-03-15T11:35:35.998Z</time></trkpt><trkpt lat="45.54414957925825" lon="10.035157211615951"><ele>149.0</ele><time>2026-03-15T11:35:36.998Z</time></trkpt><trkpt lat="45.544031650833155" lon="10.035241607871074"><ele>148.0</ele><time>2026-03-15T11:35:37.998Z</time></trkpt><trkpt lat="45.54391663178729" lon="10.035316964636676"><ele>148.0</ele><time>2026-03-15T11:35:38.998Z</time></trkpt><trkpt lat="45.54382294131603" lon="10.035364892191568"><ele>148.0</ele><time>2026-03-15T11:35:39.998Z</time></trkpt><trkpt lat="45.54374756212399" lon="10.035414426273718"><ele>148.0</ele><time>2026-03-15T11:35:40.998Z</time></trkpt><trkpt lat="45.54365158694228" lon="10.035354288158551"><ele>148.0</ele><time>2026-03-15T11:35:41.998Z</time></trkpt><trkpt lat="45.54351745024428" lon="10.035318740570228"><ele>148.0</ele><time>2026-03-15T11:35:42.998Z</time></trkpt><trkpt lat="45.543350056989944" lon="10.03528318001169"><ele>148.25</ele><time>2026-03-15T11:35:43.998Z</time></trkpt><trkpt lat="45.54319910989116" lon="10.035252273973702"><ele>148.5</ele><time>2026-03-15T11:35:44.998Z</time></trkpt><trkpt lat="45.54308070525806" lon="10.035228940732262"><ele>148.75</ele><time>2026-03-15T11:35:45.998Z</time></trkpt><trkpt lat="45.54297826923086" lon="10.035234806492783"><ele>149.0</ele><time>2026-03-15T11:35:46.998Z</time></trkpt><trkpt lat="45.54289614243445" lon="10.035189268491909"><ele>149.0</ele><time>2026-03-15T11:35:47.998Z</time></trkpt><trkpt lat="45.542827968404254" lon="10.035166944370882"><ele>149.0</ele><time>2026-03-15T11:35:48.998Z</time></trkpt><trkpt lat="45.54274705117994" lon="10.035141799831685"><ele>149.0</ele><time>2026-03-15T11:35:49.998Z</time></trkpt><trkpt lat="45.54264224343442" lon="10.035110602741229"><ele>149.0</ele><time>2026-03-15T11:35:50.998Z</time></trkpt><trkpt lat="45.54252843679895" lon="10.03507765586184"><ele>149.0</ele><time>2026-03-15T11:35:51.998Z</time></trkpt><trkpt lat="45.542459236305234" lon="10.035057721475729"><ele>149.0</ele><time>2026-03-15T11:35:52.998Z</time></trkpt><trkpt lat="45.542279415780015" lon="10.035010721982253"><ele>148.66666666666666</ele><time>2026-03-15T11:35:53.998Z</time></trkpt><trkpt lat="45.542077210648344" lon="10.034960673133009"><ele>148.33333333333334</ele><time>2026-03-15T11:35:54.998Z</time></trkpt><trkpt lat="45.54190196567692" lon="10.034924949742239"><ele>148.0</ele><time>2026-03-15T11:35:55.998Z</time></trkpt><trkpt lat="45.541742504090344" lon="10.034901728465938"><ele>147.5</ele><time>2026-03-15T11:35:56.998Z</time></trkpt><trkpt lat="45.54159769905773" lon="10.034880525328331"><ele>147.0</ele><time>2026-03-15T11:35:57.997Z</time></trkpt><trkpt lat="45.541454367667974" lon="10.034853330520649"><ele>146.5</ele><time>2026-03-15T11:35:58.997Z</time></trkpt><trkpt lat="45.541305854472206" lon="10.03481960358852"><ele>146.0</ele><time>2026-03-15T11:35:59.997Z</time></trkpt><trkpt lat="45.54116961149813" lon="10.034791917771019"><ele>146.0</ele><time>2026-03-15T11:36:00.997Z</time></trkpt><trkpt lat="45.541033196835" lon="10.034770947294229"><ele>146.0</ele><time>2026-03-15T11:36:01.997Z</time></trkpt><trkpt lat="45.540926207310804" lon="10.034760391598875"><ele>146.0</ele><time>2026-03-15T11:36:02.997Z</time></trkpt><trkpt lat="45.540812578825324" lon="10.034769510723327"><ele>146.0</ele><time>2026-03-15T11:36:03.997Z</time></trkpt><trkpt lat="45.54069348731619" lon="10.03480640372292"><ele>146.0</ele><time>2026-03-15T11:36:04.997Z</time></trkpt><trkpt lat="45.54060147469753" lon="10.034869050549677"><ele>146.0</ele><time>2026-03-15T11:36:05.997Z</time></trkpt><trkpt lat="45.540513240869004" lon="10.034944116132797"><ele>146.0</ele><time>2026-03-15T11:36:06.997Z</time></trkpt><trkpt lat="45.540446489407756" lon="10.035014749421158"><ele>146.0</ele><time>2026-03-15T11:36:07.997Z</time></trkpt><trkpt lat="45.540394560561374" lon="10.035101687951347"><ele>146.0</ele><time>2026-03-15T11:36:08.997Z</time></trkpt><trkpt lat="45.540361944802726" lon="10.03522266399639"><ele>146.0</ele><time>2026-03-15T11:36:09.997Z</time></trkpt><trkpt lat="45.540309778649636" lon="10.035327914620709"><ele>146.0</ele><time>2026-03-15T11:36:10.997Z</time></trkpt><trkpt lat="45.54013881901578" lon="10.035275736254118"><ele>146.0</ele><time>2026-03-15T11:36:11.997Z</time></trkpt><trkpt lat="45.54001021773532" lon="10.035286088283184"><ele>146.0</ele><time>2026-03-15T11:36:12.997Z</time></trkpt><trkpt lat="45.53982848517871" lon="10.03526016512549"><ele>146.0</ele><time>2026-03-15T11:36:13.997Z</time></trkpt><trkpt lat="45.53965393244011" lon="10.035233742525978"><ele>146.0</ele><time>2026-03-15T11:36:14.997Z</time></trkpt><trkpt lat="45.53952183969618" lon="10.035212534410531"><ele>146.0</ele><time>2026-03-15T11:36:15.997Z</time></trkpt><trkpt lat="45.53939966461476" lon="10.035200261368537"><ele>146.0</ele><time>2026-03-15T11:36:16.997Z</time></trkpt><trkpt lat="45.539286178838616" lon="10.035192190985242"><ele>145.6</ele><time>2026-03-15T11:36:17.997Z</time></trkpt><trkpt lat="45.53918535293401" lon="10.035185702084878"><ele>145.2</ele><time>2026-03-15T11:36:18.997Z</time></trkpt><trkpt lat="45.53909120751749" lon="10.035182452751696"><ele>144.8</ele><time>2026-03-15T11:36:19.997Z</time></trkpt><trkpt lat="45.53899883619634" lon="10.035182036414842"><ele>144.4</ele><time>2026-03-15T11:36:20.997Z</time></trkpt><trkpt lat="45.538906359941095" lon="10.035174558070025"><ele>144.0</ele><time>2026-03-15T11:36:21.997Z</time></trkpt><trkpt lat="45.538809891333734" lon="10.035174953823228"><ele>144.0</ele><time>2026-03-15T11:36:22.997Z</time></trkpt><trkpt lat="45.538715670577325" lon="10.03517594093868"><ele>144.0</ele><time>2026-03-15T11:36:23.997Z</time></trkpt><trkpt lat="45.53861812425567" lon="10.035179388984822"><ele>144.0</ele><time>2026-03-15T11:36:24.997Z</time></trkpt><trkpt lat="45.538524022875336" lon="10.035176846391037"><ele>144.0</ele><time>2026-03-15T11:36:25.997Z</time></trkpt><trkpt lat="45.53843292462814" lon="10.035180834387242"><ele>144.0</ele><time>2026-03-15T11:36:26.997Z</time></trkpt><trkpt lat="45.538339779398164" lon="10.035183142261317"><ele>144.0</ele><time>2026-03-15T11:36:27.997Z</time></trkpt><trkpt lat="45.53824850982416" lon="10.035178963467562"><ele>144.0</ele><time>2026-03-15T11:36:29Z</time></trkpt><trkpt lat="45.53817557474054" lon="10.035182066361415"><ele>144.0</ele><time>2026-03-15T11:36:30Z</time></trkpt><trkpt lat="45.538104446145695" lon="10.035179847086482"><ele>144.0</ele><time>2026-03-15T11:36:31Z</time></trkpt><trkpt lat="45.53802751629568" lon="10.035179261553541"><ele>144.0</ele><time>2026-03-15T11:36:32Z</time></trkpt><trkpt lat="45.537953003902615" lon="10.035165975822325"><ele>144.0</ele><time>2026-03-15T11:36:33Z</time></trkpt><trkpt lat="45.53784639020234" lon="10.035169422925332"><ele>143.8</ele><time>2026-03-15T11:36:35Z</time></trkpt><trkpt lat="45.537767848638254" lon="10.035169448899067"><ele>143.60000000000002</ele><time>2026-03-15T11:36:37Z</time></trkpt><trkpt lat="45.53762664229128" lon="10.035167702164353"><ele>143.4</ele><time>2026-03-15T11:36:39Z</time></trkpt><trkpt lat="45.53753402882528" lon="10.035162656580168"><ele>143.20000000000002</ele><time>2026-03-15T11:36:40Z</time></trkpt><trkpt lat="45.53743927398212" lon="10.035160876903182"><ele>143.0</ele><time>2026-03-15T11:36:41Z</time></trkpt><trkpt lat="45.53736871293605" lon="10.035155413311776"><ele>143.0</ele><time>2026-03-15T11:36:42Z</time></trkpt><trkpt lat="45.537299832275124" lon="10.035149081702297"><ele>143.0</ele><time>2026-03-15T11:36:43Z</time></trkpt><trkpt lat="45.53721121099805" lon="10.035185777582313"><ele>143.0</ele><time>2026-03-15T11:36:45Z</time></trkpt><trkpt lat="45.53718224964259" lon="10.035325215315986"><ele>143.0</ele><time>2026-03-15T11:36:47Z</time></trkpt><trkpt lat="45.537178358540224" lon="10.035453732898105"><ele>143.0</ele><time>2026-03-15T11:36:48Z</time></trkpt><trkpt lat="45.5371817888228" lon="10.035632963686918"><ele>143.0</ele><time>2026-03-15T11:36:49Z</time></trkpt><trkpt lat="45.537182856382074" lon="10.035749696907715"><ele>143.0</ele><time>2026-03-15T11:36:50Z</time></trkpt><trkpt lat="45.53717974217229" lon="10.035845995481207"><ele>143.0</ele><time>2026-03-15T11:36:51Z</time></trkpt><trkpt lat="45.53715290194717" lon="10.035982988543457"><ele>143.0</ele><time>2026-03-15T11:36:52.999Z</time></trkpt><trkpt lat="45.53703576851483" lon="10.036007820259382"><ele>143.0</ele><time>2026-03-15T11:36:54.999Z</time></trkpt><trkpt lat="45.536908341849575" lon="10.036002210950878"><ele>143.0</ele><time>2026-03-15T11:36:55.999Z</time></trkpt><trkpt lat="45.536776713234524" lon="10.035987564022108"><ele>143.0</ele><time>2026-03-15T11:36:56.999Z</time></trkpt><trkpt lat="45.53668773120555" lon="10.035982414683735"><ele>143.0</ele><time>2026-03-15T11:36:57.999Z</time></trkpt><trkpt lat="45.5366141115101" lon="10.035982025325145"><ele>143.0</ele><time>2026-03-15T11:36:58.999Z</time></trkpt><trkpt lat="45.53651664369537" lon="10.036005539312479"><ele>143.0</ele><time>2026-03-15T11:37:00.999Z</time></trkpt><trkpt lat="45.53644805077359" lon="10.036135042811967"><ele>143.0</ele><time>2026-03-15T11:37:02.999Z</time></trkpt><trkpt lat="45.536411220277884" lon="10.036275361332201"><ele>143.0</ele><time>2026-03-15T11:37:03.999Z</time></trkpt><trkpt lat="45.53635142279566" lon="10.03644765214918"><ele>143.0</ele><time>2026-03-15T11:37:04.999Z</time></trkpt><trkpt lat="45.536282743592565" lon="10.036562259658627"><ele>143.0</ele><time>2026-03-15T11:37:05.999Z</time></trkpt><trkpt lat="45.53621201165734" lon="10.03662844787124"><ele>143.0</ele><time>2026-03-15T11:37:06.999Z</time></trkpt><trkpt lat="45.53610259764311" lon="10.03670811154638"><ele>142.8</ele><time>2026-03-15T11:37:07.999Z</time></trkpt><trkpt lat="45.5360114470064" lon="10.036771758282"><ele>142.60000000000002</ele><time>2026-03-15T11:37:08.999Z</time></trkpt><trkpt lat="45.53593037428978" lon="10.036806613314187"><ele>142.39999999999998</ele><time>2026-03-15T11:37:09.999Z</time></trkpt><trkpt lat="45.53583091569054" lon="10.036805309674675"><ele>142.2</ele><time>2026-03-15T11:37:10.999Z</time></trkpt><trkpt lat="45.53569272910514" lon="10.036770801438538"><ele>142.0</ele><time>2026-03-15T11:37:11.999Z</time></trkpt><trkpt lat="45.53559782650929" lon="10.036743337785104"><ele>142.0</ele><time>2026-03-15T11:37:12.999Z</time></trkpt><trkpt lat="45.53552865368836" lon="10.036730590320545"><ele>142.0</ele><time>2026-03-15T11:37:13.999Z</time></trkpt><trkpt lat="45.535457593532044" lon="10.036807198999098"><ele>142.0</ele><time>2026-03-15T11:37:15.999Z</time></trkpt><trkpt lat="45.53544223035474" lon="10.036907823743325"><ele>142.0</ele><time>2026-03-15T11:37:16.999Z</time></trkpt><trkpt lat="45.535420941676875" lon="10.037085869863098"><ele>142.0</ele><time>2026-03-15T11:37:17.999Z</time></trkpt><trkpt lat="45.53541310481348" lon="10.037262547884868"><ele>142.0</ele><time>2026-03-15T11:37:18.999Z</time></trkpt><trkpt lat="45.535414652778975" lon="10.037371532682089"><ele>142.0</ele><time>2026-03-15T11:37:19.999Z</time></trkpt><trkpt lat="45.53529411376705" lon="10.03737554219412"><ele>142.0</ele><time>2026-03-15T11:37:21.999Z</time></trkpt><trkpt lat="45.53514456799518" lon="10.037241352053488"><ele>142.0</ele><time>2026-03-15T11:37:23.999Z</time></trkpt><trkpt lat="45.534992166214955" lon="10.037138908522257"><ele>142.0</ele><time>2026-03-15T11:37:24.999Z</time></trkpt><trkpt lat="45.53482777677037" lon="10.037026218582616"><ele>142.0</ele><time>2026-03-15T11:37:25.999Z</time></trkpt><trkpt lat="45.53464711264874" lon="10.036901409480071"><ele>142.0</ele><time>2026-03-15T11:37:26.999Z</time></trkpt><trkpt lat="45.534472193341166" lon="10.036782290456859"><ele>142.0</ele><time>2026-03-15T11:37:27.999Z</time></trkpt><trkpt lat="45.5343211233327" lon="10.036679413058298"><ele>142.0</ele><time>2026-03-15T11:37:28.999Z</time></trkpt><trkpt lat="45.53418351988815" lon="10.036593159087897"><ele>142.0</ele><time>2026-03-15T11:37:29.999Z</time></trkpt><trkpt lat="45.53403048726217" lon="10.036506728550865"><ele>141.33333333333334</ele><time>2026-03-15T11:37:30.999Z</time></trkpt><trkpt lat="45.533872265963325" lon="10.03642036284341"><ele>140.66666666666666</ele><time>2026-03-15T11:37:31.999Z</time></trkpt><trkpt lat="45.53372931487105" lon="10.036344444708822"><ele>140.0</ele><time>2026-03-15T11:37:32.999Z</time></trkpt><trkpt lat="45.53360549094801" lon="10.036278684429668"><ele>139.75</ele><time>2026-03-15T11:37:33.999Z</time></trkpt><trkpt lat="45.5334749011207" lon="10.036213604596439"><ele>139.5</ele><time>2026-03-15T11:37:34.999Z</time></trkpt><trkpt lat="45.533347474019855" lon="10.03615703596917"><ele>139.25</ele><time>2026-03-15T11:37:35.999Z</time></trkpt><trkpt lat="45.5332162998206" lon="10.036109488941365"><ele>139.0</ele><time>2026-03-15T11:37:36.998Z</time></trkpt><trkpt lat="45.53311706123294" lon="10.03607752091627"><ele>139.0</ele><time>2026-03-15T11:37:37.998Z</time></trkpt><trkpt lat="45.53303722482103" lon="10.036051801345195"><ele>139.0</ele><time>2026-03-15T11:37:38.998Z</time></trkpt><trkpt lat="45.53297446328971" lon="10.036029603724002"><ele>139.0</ele><time>2026-03-15T11:37:39.998Z</time></trkpt><trkpt lat="45.53287657214072" lon="10.035990068941441"><ele>139.0</ele><time>2026-03-15T11:37:41.998Z</time></trkpt><trkpt lat="45.5328027486245" lon="10.035959480119757"><ele>139.0</ele><time>2026-03-15T11:37:43.998Z</time></trkpt><trkpt lat="45.53273647108105" lon="10.035934017855885"><ele>139.0</ele><time>2026-03-15T11:37:45.998Z</time></trkpt><trkpt lat="45.53264882325763" lon="10.035906235466848"><ele>139.0</ele><time>2026-03-15T11:37:48.998Z</time></trkpt><trkpt lat="45.53255736483562" lon="10.035886318361518"><ele>139.0</ele><time>2026-03-15T11:37:50.998Z</time></trkpt><trkpt lat="45.532467777704156" lon="10.035857342373347"><ele>139.0</ele><time>2026-03-15T11:37:51.998Z</time></trkpt><trkpt lat="45.532374299307754" lon="10.035813907445641"><ele>139.0</ele><time>2026-03-15T11:37:52.998Z</time></trkpt><trkpt lat="45.53229405536809" lon="10.035772729862455"><ele>139.0</ele><time>2026-03-15T11:37:53.998Z</time></trkpt><trkpt lat="45.53221551540126" lon="10.035732373249385"><ele>139.0</ele><time>2026-03-15T11:37:54.998Z</time></trkpt><trkpt lat="45.53214916207366" lon="10.035698278502453"><ele>139.0</ele><time>2026-03-15T11:37:55.998Z</time></trkpt><trkpt lat="45.53206657241582" lon="10.035660205897548"><ele>139.0</ele><time>2026-03-15T11:37:56.998Z</time></trkpt><trkpt lat="45.531960710032635" lon="10.035637522490717"><ele>139.0</ele><time>2026-03-15T11:37:57.998Z</time></trkpt><trkpt lat="45.53187302712925" lon="10.035589382757115"><ele>139.0</ele><time>2026-03-15T11:37:58.998Z</time></trkpt><trkpt lat="45.531798987858984" lon="10.035571007014838"><ele>139.0</ele><time>2026-03-15T11:37:59.998Z</time></trkpt><trkpt lat="45.53172019432978" lon="10.0355535162808"><ele>139.0</ele><time>2026-03-15T11:38:00.998Z</time></trkpt><trkpt lat="45.531598854091044" lon="10.035527269233231"><ele>139.0</ele><time>2026-03-15T11:38:01.998Z</time></trkpt><trkpt lat="45.531442709220094" lon="10.03549349363686"><ele>139.0</ele><time>2026-03-15T11:38:02.998Z</time></trkpt><trkpt lat="45.53126849683822" lon="10.0354527286536"><ele>139.0</ele><time>2026-03-15T11:38:03.998Z</time></trkpt><trkpt lat="45.531100226400156" lon="10.035408473077327"><ele>139.0</ele><time>2026-03-15T11:38:04.998Z</time></trkpt><trkpt lat="45.530935031583894" lon="10.0353657098532"><ele>139.0</ele><time>2026-03-15T11:38:05.998Z</time></trkpt><trkpt lat="45.5307881450187" lon="10.035333882475646"><ele>139.0</ele><time>2026-03-15T11:38:06.998Z</time></trkpt><trkpt lat="45.53066462365453" lon="10.035313776714576"><ele>139.0</ele><time>2026-03-15T11:38:07.998Z</time></trkpt><trkpt lat="45.53056056723051" lon="10.035298647166742"><ele>139.0</ele><time>2026-03-15T11:38:08.998Z</time></trkpt><trkpt lat="45.5304333328505" lon="10.035280957836735"><ele>139.0</ele><time>2026-03-15T11:38:09.998Z</time></trkpt><trkpt lat="45.53032267743102" lon="10.035265573498258"><ele>138.75</ele><time>2026-03-15T11:38:10.998Z</time></trkpt><trkpt lat="45.53022137126293" lon="10.03525148897773"><ele>138.5</ele><time>2026-03-15T11:38:11.998Z</time></trkpt><trkpt lat="45.53010033046089" lon="10.035237893529654"><ele>138.25</ele><time>2026-03-15T11:38:12.998Z</time></trkpt><trkpt lat="45.52994907014501" lon="10.035226413130218"><ele>138.0</ele><time>2026-03-15T11:38:13.998Z</time></trkpt><trkpt lat="45.52980943539607" lon="10.035219614009545"><ele>138.0</ele><time>2026-03-15T11:38:14.998Z</time></trkpt><trkpt lat="45.52962256187133" lon="10.03521156222167"><ele>138.0</ele><time>2026-03-15T11:38:15.998Z</time></trkpt><trkpt lat="45.52948000704191" lon="10.035204966605148"><ele>138.0</ele><time>2026-03-15T11:38:16.998Z</time></trkpt><trkpt lat="45.529363705366265" lon="10.035198094397142"><ele>138.0</ele><time>2026-03-15T11:38:17.998Z</time></trkpt><trkpt lat="45.52922082805576" lon="10.035188832092961"><ele>137.75</ele><time>2026-03-15T11:38:18.998Z</time></trkpt><trkpt lat="45.529080081808864" lon="10.035175859168016"><ele>137.5</ele><time>2026-03-15T11:38:19.997Z</time></trkpt><trkpt lat="45.52893785008682" lon="10.035157142688064"><ele>137.25</ele><time>2026-03-15T11:38:20.997Z</time></trkpt><trkpt lat="45.52878659796934" lon="10.035134843600213"><ele>137.0</ele><time>2026-03-15T11:38:21.997Z</time></trkpt><trkpt lat="45.52864314130829" lon="10.035113551111735"><ele>136.75</ele><time>2026-03-15T11:38:22.997Z</time></trkpt><trkpt lat="45.52853378379542" lon="10.035097814032405"><ele>136.5</ele><time>2026-03-15T11:38:23.997Z</time></trkpt><trkpt lat="45.528435336270555" lon="10.035107696299992"><ele>136.25</ele><time>2026-03-15T11:38:24.997Z</time></trkpt><trkpt lat="45.52832616414983" lon="10.035094706775762"><ele>136.0</ele><time>2026-03-15T11:38:25.997Z</time></trkpt><trkpt lat="45.5281955661017" lon="10.035059308635176"><ele>136.0</ele><time>2026-03-15T11:38:26.997Z</time></trkpt><trkpt lat="45.52806671748442" lon="10.035049261048487"><ele>136.0</ele><time>2026-03-15T11:38:27.997Z</time></trkpt><trkpt lat="45.527915712604376" lon="10.035037736890155"><ele>136.0</ele><time>2026-03-15T11:38:28.997Z</time></trkpt><trkpt lat="45.527753829235685" lon="10.035025380294028"><ele>136.0</ele><time>2026-03-15T11:38:29.997Z</time></trkpt><trkpt lat="45.527581110440394" lon="10.035011342398898"><ele>136.25</ele><time>2026-03-15T11:38:30.997Z</time></trkpt><trkpt lat="45.52740065105306" lon="10.034994931307331"><ele>136.5</ele><time>2026-03-15T11:38:31.997Z</time></trkpt><trkpt lat="45.52731340396633" lon="10.034986996981424"><ele>136.75</ele><time>2026-03-15T11:38:32.997Z</time></trkpt><trkpt lat="45.52724022263851" lon="10.03498034180338"><ele>137.0</ele><time>2026-03-15T11:38:34Z</time></trkpt><trkpt lat="45.527065158104634" lon="10.034964424574591"><ele>136.6</ele><time>2026-03-15T11:38:35Z</time></trkpt><trkpt lat="45.5269636103438" lon="10.03495260543514"><ele>136.2</ele><time>2026-03-15T11:38:36Z</time></trkpt><trkpt lat="45.526858233926234" lon="10.034927646630953"><ele>135.8</ele><time>2026-03-15T11:38:37Z</time></trkpt><trkpt lat="45.526760686201506" lon="10.034895320499286"><ele>135.4</ele><time>2026-03-15T11:38:38Z</time></trkpt><trkpt lat="45.526686327193254" lon="10.034834068426749"><ele>135.0</ele><time>2026-03-15T11:38:39Z</time></trkpt><trkpt lat="45.526660525375746" lon="10.034742606449662"><ele>135.0</ele><time>2026-03-15T11:38:40Z</time></trkpt><trkpt lat="45.526627405718386" lon="10.034624873655199"><ele>135.0</ele><time>2026-03-15T11:38:41Z</time></trkpt><trkpt lat="45.52657184783249" lon="10.034426831927199"><ele>135.0</ele><time>2026-03-15T11:38:42Z</time></trkpt><trkpt lat="45.52651556082848" lon="10.034170505727323"><ele>135.0</ele><time>2026-03-15T11:38:43Z</time></trkpt><trkpt lat="45.52646736809844" lon="10.033968593266758"><ele>135.0</ele><time>2026-03-15T11:38:44Z</time></trkpt><trkpt lat="45.526432187284676" lon="10.03382964509361"><ele>135.0</ele><time>2026-03-15T11:38:45Z</time></trkpt><trkpt lat="45.52639333603285" lon="10.033676200437627"><ele>135.0</ele><time>2026-03-15T11:38:46Z</time></trkpt><trkpt lat="45.526353874362584" lon="10.033513582360657"><ele>135.0</ele><time>2026-03-15T11:38:47Z</time></trkpt><trkpt lat="45.52632271910089" lon="10.033369433471812"><ele>135.0</ele><time>2026-03-15T11:38:48Z</time></trkpt><trkpt lat="45.52631661496081" lon="10.033222852954134"><ele>135.0</ele><time>2026-03-15T11:38:49Z</time></trkpt><trkpt lat="45.52634203030476" lon="10.03306316962791"><ele>135.0</ele><time>2026-03-15T11:38:50Z</time></trkpt><trkpt lat="45.52637990095011" lon="10.032908220632537"><ele>135.0</ele><time>2026-03-15T11:38:51Z</time></trkpt><trkpt lat="45.5263935340119" lon="10.032765272599544"><ele>135.0</ele><time>2026-03-15T11:38:52Z</time></trkpt><trkpt lat="45.52641358762876" lon="10.032644221751303"><ele>135.0</ele><time>2026-03-15T11:38:53Z</time></trkpt><trkpt lat="45.526407858852906" lon="10.032521604178807"><ele>135.0</ele><time>2026-03-15T11:38:54Z</time></trkpt><trkpt lat="45.52638229719642" lon="10.032394611041633"><ele>135.0</ele><time>2026-03-15T11:38:56Z</time></trkpt><trkpt lat="45.526256081522696" lon="10.032442534454752"><ele>135.0</ele><time>2026-03-15T11:38:58Z</time></trkpt><trkpt lat="45.52617248542933" lon="10.032483031819838"><ele>135.0</ele><time>2026-03-15T11:38:59Z</time></trkpt><trkpt lat="45.52607154476544" lon="10.032532049580036"><ele>135.0</ele><time>2026-03-15T11:39:00Z</time></trkpt><trkpt lat="45.52595374387043" lon="10.032589552947359"><ele>134.66666666666666</ele><time>2026-03-15T11:39:01Z</time></trkpt><trkpt lat="45.52581681867831" lon="10.032660090198283"><ele>134.33333333333331</ele><time>2026-03-15T11:39:02Z</time></trkpt><trkpt lat="45.52567226887549" lon="10.032734769722152"><ele>134.0</ele><time>2026-03-15T11:39:03Z</time></trkpt><trkpt lat="45.52552997918626" lon="10.0328087540945"><ele>134.0</ele><time>2026-03-15T11:39:04Z</time></trkpt><trkpt lat="45.5254252589664" lon="10.032861726455408"><ele>134.0</ele><time>2026-03-15T11:39:05Z</time></trkpt><trkpt lat="45.52536066089628" lon="10.032893790641136"><ele>134.0</ele><time>2026-03-15T11:39:06Z</time></trkpt><trkpt lat="45.52527347703571" lon="10.032936821371651"><ele>134.0</ele><time>2026-03-15T11:39:06.999Z</time></trkpt><trkpt lat="45.5251960339735" lon="10.032973981941502"><ele>134.0</ele><time>2026-03-15T11:39:07.999Z</time></trkpt><trkpt lat="45.52504983410826" lon="10.03306249850277"><ele>133.8</ele><time>2026-03-15T11:39:09.999Z</time></trkpt><trkpt lat="45.5249572598394" lon="10.03309763555876"><ele>133.60000000000002</ele><time>2026-03-15T11:39:10.999Z</time></trkpt><trkpt lat="45.52491482924601" lon="10.033171776301849"><ele>133.4</ele><time>2026-03-15T11:39:11.999Z</time></trkpt><trkpt lat="45.52487663267845" lon="10.033254270509001"><ele>133.20000000000002</ele><time>2026-03-15T11:39:12.999Z</time></trkpt><trkpt lat="45.52483138614652" lon="10.033384092099974"><ele>133.0</ele><time>2026-03-15T11:39:13.999Z</time></trkpt><trkpt lat="45.52474972548805" lon="10.033532283523591"><ele>132.75</ele><time>2026-03-15T11:39:14.999Z</time></trkpt><trkpt lat="45.52468771540224" lon="10.033718363449303"><ele>132.5</ele><time>2026-03-15T11:39:15.999Z</time></trkpt><trkpt lat="45.52460828916771" lon="10.033886021884726"><ele>132.25</ele><time>2026-03-15T11:39:16.999Z</time></trkpt><trkpt lat="45.52454665748334" lon="10.034022468486699"><ele>132.0</ele><time>2026-03-15T11:39:17.999Z</time></trkpt><trkpt lat="45.524498579246874" lon="10.034128570692019"><ele>132.6</ele><time>2026-03-15T11:39:18.999Z</time></trkpt><trkpt lat="45.52445006448851" lon="10.034242658946116"><ele>133.2</ele><time>2026-03-15T11:39:20.999Z</time></trkpt><trkpt lat="45.524336619830834" lon="10.034154313372655"><ele>133.8</ele><time>2026-03-15T11:39:22.999Z</time></trkpt><trkpt lat="45.52424748370154" lon="10.034156635608454"><ele>134.4</ele><time>2026-03-15T11:39:23.999Z</time></trkpt><trkpt lat="45.52414943760979" lon="10.034196157642603"><ele>135.0</ele><time>2026-03-15T11:39:24.999Z</time></trkpt><trkpt lat="45.52407558300912" lon="10.034251085035118"><ele>135.0</ele><time>2026-03-15T11:39:26.999Z</time></trkpt><trkpt lat="45.52402999783432" lon="10.034392386734714"><ele>135.0</ele><time>2026-03-15T11:39:29.999Z</time></trkpt><trkpt lat="45.52400960163333" lon="10.034514041905837"><ele>135.0</ele><time>2026-03-15T11:39:30.999Z</time></trkpt><trkpt lat="45.523982074855915" lon="10.034703505548306"><ele>135.0</ele><time>2026-03-15T11:39:31.999Z</time></trkpt><trkpt lat="45.523911937614194" lon="10.03490177178618"><ele>134.5</ele><time>2026-03-15T11:39:32.999Z</time></trkpt><trkpt lat="45.52383939994959" lon="10.035128160568167"><ele>134.0</ele><time>2026-03-15T11:39:33.999Z</time></trkpt><trkpt lat="45.523762803654144" lon="10.035291779795124"><ele>133.5</ele><time>2026-03-15T11:39:34.999Z</time></trkpt><trkpt lat="45.52370615736811" lon="10.035427236818228"><ele>133.0</ele><time>2026-03-15T11:39:35.999Z</time></trkpt><trkpt lat="45.52363477818323" lon="10.035511240730623"><ele>133.0</ele><time>2026-03-15T11:39:36.999Z</time></trkpt><trkpt lat="45.523641568644" lon="10.035724443544233"><ele>133.0</ele><time>2026-03-15T11:39:37.999Z</time></trkpt><trkpt lat="45.52361754772385" lon="10.03588652233222"><ele>133.0</ele><time>2026-03-15T11:39:38.999Z</time></trkpt><trkpt lat="45.52358900353662" lon="10.0360474625858"><ele>133.0</ele><time>2026-03-15T11:39:39.999Z</time></trkpt><trkpt lat="45.523574497577464" lon="10.036211486081248"><ele>133.0</ele><time>2026-03-15T11:39:40.999Z</time></trkpt><trkpt lat="45.523543759206305" lon="10.03638018047147"><ele>133.0</ele><time>2026-03-15T11:39:41.999Z</time></trkpt><trkpt lat="45.52351263882933" lon="10.036563163242462"><ele>133.0</ele><time>2026-03-15T11:39:42.999Z</time></trkpt><trkpt lat="45.52348702122595" lon="10.036761191082366"><ele>133.0</ele><time>2026-03-15T11:39:43.999Z</time></trkpt><trkpt lat="45.52346699318728" lon="10.036959466283793"><ele>132.8</ele><time>2026-03-15T11:39:44.999Z</time></trkpt><trkpt lat="45.523445630604975" lon="10.037141637667382"><ele>132.60000000000002</ele><time>2026-03-15T11:39:45.999Z</time></trkpt><trkpt lat="45.52343472841926" lon="10.037282068707215"><ele>132.39999999999998</ele><time>2026-03-15T11:39:46.999Z</time></trkpt><trkpt lat="45.52341733785002" lon="10.037400509745456"><ele>132.2</ele><time>2026-03-15T11:39:47.998Z</time></trkpt><trkpt lat="45.52340508589604" lon="10.037569195483835"><ele>132.0</ele><time>2026-03-15T11:39:48.998Z</time></trkpt><trkpt lat="45.52340511386431" lon="10.037743897424068"><ele>132.0</ele><time>2026-03-15T11:39:49.998Z</time></trkpt><trkpt lat="45.523390510802415" lon="10.037951793796458"><ele>132.0</ele><time>2026-03-15T11:39:50.998Z</time></trkpt><trkpt lat="45.52338732634833" lon="10.038131967135422"><ele>132.0</ele><time>2026-03-15T11:39:51.998Z</time></trkpt><trkpt lat="45.52337790491572" lon="10.038313550910978"><ele>132.0</ele><time>2026-03-15T11:39:52.998Z</time></trkpt><trkpt lat="45.523365976838114" lon="10.038471325765478"><ele>132.0</ele><time>2026-03-15T11:39:53.998Z</time></trkpt><trkpt lat="45.5233524374003" lon="10.038648131043322"><ele>132.0</ele><time>2026-03-15T11:39:54.998Z</time></trkpt><trkpt lat="45.523341733315135" lon="10.038855702539712"><ele>132.0</ele><time>2026-03-15T11:39:55.998Z</time></trkpt><trkpt lat="45.52332848185131" lon="10.039053006021408"><ele>132.0</ele><time>2026-03-15T11:39:56.998Z</time></trkpt><trkpt lat="45.523317480309444" lon="10.039212457258833"><ele>131.75</ele><time>2026-03-15T11:39:57.998Z</time></trkpt><trkpt lat="45.52330336967052" lon="10.039357216347488"><ele>131.5</ele><time>2026-03-15T11:39:58.998Z</time></trkpt><trkpt lat="45.52328375979352" lon="10.03952443970548"><ele>131.25</ele><time>2026-03-15T11:39:59.998Z</time></trkpt><trkpt lat="45.52326351923534" lon="10.039700303400213"><ele>131.0</ele><time>2026-03-15T11:40:00.998Z</time></trkpt><trkpt lat="45.52323967286633" lon="10.039862205717968"><ele>131.16666666666666</ele><time>2026-03-15T11:40:01.998Z</time></trkpt><trkpt lat="45.5232140105492" lon="10.039997695725699"><ele>131.33333333333331</ele><time>2026-03-15T11:40:02.998Z</time></trkpt><trkpt lat="45.523192195860524" lon="10.04010727482373"><ele>131.5</ele><time>2026-03-15T11:40:03.998Z</time></trkpt><trkpt lat="45.523173239657275" lon="10.040202730462328"><ele>131.66666666666666</ele><time>2026-03-15T11:40:04.998Z</time></trkpt><trkpt lat="45.52314580129155" lon="10.040342957078495"><ele>131.83333333333334</ele><time>2026-03-15T11:40:06.998Z</time></trkpt><trkpt lat="45.52311494927521" lon="10.040431768368125"><ele>132.0</ele><time>2026-03-15T11:40:10.998Z</time></trkpt><trkpt lat="45.523234278673954" lon="10.040450099680957"><ele>132.0</ele><time>2026-03-15T11:40:11.998Z</time></trkpt><trkpt lat="45.52331513974494" lon="10.04046702423028"><ele>132.0</ele><time>2026-03-15T11:40:12.998Z</time></trkpt><trkpt lat="45.52342353779259" lon="10.040487953186814"><ele>132.0</ele><time>2026-03-15T11:40:13.998Z</time></trkpt><trkpt lat="45.52353989633396" lon="10.04051662175792"><ele>132.0</ele><time>2026-03-15T11:40:14.998Z</time></trkpt><trkpt lat="45.52369168752052" lon="10.040551344223902"><ele>132.0</ele><time>2026-03-15T11:40:15.998Z</time></trkpt><trkpt lat="45.52387465164471" lon="10.040596048430405"><ele>132.0</ele><time>2026-03-15T11:40:16.998Z</time></trkpt><trkpt lat="45.52406939332938" lon="10.040645354580924"><ele>132.0</ele><time>2026-03-15T11:40:17.998Z</time></trkpt><trkpt lat="45.52427749363779" lon="10.040692067133943"><ele>132.0</ele><time>2026-03-15T11:40:18.998Z</time></trkpt><trkpt lat="45.52449657173909" lon="10.04071992172692"><ele>132.0</ele><time>2026-03-15T11:40:19.998Z</time></trkpt><trkpt lat="45.52470787777687" lon="10.040729124498665"><ele>132.0</ele><time>2026-03-15T11:40:20.998Z</time></trkpt><trkpt lat="45.52489276881284" lon="10.040735770062199"><ele>132.33333333333334</ele><time>2026-03-15T11:40:21.998Z</time></trkpt><trkpt lat="45.525059758337775" lon="10.040749582666264"><ele>132.66666666666669</ele><time>2026-03-15T11:40:22.998Z</time></trkpt><trkpt lat="45.525225982485495" lon="10.040766280961044"><ele>133.0</ele><time>2026-03-15T11:40:23.998Z</time></trkpt><trkpt lat="45.52539326807623" lon="10.040791401514127"><ele>133.66666666666669</ele><time>2026-03-15T11:40:24.998Z</time></trkpt><trkpt lat="45.5255604345436" lon="10.040821511813286"><ele>134.33333333333334</ele><time>2026-03-15T11:40:25.998Z</time></trkpt><trkpt lat="45.52573063678029" lon="10.040844630646617"><ele>135.0</ele><time>2026-03-15T11:40:26.998Z</time></trkpt><trkpt lat="45.52589991563977" lon="10.040866137463277"><ele>135.0</ele><time>2026-03-15T11:40:27.998Z</time></trkpt><trkpt lat="45.526057669160444" lon="10.040893217978937"><ele>135.0</ele><time>2026-03-15T11:40:28.998Z</time></trkpt><trkpt lat="45.52620346985774" lon="10.04092235185731"><ele>135.0</ele><time>2026-03-15T11:40:29.997Z</time></trkpt><trkpt lat="45.52634390316258" lon="10.040955766326096"><ele>135.0</ele><time>2026-03-15T11:40:30.997Z</time></trkpt><trkpt lat="45.52647684993152" lon="10.040983222533884"><ele>135.25</ele><time>2026-03-15T11:40:31.997Z</time></trkpt><trkpt lat="45.52661209532139" lon="10.041008597815907"><ele>135.5</ele><time>2026-03-15T11:40:32.997Z</time></trkpt><trkpt lat="45.52675839068063" lon="10.041032515383934"><ele>135.75</ele><time>2026-03-15T11:40:33.997Z</time></trkpt><trkpt lat="45.52690847605229" lon="10.041067394014387"><ele>136.0</ele><time>2026-03-15T11:40:34.997Z</time></trkpt><trkpt lat="45.52706058002819" lon="10.041097634890486"><ele>136.0</ele><time>2026-03-15T11:40:35.997Z</time></trkpt><trkpt lat="45.52721724896329" lon="10.04112510370622"><ele>136.0</ele><time>2026-03-15T11:40:36.997Z</time></trkpt><trkpt lat="45.52736890854355" lon="10.04115147637391"><ele>136.0</ele><time>2026-03-15T11:40:37.997Z</time></trkpt><trkpt lat="45.527510314131675" lon="10.04118285266923"><ele>136.0</ele><time>2026-03-15T11:40:39Z</time></trkpt><trkpt lat="45.52767000918136" lon="10.041216112601127"><ele>136.0</ele><time>2026-03-15T11:40:40Z</time></trkpt><trkpt lat="45.52780630410304" lon="10.041243391205311"><ele>136.0</ele><time>2026-03-15T11:40:41Z</time></trkpt><trkpt lat="45.52793622853603" lon="10.04125763369438"><ele>136.0</ele><time>2026-03-15T11:40:42Z</time></trkpt><trkpt lat="45.52811309608764" lon="10.041292749743008"><ele>136.33333333333334</ele><time>2026-03-15T11:40:43Z</time></trkpt><trkpt lat="45.52829567055879" lon="10.04132970795"><ele>136.66666666666666</ele><time>2026-03-15T11:40:44Z</time></trkpt><trkpt lat="45.52854409794746" lon="10.041367522969068"><ele>137.0</ele><time>2026-03-15T11:40:46Z</time></trkpt><trkpt lat="45.528799550940526" lon="10.041412341212286"><ele>137.5</ele><time>2026-03-15T11:40:47Z</time></trkpt><trkpt lat="45.529083902074255" lon="10.04147921737863"><ele>138.0</ele><time>2026-03-15T11:40:48Z</time></trkpt><trkpt lat="45.52935625648485" lon="10.041550264666826"><ele>138.0</ele><time>2026-03-15T11:40:49Z</time></trkpt><trkpt lat="45.52953377276232" lon="10.04159405146402"><ele>138.0</ele><time>2026-03-15T11:40:50Z</time></trkpt><trkpt lat="45.529679994171076" lon="10.041640927162893"><ele>138.0</ele><time>2026-03-15T11:40:51Z</time></trkpt><trkpt lat="45.52979387701538" lon="10.041681181272697"><ele>138.0</ele><time>2026-03-15T11:40:52Z</time></trkpt><trkpt lat="45.529924349233845" lon="10.041736327988275"><ele>138.25</ele><time>2026-03-15T11:40:53Z</time></trkpt><trkpt lat="45.530062840160355" lon="10.041798658352388"><ele>138.5</ele><time>2026-03-15T11:40:54Z</time></trkpt><trkpt lat="45.53020364034726" lon="10.041862803803472"><ele>138.75</ele><time>2026-03-15T11:40:55Z</time></trkpt><trkpt lat="45.530349601245014" lon="10.04194297127326"><ele>139.0</ele><time>2026-03-15T11:40:56Z</time></trkpt><trkpt lat="45.53049630583416" lon="10.042035747822819"><ele>139.0</ele><time>2026-03-15T11:40:57Z</time></trkpt><trkpt lat="45.53064083431146" lon="10.04213879114948"><ele>139.0</ele><time>2026-03-15T11:40:58Z</time></trkpt><trkpt lat="45.530793424982946" lon="10.042239717070066"><ele>139.0</ele><time>2026-03-15T11:40:59Z</time></trkpt><trkpt lat="45.53094952865972" lon="10.042331315116568"><ele>139.0</ele><time>2026-03-15T11:41:00Z</time></trkpt><trkpt lat="45.53111196653275" lon="10.042430407714896"><ele>139.0</ele><time>2026-03-15T11:41:01Z</time></trkpt><trkpt lat="45.5312726745439" lon="10.042529603562219"><ele>139.0</ele><time>2026-03-15T11:41:02Z</time></trkpt><trkpt lat="45.53143679536998" lon="10.042633575906937"><ele>139.33333333333334</ele><time>2026-03-15T11:41:03Z</time></trkpt><trkpt lat="45.5316067893903" lon="10.042737505214953"><ele>139.66666666666666</ele><time>2026-03-15T11:41:04Z</time></trkpt><trkpt lat="45.531766692718584" lon="10.042845036156233"><ele>140.0</ele><time>2026-03-15T11:41:05Z</time></trkpt><trkpt lat="45.53193616875073" lon="10.042966299901448"><ele>140.33333333333331</ele><time>2026-03-15T11:41:06Z</time></trkpt><trkpt lat="45.532103250041935" lon="10.04307625261016"><ele>140.66666666666666</ele><time>2026-03-15T11:41:07Z</time></trkpt><trkpt lat="45.532254095676784" lon="10.043164760786894"><ele>141.0</ele><time>2026-03-15T11:41:08Z</time></trkpt><trkpt lat="45.53241212998755" lon="10.043235116273884"><ele>141.0</ele><time>2026-03-15T11:41:09Z</time></trkpt><trkpt lat="45.532590152000175" lon="10.043295889926995"><ele>141.0</ele><time>2026-03-15T11:41:10Z</time></trkpt><trkpt lat="45.53276922942197" lon="10.043337033309921"><ele>141.0</ele><time>2026-03-15T11:41:11Z</time></trkpt><trkpt lat="45.53295496089863" lon="10.043370754221032"><ele>141.0</ele><time>2026-03-15T11:41:12Z</time></trkpt><trkpt lat="45.53314856542396" lon="10.04340770752661"><ele>141.0</ele><time>2026-03-15T11:41:13Z</time></trkpt><trkpt lat="45.53334720444913" lon="10.043458397197593"><ele>141.0</ele><time>2026-03-15T11:41:14Z</time></trkpt><trkpt lat="45.53353501045109" lon="10.04351102105177"><ele>141.0</ele><time>2026-03-15T11:41:15Z</time></trkpt><trkpt lat="45.533722245732164" lon="10.043559779003438"><ele>141.0</ele><time>2026-03-15T11:41:16Z</time></trkpt><trkpt lat="45.53390463037514" lon="10.04360538039937"><ele>141.0</ele><time>2026-03-15T11:41:17Z</time></trkpt><trkpt lat="45.53408443425977" lon="10.043661367654131"><ele>141.0</ele><time>2026-03-15T11:41:18Z</time></trkpt><trkpt lat="45.534229982152944" lon="10.04371360548566"><ele>141.0</ele><time>2026-03-15T11:41:19Z</time></trkpt><trkpt lat="45.5343719865987" lon="10.043773151828765"><ele>141.0</ele><time>2026-03-15T11:41:20Z</time></trkpt><trkpt lat="45.53452215464961" lon="10.043833752600012"><ele>141.0</ele><time>2026-03-15T11:41:21Z</time></trkpt><trkpt lat="45.5346854098351" lon="10.043894858920119"><ele>141.0</ele><time>2026-03-15T11:41:22Z</time></trkpt><trkpt lat="45.53485463553928" lon="10.043960151962871"><ele>141.0</ele><time>2026-03-15T11:41:23Z</time></trkpt><trkpt lat="45.53502470224215" lon="10.044034837039296"><ele>141.0</ele><time>2026-03-15T11:41:24Z</time></trkpt><trkpt lat="45.5351957938245" lon="10.044105686263835"><ele>141.0</ele><time>2026-03-15T11:41:25Z</time></trkpt><trkpt lat="45.53536625129393" lon="10.044182037664054"><ele>141.0</ele><time>2026-03-15T11:41:26Z</time></trkpt><trkpt lat="45.53554408316234" lon="10.044254368391217"><ele>141.66666666666666</ele><time>2026-03-15T11:41:27Z</time></trkpt><trkpt lat="45.535710951424214" lon="10.04432046017156"><ele>142.33333333333331</ele><time>2026-03-15T11:41:28Z</time></trkpt><trkpt lat="45.53585677776525" lon="10.044374062661507"><ele>143.0</ele><time>2026-03-15T11:41:28.999Z</time></trkpt><trkpt lat="45.5359999532069" lon="10.044437381752205"><ele>143.0</ele><time>2026-03-15T11:41:29.999Z</time></trkpt><trkpt lat="45.53615328801742" lon="10.044509489968418"><ele>143.0</ele><time>2026-03-15T11:41:30.999Z</time></trkpt><trkpt lat="45.53629805365755" lon="10.044563175638679"><ele>143.0</ele><time>2026-03-15T11:41:31.999Z</time></trkpt><trkpt lat="45.5364530002219" lon="10.0446144746802"><ele>143.33333333333331</ele><time>2026-03-15T11:41:32.999Z</time></trkpt><trkpt lat="45.53660281570433" lon="10.044667003207913"><ele>143.66666666666666</ele><time>2026-03-15T11:41:33.999Z</time></trkpt><trkpt lat="45.53676343524064" lon="10.04469746484496"><ele>144.0</ele><time>2026-03-15T11:41:34.999Z</time></trkpt><trkpt lat="45.53692315704667" lon="10.04470182021456"><ele>144.0</ele><time>2026-03-15T11:41:35.999Z</time></trkpt><trkpt lat="45.53708726750755" lon="10.044717390316048"><ele>144.0</ele><time>2026-03-15T11:41:36.999Z</time></trkpt><trkpt lat="45.537248884969166" lon="10.044731639009214"><ele>144.0</ele><time>2026-03-15T11:41:37.999Z</time></trkpt><trkpt lat="45.53741893912521" lon="10.044743131300095"><ele>144.0</ele><time>2026-03-15T11:41:38.999Z</time></trkpt><trkpt lat="45.537574363227215" lon="10.044762694125309"><ele>144.0</ele><time>2026-03-15T11:41:39.999Z</time></trkpt><trkpt lat="45.53774119621316" lon="10.044784658855349"><ele>144.0</ele><time>2026-03-15T11:41:40.999Z</time></trkpt><trkpt lat="45.53790608681224" lon="10.04480565226504"><ele>144.0</ele><time>2026-03-15T11:41:41.999Z</time></trkpt><trkpt lat="45.5380668838147" lon="10.044823582597555"><ele>144.0</ele><time>2026-03-15T11:41:42.999Z</time></trkpt><trkpt lat="45.53822911443094" lon="10.044845121478335"><ele>144.0</ele><time>2026-03-15T11:41:43.999Z</time></trkpt><trkpt lat="45.538385659422644" lon="10.044856909052434"><ele>144.0</ele><time>2026-03-15T11:41:44.999Z</time></trkpt><trkpt lat="45.538543960323" lon="10.04486848956614"><ele>144.0</ele><time>2026-03-15T11:41:45.999Z</time></trkpt><trkpt lat="45.538713556996576" lon="10.044886042561123"><ele>144.0</ele><time>2026-03-15T11:41:46.999Z</time></trkpt><trkpt lat="45.53887528964661" lon="10.044904608735218"><ele>144.0</ele><time>2026-03-15T11:41:47.999Z</time></trkpt><trkpt lat="45.53904630937176" lon="10.044925086018154"><ele>144.0</ele><time>2026-03-15T11:41:48.999Z</time></trkpt><trkpt lat="45.53922565870232" lon="10.044943515478062"><ele>144.0</ele><time>2026-03-15T11:41:49.999Z</time></trkpt><trkpt lat="45.53940677680108" lon="10.044963171476715"><ele>145.0</ele><time>2026-03-15T11:41:50.999Z</time></trkpt><trkpt lat="45.53959146269625" lon="10.04498134855904"><ele>146.0</ele><time>2026-03-15T11:41:51.999Z</time></trkpt><trkpt lat="45.53977993273912" lon="10.04499978381574"><ele>147.0</ele><time>2026-03-15T11:41:52.999Z</time></trkpt><trkpt lat="45.53996584863772" lon="10.045019504436265"><ele>147.0</ele><time>2026-03-15T11:41:53.999Z</time></trkpt><trkpt lat="45.54015305717539" lon="10.045028119347368"><ele>147.0</ele><time>2026-03-15T11:41:54.999Z</time></trkpt><trkpt lat="45.540333549768526" lon="10.045015813540784"><ele>147.0</ele><time>2026-03-15T11:41:55.999Z</time></trkpt><trkpt lat="45.540518743919165" lon="10.044998623246562"><ele>146.66666666666666</ele><time>2026-03-15T11:41:56.999Z</time></trkpt><trkpt lat="45.54070207042999" lon="10.04498346691897"><ele>146.33333333333331</ele><time>2026-03-15T11:41:57.999Z</time></trkpt><trkpt lat="45.54088511064865" lon="10.044975249148182"><ele>146.0</ele><time>2026-03-15T11:41:58.999Z</time></trkpt><trkpt lat="45.54106646070331" lon="10.044964617880595"><ele>147.0</ele><time>2026-03-15T11:41:59.999Z</time></trkpt><trkpt lat="45.54124629908886" lon="10.044945731026287"><ele>148.0</ele><time>2026-03-15T11:42:00.999Z</time></trkpt><trkpt lat="45.541425587387" lon="10.044930705296961"><ele>149.0</ele><time>2026-03-15T11:42:01.999Z</time></trkpt><trkpt lat="45.541598864385364" lon="10.044922560841663"><ele>149.0</ele><time>2026-03-15T11:42:02.999Z</time></trkpt><trkpt lat="45.54178239507402" lon="10.0449142258844"><ele>149.0</ele><time>2026-03-15T11:42:03.999Z</time></trkpt><trkpt lat="45.54195525623779" lon="10.044908053645312"><ele>149.0</ele><time>2026-03-15T11:42:04.999Z</time></trkpt><trkpt lat="45.54213341577931" lon="10.044894013034911"><ele>149.0</ele><time>2026-03-15T11:42:05.999Z</time></trkpt><trkpt lat="45.542314407160795" lon="10.044868956322826"><ele>149.0</ele><time>2026-03-15T11:42:06.999Z</time></trkpt><trkpt lat="45.542492960839816" lon="10.04483608323276"><ele>149.0</ele><time>2026-03-15T11:42:07.999Z</time></trkpt><trkpt lat="45.54266110166472" lon="10.04478802687343"><ele>149.0</ele><time>2026-03-15T11:42:08.999Z</time></trkpt><trkpt lat="45.542807094018066" lon="10.044729414720441"><ele>149.0</ele><time>2026-03-15T11:42:09.999Z</time></trkpt><trkpt lat="45.54294234682049" lon="10.044673299712608"><ele>149.0</ele><time>2026-03-15T11:42:10.998Z</time></trkpt><trkpt lat="45.54307163599817" lon="10.044641646656656"><ele>149.0</ele><time>2026-03-15T11:42:11.998Z</time></trkpt><trkpt lat="45.54320898835772" lon="10.044620839510342"><ele>149.25</ele><time>2026-03-15T11:42:12.998Z</time></trkpt><trkpt lat="45.543355807940706" lon="10.0446177328938"><ele>149.5</ele><time>2026-03-15T11:42:13.998Z</time></trkpt><trkpt lat="45.543503748435626" lon="10.04461870287237"><ele>149.75</ele><time>2026-03-15T11:42:14.998Z</time></trkpt><trkpt lat="45.54364134266989" lon="10.044617537502235"><ele>150.0</ele><time>2026-03-15T11:42:15.998Z</time></trkpt><trkpt lat="45.54376221856174" lon="10.044620623491111"><ele>149.5</ele><time>2026-03-15T11:42:16.998Z</time></trkpt><trkpt lat="45.54387855950009" lon="10.044610690027918"><ele>149.0</ele><time>2026-03-15T11:42:17.998Z</time></trkpt><trkpt lat="45.543987750444664" lon="10.044590085602103"><ele>148.5</ele><time>2026-03-15T11:42:18.998Z</time></trkpt><trkpt lat="45.544100828055015" lon="10.044499801833947"><ele>148.0</ele><time>2026-03-15T11:42:19.998Z</time></trkpt><trkpt lat="45.54420695831734" lon="10.044342554665052"><ele>148.0</ele><time>2026-03-15T11:42:20.998Z</time></trkpt><trkpt lat="45.54432182859925" lon="10.044177155228542"><ele>148.0</ele><time>2026-03-15T11:42:21.998Z</time></trkpt><trkpt lat="45.544481274279164" lon="10.044054227636385"><ele>148.0</ele><time>2026-03-15T11:42:22.998Z</time></trkpt><trkpt lat="45.544649383573834" lon="10.043961880668537"><ele>148.66666666666669</ele><time>2026-03-15T11:42:23.998Z</time></trkpt><trkpt lat="45.54483204712736" lon="10.043908733080514"><ele>149.33333333333334</ele><time>2026-03-15T11:42:24.997Z</time></trkpt><trkpt lat="45.54502047420613" lon="10.043898817189135"><ele>150.0</ele><time>2026-03-15T11:42:25.997Z</time></trkpt><trkpt lat="45.545197346128944" lon="10.043907154886444"><ele>150.0</ele><time>2026-03-15T11:42:26.997Z</time></trkpt><trkpt lat="45.54536551205563" lon="10.043902846844155"><ele>150.0</ele><time>2026-03-15T11:42:27.997Z</time></trkpt><trkpt lat="45.545535008007064" lon="10.043900156427304"><ele>150.0</ele><time>2026-03-15T11:42:28.997Z</time></trkpt><trkpt lat="45.54570517777626" lon="10.043877222014265"><ele>150.0</ele><time>2026-03-15T11:42:29.997Z</time></trkpt><trkpt lat="45.545875553858586" lon="10.043867525917493"><ele>150.0</ele><time>2026-03-15T11:42:30.997Z</time></trkpt><trkpt lat="45.54604677300316" lon="10.043868890631368"><ele>150.0</ele><time>2026-03-15T11:42:31.997Z</time></trkpt><trkpt lat="45.54621421118828" lon="10.043875060253384"><ele>150.0</ele><time>2026-03-15T11:42:32.997Z</time></trkpt><trkpt lat="45.54637611908203" lon="10.043906957538553"><ele>150.0</ele><time>2026-03-15T11:42:33.997Z</time></trkpt><trkpt lat="45.54653546071975" lon="10.043967674700323"><ele>150.0</ele><time>2026-03-15T11:42:34.997Z</time></trkpt><trkpt lat="45.54668695796503" lon="10.044042010076186"><ele>150.0</ele><time>2026-03-15T11:42:35.997Z</time></trkpt><trkpt lat="45.546817346634946" lon="10.044107441551152"><ele>150.0</ele><time>2026-03-15T11:42:36.997Z</time></trkpt><trkpt lat="45.546932673734204" lon="10.044175088636623"><ele>150.0</ele><time>2026-03-15T11:42:37.997Z</time></trkpt><trkpt lat="45.5470524619593" lon="10.04422064176183"><ele>150.0</ele><time>2026-03-15T11:42:38.997Z</time></trkpt><trkpt lat="45.54718353514448" lon="10.04427005605631"><ele>150.75</ele><time>2026-03-15T11:42:39.997Z</time></trkpt><trkpt lat="45.547322113901046" lon="10.044273998839802"><ele>151.5</ele><time>2026-03-15T11:42:40.997Z</time></trkpt><trkpt lat="45.54747123289217" lon="10.044254147297917"><ele>152.25</ele><time>2026-03-15T11:42:41.997Z</time></trkpt><trkpt lat="45.547626602452794" lon="10.044250567700447"><ele>153.0</ele><time>2026-03-15T11:42:42.997Z</time></trkpt><trkpt lat="45.54778346849363" lon="10.044206928213617"><ele>153.33333333333334</ele><time>2026-03-15T11:42:43.997Z</time></trkpt><trkpt lat="45.54793973010795" lon="10.044161509024061"><ele>153.66666666666669</ele><time>2026-03-15T11:42:45Z</time></trkpt><trkpt lat="45.548093456997805" lon="10.04412198220418"><ele>154.0</ele><time>2026-03-15T11:42:46Z</time></trkpt><trkpt lat="45.54824934516213" lon="10.044086490373848"><ele>154.0</ele><time>2026-03-15T11:42:47Z</time></trkpt><trkpt lat="45.54840771557215" lon="10.044047148345674"><ele>154.0</ele><time>2026-03-15T11:42:48Z</time></trkpt><trkpt lat="45.548562927106104" lon="10.044011040381237"><ele>154.0</ele><time>2026-03-15T11:42:49Z</time></trkpt><trkpt lat="45.54871932938403" lon="10.043973796990553"><ele>154.25</ele><time>2026-03-15T11:42:49.999Z</time></trkpt><trkpt lat="45.548868115742266" lon="10.043943091957015"><ele>154.5</ele><time>2026-03-15T11:42:51Z</time></trkpt><trkpt lat="45.549003314768406" lon="10.043909437678252"><ele>154.75</ele><time>2026-03-15T11:42:52Z</time></trkpt><trkpt lat="45.549121200138146" lon="10.043879380244364"><ele>155.0</ele><time>2026-03-15T11:42:53Z</time></trkpt><trkpt lat="45.54923430983212" lon="10.04385401254354"><ele>155.0</ele><time>2026-03-15T11:42:54Z</time></trkpt><trkpt lat="45.549337317564486" lon="10.043830496453554"><ele>155.0</ele><time>2026-03-15T11:42:55Z</time></trkpt><trkpt lat="45.54942170830924" lon="10.043799748894932"><ele>155.0</ele><time>2026-03-15T11:42:56Z</time></trkpt><trkpt lat="45.54949141503051" lon="10.043770024634167"><ele>155.0</ele><time>2026-03-15T11:42:57Z</time></trkpt><trkpt lat="45.549555670063484" lon="10.04392336377541"><ele>155.0</ele><time>2026-03-15T11:42:59.999Z</time></trkpt><trkpt lat="45.54953461313916" lon="10.044040154527629"><ele>154.75</ele><time>2026-03-15T11:43:00.999Z</time></trkpt><trkpt lat="45.54950915505484" lon="10.04420314460056"><ele>154.5</ele><time>2026-03-15T11:43:01.999Z</time></trkpt><trkpt lat="45.54945941622852" lon="10.044388023838893"><ele>154.25</ele><time>2026-03-15T11:43:02.999Z</time></trkpt><trkpt lat="45.549408383992386" lon="10.044584644400523"><ele>154.0</ele><time>2026-03-15T11:43:03.999Z</time></trkpt><trkpt lat="45.549370365293505" lon="10.044809986835784"><ele>153.66666666666669</ele><time>2026-03-15T11:43:04.999Z</time></trkpt><trkpt lat="45.54932112945541" lon="10.045039218629361"><ele>153.33333333333334</ele><time>2026-03-15T11:43:05.999Z</time></trkpt><trkpt lat="45.54927846973781" lon="10.045255906126622"><ele>153.0</ele><time>2026-03-15T11:43:06.999Z</time></trkpt><trkpt lat="45.54924224527318" lon="10.045442106177457"><ele>153.0</ele><time>2026-03-15T11:43:07.999Z</time></trkpt><trkpt lat="45.54921072022782" lon="10.045618210699566"><ele>153.0</ele><time>2026-03-15T11:43:08.999Z</time></trkpt><trkpt lat="45.54918237378459" lon="10.045779874855267"><ele>153.0</ele><time>2026-03-15T11:43:09.999Z</time></trkpt><trkpt lat="45.549156687094666" lon="10.045932913219255"><ele>153.0</ele><time>2026-03-15T11:43:10.999Z</time></trkpt><trkpt lat="45.54913369603069" lon="10.046090603262568"><ele>153.0</ele><time>2026-03-15T11:43:11.999Z</time></trkpt><trkpt lat="45.54912606391376" lon="10.04628821369904"><ele>153.0</ele><time>2026-03-15T11:43:12.999Z</time></trkpt><trkpt lat="45.54911588687192" lon="10.04652193023522"><ele>153.0</ele><time>2026-03-15T11:43:13.999Z</time></trkpt><trkpt lat="45.549099332207106" lon="10.046767672782021"><ele>152.66666666666666</ele><time>2026-03-15T11:43:14.999Z</time></trkpt><trkpt lat="45.54906909467108" lon="10.047023092181242"><ele>152.33333333333331</ele><time>2026-03-15T11:43:15.999Z</time></trkpt><trkpt lat="45.54901520537286" lon="10.047321530388912"><ele>152.0</ele><time>2026-03-15T11:43:16.999Z</time></trkpt><trkpt lat="45.54895199589869" lon="10.047662882365515"><ele>152.5</ele><time>2026-03-15T11:43:17.999Z</time></trkpt><trkpt lat="45.54896579637578" lon="10.04777634881014"><ele>153.0</ele><time>2026-03-15T11:43:18.999Z</time></trkpt><trkpt lat="45.548931062343634" lon="10.047994853831835"><ele>153.5</ele><time>2026-03-15T11:43:19.999Z</time></trkpt><trkpt lat="45.548894630439065" lon="10.048216842901477"><ele>154.0</ele><time>2026-03-15T11:43:20.999Z</time></trkpt><trkpt lat="45.548860473581364" lon="10.048410217998612"><ele>154.0</ele><time>2026-03-15T11:43:21.999Z</time></trkpt><trkpt lat="45.54882844666906" lon="10.04858640846644"><ele>154.0</ele><time>2026-03-15T11:43:22.999Z</time></trkpt><trkpt lat="45.54881117518508" lon="10.048760025785324"><ele>154.0</ele><time>2026-03-15T11:43:23.999Z</time></trkpt><trkpt lat="45.54879116892272" lon="10.048947128470893"><ele>154.0</ele><time>2026-03-15T11:43:24.999Z</time></trkpt><trkpt lat="45.548769039292715" lon="10.049145075514613"><ele>153.75</ele><time>2026-03-15T11:43:25.999Z</time></trkpt><trkpt lat="45.548767560702274" lon="10.049357647204014"><ele>153.5</ele><time>2026-03-15T11:43:26.999Z</time></trkpt><trkpt lat="45.548742397225624" lon="10.049567736567122"><ele>153.25</ele><time>2026-03-15T11:43:27.999Z</time></trkpt><trkpt lat="45.54870040713215" lon="10.049774191755182"><ele>153.0</ele><time>2026-03-15T11:43:28.999Z</time></trkpt><trkpt lat="45.54867683595338" lon="10.049993221603291"><ele>152.5</ele><time>2026-03-15T11:43:29.999Z</time></trkpt><trkpt lat="45.54867335030497" lon="10.050222456668221"><ele>152.0</ele><time>2026-03-15T11:43:30.999Z</time></trkpt><trkpt lat="45.54865451406728" lon="10.050417732415475"><ele>151.5</ele><time>2026-03-15T11:43:31.999Z</time></trkpt><trkpt lat="45.54862332460901" lon="10.050586578263166"><ele>151.0</ele><time>2026-03-15T11:43:32.999Z</time></trkpt><trkpt lat="45.548597520967185" lon="10.050746503041905"><ele>151.2</ele><time>2026-03-15T11:43:33.999Z</time></trkpt><trkpt lat="45.54859280375932" lon="10.050900463345776"><ele>151.39999999999998</ele><time>2026-03-15T11:43:34.999Z</time></trkpt><trkpt lat="45.54856422985661" lon="10.051048455972287"><ele>151.6</ele><time>2026-03-15T11:43:35.999Z</time></trkpt><trkpt lat="45.54853045072597" lon="10.051176673069868"><ele>151.79999999999998</ele><time>2026-03-15T11:43:36.999Z</time></trkpt><trkpt lat="45.548494026542244" lon="10.051308738806094"><ele>152.0</ele><time>2026-03-15T11:43:37.999Z</time></trkpt><trkpt lat="45.548421635775966" lon="10.051464091112184"><ele>152.25</ele><time>2026-03-15T11:43:38.999Z</time></trkpt><trkpt lat="45.54836906323689" lon="10.051652619319526"><ele>152.5</ele><time>2026-03-15T11:43:39.999Z</time></trkpt><trkpt lat="45.548318122408865" lon="10.051836592771163"><ele>152.75</ele><time>2026-03-15T11:43:40.999Z</time></trkpt><trkpt lat="45.54827016438846" lon="10.0520237705256"><ele>153.0</ele><time>2026-03-15T11:43:41.999Z</time></trkpt><trkpt lat="45.54821490422404" lon="10.05222522811529"><ele>152.33333333333334</ele><time>2026-03-15T11:43:42.998Z</time></trkpt><trkpt lat="45.54815232390719" lon="10.052465681689378"><ele>151.66666666666669</ele><time>2026-03-15T11:43:43.998Z</time></trkpt><trkpt lat="45.548094402722" lon="10.052662308038954"><ele>151.0</ele><time>2026-03-15T11:43:44.998Z</time></trkpt><trkpt lat="45.54804702528747" lon="10.052830895819714"><ele>151.0</ele><time>2026-03-15T11:43:45.998Z</time></trkpt><trkpt lat="45.548001580269684" lon="10.053013057820197"><ele>151.0</ele><time>2026-03-15T11:43:46.998Z</time></trkpt><trkpt lat="45.54796664824806" lon="10.05317361308085"><ele>151.0</ele><time>2026-03-15T11:43:47.998Z</time></trkpt><trkpt lat="45.547948064565794" lon="10.053321699049036"><ele>151.0</ele><time>2026-03-15T11:43:48.998Z</time></trkpt><trkpt lat="45.547912480357475" lon="10.053463502155795"><ele>150.4</ele><time>2026-03-15T11:43:49.998Z</time></trkpt><trkpt lat="45.54786909195428" lon="10.05358169042553"><ele>149.8</ele><time>2026-03-15T11:43:50.998Z</time></trkpt><trkpt lat="45.5478149615359" lon="10.053736877862763"><ele>149.20000000000002</ele><time>2026-03-15T11:43:51.998Z</time></trkpt><trkpt lat="45.54776491923225" lon="10.053878186203256"><ele>148.6</ele><time>2026-03-15T11:43:52.998Z</time></trkpt><trkpt lat="45.547720025529976" lon="10.053989273781198"><ele>148.0</ele><time>2026-03-15T11:43:53.998Z</time></trkpt><trkpt lat="45.54768109395409" lon="10.054084981498177"><ele>148.33333333333334</ele><time>2026-03-15T11:43:54.998Z</time></trkpt><trkpt lat="45.54764811141353" lon="10.054189636737258"><ele>148.66666666666669</ele><time>2026-03-15T11:43:55.998Z</time></trkpt><trkpt lat="45.54763721437297" lon="10.054283875299356"><ele>149.0</ele><time>2026-03-15T11:43:56.998Z</time></trkpt><trkpt lat="45.54765602545534" lon="10.054437825576233"><ele>149.33333333333334</ele><time>2026-03-15T11:43:58.998Z</time></trkpt><trkpt lat="45.54772427319857" lon="10.054461532018692"><ele>149.66666666666666</ele><time>2026-03-15T11:43:59.998Z</time></trkpt><trkpt lat="45.54778578444113" lon="10.054426321381815"><ele>150.0</ele><time>2026-03-15T11:44:00.998Z</time></trkpt><trkpt lat="45.54794009411014" lon="10.054458784341367"><ele>150.0</ele><time>2026-03-15T11:44:02.998Z</time></trkpt><trkpt lat="45.548027532300914" lon="10.054476843445787"><ele>150.0</ele><time>2026-03-15T11:44:03.998Z</time></trkpt><trkpt lat="45.548138131888564" lon="10.054496709476602"><ele>150.0</ele><time>2026-03-15T11:44:04.998Z</time></trkpt><trkpt lat="45.54827278638265" lon="10.054520896270446"><ele>150.0</ele><time>2026-03-15T11:44:05.998Z</time></trkpt><trkpt lat="45.548436964193485" lon="10.054551374598622"><ele>150.0</ele><time>2026-03-15T11:44:06.998Z</time></trkpt><trkpt lat="45.54860587136935" lon="10.054583163310047"><ele>150.0</ele><time>2026-03-15T11:44:07.998Z</time></trkpt><trkpt lat="45.548789193512974" lon="10.054614238862305"><ele>150.0</ele><time>2026-03-15T11:44:08.998Z</time></trkpt><trkpt lat="45.54896021843156" lon="10.054639992867124"><ele>150.0</ele><time>2026-03-15T11:44:09.998Z</time></trkpt><trkpt lat="45.54910539559016" lon="10.054660236783288"><ele>150.0</ele><time>2026-03-15T11:44:10.998Z</time></trkpt><trkpt lat="45.5492414104403" lon="10.0546796392299"><ele>150.0</ele><time>2026-03-15T11:44:11.998Z</time></trkpt><trkpt lat="45.54938994133784" lon="10.05469677673493"><ele>150.0</ele><time>2026-03-15T11:44:12.998Z</time></trkpt><trkpt lat="45.54956752753003" lon="10.054729223303653"><ele>150.0</ele><time>2026-03-15T11:44:13.998Z</time></trkpt><trkpt lat="45.549742284685024" lon="10.054772906472309"><ele>150.0</ele><time>2026-03-15T11:44:14.998Z</time></trkpt><trkpt lat="45.54993577537496" lon="10.054808711762329"><ele>150.0</ele><time>2026-03-15T11:44:15.998Z</time></trkpt><trkpt lat="45.5500969667323" lon="10.054827232950302"><ele>150.0</ele><time>2026-03-15T11:44:16.998Z</time></trkpt><trkpt lat="45.55024599546383" lon="10.054851757387707"><ele>150.0</ele><time>2026-03-15T11:44:17.998Z</time></trkpt><trkpt lat="45.55041561348593" lon="10.054876253570304"><ele>150.0</ele><time>2026-03-15T11:44:18.998Z</time></trkpt><trkpt lat="45.55056195825443" lon="10.054879542642132"><ele>150.75</ele><time>2026-03-15T11:44:19.998Z</time></trkpt><trkpt lat="45.55069148495993" lon="10.054901032108951"><ele>151.5</ele><time>2026-03-15T11:44:20.998Z</time></trkpt><trkpt lat="45.55081085237268" lon="10.054920836225941"><ele>152.25</ele><time>2026-03-15T11:44:21.998Z</time></trkpt><trkpt lat="45.55092103841756" lon="10.054939117071843"><ele>153.0</ele><time>2026-03-15T11:44:22.998Z</time></trkpt><trkpt lat="45.55102485858396" lon="10.054956334799328"><ele>153.0</ele><time>2026-03-15T11:44:23.998Z</time></trkpt><trkpt lat="45.55115513735651" lon="10.054971752273577"><ele>153.0</ele><time>2026-03-15T11:44:24.998Z</time></trkpt><trkpt lat="45.55127385945892" lon="10.05500073142098"><ele>153.0</ele><time>2026-03-15T11:44:25.997Z</time></trkpt><trkpt lat="45.55140400132483" lon="10.055031778697595"><ele>153.0</ele><time>2026-03-15T11:44:26.997Z</time></trkpt><trkpt lat="45.55156339454348" lon="10.055077854227923"><ele>153.0</ele><time>2026-03-15T11:44:27.997Z</time></trkpt><trkpt lat="45.55175648923386" lon="10.055146165506182"><ele>153.0</ele><time>2026-03-15T11:44:28.997Z</time></trkpt><trkpt lat="45.55194503010043" lon="10.055223713468473"><ele>153.0</ele><time>2026-03-15T11:44:29.997Z</time></trkpt><trkpt lat="45.55210624314202" lon="10.055292999077194"><ele>153.0</ele><time>2026-03-15T11:44:30.997Z</time></trkpt><trkpt lat="45.55224821581024" lon="10.055357994214813"><ele>153.0</ele><time>2026-03-15T11:44:31.997Z</time></trkpt><trkpt lat="45.55237702862136" lon="10.055423345721168"><ele>153.0</ele><time>2026-03-15T11:44:32.997Z</time></trkpt><trkpt lat="45.5525129958819" lon="10.055504282724545"><ele>153.0</ele><time>2026-03-15T11:44:33.997Z</time></trkpt><trkpt lat="45.55263993363589" lon="10.055593874169189"><ele>153.0</ele><time>2026-03-15T11:44:34.997Z</time></trkpt><trkpt lat="45.55276871515519" lon="10.055692371552968"><ele>153.0</ele><time>2026-03-15T11:44:35.997Z</time></trkpt><trkpt lat="45.552895244138256" lon="10.055766842976345"><ele>153.0</ele><time>2026-03-15T11:44:36.997Z</time></trkpt><trkpt lat="45.55303296162021" lon="10.055836551099496"><ele>153.0</ele><time>2026-03-15T11:44:37.997Z</time></trkpt><trkpt lat="45.55314775495878" lon="10.055924749232599"><ele>153.75</ele><time>2026-03-15T11:44:38.997Z</time></trkpt><trkpt lat="45.55325517161966" lon="10.055988098138553"><ele>154.5</ele><time>2026-03-15T11:44:39.997Z</time></trkpt><trkpt lat="45.55335303930651" lon="10.056032700130984"><ele>155.25</ele><time>2026-03-15T11:44:40.997Z</time></trkpt><trkpt lat="45.55346026952256" lon="10.056076220195425"><ele>156.0</ele><time>2026-03-15T11:44:41.997Z</time></trkpt><trkpt lat="45.55359302579721" lon="10.05613675919274"><ele>156.4</ele><time>2026-03-15T11:44:42.997Z</time></trkpt><trkpt lat="45.55371782035271" lon="10.056205107195932"><ele>156.8</ele><time>2026-03-15T11:44:43.997Z</time></trkpt><trkpt lat="45.55382466704121" lon="10.056240604652126"><ele>157.20000000000002</ele><time>2026-03-15T11:44:44.997Z</time></trkpt><trkpt lat="45.55392701248799" lon="10.056257612488555"><ele>157.6</ele><time>2026-03-15T11:44:45.997Z</time></trkpt><trkpt lat="45.554020307981844" lon="10.056255273034026"><ele>158.0</ele><time>2026-03-15T11:44:46.997Z</time></trkpt><trkpt lat="45.554126574828175" lon="10.056260357180186"><ele>158.0</ele><time>2026-03-15T11:44:47.997Z</time></trkpt><trkpt lat="45.55421847338955" lon="10.056277140057757"><ele>158.0</ele><time>2026-03-15T11:44:48.997Z</time></trkpt><trkpt lat="45.55428854911045" lon="10.056299335079425"><ele>158.0</ele><time>2026-03-15T11:44:49.997Z</time></trkpt><trkpt lat="45.554358626846565" lon="10.056322107087775"><ele>158.0</ele><time>2026-03-15T11:44:51Z</time></trkpt><trkpt lat="45.55447323264288" lon="10.056356465017497"><ele>158.0</ele><time>2026-03-15T11:44:53Z</time></trkpt><trkpt lat="45.554540653021014" lon="10.056345731984655"><ele>158.0</ele><time>2026-03-15T11:44:56Z</time></trkpt><trkpt lat="45.55453773128021" lon="10.056231975696315"><ele>158.0</ele><time>2026-03-15T11:45:09Z</time></trkpt><trkpt lat="45.55446571180103" lon="10.056146394655029"><ele>158.0</ele><time>2026-03-15T11:45:11Z</time></trkpt><trkpt lat="45.55436147129325" lon="10.0561223982543"><ele>158.0</ele><time>2026-03-15T11:45:13Z</time></trkpt><trkpt lat="45.55425795380085" lon="10.056089447207075"><ele>158.0</ele><time>2026-03-15T11:45:15Z</time></trkpt><trkpt lat="45.55417264736336" lon="10.056044827613173"><ele>158.0</ele><time>2026-03-15T11:45:17Z</time></trkpt><trkpt lat="45.554136157502704" lon="10.05595949237314"><ele>158.0</ele><time>2026-03-15T11:45:19.999Z</time></trkpt><trkpt lat="45.554062995798155" lon="10.055974510106296"><ele>158.0</ele><time>2026-03-15T11:45:23.999Z</time></trkpt><trkpt lat="45.554104692309515" lon="10.05605752895974"><ele>158.0</ele><time>2026-03-15T11:45:26.999Z</time></trkpt><trkpt lat="45.554184308220194" lon="10.056081020147696"><ele>158.0</ele><time>2026-03-15T11:45:28.999Z</time></trkpt><trkpt lat="45.55426958259718" lon="10.056078853737876"><ele>158.0</ele><time>2026-03-15T11:45:29.999Z</time></trkpt><trkpt lat="45.55433333404973" lon="10.056096780720505"><ele>158.0</ele><time>2026-03-15T11:45:30.999Z</time></trkpt><trkpt lat="45.55443518646213" lon="10.05613895036708"><ele>158.0</ele><time>2026-03-15T11:45:32.999Z</time></trkpt><trkpt lat="45.55451904635823" lon="10.056185678116984"><ele>158.0</ele><time>2026-03-15T11:45:35.999Z</time></trkpt><trkpt lat="45.55454188774469" lon="10.056274221666374"><ele>158.0</ele><time>2026-03-15T11:45:37.999Z</time></trkpt><trkpt lat="45.55448502149084" lon="10.056339897592446"><ele>158.0</ele><time>2026-03-15T11:45:39.999Z</time></trkpt><trkpt lat="45.554319079514876" lon="10.05631072189252"><ele>158.0</ele><time>2026-03-15T11:45:41.999Z</time></trkpt><trkpt lat="45.554175162223046" lon="10.056259512089143"><ele>158.0</ele><time>2026-03-15T11:45:42.999Z</time></trkpt><trkpt lat="45.55402003405767" lon="10.056227227463529"><ele>158.0</ele><time>2026-03-15T11:45:43.999Z</time></trkpt><trkpt lat="45.5538507152817" lon="10.05620052488961"><ele>158.0</ele><time>2026-03-15T11:45:44.999Z</time></trkpt><trkpt lat="45.55367044087716" lon="10.056162034712193"><ele>157.33333333333331</ele><time>2026-03-15T11:45:45.999Z</time></trkpt><trkpt lat="45.5535258213097" lon="10.056105521922825"><ele>156.66666666666666</ele><time>2026-03-15T11:45:46.999Z</time></trkpt><trkpt lat="45.55337484952435" lon="10.056027752942056"><ele>156.0</ele><time>2026-03-15T11:45:47.999Z</time></trkpt><trkpt lat="45.55318977507858" lon="10.055934346326946"><ele>156.0</ele><time>2026-03-15T11:45:48.999Z</time></trkpt><trkpt lat="45.55294990963206" lon="10.056068248668325"><ele>156.0</ele><time>2026-03-15T11:45:49.999Z</time></trkpt><trkpt lat="45.552780934505456" lon="10.055975201748709"><ele>156.0</ele><time>2026-03-15T11:45:50.999Z</time></trkpt><trkpt lat="45.55264033066956" lon="10.055900431230539"><ele>155.0</ele><time>2026-03-15T11:45:51.999Z</time></trkpt><trkpt lat="45.55249236071465" lon="10.055827636778359"><ele>154.0</ele><time>2026-03-15T11:45:52.999Z</time></trkpt><trkpt lat="45.55235432228839" lon="10.055760000953812"><ele>153.0</ele><time>2026-03-15T11:45:53.999Z</time></trkpt><trkpt lat="45.552201978532345" lon="10.055687726652746"><ele>153.0</ele><time>2026-03-15T11:45:54.999Z</time></trkpt><trkpt lat="45.552042692786955" lon="10.055614890132043"><ele>153.0</ele><time>2026-03-15T11:45:55.999Z</time></trkpt><trkpt lat="45.55188863080727" lon="10.055550541272897"><ele>153.0</ele><time>2026-03-15T11:45:56.999Z</time></trkpt><trkpt lat="45.55174639642433" lon="10.055491052863879"><ele>153.0</ele><time>2026-03-15T11:45:57.999Z</time></trkpt><trkpt lat="45.55148292815618" lon="10.0553915038547"><ele>153.0</ele><time>2026-03-15T11:45:58.999Z</time></trkpt><trkpt lat="45.55132664711073" lon="10.055332561332403"><ele>153.0</ele><time>2026-03-15T11:45:59.999Z</time></trkpt><trkpt lat="45.551159480362195" lon="10.055269931401275"><ele>153.0</ele><time>2026-03-15T11:46:00.999Z</time></trkpt><trkpt lat="45.5509966521678" lon="10.055212657825365"><ele>153.0</ele><time>2026-03-15T11:46:01.999Z</time></trkpt><trkpt lat="45.5508148778927" lon="10.055153413800038"><ele>153.0</ele><time>2026-03-15T11:46:02.999Z</time></trkpt><trkpt lat="45.55061816253033" lon="10.055092945973746"><ele>153.0</ele><time>2026-03-15T11:46:03.998Z</time></trkpt><trkpt lat="45.5503786401761" lon="10.055022623460207"><ele>153.0</ele><time>2026-03-15T11:46:04.998Z</time></trkpt><trkpt lat="45.550177284001165" lon="10.054966555142947"><ele>152.0</ele><time>2026-03-15T11:46:05.998Z</time></trkpt><trkpt lat="45.550004648747084" lon="10.054921454553572"><ele>151.0</ele><time>2026-03-15T11:46:06.998Z</time></trkpt><trkpt lat="45.549843387643044" lon="10.054879837050173"><ele>150.0</ele><time>2026-03-15T11:46:07.998Z</time></trkpt><trkpt lat="45.54966757480174" lon="10.054837116541416"><ele>150.0</ele><time>2026-03-15T11:46:08.998Z</time></trkpt><trkpt lat="45.54948799371706" lon="10.054798339029903"><ele>150.0</ele><time>2026-03-15T11:46:09.998Z</time></trkpt><trkpt lat="45.54930294372578" lon="10.054762365039487"><ele>150.0</ele><time>2026-03-15T11:46:10.998Z</time></trkpt><trkpt lat="45.54914156160605" lon="10.054732649543523"><ele>150.0</ele><time>2026-03-15T11:46:11.998Z</time></trkpt><trkpt lat="45.54896514621166" lon="10.054701109317307"><ele>150.0</ele><time>2026-03-15T11:46:12.998Z</time></trkpt><trkpt lat="45.548767897789496" lon="10.054666116544716"><ele>150.0</ele><time>2026-03-15T11:46:13.998Z</time></trkpt><trkpt lat="45.5485424487412" lon="10.054626120844654"><ele>150.0</ele><time>2026-03-15T11:46:14.998Z</time></trkpt><trkpt lat="45.5483615853624" lon="10.054594034854187"><ele>150.0</ele><time>2026-03-15T11:46:15.998Z</time></trkpt><trkpt lat="45.54820340873943" lon="10.05456598157442"><ele>150.0</ele><time>2026-03-15T11:46:16.998Z</time></trkpt><trkpt lat="45.54807141302767" lon="10.054542817654983"><ele>150.0</ele><time>2026-03-15T11:46:17.998Z</time></trkpt><trkpt lat="45.54797129290812" lon="10.054525550071455"><ele>150.0</ele><time>2026-03-15T11:46:18.998Z</time></trkpt><trkpt lat="45.54789012323061" lon="10.054511550874128"><ele>150.0</ele><time>2026-03-15T11:46:19.998Z</time></trkpt><trkpt lat="45.54782237122681" lon="10.054499865800649"><ele>150.0</ele><time>2026-03-15T11:46:20.998Z</time></trkpt><trkpt lat="45.54771122944531" lon="10.054480697330781"><ele>150.0</ele><time>2026-03-15T11:46:22.998Z</time></trkpt><trkpt lat="45.54762285448965" lon="10.054465455423308"><ele>150.0</ele><time>2026-03-15T11:46:24.998Z</time></trkpt><trkpt lat="45.54767074098173" lon="10.054127814016429"><ele>150.0</ele><time>2026-03-15T11:46:27.998Z</time></trkpt><trkpt lat="45.547709834458026" lon="10.054044286963315"><ele>150.0</ele><time>2026-03-15T11:46:28.998Z</time></trkpt><trkpt lat="45.547747013189195" lon="10.053951765727211"><ele>150.0</ele><time>2026-03-15T11:46:29.998Z</time></trkpt><trkpt lat="45.547803252558566" lon="10.053839181502541"><ele>150.0</ele><time>2026-03-15T11:46:31.998Z</time></trkpt><trkpt lat="45.54770519050644" lon="10.05377011295981"><ele>150.0</ele><time>2026-03-15T11:46:37.998Z</time></trkpt><trkpt lat="45.54760421557745" lon="10.05387106766903"><ele>150.0</ele><time>2026-03-15T11:46:39.998Z</time></trkpt><trkpt lat="45.5475542611532" lon="10.053928383057524"><ele>150.0</ele><time>2026-03-15T11:46:40.998Z</time></trkpt><trkpt lat="45.547509356724" lon="10.054007394305332"><ele>150.0</ele><time>2026-03-15T11:46:41.998Z</time></trkpt><trkpt lat="45.54747346713913" lon="10.054096810738976"><ele>150.0</ele><time>2026-03-15T11:46:42.998Z</time></trkpt><trkpt lat="45.5474504303029" lon="10.0541969774366"><ele>149.99999999999997</ele><time>2026-03-15T11:46:43.998Z</time></trkpt><trkpt lat="45.54744075013342" lon="10.054297745069107"><ele>150.0</ele><time>2026-03-15T11:46:44.998Z</time></trkpt><trkpt lat="45.547440324201254" lon="10.054404079909853"><ele>150.0</ele><time>2026-03-15T11:46:45.998Z</time></trkpt><trkpt lat="45.54744302236617" lon="10.05450288541183"><ele>150.0</ele><time>2026-03-15T11:46:46.997Z</time></trkpt><trkpt lat="45.54743947073841" lon="10.05460414780899"><ele>150.0</ele><time>2026-03-15T11:46:47.997Z</time></trkpt><trkpt lat="45.547427920717624" lon="10.054702507764988"><ele>149.99999999999997</ele><time>2026-03-15T11:46:48.997Z</time></trkpt><trkpt lat="45.54741895464068" lon="10.05480909438713"><ele>150.0</ele><time>2026-03-15T11:46:49.997Z</time></trkpt><trkpt lat="45.547412487837484" lon="10.05492100286158"><ele>150.4</ele><time>2026-03-15T11:46:50.997Z</time></trkpt><trkpt lat="45.547402401269366" lon="10.055035411437407"><ele>150.8</ele><time>2026-03-15T11:46:51.997Z</time></trkpt><trkpt lat="45.54738808242801" lon="10.055159529736883"><ele>151.2</ele><time>2026-03-15T11:46:52.997Z</time></trkpt><trkpt lat="45.54736023011775" lon="10.055321730951816"><ele>151.6</ele><time>2026-03-15T11:46:54.997Z</time></trkpt><trkpt lat="45.54742044508588" lon="10.055413631100686"><ele>152.0</ele><time>2026-03-15T11:46:57Z</time></trkpt><trkpt lat="45.547556883873135" lon="10.055433077148693"><ele>152.0</ele><time>2026-03-15T11:46:59Z</time></trkpt><trkpt lat="45.54768276648092" lon="10.055449407074127"><ele>152.0</ele><time>2026-03-15T11:47:00Z</time></trkpt><trkpt lat="45.54782729207169" lon="10.055467775482908"><ele>152.0</ele><time>2026-03-15T11:47:01Z</time></trkpt><trkpt lat="45.54794362182546" lon="10.055487101204577"><ele>152.0</ele><time>2026-03-15T11:47:02Z</time></trkpt><trkpt lat="45.54803973791948" lon="10.05550190723196"><ele>152.0</ele><time>2026-03-15T11:47:03Z</time></trkpt><trkpt lat="45.54812565903028" lon="10.055503461788373"><ele>152.0</ele><time>2026-03-15T11:47:04Z</time></trkpt><trkpt lat="45.54820271552398" lon="10.055491558602073"><ele>152.0</ele><time>2026-03-15T11:47:05Z</time></trkpt><trkpt lat="45.54826656453439" lon="10.055452269746846"><ele>152.0</ele><time>2026-03-15T11:47:06Z</time></trkpt><trkpt lat="45.54831403897569" lon="10.055383309390267"><ele>152.0</ele><time>2026-03-15T11:47:07Z</time></trkpt><trkpt lat="45.54835730880937" lon="10.055286528771367"><ele>152.0</ele><time>2026-03-15T11:47:08Z</time></trkpt><trkpt lat="45.5483946273494" lon="10.055210031438369"><ele>152.0</ele><time>2026-03-15T11:47:09Z</time></trkpt><trkpt lat="45.548475850554404" lon="10.055171757146725"><ele>152.0</ele><time>2026-03-15T11:47:11Z</time></trkpt><trkpt lat="45.54854507145885" lon="10.054994606944636"><ele>152.0</ele><time>2026-03-15T11:47:12Z</time></trkpt><trkpt lat="45.54863618725421" lon="10.055011071575331"><ele>152.0</ele><time>2026-03-15T11:47:13Z</time></trkpt><trkpt lat="45.548769056523824" lon="10.05503508103632"><ele>152.0</ele><time>2026-03-15T11:47:14Z</time></trkpt><trkpt lat="45.54890981458655" lon="10.055060516016074"><ele>151.75</ele><time>2026-03-15T11:47:15Z</time></trkpt><trkpt lat="45.5490389143041" lon="10.055083844306944"><ele>151.5</ele><time>2026-03-15T11:47:16Z</time></trkpt><trkpt lat="45.549146390424696" lon="10.055103265251715"><ele>151.25</ele><time>2026-03-15T11:47:17Z</time></trkpt><trkpt lat="45.54926954468956" lon="10.05512776746592"><ele>151.0</ele><time>2026-03-15T11:47:18Z</time></trkpt><trkpt lat="45.5493968158514" lon="10.05515469931813"><ele>150.66666666666669</ele><time>2026-03-15T11:47:19Z</time></trkpt><trkpt lat="45.54954771466922" lon="10.055186631037762"><ele>150.33333333333334</ele><time>2026-03-15T11:47:20Z</time></trkpt><trkpt lat="45.54971949680473" lon="10.05522374407189"><ele>150.0</ele><time>2026-03-15T11:47:21Z</time></trkpt><trkpt lat="45.54988308356133" lon="10.055260922704807"><ele>150.0</ele><time>2026-03-15T11:47:22Z</time></trkpt><trkpt lat="45.55004748400458" lon="10.055302349834296"><ele>150.0</ele><time>2026-03-15T11:47:23Z</time></trkpt><trkpt lat="45.5502281074159" lon="10.055351173649917"><ele>150.0</ele><time>2026-03-15T11:47:24Z</time></trkpt><trkpt lat="45.55038944792737" lon="10.055394785154492"><ele>151.0</ele><time>2026-03-15T11:47:25Z</time></trkpt><trkpt lat="45.55053946250424" lon="10.055435428427787"><ele>152.0</ele><time>2026-03-15T11:47:26Z</time></trkpt><trkpt lat="45.55069723759808" lon="10.055480622938264"><ele>153.0</ele><time>2026-03-15T11:47:27Z</time></trkpt><trkpt lat="45.55087075576384" lon="10.055539334986324"><ele>153.0</ele><time>2026-03-15T11:47:28Z</time></trkpt><trkpt lat="45.55104565390482" lon="10.055608605565263"><ele>153.0</ele><time>2026-03-15T11:47:29Z</time></trkpt><trkpt lat="45.55122624203758" lon="10.055680129711998"><ele>153.0</ele><time>2026-03-15T11:47:30Z</time></trkpt><trkpt lat="45.55138518597775" lon="10.055743081457077"><ele>152.75</ele><time>2026-03-15T11:47:31Z</time></trkpt><trkpt lat="45.5515205479213" lon="10.055796693202891"><ele>152.5</ele><time>2026-03-15T11:47:32Z</time></trkpt><trkpt lat="45.5516600001765" lon="10.055851924907824"><ele>152.25</ele><time>2026-03-15T11:47:33Z</time></trkpt><trkpt lat="45.55178696519288" lon="10.055902211048458"><ele>152.0</ele><time>2026-03-15T11:47:34Z</time></trkpt><trkpt lat="45.55189797096566" lon="10.055948033290795"><ele>152.0</ele><time>2026-03-15T11:47:35Z</time></trkpt><trkpt lat="45.55196861796303" lon="10.055979573001947"><ele>152.0</ele><time>2026-03-15T11:47:36Z</time></trkpt><trkpt lat="45.55204202634236" lon="10.05601307333621"><ele>152.0</ele><time>2026-03-15T11:47:37Z</time></trkpt><trkpt lat="45.552111256120725" lon="10.056045549487571"><ele>152.0</ele><time>2026-03-15T11:47:38Z</time></trkpt><trkpt lat="45.55217534124169" lon="10.05607662762023"><ele>152.0</ele><time>2026-03-15T11:47:39Z</time></trkpt><trkpt lat="45.55228210735047" lon="10.056128956746885"><ele>152.0</ele><time>2026-03-15T11:47:40.999Z</time></trkpt><trkpt lat="45.55236278492628" lon="10.05617093662188"><ele>152.25</ele><time>2026-03-15T11:47:42.999Z</time></trkpt><trkpt lat="45.55242584387164" lon="10.05620374876126"><ele>152.5</ele><time>2026-03-15T11:47:44.999Z</time></trkpt><trkpt lat="45.55235464719769" lon="10.056505754340074"><ele>152.75</ele><time>2026-03-15T11:47:52.999Z</time></trkpt><trkpt lat="45.55226166302506" lon="10.05645367044355"><ele>153.0</ele><time>2026-03-15T11:47:54.999Z</time></trkpt><trkpt lat="45.55219763412038" lon="10.0564345290971"><ele>153.0</ele><time>2026-03-15T11:47:55.999Z</time></trkpt><trkpt lat="45.55210477333708" lon="10.056390111289254"><ele>153.0</ele><time>2026-03-15T11:47:57.999Z</time></trkpt><trkpt lat="45.55204193120989" lon="10.056335663639093"><ele>153.0</ele><time>2026-03-15T11:47:59.999Z</time></trkpt><trkpt lat="45.55193584005075" lon="10.056264417170603"><ele>153.0</ele><time>2026-03-15T11:48:01.999Z</time></trkpt><trkpt lat="45.551840069038676" lon="10.056190506948493"><ele>153.0</ele><time>2026-03-15T11:48:03.999Z</time></trkpt><trkpt lat="45.55177841358589" lon="10.056152157824636"><ele>152.83333333333334</ele><time>2026-03-15T11:48:05.999Z</time></trkpt><trkpt lat="45.55171444890381" lon="10.056107095203902"><ele>152.66666666666666</ele><time>2026-03-15T11:48:07.999Z</time></trkpt><trkpt lat="45.55164955808727" lon="10.056074553127313"><ele>152.5</ele><time>2026-03-15T11:48:08.999Z</time></trkpt><trkpt lat="45.551571962891984" lon="10.056035593048158"><ele>152.33333333333331</ele><time>2026-03-15T11:48:09.999Z</time></trkpt><trkpt lat="45.55149239965269" lon="10.055998680094083"><ele>152.16666666666666</ele><time>2026-03-15T11:48:10.999Z</time></trkpt><trkpt lat="45.551408959629285" lon="10.055956550088519"><ele>152.0</ele><time>2026-03-15T11:48:11.999Z</time></trkpt><trkpt lat="45.55132549509223" lon="10.055922383711028"><ele>152.0</ele><time>2026-03-15T11:48:12.999Z</time></trkpt><trkpt lat="45.551213876154364" lon="10.05588053494576"><ele>152.0</ele><time>2026-03-15T11:48:13.999Z</time></trkpt><trkpt lat="45.55107615913397" lon="10.055834107361262"><ele>152.0</ele><time>2026-03-15T11:48:14.999Z</time></trkpt><trkpt lat="45.55091440370824" lon="10.055780472247626"><ele>152.0</ele><time>2026-03-15T11:48:15.999Z</time></trkpt><trkpt lat="45.55075272082776" lon="10.055734327645665"><ele>152.33333333333331</ele><time>2026-03-15T11:48:16.999Z</time></trkpt><trkpt lat="45.550589475842465" lon="10.055673076148793"><ele>152.66666666666666</ele><time>2026-03-15T11:48:17.999Z</time></trkpt><trkpt lat="45.55041981355139" lon="10.055616515992"><ele>153.0</ele><time>2026-03-15T11:48:18.999Z</time></trkpt><trkpt lat="45.550232583284014" lon="10.055568204850108"><ele>152.0</ele><time>2026-03-15T11:48:19.999Z</time></trkpt><trkpt lat="45.55001575834628" lon="10.055520999197741"><ele>151.0</ele><time>2026-03-15T11:48:20.999Z</time></trkpt><trkpt lat="45.549826758945656" lon="10.055472106962979"><ele>150.0</ele><time>2026-03-15T11:48:21.999Z</time></trkpt><trkpt lat="45.54967228783173" lon="10.055442945476901"><ele>150.25</ele><time>2026-03-15T11:48:22.998Z</time></trkpt><trkpt lat="45.54952808212719" lon="10.055415408779908"><ele>150.5</ele><time>2026-03-15T11:48:23.998Z</time></trkpt><trkpt lat="45.54939567369921" lon="10.055391463711876"><ele>150.75</ele><time>2026-03-15T11:48:24.998Z</time></trkpt><trkpt lat="45.54927745185134" lon="10.055369088493366"><ele>151.0</ele><time>2026-03-15T11:48:25.998Z</time></trkpt><trkpt lat="45.54916613863643" lon="10.055329362149147"><ele>151.0</ele><time>2026-03-15T11:48:26.998Z</time></trkpt><trkpt lat="45.54904490483023" lon="10.055282874254655"><ele>151.0</ele><time>2026-03-15T11:48:27.998Z</time></trkpt><trkpt lat="45.54890678510041" lon="10.055248114320085"><ele>151.0</ele><time>2026-03-15T11:48:28.998Z</time></trkpt><trkpt lat="45.54875110466565" lon="10.055216268856643"><ele>151.0</ele><time>2026-03-15T11:48:29.998Z</time></trkpt><trkpt lat="45.548612622222144" lon="10.05519333354481"><ele>151.2</ele><time>2026-03-15T11:48:30.998Z</time></trkpt><trkpt lat="45.54850572256437" lon="10.05518421747934"><ele>151.39999999999998</ele><time>2026-03-15T11:48:31.998Z</time></trkpt><trkpt lat="45.548432151223984" lon="10.055187469500192"><ele>151.6</ele><time>2026-03-15T11:48:32.998Z</time></trkpt><trkpt lat="45.54833436176676" lon="10.055250808358572"><ele>151.79999999999998</ele><time>2026-03-15T11:48:34.998Z</time></trkpt><trkpt lat="45.548252725595795" lon="10.055410536278735"><ele>152.0</ele><time>2026-03-15T11:48:36.998Z</time></trkpt><trkpt lat="45.54818973069172" lon="10.055487450226048"><ele>152.0</ele><time>2026-03-15T11:48:37.998Z</time></trkpt><trkpt lat="45.548116648000274" lon="10.055503357028526"><ele>152.0</ele><time>2026-03-15T11:48:38.998Z</time></trkpt><trkpt lat="45.54800485527607" lon="10.055485947625469"><ele>152.0</ele><time>2026-03-15T11:48:39.998Z</time></trkpt><trkpt lat="45.54784756079439" lon="10.055452254218983"><ele>152.0</ele><time>2026-03-15T11:48:40.998Z</time></trkpt><trkpt lat="45.5477282624296" lon="10.055428555076192"><ele>152.0</ele><time>2026-03-15T11:48:41.998Z</time></trkpt><trkpt lat="45.54764276977369" lon="10.055411264585924"><ele>152.0</ele><time>2026-03-15T11:48:42.998Z</time></trkpt><trkpt lat="45.54755767368386" lon="10.055399410651184"><ele>152.0</ele><time>2026-03-15T11:48:43.998Z</time></trkpt><trkpt lat="45.54749001283544" lon="10.05539731237284"><ele>152.0</ele><time>2026-03-15T11:48:44.998Z</time></trkpt><trkpt lat="45.547427684658054" lon="10.055382333725866"><ele>152.0</ele><time>2026-03-15T11:48:45.998Z</time></trkpt><trkpt lat="45.547340772924116" lon="10.0554069348255"><ele>152.0</ele><time>2026-03-15T11:48:48.998Z</time></trkpt><trkpt lat="45.547280186222416" lon="10.055486475784072"><ele>152.0</ele><time>2026-03-15T11:48:49.998Z</time></trkpt><trkpt lat="45.54721157770172" lon="10.055592855706385"><ele>152.0</ele><time>2026-03-15T11:48:50.998Z</time></trkpt><trkpt lat="45.54712258132837" lon="10.055682447916643"><ele>152.0</ele><time>2026-03-15T11:48:51.998Z</time></trkpt><trkpt lat="45.54704439064346" lon="10.055810383647657"><ele>152.0</ele><time>2026-03-15T11:48:52.998Z</time></trkpt><trkpt lat="45.54698415217824" lon="10.055974730935068"><ele>151.25</ele><time>2026-03-15T11:48:53.998Z</time></trkpt><trkpt lat="45.546920283255375" lon="10.056129409039464"><ele>150.5</ele><time>2026-03-15T11:48:54.998Z</time></trkpt><trkpt lat="45.54685897984057" lon="10.056289362250734"><ele>149.75</ele><time>2026-03-15T11:48:55.998Z</time></trkpt><trkpt lat="45.546806085832635" lon="10.056439169953038"><ele>149.0</ele><time>2026-03-15T11:48:56.998Z</time></trkpt><trkpt lat="45.54674861195613" lon="10.056597653539816"><ele>148.75</ele><time>2026-03-15T11:48:57.998Z</time></trkpt><trkpt lat="45.54667717668463" lon="10.05679220480985"><ele>148.5</ele><time>2026-03-15T11:48:58.998Z</time></trkpt><trkpt lat="45.546600631391634" lon="10.056985550564722"><ele>148.25</ele><time>2026-03-15T11:48:59.998Z</time></trkpt><trkpt lat="45.54653661735434" lon="10.05715361870663"><ele>148.0</ele><time>2026-03-15T11:49:00.998Z</time></trkpt><trkpt lat="45.54648353731164" lon="10.057314729718826"><ele>148.0</ele><time>2026-03-15T11:49:01.998Z</time></trkpt><trkpt lat="45.546422539235934" lon="10.057501821555807"><ele>148.0</ele><time>2026-03-15T11:49:03Z</time></trkpt><trkpt lat="45.546360846999036" lon="10.057680092252225"><ele>148.0</ele><time>2026-03-15T11:49:04Z</time></trkpt><trkpt lat="45.54631737463984" lon="10.057845847106652"><ele>148.0</ele><time>2026-03-15T11:49:05Z</time></trkpt><trkpt lat="45.546281113111384" lon="10.058000060439364"><ele>148.0</ele><time>2026-03-15T11:49:06Z</time></trkpt><trkpt lat="45.546253012467744" lon="10.058173918098769"><ele>148.0</ele><time>2026-03-15T11:49:07Z</time></trkpt><trkpt lat="45.54621412737958" lon="10.058372597143023"><ele>148.0</ele><time>2026-03-15T11:49:08Z</time></trkpt><trkpt lat="45.54617149795575" lon="10.058558659243664"><ele>148.0</ele><time>2026-03-15T11:49:09Z</time></trkpt><trkpt lat="45.546144122238665" lon="10.058720999789683"><ele>148.0</ele><time>2026-03-15T11:49:10Z</time></trkpt><trkpt lat="45.54612500183595" lon="10.05886417735035"><ele>148.0</ele><time>2026-03-15T11:49:11Z</time></trkpt><trkpt lat="45.54612136085829" lon="10.059008196863727"><ele>148.0</ele><time>2026-03-15T11:49:12Z</time></trkpt><trkpt lat="45.54612649332069" lon="10.059150834244146"><ele>148.0</ele><time>2026-03-15T11:49:13Z</time></trkpt><trkpt lat="45.54615147041536" lon="10.059296842684875"><ele>148.0</ele><time>2026-03-15T11:49:14Z</time></trkpt><trkpt lat="45.54618049925976" lon="10.059411012629328"><ele>148.0</ele><time>2026-03-15T11:49:15Z</time></trkpt><trkpt lat="45.54620462372674" lon="10.059513245947064"><ele>148.0</ele><time>2026-03-15T11:49:16Z</time></trkpt><trkpt lat="45.546231386890554" lon="10.059611671231394"><ele>148.0</ele><time>2026-03-15T11:49:17Z</time></trkpt><trkpt lat="45.546271939763926" lon="10.0597105086815"><ele>148.0</ele><time>2026-03-15T11:49:18Z</time></trkpt><trkpt lat="45.546334007614014" lon="10.059799103071173"><ele>148.0</ele><time>2026-03-15T11:49:19Z</time></trkpt><trkpt lat="45.546421061877396" lon="10.059892246956979"><ele>148.0</ele><time>2026-03-15T11:49:20Z</time></trkpt><trkpt lat="45.54651465981395" lon="10.05998642050394"><ele>148.25</ele><time>2026-03-15T11:49:21Z</time></trkpt><trkpt lat="45.5466405514113" lon="10.060115415815932"><ele>148.5</ele><time>2026-03-15T11:49:22Z</time></trkpt><trkpt lat="45.546769324048206" lon="10.060228918407528"><ele>148.75</ele><time>2026-03-15T11:49:23Z</time></trkpt><trkpt lat="45.54688140902938" lon="10.060334937435043"><ele>149.0</ele><time>2026-03-15T11:49:24Z</time></trkpt><trkpt lat="45.54696823790637" lon="10.060411361432221"><ele>149.0</ele><time>2026-03-15T11:49:25Z</time></trkpt><trkpt lat="45.54705373085774" lon="10.060479078342928"><ele>149.0</ele><time>2026-03-15T11:49:26Z</time></trkpt><trkpt lat="45.5471147964234" lon="10.060534954343526"><ele>149.0</ele><time>2026-03-15T11:49:27Z</time></trkpt><trkpt lat="45.54720255698084" lon="10.060601285250927"><ele>149.0</ele><time>2026-03-15T11:49:28.999Z</time></trkpt><trkpt lat="45.547281656662435" lon="10.060665868280488"><ele>149.0</ele><time>2026-03-15T11:49:31.999Z</time></trkpt><trkpt lat="45.54735676385112" lon="10.060730943631155"><ele>149.0</ele><time>2026-03-15T11:49:33.999Z</time></trkpt><trkpt lat="45.547441359418706" lon="10.060788115926172"><ele>149.0</ele><time>2026-03-15T11:49:43.999Z</time></trkpt><trkpt lat="45.54754883092138" lon="10.060871115662412"><ele>149.0</ele><time>2026-03-15T11:49:45.999Z</time></trkpt><trkpt lat="45.547615214200455" lon="10.060919622782196"><ele>149.0</ele><time>2026-03-15T11:49:46.999Z</time></trkpt><trkpt lat="45.54768390635614" lon="10.060971191893877"><ele>149.0</ele><time>2026-03-15T11:49:47.999Z</time></trkpt><trkpt lat="45.54776901493848" lon="10.061047794709824"><ele>149.0</ele><time>2026-03-15T11:49:48.999Z</time></trkpt><trkpt lat="45.547844442934206" lon="10.061119877808606"><ele>149.2</ele><time>2026-03-15T11:49:49.999Z</time></trkpt><trkpt lat="45.54792017244264" lon="10.061200227492852"><ele>149.4</ele><time>2026-03-15T11:49:50.999Z</time></trkpt><trkpt lat="45.54798646569008" lon="10.061279165950667"><ele>149.6</ele><time>2026-03-15T11:49:51.999Z</time></trkpt><trkpt lat="45.54805973791282" lon="10.061377324310069"><ele>149.8</ele><time>2026-03-15T11:49:52.999Z</time></trkpt><trkpt lat="45.548144154299465" lon="10.061490780117682"><ele>150.0</ele><time>2026-03-15T11:49:53.999Z</time></trkpt><trkpt lat="45.54824345475809" lon="10.061645625059485"><ele>150.0</ele><time>2026-03-15T11:49:54.999Z</time></trkpt><trkpt lat="45.54837793075644" lon="10.061871117778448"><ele>150.0</ele><time>2026-03-15T11:49:55.999Z</time></trkpt><trkpt lat="45.548521769687284" lon="10.06213755230001"><ele>150.0</ele><time>2026-03-15T11:49:56.999Z</time></trkpt><trkpt lat="45.5486277181956" lon="10.062357712341253"><ele>150.0</ele><time>2026-03-15T11:49:57.998Z</time></trkpt><trkpt lat="45.548721305913276" lon="10.062544892829125"><ele>150.0</ele><time>2026-03-15T11:49:58.998Z</time></trkpt><trkpt lat="45.5488050080969" lon="10.062708728492636"><ele>150.0</ele><time>2026-03-15T11:49:59.998Z</time></trkpt><trkpt lat="45.54888246751657" lon="10.062867005622934"><ele>150.0</ele><time>2026-03-15T11:50:00.998Z</time></trkpt><trkpt lat="45.54894952791674" lon="10.063009142441837"><ele>150.0</ele><time>2026-03-15T11:50:01.998Z</time></trkpt><trkpt lat="45.549016597178934" lon="10.063144678266395"><ele>150.0</ele><time>2026-03-15T11:50:02.998Z</time></trkpt><trkpt lat="45.54908458250022" lon="10.06326386076604"><ele>150.0</ele><time>2026-03-15T11:50:03.998Z</time></trkpt><trkpt lat="45.549160017292145" lon="10.063388299718058"><ele>150.0</ele><time>2026-03-15T11:50:04.998Z</time></trkpt><trkpt lat="45.54922539958452" lon="10.063512848424184"><ele>150.0</ele><time>2026-03-15T11:50:05.998Z</time></trkpt><trkpt lat="45.54928237405055" lon="10.063634003936333"><ele>149.83333333333334</ele><time>2026-03-15T11:50:06.998Z</time></trkpt><trkpt lat="45.54933671017223" lon="10.063742854236573"><ele>149.66666666666666</ele><time>2026-03-15T11:50:07.998Z</time></trkpt><trkpt lat="45.54938325485192" lon="10.063839771382632"><ele>149.5</ele><time>2026-03-15T11:50:08.998Z</time></trkpt><trkpt lat="45.54943620476164" lon="10.063946591825246"><ele>149.33333333333331</ele><time>2026-03-15T11:50:09.998Z</time></trkpt><trkpt lat="45.549489953936884" lon="10.064054975709363"><ele>149.16666666666666</ele><time>2026-03-15T11:50:10.998Z</time></trkpt><trkpt lat="45.54953482091508" lon="10.064147819284189"><ele>149.0</ele><time>2026-03-15T11:50:11.998Z</time></trkpt><trkpt lat="45.54957740951169" lon="10.064229745707053"><ele>148.83333333333331</ele><time>2026-03-15T11:50:12.998Z</time></trkpt><trkpt lat="45.54961459154427" lon="10.064304062305716"><ele>148.66666666666666</ele><time>2026-03-15T11:50:13.998Z</time></trkpt><trkpt lat="45.549679344487934" lon="10.064434421963647"><ele>148.5</ele><time>2026-03-15T11:50:15.998Z</time></trkpt><trkpt lat="45.54971688414783" lon="10.06451177358947"><ele>148.33333333333334</ele><time>2026-03-15T11:50:16.998Z</time></trkpt><trkpt lat="45.54976146809081" lon="10.064602122472678"><ele>148.16666666666669</ele><time>2026-03-15T11:50:17.998Z</time></trkpt><trkpt lat="45.54980535115276" lon="10.06469119746752"><ele>148.0</ele><time>2026-03-15T11:50:18.998Z</time></trkpt><trkpt lat="45.54985804775454" lon="10.064798437670628"><ele>148.0</ele><time>2026-03-15T11:50:19.998Z</time></trkpt><trkpt lat="45.54989570042521" lon="10.064897733261565"><ele>148.0</ele><time>2026-03-15T11:50:20.998Z</time></trkpt><trkpt lat="45.549916217219625" lon="10.064988790475809"><ele>148.0</ele><time>2026-03-15T11:50:21.998Z</time></trkpt><trkpt lat="45.549937520225676" lon="10.065094852761312"><ele>148.0</ele><time>2026-03-15T11:50:22.998Z</time></trkpt><trkpt lat="45.549985547656" lon="10.065155254446566"><ele>148.0</ele><time>2026-03-15T11:50:23.998Z</time></trkpt><trkpt lat="45.54998285558009" lon="10.065330721178048"><ele>148.0</ele><time>2026-03-15T11:50:24.998Z</time></trkpt><trkpt lat="45.55000566212839" lon="10.065440290921265"><ele>148.16666666666669</ele><time>2026-03-15T11:50:29.998Z</time></trkpt><trkpt lat="45.54998038074064" lon="10.065533083218657"><ele>148.33333333333334</ele><time>2026-03-15T11:50:30.998Z</time></trkpt><trkpt lat="45.54999046451217" lon="10.065648523127495"><ele>148.5</ele><time>2026-03-15T11:50:31.998Z</time></trkpt><trkpt lat="45.550026095873704" lon="10.065752133183667"><ele>148.66666666666666</ele><time>2026-03-15T11:50:32.998Z</time></trkpt><trkpt lat="45.5500890656399" lon="10.065831048828887"><ele>148.83333333333331</ele><time>2026-03-15T11:50:33.998Z</time></trkpt><trkpt lat="45.55017276304328" lon="10.065870814450056"><ele>149.0</ele><time>2026-03-15T11:50:34.998Z</time></trkpt><trkpt lat="45.55027505529472" lon="10.065865851792426"><ele>149.0</ele><time>2026-03-15T11:50:35.998Z</time></trkpt><trkpt lat="45.55042565040173" lon="10.065787953678647"><ele>149.0</ele><time>2026-03-15T11:50:36.998Z</time></trkpt><trkpt lat="45.55060652916152" lon="10.065747651968124"><ele>149.0</ele><time>2026-03-15T11:50:37.998Z</time></trkpt><trkpt lat="45.550789655354976" lon="10.06591216057818"><ele>149.33333333333331</ele><time>2026-03-15T11:50:38.998Z</time></trkpt><trkpt lat="45.550953470125144" lon="10.066046434301992"><ele>149.66666666666666</ele><time>2026-03-15T11:50:39.998Z</time></trkpt><trkpt lat="45.55110495268315" lon="10.066203389471559"><ele>150.0</ele><time>2026-03-15T11:50:40.998Z</time></trkpt><trkpt lat="45.55126717229078" lon="10.066345882422528"><ele>149.66666666666666</ele><time>2026-03-15T11:50:41.997Z</time></trkpt><trkpt lat="45.551444183106334" lon="10.06647132957496"><ele>149.33333333333331</ele><time>2026-03-15T11:50:42.997Z</time></trkpt><trkpt lat="45.55162080482745" lon="10.066585231130174"><ele>149.0</ele><time>2026-03-15T11:50:43.997Z</time></trkpt><trkpt lat="45.55177629383767" lon="10.066684530808338"><ele>149.0</ele><time>2026-03-15T11:50:44.997Z</time></trkpt><trkpt lat="45.55191774524227" lon="10.06679998408791"><ele>149.0</ele><time>2026-03-15T11:50:45.997Z</time></trkpt><trkpt lat="45.55203896516039" lon="10.066952692302939"><ele>149.0</ele><time>2026-03-15T11:50:46.997Z</time></trkpt><trkpt lat="45.552148126862356" lon="10.067149263473532"><ele>149.66666666666666</ele><time>2026-03-15T11:50:47.997Z</time></trkpt><trkpt lat="45.55225515385692" lon="10.067361353568444"><ele>150.33333333333334</ele><time>2026-03-15T11:50:48.997Z</time></trkpt><trkpt lat="45.5523733839761" lon="10.067554405428027"><ele>151.0</ele><time>2026-03-15T11:50:49.997Z</time></trkpt><trkpt lat="45.55249072288031" lon="10.067740649499894"><ele>151.0</ele><time>2026-03-15T11:50:50.997Z</time></trkpt><trkpt lat="45.55259031031396" lon="10.067903569037762"><ele>151.0</ele><time>2026-03-15T11:50:51.997Z</time></trkpt><trkpt lat="45.55267802355464" lon="10.068051549911829"><ele>151.0</ele><time>2026-03-15T11:50:52.997Z</time></trkpt><trkpt lat="45.552778286083715" lon="10.068186827064046"><ele>151.0</ele><time>2026-03-15T11:50:53.997Z</time></trkpt><trkpt lat="45.552941553303945" lon="10.068318389403876"><ele>151.66666666666669</ele><time>2026-03-15T11:50:54.997Z</time></trkpt><trkpt lat="45.55312874018033" lon="10.068481847451205"><ele>152.33333333333334</ele><time>2026-03-15T11:50:55.997Z</time></trkpt><trkpt lat="45.5533075985513" lon="10.068650935077972"><ele>153.0</ele><time>2026-03-15T11:50:56.997Z</time></trkpt><trkpt lat="45.553481143242614" lon="10.068787856923223"><ele>153.0</ele><time>2026-03-15T11:50:57.997Z</time></trkpt><trkpt lat="45.553598912200854" lon="10.068857285598439"><ele>153.0</ele><time>2026-03-15T11:50:58.997Z</time></trkpt><trkpt lat="45.553742673098306" lon="10.06895248616772"><ele>153.0</ele><time>2026-03-15T11:50:59.997Z</time></trkpt><trkpt lat="45.55390336048556" lon="10.069040065904012"><ele>153.66666666666666</ele><time>2026-03-15T11:51:00.997Z</time></trkpt><trkpt lat="45.554068690659946" lon="10.069120558704366"><ele>154.33333333333331</ele><time>2026-03-15T11:51:01.997Z</time></trkpt><trkpt lat="45.55423926717182" lon="10.06918920800722"><ele>155.0</ele><time>2026-03-15T11:51:02.997Z</time></trkpt><trkpt lat="45.554388835467435" lon="10.069249088320053"><ele>155.0</ele><time>2026-03-15T11:51:03.997Z</time></trkpt><trkpt lat="45.554528153562806" lon="10.069314035447459"><ele>155.0</ele><time>2026-03-15T11:51:04.997Z</time></trkpt><trkpt lat="45.55468651125601" lon="10.069387424955089"><ele>155.0</ele><time>2026-03-15T11:51:05.997Z</time></trkpt><trkpt lat="45.55486245705365" lon="10.069450918206718"><ele>154.66666666666666</ele><time>2026-03-15T11:51:06.997Z</time></trkpt><trkpt lat="45.55504187140078" lon="10.06950197849256"><ele>154.33333333333334</ele><time>2026-03-15T11:51:07.997Z</time></trkpt><trkpt lat="45.555186162241746" lon="10.06953912711174"><ele>154.0</ele><time>2026-03-15T11:51:09Z</time></trkpt><trkpt lat="45.55530404435639" lon="10.069571681177294"><ele>154.25</ele><time>2026-03-15T11:51:10Z</time></trkpt><trkpt lat="45.555426094530915" lon="10.06960082553731"><ele>154.5</ele><time>2026-03-15T11:51:11Z</time></trkpt><trkpt lat="45.5555558145272" lon="10.069629242322556"><ele>154.75</ele><time>2026-03-15T11:51:12Z</time></trkpt><trkpt lat="45.55567956688083" lon="10.069652391353832"><ele>155.0</ele><time>2026-03-15T11:51:13Z</time></trkpt><trkpt lat="45.55578326095399" lon="10.069677868436678"><ele>155.0</ele><time>2026-03-15T11:51:14Z</time></trkpt><trkpt lat="45.55586020494306" lon="10.069697563833087"><ele>155.0</ele><time>2026-03-15T11:51:15Z</time></trkpt><trkpt lat="45.55593728316127" lon="10.069703166857332"><ele>155.0</ele><time>2026-03-15T11:51:18Z</time></trkpt><trkpt lat="45.55591301376836" lon="10.069873666173235"><ele>155.0</ele><time>2026-03-15T11:51:19Z</time></trkpt><trkpt lat="45.55590855065777" lon="10.070030025888492"><ele>155.0</ele><time>2026-03-15T11:51:20Z</time></trkpt><trkpt lat="45.555900123012634" lon="10.070182592894461"><ele>155.16666666666666</ele><time>2026-03-15T11:51:21Z</time></trkpt><trkpt lat="45.55589721138951" lon="10.070291481379824"><ele>155.33333333333331</ele><time>2026-03-15T11:51:22Z</time></trkpt><trkpt lat="45.555894434749916" lon="10.070388420301501"><ele>155.5</ele><time>2026-03-15T11:51:23Z</time></trkpt><trkpt lat="45.55588827302541" lon="10.070505133896788"><ele>155.66666666666666</ele><time>2026-03-15T11:51:24Z</time></trkpt><trkpt lat="45.55588332987283" lon="10.070655247307462"><ele>155.83333333333334</ele><time>2026-03-15T11:51:25Z</time></trkpt><trkpt lat="45.55587566621247" lon="10.070786486600195"><ele>156.0</ele><time>2026-03-15T11:51:26Z</time></trkpt><trkpt lat="45.55586338594567" lon="10.070874883841524"><ele>156.0</ele><time>2026-03-15T11:51:27Z</time></trkpt><trkpt lat="45.55585096817297" lon="10.070969242044502"><ele>156.0</ele><time>2026-03-15T11:51:33Z</time></trkpt><trkpt lat="45.55593525027742" lon="10.07095200578078"><ele>156.0</ele><time>2026-03-15T11:51:33.999Z</time></trkpt><trkpt lat="45.556002756055754" lon="10.07095556070647"><ele>156.0</ele><time>2026-03-15T11:51:34.999Z</time></trkpt><trkpt lat="45.55615039567079" lon="10.070974580975987"><ele>156.0</ele><time>2026-03-15T11:51:35.999Z</time></trkpt><trkpt lat="45.556325506643994" lon="10.070978436856123"><ele>156.0</ele><time>2026-03-15T11:51:36.999Z</time></trkpt><trkpt lat="45.5565355438977" lon="10.07098830822803"><ele>156.0</ele><time>2026-03-15T11:51:37.999Z</time></trkpt><trkpt lat="45.55668663609368" lon="10.071002183079507"><ele>156.0</ele><time>2026-03-15T11:51:38.999Z</time></trkpt><trkpt lat="45.556836359766756" lon="10.071018883846229"><ele>156.0</ele><time>2026-03-15T11:51:39.999Z</time></trkpt><trkpt lat="45.55698377660023" lon="10.071041209209605"><ele>156.0</ele><time>2026-03-15T11:51:40.999Z</time></trkpt><trkpt lat="45.55712815202494" lon="10.071033573882161"><ele>156.0</ele><time>2026-03-15T11:51:41.999Z</time></trkpt><trkpt lat="45.5572899128489" lon="10.071043675315048"><ele>156.0</ele><time>2026-03-15T11:51:42.999Z</time></trkpt><trkpt lat="45.557462340423335" lon="10.071052702918545"><ele>156.0</ele><time>2026-03-15T11:51:43.999Z</time></trkpt><trkpt lat="45.55767013090854" lon="10.071093848959025"><ele>156.0</ele><time>2026-03-15T11:51:44.999Z</time></trkpt><trkpt lat="45.557876222347694" lon="10.071100301818154"><ele>156.25</ele><time>2026-03-15T11:51:45.999Z</time></trkpt><trkpt lat="45.55803902474612" lon="10.071115056704109"><ele>156.5</ele><time>2026-03-15T11:51:46.999Z</time></trkpt><trkpt lat="45.55818877200886" lon="10.071121887256732"><ele>156.75</ele><time>2026-03-15T11:51:47.999Z</time></trkpt><trkpt lat="45.55832152895846" lon="10.0711256601706"><ele>157.0</ele><time>2026-03-15T11:51:48.999Z</time></trkpt><trkpt lat="45.55844461912403" lon="10.071111077787466"><ele>157.0</ele><time>2026-03-15T11:51:49.999Z</time></trkpt><trkpt lat="45.55855744053597" lon="10.071101390330487"><ele>157.0</ele><time>2026-03-15T11:51:50.999Z</time></trkpt><trkpt lat="45.55865689703613" lon="10.071140828363642"><ele>157.0</ele><time>2026-03-15T11:51:51.999Z</time></trkpt><trkpt lat="45.5587132579705" lon="10.071214408436179"><ele>157.0</ele><time>2026-03-15T11:51:52.999Z</time></trkpt><trkpt lat="45.55874097660672" lon="10.07133228508601"><ele>157.0</ele><time>2026-03-15T11:51:53.999Z</time></trkpt><trkpt lat="45.5587016902725" lon="10.071446339305673"><ele>157.0</ele><time>2026-03-15T11:51:54.999Z</time></trkpt><trkpt lat="45.55870667196534" lon="10.071567934028918"><ele>157.0</ele><time>2026-03-15T11:51:55.999Z</time></trkpt><trkpt lat="45.55868095646982" lon="10.071699165898334"><ele>157.0</ele><time>2026-03-15T11:51:56.999Z</time></trkpt><trkpt lat="45.55867004907468" lon="10.071868009821547"><ele>157.0</ele><time>2026-03-15T11:51:57.999Z</time></trkpt><trkpt lat="45.55866338862286" lon="10.072013418808128"><ele>157.0</ele><time>2026-03-15T11:51:58.999Z</time></trkpt><trkpt lat="45.55867358875076" lon="10.072156511687744"><ele>157.0</ele><time>2026-03-15T11:51:59.999Z</time></trkpt><trkpt lat="45.55865530206539" lon="10.072308359197391"><ele>157.0</ele><time>2026-03-15T11:52:00.999Z</time></trkpt><trkpt lat="45.558654555143406" lon="10.072454721741934"><ele>157.0</ele><time>2026-03-15T11:52:01.999Z</time></trkpt><trkpt lat="45.558654734367025" lon="10.072582227945423"><ele>157.0</ele><time>2026-03-15T11:52:02.999Z</time></trkpt><trkpt lat="45.558655628612435" lon="10.07270098375951"><ele>157.0</ele><time>2026-03-15T11:52:03.999Z</time></trkpt><trkpt lat="45.55867437860689" lon="10.072826482588754"><ele>157.0</ele><time>2026-03-15T11:52:04.999Z</time></trkpt><trkpt lat="45.558666265884845" lon="10.07293702818705"><ele>157.0</ele><time>2026-03-15T11:52:05.999Z</time></trkpt><trkpt lat="45.558680472436606" lon="10.073033472403441"><ele>157.0</ele><time>2026-03-15T11:52:09.999Z</time></trkpt><trkpt lat="45.55877582545187" lon="10.073067419928053"><ele>157.0</ele><time>2026-03-15T11:52:13.999Z</time></trkpt><trkpt lat="45.55892583684549" lon="10.07301712977828"><ele>157.0</ele><time>2026-03-15T11:52:14.999Z</time></trkpt><trkpt lat="45.55902784576157" lon="10.072999171271707"><ele>157.25</ele><time>2026-03-15T11:52:15.999Z</time></trkpt><trkpt lat="45.55912056412501" lon="10.072993015098369"><ele>157.5</ele><time>2026-03-15T11:52:16.999Z</time></trkpt><trkpt lat="45.55923615198811" lon="10.072984050734622"><ele>157.75</ele><time>2026-03-15T11:52:17.998Z</time></trkpt><trkpt lat="45.55938423537548" lon="10.072959523890463"><ele>158.0</ele><time>2026-03-15T11:52:18.998Z</time></trkpt><trkpt lat="45.55955203312301" lon="10.07292699243195"><ele>158.0</ele><time>2026-03-15T11:52:19.998Z</time></trkpt><trkpt lat="45.5597332002039" lon="10.072887643010546"><ele>158.0</ele><time>2026-03-15T11:52:20.998Z</time></trkpt><trkpt lat="45.55992185299817" lon="10.072844479645997"><ele>158.0</ele><time>2026-03-15T11:52:21.998Z</time></trkpt><trkpt lat="45.56009405984328" lon="10.07280434400951"><ele>158.0</ele><time>2026-03-15T11:52:22.998Z</time></trkpt><trkpt lat="45.56025284621915" lon="10.072765424984627"><ele>158.0</ele><time>2026-03-15T11:52:23.998Z</time></trkpt><trkpt lat="45.5604161329818" lon="10.072716177543544"><ele>158.0</ele><time>2026-03-15T11:52:24.998Z</time></trkpt><trkpt lat="45.560585903461615" lon="10.07265635609777"><ele>158.33333333333331</ele><time>2026-03-15T11:52:25.998Z</time></trkpt><trkpt lat="45.560751174987175" lon="10.072605523943121"><ele>158.66666666666666</ele><time>2026-03-15T11:52:26.998Z</time></trkpt><trkpt lat="45.56092411985106" lon="10.072562718304404"><ele>159.0</ele><time>2026-03-15T11:52:27.998Z</time></trkpt><trkpt lat="45.56107545113902" lon="10.072536682527529"><ele>158.25</ele><time>2026-03-15T11:52:28.998Z</time></trkpt><trkpt lat="45.56119979891536" lon="10.07252664884092"><ele>157.5</ele><time>2026-03-15T11:52:29.998Z</time></trkpt><trkpt lat="45.561316231191505" lon="10.072519251780403"><ele>156.75</ele><time>2026-03-15T11:52:30.998Z</time></trkpt><trkpt lat="45.561426777248734" lon="10.072510171415335"><ele>156.0</ele><time>2026-03-15T11:52:31.998Z</time></trkpt><trkpt lat="45.56152549626968" lon="10.072504834400359"><ele>156.0</ele><time>2026-03-15T11:52:32.998Z</time></trkpt><trkpt lat="45.56162707892274" lon="10.07250224736412"><ele>156.0</ele><time>2026-03-15T11:52:33.998Z</time></trkpt><trkpt lat="45.561735642175286" lon="10.07250531986939"><ele>156.0</ele><time>2026-03-15T11:52:34.998Z</time></trkpt><trkpt lat="45.56185122222505" lon="10.072521803461028"><ele>156.0</ele><time>2026-03-15T11:52:35.998Z</time></trkpt><trkpt lat="45.56197458452673" lon="10.072554950135164"><ele>156.5</ele><time>2026-03-15T11:52:36.998Z</time></trkpt><trkpt lat="45.56210464659288" lon="10.072604402110565"><ele>157.0</ele><time>2026-03-15T11:52:37.998Z</time></trkpt><trkpt lat="45.5622407396702" lon="10.07266455345535"><ele>157.5</ele><time>2026-03-15T11:52:38.998Z</time></trkpt><trkpt lat="45.562376148722045" lon="10.072740496885388"><ele>158.0</ele><time>2026-03-15T11:52:39.998Z</time></trkpt><trkpt lat="45.562511529795806" lon="10.072840443706795"><ele>158.0</ele><time>2026-03-15T11:52:40.998Z</time></trkpt><trkpt lat="45.56263899105426" lon="10.072941155753512"><ele>158.0</ele><time>2026-03-15T11:52:41.998Z</time></trkpt><trkpt lat="45.5627597095712" lon="10.07301633993187"><ele>158.0</ele><time>2026-03-15T11:52:42.998Z</time></trkpt><trkpt lat="45.56290632609461" lon="10.07304768444031"><ele>158.0</ele><time>2026-03-15T11:52:43.998Z</time></trkpt><trkpt lat="45.563051848066536" lon="10.073063510791542"><ele>158.20000000000002</ele><time>2026-03-15T11:52:44.998Z</time></trkpt><trkpt lat="45.563167111555686" lon="10.073080185336222"><ele>158.4</ele><time>2026-03-15T11:52:45.998Z</time></trkpt><trkpt lat="45.56327991250604" lon="10.073081497134408"><ele>158.60000000000002</ele><time>2026-03-15T11:52:46.998Z</time></trkpt><trkpt lat="45.5633760868017" lon="10.073050317409805"><ele>158.8</ele><time>2026-03-15T11:52:47.998Z</time></trkpt><trkpt lat="45.56344992007555" lon="10.073076835688088"><ele>159.0</ele><time>2026-03-15T11:52:48.998Z</time></trkpt><trkpt lat="45.5635371549685" lon="10.073089046887556"><ele>159.0</ele><time>2026-03-15T11:52:49.998Z</time></trkpt><trkpt lat="45.56364104818921" lon="10.073103589916235"><ele>159.0</ele><time>2026-03-15T11:52:50.998Z</time></trkpt><trkpt lat="45.563729176437356" lon="10.073093745849437"><ele>159.0</ele><time>2026-03-15T11:52:51.998Z</time></trkpt><trkpt lat="45.563816653788344" lon="10.07314869833847"><ele>159.0</ele><time>2026-03-15T11:52:52.998Z</time></trkpt><trkpt lat="45.56390546703763" lon="10.073184141751549"><ele>159.0</ele><time>2026-03-15T11:52:53.998Z</time></trkpt><trkpt lat="45.56398508083287" lon="10.073191720481002"><ele>159.2</ele><time>2026-03-15T11:52:54.998Z</time></trkpt><trkpt lat="45.564071420471635" lon="10.07320431983914"><ele>159.4</ele><time>2026-03-15T11:52:55.998Z</time></trkpt><trkpt lat="45.56417285036282" lon="10.073215119756098"><ele>159.6</ele><time>2026-03-15T11:52:56.998Z</time></trkpt><trkpt lat="45.56428788181944" lon="10.073230176093626"><ele>159.8</ele><time>2026-03-15T11:52:57.998Z</time></trkpt><trkpt lat="45.564414720037426" lon="10.073254073562051"><ele>160.0</ele><time>2026-03-15T11:52:58.998Z</time></trkpt><trkpt lat="45.56454806819413" lon="10.073286875240171"><ele>160.0</ele><time>2026-03-15T11:52:59.998Z</time></trkpt><trkpt lat="45.564689128664035" lon="10.073319886170463"><ele>160.0</ele><time>2026-03-15T11:53:00.998Z</time></trkpt><trkpt lat="45.56483891247272" lon="10.073343087583496"><ele>160.0</ele><time>2026-03-15T11:53:01.997Z</time></trkpt><trkpt lat="45.56499260699418" lon="10.073358914870143"><ele>160.0</ele><time>2026-03-15T11:53:02.997Z</time></trkpt><trkpt lat="45.565144604571444" lon="10.073360346204892"><ele>160.0</ele><time>2026-03-15T11:53:03.997Z</time></trkpt><trkpt lat="45.56527029912884" lon="10.073381793069494"><ele>160.0</ele><time>2026-03-15T11:53:04.997Z</time></trkpt><trkpt lat="45.56541965329001" lon="10.07340596626147"><ele>160.0</ele><time>2026-03-15T11:53:05.997Z</time></trkpt><trkpt lat="45.56556088624368" lon="10.073430841524788"><ele>160.0</ele><time>2026-03-15T11:53:06.997Z</time></trkpt><trkpt lat="45.565700191845345" lon="10.073454137199025"><ele>160.25</ele><time>2026-03-15T11:53:07.997Z</time></trkpt><trkpt lat="45.56583794705532" lon="10.073477503696326"><ele>160.5</ele><time>2026-03-15T11:53:08.997Z</time></trkpt><trkpt lat="45.56597379938303" lon="10.07349935592221"><ele>160.75</ele><time>2026-03-15T11:53:09.997Z</time></trkpt><trkpt lat="45.56611414142692" lon="10.073515920953387"><ele>161.0</ele><time>2026-03-15T11:53:10.997Z</time></trkpt><trkpt lat="45.56625419482197" lon="10.073534111422813"><ele>161.0</ele><time>2026-03-15T11:53:11.997Z</time></trkpt><trkpt lat="45.56639820361675" lon="10.073552824731115"><ele>161.0</ele><time>2026-03-15T11:53:12.997Z</time></trkpt><trkpt lat="45.56654111824448" lon="10.073572512958506"><ele>161.0</ele><time>2026-03-15T11:53:13.997Z</time></trkpt><trkpt lat="45.56668960343264" lon="10.073595402328097"><ele>161.0</ele><time>2026-03-15T11:53:15Z</time></trkpt><trkpt lat="45.56683403176177" lon="10.073620467398257"><ele>161.0</ele><time>2026-03-15T11:53:16Z</time></trkpt><trkpt lat="45.56697668331958" lon="10.073647666898463"><ele>161.0</ele><time>2026-03-15T11:53:17Z</time></trkpt><trkpt lat="45.5671208363787" lon="10.073679002740702"><ele>161.0</ele><time>2026-03-15T11:53:18Z</time></trkpt><trkpt lat="45.56726942043421" lon="10.073710804187906"><ele>161.0</ele><time>2026-03-15T11:53:19Z</time></trkpt><trkpt lat="45.56741369485077" lon="10.07373920632085"><ele>161.0</ele><time>2026-03-15T11:53:20Z</time></trkpt><trkpt lat="45.56755946455141" lon="10.07376528868311"><ele>161.0</ele><time>2026-03-15T11:53:21Z</time></trkpt><trkpt lat="45.56770092861761" lon="10.073781627388351"><ele>161.0</ele><time>2026-03-15T11:53:22Z</time></trkpt><trkpt lat="45.567834522995696" lon="10.07378769595445"><ele>161.0</ele><time>2026-03-15T11:53:23Z</time></trkpt><trkpt lat="45.56795859141576" lon="10.073787056726795"><ele>161.0</ele><time>2026-03-15T11:53:24Z</time></trkpt><trkpt lat="45.56807310038748" lon="10.073779767952958"><ele>161.0</ele><time>2026-03-15T11:53:25Z</time></trkpt><trkpt lat="45.568180129907816" lon="10.073742387720836"><ele>161.0</ele><time>2026-03-15T11:53:26Z</time></trkpt><trkpt lat="45.568257986110304" lon="10.073643430584946"><ele>161.0</ele><time>2026-03-15T11:53:27Z</time></trkpt><trkpt lat="45.56829889612473" lon="10.073491704529998"><ele>161.0</ele><time>2026-03-15T11:53:28Z</time></trkpt><trkpt lat="45.56829827838557" lon="10.073300970585821"><ele>161.33333333333331</ele><time>2026-03-15T11:53:29Z</time></trkpt><trkpt lat="45.56827837190424" lon="10.073074109307246"><ele>161.66666666666666</ele><time>2026-03-15T11:53:30Z</time></trkpt><trkpt lat="45.56829048937977" lon="10.072848232516"><ele>162.0</ele><time>2026-03-15T11:53:31Z</time></trkpt><trkpt lat="45.568287794736726" lon="10.072621990321714"><ele>161.66666666666666</ele><time>2026-03-15T11:53:32Z</time></trkpt><trkpt lat="45.56828519628097" lon="10.072403823976337"><ele>161.33333333333331</ele><time>2026-03-15T11:53:33Z</time></trkpt><trkpt lat="45.568266919869906" lon="10.072182137392483"><ele>161.0</ele><time>2026-03-15T11:53:34Z</time></trkpt><trkpt lat="45.56826669594233" lon="10.071961465607435"><ele>161.0</ele><time>2026-03-15T11:53:35Z</time></trkpt><trkpt lat="45.56826652214766" lon="10.071736879968528"><ele>161.0</ele><time>2026-03-15T11:53:36Z</time></trkpt><trkpt lat="45.56826289454027" lon="10.071531263322429"><ele>161.0</ele><time>2026-03-15T11:53:37Z</time></trkpt><trkpt lat="45.56826219561981" lon="10.071342032502788"><ele>161.0</ele><time>2026-03-15T11:53:38Z</time></trkpt><trkpt lat="45.56826800124373" lon="10.071168120193363"><ele>161.4</ele><time>2026-03-15T11:53:39Z</time></trkpt><trkpt lat="45.56828521473242" lon="10.071032258678834"><ele>161.8</ele><time>2026-03-15T11:53:40Z</time></trkpt><trkpt lat="45.56831586977526" lon="10.070929689217197"><ele>162.20000000000002</ele><time>2026-03-15T11:53:41Z</time></trkpt><trkpt lat="45.568355808256754" lon="10.070833614103375"><ele>162.60000000000002</ele><time>2026-03-15T11:53:42Z</time></trkpt><trkpt lat="45.568393859385864" lon="10.070721160515957"><ele>163.0</ele><time>2026-03-15T11:53:43Z</time></trkpt><trkpt lat="45.56842461649368" lon="10.070569645115274"><ele>163.25</ele><time>2026-03-15T11:53:44Z</time></trkpt><trkpt lat="45.568429145241915" lon="10.070389885832926"><ele>163.5</ele><time>2026-03-15T11:53:45Z</time></trkpt><trkpt lat="45.56838616225509" lon="10.07020264783635"><ele>163.75</ele><time>2026-03-15T11:53:46Z</time></trkpt><trkpt lat="45.56831146388386" lon="10.070015419040903"><ele>164.0</ele><time>2026-03-15T11:53:47Z</time></trkpt><trkpt lat="45.568253224008444" lon="10.069812438648706"><ele>163.66666666666666</ele><time>2026-03-15T11:53:48Z</time></trkpt><trkpt lat="45.56823292956085" lon="10.069584383368642"><ele>163.33333333333334</ele><time>2026-03-15T11:53:49Z</time></trkpt><trkpt lat="45.56822269596943" lon="10.069342130182227"><ele>163.0</ele><time>2026-03-15T11:53:49.999Z</time></trkpt><trkpt lat="45.568203734538514" lon="10.06910095234244"><ele>163.0</ele><time>2026-03-15T11:53:50.999Z</time></trkpt><trkpt lat="45.568180301638655" lon="10.06885677524872"><ele>163.0</ele><time>2026-03-15T11:53:51.999Z</time></trkpt><trkpt lat="45.56816031510993" lon="10.068618939755561"><ele>163.0</ele><time>2026-03-15T11:53:52.999Z</time></trkpt><trkpt lat="45.56814270876333" lon="10.068364780532768"><ele>163.66666666666669</ele><time>2026-03-15T11:53:53.999Z</time></trkpt><trkpt lat="45.56811853164788" lon="10.068145649947795"><ele>164.33333333333334</ele><time>2026-03-15T11:53:54.999Z</time></trkpt><trkpt lat="45.56811168761468" lon="10.067909566923422"><ele>165.0</ele><time>2026-03-15T11:53:55.999Z</time></trkpt><trkpt lat="45.56813890792034" lon="10.067680091648453"><ele>165.0</ele><time>2026-03-15T11:53:56.999Z</time></trkpt><trkpt lat="45.5681923744715" lon="10.067449939352404"><ele>165.0</ele><time>2026-03-15T11:53:57.999Z</time></trkpt><trkpt lat="45.56826875756723" lon="10.06723083511787"><ele>165.0</ele><time>2026-03-15T11:53:58.999Z</time></trkpt><trkpt lat="45.56834971774894" lon="10.067008086889954"><ele>165.0</ele><time>2026-03-15T11:53:59.999Z</time></trkpt><trkpt lat="45.568418277955175" lon="10.066811109836994"><ele>165.0</ele><time>2026-03-15T11:54:00.999Z</time></trkpt><trkpt lat="45.56848060062672" lon="10.066624888522007"><ele>165.0</ele><time>2026-03-15T11:54:01.999Z</time></trkpt><trkpt lat="45.568569226431286" lon="10.066407894090156"><ele>164.33333333333334</ele><time>2026-03-15T11:54:02.999Z</time></trkpt><trkpt lat="45.56865869205682" lon="10.066223855750211"><ele>163.66666666666669</ele><time>2026-03-15T11:54:03.999Z</time></trkpt><trkpt lat="45.56880210909234" lon="10.066105150479144"><ele>163.0</ele><time>2026-03-15T11:54:04.999Z</time></trkpt><trkpt lat="45.56897858553785" lon="10.066045548774238"><ele>163.0</ele><time>2026-03-15T11:54:05.999Z</time></trkpt><trkpt lat="45.56916697140702" lon="10.066058648444667"><ele>163.0</ele><time>2026-03-15T11:54:06.999Z</time></trkpt><trkpt lat="45.569359379255786" lon="10.066144277578715"><ele>163.0</ele><time>2026-03-15T11:54:07.999Z</time></trkpt><trkpt lat="45.569555695594104" lon="10.066235482486151"><ele>163.33333333333334</ele><time>2026-03-15T11:54:08.999Z</time></trkpt><trkpt lat="45.56974949083739" lon="10.066304228821183"><ele>163.66666666666666</ele><time>2026-03-15T11:54:09.999Z</time></trkpt><trkpt lat="45.5699381540061" lon="10.06636554925737"><ele>164.0</ele><time>2026-03-15T11:54:10.999Z</time></trkpt><trkpt lat="45.57012589913938" lon="10.066427261959356"><ele>164.0</ele><time>2026-03-15T11:54:11.999Z</time></trkpt><trkpt lat="45.57031477085655" lon="10.066487529617735"><ele>164.0</ele><time>2026-03-15T11:54:12.999Z</time></trkpt><trkpt lat="45.57050489654118" lon="10.06655453968976"><ele>164.0</ele><time>2026-03-15T11:54:13.999Z</time></trkpt><trkpt lat="45.57069349648823" lon="10.06661808141898"><ele>164.66666666666666</ele><time>2026-03-15T11:54:14.999Z</time></trkpt><trkpt lat="45.57088414572264" lon="10.06667530044988"><ele>165.33333333333334</ele><time>2026-03-15T11:54:15.999Z</time></trkpt><trkpt lat="45.57106984070785" lon="10.066733844911061"><ele>166.0</ele><time>2026-03-15T11:54:16.999Z</time></trkpt><trkpt lat="45.57125007298692" lon="10.06679351787957"><ele>166.33333333333334</ele><time>2026-03-15T11:54:17.999Z</time></trkpt><trkpt lat="45.57142983131426" lon="10.066858867764878"><ele>166.66666666666666</ele><time>2026-03-15T11:54:18.999Z</time></trkpt><trkpt lat="45.571608360290355" lon="10.066923210427335"><ele>167.0</ele><time>2026-03-15T11:54:19.999Z</time></trkpt><trkpt lat="45.57178779132573" lon="10.06698772304534"><ele>167.0</ele><time>2026-03-15T11:54:20.999Z</time></trkpt><trkpt lat="45.571963615609825" lon="10.067048747139111"><ele>167.0</ele><time>2026-03-15T11:54:21.999Z</time></trkpt><trkpt lat="45.57214214032123" lon="10.067113404936373"><ele>167.0</ele><time>2026-03-15T11:54:22.999Z</time></trkpt><trkpt lat="45.57231521211089" lon="10.067179041278054"><ele>167.0</ele><time>2026-03-15T11:54:23.999Z</time></trkpt><trkpt lat="45.57249439245184" lon="10.06724720292318"><ele>167.0</ele><time>2026-03-15T11:54:24.999Z</time></trkpt><trkpt lat="45.57266609968222" lon="10.067308634790177"><ele>167.0</ele><time>2026-03-15T11:54:25.999Z</time></trkpt><trkpt lat="45.57283528854149" lon="10.067375940984752"><ele>166.66666666666666</ele><time>2026-03-15T11:54:26.999Z</time></trkpt><trkpt lat="45.57300444496722" lon="10.067455684969634"><ele>166.33333333333334</ele><time>2026-03-15T11:54:27.999Z</time></trkpt><trkpt lat="45.573171234785995" lon="10.0675381049591"><ele>166.0</ele><time>2026-03-15T11:54:28.999Z</time></trkpt><trkpt lat="45.57333579099344" lon="10.067622416914867"><ele>166.0</ele><time>2026-03-15T11:54:29.999Z</time></trkpt><trkpt lat="45.57349740105509" lon="10.067686370409794"><ele>166.0</ele><time>2026-03-15T11:54:30.999Z</time></trkpt><trkpt lat="45.573676004009315" lon="10.067742927391434"><ele>166.0</ele><time>2026-03-15T11:54:31.999Z</time></trkpt><trkpt lat="45.57384986986734" lon="10.067783781692219"><ele>166.33333333333334</ele><time>2026-03-15T11:54:32.999Z</time></trkpt><trkpt lat="45.57402830946486" lon="10.067815259009246"><ele>166.66666666666666</ele><time>2026-03-15T11:54:33.999Z</time></trkpt><trkpt lat="45.574205972180316" lon="10.06783910908168"><ele>167.0</ele><time>2026-03-15T11:54:34.998Z</time></trkpt><trkpt lat="45.57438596805499" lon="10.067850387174035"><ele>167.0</ele><time>2026-03-15T11:54:35.998Z</time></trkpt><trkpt lat="45.574568091821064" lon="10.067854556189902"><ele>167.0</ele><time>2026-03-15T11:54:36.998Z</time></trkpt><trkpt lat="45.574749192145006" lon="10.067854614225586"><ele>167.0</ele><time>2026-03-15T11:54:37.998Z</time></trkpt><trkpt lat="45.574935594447695" lon="10.067847221194045"><ele>167.0</ele><time>2026-03-15T11:54:38.998Z</time></trkpt><trkpt lat="45.575120896177914" lon="10.067829122520795"><ele>167.0</ele><time>2026-03-15T11:54:39.998Z</time></trkpt><trkpt lat="45.575311535652425" lon="10.067804770309134"><ele>167.0</ele><time>2026-03-15T11:54:40.998Z</time></trkpt><trkpt lat="45.57549116247835" lon="10.067774644104263"><ele>167.33333333333331</ele><time>2026-03-15T11:54:41.998Z</time></trkpt><trkpt lat="45.575661314889004" lon="10.067743869471668"><ele>167.66666666666666</ele><time>2026-03-15T11:54:42.998Z</time></trkpt><trkpt lat="45.57581525186235" lon="10.067712610694283"><ele>168.0</ele><time>2026-03-15T11:54:43.998Z</time></trkpt><trkpt lat="45.57595428897861" lon="10.067682554421447"><ele>168.0</ele><time>2026-03-15T11:54:44.998Z</time></trkpt><trkpt lat="45.576081346934394" lon="10.06765745280453"><ele>168.0</ele><time>2026-03-15T11:54:45.998Z</time></trkpt><trkpt lat="45.576193421406956" lon="10.06763585390941"><ele>168.0</ele><time>2026-03-15T11:54:46.998Z</time></trkpt><trkpt lat="45.57629772958129" lon="10.067618927940806"><ele>168.0</ele><time>2026-03-15T11:54:47.998Z</time></trkpt><trkpt lat="45.57638735681568" lon="10.067603633733846"><ele>168.0</ele><time>2026-03-15T11:54:48.998Z</time></trkpt><trkpt lat="45.57646725815478" lon="10.067589293225703"><ele>168.2</ele><time>2026-03-15T11:54:49.998Z</time></trkpt><trkpt lat="45.57653796254605" lon="10.067574500787071"><ele>168.4</ele><time>2026-03-15T11:54:50.998Z</time></trkpt><trkpt lat="45.57661729893533" lon="10.067515089215906"><ele>168.6</ele><time>2026-03-15T11:54:52.998Z</time></trkpt><trkpt lat="45.576602511095075" lon="10.067342454642697"><ele>168.79999999999998</ele><time>2026-03-15T11:54:54.998Z</time></trkpt><trkpt lat="45.576474277894995" lon="10.06728277898694"><ele>169.0</ele><time>2026-03-15T11:54:56.998Z</time></trkpt><trkpt lat="45.576401785214465" lon="10.067256879709863"><ele>169.0</ele><time>2026-03-15T11:54:57.998Z</time></trkpt><trkpt lat="45.57633233048994" lon="10.06723263790428"><ele>169.0</ele><time>2026-03-15T11:54:58.998Z</time></trkpt><trkpt lat="45.57625437632803" lon="10.067207244012026"><ele>169.0</ele><time>2026-03-15T11:54:59.998Z</time></trkpt><trkpt lat="45.57616528196431" lon="10.067178221326282"><ele>169.0</ele><time>2026-03-15T11:55:00.998Z</time></trkpt><trkpt lat="45.57607721931479" lon="10.067149534633295"><ele>169.0</ele><time>2026-03-15T11:55:01.998Z</time></trkpt><trkpt lat="45.57598601656686" lon="10.0671198250675"><ele>169.0</ele><time>2026-03-15T11:55:02.998Z</time></trkpt><trkpt lat="45.575900441656835" lon="10.06709194873119"><ele>168.6</ele><time>2026-03-15T11:55:03.998Z</time></trkpt><trkpt lat="45.57581409871265" lon="10.067063355451197"><ele>168.2</ele><time>2026-03-15T11:55:04.998Z</time></trkpt><trkpt lat="45.57571251997632" lon="10.067028094277838"><ele>167.79999999999998</ele><time>2026-03-15T11:55:05.998Z</time></trkpt><trkpt lat="45.57560799368751" lon="10.066991809845257"><ele>167.39999999999998</ele><time>2026-03-15T11:55:06.998Z</time></trkpt><trkpt lat="45.57549758354044" lon="10.066966015141183"><ele>167.0</ele><time>2026-03-15T11:55:07.998Z</time></trkpt><trkpt lat="45.57539939774276" lon="10.06691356933789"><ele>167.33333333333331</ele><time>2026-03-15T11:55:08.998Z</time></trkpt><trkpt lat="45.5753164298587" lon="10.06687685385878"><ele>167.66666666666666</ele><time>2026-03-15T11:55:09.998Z</time></trkpt><trkpt lat="45.57524691932036" lon="10.066842654749111"><ele>168.0</ele><time>2026-03-15T11:55:10.998Z</time></trkpt><trkpt lat="45.57517817924068" lon="10.066802487779238"><ele>168.33333333333334</ele><time>2026-03-15T11:55:11.998Z</time></trkpt><trkpt lat="45.57513969387275" lon="10.066671969154461"><ele>168.66666666666669</ele><time>2026-03-15T11:55:13.998Z</time></trkpt><trkpt lat="45.57520968110677" lon="10.066559351881978"><ele>169.0</ele><time>2026-03-15T11:55:15.998Z</time></trkpt><trkpt lat="45.57526269866463" lon="10.066483159048655"><ele>169.25</ele><time>2026-03-15T11:55:16.998Z</time></trkpt><trkpt lat="45.57533592812771" lon="10.066395444373452"><ele>169.5</ele><time>2026-03-15T11:55:17.998Z</time></trkpt><trkpt lat="45.57542645858989" lon="10.066318394561018"><ele>169.75</ele><time>2026-03-15T11:55:18.997Z</time></trkpt><trkpt lat="45.57551626048031" lon="10.066199431294912"><ele>170.0</ele><time>2026-03-15T11:55:19.997Z</time></trkpt><trkpt lat="45.57562668372315" lon="10.066071843644506"><ele>169.33333333333331</ele><time>2026-03-15T11:55:21Z</time></trkpt><trkpt lat="45.575745391667105" lon="10.06593434966823"><ele>168.66666666666666</ele><time>2026-03-15T11:55:22Z</time></trkpt><trkpt lat="45.5758439603991" lon="10.06580702167318"><ele>168.0</ele><time>2026-03-15T11:55:23Z</time></trkpt><trkpt lat="45.57596945341357" lon="10.06565364923846"><ele>168.0</ele><time>2026-03-15T11:55:24Z</time></trkpt><trkpt lat="45.576093382647365" lon="10.065489913786083"><ele>168.0</ele><time>2026-03-15T11:55:25Z</time></trkpt><trkpt lat="45.57619623823455" lon="10.06536305933154"><ele>168.0</ele><time>2026-03-15T11:55:26Z</time></trkpt><trkpt lat="45.57630363555536" lon="10.065230773963933"><ele>168.0</ele><time>2026-03-15T11:55:27Z</time></trkpt><trkpt lat="45.576421469538246" lon="10.065101063580974"><ele>168.25</ele><time>2026-03-15T11:55:28Z</time></trkpt><trkpt lat="45.57653618593459" lon="10.064981131556229"><ele>168.5</ele><time>2026-03-15T11:55:29Z</time></trkpt><trkpt lat="45.5766383533359" lon="10.064861371602897"><ele>168.75</ele><time>2026-03-15T11:55:30Z</time></trkpt><trkpt lat="45.576741551198985" lon="10.064739582656934"><ele>169.0</ele><time>2026-03-15T11:55:31Z</time></trkpt><trkpt lat="45.57685024995316" lon="10.064635099510213"><ele>169.0</ele><time>2026-03-15T11:55:32Z</time></trkpt><trkpt lat="45.576943796078325" lon="10.06450332910259"><ele>169.0</ele><time>2026-03-15T11:55:33Z</time></trkpt><trkpt lat="45.57704450893443" lon="10.064388251355757"><ele>169.0</ele><time>2026-03-15T11:55:34Z</time></trkpt><trkpt lat="45.57714843589489" lon="10.064274202243672"><ele>169.0</ele><time>2026-03-15T11:55:35Z</time></trkpt><trkpt lat="45.577249400735525" lon="10.06418955808356"><ele>169.79999999999998</ele><time>2026-03-15T11:55:36Z</time></trkpt><trkpt lat="45.57732478744487" lon="10.064036239617339"><ele>170.6</ele><time>2026-03-15T11:55:37Z</time></trkpt><trkpt lat="45.577413601255024" lon="10.063924162688899"><ele>171.4</ele><time>2026-03-15T11:55:38Z</time></trkpt><trkpt lat="45.57749265872063" lon="10.063839116283802"><ele>172.2</ele><time>2026-03-15T11:55:39Z</time></trkpt><trkpt lat="45.57755871435505" lon="10.06376350853883"><ele>173.0</ele><time>2026-03-15T11:55:40Z</time></trkpt><trkpt lat="45.57761595220253" lon="10.063686332017635"><ele>173.0</ele><time>2026-03-15T11:55:41Z</time></trkpt><trkpt lat="45.57770797013804" lon="10.063589842689453"><ele>173.0</ele><time>2026-03-15T11:55:42Z</time></trkpt><trkpt lat="45.5778029072699" lon="10.063485024990642"><ele>173.0</ele><time>2026-03-15T11:55:43Z</time></trkpt><trkpt lat="45.57789892127051" lon="10.06339109333603"><ele>173.0</ele><time>2026-03-15T11:55:44Z</time></trkpt><trkpt lat="45.57802386204444" lon="10.063252190285237"><ele>173.4</ele><time>2026-03-15T11:55:45Z</time></trkpt><trkpt lat="45.578150804068216" lon="10.063099921357466"><ele>173.8</ele><time>2026-03-15T11:55:46Z</time></trkpt><trkpt lat="45.578170397820706" lon="10.06299758354133"><ele>174.2</ele><time>2026-03-15T11:55:48Z</time></trkpt><trkpt lat="45.57822926748486" lon="10.06290429529667"><ele>174.6</ele><time>2026-03-15T11:55:49Z</time></trkpt><trkpt lat="45.57829357408467" lon="10.062835109056774"><ele>175.0</ele><time>2026-03-15T11:55:50Z</time></trkpt><trkpt lat="45.57839056684585" lon="10.06274626700844"><ele>175.0</ele><time>2026-03-15T11:55:51Z</time></trkpt><trkpt lat="45.57849016815041" lon="10.062656887358129"><ele>175.0</ele><time>2026-03-15T11:55:52Z</time></trkpt><trkpt lat="45.57857468314216" lon="10.062556467521173"><ele>175.0</ele><time>2026-03-15T11:55:53Z</time></trkpt><trkpt lat="45.57868646058963" lon="10.062407845906028"><ele>175.0</ele><time>2026-03-15T11:55:54Z</time></trkpt><trkpt lat="45.578767202875085" lon="10.06229165352868"><ele>175.0</ele><time>2026-03-15T11:55:55Z</time></trkpt><trkpt lat="45.5788452795554" lon="10.06218252172471"><ele>175.0</ele><time>2026-03-15T11:55:56Z</time></trkpt><trkpt lat="45.578928995823404" lon="10.06208906773949"><ele>175.0</ele><time>2026-03-15T11:55:57Z</time></trkpt><trkpt lat="45.57901823195527" lon="10.06199338232809"><ele>175.0</ele><time>2026-03-15T11:55:58Z</time></trkpt><trkpt lat="45.57908577160011" lon="10.061910579587508"><ele>175.0</ele><time>2026-03-15T11:55:59Z</time></trkpt><trkpt lat="45.579141842124116" lon="10.061841787775041"><ele>175.0</ele><time>2026-03-15T11:56:00Z</time></trkpt><trkpt lat="45.57925102970558" lon="10.061720806462136"><ele>175.0</ele><time>2026-03-15T11:56:02Z</time></trkpt><trkpt lat="45.57934388042424" lon="10.061634880520051"><ele>175.0</ele><time>2026-03-15T11:56:03Z</time></trkpt><trkpt lat="45.579423980433006" lon="10.061569702396207"><ele>175.0</ele><time>2026-03-15T11:56:04Z</time></trkpt><trkpt lat="45.579493253256054" lon="10.061529010145069"><ele>175.0</ele><time>2026-03-15T11:56:05Z</time></trkpt><trkpt lat="45.579594627428875" lon="10.061451099892043"><ele>175.0</ele><time>2026-03-15T11:56:07Z</time></trkpt><trkpt lat="45.5796747859332" lon="10.061492738102874"><ele>175.0</ele><time>2026-03-15T11:56:09Z</time></trkpt><trkpt lat="45.579754881828386" lon="10.06149118611513"><ele>175.0</ele><time>2026-03-15T11:56:10.999Z</time></trkpt><trkpt lat="45.57975052329936" lon="10.061342175691047"><ele>175.0</ele><time>2026-03-15T11:56:13.999Z</time></trkpt><trkpt lat="45.579732826548664" lon="10.061206664913461"><ele>175.0</ele><time>2026-03-15T11:56:15.999Z</time></trkpt><trkpt lat="45.57983196975109" lon="10.061093799570234"><ele>175.0</ele><time>2026-03-15T11:56:17.999Z</time></trkpt><trkpt lat="45.579840538968426" lon="10.060961007104313"><ele>175.0</ele><time>2026-03-15T11:56:19.999Z</time></trkpt><trkpt lat="45.579855900772166" lon="10.060825986795914"><ele>175.0</ele><time>2026-03-15T11:56:21.999Z</time></trkpt><trkpt lat="45.57986104743485" lon="10.060696100187194"><ele>175.0</ele><time>2026-03-15T11:56:22.999Z</time></trkpt><trkpt lat="45.579836862085465" lon="10.060550794449373"><ele>175.0</ele><time>2026-03-15T11:56:23.999Z</time></trkpt><trkpt lat="45.579783504893584" lon="10.060429784246475"><ele>175.0</ele><time>2026-03-15T11:56:24.999Z</time></trkpt><trkpt lat="45.579742180884885" lon="10.060332862802113"><ele>175.0</ele><time>2026-03-15T11:56:25.999Z</time></trkpt><trkpt lat="45.57971424481548" lon="10.060234593228067"><ele>175.0</ele><time>2026-03-15T11:56:26.999Z</time></trkpt><trkpt lat="45.57969566472201" lon="10.060143876705311"><ele>175.0</ele><time>2026-03-15T11:56:27.999Z</time></trkpt><trkpt lat="45.57968862985021" lon="10.059999195565085"><ele>175.0</ele><time>2026-03-15T11:56:29.999Z</time></trkpt><trkpt lat="45.57968642026718" lon="10.059798230256934"><ele>175.0</ele><time>2026-03-15T11:56:31.999Z</time></trkpt><trkpt lat="45.57968117902155" lon="10.059660826618195"><ele>175.0</ele><time>2026-03-15T11:56:32.999Z</time></trkpt><trkpt lat="45.57966956769104" lon="10.059536291429076"><ele>175.0</ele><time>2026-03-15T11:56:33.998Z</time></trkpt><trkpt lat="45.57965552808109" lon="10.059440062765727"><ele>175.0</ele><time>2026-03-15T11:56:34.998Z</time></trkpt><trkpt lat="45.579626150491784" lon="10.059278247484114"><ele>175.0</ele><time>2026-03-15T11:56:36.998Z</time></trkpt><trkpt lat="45.57960558311162" lon="10.059173058122543"><ele>175.0</ele><time>2026-03-15T11:56:37.998Z</time></trkpt><trkpt lat="45.57958131503651" lon="10.05905902079536"><ele>175.0</ele><time>2026-03-15T11:56:38.998Z</time></trkpt><trkpt lat="45.57955326435593" lon="10.058927208461684"><ele>175.0</ele><time>2026-03-15T11:56:39.998Z</time></trkpt><trkpt lat="45.579525443652244" lon="10.058803498617372"><ele>175.0</ele><time>2026-03-15T11:56:40.998Z</time></trkpt><trkpt lat="45.57950005862051" lon="10.05869624674547"><ele>175.0</ele><time>2026-03-15T11:56:41.998Z</time></trkpt><trkpt lat="45.57946560977181" lon="10.058552635152688"><ele>175.0</ele><time>2026-03-15T11:56:43.998Z</time></trkpt><trkpt lat="45.579426673525504" lon="10.05836441643516"><ele>174.8</ele><time>2026-03-15T11:56:45.998Z</time></trkpt><trkpt lat="45.57940081845957" lon="10.058260518198553"><ele>174.6</ele><time>2026-03-15T11:56:47.998Z</time></trkpt><trkpt lat="45.57942753208729" lon="10.058359167233561"><ele>174.39999999999998</ele><time>2026-03-15T11:56:56.997Z</time></trkpt><trkpt lat="45.57944918021668" lon="10.058470092998856"><ele>174.2</ele><time>2026-03-15T11:57:00.997Z</time></trkpt><trkpt lat="45.57946778531858" lon="10.058558547039857"><ele>174.0</ele><time>2026-03-15T11:57:02.997Z</time></trkpt><trkpt lat="45.5794487191568" lon="10.058815719380828"><ele>173.75</ele><time>2026-03-15T11:57:04.997Z</time></trkpt><trkpt lat="45.57946154255101" lon="10.058974729183587"><ele>173.5</ele><time>2026-03-15T11:57:05.997Z</time></trkpt><trkpt lat="45.579484618675906" lon="10.059115755450966"><ele>173.25</ele><time>2026-03-15T11:57:06.997Z</time></trkpt><trkpt lat="45.579584132408456" lon="10.059240161023798"><ele>173.0</ele><time>2026-03-15T11:57:07.997Z</time></trkpt><trkpt lat="45.57961558057286" lon="10.059407790706588"><ele>173.4</ele><time>2026-03-15T11:57:08.997Z</time></trkpt><trkpt lat="45.57964119073962" lon="10.059576388329813"><ele>173.8</ele><time>2026-03-15T11:57:09.997Z</time></trkpt><trkpt lat="45.57965088706279" lon="10.05972656213074"><ele>174.2</ele><time>2026-03-15T11:57:10.997Z</time></trkpt><trkpt lat="45.5796542301538" lon="10.059857478897493"><ele>174.6</ele><time>2026-03-15T11:57:11.997Z</time></trkpt><trkpt lat="45.57965627404136" lon="10.059963545257196"><ele>175.0</ele><time>2026-03-15T11:57:12.997Z</time></trkpt><trkpt lat="45.579666230866465" lon="10.060142688307819"><ele>175.0</ele><time>2026-03-15T11:57:14.997Z</time></trkpt><trkpt lat="45.579668982828224" lon="10.060250460695643"><ele>175.0</ele><time>2026-03-15T11:57:15.997Z</time></trkpt><trkpt lat="45.57970742617477" lon="10.060372695702373"><ele>175.0</ele><time>2026-03-15T11:57:16.997Z</time></trkpt><trkpt lat="45.57976771718933" lon="10.06048237137857"><ele>175.0</ele><time>2026-03-15T11:57:17.997Z</time></trkpt><trkpt lat="45.579809647678964" lon="10.060587281925173"><ele>175.0</ele><time>2026-03-15T11:57:18.997Z</time></trkpt><trkpt lat="45.579828498287355" lon="10.060692937486545"><ele>175.0</ele><time>2026-03-15T11:57:19.997Z</time></trkpt><trkpt lat="45.57983417156909" lon="10.06079342899933"><ele>175.0</ele><time>2026-03-15T11:57:20.997Z</time></trkpt><trkpt lat="45.57981376465784" lon="10.060901319098178"><ele>175.0</ele><time>2026-03-15T11:57:21.997Z</time></trkpt><trkpt lat="45.57980506296953" lon="10.060992107304124"><ele>175.0</ele><time>2026-03-15T11:57:22.997Z</time></trkpt><trkpt lat="45.579812914135566" lon="10.06119181439544"><ele>175.0</ele><time>2026-03-15T11:57:24.997Z</time></trkpt><trkpt lat="45.57983975487822" lon="10.061334270484453"><ele>175.0</ele><time>2026-03-15T11:57:27Z</time></trkpt><trkpt lat="45.57986742486256" lon="10.0614186208744"><ele>175.0</ele><time>2026-03-15T11:57:29Z</time></trkpt><trkpt lat="45.579944416284214" lon="10.061541715959654"><ele>175.0</ele><time>2026-03-15T11:57:31Z</time></trkpt><trkpt lat="45.580011396642206" lon="10.061585899821369"><ele>175.0</ele><time>2026-03-15T11:57:33Z</time></trkpt><trkpt lat="45.58007179626149" lon="10.06166042769661"><ele>175.0</ele><time>2026-03-15T11:57:35Z</time></trkpt><trkpt lat="45.58010949803843" lon="10.061750397437464"><ele>175.0</ele><time>2026-03-15T11:57:37Z</time></trkpt><trkpt lat="45.580104315209944" lon="10.061857376699457"><ele>175.0</ele><time>2026-03-15T11:57:39Z</time></trkpt><trkpt lat="45.579979071513094" lon="10.062053024018129"><ele>175.2</ele><time>2026-03-15T11:57:40Z</time></trkpt><trkpt lat="45.57992081890169" lon="10.06214729129573"><ele>175.4</ele><time>2026-03-15T11:57:41Z</time></trkpt><trkpt lat="45.57986156335987" lon="10.06224532966444"><ele>175.60000000000002</ele><time>2026-03-15T11:57:42Z</time></trkpt><trkpt lat="45.57983055383763" lon="10.062392658516051"><ele>175.8</ele><time>2026-03-15T11:57:44.999Z</time></trkpt><trkpt lat="45.579796494718714" lon="10.06248897890273"><ele>176.0</ele><time>2026-03-15T11:57:45.999Z</time></trkpt><trkpt lat="45.579731422871255" lon="10.062635469848702"><ele>176.25</ele><time>2026-03-15T11:57:46.999Z</time></trkpt><trkpt lat="45.579662247830385" lon="10.062793499816138"><ele>176.5</ele><time>2026-03-15T11:57:47.999Z</time></trkpt><trkpt lat="45.57959915336462" lon="10.062941222021678"><ele>176.75</ele><time>2026-03-15T11:57:48.999Z</time></trkpt><trkpt lat="45.57953341507201" lon="10.063085986421054"><ele>177.0</ele><time>2026-03-15T11:57:49.999Z</time></trkpt><trkpt lat="45.57946163045945" lon="10.063258285819327"><ele>176.6</ele><time>2026-03-15T11:57:50.999Z</time></trkpt><trkpt lat="45.57938955480462" lon="10.063409370855174"><ele>176.2</ele><time>2026-03-15T11:57:51.999Z</time></trkpt><trkpt lat="45.579323523940175" lon="10.063534497938154"><ele>175.8</ele><time>2026-03-15T11:57:52.999Z</time></trkpt><trkpt lat="45.579271688798315" lon="10.06363995740066"><ele>175.4</ele><time>2026-03-15T11:57:53.999Z</time></trkpt><trkpt lat="45.57922800264886" lon="10.063751681507897"><ele>175.0</ele><time>2026-03-15T11:57:54.999Z</time></trkpt><trkpt lat="45.57919707295861" lon="10.063851207535716"><ele>175.0</ele><time>2026-03-15T11:57:55.999Z</time></trkpt><trkpt lat="45.57916520716279" lon="10.063937105831451"><ele>175.0</ele><time>2026-03-15T11:57:56.999Z</time></trkpt><trkpt lat="45.57912063238796" lon="10.064049105933943"><ele>175.0</ele><time>2026-03-15T11:57:57.999Z</time></trkpt><trkpt lat="45.57908049606331" lon="10.064139812652355"><ele>175.0</ele><time>2026-03-15T11:57:58.999Z</time></trkpt><trkpt lat="45.5790342812908" lon="10.064221761929325"><ele>175.0</ele><time>2026-03-15T11:57:59.999Z</time></trkpt><trkpt lat="45.578964344865874" lon="10.064331243570699"><ele>175.0</ele><time>2026-03-15T11:58:00.999Z</time></trkpt><trkpt lat="45.578898105870486" lon="10.064434562074162"><ele>175.2</ele><time>2026-03-15T11:58:01.999Z</time></trkpt><trkpt lat="45.57883395999275" lon="10.06452528778858"><ele>175.4</ele><time>2026-03-15T11:58:02.999Z</time></trkpt><trkpt lat="45.57878054905358" lon="10.064613323733365"><ele>175.60000000000002</ele><time>2026-03-15T11:58:03.999Z</time></trkpt><trkpt lat="45.57870926358064" lon="10.064727162613176"><ele>175.8</ele><time>2026-03-15T11:58:04.999Z</time></trkpt><trkpt lat="45.57864217143149" lon="10.064829354749138"><ele>176.0</ele><time>2026-03-15T11:58:05.999Z</time></trkpt><trkpt lat="45.57856544555445" lon="10.064928720594827"><ele>175.66666666666666</ele><time>2026-03-15T11:58:06.999Z</time></trkpt><trkpt lat="45.57850417937639" lon="10.065046268455044"><ele>175.33333333333331</ele><time>2026-03-15T11:58:07.999Z</time></trkpt><trkpt lat="45.57843572848084" lon="10.065161261297067"><ele>175.0</ele><time>2026-03-15T11:58:08.999Z</time></trkpt><trkpt lat="45.578377470481236" lon="10.065251161017022"><ele>174.66666666666666</ele><time>2026-03-15T11:58:09.999Z</time></trkpt><trkpt lat="45.57832497699538" lon="10.065329046059954"><ele>174.33333333333334</ele><time>2026-03-15T11:58:10.999Z</time></trkpt><trkpt lat="45.57827791992267" lon="10.065399482288312"><ele>174.0</ele><time>2026-03-15T11:58:11.999Z</time></trkpt><trkpt lat="45.578209395300604" lon="10.065550731112802"><ele>174.0</ele><time>2026-03-15T11:58:12.999Z</time></trkpt><trkpt lat="45.57815551055038" lon="10.065690066765681"><ele>174.0</ele><time>2026-03-15T11:58:13.999Z</time></trkpt><trkpt lat="45.57810560198578" lon="10.065791184909099"><ele>174.0</ele><time>2026-03-15T11:58:14.999Z</time></trkpt><trkpt lat="45.57806452958274" lon="10.065898838670202"><ele>174.0</ele><time>2026-03-15T11:58:15.999Z</time></trkpt><trkpt lat="45.578012647464334" lon="10.065974624410982"><ele>174.0</ele><time>2026-03-15T11:58:16.999Z</time></trkpt><trkpt lat="45.57796567381834" lon="10.06603861869415"><ele>174.0</ele><time>2026-03-15T11:58:17.999Z</time></trkpt><trkpt lat="45.5778748933592" lon="10.066118620206039"><ele>173.39999999999998</ele><time>2026-03-15T11:58:19.999Z</time></trkpt><trkpt lat="45.57776140900537" lon="10.066246824694533"><ele>172.8</ele><time>2026-03-15T11:58:21.999Z</time></trkpt><trkpt lat="45.57771317818784" lon="10.066326416367366"><ele>172.2</ele><time>2026-03-15T11:58:22.999Z</time></trkpt><trkpt lat="45.577672006139295" lon="10.066411024881994"><ele>171.60000000000002</ele><time>2026-03-15T11:58:23.999Z</time></trkpt><trkpt lat="45.57762563864359" lon="10.066500151332155"><ele>171.0</ele><time>2026-03-15T11:58:24.999Z</time></trkpt><trkpt lat="45.57758051855596" lon="10.06660050134135"><ele>171.33333333333334</ele><time>2026-03-15T11:58:25.999Z</time></trkpt><trkpt lat="45.57752700833496" lon="10.066709521477165"><ele>171.66666666666666</ele><time>2026-03-15T11:58:26.999Z</time></trkpt><trkpt lat="45.57748082276031" lon="10.066814745899093"><ele>172.0</ele><time>2026-03-15T11:58:27.999Z</time></trkpt><trkpt lat="45.57742957068116" lon="10.066894246288395"><ele>172.33333333333331</ele><time>2026-03-15T11:58:28.999Z</time></trkpt><trkpt lat="45.57737407685057" lon="10.066958285318009"><ele>172.66666666666666</ele><time>2026-03-15T11:58:29.998Z</time></trkpt><trkpt lat="45.57732252310146" lon="10.067034192422076"><ele>173.0</ele><time>2026-03-15T11:58:30.998Z</time></trkpt><trkpt lat="45.57726834802458" lon="10.067115937270499"><ele>173.0</ele><time>2026-03-15T11:58:31.998Z</time></trkpt><trkpt lat="45.57722573872556" lon="10.067202379359195"><ele>173.0</ele><time>2026-03-15T11:58:32.998Z</time></trkpt><trkpt lat="45.57731928553751" lon="10.067465445972763"><ele>173.0</ele><time>2026-03-15T11:58:34.998Z</time></trkpt><trkpt lat="45.57696273320841" lon="10.067428587332108"><ele>172.0</ele><time>2026-03-15T11:58:40.998Z</time></trkpt><trkpt lat="45.57683922429511" lon="10.067438851110856"><ele>171.0</ele><time>2026-03-15T11:58:41.998Z</time></trkpt><trkpt lat="45.576696981369786" lon="10.06741569732564"><ele>170.0</ele><time>2026-03-15T11:58:42.998Z</time></trkpt><trkpt lat="45.57655213737548" lon="10.067374094172578"><ele>169.0</ele><time>2026-03-15T11:58:43.998Z</time></trkpt><trkpt lat="45.57632824331337" lon="10.067253896497471"><ele>168.33333333333334</ele><time>2026-03-15T11:58:44.998Z</time></trkpt><trkpt lat="45.57617305802584" lon="10.067196820300733"><ele>167.66666666666666</ele><time>2026-03-15T11:58:45.998Z</time></trkpt><trkpt lat="45.576031666043" lon="10.067142518418576"><ele>167.0</ele><time>2026-03-15T11:58:46.998Z</time></trkpt><trkpt lat="45.57589067517016" lon="10.067092601443255"><ele>167.0</ele><time>2026-03-15T11:58:47.998Z</time></trkpt><trkpt lat="45.57575012214453" lon="10.067043212558369"><ele>167.0</ele><time>2026-03-15T11:58:48.998Z</time></trkpt><trkpt lat="45.57562029654012" lon="10.0669952620008"><ele>167.0</ele><time>2026-03-15T11:58:49.998Z</time></trkpt><trkpt lat="45.57550026581383" lon="10.06694552975257"><ele>167.0</ele><time>2026-03-15T11:58:50.998Z</time></trkpt><trkpt lat="45.57540014228385" lon="10.066905853879085"><ele>167.33333333333331</ele><time>2026-03-15T11:58:51.998Z</time></trkpt><trkpt lat="45.57530232782003" lon="10.066875974643763"><ele>167.66666666666666</ele><time>2026-03-15T11:58:52.998Z</time></trkpt><trkpt lat="45.575217919306404" lon="10.066847422462418"><ele>168.0</ele><time>2026-03-15T11:58:53.998Z</time></trkpt><trkpt lat="45.57515119455718" lon="10.06680179300564"><ele>168.33333333333334</ele><time>2026-03-15T11:58:54.998Z</time></trkpt><trkpt lat="45.57510168976425" lon="10.066664463180759"><ele>168.66666666666669</ele><time>2026-03-15T11:58:56.998Z</time></trkpt><trkpt lat="45.575161022503146" lon="10.066605296284159"><ele>169.0</ele><time>2026-03-15T11:58:57.998Z</time></trkpt><trkpt lat="45.57527049529022" lon="10.066495923299435"><ele>168.33333333333334</ele><time>2026-03-15T11:58:59.998Z</time></trkpt><trkpt lat="45.57536841625399" lon="10.066383949829282"><ele>167.66666666666666</ele><time>2026-03-15T11:59:00.998Z</time></trkpt><trkpt lat="45.57549689591176" lon="10.066237852610278"><ele>167.0</ele><time>2026-03-15T11:59:01.998Z</time></trkpt><trkpt lat="45.57562470555911" lon="10.066090136078552"><ele>167.0</ele><time>2026-03-15T11:59:02.998Z</time></trkpt><trkpt lat="45.57579437891735" lon="10.065891063602704"><ele>167.0</ele><time>2026-03-15T11:59:03.998Z</time></trkpt><trkpt lat="45.575970936283355" lon="10.065671851609624"><ele>167.25</ele><time>2026-03-15T11:59:04.998Z</time></trkpt><trkpt lat="45.57603075644528" lon="10.065595246281083"><ele>167.5</ele><time>2026-03-15T11:59:05.998Z</time></trkpt><trkpt lat="45.576158174345075" lon="10.065432075714348"><ele>167.75</ele><time>2026-03-15T11:59:06.998Z</time></trkpt><trkpt lat="45.5762810422302" lon="10.065258942314415"><ele>168.0</ele><time>2026-03-15T11:59:07.998Z</time></trkpt><trkpt lat="45.57642813463406" lon="10.065092925241366"><ele>168.33333333333334</ele><time>2026-03-15T11:59:08.998Z</time></trkpt><trkpt lat="45.576538131884945" lon="10.064956824502667"><ele>168.66666666666669</ele><time>2026-03-15T11:59:09.998Z</time></trkpt><trkpt lat="45.5766612067388" lon="10.064818157171358"><ele>169.0</ele><time>2026-03-15T11:59:10.998Z</time></trkpt><trkpt lat="45.5767958946844" lon="10.064695770624368"><ele>169.0</ele><time>2026-03-15T11:59:11.998Z</time></trkpt><trkpt lat="45.576907385448536" lon="10.064571325279154"><ele>169.0</ele><time>2026-03-15T11:59:12.998Z</time></trkpt><trkpt lat="45.57700881967901" lon="10.064458104977843"><ele>169.0</ele><time>2026-03-15T11:59:13.998Z</time></trkpt><trkpt lat="45.57711178665918" lon="10.064314878370956"><ele>169.0</ele><time>2026-03-15T11:59:14.997Z</time></trkpt><trkpt lat="45.577219137077996" lon="10.064223354937976"><ele>170.0</ele><time>2026-03-15T11:59:15.997Z</time></trkpt><trkpt lat="45.57732187581519" lon="10.064108682286506"><ele>171.0</ele><time>2026-03-15T11:59:16.997Z</time></trkpt><trkpt lat="45.57745065409779" lon="10.063964945393366"><ele>172.0</ele><time>2026-03-15T11:59:17.997Z</time></trkpt><trkpt lat="45.57754058174867" lon="10.063812871780978"><ele>173.0</ele><time>2026-03-15T11:59:18.997Z</time></trkpt><trkpt lat="45.57765402040303" lon="10.063690423906147"><ele>173.0</ele><time>2026-03-15T11:59:19.997Z</time></trkpt><trkpt lat="45.57776309724016" lon="10.063559302247699"><ele>173.0</ele><time>2026-03-15T11:59:20.997Z</time></trkpt><trkpt lat="45.57786010217071" lon="10.063439578333606"><ele>173.0</ele><time>2026-03-15T11:59:21.997Z</time></trkpt><trkpt lat="45.57795498478196" lon="10.063325469868715"><ele>173.0</ele><time>2026-03-15T11:59:22.997Z</time></trkpt><trkpt lat="45.5780466582308" lon="10.063207103121405"><ele>173.4</ele><time>2026-03-15T11:59:23.997Z</time></trkpt><trkpt lat="45.57811774126027" lon="10.063091966633282"><ele>173.8</ele><time>2026-03-15T11:59:24.997Z</time></trkpt><trkpt lat="45.57816957964423" lon="10.062971271259531"><ele>174.2</ele><time>2026-03-15T11:59:25.997Z</time></trkpt><trkpt lat="45.57822375028249" lon="10.062868610376853"><ele>174.6</ele><time>2026-03-15T11:59:26.997Z</time></trkpt><trkpt lat="45.57830396673598" lon="10.062782769668031"><ele>175.0</ele><time>2026-03-15T11:59:27.997Z</time></trkpt><trkpt lat="45.578415645711914" lon="10.06268930249619"><ele>175.0</ele><time>2026-03-15T11:59:28.997Z</time></trkpt><trkpt lat="45.57850495345562" lon="10.062590092483946"><ele>175.0</ele><time>2026-03-15T11:59:29.997Z</time></trkpt><trkpt lat="45.578580096722405" lon="10.06248546639706"><ele>175.0</ele><time>2026-03-15T11:59:31Z</time></trkpt><trkpt lat="45.578667626831894" lon="10.06237844459729"><ele>175.0</ele><time>2026-03-15T11:59:32Z</time></trkpt><trkpt lat="45.57873725155922" lon="10.062278275179747"><ele>175.0</ele><time>2026-03-15T11:59:33Z</time></trkpt><trkpt lat="45.578801299005235" lon="10.062216831404491"><ele>175.0</ele><time>2026-03-15T11:59:34Z</time></trkpt><trkpt lat="45.57886603618811" lon="10.062145232429929"><ele>175.0</ele><time>2026-03-15T11:59:35Z</time></trkpt><trkpt lat="45.57893148038939" lon="10.062057287945697"><ele>175.0</ele><time>2026-03-15T11:59:36Z</time></trkpt><trkpt lat="45.5789902840935" lon="10.06199114853343"><ele>175.0</ele><time>2026-03-15T11:59:37Z</time></trkpt><trkpt lat="45.579041003355684" lon="10.061925352248116"><ele>175.0</ele><time>2026-03-15T11:59:38Z</time></trkpt><trkpt lat="45.57915993783584" lon="10.061771873916772"><ele>175.0</ele><time>2026-03-15T11:59:40Z</time></trkpt><trkpt lat="45.57921767573333" lon="10.061696270249554"><ele>175.0</ele><time>2026-03-15T11:59:41Z</time></trkpt><trkpt lat="45.579280896612424" lon="10.061622196344258"><ele>175.0</ele><time>2026-03-15T11:59:42Z</time></trkpt><trkpt lat="45.57934597041019" lon="10.06153571989108"><ele>175.0</ele><time>2026-03-15T11:59:43Z</time></trkpt><trkpt lat="45.579415080326044" lon="10.061479372116926"><ele>175.0</ele><time>2026-03-15T11:59:44Z</time></trkpt><trkpt lat="45.579489128149916" lon="10.061436341555044"><ele>175.0</ele><time>2026-03-15T11:59:45Z</time></trkpt><trkpt lat="45.57955809419379" lon="10.061397505402377"><ele>175.0</ele><time>2026-03-15T11:59:46Z</time></trkpt><trkpt lat="45.5796221326212" lon="10.061384446610546"><ele>175.0</ele><time>2026-03-15T11:59:47Z</time></trkpt><trkpt lat="45.57974423328302" lon="10.0614376555535"><ele>175.0</ele><time>2026-03-15T11:59:49Z</time></trkpt><trkpt lat="45.579810069834636" lon="10.061496931730453"><ele>175.0</ele><time>2026-03-15T11:59:50Z</time></trkpt><trkpt lat="45.57987276273933" lon="10.061571008652368"><ele>175.0</ele><time>2026-03-15T11:59:51Z</time></trkpt><trkpt lat="45.57993601175862" lon="10.061623035685837"><ele>175.0</ele><time>2026-03-15T11:59:52Z</time></trkpt><trkpt lat="45.58000073334162" lon="10.061626452387152"><ele>175.0</ele><time>2026-03-15T11:59:53Z</time></trkpt><trkpt lat="45.58017761191993" lon="10.061473682118827"><ele>175.0</ele><time>2026-03-15T11:59:55Z</time></trkpt><trkpt lat="45.580255780767345" lon="10.061396578295208"><ele>175.0</ele><time>2026-03-15T11:59:56Z</time></trkpt><trkpt lat="45.580350293202535" lon="10.061298162578495"><ele>175.0</ele><time>2026-03-15T11:59:57Z</time></trkpt><trkpt lat="45.58042794648728" lon="10.061217133711546"><ele>175.5</ele><time>2026-03-15T11:59:58Z</time></trkpt><trkpt lat="45.58048660012929" lon="10.061177738475001"><ele>176.0</ele><time>2026-03-15T11:59:59Z</time></trkpt><trkpt lat="45.5805416248088" lon="10.061122750250766"><ele>176.5</ele><time>2026-03-15T12:00:00Z</time></trkpt><trkpt lat="45.580608566872975" lon="10.061055620130475"><ele>177.0</ele><time>2026-03-15T12:00:01Z</time></trkpt><trkpt lat="45.5806943659057" lon="10.061021260418508"><ele>177.5</ele><time>2026-03-15T12:00:02Z</time></trkpt><trkpt lat="45.58078650699403" lon="10.061007980939175"><ele>178.0</ele><time>2026-03-15T12:00:03Z</time></trkpt><trkpt lat="45.580892951646284" lon="10.060962878739533"><ele>178.0</ele><time>2026-03-15T12:00:04Z</time></trkpt><trkpt lat="45.58098230783335" lon="10.0609103339885"><ele>178.0</ele><time>2026-03-15T12:00:05Z</time></trkpt><trkpt lat="45.58105709548023" lon="10.060877865927376"><ele>178.0</ele><time>2026-03-15T12:00:06Z</time></trkpt><trkpt lat="45.58111962593681" lon="10.060902651676336"><ele>178.0</ele><time>2026-03-15T12:00:06.999Z</time></trkpt><trkpt lat="45.58118495542804" lon="10.060946999842495"><ele>178.0</ele><time>2026-03-15T12:00:07.999Z</time></trkpt><trkpt lat="45.58128318713275" lon="10.06102141267675"><ele>178.0</ele><time>2026-03-15T12:00:08.999Z</time></trkpt><trkpt lat="45.581383058122825" lon="10.06109717412746"><ele>177.75</ele><time>2026-03-15T12:00:09.999Z</time></trkpt><trkpt lat="45.581492148536356" lon="10.061182860240745"><ele>177.5</ele><time>2026-03-15T12:00:10.999Z</time></trkpt><trkpt lat="45.58161513026029" lon="10.061302908326292"><ele>177.25</ele><time>2026-03-15T12:00:11.999Z</time></trkpt><trkpt lat="45.581750235070885" lon="10.061437655471394"><ele>177.0</ele><time>2026-03-15T12:00:12.999Z</time></trkpt><trkpt lat="45.58185049528091" lon="10.061571742347983"><ele>177.66666666666666</ele><time>2026-03-15T12:00:13.999Z</time></trkpt><trkpt lat="45.58200444645492" lon="10.061728689040352"><ele>178.33333333333331</ele><time>2026-03-15T12:00:14.999Z</time></trkpt><trkpt lat="45.582144815035015" lon="10.061862218537602"><ele>179.0</ele><time>2026-03-15T12:00:15.999Z</time></trkpt><trkpt lat="45.58225931064957" lon="10.061974365718536"><ele>179.25</ele><time>2026-03-15T12:00:16.999Z</time></trkpt><trkpt lat="45.582361501603124" lon="10.062049506321829"><ele>179.5</ele><time>2026-03-15T12:00:17.999Z</time></trkpt><trkpt lat="45.58246611758293" lon="10.06209111295757"><ele>179.75</ele><time>2026-03-15T12:00:18.999Z</time></trkpt><trkpt lat="45.582599030981406" lon="10.062120169708047"><ele>180.0</ele><time>2026-03-15T12:00:19.999Z</time></trkpt><trkpt lat="45.582764895917045" lon="10.062146449108926"><ele>180.33333333333334</ele><time>2026-03-15T12:00:20.999Z</time></trkpt><trkpt lat="45.58294643736892" lon="10.062155725366335"><ele>180.66666666666669</ele><time>2026-03-15T12:00:21.999Z</time></trkpt><trkpt lat="45.583144141994424" lon="10.062167998820842"><ele>181.0</ele><time>2026-03-15T12:00:22.999Z</time></trkpt><trkpt lat="45.58330359698835" lon="10.062173951016778"><ele>181.0</ele><time>2026-03-15T12:00:23.999Z</time></trkpt><trkpt lat="45.58344491648381" lon="10.062181436199007"><ele>181.0</ele><time>2026-03-15T12:00:24.999Z</time></trkpt><trkpt lat="45.58357181753656" lon="10.062202963242157"><ele>181.0</ele><time>2026-03-15T12:00:25.999Z</time></trkpt><trkpt lat="45.583687591978816" lon="10.062241606376045"><ele>181.0</ele><time>2026-03-15T12:00:26.999Z</time></trkpt><trkpt lat="45.58379249135355" lon="10.062280216473393"><ele>181.0</ele><time>2026-03-15T12:00:27.999Z</time></trkpt><trkpt lat="45.583916679458866" lon="10.062350775435561"><ele>181.0</ele><time>2026-03-15T12:00:28.999Z</time></trkpt><trkpt lat="45.5840655076753" lon="10.062449065271302"><ele>181.0</ele><time>2026-03-15T12:00:29.999Z</time></trkpt><trkpt lat="45.58420185978864" lon="10.062552510760845"><ele>181.0</ele><time>2026-03-15T12:00:30.999Z</time></trkpt><trkpt lat="45.58431008969565" lon="10.062668836772247"><ele>181.0</ele><time>2026-03-15T12:00:31.999Z</time></trkpt><trkpt lat="45.5844098442649" lon="10.062769326212754"><ele>181.0</ele><time>2026-03-15T12:00:32.999Z</time></trkpt><trkpt lat="45.58451369089861" lon="10.06286409786544"><ele>181.0</ele><time>2026-03-15T12:00:33.999Z</time></trkpt><trkpt lat="45.584641210391766" lon="10.062960420971315"><ele>180.66666666666669</ele><time>2026-03-15T12:00:34.999Z</time></trkpt><trkpt lat="45.58477077092383" lon="10.063046758771991"><ele>180.33333333333334</ele><time>2026-03-15T12:00:35.999Z</time></trkpt><trkpt lat="45.584927151447324" lon="10.063125505324203"><ele>180.0</ele><time>2026-03-15T12:00:36.999Z</time></trkpt><trkpt lat="45.585069827201394" lon="10.063204587120882"><ele>179.6</ele><time>2026-03-15T12:00:37.999Z</time></trkpt><trkpt lat="45.5851833204642" lon="10.063300572836313"><ele>179.2</ele><time>2026-03-15T12:00:38.999Z</time></trkpt><trkpt lat="45.585296024279046" lon="10.063386045696136"><ele>178.8</ele><time>2026-03-15T12:00:39.999Z</time></trkpt><trkpt lat="45.58536910056257" lon="10.063440760571185"><ele>178.4</ele><time>2026-03-15T12:00:40.999Z</time></trkpt><trkpt lat="45.58544414096186" lon="10.063492837539606"><ele>178.0</ele><time>2026-03-15T12:00:42.999Z</time></trkpt><trkpt lat="45.58567082356193" lon="10.063354088512241"><ele>178.0</ele><time>2026-03-15T12:00:55.998Z</time></trkpt><trkpt lat="45.585768571264616" lon="10.06329136085128"><ele>178.0</ele><time>2026-03-15T12:00:57.998Z</time></trkpt><trkpt lat="45.58590336272655" lon="10.063231131431493"><ele>178.0</ele><time>2026-03-15T12:00:59.998Z</time></trkpt><trkpt lat="45.58600998482116" lon="10.063180314105773"><ele>178.0</ele><time>2026-03-15T12:01:00.998Z</time></trkpt><trkpt lat="45.58620884254063" lon="10.063090729897468"><ele>179.66666666666669</ele><time>2026-03-15T12:01:01.998Z</time></trkpt><trkpt lat="45.58642737903386" lon="10.063043387140297"><ele>181.33333333333334</ele><time>2026-03-15T12:01:02.998Z</time></trkpt><trkpt lat="45.58662144683055" lon="10.063031853634264"><ele>183.0</ele><time>2026-03-15T12:01:03.998Z</time></trkpt><trkpt lat="45.58680209057065" lon="10.063051459691593"><ele>183.0</ele><time>2026-03-15T12:01:04.998Z</time></trkpt><trkpt lat="45.586974324047965" lon="10.063088266684636"><ele>183.0</ele><time>2026-03-15T12:01:05.998Z</time></trkpt><trkpt lat="45.58712706725778" lon="10.063105512907827"><ele>183.0</ele><time>2026-03-15T12:01:06.998Z</time></trkpt><trkpt lat="45.58726984381348" lon="10.063148532972681"><ele>184.0</ele><time>2026-03-15T12:01:07.998Z</time></trkpt><trkpt lat="45.58742003658841" lon="10.063183842321052"><ele>185.0</ele><time>2026-03-15T12:01:08.998Z</time></trkpt><trkpt lat="45.587572060854434" lon="10.063221715685785"><ele>186.0</ele><time>2026-03-15T12:01:09.998Z</time></trkpt><trkpt lat="45.587720292689504" lon="10.063260395968937"><ele>186.0</ele><time>2026-03-15T12:01:10.998Z</time></trkpt><trkpt lat="45.58787051032969" lon="10.063285806256033"><ele>186.0</ele><time>2026-03-15T12:01:11.998Z</time></trkpt><trkpt lat="45.588021158624095" lon="10.063288479637281"><ele>186.0</ele><time>2026-03-15T12:01:12.998Z</time></trkpt><trkpt lat="45.58816876717629" lon="10.063277706779479"><ele>186.25</ele><time>2026-03-15T12:01:13.998Z</time></trkpt><trkpt lat="45.58830882388713" lon="10.063243416333368"><ele>186.5</ele><time>2026-03-15T12:01:14.998Z</time></trkpt><trkpt lat="45.58839552361747" lon="10.06322287358033"><ele>186.75</ele><time>2026-03-15T12:01:15.998Z</time></trkpt><trkpt lat="45.588507976829476" lon="10.063124858212968"><ele>187.0</ele><time>2026-03-15T12:01:16.998Z</time></trkpt><trkpt lat="45.58862185177095" lon="10.063018497987144"><ele>187.5</ele><time>2026-03-15T12:01:17.998Z</time></trkpt><trkpt lat="45.588726762958586" lon="10.06288626237541"><ele>188.0</ele><time>2026-03-15T12:01:18.998Z</time></trkpt><trkpt lat="45.588823403329855" lon="10.062727904829606"><ele>188.5</ele><time>2026-03-15T12:01:19.998Z</time></trkpt><trkpt lat="45.5889115722381" lon="10.062560799027743"><ele>189.0</ele><time>2026-03-15T12:01:20.998Z</time></trkpt><trkpt lat="45.589005462404415" lon="10.062392908656753"><ele>189.0</ele><time>2026-03-15T12:01:21.998Z</time></trkpt><trkpt lat="45.589088402000534" lon="10.062229819081335"><ele>189.0</ele><time>2026-03-15T12:01:22.998Z</time></trkpt><trkpt lat="45.58915789446253" lon="10.062086037844525"><ele>189.0</ele><time>2026-03-15T12:01:23.998Z</time></trkpt><trkpt lat="45.58922703931307" lon="10.06193071409182"><ele>189.0</ele><time>2026-03-15T12:01:24.998Z</time></trkpt><trkpt lat="45.58929347275882" lon="10.06178760164336"><ele>189.0</ele><time>2026-03-15T12:01:25.998Z</time></trkpt><trkpt lat="45.58936012971735" lon="10.06163847551549"><ele>189.0</ele><time>2026-03-15T12:01:26.998Z</time></trkpt><trkpt lat="45.589427400661016" lon="10.061495925245117"><ele>189.0</ele><time>2026-03-15T12:01:27.998Z</time></trkpt><trkpt lat="45.5894943781566" lon="10.061394956030258"><ele>189.0</ele><time>2026-03-15T12:01:28.998Z</time></trkpt><trkpt lat="45.58957907263139" lon="10.061359473725664"><ele>189.0</ele><time>2026-03-15T12:01:29.998Z</time></trkpt><trkpt lat="45.58966595181486" lon="10.061282157070275"><ele>188.75</ele><time>2026-03-15T12:01:30.998Z</time></trkpt><trkpt lat="45.58978025428236" lon="10.061226028393527"><ele>188.5</ele><time>2026-03-15T12:01:31.998Z</time></trkpt><trkpt lat="45.58991962740593" lon="10.061164210234272"><ele>188.25</ele><time>2026-03-15T12:01:32.998Z</time></trkpt><trkpt lat="45.590058251482716" lon="10.061140345757913"><ele>188.0</ele><time>2026-03-15T12:01:33.998Z</time></trkpt><trkpt lat="45.59020925156828" lon="10.06116995237434"><ele>188.25</ele><time>2026-03-15T12:01:34.998Z</time></trkpt><trkpt lat="45.590360490468676" lon="10.061234192887289"><ele>188.5</ele><time>2026-03-15T12:01:35.998Z</time></trkpt><trkpt lat="45.590497075445015" lon="10.061279338839643"><ele>188.75</ele><time>2026-03-15T12:01:37Z</time></trkpt><trkpt lat="45.59062691165978" lon="10.061302870279503"><ele>189.0</ele><time>2026-03-15T12:01:38Z</time></trkpt><trkpt lat="45.59077357300086" lon="10.061334995150082"><ele>189.0</ele><time>2026-03-15T12:01:39Z</time></trkpt><trkpt lat="45.590893570680116" lon="10.061356861104338"><ele>189.0</ele><time>2026-03-15T12:01:40Z</time></trkpt><trkpt lat="45.591024006811445" lon="10.061383801107027"><ele>189.0</ele><time>2026-03-15T12:01:41Z</time></trkpt><trkpt lat="45.591170384076946" lon="10.061439760570638"><ele>189.0</ele><time>2026-03-15T12:01:42Z</time></trkpt><trkpt lat="45.59131979329886" lon="10.061462227472926"><ele>189.66666666666666</ele><time>2026-03-15T12:01:43Z</time></trkpt><trkpt lat="45.5914739469548" lon="10.061484781253814"><ele>190.33333333333331</ele><time>2026-03-15T12:01:44Z</time></trkpt><trkpt lat="45.591631394152294" lon="10.061498413590611"><ele>191.0</ele><time>2026-03-15T12:01:45Z</time></trkpt><trkpt lat="45.59178549452481" lon="10.061514451296224"><ele>191.0</ele><time>2026-03-15T12:01:46Z</time></trkpt><trkpt lat="45.591920529258445" lon="10.06152746670613"><ele>191.0</ele><time>2026-03-15T12:01:47Z</time></trkpt><trkpt lat="45.59203740807637" lon="10.061537021952134"><ele>191.0</ele><time>2026-03-15T12:01:48Z</time></trkpt><trkpt lat="45.59214709629212" lon="10.061550586563273"><ele>191.0</ele><time>2026-03-15T12:01:49Z</time></trkpt><trkpt lat="45.59225785857219" lon="10.061564939388994"><ele>191.4</ele><time>2026-03-15T12:01:50Z</time></trkpt><trkpt lat="45.59237889551969" lon="10.061580168921395"><ele>191.8</ele><time>2026-03-15T12:01:51Z</time></trkpt><trkpt lat="45.592491545350406" lon="10.061590949659463"><ele>192.20000000000002</ele><time>2026-03-15T12:01:52Z</time></trkpt><trkpt lat="45.59258701683303" lon="10.061600098933008"><ele>192.60000000000002</ele><time>2026-03-15T12:01:53Z</time></trkpt><trkpt lat="45.592670111380585" lon="10.061610627641898"><ele>193.0</ele><time>2026-03-15T12:01:54Z</time></trkpt><trkpt lat="45.59275665090317" lon="10.061617850868005"><ele>193.60000000000002</ele><time>2026-03-15T12:01:55Z</time></trkpt><trkpt lat="45.592844672399195" lon="10.061629269098734"><ele>194.20000000000002</ele><time>2026-03-15T12:01:56Z</time></trkpt><trkpt lat="45.59295420599272" lon="10.061636618009"><ele>194.8</ele><time>2026-03-15T12:01:57Z</time></trkpt><trkpt lat="45.59304424462437" lon="10.061625530201079"><ele>195.4</ele><time>2026-03-15T12:01:58Z</time></trkpt><trkpt lat="45.59314214152111" lon="10.061558478193641"><ele>196.0</ele><time>2026-03-15T12:01:59Z</time></trkpt><trkpt lat="45.59323883589059" lon="10.061494394546243"><ele>196.0</ele><time>2026-03-15T12:02:00Z</time></trkpt><trkpt lat="45.59332924628613" lon="10.061429213619158"><ele>196.0</ele><time>2026-03-15T12:02:01Z</time></trkpt><trkpt lat="45.593417121730184" lon="10.061357199653106"><ele>196.0</ele><time>2026-03-15T12:02:02Z</time></trkpt><trkpt lat="45.593512404862125" lon="10.061312744734435"><ele>196.0</ele><time>2026-03-15T12:02:03Z</time></trkpt><trkpt lat="45.59360276374725" lon="10.061330995522985"><ele>196.0</ele><time>2026-03-15T12:02:04Z</time></trkpt><trkpt lat="45.59369217166404" lon="10.061326971218667"><ele>196.0</ele><time>2026-03-15T12:02:05Z</time></trkpt><trkpt lat="45.5937834700015" lon="10.061325370012847"><ele>196.0</ele><time>2026-03-15T12:02:06Z</time></trkpt><trkpt lat="45.59388458751461" lon="10.061307511463278"><ele>196.0</ele><time>2026-03-15T12:02:07Z</time></trkpt><trkpt lat="45.59398344680022" lon="10.06130691030943"><ele>196.0</ele><time>2026-03-15T12:02:08Z</time></trkpt><trkpt lat="45.594089251379025" lon="10.061308689082438"><ele>196.0</ele><time>2026-03-15T12:02:09Z</time></trkpt><trkpt lat="45.594198967261384" lon="10.06131741090583"><ele>196.0</ele><time>2026-03-15T12:02:10Z</time></trkpt><trkpt lat="45.59431038614655" lon="10.061346996550236"><ele>196.0</ele><time>2026-03-15T12:02:11Z</time></trkpt><trkpt lat="45.594431839338945" lon="10.06138219686092"><ele>196.0</ele><time>2026-03-15T12:02:12Z</time></trkpt><trkpt lat="45.594560523062256" lon="10.061412518711125"><ele>196.0</ele><time>2026-03-15T12:02:13Z</time></trkpt><trkpt lat="45.59469352465396" lon="10.061448360090584"><ele>195.75</ele><time>2026-03-15T12:02:14Z</time></trkpt><trkpt lat="45.59481971680062" lon="10.061472156849344"><ele>195.5</ele><time>2026-03-15T12:02:15Z</time></trkpt><trkpt lat="45.59494747913975" lon="10.061473623254479"><ele>195.25</ele><time>2026-03-15T12:02:16Z</time></trkpt><trkpt lat="45.595069355754376" lon="10.061463501146138"><ele>195.0</ele><time>2026-03-15T12:02:17Z</time></trkpt><trkpt lat="45.59516791874631" lon="10.061438428797238"><ele>195.0</ele><time>2026-03-15T12:02:18Z</time></trkpt><trkpt lat="45.59532075139597" lon="10.06141951209442"><ele>195.0</ele><time>2026-03-15T12:02:19Z</time></trkpt><trkpt lat="45.59553876878833" lon="10.061380893249886"><ele>195.0</ele><time>2026-03-15T12:02:20Z</time></trkpt><trkpt lat="45.59580328006128" lon="10.061374981313008"><ele>195.66666666666669</ele><time>2026-03-15T12:02:21Z</time></trkpt><trkpt lat="45.59602743240153" lon="10.061343452599493"><ele>196.33333333333334</ele><time>2026-03-15T12:02:22Z</time></trkpt><trkpt lat="45.59621389952363" lon="10.061299632085449"><ele>197.0</ele><time>2026-03-15T12:02:23Z</time></trkpt><trkpt lat="45.59638396378843" lon="10.061273507149963"><ele>198.0</ele><time>2026-03-15T12:02:24Z</time></trkpt><trkpt lat="45.59653946143811" lon="10.06127257405114"><ele>199.0</ele><time>2026-03-15T12:02:25Z</time></trkpt><trkpt lat="45.596670670036254" lon="10.061331977818888"><ele>200.0</ele><time>2026-03-15T12:02:25.999Z</time></trkpt><trkpt lat="45.59680863564726" lon="10.0613612182943"><ele>201.0</ele><time>2026-03-15T12:02:26.999Z</time></trkpt><trkpt lat="45.59695386363257" lon="10.061451101421339"><ele>201.33333333333331</ele><time>2026-03-15T12:02:27.999Z</time></trkpt><trkpt lat="45.597140074579414" lon="10.061510200057537"><ele>201.66666666666666</ele><time>2026-03-15T12:02:28.999Z</time></trkpt><trkpt lat="45.59736673462706" lon="10.061620235292507"><ele>202.0</ele><time>2026-03-15T12:02:29.999Z</time></trkpt><trkpt lat="45.59760184873273" lon="10.061747955120802"><ele>202.0</ele><time>2026-03-15T12:02:30.999Z</time></trkpt><trkpt lat="45.59784094829029" lon="10.06187610639587"><ele>202.0</ele><time>2026-03-15T12:02:31.999Z</time></trkpt><trkpt lat="45.598032723857145" lon="10.061967906326526"><ele>202.0</ele><time>2026-03-15T12:02:32.999Z</time></trkpt><trkpt lat="45.598208885310086" lon="10.062040185376736"><ele>202.0</ele><time>2026-03-15T12:02:33.999Z</time></trkpt><trkpt lat="45.59836641835785" lon="10.062124150632407"><ele>202.0</ele><time>2026-03-15T12:02:34.999Z</time></trkpt><trkpt lat="45.598520833385834" lon="10.062207803517012"><ele>202.5</ele><time>2026-03-15T12:02:35.999Z</time></trkpt><trkpt lat="45.59867535393332" lon="10.062286709769738"><ele>203.0</ele><time>2026-03-15T12:02:36.999Z</time></trkpt><trkpt lat="45.5988136538572" lon="10.062354778960032"><ele>203.5</ele><time>2026-03-15T12:02:37.999Z</time></trkpt><trkpt lat="45.598943016465334" lon="10.062420436352841"><ele>204.0</ele><time>2026-03-15T12:02:38.999Z</time></trkpt><trkpt lat="45.599062226824685" lon="10.062490063456233"><ele>204.0</ele><time>2026-03-15T12:02:39.999Z</time></trkpt><trkpt lat="45.59915986072871" lon="10.062543590583097"><ele>204.0</ele><time>2026-03-15T12:02:40.999Z</time></trkpt><trkpt lat="45.59923760402285" lon="10.062581565326568"><ele>204.0</ele><time>2026-03-15T12:02:41.999Z</time></trkpt><trkpt lat="45.599303863307604" lon="10.062608683780608"><ele>204.0</ele><time>2026-03-15T12:02:42.999Z</time></trkpt><trkpt lat="45.599366220279286" lon="10.06270319601429"><ele>204.0</ele><time>2026-03-15T12:02:43.999Z</time></trkpt><trkpt lat="45.59944041289581" lon="10.06270355649313"><ele>204.0</ele><time>2026-03-15T12:02:45.999Z</time></trkpt><trkpt lat="45.599452621833926" lon="10.062799790099954"><ele>204.0</ele><time>2026-03-15T12:02:46.999Z</time></trkpt><trkpt lat="45.59944174084765" lon="10.062911409553825"><ele>204.0</ele><time>2026-03-15T12:02:47.999Z</time></trkpt><trkpt lat="45.59943899321317" lon="10.063019067480436"><ele>204.0</ele><time>2026-03-15T12:02:48.999Z</time></trkpt><trkpt lat="45.59959101049993" lon="10.06303520960851"><ele>204.0</ele><time>2026-03-15T12:02:50.999Z</time></trkpt><trkpt lat="45.599653455518826" lon="10.062939790575125"><ele>204.0</ele><time>2026-03-15T12:02:51.999Z</time></trkpt><trkpt lat="45.59975482128369" lon="10.062910173403468"><ele>204.66666666666669</ele><time>2026-03-15T12:02:52.999Z</time></trkpt><trkpt lat="45.59989666576596" lon="10.062942418725857"><ele>205.33333333333334</ele><time>2026-03-15T12:02:53.999Z</time></trkpt><trkpt lat="45.60007795541484" lon="10.062955520111055"><ele>206.0</ele><time>2026-03-15T12:02:54.999Z</time></trkpt><trkpt lat="45.60026599808478" lon="10.0630036206247"><ele>207.0</ele><time>2026-03-15T12:02:55.999Z</time></trkpt><trkpt lat="45.60047319198821" lon="10.063061065137015"><ele>208.0</ele><time>2026-03-15T12:02:56.999Z</time></trkpt><trkpt lat="45.600676768515875" lon="10.06320103095363"><ele>209.0</ele><time>2026-03-15T12:02:57.999Z</time></trkpt><trkpt lat="45.60090493287767" lon="10.063350779961308"><ele>209.0</ele><time>2026-03-15T12:02:58.999Z</time></trkpt><trkpt lat="45.60109827994649" lon="10.063479305545615"><ele>209.0</ele><time>2026-03-15T12:02:59.999Z</time></trkpt><trkpt lat="45.60126788499903" lon="10.0636047326912"><ele>209.0</ele><time>2026-03-15T12:03:00.999Z</time></trkpt><trkpt lat="45.6014439141688" lon="10.063733538801523"><ele>209.33333333333334</ele><time>2026-03-15T12:03:01.999Z</time></trkpt><trkpt lat="45.60161176601858" lon="10.06384720007765"><ele>209.66666666666669</ele><time>2026-03-15T12:03:02.999Z</time></trkpt><trkpt lat="45.60176247028964" lon="10.063944063798242"><ele>210.0</ele><time>2026-03-15T12:03:03.999Z</time></trkpt><trkpt lat="45.60190063182818" lon="10.06403890546782"><ele>210.66666666666669</ele><time>2026-03-15T12:03:04.999Z</time></trkpt><trkpt lat="45.60204084784801" lon="10.06414106529031"><ele>211.33333333333334</ele><time>2026-03-15T12:03:05.999Z</time></trkpt><trkpt lat="45.60217860393501" lon="10.064247870722136"><ele>212.0</ele><time>2026-03-15T12:03:06.999Z</time></trkpt><trkpt lat="45.60232067351904" lon="10.064345231298088"><ele>212.0</ele><time>2026-03-15T12:03:07.999Z</time></trkpt><trkpt lat="45.60246268449689" lon="10.064447449930888"><ele>212.0</ele><time>2026-03-15T12:03:08.999Z</time></trkpt><trkpt lat="45.602596491829196" lon="10.064530977020159"><ele>212.0</ele><time>2026-03-15T12:03:09.998Z</time></trkpt><trkpt lat="45.60272320229714" lon="10.06459683352229"><ele>212.0</ele><time>2026-03-15T12:03:10.998Z</time></trkpt><trkpt lat="45.60282792344751" lon="10.064645045450048"><ele>211.83333333333334</ele><time>2026-03-15T12:03:11.998Z</time></trkpt><trkpt lat="45.60290723225542" lon="10.064687860049554"><ele>211.66666666666669</ele><time>2026-03-15T12:03:12.998Z</time></trkpt><trkpt lat="45.60297670765531" lon="10.064737065706797"><ele>211.5</ele><time>2026-03-15T12:03:13.998Z</time></trkpt><trkpt lat="45.60304346689438" lon="10.064807811140744"><ele>211.33333333333331</ele><time>2026-03-15T12:03:14.998Z</time></trkpt><trkpt lat="45.60308571960406" lon="10.064894721954126"><ele>211.16666666666666</ele><time>2026-03-15T12:03:15.998Z</time></trkpt><trkpt lat="45.60310749156371" lon="10.06500753955581"><ele>211.0</ele><time>2026-03-15T12:03:16.998Z</time></trkpt><trkpt lat="45.60316222379029" lon="10.065077391433244"><ele>211.0</ele><time>2026-03-15T12:03:17.998Z</time></trkpt><trkpt lat="45.60323423673445" lon="10.06508877336103"><ele>211.0</ele><time>2026-03-15T12:03:18.998Z</time></trkpt><trkpt lat="45.60330500619528" lon="10.065041975140149"><ele>211.0</ele><time>2026-03-15T12:03:19.998Z</time></trkpt><trkpt lat="45.60337868699315" lon="10.064955240573182"><ele>211.0</ele><time>2026-03-15T12:03:20.998Z</time></trkpt><trkpt lat="45.603475963696184" lon="10.064822080861337"><ele>211.0</ele><time>2026-03-15T12:03:21.998Z</time></trkpt><trkpt lat="45.60360377876559" lon="10.064750905082192"><ele>211.66666666666666</ele><time>2026-03-15T12:03:22.998Z</time></trkpt><trkpt lat="45.60373507950944" lon="10.064797321647475"><ele>212.33333333333331</ele><time>2026-03-15T12:03:23.998Z</time></trkpt><trkpt lat="45.603918432764154" lon="10.064803842345594"><ele>213.0</ele><time>2026-03-15T12:03:24.998Z</time></trkpt><trkpt lat="45.60411684736193" lon="10.064810898681706"><ele>213.0</ele><time>2026-03-15T12:03:25.998Z</time></trkpt><trkpt lat="45.604325120342494" lon="10.064818305617479"><ele>213.0</ele><time>2026-03-15T12:03:26.998Z</time></trkpt><trkpt lat="45.60454511536199" lon="10.064817596247943"><ele>213.0</ele><time>2026-03-15T12:03:27.998Z</time></trkpt><trkpt lat="45.604758958597166" lon="10.064848024810717"><ele>213.0</ele><time>2026-03-15T12:03:28.998Z</time></trkpt><trkpt lat="45.604946291512995" lon="10.064891214601426"><ele>213.0</ele><time>2026-03-15T12:03:29.998Z</time></trkpt><trkpt lat="45.60513732178727" lon="10.06495532430254"><ele>213.0</ele><time>2026-03-15T12:03:30.998Z</time></trkpt><trkpt lat="45.605331257248295" lon="10.065042164465536"><ele>213.33333333333331</ele><time>2026-03-15T12:03:31.998Z</time></trkpt><trkpt lat="45.60551972026743" lon="10.065146726103654"><ele>213.66666666666666</ele><time>2026-03-15T12:03:32.998Z</time></trkpt><trkpt lat="45.60568917082633" lon="10.065244235637147"><ele>214.0</ele><time>2026-03-15T12:03:33.998Z</time></trkpt><trkpt lat="45.60582542145489" lon="10.06530329086274"><ele>214.0</ele><time>2026-03-15T12:03:34.998Z</time></trkpt><trkpt lat="45.60595833307085" lon="10.065350267748194"><ele>214.0</ele><time>2026-03-15T12:03:35.998Z</time></trkpt><trkpt lat="45.60607947009709" lon="10.065414242866368"><ele>214.0</ele><time>2026-03-15T12:03:36.997Z</time></trkpt><trkpt lat="45.60620960208836" lon="10.065477179840673"><ele>214.0</ele><time>2026-03-15T12:03:37.997Z</time></trkpt><trkpt lat="45.60633777901578" lon="10.065526086203853"><ele>213.75</ele><time>2026-03-15T12:03:38.997Z</time></trkpt><trkpt lat="45.60646365640395" lon="10.065567223865557"><ele>213.5</ele><time>2026-03-15T12:03:39.997Z</time></trkpt><trkpt lat="45.606580487482766" lon="10.065610455030527"><ele>213.25</ele><time>2026-03-15T12:03:40.997Z</time></trkpt><trkpt lat="45.606708831510545" lon="10.065661945632629"><ele>213.0</ele><time>2026-03-15T12:03:41.997Z</time></trkpt><trkpt lat="45.60684587509745" lon="10.065703444550428"><ele>213.0</ele><time>2026-03-15T12:03:43Z</time></trkpt><trkpt lat="45.60702748731326" lon="10.065730629030247"><ele>213.0</ele><time>2026-03-15T12:03:44Z</time></trkpt><trkpt lat="45.607253622156534" lon="10.065759188890368"><ele>213.0</ele><time>2026-03-15T12:03:45Z</time></trkpt><trkpt lat="45.607500397643875" lon="10.06580934764303"><ele>213.0</ele><time>2026-03-15T12:03:46Z</time></trkpt><trkpt lat="45.607760543619605" lon="10.065870874891848"><ele>213.0</ele><time>2026-03-15T12:03:47Z</time></trkpt><trkpt lat="45.60800732669926" lon="10.065917700527065"><ele>212.0</ele><time>2026-03-15T12:03:48Z</time></trkpt><trkpt lat="45.60824906611583" lon="10.065949220434915"><ele>211.0</ele><time>2026-03-15T12:03:49Z</time></trkpt><trkpt lat="45.608487398525654" lon="10.065992080796384"><ele>211.5</ele><time>2026-03-15T12:03:50Z</time></trkpt><trkpt lat="45.608724296771896" lon="10.066044076241479"><ele>212.0</ele><time>2026-03-15T12:03:51Z</time></trkpt><trkpt lat="45.60895885912133" lon="10.066104103318708"><ele>212.0</ele><time>2026-03-15T12:03:52Z</time></trkpt><trkpt lat="45.60917907233289" lon="10.066205174357718"><ele>212.0</ele><time>2026-03-15T12:03:53Z</time></trkpt><trkpt lat="45.60939722737292" lon="10.066330720452868"><ele>214.0</ele><time>2026-03-15T12:03:54Z</time></trkpt><trkpt lat="45.60961478206781" lon="10.066462584299982"><ele>216.0</ele><time>2026-03-15T12:03:55Z</time></trkpt><trkpt lat="45.609828303360466" lon="10.066604278512"><ele>216.5</ele><time>2026-03-15T12:03:56Z</time></trkpt><trkpt lat="45.61003420653083" lon="10.066756526760255"><ele>217.0</ele><time>2026-03-15T12:03:57Z</time></trkpt><trkpt lat="45.610236064735275" lon="10.066914589680938"><ele>218.0</ele><time>2026-03-15T12:03:58Z</time></trkpt><trkpt lat="45.61043011421376" lon="10.067059287148252"><ele>219.0</ele><time>2026-03-15T12:03:59Z</time></trkpt><trkpt lat="45.6106067716984" lon="10.067187200863799"><ele>220.0</ele><time>2026-03-15T12:04:00Z</time></trkpt><trkpt lat="45.61076763271482" lon="10.067305527412577"><ele>220.0</ele><time>2026-03-15T12:04:00.999Z</time></trkpt><trkpt lat="45.61092051706972" lon="10.067420601864079"><ele>220.0</ele><time>2026-03-15T12:04:01.999Z</time></trkpt><trkpt lat="45.61108260736793" lon="10.067532439607978"><ele>220.0</ele><time>2026-03-15T12:04:02.999Z</time></trkpt><trkpt lat="45.61128069364733" lon="10.06764234470875"><ele>220.0</ele><time>2026-03-15T12:04:03.999Z</time></trkpt><trkpt lat="45.6114957968466" lon="10.067739271807765"><ele>220.0</ele><time>2026-03-15T12:04:04.999Z</time></trkpt><trkpt lat="45.61170699263498" lon="10.067836126828974"><ele>220.0</ele><time>2026-03-15T12:04:05.999Z</time></trkpt><trkpt lat="45.61191503300306" lon="10.067947289358488"><ele>220.0</ele><time>2026-03-15T12:04:06.999Z</time></trkpt><trkpt lat="45.61212823988906" lon="10.068057026801323"><ele>220.0</ele><time>2026-03-15T12:04:07.999Z</time></trkpt><trkpt lat="45.6123464394813" lon="10.068148433669101"><ele>220.0</ele><time>2026-03-15T12:04:08.999Z</time></trkpt><trkpt lat="45.61257268954156" lon="10.06822401532184"><ele>220.0</ele><time>2026-03-15T12:04:09.999Z</time></trkpt><trkpt lat="45.61279862386345" lon="10.06828045515388"><ele>220.66666666666666</ele><time>2026-03-15T12:04:10.999Z</time></trkpt><trkpt lat="45.61299618462164" lon="10.068305761788022"><ele>221.33333333333331</ele><time>2026-03-15T12:04:11.999Z</time></trkpt><trkpt lat="45.61318014089873" lon="10.068335578088698"><ele>222.0</ele><time>2026-03-15T12:04:12.999Z</time></trkpt><trkpt lat="45.61334897369801" lon="10.068390702942294"><ele>222.0</ele><time>2026-03-15T12:04:13.999Z</time></trkpt><trkpt lat="45.61352045742551" lon="10.06847382362055"><ele>222.0</ele><time>2026-03-15T12:04:14.999Z</time></trkpt><trkpt lat="45.61369078200867" lon="10.068582476449242"><ele>222.0</ele><time>2026-03-15T12:04:15.999Z</time></trkpt><trkpt lat="45.61385512456207" lon="10.068708566727889"><ele>221.66666666666669</ele><time>2026-03-15T12:04:16.999Z</time></trkpt><trkpt lat="45.614020009899434" lon="10.068849812330274"><ele>221.33333333333334</ele><time>2026-03-15T12:04:17.999Z</time></trkpt><trkpt lat="45.61417731083841" lon="10.068978353029955"><ele>221.0</ele><time>2026-03-15T12:04:18.999Z</time></trkpt><trkpt lat="45.6143423121388" lon="10.069102384958587"><ele>221.66666666666669</ele><time>2026-03-15T12:04:19.999Z</time></trkpt><trkpt lat="45.614505894921756" lon="10.069222513409112"><ele>222.33333333333331</ele><time>2026-03-15T12:04:20.999Z</time></trkpt><trkpt lat="45.61467194651637" lon="10.069318076243228"><ele>223.0</ele><time>2026-03-15T12:04:21.999Z</time></trkpt><trkpt lat="45.61481680184758" lon="10.069454123616486"><ele>223.0</ele><time>2026-03-15T12:04:22.999Z</time></trkpt><trkpt lat="45.615007181814725" lon="10.069453501858012"><ele>223.0</ele><time>2026-03-15T12:04:23.999Z</time></trkpt><trkpt lat="45.61517222421692" lon="10.06951252316088"><ele>223.0</ele><time>2026-03-15T12:04:24.999Z</time></trkpt><trkpt lat="45.61534569047737" lon="10.069565457900161"><ele>223.66666666666666</ele><time>2026-03-15T12:04:25.999Z</time></trkpt><trkpt lat="45.61550116914914" lon="10.069623720062312"><ele>224.33333333333331</ele><time>2026-03-15T12:04:26.999Z</time></trkpt><trkpt lat="45.61565313339682" lon="10.069702195731216"><ele>225.0</ele><time>2026-03-15T12:04:27.999Z</time></trkpt><trkpt lat="45.615815041700436" lon="10.069807284776777"><ele>225.0</ele><time>2026-03-15T12:04:28.999Z</time></trkpt><trkpt lat="45.61598356601054" lon="10.069923849253431"><ele>225.0</ele><time>2026-03-15T12:04:29.999Z</time></trkpt><trkpt lat="45.61614917325713" lon="10.070050523471382"><ele>225.0</ele><time>2026-03-15T12:04:30.999Z</time></trkpt><trkpt lat="45.616319575300786" lon="10.070179221892612"><ele>225.33333333333331</ele><time>2026-03-15T12:04:31.999Z</time></trkpt><trkpt lat="45.61648776816133" lon="10.070303081334028"><ele>225.66666666666666</ele><time>2026-03-15T12:04:32.999Z</time></trkpt><trkpt lat="45.61666043265763" lon="10.07043033074688"><ele>226.0</ele><time>2026-03-15T12:04:33.999Z</time></trkpt><trkpt lat="45.61682880989046" lon="10.07055852755473"><ele>226.0</ele><time>2026-03-15T12:04:34.999Z</time></trkpt><trkpt lat="45.61700081078789" lon="10.070693144953005"><ele>226.0</ele><time>2026-03-15T12:04:35.999Z</time></trkpt><trkpt lat="45.6171656065162" lon="10.0708173669939"><ele>226.0</ele><time>2026-03-15T12:04:36.999Z</time></trkpt><trkpt lat="45.61730946462676" lon="10.070924225342957"><ele>226.0</ele><time>2026-03-15T12:04:37.999Z</time></trkpt><trkpt lat="45.61743700270749" lon="10.071020872181172"><ele>226.0</ele><time>2026-03-15T12:04:38.999Z</time></trkpt><trkpt lat="45.617541955972776" lon="10.071101936112706"><ele>226.0</ele><time>2026-03-15T12:04:39.999Z</time></trkpt><trkpt lat="45.61762946942306" lon="10.07116964934224"><ele>226.0</ele><time>2026-03-15T12:04:40.999Z</time></trkpt><trkpt lat="45.61770988988224" lon="10.071226582299213"><ele>226.0</ele><time>2026-03-15T12:04:41.999Z</time></trkpt><trkpt lat="45.617780719703504" lon="10.071274618748264"><ele>226.00000000000003</ele><time>2026-03-15T12:04:42.999Z</time></trkpt><trkpt lat="45.61784936794754" lon="10.071338206867628"><ele>226.00000000000003</ele><time>2026-03-15T12:04:43.999Z</time></trkpt><trkpt lat="45.61792843844594" lon="10.071416465810811"><ele>226.0</ele><time>2026-03-15T12:04:44.998Z</time></trkpt><trkpt lat="45.61802394098709" lon="10.071429234645532"><ele>226.0</ele><time>2026-03-15T12:04:45.998Z</time></trkpt><trkpt lat="45.61814176876186" lon="10.071352476581177"><ele>226.25</ele><time>2026-03-15T12:04:46.998Z</time></trkpt><trkpt lat="45.61826915759212" lon="10.071318179284022"><ele>226.5</ele><time>2026-03-15T12:04:47.998Z</time></trkpt><trkpt lat="45.618416994492385" lon="10.071314416560046"><ele>226.75</ele><time>2026-03-15T12:04:48.998Z</time></trkpt><trkpt lat="45.61857079416945" lon="10.071275649745129"><ele>227.0</ele><time>2026-03-15T12:04:49.998Z</time></trkpt><trkpt lat="45.6187300096403" lon="10.071225571261245"><ele>228.0</ele><time>2026-03-15T12:04:50.998Z</time></trkpt><trkpt lat="45.61887109725819" lon="10.071189919563189"><ele>229.0</ele><time>2026-03-15T12:04:51.998Z</time></trkpt><trkpt lat="45.6190124056261" lon="10.071151856540707"><ele>230.0</ele><time>2026-03-15T12:04:52.998Z</time></trkpt><trkpt lat="45.61915936506742" lon="10.071111819124544"><ele>231.0</ele><time>2026-03-15T12:04:53.998Z</time></trkpt><trkpt lat="45.61924213920732" lon="10.071089721052362"><ele>231.0</ele><time>2026-03-15T12:04:54.998Z</time></trkpt><trkpt lat="45.61930921129585" lon="10.07108311761143"><ele>231.00000000000003</ele><time>2026-03-15T12:05:00.998Z</time></trkpt><trkpt lat="45.61938085615216" lon="10.071059266470353"><ele>231.00000000000003</ele><time>2026-03-15T12:05:01.998Z</time></trkpt><trkpt lat="45.6194943864875" lon="10.071022175188434"><ele>231.0</ele><time>2026-03-15T12:05:02.998Z</time></trkpt><trkpt lat="45.619634187262186" lon="10.07098357055918"><ele>231.0</ele><time>2026-03-15T12:05:03.998Z</time></trkpt><trkpt lat="45.61978926030887" lon="10.070951715675218"><ele>231.25</ele><time>2026-03-15T12:05:04.998Z</time></trkpt><trkpt lat="45.61992626974652" lon="10.070930337502887"><ele>231.5</ele><time>2026-03-15T12:05:05.998Z</time></trkpt><trkpt lat="45.62005394778778" lon="10.070904394644868"><ele>231.75</ele><time>2026-03-15T12:05:06.998Z</time></trkpt><trkpt lat="45.62016649276679" lon="10.070873783724721"><ele>232.0</ele><time>2026-03-15T12:05:07.998Z</time></trkpt><trkpt lat="45.620275045593296" lon="10.070840299066418"><ele>232.5</ele><time>2026-03-15T12:05:08.998Z</time></trkpt><trkpt lat="45.62039445111682" lon="10.070802559998436"><ele>233.0</ele><time>2026-03-15T12:05:09.998Z</time></trkpt><trkpt lat="45.620515818234466" lon="10.070762607485175"><ele>233.5</ele><time>2026-03-15T12:05:10.998Z</time></trkpt><trkpt lat="45.62060913556586" lon="10.070728187103267"><ele>234.0</ele><time>2026-03-15T12:05:11.998Z</time></trkpt><trkpt lat="45.62071134321872" lon="10.070682098686218"><ele>234.0</ele><time>2026-03-15T12:05:12.998Z</time></trkpt><trkpt lat="45.620832987174914" lon="10.070626354232528"><ele>234.0</ele><time>2026-03-15T12:05:13.998Z</time></trkpt><trkpt lat="45.620962318735515" lon="10.070565237318009"><ele>234.0</ele><time>2026-03-15T12:05:14.998Z</time></trkpt><trkpt lat="45.621087360698695" lon="10.070483839804059"><ele>234.0</ele><time>2026-03-15T12:05:15.998Z</time></trkpt><trkpt lat="45.62120791163826" lon="10.070391706486985"><ele>234.25</ele><time>2026-03-15T12:05:16.998Z</time></trkpt><trkpt lat="45.62131727682071" lon="10.070301895583935"><ele>234.5</ele><time>2026-03-15T12:05:17.998Z</time></trkpt><trkpt lat="45.62141606027717" lon="10.070212684467744"><ele>234.75</ele><time>2026-03-15T12:05:18.998Z</time></trkpt><trkpt lat="45.62151123493113" lon="10.070122917867197"><ele>235.0</ele><time>2026-03-15T12:05:19.998Z</time></trkpt><trkpt lat="45.62160865098427" lon="10.070029835429347"><ele>235.0</ele><time>2026-03-15T12:05:20.998Z</time></trkpt><trkpt lat="45.62170984095461" lon="10.069946356181797"><ele>235.0</ele><time>2026-03-15T12:05:21.998Z</time></trkpt><trkpt lat="45.621810847827255" lon="10.069862049138179"><ele>235.0</ele><time>2026-03-15T12:05:22.998Z</time></trkpt><trkpt lat="45.62190515633329" lon="10.069775457919295"><ele>235.0</ele><time>2026-03-15T12:05:23.998Z</time></trkpt><trkpt lat="45.62200120120323" lon="10.069686736894798"><ele>235.6</ele><time>2026-03-15T12:05:24.998Z</time></trkpt><trkpt lat="45.62209562076958" lon="10.069608698847558"><ele>236.2</ele><time>2026-03-15T12:05:25.998Z</time></trkpt><trkpt lat="45.62218867042499" lon="10.069528555395"><ele>236.8</ele><time>2026-03-15T12:05:26.998Z</time></trkpt><trkpt lat="45.622279145941114" lon="10.069442784895458"><ele>237.4</ele><time>2026-03-15T12:05:27.998Z</time></trkpt><trkpt lat="45.62239346015472" lon="10.06937924439123"><ele>238.0</ele><time>2026-03-15T12:05:28.997Z</time></trkpt><trkpt lat="45.62251824597548" lon="10.069401202977588"><ele>238.0</ele><time>2026-03-15T12:05:29.997Z</time></trkpt><trkpt lat="45.62262526817279" lon="10.069496820312464"><ele>238.0</ele><time>2026-03-15T12:05:30.997Z</time></trkpt><trkpt lat="45.622720599595525" lon="10.069667541012706"><ele>238.0</ele><time>2026-03-15T12:05:31.997Z</time></trkpt><trkpt lat="45.62281741012915" lon="10.069910684357867"><ele>237.66666666666666</ele><time>2026-03-15T12:05:32.997Z</time></trkpt><trkpt lat="45.62292022473489" lon="10.07019858380474"><ele>237.33333333333331</ele><time>2026-03-15T12:05:33.997Z</time></trkpt><trkpt lat="45.62301819398631" lon="10.070467729821024"><ele>237.0</ele><time>2026-03-15T12:05:34.997Z</time></trkpt><trkpt lat="45.623096793154296" lon="10.070702877020882"><ele>237.66666666666669</ele><time>2026-03-15T12:05:35.997Z</time></trkpt><trkpt lat="45.62316981364694" lon="10.070918296163706"><ele>238.33333333333334</ele><time>2026-03-15T12:05:36.997Z</time></trkpt><trkpt lat="45.62325571960774" lon="10.071132191884223"><ele>239.0</ele><time>2026-03-15T12:05:37.997Z</time></trkpt><trkpt lat="45.62335405361549" lon="10.07135794854206"><ele>238.66666666666669</ele><time>2026-03-15T12:05:38.997Z</time></trkpt><trkpt lat="45.62346706916664" lon="10.07160804639883"><ele>238.33333333333331</ele><time>2026-03-15T12:05:39.997Z</time></trkpt><trkpt lat="45.62357177492141" lon="10.071869036924204"><ele>238.0</ele><time>2026-03-15T12:05:40.997Z</time></trkpt><trkpt lat="45.62365501941307" lon="10.072162723728962"><ele>236.5</ele><time>2026-03-15T12:05:41.997Z</time></trkpt><trkpt lat="45.62369519679543" lon="10.072523467931514"><ele>235.0</ele><time>2026-03-15T12:05:42.997Z</time></trkpt><trkpt lat="45.62371530323014" lon="10.072890900481875"><ele>235.0</ele><time>2026-03-15T12:05:43.997Z</time></trkpt><trkpt lat="45.623680736039816" lon="10.073236573154439"><ele>235.0</ele><time>2026-03-15T12:05:44.997Z</time></trkpt><trkpt lat="45.623652942931045" lon="10.073585625042297"><ele>235.5</ele><time>2026-03-15T12:05:45.997Z</time></trkpt><trkpt lat="45.623588824199665" lon="10.07394047970163"><ele>236.0</ele><time>2026-03-15T12:05:46.997Z</time></trkpt><trkpt lat="45.62353003978672" lon="10.074305733669815"><ele>236.0</ele><time>2026-03-15T12:05:47.997Z</time></trkpt><trkpt lat="45.62348073379037" lon="10.074680213710337"><ele>236.0</ele><time>2026-03-15T12:05:49Z</time></trkpt><trkpt lat="45.62343165321421" lon="10.075046596216238"><ele>236.33333333333334</ele><time>2026-03-15T12:05:50Z</time></trkpt><trkpt lat="45.62338501029758" lon="10.075372937498873"><ele>236.66666666666669</ele><time>2026-03-15T12:05:51Z</time></trkpt><trkpt lat="45.623343611206614" lon="10.075657407747038"><ele>237.0</ele><time>2026-03-15T12:05:52Z</time></trkpt><trkpt lat="45.62330471199107" lon="10.075941177064028"><ele>237.66666666666669</ele><time>2026-03-15T12:05:53Z</time></trkpt><trkpt lat="45.62326849083099" lon="10.076217744153894"><ele>238.33333333333334</ele><time>2026-03-15T12:05:54Z</time></trkpt><trkpt lat="45.62323391650841" lon="10.076491573174115"><ele>239.0</ele><time>2026-03-15T12:05:55Z</time></trkpt><trkpt lat="45.62319703869105" lon="10.076761449467135"><ele>239.33333333333334</ele><time>2026-03-15T12:05:56Z</time></trkpt><trkpt lat="45.62315814660413" lon="10.07702257882771"><ele>239.66666666666669</ele><time>2026-03-15T12:05:57Z</time></trkpt><trkpt lat="45.62311871161988" lon="10.077297415506886"><ele>240.0</ele><time>2026-03-15T12:05:58Z</time></trkpt><trkpt lat="45.623087753933596" lon="10.077550211183889"><ele>240.0</ele><time>2026-03-15T12:05:59Z</time></trkpt><trkpt lat="45.6230520725996" lon="10.07781642111222"><ele>240.0</ele><time>2026-03-15T12:06:00Z</time></trkpt><trkpt lat="45.62301195752117" lon="10.078079619420816"><ele>240.0</ele><time>2026-03-15T12:06:01Z</time></trkpt><trkpt lat="45.62297293631564" lon="10.078348777146621"><ele>239.66666666666669</ele><time>2026-03-15T12:06:02Z</time></trkpt><trkpt lat="45.622939131794766" lon="10.078620578410534"><ele>239.33333333333334</ele><time>2026-03-15T12:06:03Z</time></trkpt><trkpt lat="45.62290395396971" lon="10.07888879986749"><ele>239.0</ele><time>2026-03-15T12:06:04Z</time></trkpt><trkpt lat="45.62286316442534" lon="10.079157556457703"><ele>239.0</ele><time>2026-03-15T12:06:05Z</time></trkpt><trkpt lat="45.62282236639127" lon="10.079413217387906"><ele>239.0</ele><time>2026-03-15T12:06:06Z</time></trkpt><trkpt lat="45.62278976684046" lon="10.079664970067435"><ele>239.0</ele><time>2026-03-15T12:06:07Z</time></trkpt><trkpt lat="45.62275935565092" lon="10.079901529012993"><ele>237.75</ele><time>2026-03-15T12:06:08Z</time></trkpt><trkpt lat="45.62273240140624" lon="10.080121058435614"><ele>236.5</ele><time>2026-03-15T12:06:09Z</time></trkpt><trkpt lat="45.62270514321601" lon="10.080333745902296"><ele>235.25</ele><time>2026-03-15T12:06:10Z</time></trkpt><trkpt lat="45.62268029420038" lon="10.080532092811088"><ele>234.0</ele><time>2026-03-15T12:06:11Z</time></trkpt><trkpt lat="45.622657002421946" lon="10.080727520774634"><ele>234.0</ele><time>2026-03-15T12:06:12Z</time></trkpt><trkpt lat="45.62262795100048" lon="10.08090799433665"><ele>234.0</ele><time>2026-03-15T12:06:13Z</time></trkpt><trkpt lat="45.62259725157877" lon="10.08108296494823"><ele>234.0</ele><time>2026-03-15T12:06:14Z</time></trkpt><trkpt lat="45.622557411631476" lon="10.081246691816437"><ele>234.0</ele><time>2026-03-15T12:06:15Z</time></trkpt><trkpt lat="45.62249522825422" lon="10.081380095210147"><ele>234.0</ele><time>2026-03-15T12:06:16Z</time></trkpt><trkpt lat="45.622416947549134" lon="10.081501582158685"><ele>233.99999999999997</ele><time>2026-03-15T12:06:17Z</time></trkpt><trkpt lat="45.6223786706079" lon="10.081616791121006"><ele>233.99999999999997</ele><time>2026-03-15T12:06:18Z</time></trkpt><trkpt lat="45.62241548064174" lon="10.081726136307983"><ele>234.0</ele><time>2026-03-15T12:06:19Z</time></trkpt><trkpt lat="45.622467111036244" lon="10.081824263252194"><ele>234.0</ele><time>2026-03-15T12:06:19.999Z</time></trkpt><trkpt lat="45.62255601575382" lon="10.081881023184545"><ele>234.33333333333331</ele><time>2026-03-15T12:06:20.999Z</time></trkpt><trkpt lat="45.62267429823693" lon="10.081895689534187"><ele>234.66666666666666</ele><time>2026-03-15T12:06:21.999Z</time></trkpt><trkpt lat="45.62282964445983" lon="10.081878944492283"><ele>235.0</ele><time>2026-03-15T12:06:22.999Z</time></trkpt><trkpt lat="45.623013532389685" lon="10.081921541516522"><ele>235.0</ele><time>2026-03-15T12:06:23.999Z</time></trkpt><trkpt lat="45.62318188695712" lon="10.082019640661485"><ele>235.0</ele><time>2026-03-15T12:06:24.999Z</time></trkpt><trkpt lat="45.6233521136598" lon="10.082116495059312"><ele>235.0</ele><time>2026-03-15T12:06:25.999Z</time></trkpt><trkpt lat="45.62352208404425" lon="10.082193292841982"><ele>235.66666666666666</ele><time>2026-03-15T12:06:26.999Z</time></trkpt><trkpt lat="45.62368882875418" lon="10.082268391723755"><ele>236.33333333333331</ele><time>2026-03-15T12:06:27.999Z</time></trkpt><trkpt lat="45.62384802694582" lon="10.082340319101277"><ele>237.0</ele><time>2026-03-15T12:06:28.999Z</time></trkpt><trkpt lat="45.62399380106631" lon="10.082408999276439"><ele>237.66666666666669</ele><time>2026-03-15T12:06:29.999Z</time></trkpt><trkpt lat="45.62413497523737" lon="10.082484778871448"><ele>238.33333333333334</ele><time>2026-03-15T12:06:30.999Z</time></trkpt><trkpt lat="45.62427549773873" lon="10.08255903159737"><ele>239.0</ele><time>2026-03-15T12:06:31.999Z</time></trkpt><trkpt lat="45.62441729934134" lon="10.082626288283835"><ele>239.0</ele><time>2026-03-15T12:06:32.999Z</time></trkpt><trkpt lat="45.62455752709606" lon="10.082688454043781"><ele>239.0</ele><time>2026-03-15T12:06:33.999Z</time></trkpt><trkpt lat="45.62469744205319" lon="10.082751151337543"><ele>239.0</ele><time>2026-03-15T12:06:34.999Z</time></trkpt><trkpt lat="45.62483768348543" lon="10.082806618200319"><ele>239.0</ele><time>2026-03-15T12:06:35.999Z</time></trkpt><trkpt lat="45.62497999019099" lon="10.082872177706795"><ele>239.0</ele><time>2026-03-15T12:06:36.999Z</time></trkpt><trkpt lat="45.62512190510939" lon="10.082937533144598"><ele>239.0</ele><time>2026-03-15T12:06:37.999Z</time></trkpt><trkpt lat="45.62526910202548" lon="10.082995821200448"><ele>239.0</ele><time>2026-03-15T12:06:38.999Z</time></trkpt><trkpt lat="45.625416051270946" lon="10.083041572601893"><ele>239.75</ele><time>2026-03-15T12:06:39.999Z</time></trkpt><trkpt lat="45.62555096317117" lon="10.083088578732244"><ele>240.5</ele><time>2026-03-15T12:06:40.999Z</time></trkpt><trkpt lat="45.62566271573465" lon="10.08316974826575"><ele>241.25</ele><time>2026-03-15T12:06:41.999Z</time></trkpt><trkpt lat="45.62573271877865" lon="10.083299584800525"><ele>242.0</ele><time>2026-03-15T12:06:42.999Z</time></trkpt><trkpt lat="45.62576805466155" lon="10.08346648199022"><ele>242.2</ele><time>2026-03-15T12:06:43.999Z</time></trkpt><trkpt lat="45.62578918256372" lon="10.08361847746998"><ele>242.39999999999998</ele><time>2026-03-15T12:06:44.999Z</time></trkpt><trkpt lat="45.625871752282784" lon="10.083699235109522"><ele>242.60000000000002</ele><time>2026-03-15T12:06:45.999Z</time></trkpt><trkpt lat="45.62598760109344" lon="10.083692538832043"><ele>242.8</ele><time>2026-03-15T12:06:46.999Z</time></trkpt><trkpt lat="45.626096566347016" lon="10.083610740064548"><ele>243.0</ele><time>2026-03-15T12:06:47.999Z</time></trkpt><trkpt lat="45.626229871302556" lon="10.083512135907604"><ele>243.66666666666669</ele><time>2026-03-15T12:06:48.999Z</time></trkpt><trkpt lat="45.62637578483503" lon="10.08350757356175"><ele>244.33333333333334</ele><time>2026-03-15T12:06:49.999Z</time></trkpt><trkpt lat="45.62650218938616" lon="10.083641014651535"><ele>245.0</ele><time>2026-03-15T12:06:50.999Z</time></trkpt><trkpt lat="45.62665591377246" lon="10.08373988241438"><ele>245.0</ele><time>2026-03-15T12:06:51.999Z</time></trkpt><trkpt lat="45.62679402563533" lon="10.083857297268183"><ele>245.0</ele><time>2026-03-15T12:06:52.999Z</time></trkpt><trkpt lat="45.6268999934469" lon="10.083943185034263"><ele>245.0</ele><time>2026-03-15T12:06:53.999Z</time></trkpt><trkpt lat="45.626998161313594" lon="10.08403206559092"><ele>245.0</ele><time>2026-03-15T12:06:54.999Z</time></trkpt><trkpt lat="45.627102676442675" lon="10.084135806074789"><ele>245.25</ele><time>2026-03-15T12:06:55.999Z</time></trkpt><trkpt lat="45.62721688060631" lon="10.08423872577671"><ele>245.5</ele><time>2026-03-15T12:06:56.999Z</time></trkpt><trkpt lat="45.62733403166973" lon="10.084348248673587"><ele>245.75</ele><time>2026-03-15T12:06:57.999Z</time></trkpt><trkpt lat="45.627450304866336" lon="10.084469599811124"><ele>246.0</ele><time>2026-03-15T12:06:58.999Z</time></trkpt><trkpt lat="45.627561456822754" lon="10.084606246202064"><ele>246.0</ele><time>2026-03-15T12:06:59.999Z</time></trkpt><trkpt lat="45.627674739000184" lon="10.084743995432992"><ele>246.0</ele><time>2026-03-15T12:07:00.999Z</time></trkpt><trkpt lat="45.62779220138465" lon="10.084876911536734"><ele>246.0</ele><time>2026-03-15T12:07:01.999Z</time></trkpt><trkpt lat="45.62790142018962" lon="10.084997584892564"><ele>246.0</ele><time>2026-03-15T12:07:02.999Z</time></trkpt><trkpt lat="45.62799832923232" lon="10.085108369396824"><ele>246.5</ele><time>2026-03-15T12:07:03.998Z</time></trkpt><trkpt lat="45.628096268253856" lon="10.085225834989304"><ele>247.0</ele><time>2026-03-15T12:07:04.998Z</time></trkpt><trkpt lat="45.628200992096545" lon="10.085347836082606"><ele>247.5</ele><time>2026-03-15T12:07:05.998Z</time></trkpt><trkpt lat="45.628309801137746" lon="10.085467900145357"><ele>248.0</ele><time>2026-03-15T12:07:06.998Z</time></trkpt><trkpt lat="45.628422774431776" lon="10.085593259715335"><ele>248.0</ele><time>2026-03-15T12:07:07.998Z</time></trkpt><trkpt lat="45.62853728459744" lon="10.085725802892803"><ele>248.0</ele><time>2026-03-15T12:07:08.998Z</time></trkpt><trkpt lat="45.62865683940454" lon="10.085862123930042"><ele>248.0</ele><time>2026-03-15T12:07:09.998Z</time></trkpt><trkpt lat="45.628773556683335" lon="10.08599168105001"><ele>248.0</ele><time>2026-03-15T12:07:10.998Z</time></trkpt><trkpt lat="45.6288922607325" lon="10.08612476269807"><ele>249.66666666666669</ele><time>2026-03-15T12:07:11.998Z</time></trkpt><trkpt lat="45.62901510614803" lon="10.086261935606023"><ele>251.33333333333331</ele><time>2026-03-15T12:07:12.998Z</time></trkpt><trkpt lat="45.629135588303" lon="10.086400148636354"><ele>253.0</ele><time>2026-03-15T12:07:13.998Z</time></trkpt><trkpt lat="45.6292568902475" lon="10.086539990519006"><ele>252.33333333333331</ele><time>2026-03-15T12:07:14.998Z</time></trkpt><trkpt lat="45.629387672528736" lon="10.086691667614206"><ele>251.66666666666669</ele><time>2026-03-15T12:07:15.998Z</time></trkpt><trkpt lat="45.62952834171299" lon="10.086843579087136"><ele>251.0</ele><time>2026-03-15T12:07:16.998Z</time></trkpt><trkpt lat="45.629668154830966" lon="10.087001044765726"><ele>251.66666666666669</ele><time>2026-03-15T12:07:17.998Z</time></trkpt><trkpt lat="45.62981264858967" lon="10.087154210138662"><ele>252.33333333333331</ele><time>2026-03-15T12:07:18.998Z</time></trkpt><trkpt lat="45.62994506841087" lon="10.087303706502919"><ele>253.0</ele><time>2026-03-15T12:07:19.998Z</time></trkpt><trkpt lat="45.63007968940358" lon="10.087450122058332"><ele>253.0</ele><time>2026-03-15T12:07:20.998Z</time></trkpt><trkpt lat="45.63021620569323" lon="10.087582359136988"><ele>253.0</ele><time>2026-03-15T12:07:21.998Z</time></trkpt><trkpt lat="45.63035964110414" lon="10.087696491953182"><ele>253.0</ele><time>2026-03-15T12:07:22.998Z</time></trkpt><trkpt lat="45.63050427737741" lon="10.087799906326598"><ele>254.33333333333331</ele><time>2026-03-15T12:07:23.998Z</time></trkpt><trkpt lat="45.630649184350844" lon="10.087897793548557"><ele>255.66666666666669</ele><time>2026-03-15T12:07:24.998Z</time></trkpt><trkpt lat="45.63079571716703" lon="10.087989953296745"><ele>257.0</ele><time>2026-03-15T12:07:25.998Z</time></trkpt><trkpt lat="45.63094318844025" lon="10.088077225106616"><ele>257.0</ele><time>2026-03-15T12:07:26.998Z</time></trkpt><trkpt lat="45.63108995314584" lon="10.08816410545022"><ele>257.0</ele><time>2026-03-15T12:07:27.998Z</time></trkpt><trkpt lat="45.631235508626084" lon="10.088257903858189"><ele>257.0</ele><time>2026-03-15T12:07:28.998Z</time></trkpt><trkpt lat="45.63138156035063" lon="10.0883453557501"><ele>257.75</ele><time>2026-03-15T12:07:29.998Z</time></trkpt><trkpt lat="45.631531096152095" lon="10.088429348767404"><ele>258.5</ele><time>2026-03-15T12:07:30.998Z</time></trkpt><trkpt lat="45.631669927962655" lon="10.08850930628161"><ele>259.25</ele><time>2026-03-15T12:07:31.998Z</time></trkpt><trkpt lat="45.63178758371598" lon="10.088591832400565"><ele>260.0</ele><time>2026-03-15T12:07:32.998Z</time></trkpt><trkpt lat="45.63188547796823" lon="10.088697441049689"><ele>260.0</ele><time>2026-03-15T12:07:33.998Z</time></trkpt><trkpt lat="45.63195751736066" lon="10.088835159154803"><ele>260.0</ele><time>2026-03-15T12:07:34.998Z</time></trkpt><trkpt lat="45.63200634821107" lon="10.08901973092554"><ele>260.0</ele><time>2026-03-15T12:07:35.998Z</time></trkpt><trkpt lat="45.632039316780144" lon="10.089220751116677"><ele>260.0</ele><time>2026-03-15T12:07:36.998Z</time></trkpt><trkpt lat="45.63206330977777" lon="10.089440362445371"><ele>261.0</ele><time>2026-03-15T12:07:37.998Z</time></trkpt><trkpt lat="45.63202327992122" lon="10.089658611837192"><ele>262.0</ele><time>2026-03-15T12:07:38.998Z</time></trkpt><trkpt lat="45.6319939741504" lon="10.089881375473945"><ele>263.0</ele><time>2026-03-15T12:07:39.998Z</time></trkpt><trkpt lat="45.63197762490544" lon="10.090103116295813"><ele>262.33333333333337</ele><time>2026-03-15T12:07:40.998Z</time></trkpt><trkpt lat="45.631960170824165" lon="10.090317526768741"><ele>261.6666666666667</ele><time>2026-03-15T12:07:41.998Z</time></trkpt><trkpt lat="45.63191725881965" lon="10.090512516306047"><ele>261.0</ele><time>2026-03-15T12:07:42.998Z</time></trkpt><trkpt lat="45.631829206983376" lon="10.090704853466052"><ele>261.75</ele><time>2026-03-15T12:07:43.998Z</time></trkpt><trkpt lat="45.63176077546701" lon="10.090890712408916"><ele>262.5</ele><time>2026-03-15T12:07:44.998Z</time></trkpt><trkpt lat="45.631718199045174" lon="10.091049263285294"><ele>263.25</ele><time>2026-03-15T12:07:45.998Z</time></trkpt><trkpt lat="45.63167356051569" lon="10.091174216082528"><ele>264.0</ele><time>2026-03-15T12:07:46.998Z</time></trkpt><trkpt lat="45.63162445387569" lon="10.091295465700657"><ele>264.0</ele><time>2026-03-15T12:07:48.997Z</time></trkpt><trkpt lat="45.631796244428116" lon="10.091408056852352"><ele>264.0</ele><time>2026-03-15T12:07:50.997Z</time></trkpt><trkpt lat="45.631897900519064" lon="10.091484070242668"><ele>264.0</ele><time>2026-03-15T12:07:51.997Z</time></trkpt><trkpt lat="45.632001874113556" lon="10.091589540581467"><ele>264.0</ele><time>2026-03-15T12:07:52.997Z</time></trkpt><trkpt lat="45.632112198558204" lon="10.091701458019044"><ele>265.25</ele><time>2026-03-15T12:07:53.997Z</time></trkpt><trkpt lat="45.63223190452519" lon="10.091818804053151"><ele>266.5</ele><time>2026-03-15T12:07:55Z</time></trkpt><trkpt lat="45.63235222795536" lon="10.091919949531142"><ele>267.75</ele><time>2026-03-15T12:07:56Z</time></trkpt><trkpt lat="45.63250387136925" lon="10.091989149996452"><ele>269.0</ele><time>2026-03-15T12:07:57Z</time></trkpt><trkpt lat="45.6326940613079" lon="10.092013525358183"><ele>269.0</ele><time>2026-03-15T12:07:58Z</time></trkpt><trkpt lat="45.63290573130687" lon="10.092001884403437"><ele>269.0</ele><time>2026-03-15T12:07:59Z</time></trkpt><trkpt lat="45.633125733720696" lon="10.091973658302246"><ele>269.0</ele><time>2026-03-15T12:08:00Z</time></trkpt><trkpt lat="45.633313682925014" lon="10.091948417885044"><ele>269.0</ele><time>2026-03-15T12:08:01Z</time></trkpt><trkpt lat="45.633442963071914" lon="10.091966806483164"><ele>269.0</ele><time>2026-03-15T12:08:02Z</time></trkpt><trkpt lat="45.63356358272114" lon="10.091969960437652"><ele>269.0</ele><time>2026-03-15T12:08:03Z</time></trkpt><trkpt lat="45.63366949601156" lon="10.091969916960101"><ele>269.0</ele><time>2026-03-15T12:08:04Z</time></trkpt><trkpt lat="45.63377280063959" lon="10.091973499335843"><ele>269.25</ele><time>2026-03-15T12:08:05Z</time></trkpt><trkpt lat="45.633880229324504" lon="10.091981212895794"><ele>269.5</ele><time>2026-03-15T12:08:06Z</time></trkpt><trkpt lat="45.63399799125383" lon="10.091993317367152"><ele>269.75</ele><time>2026-03-15T12:08:07Z</time></trkpt><trkpt lat="45.63411901036795" lon="10.092012977708436"><ele>270.0</ele><time>2026-03-15T12:08:08Z</time></trkpt><trkpt lat="45.63424720730955" lon="10.092044505451687"><ele>270.0</ele><time>2026-03-15T12:08:09Z</time></trkpt><trkpt lat="45.63439864697353" lon="10.0920809003736"><ele>270.0</ele><time>2026-03-15T12:08:10Z</time></trkpt><trkpt lat="45.63456608831273" lon="10.092114395122916"><ele>270.0</ele><time>2026-03-15T12:08:11Z</time></trkpt><trkpt lat="45.63474321598869" lon="10.092158995543091"><ele>271.0</ele><time>2026-03-15T12:08:12Z</time></trkpt><trkpt lat="45.63492763062945" lon="10.092212776656266"><ele>272.0</ele><time>2026-03-15T12:08:13Z</time></trkpt><trkpt lat="45.635109949908475" lon="10.092264490557492"><ele>273.0</ele><time>2026-03-15T12:08:14Z</time></trkpt><trkpt lat="45.635295905764366" lon="10.09231595629002"><ele>274.6666666666667</ele><time>2026-03-15T12:08:15Z</time></trkpt><trkpt lat="45.635481115317425" lon="10.092369699127895"><ele>276.33333333333337</ele><time>2026-03-15T12:08:16Z</time></trkpt><trkpt lat="45.635663876039615" lon="10.092420959964372"><ele>278.0</ele><time>2026-03-15T12:08:17Z</time></trkpt><trkpt lat="45.63584346363258" lon="10.092467321002134"><ele>278.6666666666667</ele><time>2026-03-15T12:08:18Z</time></trkpt><trkpt lat="45.63601758342549" lon="10.09251472249046"><ele>279.3333333333333</ele><time>2026-03-15T12:08:19Z</time></trkpt><trkpt lat="45.63617262342102" lon="10.092580801156537"><ele>280.0</ele><time>2026-03-15T12:08:20Z</time></trkpt><trkpt lat="45.63628643770955" lon="10.092660970177047"><ele>280.2</ele><time>2026-03-15T12:08:21Z</time></trkpt><trkpt lat="45.636380574369014" lon="10.092740908348292"><ele>280.4</ele><time>2026-03-15T12:08:22Z</time></trkpt><trkpt lat="45.636463519300925" lon="10.092816659579196"><ele>280.6</ele><time>2026-03-15T12:08:23Z</time></trkpt><trkpt lat="45.636542151835926" lon="10.092893540603997"><ele>280.8</ele><time>2026-03-15T12:08:24Z</time></trkpt><trkpt lat="45.63660573805471" lon="10.092968738710963"><ele>281.0</ele><time>2026-03-15T12:08:25Z</time></trkpt><trkpt lat="45.63666537135197" lon="10.093056845169318"><ele>281.0</ele><time>2026-03-15T12:08:26Z</time></trkpt><trkpt lat="45.63672447407423" lon="10.093145744021651"><ele>281.0</ele><time>2026-03-15T12:08:27Z</time></trkpt><trkpt lat="45.6367774549202" lon="10.093237654167662"><ele>281.0</ele><time>2026-03-15T12:08:28Z</time></trkpt><trkpt lat="45.63682329909148" lon="10.093329868069539"><ele>281.0</ele><time>2026-03-15T12:08:29Z</time></trkpt><trkpt lat="45.63687255225863" lon="10.093408437735835"><ele>281.0</ele><time>2026-03-15T12:08:30Z</time></trkpt><trkpt lat="45.636931505672905" lon="10.093477529532137"><ele>281.0</ele><time>2026-03-15T12:08:31Z</time></trkpt><trkpt lat="45.63699656645336" lon="10.093546798272474"><ele>282.0</ele><time>2026-03-15T12:08:32Z</time></trkpt><trkpt lat="45.63705351965764" lon="10.09359778633518"><ele>283.0</ele><time>2026-03-15T12:08:33Z</time></trkpt><trkpt lat="45.63711363185621" lon="10.093627780989609"><ele>284.0</ele><time>2026-03-15T12:08:34Z</time></trkpt><trkpt lat="45.63719227799906" lon="10.093656682144912"><ele>285.0</ele><time>2026-03-15T12:08:35Z</time></trkpt><trkpt lat="45.63727678531922" lon="10.093689943287963"><ele>286.0</ele><time>2026-03-15T12:08:36Z</time></trkpt><trkpt lat="45.63734623800312" lon="10.0937216643118"><ele>287.0</ele><time>2026-03-15T12:08:37Z</time></trkpt><trkpt lat="45.63746761827265" lon="10.093724839271488"><ele>287.0</ele><time>2026-03-15T12:08:39Z</time></trkpt><trkpt lat="45.6375744077326" lon="10.093658206321221"><ele>287.0</ele><time>2026-03-15T12:08:40Z</time></trkpt><trkpt lat="45.637679794675265" lon="10.093541752236066"><ele>287.0</ele><time>2026-03-15T12:08:41Z</time></trkpt><trkpt lat="45.63776803055498" lon="10.093471184728921"><ele>287.0</ele><time>2026-03-15T12:08:41.999Z</time></trkpt><trkpt lat="45.6378520905939" lon="10.093472721306751"><ele>287.0</ele><time>2026-03-15T12:08:42.999Z</time></trkpt><trkpt lat="45.63792895457615" lon="10.093511627031392"><ele>287.2</ele><time>2026-03-15T12:08:43.999Z</time></trkpt><trkpt lat="45.63801567765922" lon="10.093555259776466"><ele>287.4</ele><time>2026-03-15T12:08:44.999Z</time></trkpt><trkpt lat="45.63812009396356" lon="10.093608111754712"><ele>287.6</ele><time>2026-03-15T12:08:45.999Z</time></trkpt><trkpt lat="45.6382297618722" lon="10.093663949535436"><ele>287.8</ele><time>2026-03-15T12:08:46.999Z</time></trkpt><trkpt lat="45.63834344813757" lon="10.093716087729657"><ele>288.0</ele><time>2026-03-15T12:08:47.999Z</time></trkpt><trkpt lat="45.6384466954262" lon="10.093775417050608"><ele>288.0</ele><time>2026-03-15T12:08:48.999Z</time></trkpt><trkpt lat="45.63852041216191" lon="10.093839188136142"><ele>288.0</ele><time>2026-03-15T12:08:49.999Z</time></trkpt><trkpt lat="45.63861762790507" lon="10.093919685992697"><ele>288.0</ele><time>2026-03-15T12:08:51.999Z</time></trkpt><trkpt lat="45.6387138967082" lon="10.093787658532216"><ele>288.0</ele><time>2026-03-15T12:08:52.999Z</time></trkpt><trkpt lat="45.63877748079039" lon="10.093761681250621"><ele>288.0</ele><time>2026-03-15T12:08:53.999Z</time></trkpt><trkpt lat="45.63884863958651" lon="10.09375798034544"><ele>288.0</ele><time>2026-03-15T12:08:54.999Z</time></trkpt><trkpt lat="45.6389484522139" lon="10.093749170994112"><ele>288.0</ele><time>2026-03-15T12:08:55.999Z</time></trkpt><trkpt lat="45.63905503769552" lon="10.093749220054725"><ele>288.0</ele><time>2026-03-15T12:08:56.999Z</time></trkpt><trkpt lat="45.63915486961353" lon="10.093762470011434"><ele>288.0</ele><time>2026-03-15T12:08:57.999Z</time></trkpt><trkpt lat="45.63924768757162" lon="10.093792936861973"><ele>288.0</ele><time>2026-03-15T12:08:58.999Z</time></trkpt><trkpt lat="45.639336070075835" lon="10.093849603480228"><ele>288.0</ele><time>2026-03-15T12:08:59.999Z</time></trkpt><trkpt lat="45.63942582186812" lon="10.0939147401927"><ele>288.0</ele><time>2026-03-15T12:09:00.999Z</time></trkpt><trkpt lat="45.63951557613188" lon="10.09397595534943"><ele>288.0</ele><time>2026-03-15T12:09:01.999Z</time></trkpt><trkpt lat="45.639599778883664" lon="10.094019334717407"><ele>288.0</ele><time>2026-03-15T12:09:02.999Z</time></trkpt><trkpt lat="45.63968298582813" lon="10.09405451463065"><ele>288.0</ele><time>2026-03-15T12:09:03.999Z</time></trkpt><trkpt lat="45.63975992167445" lon="10.094089628496182"><ele>288.6666666666667</ele><time>2026-03-15T12:09:04.999Z</time></trkpt><trkpt lat="45.639835955858636" lon="10.094126699658858"><ele>289.3333333333333</ele><time>2026-03-15T12:09:05.999Z</time></trkpt><trkpt lat="45.6399106991266" lon="10.09416158134447"><ele>290.0</ele><time>2026-03-15T12:09:06.999Z</time></trkpt><trkpt lat="45.63998938192025" lon="10.094182882674579"><ele>290.66666666666663</ele><time>2026-03-15T12:09:07.999Z</time></trkpt><trkpt lat="45.64005818394784" lon="10.09417996435977"><ele>291.3333333333333</ele><time>2026-03-15T12:09:08.999Z</time></trkpt><trkpt lat="45.64015300978626" lon="10.094116320767299"><ele>292.0</ele><time>2026-03-15T12:09:10.999Z</time></trkpt><trkpt lat="45.64026552150266" lon="10.094141519380235"><ele>292.3333333333333</ele><time>2026-03-15T12:09:12.999Z</time></trkpt><trkpt lat="45.64034985903778" lon="10.094187158332034"><ele>292.66666666666663</ele><time>2026-03-15T12:09:13.999Z</time></trkpt><trkpt lat="45.640434616307324" lon="10.094254765252408"><ele>293.0</ele><time>2026-03-15T12:09:14.999Z</time></trkpt><trkpt lat="45.64051821226619" lon="10.09431430530401"><ele>293.3333333333333</ele><time>2026-03-15T12:09:15.999Z</time></trkpt><trkpt lat="45.64059828843628" lon="10.094342252692124"><ele>293.6666666666667</ele><time>2026-03-15T12:09:16.999Z</time></trkpt><trkpt lat="45.640680656393386" lon="10.09433469429565"><ele>294.0</ele><time>2026-03-15T12:09:18.999Z</time></trkpt><trkpt lat="45.640806574936775" lon="10.094366791120864"><ele>294.0</ele><time>2026-03-15T12:09:21.999Z</time></trkpt><trkpt lat="45.640895629521026" lon="10.094432260666787"><ele>294.0</ele><time>2026-03-15T12:09:22.999Z</time></trkpt><trkpt lat="45.640984214612125" lon="10.09452728836863"><ele>294.0</ele><time>2026-03-15T12:09:23.999Z</time></trkpt><trkpt lat="45.64105245547666" lon="10.094644213084276"><ele>294.0</ele><time>2026-03-15T12:09:24.999Z</time></trkpt><trkpt lat="45.64110713167545" lon="10.094763844525007"><ele>294.0</ele><time>2026-03-15T12:09:25.998Z</time></trkpt><trkpt lat="45.641154963323096" lon="10.094856739357748"><ele>296.5</ele><time>2026-03-15T12:09:26.998Z</time></trkpt><trkpt lat="45.64126489352544" lon="10.094900212066358"><ele>299.0</ele><time>2026-03-15T12:09:28.998Z</time></trkpt><trkpt lat="45.64132002915911" lon="10.09484549416175"><ele>301.5</ele><time>2026-03-15T12:09:29.998Z</time></trkpt><trkpt lat="45.64135439259614" lon="10.094747250200294"><ele>304.0</ele><time>2026-03-15T12:09:30.998Z</time></trkpt><trkpt lat="45.64137220483453" lon="10.094645735254337"><ele>306.5</ele><time>2026-03-15T12:09:31.998Z</time></trkpt><trkpt lat="45.641391000865724" lon="10.094528626093927"><ele>309.0</ele><time>2026-03-15T12:09:33.998Z</time></trkpt><trkpt lat="45.64146085247541" lon="10.094640802989232"><ele>309.0</ele><time>2026-03-15T12:09:35.998Z</time></trkpt><trkpt lat="45.6414564789675" lon="10.09473860227723"><ele>309.0</ele><time>2026-03-15T12:09:36.998Z</time></trkpt><trkpt lat="45.64146019219418" lon="10.0948362223312"><ele>309.0</ele><time>2026-03-15T12:09:37.998Z</time></trkpt><trkpt lat="45.64150997757484" lon="10.094975106775932"><ele>309.0</ele><time>2026-03-15T12:09:41.998Z</time></trkpt><trkpt lat="45.6415168796918" lon="10.095100024727508"><ele>309.0</ele><time>2026-03-15T12:09:44.998Z</time></trkpt><trkpt lat="45.641526202961785" lon="10.094987148347489"><ele>309.0</ele><time>2026-03-15T12:10:06.001Z</time></trkpt><trkpt lat="45.641472928987284" lon="10.094881848950502"><ele>309.0</ele><time>2026-03-15T12:10:10.001Z</time></trkpt><trkpt lat="45.64144716110242" lon="10.094793714223888"><ele>309.0</ele><time>2026-03-15T12:10:14.001Z</time></trkpt><trkpt lat="45.6414799904801" lon="10.094879200763769"><ele>309.0</ele><time>2026-03-15T12:10:35Z</time></trkpt><trkpt lat="45.641506535593614" lon="10.094968426832482"><ele>309.0</ele><time>2026-03-15T12:10:40.999Z</time></trkpt><trkpt lat="45.641521015913206" lon="10.09506931424008"><ele>309.0</ele><time>2026-03-15T12:10:45.999Z</time></trkpt><trkpt lat="45.6414688706745" lon="10.095226378650116"><ele>309.0</ele><time>2026-03-15T12:11:47.997Z</time></trkpt><trkpt lat="45.641444185202204" lon="10.095311881847906"><ele>309.8333333333333</ele><time>2026-03-15T12:11:48.997Z</time></trkpt><trkpt lat="45.641430379877214" lon="10.095410644992711"><ele>310.6666666666667</ele><time>2026-03-15T12:11:49.997Z</time></trkpt><trkpt lat="45.641423695572676" lon="10.095506549430674"><ele>311.5</ele><time>2026-03-15T12:11:50.997Z</time></trkpt><trkpt lat="45.64144420691735" lon="10.095616842618664"><ele>312.33333333333337</ele><time>2026-03-15T12:11:52.997Z</time></trkpt><trkpt lat="45.641485000427274" lon="10.095688754344163"><ele>313.1666666666667</ele><time>2026-03-15T12:11:55.997Z</time></trkpt><trkpt lat="45.64158331709975" lon="10.095727807942312"><ele>314.0</ele><time>2026-03-15T12:11:58.997Z</time></trkpt><trkpt lat="45.64172060548862" lon="10.095640105255052"><ele>314.0</ele><time>2026-03-15T12:12:00.997Z</time></trkpt><trkpt lat="45.641800269240605" lon="10.095567779476548"><ele>314.0</ele><time>2026-03-15T12:12:01.997Z</time></trkpt><trkpt lat="45.641882931289764" lon="10.095470509593536"><ele>314.0</ele><time>2026-03-15T12:12:02.997Z</time></trkpt><trkpt lat="45.641943183328834" lon="10.095408893448642"><ele>314.0</ele><time>2026-03-15T12:12:03.997Z</time></trkpt><trkpt lat="45.64203884711206" lon="10.095365749721934"><ele>314.0</ele><time>2026-03-15T12:12:05.997Z</time></trkpt><trkpt lat="45.64211753122796" lon="10.095339687587163"><ele>317.83333333333337</ele><time>2026-03-15T12:12:07Z</time></trkpt><trkpt lat="45.64221145505784" lon="10.095311254613057"><ele>321.6666666666667</ele><time>2026-03-15T12:12:08Z</time></trkpt><trkpt lat="45.64228156628755" lon="10.095283820705133"><ele>325.5</ele><time>2026-03-15T12:12:09Z</time></trkpt><trkpt lat="45.642363014732474" lon="10.095235276010015"><ele>329.3333333333333</ele><time>2026-03-15T12:12:10Z</time></trkpt><trkpt lat="45.64243727205176" lon="10.09517415220178"><ele>333.16666666666663</ele><time>2026-03-15T12:12:11Z</time></trkpt><trkpt lat="45.642524614188986" lon="10.095097846732951"><ele>337.0</ele><time>2026-03-15T12:12:13Z</time></trkpt><trkpt lat="45.64261307535379" lon="10.095024472569477"><ele>337.0</ele><time>2026-03-15T12:12:15Z</time></trkpt><trkpt lat="45.64267330722092" lon="10.095060387560558"><ele>337.0</ele><time>2026-03-15T12:12:16Z</time></trkpt><trkpt lat="45.64274384499038" lon="10.095119005725817"><ele>337.0</ele><time>2026-03-15T12:12:17Z</time></trkpt><trkpt lat="45.6428254749289" lon="10.095185171525092"><ele>337.0</ele><time>2026-03-15T12:12:18Z</time></trkpt><trkpt lat="45.64289100556687" lon="10.095219885491732"><ele>337.0</ele><time>2026-03-15T12:12:19Z</time></trkpt><trkpt lat="45.64300203111993" lon="10.095306537632307"><ele>337.0</ele><time>2026-03-15T12:12:21Z</time></trkpt><trkpt lat="45.64306491909273" lon="10.095349626451611"><ele>340.40000000000003</ele><time>2026-03-15T12:12:22Z</time></trkpt><trkpt lat="45.6432000585316" lon="10.095166973870766"><ele>343.8</ele><time>2026-03-15T12:12:23Z</time></trkpt><trkpt lat="45.643266285974796" lon="10.095113034599246"><ele>347.2</ele><time>2026-03-15T12:12:24Z</time></trkpt><trkpt lat="45.64333416866072" lon="10.0950560506526"><ele>350.6</ele><time>2026-03-15T12:12:25Z</time></trkpt><trkpt lat="45.64339359028539" lon="10.094988098424082"><ele>354.0</ele><time>2026-03-15T12:12:26Z</time></trkpt><trkpt lat="45.643482739764266" lon="10.094905205817861"><ele>354.0</ele><time>2026-03-15T12:12:27Z</time></trkpt><trkpt lat="45.64356672662703" lon="10.094831725627184"><ele>354.0</ele><time>2026-03-15T12:12:27.999Z</time></trkpt><trkpt lat="45.643655430008856" lon="10.094751320461443"><ele>354.0</ele><time>2026-03-15T12:12:28.999Z</time></trkpt><trkpt lat="45.643740409707725" lon="10.094673468457"><ele>354.0</ele><time>2026-03-15T12:12:29.999Z</time></trkpt><trkpt lat="45.64380207616268" lon="10.09461218568424"><ele>354.0</ele><time>2026-03-15T12:12:30.999Z</time></trkpt><trkpt lat="45.64385100905165" lon="10.09454266373176"><ele>354.0</ele><time>2026-03-15T12:12:31.999Z</time></trkpt><trkpt lat="45.643908291427785" lon="10.094452010904007"><ele>356.8333333333333</ele><time>2026-03-15T12:12:32.999Z</time></trkpt><trkpt lat="45.643966336134085" lon="10.094355671154194"><ele>359.6666666666667</ele><time>2026-03-15T12:12:33.999Z</time></trkpt><trkpt lat="45.64403516690074" lon="10.09426723390373"><ele>362.5</ele><time>2026-03-15T12:12:34.999Z</time></trkpt><trkpt lat="45.64410788819477" lon="10.094178837390032"><ele>365.33333333333337</ele><time>2026-03-15T12:12:35.999Z</time></trkpt><trkpt lat="45.64415897513697" lon="10.094100186409568"><ele>368.1666666666667</ele><time>2026-03-15T12:12:36.999Z</time></trkpt><trkpt lat="45.64421064916195" lon="10.094031083440196"><ele>371.0</ele><time>2026-03-15T12:12:37.999Z</time></trkpt><trkpt lat="45.64427343180035" lon="10.09389817380665"><ele>371.20000000000005</ele><time>2026-03-15T12:12:39.999Z</time></trkpt><trkpt lat="45.6442975287386" lon="10.093806999583228"><ele>371.40000000000003</ele><time>2026-03-15T12:12:40.999Z</time></trkpt><trkpt lat="45.64433371958388" lon="10.093678910558673"><ele>371.6</ele><time>2026-03-15T12:12:42.999Z</time></trkpt><trkpt lat="45.64442285001184" lon="10.09358198703522"><ele>371.8</ele><time>2026-03-15T12:12:44.999Z</time></trkpt><trkpt lat="45.64449669237832" lon="10.093460700355184"><ele>372.0</ele><time>2026-03-15T12:12:46.999Z</time></trkpt><trkpt lat="45.644558360922424" lon="10.093398056362032"><ele>376.20000000000005</ele><time>2026-03-15T12:12:47.999Z</time></trkpt><trkpt lat="45.64463361391626" lon="10.093333845714813"><ele>380.4</ele><time>2026-03-15T12:12:48.999Z</time></trkpt><trkpt lat="45.64472013953872" lon="10.093263594778398"><ele>384.6</ele><time>2026-03-15T12:12:49.999Z</time></trkpt><trkpt lat="45.64478943160499" lon="10.093201759812096"><ele>388.79999999999995</ele><time>2026-03-15T12:12:50.999Z</time></trkpt><trkpt lat="45.644853023872734" lon="10.093134990490807"><ele>393.0</ele><time>2026-03-15T12:12:51.999Z</time></trkpt><trkpt lat="45.644925741388235" lon="10.092959539944243"><ele>393.2</ele><time>2026-03-15T12:12:53.999Z</time></trkpt><trkpt lat="45.644980785432" lon="10.092884635770409"><ele>393.4</ele><time>2026-03-15T12:12:54.999Z</time></trkpt><trkpt lat="45.64504061519545" lon="10.092821782723256"><ele>393.59999999999997</ele><time>2026-03-15T12:12:55.999Z</time></trkpt><trkpt lat="45.64514172223925" lon="10.092702120963711"><ele>393.79999999999995</ele><time>2026-03-15T12:12:57.999Z</time></trkpt><trkpt lat="45.64521156344215" lon="10.092627429328259"><ele>394.0</ele><time>2026-03-15T12:12:59.999Z</time></trkpt><trkpt lat="45.64529866479766" lon="10.092611487705687"><ele>398.4</ele><time>2026-03-15T12:13:02.999Z</time></trkpt><trkpt lat="45.645387786217206" lon="10.092624540714006"><ele>402.79999999999995</ele><time>2026-03-15T12:13:04.999Z</time></trkpt><trkpt lat="45.64546926548868" lon="10.092612554077956"><ele>407.20000000000005</ele><time>2026-03-15T12:13:06.999Z</time></trkpt><trkpt lat="45.64554345773695" lon="10.092551193786745"><ele>411.6</ele><time>2026-03-15T12:13:08.999Z</time></trkpt><trkpt lat="45.645597601122134" lon="10.09244601248563"><ele>416.0</ele><time>2026-03-15T12:13:10.998Z</time></trkpt><trkpt lat="45.6456545134236" lon="10.092324999841232"><ele>416.4</ele><time>2026-03-15T12:13:12.998Z</time></trkpt><trkpt lat="45.64572237851182" lon="10.092236228855434"><ele>416.8</ele><time>2026-03-15T12:13:14.998Z</time></trkpt><trkpt lat="45.64581705267107" lon="10.092174656286037"><ele>417.2</ele><time>2026-03-15T12:13:16.998Z</time></trkpt><trkpt lat="45.64588866236127" lon="10.092129445138317"><ele>417.59999999999997</ele><time>2026-03-15T12:13:18.998Z</time></trkpt><trkpt lat="45.6459921845859" lon="10.09206553502755"><ele>418.0</ele><time>2026-03-15T12:13:20.998Z</time></trkpt><trkpt lat="45.6460655891413" lon="10.091917372229332"><ele>422.79999999999995</ele><time>2026-03-15T12:13:22.998Z</time></trkpt><trkpt lat="45.646158235314196" lon="10.091790920459175"><ele>427.6</ele><time>2026-03-15T12:13:24.998Z</time></trkpt><trkpt lat="45.64620828048912" lon="10.091732996796953"><ele>432.40000000000003</ele><time>2026-03-15T12:13:25.998Z</time></trkpt><trkpt lat="45.6462990795715" lon="10.091629163414417"><ele>437.20000000000005</ele><time>2026-03-15T12:13:27.998Z</time></trkpt><trkpt lat="45.64637113597896" lon="10.091555402350854"><ele>442.0</ele><time>2026-03-15T12:13:29.998Z</time></trkpt><trkpt lat="45.646459967970905" lon="10.091521099299017"><ele>442.6666666666667</ele><time>2026-03-15T12:13:31.998Z</time></trkpt><trkpt lat="45.64655588461271" lon="10.09143961391791"><ele>443.33333333333337</ele><time>2026-03-15T12:13:33.998Z</time></trkpt><trkpt lat="45.64660448445818" lon="10.091365577941442"><ele>444.0</ele><time>2026-03-15T12:13:44.998Z</time></trkpt><trkpt lat="45.64660984124437" lon="10.091271474900418"><ele>444.66666666666663</ele><time>2026-03-15T12:13:46.998Z</time></trkpt><trkpt lat="45.64662290595403" lon="10.091171145944093"><ele>445.3333333333333</ele><time>2026-03-15T12:13:50.998Z</time></trkpt><trkpt lat="45.646680206187575" lon="10.091106497710735"><ele>446.0</ele><time>2026-03-15T12:13:52.998Z</time></trkpt><trkpt lat="45.64673673379325" lon="10.09103135371176"><ele>445.99999999999994</ele><time>2026-03-15T12:13:54.997Z</time></trkpt><trkpt lat="45.64676903291696" lon="10.090861660938073"><ele>446.0</ele><time>2026-03-15T12:13:56.997Z</time></trkpt><trkpt lat="45.64677894345135" lon="10.090759212212857"><ele>446.0</ele><time>2026-03-15T12:13:57.997Z</time></trkpt><trkpt lat="45.64679626005784" lon="10.0906648971638"><ele>446.0</ele><time>2026-03-15T12:13:58.997Z</time></trkpt><trkpt lat="45.64682218618242" lon="10.090568035965447"><ele>445.99999999999994</ele><time>2026-03-15T12:13:59.997Z</time></trkpt><trkpt lat="45.646862622066884" lon="10.090460438504762"><ele>446.0</ele><time>2026-03-15T12:14:01.997Z</time></trkpt><trkpt lat="45.64691363555276" lon="10.090342253951398"><ele>450.8333333333333</ele><time>2026-03-15T12:14:03.997Z</time></trkpt><trkpt lat="45.6469679130137" lon="10.09024351449968"><ele>455.66666666666663</ele><time>2026-03-15T12:14:05.997Z</time></trkpt><trkpt lat="45.64700366060299" lon="10.09016150714535"><ele>460.5</ele><time>2026-03-15T12:14:06.997Z</time></trkpt><trkpt lat="45.64703394470402" lon="10.090066573863119"><ele>465.33333333333337</ele><time>2026-03-15T12:14:07.997Z</time></trkpt><trkpt lat="45.64706386092595" lon="10.089966682303162"><ele>470.1666666666667</ele><time>2026-03-15T12:14:09.997Z</time></trkpt><trkpt lat="45.64712095323329" lon="10.08984264761943"><ele>475.0</ele><time>2026-03-15T12:14:11.997Z</time></trkpt><trkpt lat="45.64720132141875" lon="10.089696466405693"><ele>475.6</ele><time>2026-03-15T12:14:14Z</time></trkpt><trkpt lat="45.64724217549617" lon="10.089589341175957"><ele>476.2</ele><time>2026-03-15T12:14:16Z</time></trkpt><trkpt lat="45.6473075790911" lon="10.089545938626236"><ele>476.79999999999995</ele><time>2026-03-15T12:14:18Z</time></trkpt><trkpt lat="45.64739426986025" lon="10.089479473680575"><ele>477.4</ele><time>2026-03-15T12:14:21Z</time></trkpt><trkpt lat="45.64748320824146" lon="10.089388052486125"><ele>478.0</ele><time>2026-03-15T12:14:23Z</time></trkpt><trkpt lat="45.64758018448275" lon="10.089307573630942"><ele>478.0</ele><time>2026-03-15T12:14:25Z</time></trkpt><trkpt lat="45.64761676889148" lon="10.089182688821966"><ele>477.99999999999994</ele><time>2026-03-15T12:14:27Z</time></trkpt><trkpt lat="45.64765344676846" lon="10.089088462462792"><ele>477.99999999999994</ele><time>2026-03-15T12:14:29Z</time></trkpt><trkpt lat="45.64773060531307" lon="10.088984157570575"><ele>478.0</ele><time>2026-03-15T12:14:32Z</time></trkpt><trkpt lat="45.64780394834992" lon="10.08889795013507"><ele>478.0</ele><time>2026-03-15T12:14:34Z</time></trkpt><trkpt lat="45.64786403778845" lon="10.088798474411327"><ele>482.33333333333337</ele><time>2026-03-15T12:14:36Z</time></trkpt><trkpt lat="45.6479618327991" lon="10.08872829894612"><ele>486.6666666666667</ele><time>2026-03-15T12:14:38Z</time></trkpt><trkpt lat="45.648016060983785" lon="10.088637371236807"><ele>491.0</ele><time>2026-03-15T12:14:40Z</time></trkpt><trkpt lat="45.64808013423432" lon="10.088611564108286"><ele>495.33333333333337</ele><time>2026-03-15T12:14:42Z</time></trkpt><trkpt lat="45.64815513399225" lon="10.08857725606046"><ele>499.6666666666667</ele><time>2026-03-15T12:14:44Z</time></trkpt><trkpt lat="45.648214568169166" lon="10.088623242261889"><ele>504.0</ele><time>2026-03-15T12:18:01.997Z</time></trkpt><trkpt lat="45.648200921501434" lon="10.088739594437369"><ele>504.0</ele><time>2026-03-15T12:18:03.997Z</time></trkpt><trkpt lat="45.64821603764596" lon="10.088852556471608"><ele>504.0</ele><time>2026-03-15T12:18:05.997Z</time></trkpt><trkpt lat="45.64816976941477" lon="10.088973364735342"><ele>504.0</ele><time>2026-03-15T12:18:07.997Z</time></trkpt><trkpt lat="45.648139240238976" lon="10.089100943044869"><ele>504.0</ele><time>2026-03-15T12:18:09.997Z</time></trkpt><trkpt lat="45.648143823560204" lon="10.08922514520017"><ele>504.0</ele><time>2026-03-15T12:18:12.997Z</time></trkpt><trkpt lat="45.648195606741986" lon="10.089326546234105"><ele>504.0</ele><time>2026-03-15T12:18:15.997Z</time></trkpt><trkpt lat="45.64825145366707" lon="10.08939954549385"><ele>504.0</ele><time>2026-03-15T12:18:17.997Z</time></trkpt><trkpt lat="45.64834664119" lon="10.089470975155727"><ele>504.0</ele><time>2026-03-15T12:18:19.997Z</time></trkpt><trkpt lat="45.64839102640169" lon="10.089579922626696"><ele>504.0</ele><time>2026-03-15T12:18:22.997Z</time></trkpt><trkpt lat="45.64843321028471" lon="10.089703680908617"><ele>504.0</ele><time>2026-03-15T12:18:25Z</time></trkpt><trkpt lat="45.64848608130256" lon="10.08979723357213"><ele>504.0</ele><time>2026-03-15T12:18:28Z</time></trkpt><trkpt lat="45.648516782648194" lon="10.089897456117283"><ele>504.3333333333333</ele><time>2026-03-15T12:18:30Z</time></trkpt><trkpt lat="45.64856642821878" lon="10.089966264674672"><ele>504.66666666666663</ele><time>2026-03-15T12:18:33Z</time></trkpt><trkpt lat="45.648594656057405" lon="10.090049573467477"><ele>505.0</ele><time>2026-03-15T12:18:36Z</time></trkpt><trkpt lat="45.64863812643659" lon="10.089976520719247"><ele>505.3333333333333</ele><time>2026-03-15T12:19:10.999Z</time></trkpt><trkpt lat="45.64869981123967" lon="10.089862555779435"><ele>505.66666666666663</ele><time>2026-03-15T12:19:14.999Z</time></trkpt><trkpt lat="45.64873499171343" lon="10.08974363332023"><ele>506.0</ele><time>2026-03-15T12:19:36.998Z</time></trkpt><trkpt lat="45.64875914666861" lon="10.089655623757778"><ele>513.0</ele><time>2026-03-15T12:19:39.998Z</time></trkpt><trkpt lat="45.64875723628051" lon="10.089562732643799"><ele>520.0</ele><time>2026-03-15T12:19:41.998Z</time></trkpt><trkpt lat="45.64876754129324" lon="10.089462562659063"><ele>527.0</ele><time>2026-03-15T12:19:43.998Z</time></trkpt><trkpt lat="45.648812783203795" lon="10.089386140640853"><ele>534.0</ele><time>2026-03-15T12:19:46.998Z</time></trkpt><trkpt lat="45.64888113977612" lon="10.089147276418219"><ele>541.0</ele><time>2026-03-15T12:19:48.998Z</time></trkpt><trkpt lat="45.64894241215575" lon="10.089048183940037"><ele>541.0</ele><time>2026-03-15T12:19:50.998Z</time></trkpt><trkpt lat="45.6490199553036" lon="10.088920921293747"><ele>541.0</ele><time>2026-03-15T12:19:52.998Z</time></trkpt><trkpt lat="45.64906828910314" lon="10.088801648878366"><ele>541.0</ele><time>2026-03-15T12:19:54.998Z</time></trkpt><trkpt lat="45.64910003023701" lon="10.088721252354576"><ele>541.0</ele><time>2026-03-15T12:19:55.998Z</time></trkpt><trkpt lat="45.64913450316573" lon="10.08855379610428"><ele>541.0</ele><time>2026-03-15T12:19:57.998Z</time></trkpt><trkpt lat="45.649175222275595" lon="10.088418710001802"><ele>541.0</ele><time>2026-03-15T12:19:59.998Z</time></trkpt><trkpt lat="45.6492202152397" lon="10.088295640459332"><ele>541.0</ele><time>2026-03-15T12:20:01.998Z</time></trkpt><trkpt lat="45.64925235624367" lon="10.088182208169398"><ele>541.0</ele><time>2026-03-15T12:20:03.998Z</time></trkpt><trkpt lat="45.64928236269814" lon="10.088101114484209"><ele>541.0</ele><time>2026-03-15T12:20:04.998Z</time></trkpt><trkpt lat="45.64932795670006" lon="10.087974343471362"><ele>541.0</ele><time>2026-03-15T12:20:06.998Z</time></trkpt><trkpt lat="45.649368030650784" lon="10.087856600167402"><ele>541.0</ele><time>2026-03-15T12:20:08.998Z</time></trkpt><trkpt lat="45.64934609343307" lon="10.08795402360692"><ele>541.0</ele><time>2026-03-15T12:29:54.999Z</time></trkpt><trkpt lat="45.649321767447006" lon="10.088038051807205"><ele>541.0</ele><time>2026-03-15T12:29:56.999Z</time></trkpt><trkpt lat="45.64929043137517" lon="10.088146520319722"><ele>541.0</ele><time>2026-03-15T12:29:59.999Z</time></trkpt><trkpt lat="45.64924842002123" lon="10.088253803685813"><ele>541.0</ele><time>2026-03-15T12:30:01.999Z</time></trkpt><trkpt lat="45.649214404168966" lon="10.08835427037601"><ele>541.0</ele><time>2026-03-15T12:30:04.999Z</time></trkpt><trkpt lat="45.64918717738042" lon="10.08844689311541"><ele>541.0</ele><time>2026-03-15T12:30:06.999Z</time></trkpt><trkpt lat="45.64916877035566" lon="10.088551711833743"><ele>541.0</ele><time>2026-03-15T12:30:09.999Z</time></trkpt><trkpt lat="45.64914080425984" lon="10.088641924607952"><ele>541.0</ele><time>2026-03-15T12:30:11.999Z</time></trkpt><trkpt lat="45.6491130212754" lon="10.088747660929858"><ele>541.0</ele><time>2026-03-15T12:30:14.999Z</time></trkpt><trkpt lat="45.64906729465508" lon="10.088845211461678"><ele>541.0</ele><time>2026-03-15T12:30:17.998Z</time></trkpt><trkpt lat="45.64902070189129" lon="10.088924194325159"><ele>541.0</ele><time>2026-03-15T12:30:19.998Z</time></trkpt><trkpt lat="45.648970933135615" lon="10.089016072218527"><ele>541.0</ele><time>2026-03-15T12:30:22.998Z</time></trkpt><trkpt lat="45.64892864455582" lon="10.089118985909536"><ele>541.4</ele><time>2026-03-15T12:30:25.998Z</time></trkpt><trkpt lat="45.648896631795125" lon="10.089215024467123"><ele>541.8</ele><time>2026-03-15T12:30:28.998Z</time></trkpt><trkpt lat="45.64886972189672" lon="10.089334054832449"><ele>542.1999999999999</ele><time>2026-03-15T12:30:31.998Z</time></trkpt><trkpt lat="45.64884735607975" lon="10.089443747072803"><ele>542.6</ele><time>2026-03-15T12:30:33.998Z</time></trkpt><trkpt lat="45.648783497532975" lon="10.089640762990454"><ele>543.0</ele><time>2026-03-15T12:30:35.998Z</time></trkpt><trkpt lat="45.6487568299696" lon="10.089761484404765"><ele>543.0</ele><time>2026-03-15T12:30:37.998Z</time></trkpt><trkpt lat="45.648731005843786" lon="10.08986659831017"><ele>543.0</ele><time>2026-03-15T12:30:40.998Z</time></trkpt><trkpt lat="45.64869402838467" lon="10.08995031224282"><ele>543.0</ele><time>2026-03-15T12:30:42.998Z</time></trkpt><trkpt lat="45.64864516624709" lon="10.090040891185009"><ele>543.0</ele><time>2026-03-15T12:30:45.998Z</time></trkpt><trkpt lat="45.648581765462836" lon="10.090058725091222"><ele>543.0</ele><time>2026-03-15T12:30:55.998Z</time></trkpt><trkpt lat="45.648528538981836" lon="10.08995407245844"><ele>543.0</ele><time>2026-03-15T12:31:00Z</time></trkpt><trkpt lat="45.648480725165136" lon="10.089836242325354"><ele>536.5</ele><time>2026-03-15T12:31:03Z</time></trkpt><trkpt lat="45.648431421297055" lon="10.089747647092054"><ele>530.0</ele><time>2026-03-15T12:31:05Z</time></trkpt><trkpt lat="45.64837722275075" lon="10.089653098085854"><ele>523.5</ele><time>2026-03-15T12:31:08Z</time></trkpt><trkpt lat="45.64832871757825" lon="10.089537335065696"><ele>517.0</ele><time>2026-03-15T12:31:11Z</time></trkpt><trkpt lat="45.64824779605015" lon="10.089466449453598"><ele>510.5</ele><time>2026-03-15T12:31:14Z</time></trkpt><trkpt lat="45.648201144095346" lon="10.089399196083393"><ele>504.0</ele><time>2026-03-15T12:31:17Z</time></trkpt><trkpt lat="45.648179347166355" lon="10.08931052040032"><ele>504.0</ele><time>2026-03-15T12:31:19Z</time></trkpt><trkpt lat="45.64815003610024" lon="10.089186479132923"><ele>504.0</ele><time>2026-03-15T12:31:22Z</time></trkpt><trkpt lat="45.648160802368714" lon="10.089087463146297"><ele>504.0</ele><time>2026-03-15T12:31:24Z</time></trkpt><trkpt lat="45.64817421432434" lon="10.088983249315602"><ele>504.0</ele><time>2026-03-15T12:31:26Z</time></trkpt><trkpt lat="45.64820200340203" lon="10.08888861134529"><ele>504.0</ele><time>2026-03-15T12:31:28Z</time></trkpt><trkpt lat="45.648228834963895" lon="10.088768188460305"><ele>504.0</ele><time>2026-03-15T12:31:31Z</time></trkpt><trkpt lat="45.64821578019864" lon="10.08867187144701"><ele>504.0</ele><time>2026-03-15T12:31:33Z</time></trkpt><trkpt lat="45.64816242936751" lon="10.08862351617646"><ele>504.0</ele><time>2026-03-15T12:31:35Z</time></trkpt><trkpt lat="45.64809111745392" lon="10.08862927513994"><ele>504.0</ele><time>2026-03-15T12:31:39Z</time></trkpt><trkpt lat="45.64804228619696" lon="10.088692354075118"><ele>504.0</ele><time>2026-03-15T12:31:43.999Z</time></trkpt><trkpt lat="45.64799557717104" lon="10.088768496238005"><ele>504.0</ele><time>2026-03-15T12:31:47.999Z</time></trkpt><trkpt lat="45.647931012125845" lon="10.088823080321072"><ele>504.0</ele><time>2026-03-15T12:31:50.998Z</time></trkpt><trkpt lat="45.64783990414579" lon="10.088925788540745"><ele>499.6666666666667</ele><time>2026-03-15T12:31:53.998Z</time></trkpt><trkpt lat="45.647778129948335" lon="10.089012503297718"><ele>495.33333333333337</ele><time>2026-03-15T12:31:55.998Z</time></trkpt><trkpt lat="45.64772677536479" lon="10.089085872656378"><ele>491.0</ele><time>2026-03-15T12:31:57.998Z</time></trkpt><trkpt lat="45.647677873419426" lon="10.089196718482526"><ele>486.6666666666667</ele><time>2026-03-15T12:32:01.998Z</time></trkpt><trkpt lat="45.64763007682489" lon="10.089297347517682"><ele>482.33333333333337</ele><time>2026-03-15T12:32:04.998Z</time></trkpt><trkpt lat="45.64756791334176" lon="10.08934414615265"><ele>478.0</ele><time>2026-03-15T12:32:06.998Z</time></trkpt><trkpt lat="45.647510685424386" lon="10.089392848489181"><ele>478.00000000000006</ele><time>2026-03-15T12:32:08.998Z</time></trkpt><trkpt lat="45.64745841435322" lon="10.089456279363663"><ele>478.0</ele><time>2026-03-15T12:32:10.998Z</time></trkpt><trkpt lat="45.64739642808418" lon="10.089481708686307"><ele>478.0</ele><time>2026-03-15T12:32:12.998Z</time></trkpt><trkpt lat="45.64731143810127" lon="10.089536912540082"><ele>478.0</ele><time>2026-03-15T12:32:16.998Z</time></trkpt><trkpt lat="45.64725766729991" lon="10.089592255460856"><ele>478.00000000000006</ele><time>2026-03-15T12:32:18.998Z</time></trkpt><trkpt lat="45.647229863728946" lon="10.08969223944697"><ele>478.0</ele><time>2026-03-15T12:32:21.998Z</time></trkpt><trkpt lat="45.64717784816129" lon="10.089799963431695"><ele>478.00000000000006</ele><time>2026-03-15T12:32:23.998Z</time></trkpt><trkpt lat="45.64712317850631" lon="10.089887091549759"><ele>478.0</ele><time>2026-03-15T12:32:25.998Z</time></trkpt><trkpt lat="45.64709165768909" lon="10.089979089795682"><ele>478.0</ele><time>2026-03-15T12:32:27.998Z</time></trkpt><trkpt lat="45.64707081380725" lon="10.090072009654815"><ele>478.0</ele><time>2026-03-15T12:32:30.998Z</time></trkpt><trkpt lat="45.64703605865135" lon="10.090170420012662"><ele>478.00000000000006</ele><time>2026-03-15T12:32:32.997Z</time></trkpt><trkpt lat="45.6469876125667" lon="10.09025236625578"><ele>478.0</ele><time>2026-03-15T12:32:35.997Z</time></trkpt><trkpt lat="45.6469399370345" lon="10.09034424897718"><ele>474.33333333333337</ele><time>2026-03-15T12:32:37.997Z</time></trkpt><trkpt lat="45.64690542516298" lon="10.09043005629637"><ele>470.6666666666667</ele><time>2026-03-15T12:32:39.997Z</time></trkpt><trkpt lat="45.64686687486264" lon="10.090534128789033"><ele>467.0</ele><time>2026-03-15T12:32:41.997Z</time></trkpt><trkpt lat="45.646842376090014" lon="10.090630565009436"><ele>463.33333333333337</ele><time>2026-03-15T12:32:42.997Z</time></trkpt><trkpt lat="45.64681250603048" lon="10.090787273057803"><ele>459.6666666666667</ele><time>2026-03-15T12:32:44.997Z</time></trkpt><trkpt lat="45.64679185884286" lon="10.090912329562073"><ele>456.0</ele><time>2026-03-15T12:32:46.997Z</time></trkpt><trkpt lat="45.64676348876734" lon="10.091024603933278"><ele>454.3333333333333</ele><time>2026-03-15T12:32:48.997Z</time></trkpt><trkpt lat="45.646714085967396" lon="10.091096133838017"><ele>452.66666666666663</ele><time>2026-03-15T12:32:50.997Z</time></trkpt><trkpt lat="45.64665848780812" lon="10.09115521940525"><ele>451.0</ele><time>2026-03-15T12:32:52.997Z</time></trkpt><trkpt lat="45.64663183423146" lon="10.091252624278255"><ele>449.3333333333333</ele><time>2026-03-15T12:32:55.997Z</time></trkpt><trkpt lat="45.64664613589896" lon="10.091340545713813"><ele>447.66666666666663</ele><time>2026-03-15T12:32:57.997Z</time></trkpt><trkpt lat="45.64657221194524" lon="10.091436324370658"><ele>446.0</ele><time>2026-03-15T12:33:00.997Z</time></trkpt><trkpt lat="45.646483838646226" lon="10.09147697401163"><ele>445.99999999999994</ele><time>2026-03-15T12:33:03.997Z</time></trkpt><trkpt lat="45.646436428501254" lon="10.091566953492086"><ele>446.0</ele><time>2026-03-15T12:33:06.999Z</time></trkpt><trkpt lat="45.64635828132294" lon="10.091619859679554"><ele>446.0</ele><time>2026-03-15T12:33:10.999Z</time></trkpt><trkpt lat="45.64628058779956" lon="10.09169034078961"><ele>446.0</ele><time>2026-03-15T12:33:13.999Z</time></trkpt><trkpt lat="45.64622604782224" lon="10.09175865791057"><ele>445.99999999999994</ele><time>2026-03-15T12:33:15.999Z</time></trkpt><trkpt lat="45.64616880593134" lon="10.09182839946206"><ele>446.0</ele><time>2026-03-15T12:33:18Z</time></trkpt><trkpt lat="45.64612565346419" lon="10.091898079203753"><ele>441.3333333333333</ele><time>2026-03-15T12:33:19.999Z</time></trkpt><trkpt lat="45.64608356131902" lon="10.09197458193602"><ele>436.66666666666663</ele><time>2026-03-15T12:33:21.999Z</time></trkpt><trkpt lat="45.646055475823324" lon="10.092062896611363"><ele>432.0</ele><time>2026-03-15T12:33:23.999Z</time></trkpt><trkpt lat="45.64600767830614" lon="10.092158415128766"><ele>427.33333333333337</ele><time>2026-03-15T12:33:25.999Z</time></trkpt><trkpt lat="45.645929336915785" lon="10.092185176437374"><ele>422.6666666666667</ele><time>2026-03-15T12:33:27.999Z</time></trkpt><trkpt lat="45.645857877437415" lon="10.092207369765601"><ele>418.0</ele><time>2026-03-15T12:33:29.999Z</time></trkpt><trkpt lat="45.64574260921943" lon="10.092234761866365"><ele>418.00000000000006</ele><time>2026-03-15T12:33:31.999Z</time></trkpt><trkpt lat="45.64569239182339" lon="10.092327065786918"><ele>418.0</ele><time>2026-03-15T12:33:33.999Z</time></trkpt><trkpt lat="45.64565727027273" lon="10.092418120662913"><ele>418.0</ele><time>2026-03-15T12:33:35.999Z</time></trkpt><trkpt lat="45.6456096157948" lon="10.092527756036304"><ele>418.0</ele><time>2026-03-15T12:33:38.999Z</time></trkpt><trkpt lat="45.64557194375906" lon="10.092605574004612"><ele>418.00000000000006</ele><time>2026-03-15T12:33:40.999Z</time></trkpt><trkpt lat="45.64549751000346" lon="10.09263062596612"><ele>418.0</ele><time>2026-03-15T12:33:43.999Z</time></trkpt><trkpt lat="45.64541232626289" lon="10.092652625902511"><ele>417.6666666666667</ele><time>2026-03-15T12:33:45.999Z</time></trkpt><trkpt lat="45.64533214535456" lon="10.092641477539997"><ele>417.33333333333337</ele><time>2026-03-15T12:33:47.999Z</time></trkpt><trkpt lat="45.64525561594598" lon="10.092653375633597"><ele>417.0</ele><time>2026-03-15T12:33:49.999Z</time></trkpt><trkpt lat="45.6451759970263" lon="10.092718684698966"><ele>416.66666666666663</ele><time>2026-03-15T12:33:51.999Z</time></trkpt><trkpt lat="45.6451073246312" lon="10.092798124192699"><ele>416.3333333333333</ele><time>2026-03-15T12:33:53.999Z</time></trkpt><trkpt lat="45.64502773453062" lon="10.092903826725728"><ele>416.0</ele><time>2026-03-15T12:33:56.999Z</time></trkpt><trkpt lat="45.64494078167908" lon="10.093003340706199"><ele>412.3333333333333</ele><time>2026-03-15T12:33:58.999Z</time></trkpt><trkpt lat="45.64489701241989" lon="10.093070176208162"><ele>408.66666666666663</ele><time>2026-03-15T12:33:59.999Z</time></trkpt><trkpt lat="45.64485093477627" lon="10.093152422277603"><ele>405.0</ele><time>2026-03-15T12:34:00.999Z</time></trkpt><trkpt lat="45.64475772176228" lon="10.093267863991446"><ele>401.33333333333337</ele><time>2026-03-15T12:34:02.999Z</time></trkpt><trkpt lat="45.64468761851567" lon="10.093310014855556"><ele>397.6666666666667</ele><time>2026-03-15T12:34:03.999Z</time></trkpt><trkpt lat="45.64462464647489" lon="10.093355322448302"><ele>394.0</ele><time>2026-03-15T12:34:04.999Z</time></trkpt><trkpt lat="45.64456605689016" lon="10.093404078386627"><ele>393.79999999999995</ele><time>2026-03-15T12:34:05.999Z</time></trkpt><trkpt lat="45.64447899994507" lon="10.093506430046634"><ele>393.59999999999997</ele><time>2026-03-15T12:34:07.998Z</time></trkpt><trkpt lat="45.64442136308656" lon="10.093578124115725"><ele>393.4</ele><time>2026-03-15T12:34:08.998Z</time></trkpt><trkpt lat="45.6443430494167" lon="10.093713079119626"><ele>393.2</ele><time>2026-03-15T12:34:10.998Z</time></trkpt><trkpt lat="45.64428099734824" lon="10.093844738137202"><ele>393.0</ele><time>2026-03-15T12:34:12.998Z</time></trkpt><trkpt lat="45.6442599329272" lon="10.093976822181798"><ele>389.5</ele><time>2026-03-15T12:34:14.998Z</time></trkpt><trkpt lat="45.644219641743405" lon="10.094065723787816"><ele>386.0</ele><time>2026-03-15T12:34:15.998Z</time></trkpt><trkpt lat="45.64416792245051" lon="10.09414153779407"><ele>382.5</ele><time>2026-03-15T12:34:16.998Z</time></trkpt><trkpt lat="45.64409259599249" lon="10.09425110452889"><ele>379.0</ele><time>2026-03-15T12:34:18.998Z</time></trkpt><trkpt lat="45.64401448065455" lon="10.094338515452908"><ele>375.5</ele><time>2026-03-15T12:34:20.998Z</time></trkpt><trkpt lat="45.643956118491566" lon="10.09442032789456"><ele>372.0</ele><time>2026-03-15T12:34:22.998Z</time></trkpt><trkpt lat="45.64391020757685" lon="10.094498523258562"><ele>371.8</ele><time>2026-03-15T12:34:24.998Z</time></trkpt><trkpt lat="45.64386295315768" lon="10.094572587369631"><ele>371.6</ele><time>2026-03-15T12:34:26.998Z</time></trkpt><trkpt lat="45.643811756485974" lon="10.094640425008713"><ele>371.40000000000003</ele><time>2026-03-15T12:34:28.998Z</time></trkpt><trkpt lat="45.64373597240005" lon="10.094727413702017"><ele>371.20000000000005</ele><time>2026-03-15T12:34:30.998Z</time></trkpt><trkpt lat="45.643635730409855" lon="10.094823172295996"><ele>371.0</ele><time>2026-03-15T12:34:32.998Z</time></trkpt><trkpt lat="45.643537710386525" lon="10.094924303995336"><ele>368.6666666666667</ele><time>2026-03-15T12:34:34.998Z</time></trkpt><trkpt lat="45.643481463074004" lon="10.09497509216378"><ele>366.33333333333337</ele><time>2026-03-15T12:34:35.998Z</time></trkpt><trkpt lat="45.64341949289653" lon="10.095025397670998"><ele>364.0</ele><time>2026-03-15T12:34:36.998Z</time></trkpt><trkpt lat="45.643363509203965" lon="10.095079333560095"><ele>361.6666666666667</ele><time>2026-03-15T12:34:37.998Z</time></trkpt><trkpt lat="45.6432995542035" lon="10.095128398650465"><ele>359.3333333333333</ele><time>2026-03-15T12:34:38.998Z</time></trkpt><trkpt lat="45.64318573264319" lon="10.095194010653541"><ele>357.0</ele><time>2026-03-15T12:34:40.998Z</time></trkpt><trkpt lat="45.64311955513927" lon="10.09522290736586"><ele>357.0</ele><time>2026-03-15T12:34:41.998Z</time></trkpt><trkpt lat="45.6430485183838" lon="10.095240339112737"><ele>357.0</ele><time>2026-03-15T12:34:42.998Z</time></trkpt><trkpt lat="45.64298256950105" lon="10.095242991059274"><ele>357.0</ele><time>2026-03-15T12:34:43.998Z</time></trkpt><trkpt lat="45.64286458449109" lon="10.095202715992384"><ele>357.0</ele><time>2026-03-15T12:34:45.998Z</time></trkpt><trkpt lat="45.64280346933857" lon="10.0951594601508"><ele>357.0</ele><time>2026-03-15T12:34:46.998Z</time></trkpt><trkpt lat="45.642753586673294" lon="10.095083657777124"><ele>357.0</ele><time>2026-03-15T12:34:47.998Z</time></trkpt><trkpt lat="45.64269548350671" lon="10.095043847185579"><ele>353.0</ele><time>2026-03-15T12:34:48.998Z</time></trkpt><trkpt lat="45.64259700553483" lon="10.094995035613108"><ele>349.0</ele><time>2026-03-15T12:34:50.997Z</time></trkpt><trkpt lat="45.6425266209126" lon="10.095027370094488"><ele>345.0</ele><time>2026-03-15T12:34:51.997Z</time></trkpt><trkpt lat="45.64246666160889" lon="10.095093021390044"><ele>341.0</ele><time>2026-03-15T12:34:52.997Z</time></trkpt><trkpt lat="45.64236399811908" lon="10.095180398643853"><ele>337.0</ele><time>2026-03-15T12:34:54.997Z</time></trkpt><trkpt lat="45.64225978659064" lon="10.09524268424224"><ele>337.0</ele><time>2026-03-15T12:34:56.997Z</time></trkpt><trkpt lat="45.642146660999664" lon="10.095282354541592"><ele>337.0</ele><time>2026-03-15T12:34:58.997Z</time></trkpt><trkpt lat="45.64204203749889" lon="10.095315697111225"><ele>337.0</ele><time>2026-03-15T12:35:00.997Z</time></trkpt><trkpt lat="45.641938689399275" lon="10.095358511557022"><ele>337.0</ele><time>2026-03-15T12:35:02.997Z</time></trkpt><trkpt lat="45.64188298350828" lon="10.095403183925585"><ele>337.0</ele><time>2026-03-15T12:35:03.997Z</time></trkpt><trkpt lat="45.64183272541682" lon="10.095468908896676"><ele>332.40000000000003</ele><time>2026-03-15T12:35:04.997Z</time></trkpt><trkpt lat="45.64176137297786" lon="10.095550564240133"><ele>327.8</ele><time>2026-03-15T12:35:06.997Z</time></trkpt><trkpt lat="45.64170183442562" lon="10.095600805746718"><ele>323.2</ele><time>2026-03-15T12:35:07.997Z</time></trkpt><trkpt lat="45.6416080810601" lon="10.09567475094473"><ele>318.6</ele><time>2026-03-15T12:35:10Z</time></trkpt><trkpt lat="45.641516842412436" lon="10.095702198786002"><ele>314.0</ele><time>2026-03-15T12:35:12Z</time></trkpt><trkpt lat="45.641453802335334" lon="10.095584450253266"><ele>314.0</ele><time>2026-03-15T12:35:14Z</time></trkpt><trkpt lat="45.641456683949926" lon="10.095430064866592"><ele>314.0</ele><time>2026-03-15T12:35:16Z</time></trkpt><trkpt lat="45.64146632407378" lon="10.095337158353152"><ele>314.0</ele><time>2026-03-15T12:35:17Z</time></trkpt><trkpt lat="45.64150184760112" lon="10.095200567728854"><ele>314.0</ele><time>2026-03-15T12:35:19Z</time></trkpt><trkpt lat="45.6415375178487" lon="10.095072746126224"><ele>314.0</ele><time>2026-03-15T12:35:21Z</time></trkpt><trkpt lat="45.64151889531297" lon="10.094909376675144"><ele>313.0</ele><time>2026-03-15T12:35:23Z</time></trkpt><trkpt lat="45.641489358097296" lon="10.094766511656388"><ele>312.0</ele><time>2026-03-15T12:35:25Z</time></trkpt><trkpt lat="45.64146844693425" lon="10.094596969274267"><ele>311.0</ele><time>2026-03-15T12:35:27Z</time></trkpt><trkpt lat="45.64138498532353" lon="10.094495514271863"><ele>310.0</ele><time>2026-03-15T12:35:29Z</time></trkpt><trkpt lat="45.64131848999626" lon="10.094544238003417"><ele>309.0</ele><time>2026-03-15T12:35:30Z</time></trkpt><trkpt lat="45.64131506859781" lon="10.094731401170412"><ele>309.0</ele><time>2026-03-15T12:35:31Z</time></trkpt><trkpt lat="45.64129276476079" lon="10.094836576127244"><ele>309.0</ele><time>2026-03-15T12:35:32Z</time></trkpt><trkpt lat="45.64123771717993" lon="10.094890931607212"><ele>309.0</ele><time>2026-03-15T12:35:33Z</time></trkpt><trkpt lat="45.64117195754246" lon="10.094881536627042"><ele>309.0</ele><time>2026-03-15T12:35:34Z</time></trkpt><trkpt lat="45.64113152426176" lon="10.094764031988605"><ele>309.0</ele><time>2026-03-15T12:35:35Z</time></trkpt><trkpt lat="45.64110467667229" lon="10.094668969732805"><ele>309.0</ele><time>2026-03-15T12:35:36Z</time></trkpt><trkpt lat="45.641049362384365" lon="10.094581017595708"><ele>306.0</ele><time>2026-03-15T12:35:37Z</time></trkpt><trkpt lat="45.64098547822261" lon="10.09449033449944"><ele>303.0</ele><time>2026-03-15T12:35:38Z</time></trkpt><trkpt lat="45.64091963657396" lon="10.094420030288152"><ele>300.0</ele><time>2026-03-15T12:35:39Z</time></trkpt><trkpt lat="45.64084864972129" lon="10.094352531711133"><ele>297.0</ele><time>2026-03-15T12:35:39.999Z</time></trkpt><trkpt lat="45.640752713614944" lon="10.094289551311094"><ele>294.0</ele><time>2026-03-15T12:35:40.999Z</time></trkpt><trkpt lat="45.64064765962608" lon="10.094290665536082"><ele>294.0</ele><time>2026-03-15T12:35:41.999Z</time></trkpt><trkpt lat="45.640552061021616" lon="10.094284812601595"><ele>294.0</ele><time>2026-03-15T12:35:42.999Z</time></trkpt><trkpt lat="45.64047618127945" lon="10.094239998991139"><ele>294.0</ele><time>2026-03-15T12:35:43.999Z</time></trkpt><trkpt lat="45.64040752161369" lon="10.094176743432207"><ele>294.0</ele><time>2026-03-15T12:35:44.999Z</time></trkpt><trkpt lat="45.64033339437228" lon="10.09412258303744"><ele>294.0</ele><time>2026-03-15T12:35:45.999Z</time></trkpt><trkpt lat="45.64026440601792" lon="10.094082251002563"><ele>294.0</ele><time>2026-03-15T12:35:46.999Z</time></trkpt><trkpt lat="45.64019961349192" lon="10.094060221297822"><ele>293.59999999999997</ele><time>2026-03-15T12:35:47.999Z</time></trkpt><trkpt lat="45.640121457559125" lon="10.094078672005834"><ele>293.2</ele><time>2026-03-15T12:35:48.999Z</time></trkpt><trkpt lat="45.64004590228735" lon="10.094115065290518"><ele>292.79999999999995</ele><time>2026-03-15T12:35:49.999Z</time></trkpt><trkpt lat="45.639981595730525" lon="10.094133536205344"><ele>292.4</ele><time>2026-03-15T12:35:50.999Z</time></trkpt><trkpt lat="45.6398458996495" lon="10.094068622075394"><ele>292.0</ele><time>2026-03-15T12:35:52.999Z</time></trkpt><trkpt lat="45.63976174774331" lon="10.09403158384146"><ele>291.6</ele><time>2026-03-15T12:35:53.999Z</time></trkpt><trkpt lat="45.63966667397173" lon="10.093987345440219"><ele>291.2</ele><time>2026-03-15T12:35:54.999Z</time></trkpt><trkpt lat="45.639576259237565" lon="10.093944761158541"><ele>290.8</ele><time>2026-03-15T12:35:55.999Z</time></trkpt><trkpt lat="45.639484667766375" lon="10.093896845179046"><ele>290.4</ele><time>2026-03-15T12:35:56.999Z</time></trkpt><trkpt lat="45.639394209335535" lon="10.093843327507594"><ele>290.0</ele><time>2026-03-15T12:35:57.999Z</time></trkpt><trkpt lat="45.639309953186036" lon="10.093793160717052"><ele>289.6</ele><time>2026-03-15T12:35:58.999Z</time></trkpt><trkpt lat="45.6392221795277" lon="10.093748039125005"><ele>289.2</ele><time>2026-03-15T12:35:59.999Z</time></trkpt><trkpt lat="45.63912699066268" lon="10.093720792504165"><ele>288.8</ele><time>2026-03-15T12:36:00.999Z</time></trkpt><trkpt lat="45.639034728722926" lon="10.093708113271187"><ele>288.4</ele><time>2026-03-15T12:36:01.999Z</time></trkpt><trkpt lat="45.63894274546428" lon="10.093701959542509"><ele>288.0</ele><time>2026-03-15T12:36:02.999Z</time></trkpt><trkpt lat="45.63885975475315" lon="10.093705195289449"><ele>288.0</ele><time>2026-03-15T12:36:03.999Z</time></trkpt><trkpt lat="45.63877934422055" lon="10.09371830650742"><ele>288.0</ele><time>2026-03-15T12:36:04.999Z</time></trkpt><trkpt lat="45.638703214644636" lon="10.093737698707413"><ele>288.0</ele><time>2026-03-15T12:36:05.999Z</time></trkpt><trkpt lat="45.638635016711675" lon="10.093767828893723"><ele>288.0</ele><time>2026-03-15T12:36:06.999Z</time></trkpt><trkpt lat="45.638573534968565" lon="10.09382679439196"><ele>288.0</ele><time>2026-03-15T12:36:08.999Z</time></trkpt><trkpt lat="45.63863184454245" lon="10.093971160582193"><ele>288.0</ele><time>2026-03-15T12:36:11.999Z</time></trkpt><trkpt lat="45.63872084379955" lon="10.094028396462221"><ele>288.0</ele><time>2026-03-15T12:36:12.999Z</time></trkpt><trkpt lat="45.63881324979251" lon="10.094076101758334"><ele>288.0</ele><time>2026-03-15T12:36:13.999Z</time></trkpt><trkpt lat="45.638887255257174" lon="10.094127395914379"><ele>288.0</ele><time>2026-03-15T12:36:14.999Z</time></trkpt><trkpt lat="45.63895133260047" lon="10.094167054939474"><ele>288.0</ele><time>2026-03-15T12:36:15.999Z</time></trkpt><trkpt lat="45.63903278974188" lon="10.094207821098069"><ele>288.0</ele><time>2026-03-15T12:36:16.999Z</time></trkpt><trkpt lat="45.639118610285195" lon="10.094252061601983"><ele>288.0</ele><time>2026-03-15T12:36:17.999Z</time></trkpt><trkpt lat="45.63921027659092" lon="10.094310255984723"><ele>288.8</ele><time>2026-03-15T12:36:18.999Z</time></trkpt><trkpt lat="45.63929210741346" lon="10.094386578486446"><ele>289.6</ele><time>2026-03-15T12:36:19.999Z</time></trkpt><trkpt lat="45.63937966893093" lon="10.094467361778282"><ele>290.4</ele><time>2026-03-15T12:36:20.999Z</time></trkpt><trkpt lat="45.63946787791026" lon="10.094555564523539"><ele>291.2</ele><time>2026-03-15T12:36:21.999Z</time></trkpt><trkpt lat="45.6395540034614" lon="10.094652468441684"><ele>292.0</ele><time>2026-03-15T12:36:22.999Z</time></trkpt><trkpt lat="45.63964057162592" lon="10.094757527169422"><ele>292.0</ele><time>2026-03-15T12:36:23.999Z</time></trkpt><trkpt lat="45.63973145850989" lon="10.094861855787395"><ele>292.0</ele><time>2026-03-15T12:36:24.998Z</time></trkpt><trkpt lat="45.639821232014434" lon="10.094959110342527"><ele>292.0</ele><time>2026-03-15T12:36:25.998Z</time></trkpt><trkpt lat="45.63989422527113" lon="10.095038703979709"><ele>292.0</ele><time>2026-03-15T12:36:26.998Z</time></trkpt><trkpt lat="45.63995213259642" lon="10.095124541665546"><ele>292.0</ele><time>2026-03-15T12:36:27.998Z</time></trkpt><trkpt lat="45.64000797718849" lon="10.095215310624283"><ele>293.6</ele><time>2026-03-15T12:36:28.998Z</time></trkpt><trkpt lat="45.640064170561516" lon="10.095304856733854"><ele>295.2</ele><time>2026-03-15T12:36:29.998Z</time></trkpt><trkpt lat="45.64012622239312" lon="10.0953961698922"><ele>296.8</ele><time>2026-03-15T12:36:30.998Z</time></trkpt><trkpt lat="45.64019167214649" lon="10.09549343676882"><ele>298.4</ele><time>2026-03-15T12:36:31.998Z</time></trkpt><trkpt lat="45.64025407537745" lon="10.095601235954144"><ele>300.0</ele><time>2026-03-15T12:36:32.998Z</time></trkpt><trkpt lat="45.640314437493366" lon="10.095715751698519"><ele>300.6</ele><time>2026-03-15T12:36:33.998Z</time></trkpt><trkpt lat="45.64036923033827" lon="10.095844394067855"><ele>301.2</ele><time>2026-03-15T12:36:34.998Z</time></trkpt><trkpt lat="45.640417847573424" lon="10.095984924694456"><ele>301.8</ele><time>2026-03-15T12:36:35.998Z</time></trkpt><trkpt lat="45.64045882562708" lon="10.096132827534946"><ele>302.4</ele><time>2026-03-15T12:36:36.998Z</time></trkpt><trkpt lat="45.640495923181" lon="10.096273987619611"><ele>303.0</ele><time>2026-03-15T12:36:37.998Z</time></trkpt><trkpt lat="45.64054960517695" lon="10.096424885131194"><ele>303.0</ele><time>2026-03-15T12:36:38.998Z</time></trkpt><trkpt lat="45.64062120110798" lon="10.096564072255687"><ele>303.0</ele><time>2026-03-15T12:36:39.998Z</time></trkpt><trkpt lat="45.640708218754895" lon="10.096689162353433"><ele>303.0</ele><time>2026-03-15T12:36:40.998Z</time></trkpt><trkpt lat="45.640802469702145" lon="10.096805732568805"><ele>303.0</ele><time>2026-03-15T12:36:41.998Z</time></trkpt><trkpt lat="45.64090332344815" lon="10.09692187874444"><ele>304.2</ele><time>2026-03-15T12:36:42.998Z</time></trkpt><trkpt lat="45.64099215874589" lon="10.097021933171035"><ele>305.4</ele><time>2026-03-15T12:36:43.998Z</time></trkpt><trkpt lat="45.641059303030524" lon="10.097130134670028"><ele>306.59999999999997</ele><time>2026-03-15T12:36:44.998Z</time></trkpt><trkpt lat="45.64111957546169" lon="10.097262456037873"><ele>307.8</ele><time>2026-03-15T12:36:45.998Z</time></trkpt><trkpt lat="45.641178351574936" lon="10.097412073671599"><ele>309.0</ele><time>2026-03-15T12:36:46.998Z</time></trkpt><trkpt lat="45.641221743986264" lon="10.097569405437799"><ele>310.0</ele><time>2026-03-15T12:36:47.998Z</time></trkpt><trkpt lat="45.641243428223454" lon="10.097709535915696"><ele>311.0</ele><time>2026-03-15T12:36:48.998Z</time></trkpt><trkpt lat="45.641281007306524" lon="10.097829159155857"><ele>312.0</ele><time>2026-03-15T12:36:49.998Z</time></trkpt><trkpt lat="45.64134131236196" lon="10.097930749058355"><ele>313.0</ele><time>2026-03-15T12:36:50.998Z</time></trkpt><trkpt lat="45.6414115441152" lon="10.098002966170343"><ele>314.0</ele><time>2026-03-15T12:36:51.998Z</time></trkpt><trkpt lat="45.64149770853066" lon="10.098064233356045"><ele>314.0</ele><time>2026-03-15T12:36:52.998Z</time></trkpt><trkpt lat="45.641593842673856" lon="10.098111407586762"><ele>314.0</ele><time>2026-03-15T12:36:53.998Z</time></trkpt><trkpt lat="45.64168788427219" lon="10.09814728852147"><ele>314.0</ele><time>2026-03-15T12:36:54.998Z</time></trkpt><trkpt lat="45.64176622102449" lon="10.098172933559663"><ele>314.0</ele><time>2026-03-15T12:36:55.998Z</time></trkpt><trkpt lat="45.64184667494954" lon="10.09818188407218"><ele>314.0</ele><time>2026-03-15T12:36:56.998Z</time></trkpt><trkpt lat="45.641950847944486" lon="10.098176589560662"><ele>314.4</ele><time>2026-03-15T12:36:57.998Z</time></trkpt><trkpt lat="45.64204731501568" lon="10.098158037378925"><ele>314.79999999999995</ele><time>2026-03-15T12:36:58.998Z</time></trkpt><trkpt lat="45.642156529275184" lon="10.098129613115185"><ele>315.20000000000005</ele><time>2026-03-15T12:36:59.998Z</time></trkpt><trkpt lat="45.64227530681947" lon="10.09809841094804"><ele>315.6</ele><time>2026-03-15T12:37:00.998Z</time></trkpt><trkpt lat="45.642383752744074" lon="10.098071040409778"><ele>316.0</ele><time>2026-03-15T12:37:01.998Z</time></trkpt><trkpt lat="45.642483327968954" lon="10.098037720162669"><ele>316.0</ele><time>2026-03-15T12:37:02.998Z</time></trkpt><trkpt lat="45.642580571687404" lon="10.098004793494402"><ele>316.0</ele><time>2026-03-15T12:37:03.998Z</time></trkpt><trkpt lat="45.64269224006518" lon="10.097984622378045"><ele>316.0</ele><time>2026-03-15T12:37:04.998Z</time></trkpt><trkpt lat="45.64281357811444" lon="10.098002456528775"><ele>316.0</ele><time>2026-03-15T12:37:05.998Z</time></trkpt><trkpt lat="45.642926827832284" lon="10.098051037243092"><ele>316.5</ele><time>2026-03-15T12:37:06.998Z</time></trkpt><trkpt lat="45.643029574556245" lon="10.098099806831472"><ele>317.0</ele><time>2026-03-15T12:37:07.998Z</time></trkpt><trkpt lat="45.64311898446851" lon="10.098122808614837"><ele>317.5</ele><time>2026-03-15T12:37:08.997Z</time></trkpt><trkpt lat="45.64319029341157" lon="10.098177258262186"><ele>318.0</ele><time>2026-03-15T12:37:09.997Z</time></trkpt><trkpt lat="45.64322387689187" lon="10.098276011046432"><ele>318.5</ele><time>2026-03-15T12:37:10.997Z</time></trkpt><trkpt lat="45.64321913083924" lon="10.098377820679406"><ele>319.0</ele><time>2026-03-15T12:37:11.997Z</time></trkpt><trkpt lat="45.64317373924732" lon="10.098461555729344"><ele>320.79999999999995</ele><time>2026-03-15T12:37:12.997Z</time></trkpt><trkpt lat="45.64311765891849" lon="10.098555278025074"><ele>322.59999999999997</ele><time>2026-03-15T12:37:13.997Z</time></trkpt><trkpt lat="45.643060856093" lon="10.09866569313983"><ele>324.4</ele><time>2026-03-15T12:37:14.997Z</time></trkpt><trkpt lat="45.64300100546208" lon="10.098779778176288"><ele>326.2</ele><time>2026-03-15T12:37:16Z</time></trkpt><trkpt lat="45.642939393768096" lon="10.098903299038309"><ele>328.0</ele><time>2026-03-15T12:37:17Z</time></trkpt><trkpt lat="45.64286715270881" lon="10.098997760215969"><ele>327.59999999999997</ele><time>2026-03-15T12:37:18Z</time></trkpt><trkpt lat="45.64279140631371" lon="10.09908510493454"><ele>327.2</ele><time>2026-03-15T12:37:19Z</time></trkpt><trkpt lat="45.64269696539558" lon="10.099165296165758"><ele>326.8</ele><time>2026-03-15T12:37:20Z</time></trkpt><trkpt lat="45.642587690323154" lon="10.099257034045303"><ele>326.4</ele><time>2026-03-15T12:37:21Z</time></trkpt><trkpt lat="45.64249539197866" lon="10.099343507527179"><ele>326.0</ele><time>2026-03-15T12:37:22Z</time></trkpt><trkpt lat="45.64242586639706" lon="10.099443442401935"><ele>326.0</ele><time>2026-03-15T12:37:23Z</time></trkpt><trkpt lat="45.642376412663296" lon="10.099546970051952"><ele>326.0</ele><time>2026-03-15T12:37:24Z</time></trkpt><trkpt lat="45.64236814648947" lon="10.099659976435536"><ele>326.0</ele><time>2026-03-15T12:37:25Z</time></trkpt><trkpt lat="45.64239604477592" lon="10.099788257685228"><ele>326.0</ele><time>2026-03-15T12:37:26Z</time></trkpt><trkpt lat="45.642451327697316" lon="10.099920743538581"><ele>326.0</ele><time>2026-03-15T12:37:27Z</time></trkpt><trkpt lat="45.642516210614296" lon="10.10003481671113"><ele>327.0</ele><time>2026-03-15T12:37:28Z</time></trkpt><trkpt lat="45.642561205305086" lon="10.100106788006162"><ele>328.0</ele><time>2026-03-15T12:37:29Z</time></trkpt><trkpt lat="45.642615384549956" lon="10.10017917719666"><ele>329.0</ele><time>2026-03-15T12:37:36Z</time></trkpt><trkpt lat="45.64251337073494" lon="10.100280928527509"><ele>330.0</ele><time>2026-03-15T12:37:39Z</time></trkpt><trkpt lat="45.64241603795777" lon="10.100352544476399"><ele>331.0</ele><time>2026-03-15T12:37:41Z</time></trkpt><trkpt lat="45.64230426386193" lon="10.100423802239863"><ele>331.0</ele><time>2026-03-15T12:37:43Z</time></trkpt><trkpt lat="45.64224231223151" lon="10.100454505791491"><ele>331.0</ele><time>2026-03-15T12:37:44Z</time></trkpt><trkpt lat="45.64216886027074" lon="10.100494870454215"><ele>331.0</ele><time>2026-03-15T12:37:45Z</time></trkpt><trkpt lat="45.64208884038757" lon="10.100557407534923"><ele>331.0</ele><time>2026-03-15T12:37:46Z</time></trkpt><trkpt lat="45.642014066664174" lon="10.10064644581507"><ele>331.0</ele><time>2026-03-15T12:37:47Z</time></trkpt><trkpt lat="45.6419408189278" lon="10.100723697177978"><ele>331.0</ele><time>2026-03-15T12:37:48Z</time></trkpt><trkpt lat="45.64187084000577" lon="10.100779472707233"><ele>329.0</ele><time>2026-03-15T12:37:49Z</time></trkpt><trkpt lat="45.64179992412156" lon="10.10080420938933"><ele>327.0</ele><time>2026-03-15T12:37:50Z</time></trkpt><trkpt lat="45.64171857050587" lon="10.100804212197978"><ele>325.0</ele><time>2026-03-15T12:37:51Z</time></trkpt><trkpt lat="45.64160340509882" lon="10.10078206202491"><ele>323.0</ele><time>2026-03-15T12:37:52Z</time></trkpt><trkpt lat="45.641489521064635" lon="10.100754232297456"><ele>321.0</ele><time>2026-03-15T12:37:53Z</time></trkpt><trkpt lat="45.64140134167759" lon="10.100730407565269"><ele>321.0</ele><time>2026-03-15T12:37:54Z</time></trkpt><trkpt lat="45.641330684567905" lon="10.10070797855815"><ele>321.0</ele><time>2026-03-15T12:37:55Z</time></trkpt><trkpt lat="45.64123853089625" lon="10.100676477713284"><ele>321.0</ele><time>2026-03-15T12:37:57Z</time></trkpt><trkpt lat="45.641448987039524" lon="10.101080770143726"><ele>320.5</ele><time>2026-03-15T12:38:15.999Z</time></trkpt><trkpt lat="45.64150647747146" lon="10.101155590104858"><ele>320.0</ele><time>2026-03-15T12:38:16.999Z</time></trkpt><trkpt lat="45.641560887371874" lon="10.101225342310746"><ele>319.5</ele><time>2026-03-15T12:38:17.999Z</time></trkpt><trkpt lat="45.64162564935624" lon="10.101287010070264"><ele>319.0</ele><time>2026-03-15T12:38:18.999Z</time></trkpt><trkpt lat="45.641693303198714" lon="10.101330626804875"><ele>318.5</ele><time>2026-03-15T12:38:19.999Z</time></trkpt><trkpt lat="45.641753743053776" lon="10.101377685845286"><ele>318.0</ele><time>2026-03-15T12:38:20.999Z</time></trkpt><trkpt lat="45.641833881072195" lon="10.101417687926592"><ele>318.0</ele><time>2026-03-15T12:38:21.999Z</time></trkpt><trkpt lat="45.64191235136841" lon="10.101453568178654"><ele>318.0</ele><time>2026-03-15T12:38:22.999Z</time></trkpt><trkpt lat="45.641984302705225" lon="10.101497399963682"><ele>318.0</ele><time>2026-03-15T12:38:23.999Z</time></trkpt><trkpt lat="45.6420421741798" lon="10.101575655721195"><ele>318.0</ele><time>2026-03-15T12:38:24.999Z</time></trkpt><trkpt lat="45.64208882545522" lon="10.101639783822064"><ele>318.0</ele><time>2026-03-15T12:38:25.999Z</time></trkpt><trkpt lat="45.64215573081649" lon="10.101715976262259"><ele>318.0</ele><time>2026-03-15T12:38:26.999Z</time></trkpt><trkpt lat="45.64221285320859" lon="10.101786644669511"><ele>323.0</ele><time>2026-03-15T12:38:27.999Z</time></trkpt><trkpt lat="45.64230956475715" lon="10.101906290410867"><ele>328.0</ele><time>2026-03-15T12:38:29.999Z</time></trkpt><trkpt lat="45.642450896567524" lon="10.10183639197812"><ele>333.0</ele><time>2026-03-15T12:38:30.999Z</time></trkpt><trkpt lat="45.64252089979342" lon="10.101876202661808"><ele>338.0</ele><time>2026-03-15T12:38:31.999Z</time></trkpt><trkpt lat="45.642633296317996" lon="10.101904351393687"><ele>338.0</ele><time>2026-03-15T12:38:33.999Z</time></trkpt><trkpt lat="45.64269676311719" lon="10.101918106090357"><ele>338.0</ele><time>2026-03-15T12:38:34.999Z</time></trkpt><trkpt lat="45.64277826029736" lon="10.10192131833503"><ele>338.0</ele><time>2026-03-15T12:38:35.999Z</time></trkpt><trkpt lat="45.64285358381662" lon="10.101922768825489"><ele>338.0</ele><time>2026-03-15T12:38:36.999Z</time></trkpt><trkpt lat="45.64291881165151" lon="10.101929550797237"><ele>338.0</ele><time>2026-03-15T12:38:37.999Z</time></trkpt><trkpt lat="45.64298820536593" lon="10.101932315713984"><ele>338.0</ele><time>2026-03-15T12:38:38.999Z</time></trkpt><trkpt lat="45.64305252900972" lon="10.101953133267301"><ele>338.0</ele><time>2026-03-15T12:38:39.999Z</time></trkpt><trkpt lat="45.64311953147286" lon="10.101976044939226"><ele>338.6666666666667</ele><time>2026-03-15T12:38:40.999Z</time></trkpt><trkpt lat="45.64319457803406" lon="10.101986754361603"><ele>339.33333333333337</ele><time>2026-03-15T12:38:41.999Z</time></trkpt><trkpt lat="45.64326346028215" lon="10.101987471692421"><ele>340.0</ele><time>2026-03-15T12:38:42.999Z</time></trkpt><trkpt lat="45.64336446507952" lon="10.101979849601925"><ele>340.6666666666667</ele><time>2026-03-15T12:38:44.998Z</time></trkpt><trkpt lat="45.64342174667002" lon="10.101878274248214"><ele>341.3333333333333</ele><time>2026-03-15T12:38:46.997Z</time></trkpt><trkpt lat="45.643511345924054" lon="10.101794624467605"><ele>342.0</ele><time>2026-03-15T12:38:48.997Z</time></trkpt><trkpt lat="45.64362531186811" lon="10.10176198468023"><ele>344.3333333333333</ele><time>2026-03-15T12:38:50.997Z</time></trkpt><trkpt lat="45.64372923747962" lon="10.101753285442795"><ele>346.6666666666667</ele><time>2026-03-15T12:38:52.997Z</time></trkpt><trkpt lat="45.64381417788778" lon="10.101764049393418"><ele>349.0</ele><time>2026-03-15T12:38:54.997Z</time></trkpt><trkpt lat="45.64389607943206" lon="10.101804148498132"><ele>351.33333333333337</ele><time>2026-03-15T12:38:56.997Z</time></trkpt><trkpt lat="45.643975971889255" lon="10.1018532313981"><ele>353.6666666666667</ele><time>2026-03-15T12:38:58.997Z</time></trkpt><trkpt lat="45.644053641594695" lon="10.101841379302643"><ele>356.0</ele><time>2026-03-15T12:39:00.997Z</time></trkpt><trkpt lat="45.64415325843313" lon="10.101848930482921"><ele>356.0</ele><time>2026-03-15T12:39:03.997Z</time></trkpt><trkpt lat="45.64426178896667" lon="10.10186767802531"><ele>356.0</ele><time>2026-03-15T12:39:05.997Z</time></trkpt><trkpt lat="45.64432908639426" lon="10.101931935488217"><ele>356.0</ele><time>2026-03-15T12:39:07.997Z</time></trkpt><trkpt lat="45.644406663239636" lon="10.102016360282379"><ele>356.0</ele><time>2026-03-15T12:39:09.997Z</time></trkpt><trkpt lat="45.64447180883931" lon="10.102113627080188"><ele>356.0</ele><time>2026-03-15T12:39:11.997Z</time></trkpt><trkpt lat="45.64453350807109" lon="10.10216857581897"><ele>359.6666666666667</ele><time>2026-03-15T12:39:13.997Z</time></trkpt><trkpt lat="45.64465845626989" lon="10.102104813481086"><ele>363.33333333333337</ele><time>2026-03-15T12:39:15.997Z</time></trkpt><trkpt lat="45.64475340583346" lon="10.102140156629565"><ele>367.0</ele><time>2026-03-15T12:39:17.997Z</time></trkpt><trkpt lat="45.644820491286225" lon="10.102190995390549"><ele>370.6666666666667</ele><time>2026-03-15T12:39:20.997Z</time></trkpt><trkpt lat="45.64488461565304" lon="10.102205987919344"><ele>374.3333333333333</ele><time>2026-03-15T12:39:36.999Z</time></trkpt><trkpt lat="45.644958383480535" lon="10.102219676554892"><ele>378.0</ele><time>2026-03-15T12:39:38.999Z</time></trkpt><trkpt lat="45.64504170466839" lon="10.10220690136215"><ele>378.0</ele><time>2026-03-15T12:40:59.998Z</time></trkpt><trkpt lat="45.6449802661154" lon="10.102240231424226"><ele>378.0</ele><time>2026-03-15T12:41:07.997Z</time></trkpt><trkpt lat="45.644885987248564" lon="10.102241435133964"><ele>378.0</ele><time>2026-03-15T12:41:11.997Z</time></trkpt><trkpt lat="45.64481235742302" lon="10.10220686375079"><ele>378.0</ele><time>2026-03-15T12:41:13.997Z</time></trkpt><trkpt lat="45.64474542344906" lon="10.102177194420793"><ele>378.0</ele><time>2026-03-15T12:41:15.997Z</time></trkpt><trkpt lat="45.64467144407095" lon="10.102137205724754"><ele>378.0</ele><time>2026-03-15T12:41:17.997Z</time></trkpt><trkpt lat="45.6446055429308" lon="10.102119343081158"><ele>378.0</ele><time>2026-03-15T12:41:19.997Z</time></trkpt><trkpt lat="45.64453589934231" lon="10.10213344116133"><ele>378.0</ele><time>2026-03-15T12:41:21.997Z</time></trkpt><trkpt lat="45.6444708893085" lon="10.102140739811643"><ele>378.0</ele><time>2026-03-15T12:41:24.997Z</time></trkpt><trkpt lat="45.64442579501751" lon="10.10206983964216"><ele>378.0</ele><time>2026-03-15T12:41:26.997Z</time></trkpt><trkpt lat="45.64436620514066" lon="10.101992128924039"><ele>378.0</ele><time>2026-03-15T12:41:29Z</time></trkpt><trkpt lat="45.644284752912434" lon="10.10191807679279"><ele>378.0</ele><time>2026-03-15T12:41:31Z</time></trkpt><trkpt lat="45.644197926149474" lon="10.101854772104511"><ele>374.3333333333333</ele><time>2026-03-15T12:41:33Z</time></trkpt><trkpt lat="45.6440976920215" lon="10.101857688585891"><ele>370.6666666666667</ele><time>2026-03-15T12:41:35Z</time></trkpt><trkpt lat="45.64402701928436" lon="10.101856259963736"><ele>367.0</ele><time>2026-03-15T12:41:36Z</time></trkpt><trkpt lat="45.64396156014958" lon="10.101847055639228"><ele>363.33333333333337</ele><time>2026-03-15T12:41:37Z</time></trkpt><trkpt lat="45.643862939977176" lon="10.101833015661333"><ele>359.6666666666667</ele><time>2026-03-15T12:41:39Z</time></trkpt><trkpt lat="45.64378181933542" lon="10.101775548697727"><ele>356.0</ele><time>2026-03-15T12:41:41Z</time></trkpt><trkpt lat="45.64368737966641" lon="10.101772650378571"><ele>353.20000000000005</ele><time>2026-03-15T12:41:43Z</time></trkpt><trkpt lat="45.6435876395701" lon="10.101779483638706"><ele>350.40000000000003</ele><time>2026-03-15T12:41:45Z</time></trkpt><trkpt lat="45.643503274918885" lon="10.101811567678135"><ele>347.6</ele><time>2026-03-15T12:41:47Z</time></trkpt><trkpt lat="45.64343001211517" lon="10.101880118847651"><ele>344.8</ele><time>2026-03-15T12:41:49Z</time></trkpt><trkpt lat="45.64335857770835" lon="10.101961821210386"><ele>342.0</ele><time>2026-03-15T12:41:52Z</time></trkpt><trkpt lat="45.6432776431627" lon="10.102007309900584"><ele>342.0</ele><time>2026-03-15T12:41:54Z</time></trkpt><trkpt lat="45.64314308540334" lon="10.101974625361809"><ele>342.0</ele><time>2026-03-15T12:41:56Z</time></trkpt><trkpt lat="45.6430644933136" lon="10.101955033180962"><ele>342.0</ele><time>2026-03-15T12:41:56.999Z</time></trkpt><trkpt lat="45.64298302627514" lon="10.101930768383966"><ele>342.0</ele><time>2026-03-15T12:41:57.999Z</time></trkpt><trkpt lat="45.64283940725344" lon="10.101919069102895"><ele>342.0</ele><time>2026-03-15T12:42:00.999Z</time></trkpt><trkpt lat="45.64276512764376" lon="10.10191828725405"><ele>341.20000000000005</ele><time>2026-03-15T12:42:01.999Z</time></trkpt><trkpt lat="45.64264420318804" lon="10.101906456905455"><ele>340.4</ele><time>2026-03-15T12:42:03.999Z</time></trkpt><trkpt lat="45.64257709279977" lon="10.101891340714317"><ele>339.6</ele><time>2026-03-15T12:42:04.999Z</time></trkpt><trkpt lat="45.64247340557671" lon="10.101870795558899"><ele>338.79999999999995</ele><time>2026-03-15T12:42:06.999Z</time></trkpt><trkpt lat="45.64237771309466" lon="10.101804851332632"><ele>338.0</ele><time>2026-03-15T12:42:08.999Z</time></trkpt><trkpt lat="45.642300453974656" lon="10.101776596971586"><ele>338.0</ele><time>2026-03-15T12:42:10.999Z</time></trkpt><trkpt lat="45.642215032755054" lon="10.101737752589182"><ele>338.0</ele><time>2026-03-15T12:42:12.999Z</time></trkpt><trkpt lat="45.64211491627036" lon="10.101685481022544"><ele>338.0</ele><time>2026-03-15T12:42:14.999Z</time></trkpt><trkpt lat="45.6420311324693" lon="10.101587263319518"><ele>338.0</ele><time>2026-03-15T12:42:16.999Z</time></trkpt><trkpt lat="45.64194701946151" lon="10.101480235289289"><ele>338.0</ele><time>2026-03-15T12:42:18.999Z</time></trkpt><trkpt lat="45.64184583049664" lon="10.101395756683166"><ele>335.14285714285717</ele><time>2026-03-15T12:42:20.999Z</time></trkpt><trkpt lat="45.64178042355302" lon="10.101362531374548"><ele>332.2857142857143</ele><time>2026-03-15T12:42:21.999Z</time></trkpt><trkpt lat="45.64170296347792" lon="10.101330174475786"><ele>329.42857142857144</ele><time>2026-03-15T12:42:22.999Z</time></trkpt><trkpt lat="45.64164222510785" lon="10.10129669439838"><ele>326.57142857142856</ele><time>2026-03-15T12:42:23.999Z</time></trkpt><trkpt lat="45.64157989660394" lon="10.101246835406528"><ele>323.7142857142857</ele><time>2026-03-15T12:42:24.999Z</time></trkpt><trkpt lat="45.64152366723359" lon="10.101188603447671"><ele>320.85714285714283</ele><time>2026-03-15T12:42:25.999Z</time></trkpt><trkpt lat="45.64147475236608" lon="10.10112735614277"><ele>318.0</ele><time>2026-03-15T12:42:26.999Z</time></trkpt><trkpt lat="45.641397097787895" lon="10.101005482213475"><ele>318.0</ele><time>2026-03-15T12:42:28.999Z</time></trkpt><trkpt lat="45.641323106596985" lon="10.100894385236394"><ele>318.0</ele><time>2026-03-15T12:42:30.999Z</time></trkpt><trkpt lat="45.6412572645531" lon="10.100799033165877"><ele>318.0</ele><time>2026-03-15T12:42:32.999Z</time></trkpt><trkpt lat="45.64121021538468" lon="10.100734472094693"><ele>318.0</ele><time>2026-03-15T12:43:19.998Z</time></trkpt><trkpt lat="45.64127639415774" lon="10.100769194754971"><ele>318.0</ele><time>2026-03-15T12:43:56Z</time></trkpt><trkpt lat="45.64121243341529" lon="10.10074461860726"><ele>318.0</ele><time>2026-03-15T12:46:47.998Z</time></trkpt><trkpt lat="45.641360635894365" lon="10.100770632497001"><ele>318.0</ele><time>2026-03-15T12:48:04.999Z</time></trkpt><trkpt lat="45.641474828981764" lon="10.100802995638707"><ele>318.0</ele><time>2026-03-15T12:48:05.999Z</time></trkpt><trkpt lat="45.64160025264067" lon="10.100827659691884"><ele>318.0</ele><time>2026-03-15T12:48:06.999Z</time></trkpt><trkpt lat="45.64169960088019" lon="10.100841021590291"><ele>318.0</ele><time>2026-03-15T12:48:07.999Z</time></trkpt><trkpt lat="45.64177816456327" lon="10.100855150339912"><ele>318.0</ele><time>2026-03-15T12:48:08.999Z</time></trkpt><trkpt lat="45.641848309468536" lon="10.100844953076107"><ele>318.0</ele><time>2026-03-15T12:48:09.999Z</time></trkpt><trkpt lat="45.64192403824903" lon="10.100796375325988"><ele>318.0</ele><time>2026-03-15T12:48:10.999Z</time></trkpt><trkpt lat="45.64202103491521" lon="10.100702252494491"><ele>318.0</ele><time>2026-03-15T12:48:11.999Z</time></trkpt><trkpt lat="45.642144439332284" lon="10.100572620784778"><ele>318.0</ele><time>2026-03-15T12:48:12.999Z</time></trkpt><trkpt lat="45.64229351209368" lon="10.100482413492388"><ele>320.6</ele><time>2026-03-15T12:48:13.999Z</time></trkpt><trkpt lat="45.642413573263596" lon="10.100394854359521"><ele>323.20000000000005</ele><time>2026-03-15T12:48:14.999Z</time></trkpt><trkpt lat="45.64250974668644" lon="10.10034352527106"><ele>325.8</ele><time>2026-03-15T12:48:15.999Z</time></trkpt><trkpt lat="45.64257153672051" lon="10.100273621176568"><ele>328.40000000000003</ele><time>2026-03-15T12:48:16.999Z</time></trkpt><trkpt lat="45.64262421114757" lon="10.100192914679301"><ele>331.0</ele><time>2026-03-15T12:48:17.999Z</time></trkpt><trkpt lat="45.64268074025961" lon="10.100121665079383"><ele>331.0</ele><time>2026-03-15T12:48:18.999Z</time></trkpt><trkpt lat="45.64275588514904" lon="10.100053954232314"><ele>331.0</ele><time>2026-03-15T12:48:19.999Z</time></trkpt><trkpt lat="45.64281876196919" lon="10.099997405414623"><ele>331.0</ele><time>2026-03-15T12:48:20.999Z</time></trkpt><trkpt lat="45.64288694493673" lon="10.09993040231974"><ele>331.0</ele><time>2026-03-15T12:48:21.999Z</time></trkpt><trkpt lat="45.64295811636175" lon="10.099854307468085"><ele>331.0</ele><time>2026-03-15T12:48:22.999Z</time></trkpt><trkpt lat="45.64303326627759" lon="10.09977277463034"><ele>331.0</ele><time>2026-03-15T12:48:23.999Z</time></trkpt><trkpt lat="45.64311076033022" lon="10.099694559903945"><ele>332.4</ele><time>2026-03-15T12:48:24.999Z</time></trkpt><trkpt lat="45.64319868034817" lon="10.099605545535045"><ele>333.8</ele><time>2026-03-15T12:48:25.999Z</time></trkpt><trkpt lat="45.643292080611" lon="10.099515830149574"><ele>335.2</ele><time>2026-03-15T12:48:26.999Z</time></trkpt><trkpt lat="45.64338999974683" lon="10.099424423777029"><ele>336.59999999999997</ele><time>2026-03-15T12:48:27.999Z</time></trkpt><trkpt lat="45.64348937571099" lon="10.09934964039832"><ele>338.0</ele><time>2026-03-15T12:48:28.999Z</time></trkpt><trkpt lat="45.64358108381839" lon="10.099281426770792"><ele>339.59999999999997</ele><time>2026-03-15T12:48:29.999Z</time></trkpt><trkpt lat="45.64367828922834" lon="10.099212576494303"><ele>341.2</ele><time>2026-03-15T12:48:30.999Z</time></trkpt><trkpt lat="45.6437632683617" lon="10.09913317411689"><ele>342.8</ele><time>2026-03-15T12:48:31.999Z</time></trkpt><trkpt lat="45.64383961230888" lon="10.099054533954835"><ele>344.4</ele><time>2026-03-15T12:48:32.999Z</time></trkpt><trkpt lat="45.64390936689455" lon="10.09898846525022"><ele>346.0</ele><time>2026-03-15T12:48:33.999Z</time></trkpt><trkpt lat="45.6439637040879" lon="10.09893735673998"><ele>346.0</ele><time>2026-03-15T12:48:34.999Z</time></trkpt><trkpt lat="45.644018477563684" lon="10.09888298416205"><ele>346.0</ele><time>2026-03-15T12:48:36.999Z</time></trkpt><trkpt lat="45.64409584929743" lon="10.098812318555227"><ele>346.0</ele><time>2026-03-15T12:49:06.998Z</time></trkpt><trkpt lat="45.64419641637848" lon="10.098742332987115"><ele>346.0</ele><time>2026-03-15T12:49:08.998Z</time></trkpt><trkpt lat="45.644272896704294" lon="10.098732731470717"><ele>346.0</ele><time>2026-03-15T12:49:10.998Z</time></trkpt><trkpt lat="45.64433882664955" lon="10.0986744197926"><ele>346.0</ele><time>2026-03-15T12:49:14.998Z</time></trkpt><trkpt lat="45.64440237364504" lon="10.098635635718221"><ele>346.0</ele><time>2026-03-15T12:49:16.998Z</time></trkpt><trkpt lat="45.644467081696014" lon="10.098566302652763"><ele>346.0</ele><time>2026-03-15T12:49:18.998Z</time></trkpt><trkpt lat="45.64454142969046" lon="10.09851811254744"><ele>346.0</ele><time>2026-03-15T12:49:27.998Z</time></trkpt><trkpt lat="45.64448686598701" lon="10.098576791091826"><ele>346.0</ele><time>2026-03-15T12:50:32.999Z</time></trkpt><trkpt lat="45.64442384549709" lon="10.098621711924693"><ele>346.0</ele><time>2026-03-15T12:50:39.999Z</time></trkpt><trkpt lat="45.64436900572413" lon="10.098666560975886"><ele>346.0</ele><time>2026-03-15T12:50:44.999Z</time></trkpt><trkpt lat="45.64430876914274" lon="10.098715979718415"><ele>346.0</ele><time>2026-03-15T12:50:49.999Z</time></trkpt><trkpt lat="45.644233135268706" lon="10.09869551440871"><ele>346.0</ele><time>2026-03-15T12:51:04.999Z</time></trkpt><trkpt lat="45.64423087307031" lon="10.09859247091343"><ele>346.0</ele><time>2026-03-15T12:51:12.999Z</time></trkpt><trkpt lat="45.64416757933292" lon="10.098579590143537"><ele>346.0</ele><time>2026-03-15T12:51:20.998Z</time></trkpt><trkpt lat="45.644232843585684" lon="10.09865850544207"><ele>346.0</ele><time>2026-03-15T12:51:45.998Z</time></trkpt><trkpt lat="45.64416757066376" lon="10.098633936279056"><ele>346.0</ele><time>2026-03-15T12:52:03Z</time></trkpt><trkpt lat="45.644235140947806" lon="10.098672062497087"><ele>346.0</ele><time>2026-03-15T12:52:07Z</time></trkpt><trkpt lat="45.644300773490244" lon="10.098709746359347"><ele>346.0</ele><time>2026-03-15T12:52:09Z</time></trkpt><trkpt lat="45.64436713225379" lon="10.098900415115171"><ele>346.0</ele><time>2026-03-15T12:52:18Z</time></trkpt><trkpt lat="45.644375713139674" lon="10.099000500036304"><ele>346.0</ele><time>2026-03-15T12:52:20Z</time></trkpt><trkpt lat="45.64457411071403" lon="10.099276153370232"><ele>346.0</ele><time>2026-03-15T12:52:22Z</time></trkpt><trkpt lat="45.64462168991538" lon="10.099374074094069"><ele>346.0</ele><time>2026-03-15T12:52:23Z</time></trkpt><trkpt lat="45.644663373574396" lon="10.099472204397532"><ele>352.20000000000005</ele><time>2026-03-15T12:52:24Z</time></trkpt><trkpt lat="45.64471117558321" lon="10.099575281118769"><ele>358.40000000000003</ele><time>2026-03-15T12:52:25Z</time></trkpt><trkpt lat="45.64476431648403" lon="10.099678223276193"><ele>364.6</ele><time>2026-03-15T12:52:26.068Z</time></trkpt><trkpt lat="45.6447971146027" lon="10.099784896371796"><ele>370.8</ele><time>2026-03-15T12:52:27.072Z</time></trkpt><trkpt lat="45.644826522418064" lon="10.099884432447107"><ele>377.0</ele><time>2026-03-15T12:52:28.068Z</time></trkpt><trkpt lat="45.64460804274538" lon="10.09940489003875"><ele>346.0</ele><time>2026-03-15T12:52:29.073Z</time></trkpt><trkpt lat="45.64420700318469" lon="10.098568591940603"><ele>346.0</ele><time>2026-03-15T12:52:52.939Z</time></trkpt><trkpt lat="45.64442056576735" lon="10.09858676277782"><ele>346.0</ele><time>2026-03-15T12:53:08.688Z</time></trkpt><trkpt lat="45.644335101022975" lon="10.098423892565004"><ele>346.0</ele><time>2026-03-15T12:54:35.014Z</time></trkpt><trkpt lat="45.64430771038722" lon="10.098542645784626"><ele>346.0</ele><time>2026-03-15T12:56:19.019Z</time></trkpt><trkpt lat="45.644409170217" lon="10.09856414006658"><ele>346.0</ele><time>2026-03-15T12:58:24.465Z</time></trkpt><trkpt lat="45.644323576060195" lon="10.098549077269828"><ele>346.0</ele><time>2026-03-15T13:02:27.847Z</time></trkpt><trkpt lat="45.64438661521492" lon="10.098560100287257"><ele>346.0</ele><time>2026-03-15T13:06:58.146Z</time></trkpt><trkpt lat="45.6442437152825" lon="10.098562456562693"><ele>346.0</ele><time>2026-03-15T13:16:58.861Z</time></trkpt><trkpt lat="45.64437270153088" lon="10.09857298462525"><ele>346.0</ele><time>2026-03-15T13:17:13.251Z</time></trkpt><trkpt lat="45.644225509185944" lon="10.098526132362776"><ele>346.0</ele><time>2026-03-15T13:19:26.42Z</time></trkpt><trkpt lat="45.64431767173291" lon="10.098564369927326"><ele>346.0</ele><time>2026-03-15T13:21:00.722Z</time></trkpt><trkpt lat="45.64440860121294" lon="10.098568932385595"><ele>346.0</ele><time>2026-03-15T13:24:43.853Z</time></trkpt><trkpt lat="45.644311275346205" lon="10.098545462778315"><ele>346.0</ele><time>2026-03-15T13:36:39.672Z</time></trkpt><trkpt lat="45.64439536023542" lon="10.098576522304173"><ele>346.0</ele><time>2026-03-15T13:41:27.958Z</time></trkpt><trkpt lat="45.64431485427092" lon="10.098552971657494"><ele>346.0</ele><time>2026-03-15T13:51:25.199Z</time></trkpt><trkpt lat="45.644381297248536" lon="10.098578041072544"><ele>346.0</ele><time>2026-03-15T14:00:01.076Z</time></trkpt><trkpt lat="45.644499175783636" lon="10.098515206250164"><ele>346.0</ele><time>2026-03-15T14:02:25.676Z</time></trkpt><trkpt lat="45.64456578857842" lon="10.098414421837857"><ele>346.0</ele><time>2026-03-15T14:02:31.958Z</time></trkpt><trkpt lat="45.64451641171714" lon="10.09847537612326"><ele>346.0</ele><time>2026-03-15T14:02:51.003Z</time></trkpt><trkpt lat="45.64455845934814" lon="10.098548494531935"><ele>346.0</ele><time>2026-03-15T14:10:46.998Z</time></trkpt><trkpt lat="45.64453350728245" lon="10.09843373604864"><ele>346.0</ele><time>2026-03-15T14:11:04.998Z</time></trkpt><trkpt lat="45.644462790968866" lon="10.098503579543284"><ele>346.0</ele><time>2026-03-15T14:11:08.001Z</time></trkpt><trkpt lat="45.64440812721662" lon="10.098569093235621"><ele>346.0</ele><time>2026-03-15T14:11:10Z</time></trkpt><trkpt lat="45.64436188714004" lon="10.098635376673565"><ele>346.0</ele><time>2026-03-15T14:11:12Z</time></trkpt><trkpt lat="45.64429992739697" lon="10.098683251203958"><ele>346.0</ele><time>2026-03-15T14:11:13.999Z</time></trkpt><trkpt lat="45.644197854957135" lon="10.098724677176966"><ele>346.0</ele><time>2026-03-15T14:11:15.999Z</time></trkpt><trkpt lat="45.64406977553266" lon="10.098780323592464"><ele>346.0</ele><time>2026-03-15T14:11:18Z</time></trkpt><trkpt lat="45.6440019977267" lon="10.098833545834104"><ele>346.0</ele><time>2026-03-15T14:11:19Z</time></trkpt><trkpt lat="45.64393972084899" lon="10.098893886554862"><ele>346.0</ele><time>2026-03-15T14:11:20Z</time></trkpt><trkpt lat="45.64386277745916" lon="10.09897170551979"><ele>346.0</ele><time>2026-03-15T14:11:21Z</time></trkpt><trkpt lat="45.64377761413798" lon="10.099055095688476"><ele>346.0</ele><time>2026-03-15T14:11:22Z</time></trkpt><trkpt lat="45.64369223214324" lon="10.099133918090734"><ele>344.4</ele><time>2026-03-15T14:11:23Z</time></trkpt><trkpt lat="45.64361430996537" lon="10.09919705090305"><ele>342.8</ele><time>2026-03-15T14:11:23.999Z</time></trkpt><trkpt lat="45.64353402275001" lon="10.09925516598902"><ele>341.2</ele><time>2026-03-15T14:11:24.999Z</time></trkpt><trkpt lat="45.643465847749006" lon="10.099333646937238"><ele>339.59999999999997</ele><time>2026-03-15T14:11:25.999Z</time></trkpt><trkpt lat="45.64336758451823" lon="10.09941727236295"><ele>338.0</ele><time>2026-03-15T14:11:26.999Z</time></trkpt><trkpt lat="45.643268544335605" lon="10.099479404019329"><ele>338.0</ele><time>2026-03-15T14:11:27.999Z</time></trkpt><trkpt lat="45.64318862905993" lon="10.099558916592494"><ele>338.0</ele><time>2026-03-15T14:11:28.999Z</time></trkpt><trkpt lat="45.643117774002405" lon="10.099632396048392"><ele>338.0</ele><time>2026-03-15T14:11:29.999Z</time></trkpt><trkpt lat="45.64304361856971" lon="10.09970929784823"><ele>338.0</ele><time>2026-03-15T14:11:30.999Z</time></trkpt><trkpt lat="45.64295936783498" lon="10.099796668958309"><ele>338.0</ele><time>2026-03-15T14:11:31.999Z</time></trkpt><trkpt lat="45.64287819389727" lon="10.099881864132493"><ele>336.83333333333337</ele><time>2026-03-15T14:11:32.999Z</time></trkpt><trkpt lat="45.6428047872844" lon="10.09995893387311"><ele>335.6666666666667</ele><time>2026-03-15T14:11:33.999Z</time></trkpt><trkpt lat="45.642745673404455" lon="10.100020505057799"><ele>334.5</ele><time>2026-03-15T14:11:34.999Z</time></trkpt><trkpt lat="45.642701878621295" lon="10.100091087595272"><ele>333.3333333333333</ele><time>2026-03-15T14:11:35.999Z</time></trkpt><trkpt lat="45.642636530160935" lon="10.100101158881651"><ele>332.16666666666663</ele><time>2026-03-15T14:11:36.999Z</time></trkpt><trkpt lat="45.64253494805754" lon="10.09994722333089"><ele>331.0</ele><time>2026-03-15T14:11:38.999Z</time></trkpt><trkpt lat="45.64246966911448" lon="10.099841288903786"><ele>330.0</ele><time>2026-03-15T14:11:39.999Z</time></trkpt><trkpt lat="45.642422203389785" lon="10.09970740802058"><ele>329.0</ele><time>2026-03-15T14:11:40.999Z</time></trkpt><trkpt lat="45.64240001806928" lon="10.099578769097368"><ele>328.0</ele><time>2026-03-15T14:11:41.999Z</time></trkpt><trkpt lat="45.64242412842592" lon="10.099460143043947"><ele>327.0</ele><time>2026-03-15T14:11:42.999Z</time></trkpt><trkpt lat="45.64250789682973" lon="10.099385911869032"><ele>326.0</ele><time>2026-03-15T14:11:43.999Z</time></trkpt><trkpt lat="45.64258650727695" lon="10.099286640792043"><ele>326.0</ele><time>2026-03-15T14:11:44.999Z</time></trkpt><trkpt lat="45.642687129966525" lon="10.099219430926146"><ele>326.0</ele><time>2026-03-15T14:11:45.999Z</time></trkpt><trkpt lat="45.642771884464615" lon="10.099151351228032"><ele>326.0</ele><time>2026-03-15T14:11:46.999Z</time></trkpt><trkpt lat="45.64284169627517" lon="10.09908670910081"><ele>326.0</ele><time>2026-03-15T14:11:47.999Z</time></trkpt><trkpt lat="45.64290124992587" lon="10.0990165843443"><ele>326.0</ele><time>2026-03-15T14:11:48.999Z</time></trkpt><trkpt lat="45.64294900714994" lon="10.098930454028464"><ele>326.0</ele><time>2026-03-15T14:11:49.999Z</time></trkpt><trkpt lat="45.64299671335884" lon="10.098818280312189"><ele>326.33333333333337</ele><time>2026-03-15T14:11:50.999Z</time></trkpt><trkpt lat="45.64305212806724" lon="10.098716952456135"><ele>326.6666666666667</ele><time>2026-03-15T14:11:51.999Z</time></trkpt><trkpt lat="45.64309859096954" lon="10.098628763102644"><ele>327.0</ele><time>2026-03-15T14:11:52.999Z</time></trkpt><trkpt lat="45.643151436892516" lon="10.098539873614452"><ele>327.3333333333333</ele><time>2026-03-15T14:11:53.999Z</time></trkpt><trkpt lat="45.64319854561845" lon="10.098444876040226"><ele>327.66666666666663</ele><time>2026-03-15T14:11:54.999Z</time></trkpt><trkpt lat="45.643237191785744" lon="10.098347078730198"><ele>328.0</ele><time>2026-03-15T14:11:55.999Z</time></trkpt><trkpt lat="45.64325491731618" lon="10.098250884762475"><ele>326.2</ele><time>2026-03-15T14:11:56.999Z</time></trkpt><trkpt lat="45.64323057132106" lon="10.098157783873992"><ele>324.4</ele><time>2026-03-15T14:11:57.999Z</time></trkpt><trkpt lat="45.64317332936795" lon="10.098085148744783"><ele>322.59999999999997</ele><time>2026-03-15T14:11:58.999Z</time></trkpt><trkpt lat="45.64307179594723" lon="10.098051649488001"><ele>320.79999999999995</ele><time>2026-03-15T14:11:59.999Z</time></trkpt><trkpt lat="45.64295940167476" lon="10.098029512163485"><ele>319.0</ele><time>2026-03-15T14:12:00.999Z</time></trkpt><trkpt lat="45.64286620032288" lon="10.097996153191424"><ele>318.5</ele><time>2026-03-15T14:12:01.999Z</time></trkpt><trkpt lat="45.64278821377623" lon="10.097970709112513"><ele>318.0</ele><time>2026-03-15T14:12:02.999Z</time></trkpt><trkpt lat="45.64271378111226" lon="10.097957463253183"><ele>317.5</ele><time>2026-03-15T14:12:03.999Z</time></trkpt><trkpt lat="45.642653068953265" lon="10.097931621322113"><ele>317.0</ele><time>2026-03-15T14:12:04.999Z</time></trkpt><trkpt lat="45.642543708321796" lon="10.097974501662728"><ele>316.5</ele><time>2026-03-15T14:12:06.999Z</time></trkpt><trkpt lat="45.64245518566059" lon="10.097989758639805"><ele>316.0</ele><time>2026-03-15T14:12:07.999Z</time></trkpt><trkpt lat="45.64232322413273" lon="10.098028618625388"><ele>316.0</ele><time>2026-03-15T14:12:08.999Z</time></trkpt><trkpt lat="45.642170615731814" lon="10.09806312793535"><ele>316.0</ele><time>2026-03-15T14:12:09.999Z</time></trkpt><trkpt lat="45.64208587042281" lon="10.098101268014572"><ele>316.0</ele><time>2026-03-15T14:12:10.999Z</time></trkpt><trkpt lat="45.64197937109381" lon="10.098122841365186"><ele>316.0</ele><time>2026-03-15T14:12:11.999Z</time></trkpt><trkpt lat="45.64190366587728" lon="10.098116537099282"><ele>316.0</ele><time>2026-03-15T14:12:12.998Z</time></trkpt><trkpt lat="45.641833026233215" lon="10.098114911667846"><ele>315.66666666666663</ele><time>2026-03-15T14:12:13.998Z</time></trkpt><trkpt lat="45.64174579146968" lon="10.098096663963979"><ele>315.3333333333333</ele><time>2026-03-15T14:12:14.998Z</time></trkpt><trkpt lat="45.64166681890668" lon="10.098067116293496"><ele>315.0</ele><time>2026-03-15T14:12:15.998Z</time></trkpt><trkpt lat="45.64158597988822" lon="10.098030533248911"><ele>314.6666666666667</ele><time>2026-03-15T14:12:16.998Z</time></trkpt><trkpt lat="45.64148056385599" lon="10.097974453159186"><ele>314.33333333333337</ele><time>2026-03-15T14:12:17.998Z</time></trkpt><trkpt lat="45.64141382666985" lon="10.097914834588344"><ele>314.0</ele><time>2026-03-15T14:12:18.998Z</time></trkpt><trkpt lat="45.64134196040664" lon="10.097846602913462"><ele>314.0</ele><time>2026-03-15T14:12:19.998Z</time></trkpt><trkpt lat="45.641293711918856" lon="10.097763355450642"><ele>314.0</ele><time>2026-03-15T14:12:20.998Z</time></trkpt><trkpt lat="45.64126934710597" lon="10.097667829776281"><ele>314.0</ele><time>2026-03-15T14:12:21.998Z</time></trkpt><trkpt lat="45.641235650921175" lon="10.097538944687319"><ele>314.0</ele><time>2026-03-15T14:12:22.998Z</time></trkpt><trkpt lat="45.641192637573994" lon="10.09741321850592"><ele>314.0</ele><time>2026-03-15T14:12:23.998Z</time></trkpt><trkpt lat="45.64115965335935" lon="10.097300751551455"><ele>314.0</ele><time>2026-03-15T14:12:24.998Z</time></trkpt><trkpt lat="45.64112741078517" lon="10.097205154172205"><ele>313.0</ele><time>2026-03-15T14:12:25.998Z</time></trkpt><trkpt lat="45.64107345800656" lon="10.097093288884288"><ele>312.0</ele><time>2026-03-15T14:12:26.998Z</time></trkpt><trkpt lat="45.641007523561804" lon="10.096973285908204"><ele>311.0</ele><time>2026-03-15T14:12:27.998Z</time></trkpt><trkpt lat="45.640925419553355" lon="10.096874894306787"><ele>310.0</ele><time>2026-03-15T14:12:28.998Z</time></trkpt><trkpt lat="45.64083963137826" lon="10.096777582826247"><ele>309.0</ele><time>2026-03-15T14:12:29.998Z</time></trkpt><trkpt lat="45.64076258724841" lon="10.096693725622632"><ele>309.0</ele><time>2026-03-15T14:12:30.998Z</time></trkpt><trkpt lat="45.64068606681779" lon="10.096594451773804"><ele>309.0</ele><time>2026-03-15T14:12:31.998Z</time></trkpt><trkpt lat="45.640607448915894" lon="10.096491052841824"><ele>309.0</ele><time>2026-03-15T14:12:32.998Z</time></trkpt><trkpt lat="45.64056033428666" lon="10.096359190692684"><ele>309.0</ele><time>2026-03-15T14:12:33.998Z</time></trkpt><trkpt lat="45.640501823152086" lon="10.096243649714616"><ele>309.0</ele><time>2026-03-15T14:12:34.998Z</time></trkpt><trkpt lat="45.64046478225776" lon="10.09611125797452"><ele>307.5</ele><time>2026-03-15T14:12:35.998Z</time></trkpt><trkpt lat="45.64042344979791" lon="10.095956000498637"><ele>306.0</ele><time>2026-03-15T14:12:36.998Z</time></trkpt><trkpt lat="45.640380148588385" lon="10.095806247458082"><ele>304.5</ele><time>2026-03-15T14:12:37.998Z</time></trkpt><trkpt lat="45.640325837015666" lon="10.095588792432409"><ele>303.0</ele><time>2026-03-15T14:12:38.998Z</time></trkpt><trkpt lat="45.64025937563961" lon="10.095507349163528"><ele>302.75</ele><time>2026-03-15T14:12:39.998Z</time></trkpt><trkpt lat="45.640177913818974" lon="10.095396213260324"><ele>302.5</ele><time>2026-03-15T14:12:40.998Z</time></trkpt><trkpt lat="45.64010437769401" lon="10.095280869822695"><ele>302.25</ele><time>2026-03-15T14:12:41.998Z</time></trkpt><trkpt lat="45.640021595028685" lon="10.09516671462039"><ele>302.0</ele><time>2026-03-15T14:12:42.998Z</time></trkpt><trkpt lat="45.63993760069928" lon="10.095052449566081"><ele>302.0</ele><time>2026-03-15T14:12:43.998Z</time></trkpt><trkpt lat="45.6398585476638" lon="10.094942469478507"><ele>302.0</ele><time>2026-03-15T14:12:44.998Z</time></trkpt><trkpt lat="45.639776686534695" lon="10.094850595362672"><ele>302.0</ele><time>2026-03-15T14:12:45.998Z</time></trkpt><trkpt lat="45.63969141028568" lon="10.094760840171364"><ele>302.0</ele><time>2026-03-15T14:12:46.998Z</time></trkpt><trkpt lat="45.63960709903938" lon="10.094675334370972"><ele>302.0</ele><time>2026-03-15T14:12:47.998Z</time></trkpt><trkpt lat="45.639525351404345" lon="10.094581355677565"><ele>300.5</ele><time>2026-03-15T14:12:48.998Z</time></trkpt><trkpt lat="45.63944335079997" lon="10.094483243210474"><ele>299.0</ele><time>2026-03-15T14:12:49.998Z</time></trkpt><trkpt lat="45.63935378864411" lon="10.094381658157594"><ele>297.5</ele><time>2026-03-15T14:12:50.998Z</time></trkpt><trkpt lat="45.639252550088315" lon="10.094297097992131"><ele>296.0</ele><time>2026-03-15T14:12:51.998Z</time></trkpt><trkpt lat="45.639154086618596" lon="10.094220156637709"><ele>296.0</ele><time>2026-03-15T14:12:52.998Z</time></trkpt><trkpt lat="45.63905546572414" lon="10.094159438043521"><ele>296.0</ele><time>2026-03-15T14:12:53.998Z</time></trkpt><trkpt lat="45.63896004553328" lon="10.094101191859089"><ele>296.0</ele><time>2026-03-15T14:12:54.998Z</time></trkpt><trkpt lat="45.63886549244963" lon="10.094049894258461"><ele>296.0</ele><time>2026-03-15T14:12:55.998Z</time></trkpt><trkpt lat="45.63877904900107" lon="10.093994381977868"><ele>296.0</ele><time>2026-03-15T14:12:56.997Z</time></trkpt><trkpt lat="45.638694241182144" lon="10.093935437038697"><ele>294.40000000000003</ele><time>2026-03-15T14:12:57.997Z</time></trkpt><trkpt lat="45.63862035116578" lon="10.093881789017919"><ele>292.8</ele><time>2026-03-15T14:12:58.997Z</time></trkpt><trkpt lat="45.63852131955651" lon="10.093803185620638"><ele>291.20000000000005</ele><time>2026-03-15T14:12:59.997Z</time></trkpt><trkpt lat="45.63842121597968" lon="10.093732057441528"><ele>289.6</ele><time>2026-03-15T14:13:00.997Z</time></trkpt><trkpt lat="45.63832963015947" lon="10.093671351245348"><ele>288.0</ele><time>2026-03-15T14:13:01.997Z</time></trkpt><trkpt lat="45.6382473861035" lon="10.093626722718966"><ele>288.0</ele><time>2026-03-15T14:13:02.997Z</time></trkpt><trkpt lat="45.63816686886818" lon="10.09359494044278"><ele>288.0</ele><time>2026-03-15T14:13:03.997Z</time></trkpt><trkpt lat="45.638089054898195" lon="10.093553502291567"><ele>288.0</ele><time>2026-03-15T14:13:04.997Z</time></trkpt><trkpt lat="45.638009368787294" lon="10.093525529097183"><ele>288.0</ele><time>2026-03-15T14:13:05.997Z</time></trkpt><trkpt lat="45.63792277361937" lon="10.093490069100877"><ele>288.0</ele><time>2026-03-15T14:13:06.997Z</time></trkpt><trkpt lat="45.63783433156659" lon="10.09346688211246"><ele>288.0</ele><time>2026-03-15T14:13:07.997Z</time></trkpt><trkpt lat="45.63775357382912" lon="10.093443546065036"><ele>287.8333333333333</ele><time>2026-03-15T14:13:08.997Z</time></trkpt><trkpt lat="45.63766400218605" lon="10.093491855371166"><ele>287.6666666666667</ele><time>2026-03-15T14:13:09.997Z</time></trkpt><trkpt lat="45.637587584568216" lon="10.093570319437585"><ele>287.5</ele><time>2026-03-15T14:13:10.997Z</time></trkpt><trkpt lat="45.63751895166915" lon="10.093633885951993"><ele>287.33333333333337</ele><time>2026-03-15T14:13:11.997Z</time></trkpt><trkpt lat="45.6374526685527" lon="10.09370479550161"><ele>287.1666666666667</ele><time>2026-03-15T14:13:12.997Z</time></trkpt><trkpt lat="45.63736609465863" lon="10.093700529112363"><ele>287.0</ele><time>2026-03-15T14:13:14Z</time></trkpt><trkpt lat="45.637277732741744" lon="10.093652048278805"><ele>287.0</ele><time>2026-03-15T14:13:15Z</time></trkpt><trkpt lat="45.637188937499246" lon="10.093606500789448"><ele>287.0</ele><time>2026-03-15T14:13:16Z</time></trkpt><trkpt lat="45.63709480803418" lon="10.093561416037788"><ele>287.0</ele><time>2026-03-15T14:13:17Z</time></trkpt><trkpt lat="45.637001100625135" lon="10.093493583512602"><ele>287.0</ele><time>2026-03-15T14:13:18Z</time></trkpt><trkpt lat="45.63692559658305" lon="10.093404856843739"><ele>287.0</ele><time>2026-03-15T14:13:19Z</time></trkpt><trkpt lat="45.63686861640377" lon="10.093293970044215"><ele>285.8</ele><time>2026-03-15T14:13:20Z</time></trkpt><trkpt lat="45.63680705246458" lon="10.093175806782982"><ele>284.6</ele><time>2026-03-15T14:13:21Z</time></trkpt><trkpt lat="45.63673189746278" lon="10.093060750524948"><ele>283.40000000000003</ele><time>2026-03-15T14:13:22Z</time></trkpt><trkpt lat="45.63664939124729" lon="10.092945972178835"><ele>282.2</ele><time>2026-03-15T14:13:23Z</time></trkpt><trkpt lat="45.63655877093051" lon="10.092844440117943"><ele>281.0</ele><time>2026-03-15T14:13:24Z</time></trkpt><trkpt lat="45.63645620659627" lon="10.0927490160589"><ele>281.0</ele><time>2026-03-15T14:13:25Z</time></trkpt><trkpt lat="45.63635833028714" lon="10.09266634655693"><ele>281.0</ele><time>2026-03-15T14:13:26Z</time></trkpt><trkpt lat="45.636266187980254" lon="10.092597494648818"><ele>281.0</ele><time>2026-03-15T14:13:27Z</time></trkpt><trkpt lat="45.63617120390337" lon="10.092545906622917"><ele>281.0</ele><time>2026-03-15T14:13:28Z</time></trkpt><trkpt lat="45.636075184673345" lon="10.092505855432767"><ele>281.0</ele><time>2026-03-15T14:13:29Z</time></trkpt><trkpt lat="45.63596608149693" lon="10.09247059548361"><ele>280.25</ele><time>2026-03-15T14:13:30Z</time></trkpt><trkpt lat="45.635850311396354" lon="10.092415589373406"><ele>279.5</ele><time>2026-03-15T14:13:31Z</time></trkpt><trkpt lat="45.635725173116356" lon="10.092398537306764"><ele>278.75</ele><time>2026-03-15T14:13:32Z</time></trkpt><trkpt lat="45.635616269901064" lon="10.092367241268626"><ele>278.0</ele><time>2026-03-15T14:13:32.999Z</time></trkpt><trkpt lat="45.63549419738958" lon="10.092339934446736"><ele>278.0</ele><time>2026-03-15T14:13:33.999Z</time></trkpt><trkpt lat="45.63536210364511" lon="10.092303784063576"><ele>278.0</ele><time>2026-03-15T14:13:34.999Z</time></trkpt><trkpt lat="45.63522766388599" lon="10.092265832318416"><ele>278.0</ele><time>2026-03-15T14:13:35.999Z</time></trkpt><trkpt lat="45.63509917153988" lon="10.092223651041358"><ele>278.0</ele><time>2026-03-15T14:13:36.999Z</time></trkpt><trkpt lat="45.63497616354934" lon="10.092189866484505"><ele>276.75</ele><time>2026-03-15T14:13:37.999Z</time></trkpt><trkpt lat="45.634851790590965" lon="10.092157106625383"><ele>275.5</ele><time>2026-03-15T14:13:38.999Z</time></trkpt><trkpt lat="45.63472717240814" lon="10.092122512382181"><ele>274.25</ele><time>2026-03-15T14:13:39.999Z</time></trkpt><trkpt lat="45.63459720831116" lon="10.092091072927506"><ele>273.0</ele><time>2026-03-15T14:13:40.999Z</time></trkpt><trkpt lat="45.63447240827067" lon="10.092060338168489"><ele>272.25</ele><time>2026-03-15T14:13:41.999Z</time></trkpt><trkpt lat="45.634353363282266" lon="10.09203290176792"><ele>271.5</ele><time>2026-03-15T14:13:42.999Z</time></trkpt><trkpt lat="45.63423913128157" lon="10.092000922576748"><ele>270.75</ele><time>2026-03-15T14:13:43.999Z</time></trkpt><trkpt lat="45.634117667626256" lon="10.091979217010728"><ele>270.0</ele><time>2026-03-15T14:13:44.999Z</time></trkpt><trkpt lat="45.633989148300195" lon="10.091934342966875"><ele>270.0</ele><time>2026-03-15T14:13:45.999Z</time></trkpt><trkpt lat="45.63385790550521" lon="10.091938809809369"><ele>270.0</ele><time>2026-03-15T14:13:46.999Z</time></trkpt><trkpt lat="45.63374228601724" lon="10.09192534871279"><ele>270.0</ele><time>2026-03-15T14:13:47.999Z</time></trkpt><trkpt lat="45.63362166102053" lon="10.09191751400755"><ele>270.0</ele><time>2026-03-15T14:13:48.999Z</time></trkpt><trkpt lat="45.633491555107625" lon="10.091921800552258"><ele>269.75</ele><time>2026-03-15T14:13:49.999Z</time></trkpt><trkpt lat="45.63336038024599" lon="10.09189847343958"><ele>269.5</ele><time>2026-03-15T14:13:50.999Z</time></trkpt><trkpt lat="45.633224503299466" lon="10.091904188206728"><ele>269.25</ele><time>2026-03-15T14:13:51.999Z</time></trkpt><trkpt lat="45.63310030793986" lon="10.0919125420009"><ele>269.0</ele><time>2026-03-15T14:13:52.999Z</time></trkpt><trkpt lat="45.632985746782" lon="10.091920863935307"><ele>269.0</ele><time>2026-03-15T14:13:53.999Z</time></trkpt><trkpt lat="45.632879930483895" lon="10.091928550620894"><ele>269.0</ele><time>2026-03-15T14:13:54.999Z</time></trkpt><trkpt lat="45.63278161397721" lon="10.091931338404425"><ele>269.0</ele><time>2026-03-15T14:13:55.999Z</time></trkpt><trkpt lat="45.63269059152721" lon="10.091929716794551"><ele>269.0</ele><time>2026-03-15T14:13:56.999Z</time></trkpt><trkpt lat="45.63259838468476" lon="10.091920805819013"><ele>269.0</ele><time>2026-03-15T14:13:57.999Z</time></trkpt><trkpt lat="45.632498613506435" lon="10.09190109517847"><ele>269.0</ele><time>2026-03-15T14:13:58.999Z</time></trkpt><trkpt lat="45.63238797388173" lon="10.091888033323857"><ele>269.0</ele><time>2026-03-15T14:13:59.999Z</time></trkpt><trkpt lat="45.63228499525208" lon="10.091804829040143"><ele>269.0</ele><time>2026-03-15T14:14:00.999Z</time></trkpt><trkpt lat="45.63217633138527" lon="10.091710801119579"><ele>269.0</ele><time>2026-03-15T14:14:01.999Z</time></trkpt><trkpt lat="45.63207017901674" lon="10.091620268504801"><ele>268.5</ele><time>2026-03-15T14:14:02.999Z</time></trkpt><trkpt lat="45.631978435425424" lon="10.091521457599038"><ele>268.0</ele><time>2026-03-15T14:14:03.999Z</time></trkpt><trkpt lat="45.63189506563057" lon="10.09144082044025"><ele>267.5</ele><time>2026-03-15T14:14:04.999Z</time></trkpt><trkpt lat="45.63182780544106" lon="10.091376729038643"><ele>267.0</ele><time>2026-03-15T14:14:05.999Z</time></trkpt><trkpt lat="45.63177319884029" lon="10.091327173109903"><ele>266.5</ele><time>2026-03-15T14:14:06.999Z</time></trkpt><trkpt lat="45.63171446769101" lon="10.091285088645042"><ele>266.0</ele><time>2026-03-15T14:14:08.999Z</time></trkpt><trkpt lat="45.631711498299424" lon="10.09114558167788"><ele>265.6</ele><time>2026-03-15T14:14:15.999Z</time></trkpt><trkpt lat="45.6317617325322" lon="10.091020966132861"><ele>265.20000000000005</ele><time>2026-03-15T14:14:16.999Z</time></trkpt><trkpt lat="45.6318202198795" lon="10.090877536512076"><ele>264.79999999999995</ele><time>2026-03-15T14:14:17.999Z</time></trkpt><trkpt lat="45.63186328366008" lon="10.09075406987189"><ele>264.4</ele><time>2026-03-15T14:14:18.999Z</time></trkpt><trkpt lat="45.63189830975376" lon="10.090655839488353"><ele>264.0</ele><time>2026-03-15T14:14:19.998Z</time></trkpt><trkpt lat="45.63195097812517" lon="10.090469350496159"><ele>264.0</ele><time>2026-03-15T14:14:21.998Z</time></trkpt><trkpt lat="45.631980270269864" lon="10.090337827296924"><ele>264.0</ele><time>2026-03-15T14:14:22.998Z</time></trkpt><trkpt lat="45.63200288671903" lon="10.090197785865877"><ele>264.0</ele><time>2026-03-15T14:14:23.998Z</time></trkpt><trkpt lat="45.63201597490755" lon="10.09007245884284"><ele>264.0</ele><time>2026-03-15T14:14:24.998Z</time></trkpt><trkpt lat="45.632027685429705" lon="10.08994939635376"><ele>264.0</ele><time>2026-03-15T14:14:25.998Z</time></trkpt><trkpt lat="45.63204059635621" lon="10.089827919481495"><ele>264.0</ele><time>2026-03-15T14:14:26.998Z</time></trkpt><trkpt lat="45.632054363519785" lon="10.089712885557853"><ele>264.0</ele><time>2026-03-15T14:14:27.998Z</time></trkpt><trkpt lat="45.632070333693854" lon="10.08959586476429"><ele>264.0</ele><time>2026-03-15T14:14:28.998Z</time></trkpt><trkpt lat="45.63208670413588" lon="10.08946266424228"><ele>264.0</ele><time>2026-03-15T14:14:29.998Z</time></trkpt><trkpt lat="45.63209405268282" lon="10.089345006334833"><ele>264.0</ele><time>2026-03-15T14:14:30.998Z</time></trkpt><trkpt lat="45.63210349129478" lon="10.089243547637802"><ele>264.0</ele><time>2026-03-15T14:14:31.998Z</time></trkpt><trkpt lat="45.632125374508924" lon="10.089134790399134"><ele>264.1666666666667</ele><time>2026-03-15T14:14:32.998Z</time></trkpt><trkpt lat="45.632153120377346" lon="10.089014427862338"><ele>264.3333333333333</ele><time>2026-03-15T14:14:33.998Z</time></trkpt><trkpt lat="45.63216736005338" lon="10.088907548124464"><ele>264.5</ele><time>2026-03-15T14:14:34.998Z</time></trkpt><trkpt lat="45.63213707565297" lon="10.08881360025411"><ele>264.66666666666663</ele><time>2026-03-15T14:14:35.998Z</time></trkpt><trkpt lat="45.632069057940456" lon="10.088746311994994"><ele>264.8333333333333</ele><time>2026-03-15T14:14:36.998Z</time></trkpt><trkpt lat="45.63197688978539" lon="10.08872829453119"><ele>265.0</ele><time>2026-03-15T14:14:37.998Z</time></trkpt><trkpt lat="45.6318967754124" lon="10.08864087256242"><ele>264.0</ele><time>2026-03-15T14:14:38.998Z</time></trkpt><trkpt lat="45.63181517746657" lon="10.088571513569802"><ele>263.0</ele><time>2026-03-15T14:14:39.998Z</time></trkpt><trkpt lat="45.63171340747338" lon="10.08849873204793"><ele>262.0</ele><time>2026-03-15T14:14:40.998Z</time></trkpt><trkpt lat="45.63161407110264" lon="10.088436444475477"><ele>261.0</ele><time>2026-03-15T14:14:41.998Z</time></trkpt><trkpt lat="45.63153431468986" lon="10.088386725540326"><ele>260.0</ele><time>2026-03-15T14:14:42.998Z</time></trkpt><trkpt lat="45.631467293956085" lon="10.088337895801008"><ele>260.0</ele><time>2026-03-15T14:14:43.998Z</time></trkpt><trkpt lat="45.63139504598755" lon="10.088296384625878"><ele>260.0</ele><time>2026-03-15T14:14:44.998Z</time></trkpt><trkpt lat="45.63133550940536" lon="10.088252414211999"><ele>260.0</ele><time>2026-03-15T14:14:45.998Z</time></trkpt><trkpt lat="45.63124620246003" lon="10.088194157737536"><ele>260.0</ele><time>2026-03-15T14:14:46.998Z</time></trkpt><trkpt lat="45.631134224809855" lon="10.088126480663282"><ele>260.0</ele><time>2026-03-15T14:14:47.998Z</time></trkpt><trkpt lat="45.63101448583048" lon="10.088048524915726"><ele>259.25</ele><time>2026-03-15T14:14:48.998Z</time></trkpt><trkpt lat="45.630896454777336" lon="10.087972728692565"><ele>258.5</ele><time>2026-03-15T14:14:49.998Z</time></trkpt><trkpt lat="45.63078863367592" lon="10.087909478221668"><ele>257.75</ele><time>2026-03-15T14:14:50.998Z</time></trkpt><trkpt lat="45.63068541804367" lon="10.087845313486554"><ele>257.0</ele><time>2026-03-15T14:14:51.998Z</time></trkpt><trkpt lat="45.63057184147488" lon="10.087778836364352"><ele>257.0</ele><time>2026-03-15T14:14:52.998Z</time></trkpt><trkpt lat="45.630445143000955" lon="10.087691241434145"><ele>257.0</ele><time>2026-03-15T14:14:53.998Z</time></trkpt><trkpt lat="45.63032324107976" lon="10.087596390207668"><ele>257.0</ele><time>2026-03-15T14:14:54.998Z</time></trkpt><trkpt lat="45.630208650797975" lon="10.087495685492145"><ele>257.0</ele><time>2026-03-15T14:14:55.998Z</time></trkpt><trkpt lat="45.63010198567582" lon="10.087388655668954"><ele>256.5</ele><time>2026-03-15T14:14:56.998Z</time></trkpt><trkpt lat="45.62998756643472" lon="10.087271944405687"><ele>256.0</ele><time>2026-03-15T14:14:57.998Z</time></trkpt><trkpt lat="45.62987223644888" lon="10.087147771371292"><ele>255.5</ele><time>2026-03-15T14:14:58.998Z</time></trkpt><trkpt lat="45.6297635455517" lon="10.087022599058287"><ele>255.0</ele><time>2026-03-15T14:14:59.998Z</time></trkpt><trkpt lat="45.62966298083962" lon="10.086903822066615"><ele>255.0</ele><time>2026-03-15T14:15:00.998Z</time></trkpt><trkpt lat="45.62956807056839" lon="10.086795870422225"><ele>255.0</ele><time>2026-03-15T14:15:01.998Z</time></trkpt><trkpt lat="45.62947648835385" lon="10.086687688836353"><ele>255.0</ele><time>2026-03-15T14:15:02.998Z</time></trkpt><trkpt lat="45.629376438175996" lon="10.08657380842022"><ele>255.0</ele><time>2026-03-15T14:15:03.998Z</time></trkpt><trkpt lat="45.62925268791776" lon="10.08645063307933"><ele>254.33333333333331</ele><time>2026-03-15T14:15:04.997Z</time></trkpt><trkpt lat="45.6291305821704" lon="10.086316805599225"><ele>253.66666666666666</ele><time>2026-03-15T14:15:05.997Z</time></trkpt><trkpt lat="45.62900557857491" lon="10.086173336506722"><ele>253.0</ele><time>2026-03-15T14:15:06.997Z</time></trkpt><trkpt lat="45.62888736527746" lon="10.086037392370752"><ele>253.0</ele><time>2026-03-15T14:15:07.997Z</time></trkpt><trkpt lat="45.62876620592181" lon="10.08590323995561"><ele>253.0</ele><time>2026-03-15T14:15:08.997Z</time></trkpt><trkpt lat="45.62863959679942" lon="10.085758099452802"><ele>253.0</ele><time>2026-03-15T14:15:09.997Z</time></trkpt><trkpt lat="45.628503452967145" lon="10.085605222843881"><ele>251.33333333333331</ele><time>2026-03-15T14:15:10.997Z</time></trkpt><trkpt lat="45.62836789136643" lon="10.0854493243998"><ele>249.66666666666669</ele><time>2026-03-15T14:15:11.997Z</time></trkpt><trkpt lat="45.62823869380425" lon="10.08529929112122"><ele>248.0</ele><time>2026-03-15T14:15:12.997Z</time></trkpt><trkpt lat="45.628117396496144" lon="10.0851622682153"><ele>248.0</ele><time>2026-03-15T14:15:13.997Z</time></trkpt><trkpt lat="45.62800792038196" lon="10.085039583890435"><ele>248.0</ele><time>2026-03-15T14:15:14.997Z</time></trkpt><trkpt lat="45.627902692194056" lon="10.084921611642335"><ele>248.0</ele><time>2026-03-15T14:15:15.997Z</time></trkpt><trkpt lat="45.62780237805851" lon="10.08480514568875"><ele>248.0</ele><time>2026-03-15T14:15:16.997Z</time></trkpt><trkpt lat="45.62770409083655" lon="10.084690236334419"><ele>247.33333333333334</ele><time>2026-03-15T14:15:17.997Z</time></trkpt><trkpt lat="45.62758865653253" lon="10.08456143717859"><ele>246.66666666666669</ele><time>2026-03-15T14:15:18.997Z</time></trkpt><trkpt lat="45.62745499419821" lon="10.084418459882444"><ele>246.0</ele><time>2026-03-15T14:15:19.999Z</time></trkpt><trkpt lat="45.627308843994484" lon="10.084273265438794"><ele>246.0</ele><time>2026-03-15T14:15:20.999Z</time></trkpt><trkpt lat="45.627174371204475" lon="10.08414330653616"><ele>246.0</ele><time>2026-03-15T14:15:21.999Z</time></trkpt><trkpt lat="45.62704994489912" lon="10.084029824387134"><ele>246.0</ele><time>2026-03-15T14:15:22.999Z</time></trkpt><trkpt lat="45.62691004235759" lon="10.083907887289993"><ele>245.75</ele><time>2026-03-15T14:15:23.999Z</time></trkpt><trkpt lat="45.62676772320367" lon="10.083784940553523"><ele>245.5</ele><time>2026-03-15T14:15:24.999Z</time></trkpt><trkpt lat="45.62664012045884" lon="10.083683578291485"><ele>245.25</ele><time>2026-03-15T14:15:25.999Z</time></trkpt><trkpt lat="45.62652236513832" lon="10.083589408163826"><ele>245.0</ele><time>2026-03-15T14:15:26.999Z</time></trkpt><trkpt lat="45.62640692441772" lon="10.08350572780411"><ele>245.0</ele><time>2026-03-15T14:15:27.999Z</time></trkpt><trkpt lat="45.626295709531924" lon="10.08344615450959"><ele>245.0</ele><time>2026-03-15T14:15:28.999Z</time></trkpt><trkpt lat="45.626188451327764" lon="10.08339962727569"><ele>245.0</ele><time>2026-03-15T14:15:29.999Z</time></trkpt><trkpt lat="45.62608506221253" lon="10.083334916641673"><ele>245.0</ele><time>2026-03-15T14:15:30.999Z</time></trkpt><trkpt lat="45.62598470722969" lon="10.083224465688188"><ele>244.25</ele><time>2026-03-15T14:15:31.999Z</time></trkpt><trkpt lat="45.62585308831298" lon="10.08319826792964"><ele>243.5</ele><time>2026-03-15T14:15:32.999Z</time></trkpt><trkpt lat="45.62572264631049" lon="10.08315045796162"><ele>242.75</ele><time>2026-03-15T14:15:33.999Z</time></trkpt><trkpt lat="45.62560250302665" lon="10.083096654534069"><ele>242.0</ele><time>2026-03-15T14:15:34.999Z</time></trkpt><trkpt lat="45.62548935064202" lon="10.083031644146644"><ele>242.0</ele><time>2026-03-15T14:15:35.999Z</time></trkpt><trkpt lat="45.6253639003944" lon="10.082974242723447"><ele>242.0</ele><time>2026-03-15T14:15:36.999Z</time></trkpt><trkpt lat="45.62522892556491" lon="10.082924953355876"><ele>242.0</ele><time>2026-03-15T14:15:37.999Z</time></trkpt><trkpt lat="45.62508783349046" lon="10.082876670541904"><ele>242.0</ele><time>2026-03-15T14:15:38.999Z</time></trkpt><trkpt lat="45.62494481364302" lon="10.082817763789512"><ele>241.25</ele><time>2026-03-15T14:15:39.999Z</time></trkpt><trkpt lat="45.62480763620993" lon="10.082752829343796"><ele>240.5</ele><time>2026-03-15T14:15:40.999Z</time></trkpt><trkpt lat="45.62467822218026" lon="10.082692088142528"><ele>239.75</ele><time>2026-03-15T14:15:41.999Z</time></trkpt><trkpt lat="45.62456025299681" lon="10.082636641865065"><ele>239.0</ele><time>2026-03-15T14:15:42.999Z</time></trkpt><trkpt lat="45.624445365018786" lon="10.082581768509867"><ele>239.0</ele><time>2026-03-15T14:15:43.999Z</time></trkpt><trkpt lat="45.624323229176035" lon="10.082523102856776"><ele>239.0</ele><time>2026-03-15T14:15:44.999Z</time></trkpt><trkpt lat="45.62420097728008" lon="10.082459576223352"><ele>239.0</ele><time>2026-03-15T14:15:45.999Z</time></trkpt><trkpt lat="45.62407516642752" lon="10.082399728108273"><ele>239.0</ele><time>2026-03-15T14:15:46.999Z</time></trkpt><trkpt lat="45.62394474952581" lon="10.082344426543289"><ele>238.5</ele><time>2026-03-15T14:15:47.999Z</time></trkpt><trkpt lat="45.62381526570658" lon="10.082285742889177"><ele>238.0</ele><time>2026-03-15T14:15:48.999Z</time></trkpt><trkpt lat="45.62368763380157" lon="10.082226548783265"><ele>237.5</ele><time>2026-03-15T14:15:49.999Z</time></trkpt><trkpt lat="45.623557799040974" lon="10.082166945377903"><ele>237.0</ele><time>2026-03-15T14:15:50.999Z</time></trkpt><trkpt lat="45.62342639657731" lon="10.082104973043378"><ele>236.5</ele><time>2026-03-15T14:15:51.999Z</time></trkpt><trkpt lat="45.623305881567255" lon="10.08204497773171"><ele>236.0</ele><time>2026-03-15T14:15:52.999Z</time></trkpt><trkpt lat="45.623198629819306" lon="10.081985206406408"><ele>235.5</ele><time>2026-03-15T14:15:53.999Z</time></trkpt><trkpt lat="45.62309336925303" lon="10.08192319429456"><ele>235.0</ele><time>2026-03-15T14:15:54.999Z</time></trkpt><trkpt lat="45.62299469350358" lon="10.081859901803137"><ele>234.99999999999997</ele><time>2026-03-15T14:15:55.999Z</time></trkpt><trkpt lat="45.62291229081796" lon="10.081791247951674"><ele>235.0</ele><time>2026-03-15T14:15:56.999Z</time></trkpt><trkpt lat="45.62285260573652" lon="10.081705401672027"><ele>235.0</ele><time>2026-03-15T14:15:57.999Z</time></trkpt><trkpt lat="45.622814382265034" lon="10.081609285529622"><ele>235.0</ele><time>2026-03-15T14:15:58.999Z</time></trkpt><trkpt lat="45.6227838026198" lon="10.081511539599543"><ele>234.99999999999997</ele><time>2026-03-15T14:15:59.999Z</time></trkpt><trkpt lat="45.62275372041158" lon="10.081404866284002"><ele>235.0</ele><time>2026-03-15T14:16:00.999Z</time></trkpt><trkpt lat="45.62270762602625" lon="10.081295199032871"><ele>234.75</ele><time>2026-03-15T14:16:01.999Z</time></trkpt><trkpt lat="45.622663274463314" lon="10.081168614539902"><ele>234.5</ele><time>2026-03-15T14:16:02.999Z</time></trkpt><trkpt lat="45.622618920845376" lon="10.081017477967167"><ele>234.25</ele><time>2026-03-15T14:16:03.999Z</time></trkpt><trkpt lat="45.622673516098246" lon="10.080799981737744"><ele>234.0</ele><time>2026-03-15T14:16:04.999Z</time></trkpt><trkpt lat="45.62272100117614" lon="10.080551825707852"><ele>234.0</ele><time>2026-03-15T14:16:05.999Z</time></trkpt><trkpt lat="45.622764945388504" lon="10.080281282440223"><ele>234.0</ele><time>2026-03-15T14:16:06.999Z</time></trkpt><trkpt lat="45.62279241032574" lon="10.08003473228737"><ele>234.0</ele><time>2026-03-15T14:16:07.999Z</time></trkpt><trkpt lat="45.62281161883114" lon="10.07985025156137"><ele>235.0</ele><time>2026-03-15T14:16:08.999Z</time></trkpt><trkpt lat="45.62283862760905" lon="10.079719674622545"><ele>235.99999999999997</ele><time>2026-03-15T14:16:09.999Z</time></trkpt><trkpt lat="45.622893959252195" lon="10.079614472254805"><ele>236.99999999999997</ele><time>2026-03-15T14:16:10.999Z</time></trkpt><trkpt lat="45.62297793273638" lon="10.07952375034288"><ele>238.0</ele><time>2026-03-15T14:16:11.999Z</time></trkpt><trkpt lat="45.62307924974406" lon="10.079460967513759"><ele>239.0</ele><time>2026-03-15T14:16:12.999Z</time></trkpt><trkpt lat="45.623191867962944" lon="10.079446417813061"><ele>239.0</ele><time>2026-03-15T14:16:13.999Z</time></trkpt><trkpt lat="45.623318027377834" lon="10.079463722019339"><ele>239.0</ele><time>2026-03-15T14:16:14.999Z</time></trkpt><trkpt lat="45.62344519070143" lon="10.079441086922765"><ele>239.0</ele><time>2026-03-15T14:16:15.999Z</time></trkpt><trkpt lat="45.62356090843284" lon="10.079332704339384"><ele>239.0</ele><time>2026-03-15T14:16:16.999Z</time></trkpt><trkpt lat="45.623647290096194" lon="10.079163492458424"><ele>238.66666666666669</ele><time>2026-03-15T14:16:17.999Z</time></trkpt><trkpt lat="45.62369735432621" lon="10.078954962740914"><ele>238.33333333333331</ele><time>2026-03-15T14:16:18.999Z</time></trkpt><trkpt lat="45.623718452664" lon="10.078707044656914"><ele>238.0</ele><time>2026-03-15T14:16:19.999Z</time></trkpt><trkpt lat="45.623732634973095" lon="10.07844355614037"><ele>238.66666666666666</ele><time>2026-03-15T14:16:20.999Z</time></trkpt><trkpt lat="45.62376027051289" lon="10.078181654977769"><ele>239.33333333333331</ele><time>2026-03-15T14:16:21.999Z</time></trkpt><trkpt lat="45.62379497542312" lon="10.077949125819737"><ele>240.0</ele><time>2026-03-15T14:16:22.998Z</time></trkpt><trkpt lat="45.62382922432184" lon="10.077753413774182"><ele>240.0</ele><time>2026-03-15T14:16:23.998Z</time></trkpt><trkpt lat="45.62388505589997" lon="10.077599323901584"><ele>240.0</ele><time>2026-03-15T14:16:24.998Z</time></trkpt><trkpt lat="45.62396998158267" lon="10.077493797921848"><ele>240.0</ele><time>2026-03-15T14:16:25.998Z</time></trkpt><trkpt lat="45.6240708371836" lon="10.077428245111303"><ele>240.0</ele><time>2026-03-15T14:16:26.998Z</time></trkpt><trkpt lat="45.62418063896226" lon="10.077406621754992"><ele>240.0</ele><time>2026-03-15T14:16:27.998Z</time></trkpt><trkpt lat="45.6243014629154" lon="10.077414842731713"><ele>240.0</ele><time>2026-03-15T14:16:28.998Z</time></trkpt><trkpt lat="45.62444515431799" lon="10.077502439747517"><ele>240.0</ele><time>2026-03-15T14:16:29.998Z</time></trkpt><trkpt lat="45.624596623885395" lon="10.07754333405807"><ele>240.0</ele><time>2026-03-15T14:16:30.998Z</time></trkpt><trkpt lat="45.62475125125191" lon="10.077580984047248"><ele>240.0</ele><time>2026-03-15T14:16:31.998Z</time></trkpt><trkpt lat="45.62490356850744" lon="10.077617669870673"><ele>240.0</ele><time>2026-03-15T14:16:32.998Z</time></trkpt><trkpt lat="45.625038139322555" lon="10.07764760707475"><ele>240.0</ele><time>2026-03-15T14:16:33.998Z</time></trkpt><trkpt lat="45.625177230910175" lon="10.077670924216434"><ele>240.0</ele><time>2026-03-15T14:16:34.998Z</time></trkpt><trkpt lat="45.62534037702714" lon="10.077699487167735"><ele>241.0</ele><time>2026-03-15T14:16:35.998Z</time></trkpt><trkpt lat="45.62552028300951" lon="10.077740153737563"><ele>242.0</ele><time>2026-03-15T14:16:36.998Z</time></trkpt><trkpt lat="45.625717269907426" lon="10.077795787240534"><ele>243.0</ele><time>2026-03-15T14:16:37.998Z</time></trkpt><trkpt lat="45.625920919752964" lon="10.077847492528056"><ele>243.0</ele><time>2026-03-15T14:16:38.998Z</time></trkpt><trkpt lat="45.62612591393431" lon="10.077901148940775"><ele>243.0</ele><time>2026-03-15T14:16:39.998Z</time></trkpt><trkpt lat="45.62632097937689" lon="10.077954055910924"><ele>243.0</ele><time>2026-03-15T14:16:40.998Z</time></trkpt><trkpt lat="45.62651257769651" lon="10.07800771745709"><ele>243.33333333333331</ele><time>2026-03-15T14:16:41.998Z</time></trkpt><trkpt lat="45.62670567081007" lon="10.078065809076955"><ele>243.66666666666666</ele><time>2026-03-15T14:16:42.998Z</time></trkpt><trkpt lat="45.6268902154622" lon="10.078120139876578"><ele>244.0</ele><time>2026-03-15T14:16:43.998Z</time></trkpt><trkpt lat="45.627071924173144" lon="10.078168146806291"><ele>244.0</ele><time>2026-03-15T14:16:44.998Z</time></trkpt><trkpt lat="45.62725272748387" lon="10.078214583994308"><ele>244.0</ele><time>2026-03-15T14:16:45.998Z</time></trkpt><trkpt lat="45.62742507726991" lon="10.078258680365069"><ele>244.0</ele><time>2026-03-15T14:16:46.998Z</time></trkpt><trkpt lat="45.627587622837645" lon="10.078306668899152"><ele>244.66666666666666</ele><time>2026-03-15T14:16:47.998Z</time></trkpt><trkpt lat="45.627763911106896" lon="10.078359009119898"><ele>245.33333333333331</ele><time>2026-03-15T14:16:48.998Z</time></trkpt><trkpt lat="45.62794006769237" lon="10.078409604118958"><ele>246.0</ele><time>2026-03-15T14:16:49.998Z</time></trkpt><trkpt lat="45.628125003272814" lon="10.078462386732946"><ele>246.66666666666669</ele><time>2026-03-15T14:16:50.998Z</time></trkpt><trkpt lat="45.62831229613694" lon="10.078515691487183"><ele>247.33333333333334</ele><time>2026-03-15T14:16:51.998Z</time></trkpt><trkpt lat="45.628493793133174" lon="10.078567260840893"><ele>248.0</ele><time>2026-03-15T14:16:52.998Z</time></trkpt><trkpt lat="45.62867978294403" lon="10.078621384507583"><ele>248.66666666666669</ele><time>2026-03-15T14:16:53.998Z</time></trkpt><trkpt lat="45.62886740726691" lon="10.078672048161318"><ele>249.33333333333331</ele><time>2026-03-15T14:16:54.998Z</time></trkpt><trkpt lat="45.6290587589586" lon="10.078720586539715"><ele>250.0</ele><time>2026-03-15T14:16:55.998Z</time></trkpt><trkpt lat="45.62924517499844" lon="10.078763426603176"><ele>250.0</ele><time>2026-03-15T14:16:56.998Z</time></trkpt><trkpt lat="45.62943595658565" lon="10.078803375437762"><ele>250.0</ele><time>2026-03-15T14:16:57.998Z</time></trkpt><trkpt lat="45.62962750643309" lon="10.078835661657388"><ele>250.0</ele><time>2026-03-15T14:16:58.998Z</time></trkpt><trkpt lat="45.629822406175926" lon="10.078856889892677"><ele>250.33333333333331</ele><time>2026-03-15T14:16:59.998Z</time></trkpt><trkpt lat="45.63001480747328" lon="10.07886684801838"><ele>250.66666666666669</ele><time>2026-03-15T14:17:00.998Z</time></trkpt><trkpt lat="45.63021061323507" lon="10.078870386871024"><ele>251.0</ele><time>2026-03-15T14:17:01.998Z</time></trkpt><trkpt lat="45.63040804985132" lon="10.078864716567121"><ele>251.0</ele><time>2026-03-15T14:17:02.998Z</time></trkpt><trkpt lat="45.630603439189564" lon="10.078850835085522"><ele>251.0</ele><time>2026-03-15T14:17:03.998Z</time></trkpt><trkpt lat="45.63080178423151" lon="10.078831791618475"><ele>251.0</ele><time>2026-03-15T14:17:04.998Z</time></trkpt><trkpt lat="45.63099343560707" lon="10.07880356346519"><ele>252.0</ele><time>2026-03-15T14:17:05.998Z</time></trkpt><trkpt lat="45.631194494811666" lon="10.078763506087903"><ele>253.0</ele><time>2026-03-15T14:17:06.998Z</time></trkpt><trkpt lat="45.63138287391426" lon="10.078715557178814"><ele>254.0</ele><time>2026-03-15T14:17:07.998Z</time></trkpt><trkpt lat="45.63157797695138" lon="10.078662660876406"><ele>254.0</ele><time>2026-03-15T14:17:08.998Z</time></trkpt><trkpt lat="45.63177226866257" lon="10.078598245932556"><ele>254.0</ele><time>2026-03-15T14:17:09.998Z</time></trkpt><trkpt lat="45.63196033867051" lon="10.078520503783052"><ele>254.0</ele><time>2026-03-15T14:17:10.998Z</time></trkpt><trkpt lat="45.63215075446076" lon="10.078433149916904"><ele>254.66666666666669</ele><time>2026-03-15T14:17:11.998Z</time></trkpt><trkpt lat="45.63233578853399" lon="10.078339940657356"><ele>255.33333333333331</ele><time>2026-03-15T14:17:12.997Z</time></trkpt><trkpt lat="45.63251755246161" lon="10.078242908979004"><ele>256.0</ele><time>2026-03-15T14:17:13.997Z</time></trkpt><trkpt lat="45.632699324590405" lon="10.078144442192478"><ele>259.3333333333333</ele><time>2026-03-15T14:17:14.997Z</time></trkpt><trkpt lat="45.63288842715376" lon="10.07804322844398"><ele>262.6666666666667</ele><time>2026-03-15T14:17:15.997Z</time></trkpt><trkpt lat="45.63307510326225" lon="10.07794309726485"><ele>266.0</ele><time>2026-03-15T14:17:16.997Z</time></trkpt><trkpt lat="45.633268298577285" lon="10.077843646646633"><ele>266.0</ele><time>2026-03-15T14:17:17.997Z</time></trkpt><trkpt lat="45.63346193789404" lon="10.07774388451046"><ele>266.0</ele><time>2026-03-15T14:17:18.997Z</time></trkpt><trkpt lat="45.63365351604476" lon="10.077642127511478"><ele>266.0</ele><time>2026-03-15T14:17:19.997Z</time></trkpt><trkpt lat="45.63384869092683" lon="10.077540302236903"><ele>266.33333333333337</ele><time>2026-03-15T14:17:20.997Z</time></trkpt><trkpt lat="45.63404007415288" lon="10.077436919278403"><ele>266.6666666666667</ele><time>2026-03-15T14:17:21.997Z</time></trkpt><trkpt lat="45.63423261063027" lon="10.077333260214601"><ele>267.0</ele><time>2026-03-15T14:17:22.997Z</time></trkpt><trkpt lat="45.634421340364106" lon="10.077231457065187"><ele>269.6666666666667</ele><time>2026-03-15T14:17:23.997Z</time></trkpt><trkpt lat="45.63461358111197" lon="10.077129284325368"><ele>272.33333333333337</ele><time>2026-03-15T14:17:24.997Z</time></trkpt><trkpt lat="45.63480348581875" lon="10.07702827126755"><ele>275.0</ele><time>2026-03-15T14:17:25.999Z</time></trkpt><trkpt lat="45.63499272462665" lon="10.076927987057013"><ele>275.0</ele><time>2026-03-15T14:17:26.999Z</time></trkpt><trkpt lat="45.63517979848554" lon="10.076826728675476"><ele>275.0</ele><time>2026-03-15T14:17:27.999Z</time></trkpt><trkpt lat="45.63536931156553" lon="10.076726572456414"><ele>275.0</ele><time>2026-03-15T14:17:28.999Z</time></trkpt><trkpt lat="45.635554607032596" lon="10.076628707648856"><ele>279.6666666666667</ele><time>2026-03-15T14:17:29.999Z</time></trkpt><trkpt lat="45.63574227877871" lon="10.076532442582392"><ele>284.3333333333333</ele><time>2026-03-15T14:17:30.999Z</time></trkpt><trkpt lat="45.63593077841611" lon="10.076435447402952"><ele>289.0</ele><time>2026-03-15T14:17:31.999Z</time></trkpt><trkpt lat="45.636124150592174" lon="10.076334807773971"><ele>289.3333333333333</ele><time>2026-03-15T14:17:32.999Z</time></trkpt><trkpt lat="45.63630399960213" lon="10.076236026523537"><ele>289.6666666666667</ele><time>2026-03-15T14:17:33.999Z</time></trkpt><trkpt lat="45.63648289816079" lon="10.076138278323393"><ele>290.0</ele><time>2026-03-15T14:17:34.999Z</time></trkpt><trkpt lat="45.63666281436319" lon="10.076039371154577"><ele>290.0</ele><time>2026-03-15T14:17:35.999Z</time></trkpt><trkpt lat="45.636845482564205" lon="10.07593985272057"><ele>290.0</ele><time>2026-03-15T14:17:36.999Z</time></trkpt><trkpt lat="45.63710510515924" lon="10.07581128184017"><ele>287.33333333333337</ele><time>2026-03-15T14:17:37.999Z</time></trkpt><trkpt lat="45.637304796886696" lon="10.075697836660858"><ele>284.6666666666667</ele><time>2026-03-15T14:17:38.999Z</time></trkpt><trkpt lat="45.637507180216" lon="10.075593237073898"><ele>282.0</ele><time>2026-03-15T14:17:39.999Z</time></trkpt><trkpt lat="45.63770727789774" lon="10.075486007272659"><ele>284.6666666666667</ele><time>2026-03-15T14:17:40.999Z</time></trkpt><trkpt lat="45.63790727968226" lon="10.075381538895938"><ele>287.33333333333337</ele><time>2026-03-15T14:17:41.999Z</time></trkpt><trkpt lat="45.63810482897724" lon="10.07527844474362"><ele>290.0</ele><time>2026-03-15T14:17:43Z</time></trkpt><trkpt lat="45.63830644185255" lon="10.075172175736261"><ele>290.0</ele><time>2026-03-15T14:17:43.999Z</time></trkpt><trkpt lat="45.638503969080254" lon="10.075069107829576"><ele>290.0</ele><time>2026-03-15T14:17:44.999Z</time></trkpt><trkpt lat="45.638700448748125" lon="10.074966198699848"><ele>290.0</ele><time>2026-03-15T14:17:45.999Z</time></trkpt><trkpt lat="45.63889854404214" lon="10.074863026213839"><ele>291.33333333333337</ele><time>2026-03-15T14:17:46.999Z</time></trkpt><trkpt lat="45.63909511010693" lon="10.0747594303373"><ele>292.6666666666667</ele><time>2026-03-15T14:17:47.999Z</time></trkpt><trkpt lat="45.639288603323784" lon="10.07465443147867"><ele>294.0</ele><time>2026-03-15T14:17:48.999Z</time></trkpt><trkpt lat="45.639481556061526" lon="10.074550680383476"><ele>296.0</ele><time>2026-03-15T14:17:49.999Z</time></trkpt><trkpt lat="45.639673617445055" lon="10.074443770449784"><ele>298.0</ele><time>2026-03-15T14:17:50.999Z</time></trkpt><trkpt lat="45.639865876298735" lon="10.074334107456167"><ele>300.0</ele><time>2026-03-15T14:17:51.999Z</time></trkpt><trkpt lat="45.64005236681515" lon="10.074219982162955"><ele>304.0</ele><time>2026-03-15T14:17:52.999Z</time></trkpt><trkpt lat="45.640240084132586" lon="10.074098189161292"><ele>308.0</ele><time>2026-03-15T14:17:53.999Z</time></trkpt><trkpt lat="45.64041073494523" lon="10.073985744823705"><ele>312.0</ele><time>2026-03-15T14:17:54.999Z</time></trkpt><trkpt lat="45.64057614460495" lon="10.073873939684544"><ele>312.75</ele><time>2026-03-15T14:17:55.999Z</time></trkpt><trkpt lat="45.64072605893697" lon="10.073772403376335"><ele>313.5</ele><time>2026-03-15T14:17:56.999Z</time></trkpt><trkpt lat="45.64084753898033" lon="10.07369000820246"><ele>314.25</ele><time>2026-03-15T14:17:57.999Z</time></trkpt><trkpt lat="45.64095506303215" lon="10.07361857178429"><ele>315.0</ele><time>2026-03-15T14:17:58.999Z</time></trkpt><trkpt lat="45.64106185201722" lon="10.073545474997005"><ele>316.25</ele><time>2026-03-15T14:17:59.999Z</time></trkpt><trkpt lat="45.64118286847849" lon="10.073492270459981"><ele>317.5</ele><time>2026-03-15T14:18:00.999Z</time></trkpt><trkpt lat="45.64129277636649" lon="10.07339668759012"><ele>318.75</ele><time>2026-03-15T14:18:01.999Z</time></trkpt><trkpt lat="45.64142489735798" lon="10.07334147247537"><ele>320.0</ele><time>2026-03-15T14:18:02.999Z</time></trkpt><trkpt lat="45.64155521840234" lon="10.073286959378674"><ele>323.0</ele><time>2026-03-15T14:18:03.999Z</time></trkpt><trkpt lat="45.64168496198263" lon="10.073217009682393"><ele>326.0</ele><time>2026-03-15T14:18:04.999Z</time></trkpt><trkpt lat="45.64181489407693" lon="10.073140553959417"><ele>329.0</ele><time>2026-03-15T14:18:05.999Z</time></trkpt><trkpt lat="45.64195430660874" lon="10.073067756680558"><ele>332.0</ele><time>2026-03-15T14:18:06.999Z</time></trkpt><trkpt lat="45.64208722191798" lon="10.07299048373692"><ele>336.25</ele><time>2026-03-15T14:18:07.999Z</time></trkpt><trkpt lat="45.642178437467436" lon="10.072953435354174"><ele>340.5</ele><time>2026-03-15T14:18:09.063Z</time></trkpt><trkpt lat="45.6423072395531" lon="10.072883956506475"><ele>344.75</ele><time>2026-03-15T14:18:10.061Z</time></trkpt><trkpt lat="45.64243309410698" lon="10.072812584122962"><ele>349.0</ele><time>2026-03-15T14:18:11.056Z</time></trkpt><trkpt lat="45.64254705783146" lon="10.072745940983394"><ele>349.0</ele><time>2026-03-15T14:18:12.034Z</time></trkpt><trkpt lat="45.64265565233213" lon="10.072685123543083"><ele>349.0</ele><time>2026-03-15T14:18:13.032Z</time></trkpt><trkpt lat="45.64272031780326" lon="10.07255521421342"><ele>349.0</ele><time>2026-03-15T14:18:14.03Z</time></trkpt><trkpt lat="45.64452577870805" lon="10.071262939583129"><ele>309.5</ele><time>2026-03-15T14:18:17.65Z</time></trkpt><trkpt lat="45.6447682" lon="10.0711044"><ele>270.0</ele><time>2026-03-15T14:18:18.652Z</time></trkpt><trkpt lat="45.65613885218642" lon="10.063663918791088"><ele>270.0</ele><time>2026-03-15T14:19:39.998Z</time></trkpt><trkpt lat="45.65626526841269" lon="10.063583520036346"><ele>270.0</ele><time>2026-03-15T14:19:40.997Z</time></trkpt><trkpt lat="45.656444506927144" lon="10.06349854848932"><ele>270.0</ele><time>2026-03-15T14:19:41.997Z</time></trkpt><trkpt lat="45.65659245563877" lon="10.063448225304061"><ele>270.0</ele><time>2026-03-15T14:19:42.997Z</time></trkpt><trkpt lat="45.65674187666574" lon="10.063416974089078"><ele>270.0</ele><time>2026-03-15T14:19:43.997Z</time></trkpt><trkpt lat="45.65688644548219" lon="10.063407566257949"><ele>270.0</ele><time>2026-03-15T14:19:44.997Z</time></trkpt><trkpt lat="45.657013449647394" lon="10.063424456459986"><ele>270.0</ele><time>2026-03-15T14:19:46Z</time></trkpt><trkpt lat="45.65711939153562" lon="10.063496419418472"><ele>270.5</ele><time>2026-03-15T14:19:47Z</time></trkpt><trkpt lat="45.657179058557944" lon="10.06363241516871"><ele>271.0</ele><time>2026-03-15T14:19:48Z</time></trkpt><trkpt lat="45.65720026897426" lon="10.063813380701752"><ele>271.5</ele><time>2026-03-15T14:19:49Z</time></trkpt><trkpt lat="45.657200052641386" lon="10.063981373619393"><ele>272.0</ele><time>2026-03-15T14:19:50Z</time></trkpt><trkpt lat="45.657098519861485" lon="10.06412098914975"><ele>275.33333333333337</ele><time>2026-03-15T14:19:51Z</time></trkpt><trkpt lat="45.65702858313562" lon="10.064228565395524"><ele>278.6666666666667</ele><time>2026-03-15T14:19:52Z</time></trkpt><trkpt lat="45.656941304752166" lon="10.0642658303646"><ele>282.0</ele><time>2026-03-15T14:19:53Z</time></trkpt><trkpt lat="45.656874422615076" lon="10.064320755418635"><ele>285.3333333333333</ele><time>2026-03-15T14:19:54Z</time></trkpt><trkpt lat="45.65679129972774" lon="10.064272727456238"><ele>288.66666666666663</ele><time>2026-03-15T14:19:56.056Z</time></trkpt><trkpt lat="45.65672399565665" lon="10.064325198998556"><ele>292.0</ele><time>2026-03-15T14:19:57.06Z</time></trkpt><trkpt lat="45.65649357849217" lon="10.065293859788692"><ele>293.0</ele><time>2026-03-15T14:19:59Z</time></trkpt><trkpt lat="45.65632926184524" lon="10.065420026739362"><ele>294.0</ele><time>2026-03-15T14:20:00Z</time></trkpt><trkpt lat="45.65622150829887" lon="10.065580016240778"><ele>295.0</ele><time>2026-03-15T14:20:01Z</time></trkpt><trkpt lat="45.656535684971324" lon="10.064358447805864"><ele>282.5</ele><time>2026-03-15T14:20:02Z</time></trkpt><trkpt lat="45.65661301807856" lon="10.063754717832868"><ele>270.0</ele><time>2026-03-15T14:20:03Z</time></trkpt><trkpt lat="45.656424975582986" lon="10.063376768258872"><ele>267.5</ele><time>2026-03-15T14:20:04Z</time></trkpt><trkpt lat="45.656349173371545" lon="10.062878847685305"><ele>265.0</ele><time>2026-03-15T14:20:05Z</time></trkpt><trkpt lat="45.65630006880499" lon="10.06252638171047"><ele>263.0</ele><time>2026-03-15T14:20:06Z</time></trkpt><trkpt lat="45.65633645068883" lon="10.062413600071132"><ele>261.0</ele><time>2026-03-15T14:20:07Z</time></trkpt><trkpt lat="45.65640760841904" lon="10.062325051607973"><ele>259.0</ele><time>2026-03-15T14:20:10Z</time></trkpt><trkpt lat="45.6564940647152" lon="10.062236942826122"><ele>257.0</ele><time>2026-03-15T14:20:12Z</time></trkpt><trkpt lat="45.65657430954017" lon="10.062214675755907"><ele>255.0</ele><time>2026-03-15T14:20:13Z</time></trkpt><trkpt lat="45.65672310117318" lon="10.062256657439619"><ele>255.0</ele><time>2026-03-15T14:20:13.999Z</time></trkpt><trkpt lat="45.65686287616101" lon="10.062351637620402"><ele>255.0</ele><time>2026-03-15T14:20:14.999Z</time></trkpt><trkpt lat="45.657002180032" lon="10.062438102360524"><ele>255.0</ele><time>2026-03-15T14:20:15.999Z</time></trkpt><trkpt lat="45.65716329654131" lon="10.062509239386069"><ele>258.0</ele><time>2026-03-15T14:20:16.999Z</time></trkpt><trkpt lat="45.657302375809394" lon="10.062573904076404"><ele>261.0</ele><time>2026-03-15T14:20:17.999Z</time></trkpt><trkpt lat="45.65744953072645" lon="10.062647121849896"><ele>264.0</ele><time>2026-03-15T14:20:18.999Z</time></trkpt><trkpt lat="45.65775075599484" lon="10.062819254477096"><ele>261.25</ele><time>2026-03-15T14:20:20.999Z</time></trkpt><trkpt lat="45.657850778974215" lon="10.062846191164178"><ele>258.5</ele><time>2026-03-15T14:20:21.999Z</time></trkpt><trkpt lat="45.65801912121321" lon="10.062900991148814"><ele>255.75</ele><time>2026-03-15T14:20:22.999Z</time></trkpt><trkpt lat="45.65817948385903" lon="10.06289329287966"><ele>253.0</ele><time>2026-03-15T14:20:23.999Z</time></trkpt><trkpt lat="45.65832559599745" lon="10.06288374915463"><ele>253.0</ele><time>2026-03-15T14:20:24.999Z</time></trkpt><trkpt lat="45.65847262376156" lon="10.06290676439601"><ele>253.0</ele><time>2026-03-15T14:20:25.999Z</time></trkpt><trkpt lat="45.65861363212655" lon="10.062917998449114"><ele>253.0</ele><time>2026-03-15T14:20:26.999Z</time></trkpt><trkpt lat="45.65874427630857" lon="10.062917942664944"><ele>253.0</ele><time>2026-03-15T14:20:27.999Z</time></trkpt><trkpt lat="45.658856921219446" lon="10.062916873799002"><ele>249.75</ele><time>2026-03-15T14:20:28.999Z</time></trkpt><trkpt lat="45.65897817807387" lon="10.062921773938786"><ele>246.5</ele><time>2026-03-15T14:20:29.999Z</time></trkpt><trkpt lat="45.6591086032688" lon="10.062911817898655"><ele>243.25</ele><time>2026-03-15T14:20:30.999Z</time></trkpt><trkpt lat="45.65924924259298" lon="10.062902988510347"><ele>240.0</ele><time>2026-03-15T14:20:31.999Z</time></trkpt><trkpt lat="45.659358046688325" lon="10.062894611748822"><ele>240.0</ele><time>2026-03-15T14:20:32.999Z</time></trkpt><trkpt lat="45.65944900315577" lon="10.06289207981186"><ele>240.0</ele><time>2026-03-15T14:20:33.999Z</time></trkpt><trkpt lat="45.659542446884494" lon="10.062892262350585"><ele>240.0</ele><time>2026-03-15T14:20:34.999Z</time></trkpt><trkpt lat="45.65963869371673" lon="10.062888246169244"><ele>240.0</ele><time>2026-03-15T14:20:35.999Z</time></trkpt><trkpt lat="45.659732229166366" lon="10.062884491822986"><ele>240.0</ele><time>2026-03-15T14:20:36.999Z</time></trkpt><trkpt lat="45.659820521953776" lon="10.062881133521923"><ele>238.2</ele><time>2026-03-15T14:20:37.999Z</time></trkpt><trkpt lat="45.65991772620271" lon="10.062887199119936"><ele>236.4</ele><time>2026-03-15T14:20:38.999Z</time></trkpt><trkpt lat="45.660015876471974" lon="10.062899758349305"><ele>234.60000000000002</ele><time>2026-03-15T14:20:39.999Z</time></trkpt><trkpt lat="45.66009913716657" lon="10.062897281613353"><ele>232.8</ele><time>2026-03-15T14:20:40.999Z</time></trkpt><trkpt lat="45.66019447484249" lon="10.062892551890654"><ele>231.0</ele><time>2026-03-15T14:20:41.999Z</time></trkpt><trkpt lat="45.66031075623234" lon="10.06288899223961"><ele>230.8</ele><time>2026-03-15T14:20:42.999Z</time></trkpt><trkpt lat="45.66040746860029" lon="10.062887285558276"><ele>230.60000000000002</ele><time>2026-03-15T14:20:43.999Z</time></trkpt><trkpt lat="45.66049666586231" lon="10.06289294610556"><ele>230.4</ele><time>2026-03-15T14:20:44.999Z</time></trkpt><trkpt lat="45.660572630406286" lon="10.062930223770367"><ele>230.2</ele><time>2026-03-15T14:20:45.999Z</time></trkpt><trkpt lat="45.6606662698296" lon="10.063045147703424"><ele>230.0</ele><time>2026-03-15T14:20:47.999Z</time></trkpt><trkpt lat="45.66063435909825" lon="10.063179589212169"><ele>230.00000000000003</ele><time>2026-03-15T14:20:48.999Z</time></trkpt><trkpt lat="45.66057631853846" lon="10.063237073450251"><ele>230.0</ele><time>2026-03-15T14:20:49.999Z</time></trkpt><trkpt lat="45.66050886608763" lon="10.063262419844456"><ele>230.0</ele><time>2026-03-15T14:20:50.999Z</time></trkpt><trkpt lat="45.6603998061338" lon="10.063266240848856"><ele>230.0</ele><time>2026-03-15T14:20:52.999Z</time></trkpt><trkpt lat="45.660343774930155" lon="10.06321940188073"><ele>230.00000000000003</ele><time>2026-03-15T14:20:55.999Z</time></trkpt><trkpt lat="45.66029060516157" lon="10.063163431655767"><ele>230.0</ele><time>2026-03-15T14:21:38.998Z</time></trkpt><trkpt lat="45.66024663222517" lon="10.063401972167819"><ele>231.33333333333334</ele><time>2026-03-15T14:21:43.998Z</time></trkpt><trkpt lat="45.6602803817876" lon="10.063602524432829"><ele>232.66666666666669</ele><time>2026-03-15T14:21:44.998Z</time></trkpt><trkpt lat="45.66034853208799" lon="10.06382844968891"><ele>234.0</ele><time>2026-03-15T14:21:45.998Z</time></trkpt><trkpt lat="45.660446062876716" lon="10.064028442315077"><ele>237.0</ele><time>2026-03-15T14:21:46.998Z</time></trkpt><trkpt lat="45.6605728142772" lon="10.064163702046912"><ele>240.0</ele><time>2026-03-15T14:21:47.998Z</time></trkpt><trkpt lat="45.66072778974994" lon="10.06424713600653"><ele>243.0</ele><time>2026-03-15T14:21:48.998Z</time></trkpt><trkpt lat="45.66089727443505" lon="10.064317039916952"><ele>243.0</ele><time>2026-03-15T14:21:49.998Z</time></trkpt><trkpt lat="45.661062436982434" lon="10.06438875943956"><ele>243.0</ele><time>2026-03-15T14:21:51Z</time></trkpt><trkpt lat="45.661220004298386" lon="10.064460880449674"><ele>243.0</ele><time>2026-03-15T14:21:52Z</time></trkpt><trkpt lat="45.66135721042735" lon="10.064506613945527"><ele>242.33333333333334</ele><time>2026-03-15T14:21:53Z</time></trkpt><trkpt lat="45.6614651729252" lon="10.064508035816905"><ele>241.66666666666669</ele><time>2026-03-15T14:21:54Z</time></trkpt><trkpt lat="45.66153879215394" lon="10.064513608125935"><ele>241.0</ele><time>2026-03-15T14:21:55Z</time></trkpt><trkpt lat="45.66158166374096" lon="10.064584797810236"><ele>240.33333333333334</ele><time>2026-03-15T14:21:56Z</time></trkpt><trkpt lat="45.66156626875273" lon="10.06468894040588"><ele>239.66666666666669</ele><time>2026-03-15T14:21:57Z</time></trkpt><trkpt lat="45.66150486949063" lon="10.064776730178641"><ele>239.0</ele><time>2026-03-15T14:21:58Z</time></trkpt><trkpt lat="45.66141801913721" lon="10.064795411877167"><ele>239.0</ele><time>2026-03-15T14:21:59Z</time></trkpt><trkpt lat="45.66130173377296" lon="10.064763460357963"><ele>239.0</ele><time>2026-03-15T14:22:00Z</time></trkpt><trkpt lat="45.661149796087884" lon="10.064696000366059"><ele>239.0</ele><time>2026-03-15T14:22:01Z</time></trkpt><trkpt lat="45.66098975693922" lon="10.064650714134345"><ele>239.0</ele><time>2026-03-15T14:22:02Z</time></trkpt><trkpt lat="45.660802031891954" lon="10.064616275085188"><ele>240.33333333333334</ele><time>2026-03-15T14:22:03Z</time></trkpt><trkpt lat="45.66060927183314" lon="10.064570160709893"><ele>241.66666666666669</ele><time>2026-03-15T14:22:04Z</time></trkpt><trkpt lat="45.660412699018416" lon="10.064491733415789"><ele>243.0</ele><time>2026-03-15T14:22:05Z</time></trkpt><trkpt lat="45.66021691359169" lon="10.064380535567798"><ele>241.0</ele><time>2026-03-15T14:22:06Z</time></trkpt><trkpt lat="45.66001631280171" lon="10.064270293829276"><ele>239.0</ele><time>2026-03-15T14:22:07Z</time></trkpt><trkpt lat="45.65980269136193" lon="10.064180650749611"><ele>237.0</ele><time>2026-03-15T14:22:08Z</time></trkpt><trkpt lat="45.659582307335256" lon="10.06410509164137"><ele>241.66666666666669</ele><time>2026-03-15T14:22:09Z</time></trkpt><trkpt lat="45.65936921638198" lon="10.064034203462924"><ele>246.33333333333334</ele><time>2026-03-15T14:22:10Z</time></trkpt><trkpt lat="45.65916260197879" lon="10.063961907755917"><ele>251.0</ele><time>2026-03-15T14:22:11Z</time></trkpt><trkpt lat="45.65896104368714" lon="10.063892698480096"><ele>251.0</ele><time>2026-03-15T14:22:12Z</time></trkpt><trkpt lat="45.65878410355683" lon="10.063842316834107"><ele>251.0</ele><time>2026-03-15T14:22:13Z</time></trkpt><trkpt lat="45.65863132689073" lon="10.06382458853955"><ele>251.0</ele><time>2026-03-15T14:22:14Z</time></trkpt><trkpt lat="45.6585082863142" lon="10.063835812500955"><ele>254.0</ele><time>2026-03-15T14:22:15Z</time></trkpt><trkpt lat="45.658363467352885" lon="10.063861073442196"><ele>257.0</ele><time>2026-03-15T14:22:16Z</time></trkpt><trkpt lat="45.65821999782722" lon="10.063900125744022"><ele>260.0</ele><time>2026-03-15T14:22:17Z</time></trkpt><trkpt lat="45.65808868712613" lon="10.06393874788359"><ele>263.0</ele><time>2026-03-15T14:22:18Z</time></trkpt><trkpt lat="45.65795168370473" lon="10.063971977405904"><ele>263.0</ele><time>2026-03-15T14:22:19Z</time></trkpt><trkpt lat="45.657828645195124" lon="10.063965037564264"><ele>263.0</ele><time>2026-03-15T14:22:20Z</time></trkpt><trkpt lat="45.6577334776876" lon="10.06389184286017"><ele>263.0</ele><time>2026-03-15T14:22:21Z</time></trkpt><trkpt lat="45.657631292585144" lon="10.063790338437373"><ele>263.0</ele><time>2026-03-15T14:22:22Z</time></trkpt><trkpt lat="45.657524807694784" lon="10.063707304675255"><ele>264.5</ele><time>2026-03-15T14:22:23Z</time></trkpt><trkpt lat="45.65743793259989" lon="10.063679110274123"><ele>266.0</ele><time>2026-03-15T14:22:24Z</time></trkpt><trkpt lat="45.65736270046222" lon="10.063728760049907"><ele>267.5</ele><time>2026-03-15T14:22:25Z</time></trkpt><trkpt lat="45.65730758059466" lon="10.063833125332588"><ele>269.0</ele><time>2026-03-15T14:22:26Z</time></trkpt><trkpt lat="45.65728693214852" lon="10.063964627203678"><ele>270.5</ele><time>2026-03-15T14:22:27Z</time></trkpt><trkpt lat="45.657308655148555" lon="10.064084792313437"><ele>272.0</ele><time>2026-03-15T14:22:28Z</time></trkpt><trkpt lat="45.65737771864899" lon="10.064183170706375"><ele>275.75</ele><time>2026-03-15T14:22:29Z</time></trkpt><trkpt lat="45.657490312431285" lon="10.064233887325933"><ele>279.5</ele><time>2026-03-15T14:22:30Z</time></trkpt><trkpt lat="45.657615781598395" lon="10.064270837691401"><ele>283.25</ele><time>2026-03-15T14:22:31Z</time></trkpt><trkpt lat="45.65777752195635" lon="10.064285778114382"><ele>287.0</ele><time>2026-03-15T14:22:32Z</time></trkpt><trkpt lat="45.65793502170411" lon="10.06430329755182"><ele>287.0</ele><time>2026-03-15T14:22:33Z</time></trkpt><trkpt lat="45.65807040855998" lon="10.06432668856479"><ele>287.0</ele><time>2026-03-15T14:22:34Z</time></trkpt><trkpt lat="45.65818392500931" lon="10.064356358216841"><ele>287.0</ele><time>2026-03-15T14:22:35Z</time></trkpt><trkpt lat="45.65829560882112" lon="10.06437981933726"><ele>287.0</ele><time>2026-03-15T14:22:36Z</time></trkpt><trkpt lat="45.65840006129134" lon="10.064401544164328"><ele>287.0</ele><time>2026-03-15T14:22:37Z</time></trkpt><trkpt lat="45.65849037939955" lon="10.064412704263162"><ele>287.0</ele><time>2026-03-15T14:22:38Z</time></trkpt><trkpt lat="45.65857091113676" lon="10.064432966975447"><ele>287.0</ele><time>2026-03-15T14:22:39Z</time></trkpt><trkpt lat="45.65864327713313" lon="10.064452565973179"><ele>287.0</ele><time>2026-03-15T14:22:40Z</time></trkpt><trkpt lat="45.658704848694654" lon="10.064473014156418"><ele>287.0</ele><time>2026-03-15T14:22:41Z</time></trkpt><trkpt lat="45.6587998638869" lon="10.064540304260909"><ele>287.0</ele><time>2026-03-15T14:22:43Z</time></trkpt><trkpt lat="45.65890785346543" lon="10.06460643650128"><ele>284.25</ele><time>2026-03-15T14:22:44.999Z</time></trkpt><trkpt lat="45.658990156578916" lon="10.064672945064396"><ele>281.5</ele><time>2026-03-15T14:22:45.999Z</time></trkpt><trkpt lat="45.65906353662941" lon="10.064787055467592"><ele>278.75</ele><time>2026-03-15T14:22:46.999Z</time></trkpt><trkpt lat="45.659168722005646" lon="10.064922064300971"><ele>276.0</ele><time>2026-03-15T14:22:47.999Z</time></trkpt><trkpt lat="45.6593169519086" lon="10.06508454690543"><ele>278.0</ele><time>2026-03-15T14:22:48.999Z</time></trkpt><trkpt lat="45.659464645370576" lon="10.065278764717535"><ele>280.0</ele><time>2026-03-15T14:22:49.999Z</time></trkpt><trkpt lat="45.65961337984482" lon="10.065501550884708"><ele>282.0</ele><time>2026-03-15T14:22:50.999Z</time></trkpt><trkpt lat="45.65974602271719" lon="10.065677503786986"><ele>290.3333333333333</ele><time>2026-03-15T14:22:51.999Z</time></trkpt><trkpt lat="45.65984895325204" lon="10.065840503832055"><ele>298.66666666666663</ele><time>2026-03-15T14:22:52.999Z</time></trkpt><trkpt lat="45.659945983919314" lon="10.066030062422094"><ele>307.0</ele><time>2026-03-15T14:22:53.999Z</time></trkpt><trkpt lat="45.66003790686128" lon="10.066241886612644"><ele>307.0</ele><time>2026-03-15T14:22:54.999Z</time></trkpt><trkpt lat="45.66013412175787" lon="10.066465013073838"><ele>307.0</ele><time>2026-03-15T14:22:55.999Z</time></trkpt><trkpt lat="45.66022669493728" lon="10.066682689920476"><ele>307.0</ele><time>2026-03-15T14:22:56.999Z</time></trkpt><trkpt lat="45.66031985126813" lon="10.066903376058285"><ele>309.0</ele><time>2026-03-15T14:22:57.999Z</time></trkpt><trkpt lat="45.660433324739316" lon="10.067158645326211"><ele>311.0</ele><time>2026-03-15T14:22:58.999Z</time></trkpt><trkpt lat="45.66055575916171" lon="10.067441262413686"><ele>313.0</ele><time>2026-03-15T14:22:59.999Z</time></trkpt><trkpt lat="45.660673656024706" lon="10.067730514595318"><ele>313.0</ele><time>2026-03-15T14:23:00.999Z</time></trkpt><trkpt lat="45.6607562269149" lon="10.067961100585077"><ele>313.0</ele><time>2026-03-15T14:23:01.999Z</time></trkpt><trkpt lat="45.66081578452718" lon="10.068164276347403"><ele>313.0</ele><time>2026-03-15T14:23:02.999Z</time></trkpt><trkpt lat="45.660858619465294" lon="10.068365600294182"><ele>317.5</ele><time>2026-03-15T14:23:03.999Z</time></trkpt><trkpt lat="45.660873511478115" lon="10.068545978260978"><ele>322.0</ele><time>2026-03-15T14:23:04.999Z</time></trkpt><trkpt lat="45.660877975809456" lon="10.068742858907772"><ele>326.5</ele><time>2026-03-15T14:23:05.999Z</time></trkpt><trkpt lat="45.660895143847306" lon="10.068911827909027"><ele>331.0</ele><time>2026-03-15T14:23:06.999Z</time></trkpt><trkpt lat="45.66094012890081" lon="10.069037562095536"><ele>331.0</ele><time>2026-03-15T14:23:07.999Z</time></trkpt><trkpt lat="45.661041686585655" lon="10.0690901707755"><ele>331.0</ele><time>2026-03-15T14:23:08.999Z</time></trkpt><trkpt lat="45.661143751245746" lon="10.069058844542095"><ele>331.0</ele><time>2026-03-15T14:23:09.999Z</time></trkpt><trkpt lat="45.66122101192262" lon="10.06896083491043"><ele>331.0</ele><time>2026-03-15T14:23:10.999Z</time></trkpt><trkpt lat="45.661270744852004" lon="10.068805440926312"><ele>331.0</ele><time>2026-03-15T14:23:11.999Z</time></trkpt><trkpt lat="45.661317675400284" lon="10.068587949634692"><ele>331.75</ele><time>2026-03-15T14:23:12.999Z</time></trkpt><trkpt lat="45.661367741942676" lon="10.068344368816698"><ele>332.5</ele><time>2026-03-15T14:23:13.999Z</time></trkpt><trkpt lat="45.661422250492755" lon="10.068195706083031"><ele>333.25</ele><time>2026-03-15T14:23:14.999Z</time></trkpt><trkpt lat="45.66148305703358" lon="10.06808587141293"><ele>334.0</ele><time>2026-03-15T14:23:15.999Z</time></trkpt><trkpt lat="45.661620222683396" lon="10.068068207432077"><ele>329.66666666666663</ele><time>2026-03-15T14:23:16.999Z</time></trkpt><trkpt lat="45.661783649292566" lon="10.068044077269823"><ele>325.3333333333333</ele><time>2026-03-15T14:23:17.999Z</time></trkpt><trkpt lat="45.66193735591252" lon="10.068024298669563"><ele>321.0</ele><time>2026-03-15T14:23:18.999Z</time></trkpt><trkpt lat="45.66204550027645" lon="10.068135956065545"><ele>321.0</ele><time>2026-03-15T14:23:19.999Z</time></trkpt><trkpt lat="45.6621460043234" lon="10.068261738906509"><ele>321.0</ele><time>2026-03-15T14:23:20.999Z</time></trkpt><trkpt lat="45.66227768075853" lon="10.068414739524751"><ele>321.0</ele><time>2026-03-15T14:23:21.999Z</time></trkpt><trkpt lat="45.66239939376244" lon="10.068611127126884"><ele>325.0</ele><time>2026-03-15T14:23:22.999Z</time></trkpt><trkpt lat="45.66251943717147" lon="10.068798440854758"><ele>329.0</ele><time>2026-03-15T14:23:23.999Z</time></trkpt><trkpt lat="45.66263739896594" lon="10.068951799855006"><ele>333.0</ele><time>2026-03-15T14:23:24.999Z</time></trkpt><trkpt lat="45.66274728266106" lon="10.069065120597337"><ele>336.0</ele><time>2026-03-15T14:23:25.999Z</time></trkpt><trkpt lat="45.662867339160115" lon="10.069103471975644"><ele>339.0</ele><time>2026-03-15T14:23:26.999Z</time></trkpt><trkpt lat="45.663009655048135" lon="10.069080674904244"><ele>342.0</ele><time>2026-03-15T14:23:27.999Z</time></trkpt><trkpt lat="45.663137779061096" lon="10.068981856240063"><ele>345.0</ele><time>2026-03-15T14:23:28.999Z</time></trkpt><trkpt lat="45.66325370404567" lon="10.068840875138195"><ele>345.0</ele><time>2026-03-15T14:23:29.999Z</time></trkpt><trkpt lat="45.66334182816184" lon="10.068723508165187"><ele>345.0</ele><time>2026-03-15T14:23:30.999Z</time></trkpt><trkpt lat="45.66343364739586" lon="10.068677624040072"><ele>345.0</ele><time>2026-03-15T14:23:31.999Z</time></trkpt><trkpt lat="45.66352464876471" lon="10.068717873922596"><ele>345.0</ele><time>2026-03-15T14:23:32.999Z</time></trkpt><trkpt lat="45.663590400076956" lon="10.068815518005643"><ele>345.0</ele><time>2026-03-15T14:23:33.999Z</time></trkpt><trkpt lat="45.66362336620029" lon="10.068971399303976"><ele>345.5</ele><time>2026-03-15T14:23:34.999Z</time></trkpt><trkpt lat="45.663587024077856" lon="10.069122621228773"><ele>346.0</ele><time>2026-03-15T14:23:35.999Z</time></trkpt><trkpt lat="45.66351032347564" lon="10.069252390512895"><ele>346.5</ele><time>2026-03-15T14:23:36.999Z</time></trkpt><trkpt lat="45.66343845435071" lon="10.069410603499826"><ele>347.0</ele><time>2026-03-15T14:23:37.998Z</time></trkpt><trkpt lat="45.66337190193588" lon="10.069524082968588"><ele>347.0</ele><time>2026-03-15T14:23:38.998Z</time></trkpt><trkpt lat="45.66332276166958" lon="10.069685277340676"><ele>347.0</ele><time>2026-03-15T14:23:39.998Z</time></trkpt><trkpt lat="45.66329838462851" lon="10.069873446002912"><ele>347.0</ele><time>2026-03-15T14:23:40.998Z</time></trkpt><trkpt lat="45.6632568453273" lon="10.07001171196448"><ele>347.0</ele><time>2026-03-15T14:23:41.998Z</time></trkpt><trkpt lat="45.66316722536097" lon="10.070079366746876"><ele>347.0</ele><time>2026-03-15T14:23:42.998Z</time></trkpt><trkpt lat="45.66306279010376" lon="10.070058729369222"><ele>347.0</ele><time>2026-03-15T14:23:43.998Z</time></trkpt><trkpt lat="45.66299047538168" lon="10.069927923858907"><ele>347.0</ele><time>2026-03-15T14:23:44.998Z</time></trkpt><trkpt lat="45.66289737162071" lon="10.069764348803957"><ele>347.0</ele><time>2026-03-15T14:23:45.998Z</time></trkpt><trkpt lat="45.66281672707493" lon="10.06956713323779"><ele>347.25</ele><time>2026-03-15T14:23:46.998Z</time></trkpt><trkpt lat="45.66272179981768" lon="10.069460205954543"><ele>347.5</ele><time>2026-03-15T14:23:47.998Z</time></trkpt><trkpt lat="45.662602879936344" lon="10.069427012994046"><ele>347.75</ele><time>2026-03-15T14:23:48.998Z</time></trkpt><trkpt lat="45.662453967399465" lon="10.069429597343152"><ele>348.0</ele><time>2026-03-15T14:23:49.998Z</time></trkpt><trkpt lat="45.66229530080455" lon="10.069404972721951"><ele>348.0</ele><time>2026-03-15T14:23:50.998Z</time></trkpt><trkpt lat="45.66216103242699" lon="10.06931082512625"><ele>348.0</ele><time>2026-03-15T14:23:51.998Z</time></trkpt><trkpt lat="45.66202919407814" lon="10.069250656791777"><ele>348.0</ele><time>2026-03-15T14:23:52.998Z</time></trkpt><trkpt lat="45.66193307736849" lon="10.069140846874566"><ele>348.0</ele><time>2026-03-15T14:23:53.998Z</time></trkpt><trkpt lat="45.66191166557693" lon="10.068975416520013"><ele>345.2</ele><time>2026-03-15T14:23:54.998Z</time></trkpt><trkpt lat="45.66187446388534" lon="10.068857210476175"><ele>342.4</ele><time>2026-03-15T14:23:55.998Z</time></trkpt><trkpt lat="45.66180001016903" lon="10.068791440510154"><ele>339.59999999999997</ele><time>2026-03-15T14:23:57.001Z</time></trkpt><trkpt lat="45.661693110408024" lon="10.068813358127258"><ele>336.79999999999995</ele><time>2026-03-15T14:23:58.001Z</time></trkpt><trkpt lat="45.661605845808175" lon="10.068914243307333"><ele>334.0</ele><time>2026-03-15T14:23:59.001Z</time></trkpt><trkpt lat="45.66153130070772" lon="10.069086490067724"><ele>340.0</ele><time>2026-03-15T14:24:00.001Z</time></trkpt><trkpt lat="45.66144696925998" lon="10.06930502124656"><ele>346.0</ele><time>2026-03-15T14:24:01.001Z</time></trkpt><trkpt lat="45.661345251312355" lon="10.069517901763671"><ele>352.0</ele><time>2026-03-15T14:24:02.001Z</time></trkpt><trkpt lat="45.66124218450253" lon="10.069713342644643"><ele>352.0</ele><time>2026-03-15T14:24:03.001Z</time></trkpt><trkpt lat="45.66114257996698" lon="10.069909676162627"><ele>352.0</ele><time>2026-03-15T14:24:04.001Z</time></trkpt><trkpt lat="45.661054773821306" lon="10.070093011595327"><ele>352.0</ele><time>2026-03-15T14:24:05.001Z</time></trkpt><trkpt lat="45.66096057457133" lon="10.070240662824798"><ele>354.8</ele><time>2026-03-15T14:24:06.001Z</time></trkpt><trkpt lat="45.66087452418264" lon="10.07037898395786"><ele>357.6</ele><time>2026-03-15T14:24:07.001Z</time></trkpt><trkpt lat="45.66078727530788" lon="10.070471555138084"><ele>360.40000000000003</ele><time>2026-03-15T14:24:08.001Z</time></trkpt><trkpt lat="45.660693210507866" lon="10.070525025421308"><ele>363.20000000000005</ele><time>2026-03-15T14:24:09.001Z</time></trkpt><trkpt lat="45.660611376086784" lon="10.070521909608813"><ele>366.0</ele><time>2026-03-15T14:24:10.001Z</time></trkpt><trkpt lat="45.66055140891931" lon="10.070423965824439"><ele>366.0</ele><time>2026-03-15T14:24:11.001Z</time></trkpt><trkpt lat="45.66052612189441" lon="10.070289964759526"><ele>366.0</ele><time>2026-03-15T14:24:12.001Z</time></trkpt><trkpt lat="45.66050637199818" lon="10.070174244590094"><ele>366.0</ele><time>2026-03-15T14:24:13.001Z</time></trkpt><trkpt lat="45.66047075598979" lon="10.07009922574989"><ele>366.0</ele><time>2026-03-15T14:24:14.001Z</time></trkpt><trkpt lat="45.66040716650085" lon="10.070049749928584"><ele>366.0</ele><time>2026-03-15T14:24:15.001Z</time></trkpt><trkpt lat="45.66032732137678" lon="10.069984604526264"><ele>366.0</ele><time>2026-03-15T14:24:16.001Z</time></trkpt><trkpt lat="45.660204935657006" lon="10.069879670256158"><ele>368.0</ele><time>2026-03-15T14:24:17.001Z</time></trkpt><trkpt lat="45.66004324588496" lon="10.0697584186123"><ele>370.0</ele><time>2026-03-15T14:24:18.001Z</time></trkpt><trkpt lat="45.65986752921174" lon="10.06962123149119"><ele>372.0</ele><time>2026-03-15T14:24:19Z</time></trkpt><trkpt lat="45.65969339101245" lon="10.069498699828312"><ele>372.0</ele><time>2026-03-15T14:24:20Z</time></trkpt><trkpt lat="45.65954053986936" lon="10.069368989759797"><ele>372.0</ele><time>2026-03-15T14:24:21Z</time></trkpt><trkpt lat="45.659417752662776" lon="10.06926436102597"><ele>372.0</ele><time>2026-03-15T14:24:22Z</time></trkpt><trkpt lat="45.65933956934985" lon="10.06915397772606"><ele>372.0</ele><time>2026-03-15T14:24:23Z</time></trkpt><trkpt lat="45.65934003666727" lon="10.069008741470782"><ele>372.6</ele><time>2026-03-15T14:24:24Z</time></trkpt><trkpt lat="45.65933598429393" lon="10.06886843140957"><ele>373.20000000000005</ele><time>2026-03-15T14:24:25Z</time></trkpt><trkpt lat="45.659342053469736" lon="10.068723911051661"><ele>373.8</ele><time>2026-03-15T14:24:26Z</time></trkpt><trkpt lat="45.65929528166979" lon="10.06861928030683"><ele>374.4</ele><time>2026-03-15T14:24:27Z</time></trkpt><trkpt lat="45.65919921520944" lon="10.068584659251194"><ele>375.0</ele><time>2026-03-15T14:24:28Z</time></trkpt><trkpt lat="45.65910267945524" lon="10.068637279092167"><ele>375.0</ele><time>2026-03-15T14:24:29Z</time></trkpt><trkpt lat="45.65904715772924" lon="10.068754410022184"><ele>375.0</ele><time>2026-03-15T14:24:30Z</time></trkpt><trkpt lat="45.659048255340565" lon="10.06889993253624"><ele>375.0</ele><time>2026-03-15T14:24:31Z</time></trkpt><trkpt lat="45.65910771980677" lon="10.069032283810598"><ele>375.0</ele><time>2026-03-15T14:24:32Z</time></trkpt><trkpt lat="45.65919903980978" lon="10.069174182159568"><ele>375.0</ele><time>2026-03-15T14:24:33Z</time></trkpt><trkpt lat="45.65928367150719" lon="10.06933766933298"><ele>374.0</ele><time>2026-03-15T14:24:34Z</time></trkpt><trkpt lat="45.65937668866161" lon="10.069498824540785"><ele>373.0</ele><time>2026-03-15T14:24:35Z</time></trkpt><trkpt lat="45.65949210693647" lon="10.069671441743965"><ele>372.0</ele><time>2026-03-15T14:24:36Z</time></trkpt><trkpt lat="45.65955994003487" lon="10.069916194772718"><ele>374.75</ele><time>2026-03-15T14:24:37Z</time></trkpt><trkpt lat="45.65963164806318" lon="10.070108947557484"><ele>377.5</ele><time>2026-03-15T14:24:38Z</time></trkpt><trkpt lat="45.65969460414809" lon="10.070284927754916"><ele>380.25</ele><time>2026-03-15T14:24:39Z</time></trkpt><trkpt lat="45.65975217283045" lon="10.070492800790865"><ele>383.0</ele><time>2026-03-15T14:24:40Z</time></trkpt><trkpt lat="45.659782531830395" lon="10.070722542798714"><ele>387.6666666666667</ele><time>2026-03-15T14:24:41Z</time></trkpt><trkpt lat="45.65981704008197" lon="10.07093173690109"><ele>392.33333333333337</ele><time>2026-03-15T14:24:42Z</time></trkpt><trkpt lat="45.659899131961105" lon="10.071149724535205"><ele>397.0</ele><time>2026-03-15T14:24:43Z</time></trkpt><trkpt lat="45.65999763385187" lon="10.071379883780935"><ele>397.0</ele><time>2026-03-15T14:24:44Z</time></trkpt><trkpt lat="45.66009930968074" lon="10.071604562289146"><ele>397.0</ele><time>2026-03-15T14:24:45Z</time></trkpt><trkpt lat="45.660192651456875" lon="10.071772192592844"><ele>397.0</ele><time>2026-03-15T14:24:46Z</time></trkpt><trkpt lat="45.66031367662419" lon="10.071900643473661"><ele>399.0</ele><time>2026-03-15T14:24:47Z</time></trkpt><trkpt lat="45.660465571532214" lon="10.072031772679592"><ele>401.0</ele><time>2026-03-15T14:24:48Z</time></trkpt><trkpt lat="45.66062449508766" lon="10.072141229019174"><ele>403.0</ele><time>2026-03-15T14:24:49Z</time></trkpt><trkpt lat="45.66079838607142" lon="10.07222353674462"><ele>403.0</ele><time>2026-03-15T14:24:50Z</time></trkpt><trkpt lat="45.66097787425013" lon="10.072267066106189"><ele>403.0</ele><time>2026-03-15T14:24:51Z</time></trkpt><trkpt lat="45.66112862373661" lon="10.072326892060596"><ele>403.0</ele><time>2026-03-15T14:24:52Z</time></trkpt><trkpt lat="45.661257299127975" lon="10.072412364631935"><ele>407.33333333333337</ele><time>2026-03-15T14:24:53Z</time></trkpt><trkpt lat="45.661389565277865" lon="10.072521347368006"><ele>411.66666666666663</ele><time>2026-03-15T14:24:54Z</time></trkpt><trkpt lat="45.661523961610676" lon="10.072653973158046"><ele>416.0</ele><time>2026-03-15T14:24:55Z</time></trkpt><trkpt lat="45.661643887843276" lon="10.072778462328928"><ele>416.0</ele><time>2026-03-15T14:24:56Z</time></trkpt><trkpt lat="45.661739337126825" lon="10.07289336593064"><ele>416.0</ele><time>2026-03-15T14:24:57Z</time></trkpt><trkpt lat="45.661795622061156" lon="10.073055360241694"><ele>416.0</ele><time>2026-03-15T14:24:58Z</time></trkpt><trkpt lat="45.661835914257544" lon="10.073227645004456"><ele>416.0</ele><time>2026-03-15T14:24:59Z</time></trkpt><trkpt lat="45.66191549770545" lon="10.073377833472204"><ele>418.0</ele><time>2026-03-15T14:25:00Z</time></trkpt><trkpt lat="45.661973997495515" lon="10.073517792688916"><ele>420.0</ele><time>2026-03-15T14:25:01Z</time></trkpt><trkpt lat="45.66200949575135" lon="10.073628302422808"><ele>422.0</ele><time>2026-03-15T14:25:02Z</time></trkpt><trkpt lat="45.66194968970238" lon="10.073804342077182"><ele>424.0</ele><time>2026-03-15T14:25:04Z</time></trkpt><trkpt lat="45.661847316069135" lon="10.073831133818056"><ele>426.0</ele><time>2026-03-15T14:25:05Z</time></trkpt><trkpt lat="45.661768157737136" lon="10.073757566331603"><ele>428.5</ele><time>2026-03-15T14:25:06Z</time></trkpt><trkpt lat="45.66174678422585" lon="10.07362612272381"><ele>431.0</ele><time>2026-03-15T14:25:06.999Z</time></trkpt><trkpt lat="45.661723605202845" lon="10.073470224024817"><ele>433.5</ele><time>2026-03-15T14:25:07.999Z</time></trkpt><trkpt lat="45.66172910511691" lon="10.073269414081762"><ele>436.0</ele><time>2026-03-15T14:25:08.999Z</time></trkpt><trkpt lat="45.66170773001729" lon="10.07310781641182"><ele>431.0</ele><time>2026-03-15T14:25:09.999Z</time></trkpt><trkpt lat="45.66164089217236" lon="10.073009640163527"><ele>426.0</ele><time>2026-03-15T14:25:10.999Z</time></trkpt><trkpt lat="45.661511778722456" lon="10.072934975571398"><ele>421.0</ele><time>2026-03-15T14:25:11.999Z</time></trkpt><trkpt lat="45.66138588677655" lon="10.07286960854312"><ele>416.0</ele><time>2026-03-15T14:25:12.999Z</time></trkpt><trkpt lat="45.66127284069999" lon="10.072843495109923"><ele>416.0</ele><time>2026-03-15T14:25:13.999Z</time></trkpt><trkpt lat="45.66116044747985" lon="10.072845900114752"><ele>416.0</ele><time>2026-03-15T14:25:14.999Z</time></trkpt><trkpt lat="45.661040109771434" lon="10.072835528581082"><ele>416.0</ele><time>2026-03-15T14:25:15.999Z</time></trkpt><trkpt lat="45.66091694947487" lon="10.072799180142926"><ele>416.0</ele><time>2026-03-15T14:25:16.999Z</time></trkpt><trkpt lat="45.660813123168666" lon="10.072755969714063"><ele>418.0</ele><time>2026-03-15T14:25:17.999Z</time></trkpt><trkpt lat="45.66071647029317" lon="10.072751503286087"><ele>420.0</ele><time>2026-03-15T14:25:18.999Z</time></trkpt><trkpt lat="45.66061691671984" lon="10.072809601106567"><ele>422.0</ele><time>2026-03-15T14:25:19.999Z</time></trkpt><trkpt lat="45.660519543976385" lon="10.072910050231346"><ele>424.0</ele><time>2026-03-15T14:25:20.998Z</time></trkpt><trkpt lat="45.66042709095945" lon="10.073010958455964"><ele>426.0</ele><time>2026-03-15T14:25:21.998Z</time></trkpt><trkpt lat="45.660339141659314" lon="10.073093138946636"><ele>426.8</ele><time>2026-03-15T14:25:22.998Z</time></trkpt><trkpt lat="45.660249130680306" lon="10.073169459612028"><ele>427.6</ele><time>2026-03-15T14:25:23.998Z</time></trkpt><trkpt lat="45.66015433876832" lon="10.073231600161627"><ele>428.4</ele><time>2026-03-15T14:25:24.998Z</time></trkpt><trkpt lat="45.660049596590376" lon="10.07325980110439"><ele>429.2</ele><time>2026-03-15T14:25:25.998Z</time></trkpt><trkpt lat="45.659942343860926" lon="10.073238576089715"><ele>430.0</ele><time>2026-03-15T14:25:26.998Z</time></trkpt><trkpt lat="45.659826091641776" lon="10.073179763790357"><ele>430.0</ele><time>2026-03-15T14:25:27.998Z</time></trkpt><trkpt lat="45.659690537032134" lon="10.073109083298915"><ele>430.0</ele><time>2026-03-15T14:25:28.998Z</time></trkpt><trkpt lat="45.65955666954164" lon="10.072987276444326"><ele>430.0</ele><time>2026-03-15T14:25:29.998Z</time></trkpt><trkpt lat="45.65935876177139" lon="10.072907123133914"><ele>436.0</ele><time>2026-03-15T14:25:30.998Z</time></trkpt><trkpt lat="45.65914391709454" lon="10.072847975144487"><ele>442.0</ele><time>2026-03-15T14:25:31.998Z</time></trkpt><trkpt lat="45.658977387943935" lon="10.072731531411044"><ele>448.0</ele><time>2026-03-15T14:25:32.998Z</time></trkpt><trkpt lat="45.65882634733483" lon="10.072682400368686"><ele>448.0</ele><time>2026-03-15T14:25:33.998Z</time></trkpt><trkpt lat="45.65865369659368" lon="10.072570322660644"><ele>448.0</ele><time>2026-03-15T14:25:34.998Z</time></trkpt><trkpt lat="45.65851350001183" lon="10.072402141805213"><ele>448.0</ele><time>2026-03-15T14:25:35.998Z</time></trkpt><trkpt lat="45.658377175838424" lon="10.072292754977921"><ele>447.75</ele><time>2026-03-15T14:25:36.998Z</time></trkpt><trkpt lat="45.65827104566411" lon="10.07215717429924"><ele>447.5</ele><time>2026-03-15T14:25:37.998Z</time></trkpt><trkpt lat="45.658161675693336" lon="10.072051381796141"><ele>447.25</ele><time>2026-03-15T14:25:38.998Z</time></trkpt><trkpt lat="45.65801339944736" lon="10.071971039829958"><ele>447.0</ele><time>2026-03-15T14:25:39.998Z</time></trkpt><trkpt lat="45.65781523780784" lon="10.07191240603196"><ele>453.0</ele><time>2026-03-15T14:25:40.998Z</time></trkpt><trkpt lat="45.65760049675832" lon="10.07187371382957"><ele>459.0</ele><time>2026-03-15T14:25:41.998Z</time></trkpt><trkpt lat="45.657416061212686" lon="10.071853357811818"><ele>465.0</ele><time>2026-03-15T14:25:42.998Z</time></trkpt><trkpt lat="45.65725679108185" lon="10.071828151939988"><ele>465.0</ele><time>2026-03-15T14:25:43.998Z</time></trkpt><trkpt lat="45.65708145391664" lon="10.071785964586041"><ele>465.0</ele><time>2026-03-15T14:25:44.998Z</time></trkpt><trkpt lat="45.656903149519906" lon="10.071727798988874"><ele>465.0</ele><time>2026-03-15T14:25:45.998Z</time></trkpt><trkpt lat="45.656749711747636" lon="10.071659190089832"><ele>460.33333333333337</ele><time>2026-03-15T14:25:46.998Z</time></trkpt><trkpt lat="45.65661052337958" lon="10.071566718787352"><ele>455.6666666666667</ele><time>2026-03-15T14:25:47.998Z</time></trkpt><trkpt lat="45.65646590752314" lon="10.07146167414018"><ele>451.0</ele><time>2026-03-15T14:25:48.998Z</time></trkpt><trkpt lat="45.65630701887101" lon="10.071382854887643"><ele>451.0</ele><time>2026-03-15T14:25:49.998Z</time></trkpt><trkpt lat="45.65615266907348" lon="10.071316924992011"><ele>451.0</ele><time>2026-03-15T14:25:50.998Z</time></trkpt><trkpt lat="45.656026141423055" lon="10.071220564550838"><ele>451.0</ele><time>2026-03-15T14:25:51.998Z</time></trkpt><trkpt lat="45.65592432957789" lon="10.071091879010964"><ele>451.0</ele><time>2026-03-15T14:25:52.998Z</time></trkpt><trkpt lat="45.655830433098416" lon="10.071019553972484"><ele>452.20000000000005</ele><time>2026-03-15T14:25:53.998Z</time></trkpt><trkpt lat="45.65574500027507" lon="10.071039377850541"><ele>453.40000000000003</ele><time>2026-03-15T14:25:54.998Z</time></trkpt><trkpt lat="45.655679036052675" lon="10.071109800755524"><ele>454.6</ele><time>2026-03-15T14:25:55.998Z</time></trkpt><trkpt lat="45.655681951924024" lon="10.07127782873069"><ele>455.8</ele><time>2026-03-15T14:25:56.998Z</time></trkpt><trkpt lat="45.655687895178154" lon="10.071486050913666"><ele>457.0</ele><time>2026-03-15T14:25:57.998Z</time></trkpt><trkpt lat="45.65565064405944" lon="10.071753397993204"><ele>462.0</ele><time>2026-03-15T14:25:58.997Z</time></trkpt><trkpt lat="45.65557947844435" lon="10.071999971778464"><ele>467.0</ele><time>2026-03-15T14:25:59.997Z</time></trkpt><trkpt lat="45.65554130998273" lon="10.072191337058449"><ele>472.0</ele><time>2026-03-15T14:26:00.997Z</time></trkpt><trkpt lat="45.65545033674312" lon="10.07229932142041"><ele>477.0</ele><time>2026-03-15T14:26:01.997Z</time></trkpt><trkpt lat="45.65533405660465" lon="10.072360431585565"><ele>471.0</ele><time>2026-03-15T14:26:03Z</time></trkpt><trkpt lat="45.65517682922021" lon="10.072318518862986"><ele>465.0</ele><time>2026-03-15T14:26:04Z</time></trkpt><trkpt lat="45.65498693385575" lon="10.072313078915226"><ele>459.0</ele><time>2026-03-15T14:26:05Z</time></trkpt><trkpt lat="45.65479992793127" lon="10.072298217917645"><ele>459.0</ele><time>2026-03-15T14:26:06Z</time></trkpt><trkpt lat="45.65462643426596" lon="10.072305336711448"><ele>459.0</ele><time>2026-03-15T14:26:07Z</time></trkpt><trkpt lat="45.654486959614914" lon="10.07231264553579"><ele>459.0</ele><time>2026-03-15T14:26:08Z</time></trkpt><trkpt lat="45.65438569447322" lon="10.072325697503334"><ele>459.0</ele><time>2026-03-15T14:26:09Z</time></trkpt><trkpt lat="45.65430508087843" lon="10.072369612897475"><ele>462.5</ele><time>2026-03-15T14:26:10Z</time></trkpt><trkpt lat="45.65425393042211" lon="10.072476851445812"><ele>466.0</ele><time>2026-03-15T14:26:11Z</time></trkpt><trkpt lat="45.65424966063417" lon="10.072630242828605"><ele>469.5</ele><time>2026-03-15T14:26:12Z</time></trkpt><trkpt lat="45.654304566715616" lon="10.072787772028983"><ele>473.0</ele><time>2026-03-15T14:26:13Z</time></trkpt><trkpt lat="45.654415404429464" lon="10.07294659407217"><ele>476.3333333333333</ele><time>2026-03-15T14:26:14Z</time></trkpt><trkpt lat="45.654581521287206" lon="10.073124028321503"><ele>479.66666666666663</ele><time>2026-03-15T14:26:15Z</time></trkpt><trkpt lat="45.654762720715354" lon="10.073308217557225"><ele>483.0</ele><time>2026-03-15T14:26:16Z</time></trkpt><trkpt lat="45.65498993885315" lon="10.073451983165047"><ele>484.0</ele><time>2026-03-15T14:26:17Z</time></trkpt><trkpt lat="45.65522415633345" lon="10.073585789833535"><ele>485.0</ele><time>2026-03-15T14:26:18Z</time></trkpt><trkpt lat="45.655397354534934" lon="10.073752563244033"><ele>486.3333333333333</ele><time>2026-03-15T14:26:19Z</time></trkpt><trkpt lat="45.65554645260893" lon="10.07388404936308"><ele>487.66666666666663</ele><time>2026-03-15T14:26:20Z</time></trkpt><trkpt lat="45.65567080113483" lon="10.07403063746907"><ele>489.0</ele><time>2026-03-15T14:26:21Z</time></trkpt><trkpt lat="45.65579991264205" lon="10.074231459155095"><ele>489.0</ele><time>2026-03-15T14:26:22Z</time></trkpt><trkpt lat="45.655945504443665" lon="10.074436223999204"><ele>489.0</ele><time>2026-03-15T14:26:23Z</time></trkpt><trkpt lat="45.656108060166936" lon="10.07461988347453"><ele>489.0</ele><time>2026-03-15T14:26:24Z</time></trkpt><trkpt lat="45.65621923021937" lon="10.074827417445492"><ele>490.33333333333337</ele><time>2026-03-15T14:26:25Z</time></trkpt><trkpt lat="45.656299039131994" lon="10.075041824575443"><ele>491.6666666666667</ele><time>2026-03-15T14:26:26Z</time></trkpt><trkpt lat="45.65637611141196" lon="10.075249720750664"><ele>493.0</ele><time>2026-03-15T14:26:27Z</time></trkpt><trkpt lat="45.65645743801324" lon="10.07546398921856"><ele>493.0</ele><time>2026-03-15T14:26:28Z</time></trkpt><trkpt lat="45.65655358338959" lon="10.075699276221604"><ele>493.0</ele><time>2026-03-15T14:26:29Z</time></trkpt><trkpt lat="45.65665373375805" lon="10.075941934161232"><ele>493.0</ele><time>2026-03-15T14:26:30Z</time></trkpt><trkpt lat="45.65675368499462" lon="10.076184943530096"><ele>494.0</ele><time>2026-03-15T14:26:31Z</time></trkpt><trkpt lat="45.65684579866993" lon="10.076413124252316"><ele>495.0</ele><time>2026-03-15T14:26:32Z</time></trkpt><trkpt lat="45.65692764215065" lon="10.07661460449663"><ele>496.0</ele><time>2026-03-15T14:26:33Z</time></trkpt><trkpt lat="45.65702670092162" lon="10.076826416166483"><ele>498.0</ele><time>2026-03-15T14:26:34Z</time></trkpt><trkpt lat="45.65717017882926" lon="10.077018714145064"><ele>500.0</ele><time>2026-03-15T14:26:35Z</time></trkpt><trkpt lat="45.657328115198794" lon="10.077149521783832"><ele>502.0</ele><time>2026-03-15T14:26:36Z</time></trkpt><trkpt lat="45.65744603235" lon="10.077263886456183"><ele>502.0</ele><time>2026-03-15T14:26:37Z</time></trkpt><trkpt lat="45.65752835777027" lon="10.077409662290778"><ele>502.0</ele><time>2026-03-15T14:26:38Z</time></trkpt><trkpt lat="45.65759281196039" lon="10.077605506107151"><ele>502.0</ele><time>2026-03-15T14:26:39Z</time></trkpt><trkpt lat="45.65770539664852" lon="10.077749476775821"><ele>502.0</ele><time>2026-03-15T14:26:40Z</time></trkpt><trkpt lat="45.65785852528144" lon="10.077914280005633"><ele>506.33333333333337</ele><time>2026-03-15T14:26:41Z</time></trkpt><trkpt lat="45.65804151668092" lon="10.078062666533057"><ele>510.66666666666663</ele><time>2026-03-15T14:26:41.999Z</time></trkpt><trkpt lat="45.65820575929403" lon="10.078260744274791"><ele>515.0</ele><time>2026-03-15T14:26:42.999Z</time></trkpt><trkpt lat="45.65837725034543" lon="10.078440878264331"><ele>515.3333333333333</ele><time>2026-03-15T14:26:43.999Z</time></trkpt><trkpt lat="45.65854649741426" lon="10.078618655179147"><ele>515.6666666666666</ele><time>2026-03-15T14:26:44.999Z</time></trkpt><trkpt lat="45.65870116510669" lon="10.078781117926885"><ele>516.0</ele><time>2026-03-15T14:26:45.999Z</time></trkpt><trkpt lat="45.65883232090834" lon="10.078918883775621"><ele>517.6666666666666</ele><time>2026-03-15T14:26:46.999Z</time></trkpt><trkpt lat="45.6589602264459" lon="10.078993432171739"><ele>519.3333333333333</ele><time>2026-03-15T14:26:47.999Z</time></trkpt><trkpt lat="45.65904156460936" lon="10.079185229120291"><ele>521.0</ele><time>2026-03-15T14:26:48.999Z</time></trkpt><trkpt lat="45.65928474071588" lon="10.078993039688557"><ele>525.3333333333333</ele><time>2026-03-15T14:26:49.999Z</time></trkpt><trkpt lat="45.65948345736277" lon="10.078896963312324"><ele>529.6666666666666</ele><time>2026-03-15T14:26:50.999Z</time></trkpt><trkpt lat="45.65970091121192" lon="10.078780732389763"><ele>534.0</ele><time>2026-03-15T14:26:51.999Z</time></trkpt><trkpt lat="45.659924290532054" lon="10.078690653675137"><ele>534.0</ele><time>2026-03-15T14:26:52.999Z</time></trkpt><trkpt lat="45.660113060425445" lon="10.078652155175885"><ele>534.0</ele><time>2026-03-15T14:26:53.999Z</time></trkpt><trkpt lat="45.6602784634065" lon="10.078646100004711"><ele>534.0</ele><time>2026-03-15T14:26:54.999Z</time></trkpt><trkpt lat="45.660446612791034" lon="10.078666070727209"><ele>534.6666666666666</ele><time>2026-03-15T14:26:55.999Z</time></trkpt><trkpt lat="45.66062431930047" lon="10.078649423831612"><ele>535.3333333333333</ele><time>2026-03-15T14:26:56.999Z</time></trkpt><trkpt lat="45.66081001938844" lon="10.07856465070853"><ele>536.0</ele><time>2026-03-15T14:26:57.999Z</time></trkpt><trkpt lat="45.66100430283934" lon="10.078473845443844"><ele>536.3333333333333</ele><time>2026-03-15T14:26:58.999Z</time></trkpt><trkpt lat="45.66120078701329" lon="10.078439863569853"><ele>536.6666666666666</ele><time>2026-03-15T14:26:59.999Z</time></trkpt><trkpt lat="45.66138347945512" lon="10.07844097107564"><ele>537.0</ele><time>2026-03-15T14:27:00.999Z</time></trkpt><trkpt lat="45.66156134362834" lon="10.078456421600631"><ele>537.0</ele><time>2026-03-15T14:27:01.999Z</time></trkpt><trkpt lat="45.6617461734551" lon="10.078499837969408"><ele>537.0</ele><time>2026-03-15T14:27:02.999Z</time></trkpt><trkpt lat="45.66194938554517" lon="10.078575003150661"><ele>537.0</ele><time>2026-03-15T14:27:03.999Z</time></trkpt><trkpt lat="45.662159338427074" lon="10.078677965443955"><ele>538.3333333333334</ele><time>2026-03-15T14:27:04.999Z</time></trkpt><trkpt lat="45.662371454970284" lon="10.078786345043001"><ele>539.6666666666667</ele><time>2026-03-15T14:27:05.999Z</time></trkpt><trkpt lat="45.662588275401895" lon="10.078866888217528"><ele>541.0</ele><time>2026-03-15T14:27:06.999Z</time></trkpt><trkpt lat="45.662772324193384" lon="10.078956889168"><ele>541.5</ele><time>2026-03-15T14:27:07.999Z</time></trkpt><trkpt lat="45.66290475509591" lon="10.079024267183073"><ele>542.0</ele><time>2026-03-15T14:27:08.999Z</time></trkpt><trkpt lat="45.66299600219353" lon="10.07910313657908"><ele>542.5</ele><time>2026-03-15T14:27:09.999Z</time></trkpt><trkpt lat="45.66305730139148" lon="10.07922109983903"><ele>543.0</ele><time>2026-03-15T14:27:10.999Z</time></trkpt><trkpt lat="45.663092761313095" lon="10.07939788401652"><ele>545.3333333333334</ele><time>2026-03-15T14:27:11.999Z</time></trkpt><trkpt lat="45.66314197695631" lon="10.079614344454468"><ele>547.6666666666667</ele><time>2026-03-15T14:27:12.999Z</time></trkpt><trkpt lat="45.66318362165645" lon="10.079838851561698"><ele>550.0</ele><time>2026-03-15T14:27:13.999Z</time></trkpt><trkpt lat="45.663238078634436" lon="10.080047466502604"><ele>552.6666666666667</ele><time>2026-03-15T14:27:14.999Z</time></trkpt><trkpt lat="45.66327257543583" lon="10.080237962032763"><ele>555.3333333333334</ele><time>2026-03-15T14:27:15.999Z</time></trkpt><trkpt lat="45.6633337370365" lon="10.08046461700317"><ele>558.0</ele><time>2026-03-15T14:27:16.999Z</time></trkpt><trkpt lat="45.663422333000895" lon="10.080706886760558"><ele>560.3333333333334</ele><time>2026-03-15T14:27:17.999Z</time></trkpt><trkpt lat="45.66350316128376" lon="10.080984488157453"><ele>562.6666666666667</ele><time>2026-03-15T14:27:18.999Z</time></trkpt><trkpt lat="45.66358524364808" lon="10.08126490240258"><ele>565.0</ele><time>2026-03-15T14:27:19.999Z</time></trkpt><trkpt lat="45.663667048996004" lon="10.081547891012994"><ele>569.6666666666667</ele><time>2026-03-15T14:27:20.999Z</time></trkpt><trkpt lat="45.663749806409676" lon="10.08181320691886"><ele>574.3333333333334</ele><time>2026-03-15T14:27:21.999Z</time></trkpt><trkpt lat="45.66383772324459" lon="10.082063672580649"><ele>579.0</ele><time>2026-03-15T14:27:22.999Z</time></trkpt><trkpt lat="45.66392122858493" lon="10.082315544160526"><ele>580.3333333333334</ele><time>2026-03-15T14:27:23.999Z</time></trkpt><trkpt lat="45.6639479756054" lon="10.08255144993401"><ele>581.6666666666667</ele><time>2026-03-15T14:27:24.999Z</time></trkpt><trkpt lat="45.663978939417355" lon="10.082759416824137"><ele>583.0</ele><time>2026-03-15T14:27:25.999Z</time></trkpt><trkpt lat="45.66396971335096" lon="10.08297071396941"><ele>583.0</ele><time>2026-03-15T14:27:26.999Z</time></trkpt><trkpt lat="45.663945278305036" lon="10.083179831159832"><ele>583.0</ele><time>2026-03-15T14:27:27.999Z</time></trkpt><trkpt lat="45.66390210837902" lon="10.083409443184676"><ele>583.0</ele><time>2026-03-15T14:27:28.999Z</time></trkpt><trkpt lat="45.66385031537593" lon="10.083653714273323"><ele>585.0</ele><time>2026-03-15T14:27:29.998Z</time></trkpt><trkpt lat="45.66380134746916" lon="10.08388704319221"><ele>587.0</ele><time>2026-03-15T14:27:30.998Z</time></trkpt><trkpt lat="45.663760457973304" lon="10.084104612663761"><ele>589.0</ele><time>2026-03-15T14:27:31.998Z</time></trkpt><trkpt lat="45.66372919475228" lon="10.08429803462437"><ele>592.0</ele><time>2026-03-15T14:27:32.998Z</time></trkpt><trkpt lat="45.66369132729133" lon="10.084494775509322"><ele>595.0</ele><time>2026-03-15T14:27:33.998Z</time></trkpt><trkpt lat="45.66365366278864" lon="10.084700555685465"><ele>598.0</ele><time>2026-03-15T14:27:34.998Z</time></trkpt><trkpt lat="45.66360645279029" lon="10.084908473619048"><ele>601.0</ele><time>2026-03-15T14:27:35.998Z</time></trkpt><trkpt lat="45.66359042092636" lon="10.085133208938846"><ele>593.6666666666667</ele><time>2026-03-15T14:27:36.998Z</time></trkpt><trkpt lat="45.663609589740155" lon="10.085354174681438"><ele>586.3333333333334</ele><time>2026-03-15T14:27:37.998Z</time></trkpt><trkpt lat="45.66360984827138" lon="10.085579698736657"><ele>579.0</ele><time>2026-03-15T14:27:38.998Z</time></trkpt><trkpt lat="45.6635990062277" lon="10.085799824439968"><ele>579.0</ele><time>2026-03-15T14:27:39.998Z</time></trkpt><trkpt lat="45.663567022521704" lon="10.086024071396103"><ele>579.0</ele><time>2026-03-15T14:27:40.998Z</time></trkpt><trkpt lat="45.663523541720075" lon="10.086240291964375"><ele>579.0</ele><time>2026-03-15T14:27:41.998Z</time></trkpt><trkpt lat="45.66347626374784" lon="10.08645948691634"><ele>582.3333333333334</ele><time>2026-03-15T14:27:42.998Z</time></trkpt><trkpt lat="45.66343116120687" lon="10.08667703077343"><ele>585.6666666666667</ele><time>2026-03-15T14:27:43.998Z</time></trkpt><trkpt lat="45.66339169277017" lon="10.086890879311134"><ele>589.0</ele><time>2026-03-15T14:27:44.998Z</time></trkpt><trkpt lat="45.6633496156097" lon="10.087103809430943"><ele>589.0</ele><time>2026-03-15T14:27:45.998Z</time></trkpt><trkpt lat="45.66330697841633" lon="10.087321403256647"><ele>589.0</ele><time>2026-03-15T14:27:46.998Z</time></trkpt><trkpt lat="45.6632655502564" lon="10.087532899987755"><ele>589.0</ele><time>2026-03-15T14:27:47.998Z</time></trkpt><trkpt lat="45.66322526515791" lon="10.087747311445685"><ele>592.6666666666667</ele><time>2026-03-15T14:27:48.998Z</time></trkpt><trkpt lat="45.6631870790207" lon="10.0879604920668"><ele>596.3333333333334</ele><time>2026-03-15T14:27:49.998Z</time></trkpt><trkpt lat="45.663143619264766" lon="10.088167577311397"><ele>600.0</ele><time>2026-03-15T14:27:50.998Z</time></trkpt><trkpt lat="45.66309785872855" lon="10.088381674604822"><ele>605.6666666666666</ele><time>2026-03-15T14:27:51.998Z</time></trkpt><trkpt lat="45.66304868458269" lon="10.088584823287972"><ele>611.3333333333333</ele><time>2026-03-15T14:27:52.998Z</time></trkpt><trkpt lat="45.66298498704852" lon="10.088796823722396"><ele>617.0</ele><time>2026-03-15T14:27:53.998Z</time></trkpt><trkpt lat="45.662916488568115" lon="10.088989049001428"><ele>623.6666666666666</ele><time>2026-03-15T14:27:54.998Z</time></trkpt><trkpt lat="45.662840110117465" lon="10.089195594996683"><ele>630.3333333333334</ele><time>2026-03-15T14:27:55.998Z</time></trkpt><trkpt lat="45.66276702801089" lon="10.089394524105268"><ele>637.0</ele><time>2026-03-15T14:27:56.998Z</time></trkpt><trkpt lat="45.662694207283025" lon="10.08960125032836"><ele>629.3333333333334</ele><time>2026-03-15T14:27:57.998Z</time></trkpt><trkpt lat="45.662624666352045" lon="10.089800626622859"><ele>621.6666666666666</ele><time>2026-03-15T14:27:58.998Z</time></trkpt><trkpt lat="45.66255363567257" lon="10.090001745831897"><ele>614.0</ele><time>2026-03-15T14:27:59.998Z</time></trkpt><trkpt lat="45.66248221528225" lon="10.090199793538876"><ele>614.0</ele><time>2026-03-15T14:28:00.998Z</time></trkpt><trkpt lat="45.662411404522395" lon="10.090394031542523"><ele>614.0</ele><time>2026-03-15T14:28:01.998Z</time></trkpt><trkpt lat="45.662336670330625" lon="10.090602105869548"><ele>614.0</ele><time>2026-03-15T14:28:02.998Z</time></trkpt><trkpt lat="45.662260973939546" lon="10.090812346918"><ele>620.0</ele><time>2026-03-15T14:28:03.998Z</time></trkpt><trkpt lat="45.66218636563931" lon="10.091027501200585"><ele>626.0</ele><time>2026-03-15T14:28:04.998Z</time></trkpt><trkpt lat="45.662102425643226" lon="10.091246904292438"><ele>632.0</ele><time>2026-03-15T14:28:05.998Z</time></trkpt><trkpt lat="45.66200743358197" lon="10.091462136208888"><ele>627.3333333333333</ele><time>2026-03-15T14:28:06.998Z</time></trkpt><trkpt lat="45.66189874786852" lon="10.091688616088149"><ele>622.6666666666666</ele><time>2026-03-15T14:28:08.001Z</time></trkpt><trkpt lat="45.66177186389068" lon="10.091900506868576"><ele>618.0</ele><time>2026-03-15T14:28:09.001Z</time></trkpt><trkpt lat="45.661635409568184" lon="10.09207015082386"><ele>618.0</ele><time>2026-03-15T14:28:10.001Z</time></trkpt><trkpt lat="45.66151827067556" lon="10.092216658356945"><ele>618.0</ele><time>2026-03-15T14:28:11.001Z</time></trkpt><trkpt lat="45.66143224632997" lon="10.092401989474851"><ele>618.0</ele><time>2026-03-15T14:28:12.001Z</time></trkpt><trkpt lat="45.66139000410392" lon="10.092640116571756"><ele>624.3333333333334</ele><time>2026-03-15T14:28:13.001Z</time></trkpt><trkpt lat="45.66136920461879" lon="10.092907287466849"><ele>630.6666666666667</ele><time>2026-03-15T14:28:14.001Z</time></trkpt><trkpt lat="45.66131676600345" lon="10.093148597955164"><ele>637.0</ele><time>2026-03-15T14:28:15.001Z</time></trkpt><trkpt lat="45.66117664325507" lon="10.093335938207765"><ele>632.6666666666667</ele><time>2026-03-15T14:28:16.001Z</time></trkpt><trkpt lat="45.66105024668929" lon="10.093539144023989"><ele>628.3333333333334</ele><time>2026-03-15T14:28:17.001Z</time></trkpt><trkpt lat="45.66093685214488" lon="10.093733139588515"><ele>624.0</ele><time>2026-03-15T14:28:18.001Z</time></trkpt><trkpt lat="45.660858544769546" lon="10.093979067377251"><ele>629.3333333333334</ele><time>2026-03-15T14:28:19Z</time></trkpt><trkpt lat="45.66081400992744" lon="10.094244216831658"><ele>634.6666666666667</ele><time>2026-03-15T14:28:20Z</time></trkpt><trkpt lat="45.66080389579517" lon="10.09450193257978"><ele>640.0</ele><time>2026-03-15T14:28:21Z</time></trkpt><trkpt lat="45.6607676668677" lon="10.094746901203871"><ele>642.6666666666667</ele><time>2026-03-15T14:28:22Z</time></trkpt><trkpt lat="45.660694560844334" lon="10.094990306970544"><ele>645.3333333333334</ele><time>2026-03-15T14:28:23Z</time></trkpt><trkpt lat="45.66061157603491" lon="10.095243332930975"><ele>648.0</ele><time>2026-03-15T14:28:24Z</time></trkpt><trkpt lat="45.66052900196269" lon="10.09549606615221"><ele>650.3333333333334</ele><time>2026-03-15T14:28:25Z</time></trkpt><trkpt lat="45.66049726717757" lon="10.09577174904264"><ele>652.6666666666667</ele><time>2026-03-15T14:28:26Z</time></trkpt><trkpt lat="45.66051073159151" lon="10.096038333712745"><ele>655.0</ele><time>2026-03-15T14:28:27Z</time></trkpt><trkpt lat="45.66053545473117" lon="10.096264008442365"><ele>655.0</ele><time>2026-03-15T14:28:28Z</time></trkpt><trkpt lat="45.66054831471687" lon="10.09649352963606"><ele>655.0</ele><time>2026-03-15T14:28:29Z</time></trkpt><trkpt lat="45.66055704413058" lon="10.09673572287089"><ele>655.0</ele><time>2026-03-15T14:28:30Z</time></trkpt><trkpt lat="45.66056986059867" lon="10.096995991907276"><ele>656.6666666666667</ele><time>2026-03-15T14:28:31Z</time></trkpt><trkpt lat="45.66058040468892" lon="10.097269515836249"><ele>658.3333333333334</ele><time>2026-03-15T14:28:32Z</time></trkpt><trkpt lat="45.66059213397429" lon="10.0975644158926"><ele>660.0</ele><time>2026-03-15T14:28:33Z</time></trkpt><trkpt lat="45.66060007818222" lon="10.097852154943197"><ele>660.0</ele><time>2026-03-15T14:28:34Z</time></trkpt><trkpt lat="45.66061125707986" lon="10.098159148928783"><ele>660.0</ele><time>2026-03-15T14:28:35Z</time></trkpt><trkpt lat="45.66062308448117" lon="10.098465371917404"><ele>660.0</ele><time>2026-03-15T14:28:36Z</time></trkpt><trkpt lat="45.66063477348256" lon="10.098778461313058"><ele>661.5</ele><time>2026-03-15T14:28:37Z</time></trkpt><trkpt lat="45.66064765562286" lon="10.099101529720434"><ele>663.0</ele><time>2026-03-15T14:28:38Z</time></trkpt><trkpt lat="45.66066689076316" lon="10.099427348015421"><ele>663.0</ele><time>2026-03-15T14:28:39Z</time></trkpt><trkpt lat="45.66070192308672" lon="10.099758619946957"><ele>663.0</ele><time>2026-03-15T14:28:40Z</time></trkpt><trkpt lat="45.66074513196949" lon="10.10008157884454"><ele>661.5</ele><time>2026-03-15T14:28:41Z</time></trkpt><trkpt lat="45.66076939628825" lon="10.100404109341866"><ele>660.0</ele><time>2026-03-15T14:28:42Z</time></trkpt><trkpt lat="45.66076549906085" lon="10.100725605057455"><ele>663.3333333333334</ele><time>2026-03-15T14:28:43Z</time></trkpt><trkpt lat="45.6607464286178" lon="10.101040133418925"><ele>666.6666666666667</ele><time>2026-03-15T14:28:44Z</time></trkpt><trkpt lat="45.66073565554319" lon="10.101347283225541"><ele>670.0</ele><time>2026-03-15T14:28:45Z</time></trkpt><trkpt lat="45.66074320409467" lon="10.101653680332992"><ele>671.3333333333334</ele><time>2026-03-15T14:28:46Z</time></trkpt><trkpt lat="45.66076167423744" lon="10.101948700814095"><ele>672.6666666666666</ele><time>2026-03-15T14:28:47Z</time></trkpt><trkpt lat="45.6607806054613" lon="10.102259202208828"><ele>674.0</ele><time>2026-03-15T14:28:48Z</time></trkpt><trkpt lat="45.66079700063685" lon="10.102577598306185"><ele>674.0</ele><time>2026-03-15T14:28:49Z</time></trkpt><trkpt lat="45.66081346953348" lon="10.102903079920472"><ele>674.0</ele><time>2026-03-15T14:28:50Z</time></trkpt><trkpt lat="45.66083378989237" lon="10.103222730715215"><ele>673.0</ele><time>2026-03-15T14:28:51Z</time></trkpt><trkpt lat="45.660859774870175" lon="10.103526926477345"><ele>672.0</ele><time>2026-03-15T14:28:52Z</time></trkpt><trkpt lat="45.66089738558283" lon="10.103821801711655"><ele>671.0</ele><time>2026-03-15T14:28:53Z</time></trkpt><trkpt lat="45.66095213551183" lon="10.104109406686506"><ele>670.3333333333333</ele><time>2026-03-15T14:28:54Z</time></trkpt><trkpt lat="45.66100472284297" lon="10.10439583079278"><ele>669.6666666666666</ele><time>2026-03-15T14:28:55Z</time></trkpt><trkpt lat="45.66099045953415" lon="10.104670335366174"><ele>669.0</ele><time>2026-03-15T14:28:56Z</time></trkpt><trkpt lat="45.660924551860795" lon="10.104925587053598"><ele>671.3333333333334</ele><time>2026-03-15T14:28:57Z</time></trkpt><trkpt lat="45.66083187283732" lon="10.105187375695788"><ele>673.6666666666667</ele><time>2026-03-15T14:28:58Z</time></trkpt><trkpt lat="45.660743227465574" lon="10.105417197430725"><ele>676.0</ele><time>2026-03-15T14:28:58.999Z</time></trkpt><trkpt lat="45.66067762044728" lon="10.105585473972027"><ele>676.0</ele><time>2026-03-15T14:28:59.999Z</time></trkpt><trkpt lat="45.66059753111156" lon="10.1057176083272"><ele>676.0</ele><time>2026-03-15T14:29:00.999Z</time></trkpt><trkpt lat="45.66054923482778" lon="10.105913772561168"><ele>676.0</ele><time>2026-03-15T14:29:01.999Z</time></trkpt><trkpt lat="45.66053018525758" lon="10.106099766239687"><ele>676.0</ele><time>2026-03-15T14:29:02.999Z</time></trkpt><trkpt lat="45.66054868070653" lon="10.106305494563879"><ele>679.6666666666667</ele><time>2026-03-15T14:29:03.999Z</time></trkpt><trkpt lat="45.66061919606533" lon="10.106503687510832"><ele>683.3333333333334</ele><time>2026-03-15T14:29:04.999Z</time></trkpt><trkpt lat="45.660726701241856" lon="10.106707173061832"><ele>687.0</ele><time>2026-03-15T14:29:05.999Z</time></trkpt><trkpt lat="45.66084081432306" lon="10.106917492046524"><ele>687.0</ele><time>2026-03-15T14:29:06.999Z</time></trkpt><trkpt lat="45.66094628459652" lon="10.107147983601852"><ele>687.0</ele><time>2026-03-15T14:29:07.999Z</time></trkpt><trkpt lat="45.661042418437255" lon="10.107357452064916"><ele>687.0</ele><time>2026-03-15T14:29:08.999Z</time></trkpt><trkpt lat="45.661125937021914" lon="10.107559111501159"><ele>683.0</ele><time>2026-03-15T14:29:09.999Z</time></trkpt><trkpt lat="45.66116354717144" lon="10.107763257758702"><ele>679.0</ele><time>2026-03-15T14:29:10.999Z</time></trkpt><trkpt lat="45.66121301005976" lon="10.107915604276247"><ele>675.0</ele><time>2026-03-15T14:29:11.999Z</time></trkpt><trkpt lat="45.661066656397026" lon="10.108178732203289"><ele>677.3333333333334</ele><time>2026-03-15T14:29:12.999Z</time></trkpt><trkpt lat="45.660951292240455" lon="10.108356788984699"><ele>679.6666666666667</ele><time>2026-03-15T14:29:13.999Z</time></trkpt><trkpt lat="45.66083595888755" lon="10.108511746310088"><ele>682.0</ele><time>2026-03-15T14:29:14.999Z</time></trkpt><trkpt lat="45.660752311601165" lon="10.10868111488293"><ele>682.0</ele><time>2026-03-15T14:29:15.999Z</time></trkpt><trkpt lat="45.66070847872455" lon="10.10887439418955"><ele>682.0</ele><time>2026-03-15T14:29:16.999Z</time></trkpt><trkpt lat="45.66069614941366" lon="10.109106625628609"><ele>682.0</ele><time>2026-03-15T14:29:17.999Z</time></trkpt><trkpt lat="45.66072311872942" lon="10.109348215641042"><ele>682.3333333333334</ele><time>2026-03-15T14:29:18.999Z</time></trkpt><trkpt lat="45.66078832101104" lon="10.109588215077968"><ele>682.6666666666666</ele><time>2026-03-15T14:29:19.999Z</time></trkpt><trkpt lat="45.66089313855217" lon="10.109813837159441"><ele>683.0</ele><time>2026-03-15T14:29:20.999Z</time></trkpt><trkpt lat="45.660994611829295" lon="10.110014723185635"><ele>680.75</ele><time>2026-03-15T14:29:21.999Z</time></trkpt><trkpt lat="45.66106317762521" lon="10.110186548530576"><ele>678.5</ele><time>2026-03-15T14:29:22.999Z</time></trkpt><trkpt lat="45.661091755437795" lon="10.110346416995304"><ele>676.25</ele><time>2026-03-15T14:29:23.999Z</time></trkpt><trkpt lat="45.66106517250162" lon="10.110515283714081"><ele>674.0</ele><time>2026-03-15T14:29:24.999Z</time></trkpt><trkpt lat="45.660984832940514" lon="10.110692404847438"><ele>672.0</ele><time>2026-03-15T14:29:25.999Z</time></trkpt><trkpt lat="45.66085842973953" lon="10.110856612706305"><ele>670.0</ele><time>2026-03-15T14:29:26.999Z</time></trkpt><trkpt lat="45.660736583515856" lon="10.111023573883624"><ele>668.0</ele><time>2026-03-15T14:29:27.999Z</time></trkpt><trkpt lat="45.66062201694883" lon="10.111224968193829"><ele>668.0</ele><time>2026-03-15T14:29:28.999Z</time></trkpt><trkpt lat="45.660525400229886" lon="10.11139862736353"><ele>668.0</ele><time>2026-03-15T14:29:29.999Z</time></trkpt><trkpt lat="45.66044478176892" lon="10.111542542662763"><ele>668.0</ele><time>2026-03-15T14:29:30.999Z</time></trkpt><trkpt lat="45.66039296701178" lon="10.111701049235682"><ele>668.0</ele><time>2026-03-15T14:29:31.999Z</time></trkpt><trkpt lat="45.660381212866014" lon="10.111894635250112"><ele>669.6666666666666</ele><time>2026-03-15T14:29:32.999Z</time></trkpt><trkpt lat="45.66040887284416" lon="10.112103271357018"><ele>671.3333333333334</ele><time>2026-03-15T14:29:33.999Z</time></trkpt><trkpt lat="45.66047749357086" lon="10.112315617855836"><ele>673.0</ele><time>2026-03-15T14:29:34.999Z</time></trkpt><trkpt lat="45.66058141398036" lon="10.112511472493942"><ele>669.6666666666667</ele><time>2026-03-15T14:29:35.999Z</time></trkpt><trkpt lat="45.660688103212735" lon="10.112699159877312"><ele>666.3333333333334</ele><time>2026-03-15T14:29:36.999Z</time></trkpt><trkpt lat="45.660777911570584" lon="10.112869854876532"><ele>663.0</ele><time>2026-03-15T14:29:37.999Z</time></trkpt><trkpt lat="45.660856981879405" lon="10.113028906810822"><ele>663.0</ele><time>2026-03-15T14:29:38.999Z</time></trkpt><trkpt lat="45.66091497510506" lon="10.113146495672495"><ele>663.0</ele><time>2026-03-15T14:29:39.999Z</time></trkpt><trkpt lat="45.66096696328559" lon="10.113270197674371"><ele>663.0</ele><time>2026-03-15T14:29:41.999Z</time></trkpt><trkpt lat="45.66099677901054" lon="10.113353743799394"><ele>663.0</ele><time>2026-03-15T14:29:43.999Z</time></trkpt><trkpt lat="45.66103423993985" lon="10.113268392046201"><ele>663.0</ele><time>2026-03-15T14:29:46.998Z</time></trkpt><trkpt lat="45.660971942813276" lon="10.113151264108124"><ele>663.0</ele><time>2026-03-15T14:29:48.998Z</time></trkpt><trkpt lat="45.66105909036469" lon="10.113097168764018"><ele>665.2</ele><time>2026-03-15T14:29:51.998Z</time></trkpt><trkpt lat="45.661120189902945" lon="10.113219931868315"><ele>667.4</ele><time>2026-03-15T14:29:53.998Z</time></trkpt><trkpt lat="45.661172306791954" lon="10.113324087454913"><ele>669.6</ele><time>2026-03-15T14:29:55.998Z</time></trkpt><trkpt lat="45.66126706759726" lon="10.113466288880709"><ele>671.8000000000001</ele><time>2026-03-15T14:29:57.998Z</time></trkpt><trkpt lat="45.66135401836467" lon="10.113536635013054"><ele>674.0</ele><time>2026-03-15T14:29:58.998Z</time></trkpt><trkpt lat="45.66146255825775" lon="10.113590481220717"><ele>674.0</ele><time>2026-03-15T14:29:59.998Z</time></trkpt><trkpt lat="45.66156920435781" lon="10.113647195662448"><ele>674.0</ele><time>2026-03-15T14:30:00.998Z</time></trkpt><trkpt lat="45.66165319057391" lon="10.113717639529984"><ele>674.0</ele><time>2026-03-15T14:30:01.998Z</time></trkpt><trkpt lat="45.6617325081454" lon="10.1138225071186"><ele>674.0</ele><time>2026-03-15T14:30:02.998Z</time></trkpt><trkpt lat="45.66180106076211" lon="10.113943362230136"><ele>674.0</ele><time>2026-03-15T14:30:03.998Z</time></trkpt><trkpt lat="45.66185425872222" lon="10.114032640018685"><ele>674.4000000000001</ele><time>2026-03-15T14:30:04.998Z</time></trkpt><trkpt lat="45.66197110104198" lon="10.11407038332355"><ele>674.8</ele><time>2026-03-15T14:30:06.998Z</time></trkpt><trkpt lat="45.66204824028408" lon="10.114012620102098"><ele>675.2</ele><time>2026-03-15T14:30:07.998Z</time></trkpt><trkpt lat="45.66210535391029" lon="10.113897789620532"><ele>675.5999999999999</ele><time>2026-03-15T14:30:08.998Z</time></trkpt><trkpt lat="45.66213434115572" lon="10.113741942835082"><ele>676.0</ele><time>2026-03-15T14:30:09.998Z</time></trkpt><trkpt lat="45.66213939258914" lon="10.113569739029435"><ele>676.0</ele><time>2026-03-15T14:30:10.998Z</time></trkpt><trkpt lat="45.66211311943309" lon="10.113405791031873"><ele>676.0</ele><time>2026-03-15T14:30:11.998Z</time></trkpt><trkpt lat="45.66205881024187" lon="10.113255892475703"><ele>676.0</ele><time>2026-03-15T14:30:13.001Z</time></trkpt><trkpt lat="45.66201283645971" lon="10.113155412620861"><ele>676.0</ele><time>2026-03-15T14:30:14.001Z</time></trkpt><trkpt lat="45.66189781792869" lon="10.113030303467811"><ele>677.8</ele><time>2026-03-15T14:30:16.001Z</time></trkpt><trkpt lat="45.66183944691739" lon="10.112960439937865"><ele>679.5999999999999</ele><time>2026-03-15T14:30:17.001Z</time></trkpt><trkpt lat="45.661787858387406" lon="10.112866456820289"><ele>681.4</ele><time>2026-03-15T14:30:18.001Z</time></trkpt><trkpt lat="45.661715018842045" lon="10.112733806211116"><ele>683.2</ele><time>2026-03-15T14:30:19.001Z</time></trkpt><trkpt lat="45.66161406281712" lon="10.112559261999758"><ele>685.0</ele><time>2026-03-15T14:30:20.001Z</time></trkpt><trkpt lat="45.66151016535129" lon="10.1123929922959"><ele>687.8</ele><time>2026-03-15T14:30:21.001Z</time></trkpt><trkpt lat="45.66143417225722" lon="10.112258180416765"><ele>690.6</ele><time>2026-03-15T14:30:22.001Z</time></trkpt><trkpt lat="45.66137875907021" lon="10.112144130238052"><ele>693.4000000000001</ele><time>2026-03-15T14:30:23.001Z</time></trkpt><trkpt lat="45.661366163698865" lon="10.112032412549222"><ele>696.2</ele><time>2026-03-15T14:30:25.001Z</time></trkpt><trkpt lat="45.661495049659614" lon="10.112137451174242"><ele>699.0</ele><time>2026-03-15T14:30:28.001Z</time></trkpt><trkpt lat="45.66154203893159" lon="10.112240358765318"><ele>699.0</ele><time>2026-03-15T14:30:29.001Z</time></trkpt><trkpt lat="45.66160871977139" lon="10.112304261773447"><ele>699.0</ele><time>2026-03-15T14:30:30.001Z</time></trkpt><trkpt lat="45.66167126712093" lon="10.112291588833262"><ele>699.0</ele><time>2026-03-15T14:30:31.001Z</time></trkpt><trkpt lat="45.66175671664073" lon="10.112095599528207"><ele>699.0</ele><time>2026-03-15T14:30:33.001Z</time></trkpt><trkpt lat="45.66178557753603" lon="10.111936783408154"><ele>699.0</ele><time>2026-03-15T14:30:34Z</time></trkpt><trkpt lat="45.661855552385866" lon="10.111838606120653"><ele>702.8000000000001</ele><time>2026-03-15T14:30:35Z</time></trkpt><trkpt lat="45.661962116561725" lon="10.111833354499213"><ele>706.6</ele><time>2026-03-15T14:30:36Z</time></trkpt><trkpt lat="45.66206855442095" lon="10.111783430097923"><ele>710.4</ele><time>2026-03-15T14:30:37Z</time></trkpt><trkpt lat="45.66217537945052" lon="10.111832616970096"><ele>714.2</ele><time>2026-03-15T14:30:38Z</time></trkpt><trkpt lat="45.6622845468831" lon="10.111896417932977"><ele>718.0</ele><time>2026-03-15T14:30:39Z</time></trkpt><trkpt lat="45.66237900932075" lon="10.111923779977626"><ele>718.0</ele><time>2026-03-15T14:30:40Z</time></trkpt><trkpt lat="45.66247560476354" lon="10.111933713810238"><ele>718.0</ele><time>2026-03-15T14:30:41Z</time></trkpt><trkpt lat="45.662594371909776" lon="10.1119026843285"><ele>718.0</ele><time>2026-03-15T14:30:42Z</time></trkpt><trkpt lat="45.662723508296345" lon="10.111885761004102"><ele>718.0</ele><time>2026-03-15T14:30:43Z</time></trkpt><trkpt lat="45.66283526558446" lon="10.1119246963931"><ele>723.75</ele><time>2026-03-15T14:30:44Z</time></trkpt><trkpt lat="45.662929291740724" lon="10.111990854902652"><ele>729.5</ele><time>2026-03-15T14:30:45Z</time></trkpt><trkpt lat="45.663044873357514" lon="10.112031659774107"><ele>735.25</ele><time>2026-03-15T14:30:46Z</time></trkpt><trkpt lat="45.663174717381395" lon="10.11202888157359"><ele>741.0</ele><time>2026-03-15T14:30:47Z</time></trkpt><trkpt lat="45.66331670126461" lon="10.112013461067413"><ele>741.0</ele><time>2026-03-15T14:30:48Z</time></trkpt><trkpt lat="45.663465723862686" lon="10.112042633764863"><ele>741.0</ele><time>2026-03-15T14:30:49Z</time></trkpt><trkpt lat="45.6635943420703" lon="10.112117695759368"><ele>741.0</ele><time>2026-03-15T14:30:50Z</time></trkpt><trkpt lat="45.663720380824884" lon="10.112199731475714"><ele>741.0</ele><time>2026-03-15T14:30:51Z</time></trkpt><trkpt lat="45.6638549842056" lon="10.112279596937391"><ele>742.3333333333334</ele><time>2026-03-15T14:30:52Z</time></trkpt><trkpt lat="45.66399264689876" lon="10.112395373325278"><ele>743.6666666666667</ele><time>2026-03-15T14:30:53Z</time></trkpt><trkpt lat="45.6641022524791" lon="10.112583649572526"><ele>745.0</ele><time>2026-03-15T14:30:54Z</time></trkpt><trkpt lat="45.66419696208659" lon="10.112778362307305"><ele>745.0</ele><time>2026-03-15T14:30:55Z</time></trkpt><trkpt lat="45.66426180092491" lon="10.112974131959122"><ele>745.0</ele><time>2026-03-15T14:30:56Z</time></trkpt><trkpt lat="45.664293009331935" lon="10.113176983103065"><ele>745.0</ele><time>2026-03-15T14:30:57Z</time></trkpt><trkpt lat="45.66433282576813" lon="10.113379997367188"><ele>745.0</ele><time>2026-03-15T14:30:58Z</time></trkpt><trkpt lat="45.66437095193749" lon="10.113594575313613"><ele>740.6666666666667</ele><time>2026-03-15T14:30:59Z</time></trkpt><trkpt lat="45.66444120454057" lon="10.11379155615447"><ele>736.3333333333334</ele><time>2026-03-15T14:31:00Z</time></trkpt><trkpt lat="45.66452306871219" lon="10.114003277970408"><ele>732.0</ele><time>2026-03-15T14:31:01Z</time></trkpt><trkpt lat="45.66460106891258" lon="10.114218183075344"><ele>747.0</ele><time>2026-03-15T14:31:02Z</time></trkpt><trkpt lat="45.6646818514032" lon="10.114434456448535"><ele>762.0</ele><time>2026-03-15T14:31:03Z</time></trkpt><trkpt lat="45.664779228784994" lon="10.11465274720574"><ele>777.0</ele><time>2026-03-15T14:31:04Z</time></trkpt><trkpt lat="45.66488561138128" lon="10.114867713001793"><ele>773.0</ele><time>2026-03-15T14:31:05Z</time></trkpt><trkpt lat="45.664981877760745" lon="10.115111789229202"><ele>769.0</ele><time>2026-03-15T14:31:06Z</time></trkpt><trkpt lat="45.66501989959339" lon="10.115361540468127"><ele>765.0</ele><time>2026-03-15T14:31:07Z</time></trkpt><trkpt lat="45.66507330529785" lon="10.115585688089572"><ele>760.3333333333334</ele><time>2026-03-15T14:31:08Z</time></trkpt><trkpt lat="45.66511190148757" lon="10.115831703672022"><ele>755.6666666666667</ele><time>2026-03-15T14:31:09Z</time></trkpt><trkpt lat="45.66515621270214" lon="10.11608994898423"><ele>751.0</ele><time>2026-03-15T14:31:10Z</time></trkpt><trkpt lat="45.6652047250696" lon="10.116368718860501"><ele>748.6666666666667</ele><time>2026-03-15T14:31:11Z</time></trkpt><trkpt lat="45.66524485269318" lon="10.116638427894232"><ele>746.3333333333334</ele><time>2026-03-15T14:31:12Z</time></trkpt><trkpt lat="45.66525327962118" lon="10.116929389344072"><ele>744.0</ele><time>2026-03-15T14:31:12.999Z</time></trkpt><trkpt lat="45.66526951825081" lon="10.117189574578179"><ele>742.3333333333334</ele><time>2026-03-15T14:31:13.999Z</time></trkpt><trkpt lat="45.66528039452869" lon="10.11741085576501"><ele>740.6666666666667</ele><time>2026-03-15T14:31:14.999Z</time></trkpt><trkpt lat="45.66527586203491" lon="10.11761770321601"><ele>739.0</ele><time>2026-03-15T14:31:15.999Z</time></trkpt><trkpt lat="45.66523018746103" lon="10.117827780840917"><ele>739.0</ele><time>2026-03-15T14:31:16.999Z</time></trkpt><trkpt lat="45.665179295355834" lon="10.11806788278225"><ele>739.0</ele><time>2026-03-15T14:31:17.999Z</time></trkpt><trkpt lat="45.66513747512161" lon="10.118325506112468"><ele>739.0</ele><time>2026-03-15T14:31:18.999Z</time></trkpt><trkpt lat="45.66508478775088" lon="10.118581656190091"><ele>740.6666666666667</ele><time>2026-03-15T14:31:19.999Z</time></trkpt><trkpt lat="45.66505230325334" lon="10.118852781314901"><ele>742.3333333333334</ele><time>2026-03-15T14:31:20.999Z</time></trkpt><trkpt lat="45.66499585656535" lon="10.119103968065758"><ele>744.0</ele><time>2026-03-15T14:31:21.999Z</time></trkpt><trkpt lat="45.66504483181105" lon="10.11938813366709"><ele>746.3333333333334</ele><time>2026-03-15T14:31:22.999Z</time></trkpt><trkpt lat="45.66505974520717" lon="10.119652953767751"><ele>748.6666666666667</ele><time>2026-03-15T14:31:23.999Z</time></trkpt><trkpt lat="45.665088653333676" lon="10.119880801152165"><ele>751.0</ele><time>2026-03-15T14:31:24.999Z</time></trkpt><trkpt lat="45.665138976085714" lon="10.120109793678738"><ele>755.3333333333334</ele><time>2026-03-15T14:31:25.999Z</time></trkpt><trkpt lat="45.665210771732646" lon="10.12034640448718"><ele>759.6666666666666</ele><time>2026-03-15T14:31:26.999Z</time></trkpt><trkpt lat="45.66522812977821" lon="10.120613490412161"><ele>764.0</ele><time>2026-03-15T14:31:27.999Z</time></trkpt><trkpt lat="45.66525957816479" lon="10.120876734209613"><ele>764.25</ele><time>2026-03-15T14:31:28.999Z</time></trkpt><trkpt lat="45.66526652019228" lon="10.12109794428972"><ele>764.5</ele><time>2026-03-15T14:31:29.999Z</time></trkpt><trkpt lat="45.66528057383338" lon="10.121297794791362"><ele>764.75</ele><time>2026-03-15T14:31:30.999Z</time></trkpt><trkpt lat="45.66528408936149" lon="10.121488192618969"><ele>765.0</ele><time>2026-03-15T14:31:31.999Z</time></trkpt><trkpt lat="45.66532778954793" lon="10.121707924019688"><ele>781.3333333333333</ele><time>2026-03-15T14:31:32.999Z</time></trkpt><trkpt lat="45.665411017993996" lon="10.121921117543282"><ele>797.6666666666666</ele><time>2026-03-15T14:31:33.999Z</time></trkpt><trkpt lat="45.6655111466066" lon="10.122126108032038"><ele>814.0</ele><time>2026-03-15T14:31:34.999Z</time></trkpt><trkpt lat="45.665588642697784" lon="10.122322182018618"><ele>812.0</ele><time>2026-03-15T14:31:35.999Z</time></trkpt><trkpt lat="45.66563212604598" lon="10.122495330325641"><ele>810.0</ele><time>2026-03-15T14:31:36.999Z</time></trkpt><trkpt lat="45.665696762491535" lon="10.122633658408821"><ele>808.0</ele><time>2026-03-15T14:31:37.999Z</time></trkpt><trkpt lat="45.665782842299805" lon="10.12275684502756"><ele>806.0</ele><time>2026-03-15T14:31:38.999Z</time></trkpt><trkpt lat="45.665852676049035" lon="10.122852430317172"><ele>806.0</ele><time>2026-03-15T14:31:39.999Z</time></trkpt><trkpt lat="45.665897053047075" lon="10.122934147115089"><ele>806.0</ele><time>2026-03-15T14:31:40.999Z</time></trkpt><trkpt lat="45.66598763392013" lon="10.12294855226705"><ele>806.0</ele><time>2026-03-15T14:31:42.999Z</time></trkpt><trkpt lat="45.66602224285533" lon="10.122737570679183"><ele>806.0</ele><time>2026-03-15T14:31:44.999Z</time></trkpt><trkpt lat="45.66595672972736" lon="10.122567174284407"><ele>808.6666666666667</ele><time>2026-03-15T14:31:45.999Z</time></trkpt><trkpt lat="45.66592163506388" lon="10.122362341672556"><ele>811.3333333333333</ele><time>2026-03-15T14:31:46.999Z</time></trkpt><trkpt lat="45.6659338275527" lon="10.12215554954702"><ele>814.0</ele><time>2026-03-15T14:31:47.999Z</time></trkpt><trkpt lat="45.66590230848819" lon="10.12193105348226"><ele>814.0</ele><time>2026-03-15T14:31:48.999Z</time></trkpt><trkpt lat="45.66591765090178" lon="10.121701139747277"><ele>814.0</ele><time>2026-03-15T14:31:49.999Z</time></trkpt><trkpt lat="45.665948772160206" lon="10.121486209299476"><ele>814.0</ele><time>2026-03-15T14:31:50.999Z</time></trkpt><trkpt lat="45.665980204796796" lon="10.121251205155971"><ele>814.0</ele><time>2026-03-15T14:31:51.999Z</time></trkpt><trkpt lat="45.66600762169916" lon="10.120998372774885"><ele>814.0</ele><time>2026-03-15T14:31:52.999Z</time></trkpt><trkpt lat="45.66602651804044" lon="10.120727829116952"><ele>814.0</ele><time>2026-03-15T14:31:53.999Z</time></trkpt><trkpt lat="45.666038160887915" lon="10.120453051551031"><ele>814.0</ele><time>2026-03-15T14:31:54.999Z</time></trkpt><trkpt lat="45.66604723116687" lon="10.120162826802673"><ele>814.0</ele><time>2026-03-15T14:31:55.999Z</time></trkpt><trkpt lat="45.66605879210413" lon="10.119910271280812"><ele>814.0</ele><time>2026-03-15T14:31:56.999Z</time></trkpt><trkpt lat="45.666070946526055" lon="10.119687634349484"><ele>813.6666666666666</ele><time>2026-03-15T14:31:57.998Z</time></trkpt><trkpt lat="45.66607934773631" lon="10.119449993986771"><ele>813.3333333333333</ele><time>2026-03-15T14:31:58.998Z</time></trkpt><trkpt lat="45.66611822435104" lon="10.11924124227129"><ele>813.0</ele><time>2026-03-15T14:31:59.998Z</time></trkpt><trkpt lat="45.66618061887025" lon="10.119025992966936"><ele>829.3333333333333</ele><time>2026-03-15T14:32:00.998Z</time></trkpt><trkpt lat="45.666278320835836" lon="10.118765989275039"><ele>845.6666666666666</ele><time>2026-03-15T14:32:01.998Z</time></trkpt><trkpt lat="45.66631586992899" lon="10.118448497293333"><ele>862.0</ele><time>2026-03-15T14:32:02.998Z</time></trkpt><trkpt lat="45.6663781017939" lon="10.118124005672511"><ele>862.0</ele><time>2026-03-15T14:32:03.998Z</time></trkpt><trkpt lat="45.6664362301656" lon="10.117793543673267"><ele>862.0</ele><time>2026-03-15T14:32:04.998Z</time></trkpt><trkpt lat="45.6664817101084" lon="10.117446365657663"><ele>863.5</ele><time>2026-03-15T14:32:05.998Z</time></trkpt><trkpt lat="45.66651496860978" lon="10.117088791930863"><ele>865.0</ele><time>2026-03-15T14:32:06.998Z</time></trkpt><trkpt lat="45.66653124403043" lon="10.116712983998903"><ele>864.5</ele><time>2026-03-15T14:32:07.998Z</time></trkpt><trkpt lat="45.666546507718856" lon="10.11636322973744"><ele>864.0</ele><time>2026-03-15T14:32:08.998Z</time></trkpt><trkpt lat="45.6665622778913" lon="10.116071014289856"><ele>864.0</ele><time>2026-03-15T14:32:09.998Z</time></trkpt><trkpt lat="45.66657669749026" lon="10.115806961962996"><ele>864.0</ele><time>2026-03-15T14:32:10.998Z</time></trkpt><trkpt lat="45.6665873609693" lon="10.11556968758722"><ele>864.0</ele><time>2026-03-15T14:32:11.998Z</time></trkpt><trkpt lat="45.66658745464894" lon="10.115344171874787"><ele>867.0</ele><time>2026-03-15T14:32:12.998Z</time></trkpt><trkpt lat="45.666572374194146" lon="10.11510912507188"><ele>870.0</ele><time>2026-03-15T14:32:13.998Z</time></trkpt><trkpt lat="45.6665437769133" lon="10.114845349896791"><ele>873.0</ele><time>2026-03-15T14:32:14.998Z</time></trkpt><trkpt lat="45.66651030700658" lon="10.114583085552168"><ele>874.6666666666667</ele><time>2026-03-15T14:32:15.998Z</time></trkpt><trkpt lat="45.66647496568555" lon="10.114319384099312"><ele>876.3333333333334</ele><time>2026-03-15T14:32:16.998Z</time></trkpt><trkpt lat="45.66641720896498" lon="10.114083221976937"><ele>878.0</ele><time>2026-03-15T14:32:17.998Z</time></trkpt><trkpt lat="45.66636403441315" lon="10.113848723739888"><ele>878.25</ele><time>2026-03-15T14:32:19Z</time></trkpt><trkpt lat="45.666309442069384" lon="10.113638860440489"><ele>878.5</ele><time>2026-03-15T14:32:20Z</time></trkpt><trkpt lat="45.666263285052906" lon="10.113443313302616"><ele>878.75</ele><time>2026-03-15T14:32:21Z</time></trkpt><trkpt lat="45.66622105850942" lon="10.113276966198304"><ele>879.0</ele><time>2026-03-15T14:32:22Z</time></trkpt><trkpt lat="45.666192835171714" lon="10.113137531711379"><ele>879.0</ele><time>2026-03-15T14:32:23Z</time></trkpt><trkpt lat="45.66616775096872" lon="10.112992579606743"><ele>879.0</ele><time>2026-03-15T14:32:24Z</time></trkpt><trkpt lat="45.66613701137251" lon="10.112824913520834"><ele>879.0</ele><time>2026-03-15T14:32:25Z</time></trkpt><trkpt lat="45.6661262347372" lon="10.11267234709936"><ele>879.0</ele><time>2026-03-15T14:32:26Z</time></trkpt><trkpt lat="45.66613832160424" lon="10.112503243838674"><ele>880.75</ele><time>2026-03-15T14:32:27Z</time></trkpt><trkpt lat="45.66615799858495" lon="10.11229339546721"><ele>882.5</ele><time>2026-03-15T14:32:28Z</time></trkpt><trkpt lat="45.66618533715648" lon="10.112095251456502"><ele>884.25</ele><time>2026-03-15T14:32:29Z</time></trkpt><trkpt lat="45.66624679540197" lon="10.11198317881884"><ele>886.0</ele><time>2026-03-15T14:32:30Z</time></trkpt><trkpt lat="45.66634179375097" lon="10.111984085539962"><ele>886.0</ele><time>2026-03-15T14:32:31Z</time></trkpt><trkpt lat="45.66647384635493" lon="10.111985798132217"><ele>886.0</ele><time>2026-03-15T14:32:32Z</time></trkpt><trkpt lat="45.66662294952871" lon="10.111954336735982"><ele>886.0</ele><time>2026-03-15T14:32:33Z</time></trkpt><trkpt lat="45.666730846435065" lon="10.111931657779762"><ele>886.0</ele><time>2026-03-15T14:32:34Z</time></trkpt><trkpt lat="45.66679834200481" lon="10.11190550249634"><ele>886.0</ele><time>2026-03-15T14:32:35Z</time></trkpt><trkpt lat="45.66685705045553" lon="10.11177434817961"><ele>885.9999999999999</ele><time>2026-03-15T14:32:37Z</time></trkpt><trkpt lat="45.66687292414823" lon="10.1116718996086"><ele>885.9999999999999</ele><time>2026-03-15T14:32:38Z</time></trkpt><trkpt lat="45.6669239383259" lon="10.111509446167014"><ele>886.0</ele><time>2026-03-15T14:32:39Z</time></trkpt><trkpt lat="45.66699605787122" lon="10.111347433619507"><ele>886.0</ele><time>2026-03-15T14:32:40Z</time></trkpt><trkpt lat="45.66703376663883" lon="10.111193314132649"><ele>886.5999999999999</ele><time>2026-03-15T14:32:41Z</time></trkpt><trkpt lat="45.667031431601934" lon="10.11103962237401"><ele>887.1999999999999</ele><time>2026-03-15T14:32:42Z</time></trkpt><trkpt lat="45.66702170860723" lon="10.110925207016706"><ele>887.8000000000001</ele><time>2026-03-15T14:32:43Z</time></trkpt><trkpt lat="45.66697603915647" lon="10.11084376377457"><ele>888.4000000000001</ele><time>2026-03-15T14:32:44Z</time></trkpt><trkpt lat="45.66688357995183" lon="10.11079349951361"><ele>889.0</ele><time>2026-03-15T14:32:45Z</time></trkpt><trkpt lat="45.66677484203063" lon="10.110733174157525"><ele>889.0</ele><time>2026-03-15T14:32:46Z</time></trkpt><trkpt lat="45.66663924976051" lon="10.110666744184046"><ele>889.0000000000001</ele><time>2026-03-15T14:32:47Z</time></trkpt><trkpt lat="45.66651870315106" lon="10.110616063759728"><ele>889.0000000000001</ele><time>2026-03-15T14:32:48Z</time></trkpt><trkpt lat="45.666429305432196" lon="10.110552380765434"><ele>889.0</ele><time>2026-03-15T14:32:48.999Z</time></trkpt><trkpt lat="45.66635792366713" lon="10.110507995436658"><ele>889.0</ele><time>2026-03-15T14:32:49.999Z</time></trkpt><trkpt lat="45.66630781638249" lon="10.110452947271309"><ele>889.0</ele><time>2026-03-15T14:32:50.999Z</time></trkpt><trkpt lat="45.666292402123666" lon="10.110297430449922"><ele>889.0</ele><time>2026-03-15T14:32:52.999Z</time></trkpt><trkpt lat="45.66635373852988" lon="10.11023508564512"><ele>889.0</ele><time>2026-03-15T14:32:53.999Z</time></trkpt><trkpt lat="45.66647384838132" lon="10.110160687421615"><ele>889.0</ele><time>2026-03-15T14:32:54.999Z</time></trkpt><trkpt lat="45.666631752899754" lon="10.110059792746355"><ele>889.0</ele><time>2026-03-15T14:32:55.999Z</time></trkpt><trkpt lat="45.666768917751796" lon="10.109999635292079"><ele>889.0000000000001</ele><time>2026-03-15T14:32:56.999Z</time></trkpt><trkpt lat="45.66686161655589" lon="10.10997369447805"><ele>889.0000000000001</ele><time>2026-03-15T14:32:57.999Z</time></trkpt><trkpt lat="45.66693926150163" lon="10.109912219536376"><ele>889.0</ele><time>2026-03-15T14:32:59.999Z</time></trkpt><trkpt lat="45.66695407910815" lon="10.10981139055984"><ele>889.0</ele><time>2026-03-15T14:33:01.999Z</time></trkpt><trkpt lat="45.666925139647624" lon="10.10962293718888"><ele>890.25</ele><time>2026-03-15T14:33:04.999Z</time></trkpt><trkpt lat="45.66694370271802" lon="10.109456957135077"><ele>891.5</ele><time>2026-03-15T14:33:05.999Z</time></trkpt><trkpt lat="45.66697644575533" lon="10.109273135869502"><ele>892.75</ele><time>2026-03-15T14:33:06.999Z</time></trkpt><trkpt lat="45.66700718649958" lon="10.109068707423502"><ele>894.0</ele><time>2026-03-15T14:33:07.999Z</time></trkpt><trkpt lat="45.66703126936086" lon="10.108872703523382"><ele>890.25</ele><time>2026-03-15T14:33:08.999Z</time></trkpt><trkpt lat="45.6670594949262" lon="10.108697771495754"><ele>886.5</ele><time>2026-03-15T14:33:09.999Z</time></trkpt><trkpt lat="45.667104208986274" lon="10.108541854739109"><ele>882.75</ele><time>2026-03-15T14:33:10.999Z</time></trkpt><trkpt lat="45.66716059185271" lon="10.10840558425235"><ele>879.0</ele><time>2026-03-15T14:33:11.999Z</time></trkpt><trkpt lat="45.667213929420846" lon="10.108291757806155"><ele>879.5</ele><time>2026-03-15T14:33:12.999Z</time></trkpt><trkpt lat="45.667279730689586" lon="10.108188518647149"><ele>880.0</ele><time>2026-03-15T14:33:13.999Z</time></trkpt><trkpt lat="45.66735868714946" lon="10.108088171239597"><ele>880.5</ele><time>2026-03-15T14:33:14.999Z</time></trkpt><trkpt lat="45.667430649940805" lon="10.107987378399114"><ele>881.0</ele><time>2026-03-15T14:33:15.999Z</time></trkpt><trkpt lat="45.66747635962836" lon="10.107894122670375"><ele>881.5</ele><time>2026-03-15T14:33:16.999Z</time></trkpt><trkpt lat="45.66749388807551" lon="10.107803434612077"><ele>882.0</ele><time>2026-03-15T14:33:17.999Z</time></trkpt><trkpt lat="45.66749243484733" lon="10.107695420804093"><ele>882.0</ele><time>2026-03-15T14:33:18.999Z</time></trkpt><trkpt lat="45.66747054657239" lon="10.107600922105416"><ele>882.0</ele><time>2026-03-15T14:33:19.999Z</time></trkpt><trkpt lat="45.66751745273492" lon="10.107456233505546"><ele>882.0</ele><time>2026-03-15T14:33:21.999Z</time></trkpt><trkpt lat="45.667600951715634" lon="10.107417448969338"><ele>882.0</ele><time>2026-03-15T14:33:22.999Z</time></trkpt><trkpt lat="45.6677047069268" lon="10.107354227454584"><ele>882.0</ele><time>2026-03-15T14:33:23.999Z</time></trkpt><trkpt lat="45.6677916532236" lon="10.107277925077545"><ele>881.0</ele><time>2026-03-15T14:33:24.999Z</time></trkpt><trkpt lat="45.66790880472048" lon="10.107203214062954"><ele>880.0</ele><time>2026-03-15T14:33:25.999Z</time></trkpt><trkpt lat="45.66803140893955" lon="10.10723532234572"><ele>879.0</ele><time>2026-03-15T14:33:26.999Z</time></trkpt><trkpt lat="45.66814316298306" lon="10.107248551049139"><ele>878.0</ele><time>2026-03-15T14:33:27.999Z</time></trkpt><trkpt lat="45.66822630875382" lon="10.10726233644871"><ele>877.0</ele><time>2026-03-15T14:33:28.999Z</time></trkpt><trkpt lat="45.66832039624687" lon="10.10724319093865"><ele>877.0</ele><time>2026-03-15T14:33:29.998Z</time></trkpt><trkpt lat="45.66840628643765" lon="10.107205310838884"><ele>877.0</ele><time>2026-03-15T14:33:30.998Z</time></trkpt><trkpt lat="45.66850259964457" lon="10.107137856922208"><ele>877.0</ele><time>2026-03-15T14:33:31.998Z</time></trkpt><trkpt lat="45.66861855245102" lon="10.107058574375625"><ele>877.0</ele><time>2026-03-15T14:33:32.998Z</time></trkpt><trkpt lat="45.66873376545653" lon="10.106950491937775"><ele>874.2</ele><time>2026-03-15T14:33:33.998Z</time></trkpt><trkpt lat="45.66884057672155" lon="10.10688523089127"><ele>871.4000000000001</ele><time>2026-03-15T14:33:34.998Z</time></trkpt><trkpt lat="45.668923841849214" lon="10.106846979290465"><ele>868.5999999999999</ele><time>2026-03-15T14:33:35.998Z</time></trkpt><trkpt lat="45.669020971508026" lon="10.106848736726672"><ele>865.8</ele><time>2026-03-15T14:33:36.998Z</time></trkpt><trkpt lat="45.66909193682755" lon="10.106920263377146"><ele>863.0</ele><time>2026-03-15T14:33:37.998Z</time></trkpt><trkpt lat="45.669147255834154" lon="10.107000930175907"><ele>863.0</ele><time>2026-03-15T14:33:38.998Z</time></trkpt><trkpt lat="45.66921968246463" lon="10.10704552895246"><ele>863.0</ele><time>2026-03-15T14:33:39.998Z</time></trkpt><trkpt lat="45.669288998413904" lon="10.107043728175647"><ele>863.0</ele><time>2026-03-15T14:33:40.998Z</time></trkpt><trkpt lat="45.669384964062495" lon="10.106984267174319"><ele>863.0</ele><time>2026-03-15T14:33:41.998Z</time></trkpt><trkpt lat="45.66951603849875" lon="10.106979207121991"><ele>863.0</ele><time>2026-03-15T14:33:42.998Z</time></trkpt><trkpt lat="45.66961261856802" lon="10.107050230753794"><ele>861.0</ele><time>2026-03-15T14:33:43.998Z</time></trkpt><trkpt lat="45.66966527986289" lon="10.107177167252887"><ele>859.0</ele><time>2026-03-15T14:33:44.998Z</time></trkpt><trkpt lat="45.669737055557555" lon="10.107284626614447"><ele>857.0</ele><time>2026-03-15T14:33:45.998Z</time></trkpt><trkpt lat="45.669822493193365" lon="10.107353784919619"><ele>855.0</ele><time>2026-03-15T14:33:46.998Z</time></trkpt><trkpt lat="45.669908009475456" lon="10.107385817019212"><ele>853.0</ele><time>2026-03-15T14:33:47.998Z</time></trkpt><trkpt lat="45.66998936701609" lon="10.107404278401189"><ele>852.9999999999999</ele><time>2026-03-15T14:33:48.998Z</time></trkpt><trkpt lat="45.67006290926136" lon="10.107406477214562"><ele>853.0</ele><time>2026-03-15T14:33:50.998Z</time></trkpt><trkpt lat="45.67010702853047" lon="10.107330443273714"><ele>853.0</ele><time>2026-03-15T14:40:25.997Z</time></trkpt><trkpt lat="45.67016833363536" lon="10.107355936467203"><ele>853.0</ele><time>2026-03-15T14:40:27.997Z</time></trkpt><trkpt lat="45.67025792842506" lon="10.107425959403685"><ele>852.9999999999999</ele><time>2026-03-15T14:40:29.997Z</time></trkpt><trkpt lat="45.6703696971293" lon="10.107412195013705"><ele>853.0</ele><time>2026-03-15T14:40:31.997Z</time></trkpt><trkpt lat="45.670491816481146" lon="10.107417695859326"><ele>850.4999999999999</ele><time>2026-03-15T14:40:33.997Z</time></trkpt><trkpt lat="45.670559555403976" lon="10.107409646145362"><ele>848.0</ele><time>2026-03-15T14:40:34.997Z</time></trkpt><trkpt lat="45.67062716968945" lon="10.107376123212378"><ele>845.5</ele><time>2026-03-15T14:40:35.997Z</time></trkpt><trkpt lat="45.67069788195857" lon="10.107305962460895"><ele>843.0</ele><time>2026-03-15T14:40:36.997Z</time></trkpt><trkpt lat="45.67076684876646" lon="10.107216092881002"><ele>840.4999999999999</ele><time>2026-03-15T14:40:37.997Z</time></trkpt><trkpt lat="45.670842638769756" lon="10.107124745464679"><ele>838.0</ele><time>2026-03-15T14:40:38.997Z</time></trkpt><trkpt lat="45.67092643381235" lon="10.10705526912192"><ele>838.0</ele><time>2026-03-15T14:40:39.997Z</time></trkpt><trkpt lat="45.6710084557876" lon="10.106999127634413"><ele>838.0</ele><time>2026-03-15T14:40:40.997Z</time></trkpt><trkpt lat="45.6710917590835" lon="10.106956277802338"><ele>838.0</ele><time>2026-03-15T14:40:41.997Z</time></trkpt><trkpt lat="45.671182260264246" lon="10.1069042799717"><ele>838.0</ele><time>2026-03-15T14:40:43Z</time></trkpt><trkpt lat="45.67126939863888" lon="10.106843906584324"><ele>838.0</ele><time>2026-03-15T14:40:44Z</time></trkpt><trkpt lat="45.67135003812986" lon="10.106772923294642"><ele>834.4</ele><time>2026-03-15T14:40:45Z</time></trkpt><trkpt lat="45.67143204972603" lon="10.10668575238921"><ele>830.8</ele><time>2026-03-15T14:40:46Z</time></trkpt><trkpt lat="45.671500294675056" lon="10.106586020963887"><ele>827.2</ele><time>2026-03-15T14:40:47Z</time></trkpt><trkpt lat="45.67155948114601" lon="10.106491086618915"><ele>823.6</ele><time>2026-03-15T14:40:48Z</time></trkpt><trkpt lat="45.67159572245963" lon="10.106386299525028"><ele>820.0</ele><time>2026-03-15T14:40:49Z</time></trkpt><trkpt lat="45.67162164963546" lon="10.106253879029142"><ele>820.0</ele><time>2026-03-15T14:40:50Z</time></trkpt><trkpt lat="45.67163371467637" lon="10.106090766636434"><ele>820.0</ele><time>2026-03-15T14:40:51Z</time></trkpt><trkpt lat="45.67165396930067" lon="10.10592211960413"><ele>820.0</ele><time>2026-03-15T14:40:52Z</time></trkpt><trkpt lat="45.671693823143265" lon="10.105768500773888"><ele>820.0</ele><time>2026-03-15T14:40:53Z</time></trkpt><trkpt lat="45.671772122292" lon="10.105638938583402"><ele>821.0</ele><time>2026-03-15T14:40:54Z</time></trkpt><trkpt lat="45.6718441747496" lon="10.10548215039844"><ele>822.0</ele><time>2026-03-15T14:40:55Z</time></trkpt><trkpt lat="45.67192259324228" lon="10.105344392268329"><ele>823.0</ele><time>2026-03-15T14:40:56Z</time></trkpt><trkpt lat="45.67199570962732" lon="10.105209512012593"><ele>824.0</ele><time>2026-03-15T14:40:57Z</time></trkpt><trkpt lat="45.67206925638854" lon="10.105082906118646"><ele>818.0</ele><time>2026-03-15T14:40:58Z</time></trkpt><trkpt lat="45.67214044231251" lon="10.104957557749428"><ele>812.0</ele><time>2026-03-15T14:40:59Z</time></trkpt><trkpt lat="45.67220956844284" lon="10.10480974643027"><ele>806.0</ele><time>2026-03-15T14:41:00Z</time></trkpt><trkpt lat="45.67226816878609" lon="10.10465003032404"><ele>800.0</ele><time>2026-03-15T14:41:01Z</time></trkpt><trkpt lat="45.672315962649705" lon="10.10448685619282"><ele>800.0</ele><time>2026-03-15T14:41:02Z</time></trkpt><trkpt lat="45.672355340867945" lon="10.10433407853203"><ele>800.0</ele><time>2026-03-15T14:41:03Z</time></trkpt><trkpt lat="45.672390349871364" lon="10.10418207608123"><ele>800.0</ele><time>2026-03-15T14:41:04Z</time></trkpt><trkpt lat="45.672408026561854" lon="10.104031603512524"><ele>800.0</ele><time>2026-03-15T14:41:05Z</time></trkpt><trkpt lat="45.672401946446854" lon="10.103877937602098"><ele>800.0</ele><time>2026-03-15T14:41:06Z</time></trkpt><trkpt lat="45.67239514519267" lon="10.103700040101089"><ele>799.75</ele><time>2026-03-15T14:41:07Z</time></trkpt><trkpt lat="45.67244797243361" lon="10.103530094036191"><ele>799.5</ele><time>2026-03-15T14:41:08Z</time></trkpt><trkpt lat="45.67248938721572" lon="10.103345408519692"><ele>799.25</ele><time>2026-03-15T14:41:09Z</time></trkpt><trkpt lat="45.67255798830094" lon="10.103179199803423"><ele>799.0</ele><time>2026-03-15T14:41:09.999Z</time></trkpt><trkpt lat="45.67261507668605" lon="10.103022609942172"><ele>799.0</ele><time>2026-03-15T14:41:10.999Z</time></trkpt><trkpt lat="45.6726724723701" lon="10.102849641637"><ele>799.0</ele><time>2026-03-15T14:41:11.999Z</time></trkpt><trkpt lat="45.67272685144613" lon="10.102648198190003"><ele>799.0</ele><time>2026-03-15T14:41:12.999Z</time></trkpt><trkpt lat="45.672770911275244" lon="10.10243913250243"><ele>799.0</ele><time>2026-03-15T14:41:13.999Z</time></trkpt><trkpt lat="45.672796749816584" lon="10.102243462401034"><ele>793.5</ele><time>2026-03-15T14:41:14.999Z</time></trkpt><trkpt lat="45.6728257332917" lon="10.102055798149689"><ele>788.0</ele><time>2026-03-15T14:41:15.999Z</time></trkpt><trkpt lat="45.67284642849496" lon="10.101886653288433"><ele>782.5</ele><time>2026-03-15T14:41:16.999Z</time></trkpt><trkpt lat="45.672888468167145" lon="10.101720453149197"><ele>777.0</ele><time>2026-03-15T14:41:17.999Z</time></trkpt><trkpt lat="45.67290930179958" lon="10.101565250453985"><ele>777.0</ele><time>2026-03-15T14:41:18.999Z</time></trkpt><trkpt lat="45.67296399038015" lon="10.101433131270541"><ele>777.0</ele><time>2026-03-15T14:41:19.999Z</time></trkpt><trkpt lat="45.6730269299423" lon="10.10132054448571"><ele>777.0</ele><time>2026-03-15T14:41:20.999Z</time></trkpt><trkpt lat="45.673091755360566" lon="10.101249256800292"><ele>777.0</ele><time>2026-03-15T14:41:21.999Z</time></trkpt><trkpt lat="45.673136764046745" lon="10.101173046608304"><ele>777.0</ele><time>2026-03-15T14:41:22.999Z</time></trkpt><trkpt lat="45.67320854626638" lon="10.101152601592464"><ele>777.0</ele><time>2026-03-15T14:41:23.999Z</time></trkpt><trkpt lat="45.67328544511041" lon="10.101183051911805"><ele>777.0</ele><time>2026-03-15T14:41:24.999Z</time></trkpt><trkpt lat="45.67335036987442" lon="10.101217875060454"><ele>777.0</ele><time>2026-03-15T14:41:25.999Z</time></trkpt><trkpt lat="45.67341650684149" lon="10.101190133317274"><ele>777.0</ele><time>2026-03-15T14:41:26.999Z</time></trkpt><trkpt lat="45.673440709848045" lon="10.101083812749454"><ele>777.0</ele><time>2026-03-15T14:41:27.999Z</time></trkpt><trkpt lat="45.67345833447835" lon="10.100925504970064"><ele>777.0</ele><time>2026-03-15T14:41:28.999Z</time></trkpt><trkpt lat="45.673502467058654" lon="10.100744897712833"><ele>777.0</ele><time>2026-03-15T14:41:29.999Z</time></trkpt><trkpt lat="45.67353460524084" lon="10.10058775870727"><ele>777.0</ele><time>2026-03-15T14:41:30.999Z</time></trkpt><trkpt lat="45.67356322792145" lon="10.100446039512711"><ele>777.0</ele><time>2026-03-15T14:41:31.999Z</time></trkpt><trkpt lat="45.67357037052105" lon="10.100269925280486"><ele>777.0</ele><time>2026-03-15T14:41:32.999Z</time></trkpt><trkpt lat="45.67355101315757" lon="10.10004152045774"><ele>775.75</ele><time>2026-03-15T14:41:33.999Z</time></trkpt><trkpt lat="45.67352829734602" lon="10.099807097909306"><ele>774.5</ele><time>2026-03-15T14:41:34.999Z</time></trkpt><trkpt lat="45.6735255695793" lon="10.099598431379986"><ele>773.25</ele><time>2026-03-15T14:41:35.999Z</time></trkpt><trkpt lat="45.67351116521833" lon="10.099430101279346"><ele>772.0</ele><time>2026-03-15T14:41:36.999Z</time></trkpt><trkpt lat="45.673487490918596" lon="10.099289893191116"><ele>772.0</ele><time>2026-03-15T14:41:37.999Z</time></trkpt><trkpt lat="45.67341676765636" lon="10.09918897205365"><ele>772.0</ele><time>2026-03-15T14:41:38.999Z</time></trkpt><trkpt lat="45.673380719920225" lon="10.099099675191265"><ele>772.0</ele><time>2026-03-15T14:41:39.999Z</time></trkpt><trkpt lat="45.67336635110964" lon="10.099002512867626"><ele>772.0</ele><time>2026-03-15T14:41:41.999Z</time></trkpt><trkpt lat="45.67346896214614" lon="10.099009978413829"><ele>772.0</ele><time>2026-03-15T14:41:43.999Z</time></trkpt><trkpt lat="45.673493824068224" lon="10.09920395467969"><ele>772.0</ele><time>2026-03-15T14:41:44.999Z</time></trkpt><trkpt lat="45.673562842992" lon="10.099331794830858"><ele>772.0</ele><time>2026-03-15T14:41:45.999Z</time></trkpt><trkpt lat="45.67362234268994" lon="10.099471298155546"><ele>772.0</ele><time>2026-03-15T14:41:46.999Z</time></trkpt><trkpt lat="45.673668100456986" lon="10.099642902881554"><ele>772.0</ele><time>2026-03-15T14:41:47.999Z</time></trkpt><trkpt lat="45.673751541855474" lon="10.099800965035367"><ele>764.0</ele><time>2026-03-15T14:41:48.999Z</time></trkpt><trkpt lat="45.6738327980321" lon="10.099970901093718"><ele>756.0</ele><time>2026-03-15T14:41:49.999Z</time></trkpt><trkpt lat="45.67391624088983" lon="10.100128645832225"><ele>748.0</ele><time>2026-03-15T14:41:50.999Z</time></trkpt><trkpt lat="45.673962328334284" lon="10.100298352951258"><ele>740.0</ele><time>2026-03-15T14:41:51.998Z</time></trkpt><trkpt lat="45.674024962949126" lon="10.100465884096277"><ele>740.0</ele><time>2026-03-15T14:41:52.998Z</time></trkpt><trkpt lat="45.67407082598902" lon="10.100652182042506"><ele>740.0</ele><time>2026-03-15T14:41:53.998Z</time></trkpt><trkpt lat="45.67411906886792" lon="10.100840252120259"><ele>740.0</ele><time>2026-03-15T14:41:54.998Z</time></trkpt><trkpt lat="45.674168261950776" lon="10.101021736717273"><ele>740.0</ele><time>2026-03-15T14:41:55.998Z</time></trkpt><trkpt lat="45.67422640110334" lon="10.101207507068823"><ele>741.5</ele><time>2026-03-15T14:41:56.998Z</time></trkpt><trkpt lat="45.67427909895017" lon="10.10138573123237"><ele>743.0</ele><time>2026-03-15T14:41:57.998Z</time></trkpt><trkpt lat="45.67433017042996" lon="10.101557508736962"><ele>744.5</ele><time>2026-03-15T14:41:58.998Z</time></trkpt><trkpt lat="45.674382324493266" lon="10.101733634257965"><ele>746.0</ele><time>2026-03-15T14:41:59.998Z</time></trkpt><trkpt lat="45.674437018173826" lon="10.101915828854391"><ele>735.0</ele><time>2026-03-15T14:42:00.998Z</time></trkpt><trkpt lat="45.67449170907555" lon="10.102118414582526"><ele>724.0</ele><time>2026-03-15T14:42:01.998Z</time></trkpt><trkpt lat="45.67452332734783" lon="10.102340890910154"><ele>713.0</ele><time>2026-03-15T14:42:02.998Z</time></trkpt><trkpt lat="45.67455856051201" lon="10.102549910451069"><ele>712.5</ele><time>2026-03-15T14:42:03.998Z</time></trkpt><trkpt lat="45.67460649648206" lon="10.102725733639305"><ele>712.0</ele><time>2026-03-15T14:42:04.998Z</time></trkpt><trkpt lat="45.6746360251068" lon="10.102905905764977"><ele>711.5</ele><time>2026-03-15T14:42:05.998Z</time></trkpt><trkpt lat="45.674660453376745" lon="10.103089178739046"><ele>711.0</ele><time>2026-03-15T14:42:06.998Z</time></trkpt><trkpt lat="45.67465618871606" lon="10.103305696082202"><ele>711.0</ele><time>2026-03-15T14:42:07.998Z</time></trkpt><trkpt lat="45.67466696684056" lon="10.103553197933284"><ele>711.0</ele><time>2026-03-15T14:42:08.998Z</time></trkpt><trkpt lat="45.67470911192213" lon="10.103813715893367"><ele>711.0</ele><time>2026-03-15T14:42:09.998Z</time></trkpt><trkpt lat="45.674728233254996" lon="10.104059768844753"><ele>710.5</ele><time>2026-03-15T14:42:10.998Z</time></trkpt><trkpt lat="45.67477891056028" lon="10.1042775941783"><ele>710.0</ele><time>2026-03-15T14:42:11.998Z</time></trkpt><trkpt lat="45.67481255974135" lon="10.104478297337616"><ele>709.5</ele><time>2026-03-15T14:42:12.998Z</time></trkpt><trkpt lat="45.67483627292877" lon="10.104663444256106"><ele>709.0</ele><time>2026-03-15T14:42:13.998Z</time></trkpt><trkpt lat="45.674820756923125" lon="10.104851483496775"><ele>708.5</ele><time>2026-03-15T14:42:14.998Z</time></trkpt><trkpt lat="45.67483830783185" lon="10.10505510518753"><ele>708.0</ele><time>2026-03-15T14:42:15.998Z</time></trkpt><trkpt lat="45.67484027390774" lon="10.105265693964318"><ele>707.5</ele><time>2026-03-15T14:42:16.998Z</time></trkpt><trkpt lat="45.6748407174184" lon="10.105486923156247"><ele>707.0</ele><time>2026-03-15T14:42:17.998Z</time></trkpt><trkpt lat="45.6748460117535" lon="10.105707745969061"><ele>706.0</ele><time>2026-03-15T14:42:18.998Z</time></trkpt><trkpt lat="45.674823576435884" lon="10.105912403451438"><ele>705.0</ele><time>2026-03-15T14:42:19.998Z</time></trkpt><trkpt lat="45.67481130576807" lon="10.106112147919461"><ele>704.0</ele><time>2026-03-15T14:42:20.998Z</time></trkpt><trkpt lat="45.67479945647045" lon="10.106291270308779"><ele>703.0</ele><time>2026-03-15T14:42:21.998Z</time></trkpt><trkpt lat="45.67476966494116" lon="10.106452450420052"><ele>700.5</ele><time>2026-03-15T14:42:22.998Z</time></trkpt><trkpt lat="45.67469962936549" lon="10.106588917967551"><ele>698.0</ele><time>2026-03-15T14:42:23.998Z</time></trkpt><trkpt lat="45.67465174923934" lon="10.106734932427253"><ele>695.5</ele><time>2026-03-15T14:42:24.998Z</time></trkpt><trkpt lat="45.67463301668924" lon="10.106908544892525"><ele>693.0</ele><time>2026-03-15T14:42:25.998Z</time></trkpt><trkpt lat="45.67466567120184" lon="10.107097236729775"><ele>693.0</ele><time>2026-03-15T14:42:26.998Z</time></trkpt><trkpt lat="45.674654100822956" lon="10.107290349196333"><ele>693.0</ele><time>2026-03-15T14:42:27.998Z</time></trkpt><trkpt lat="45.67461724470173" lon="10.107458898634317"><ele>693.0</ele><time>2026-03-15T14:42:28.998Z</time></trkpt><trkpt lat="45.67457321889705" lon="10.107631004880501"><ele>693.0</ele><time>2026-03-15T14:42:29.998Z</time></trkpt><trkpt lat="45.6745244314254" lon="10.107815168500219"><ele>689.75</ele><time>2026-03-15T14:42:30.998Z</time></trkpt><trkpt lat="45.67448470106459" lon="10.108006197156111"><ele>686.5</ele><time>2026-03-15T14:42:31.998Z</time></trkpt><trkpt lat="45.67448766006335" lon="10.108205980130293"><ele>683.25</ele><time>2026-03-15T14:42:32.998Z</time></trkpt><trkpt lat="45.67447678759603" lon="10.108398157635555"><ele>680.0</ele><time>2026-03-15T14:42:33.997Z</time></trkpt><trkpt lat="45.674455555261346" lon="10.108609441285427"><ele>684.75</ele><time>2026-03-15T14:42:34.997Z</time></trkpt><trkpt lat="45.67440989442941" lon="10.10882746256241"><ele>689.5</ele><time>2026-03-15T14:42:35.997Z</time></trkpt><trkpt lat="45.67439632346551" lon="10.109044346706273"><ele>694.25</ele><time>2026-03-15T14:42:36.997Z</time></trkpt><trkpt lat="45.67438369115418" lon="10.10923504395455"><ele>699.0</ele><time>2026-03-15T14:42:37.997Z</time></trkpt><trkpt lat="45.674371740918495" lon="10.109419256685017"><ele>699.0</ele><time>2026-03-15T14:42:38.997Z</time></trkpt><trkpt lat="45.674364053292905" lon="10.109575221954726"><ele>699.0</ele><time>2026-03-15T14:42:39.997Z</time></trkpt><trkpt lat="45.67435761566617" lon="10.109755365493962"><ele>699.0</ele><time>2026-03-15T14:42:40.997Z</time></trkpt><trkpt lat="45.67435756047797" lon="10.109920246134669"><ele>699.0</ele><time>2026-03-15T14:42:41.997Z</time></trkpt><trkpt lat="45.67436512211676" lon="10.11008312155628"><ele>697.6</ele><time>2026-03-15T14:42:42.997Z</time></trkpt><trkpt lat="45.67439230860849" lon="10.110229741449677"><ele>696.2</ele><time>2026-03-15T14:42:43.997Z</time></trkpt><trkpt lat="45.674422504683996" lon="10.110356900857301"><ele>694.8000000000001</ele><time>2026-03-15T14:42:44.997Z</time></trkpt><trkpt lat="45.674476710934194" lon="10.110452330752267"><ele>693.4000000000001</ele><time>2026-03-15T14:42:45.997Z</time></trkpt><trkpt lat="45.674555857471745" lon="10.110532962446982"><ele>692.0</ele><time>2026-03-15T14:42:46.997Z</time></trkpt><trkpt lat="45.67465548081066" lon="10.110600871605115"><ele>686.4000000000001</ele><time>2026-03-15T14:42:48Z</time></trkpt><trkpt lat="45.67476110401212" lon="10.110641345608418"><ele>680.8000000000001</ele><time>2026-03-15T14:42:49Z</time></trkpt><trkpt lat="45.67485022824507" lon="10.110710605329993"><ele>675.2</ele><time>2026-03-15T14:42:50Z</time></trkpt><trkpt lat="45.674915268538335" lon="10.110816299244528"><ele>669.6</ele><time>2026-03-15T14:42:51Z</time></trkpt><trkpt lat="45.67495714515989" lon="10.110940901128735"><ele>664.0</ele><time>2026-03-15T14:42:52Z</time></trkpt><trkpt lat="45.67495716447463" lon="10.111083274994895"><ele>664.0</ele><time>2026-03-15T14:42:53Z</time></trkpt><trkpt lat="45.67493850760143" lon="10.111240618604452"><ele>664.0</ele><time>2026-03-15T14:42:54Z</time></trkpt><trkpt lat="45.67494948831585" lon="10.111404752069282"><ele>664.0</ele><time>2026-03-15T14:42:55Z</time></trkpt><trkpt lat="45.674963011164856" lon="10.111573485696614"><ele>664.0</ele><time>2026-03-15T14:42:56Z</time></trkpt><trkpt lat="45.675000114815376" lon="10.111750737359474"><ele>665.25</ele><time>2026-03-15T14:42:57Z</time></trkpt><trkpt lat="45.675040924216596" lon="10.111913335422987"><ele>666.5</ele><time>2026-03-15T14:42:58Z</time></trkpt><trkpt lat="45.675098936263836" lon="10.112067730188508"><ele>667.75</ele><time>2026-03-15T14:42:59Z</time></trkpt><trkpt lat="45.67516748862077" lon="10.112218856035774"><ele>669.0</ele><time>2026-03-15T14:43:00Z</time></trkpt><trkpt lat="45.675247826119964" lon="10.112365263352627"><ele>663.75</ele><time>2026-03-15T14:43:01Z</time></trkpt><trkpt lat="45.675344993967116" lon="10.112493763387523"><ele>658.5</ele><time>2026-03-15T14:43:02Z</time></trkpt><trkpt lat="45.67544587559377" lon="10.112618837029613"><ele>653.25</ele><time>2026-03-15T14:43:03Z</time></trkpt><trkpt lat="45.67552545740847" lon="10.112747655001128"><ele>648.0</ele><time>2026-03-15T14:43:04Z</time></trkpt><trkpt lat="45.675587901834554" lon="10.112887137538689"><ele>648.0</ele><time>2026-03-15T14:43:05Z</time></trkpt><trkpt lat="45.67564070426933" lon="10.113026086285261"><ele>648.0</ele><time>2026-03-15T14:43:06Z</time></trkpt><trkpt lat="45.67569805806571" lon="10.113153506860156"><ele>648.0</ele><time>2026-03-15T14:43:07Z</time></trkpt><trkpt lat="45.67576070402774" lon="10.11327777906997"><ele>648.0</ele><time>2026-03-15T14:43:08Z</time></trkpt><trkpt lat="45.67581743758007" lon="10.113397802710274"><ele>648.0</ele><time>2026-03-15T14:43:09Z</time></trkpt><trkpt lat="45.67585945489476" lon="10.113522519560917"><ele>648.25</ele><time>2026-03-15T14:43:10Z</time></trkpt><trkpt lat="45.675872389546285" lon="10.113668251262169"><ele>648.5</ele><time>2026-03-15T14:43:11Z</time></trkpt><trkpt lat="45.675837329390305" lon="10.113848150974281"><ele>648.75</ele><time>2026-03-15T14:43:12Z</time></trkpt><trkpt lat="45.675825331845516" lon="10.114051667949713"><ele>649.0</ele><time>2026-03-15T14:43:13Z</time></trkpt><trkpt lat="45.6758303347603" lon="10.114253835755223"><ele>649.0</ele><time>2026-03-15T14:43:14Z</time></trkpt><trkpt lat="45.67581166970524" lon="10.114425973901078"><ele>649.0</ele><time>2026-03-15T14:43:15Z</time></trkpt><trkpt lat="45.675810061881364" lon="10.114617654935724"><ele>649.0</ele><time>2026-03-15T14:43:16Z</time></trkpt><trkpt lat="45.67582341986952" lon="10.114834775676641"><ele>649.0</ele><time>2026-03-15T14:43:17Z</time></trkpt><trkpt lat="45.67583963648244" lon="10.115055047131875"><ele>646.75</ele><time>2026-03-15T14:43:18Z</time></trkpt><trkpt lat="45.67586146515503" lon="10.115263132704358"><ele>644.5</ele><time>2026-03-15T14:43:19Z</time></trkpt><trkpt lat="45.675889422636914" lon="10.115463040028912"><ele>642.25</ele><time>2026-03-15T14:43:20Z</time></trkpt><trkpt lat="45.67590525087332" lon="10.1156645934308"><ele>640.0</ele><time>2026-03-15T14:43:21Z</time></trkpt><trkpt lat="45.67594873569053" lon="10.11586044780985"><ele>636.3333333333334</ele><time>2026-03-15T14:43:22Z</time></trkpt><trkpt lat="45.67600401850932" lon="10.11606562933836"><ele>632.6666666666666</ele><time>2026-03-15T14:43:23Z</time></trkpt><trkpt lat="45.67606165028142" lon="10.116279977995266"><ele>629.0</ele><time>2026-03-15T14:43:24Z</time></trkpt><trkpt lat="45.6761159785727" lon="10.116494459496856"><ele>628.0</ele><time>2026-03-15T14:43:25Z</time></trkpt><trkpt lat="45.676166693707934" lon="10.116699756120385"><ele>627.0</ele><time>2026-03-15T14:43:26Z</time></trkpt><trkpt lat="45.67621355177472" lon="10.11689147552418"><ele>626.0</ele><time>2026-03-15T14:43:26.999Z</time></trkpt><trkpt lat="45.67624592809653" lon="10.117047580971912"><ele>625.0</ele><time>2026-03-15T14:43:27.999Z</time></trkpt><trkpt lat="45.67626554283328" lon="10.117188886261303"><ele>625.0</ele><time>2026-03-15T14:43:28.999Z</time></trkpt><trkpt lat="45.676234882170604" lon="10.117318678094737"><ele>625.0</ele><time>2026-03-15T14:43:29.999Z</time></trkpt><trkpt lat="45.67621193872729" lon="10.117453079351675"><ele>625.0</ele><time>2026-03-15T14:43:30.999Z</time></trkpt><trkpt lat="45.67620029920821" lon="10.117594719043026"><ele>625.0</ele><time>2026-03-15T14:43:31.999Z</time></trkpt><trkpt lat="45.676211173850355" lon="10.117746271890374"><ele>625.0</ele><time>2026-03-15T14:43:32.999Z</time></trkpt><trkpt lat="45.67622366586229" lon="10.117902902078093"><ele>623.0</ele><time>2026-03-15T14:43:33.999Z</time></trkpt><trkpt lat="45.67622745667831" lon="10.118034032954816"><ele>621.0</ele><time>2026-03-15T14:43:34.999Z</time></trkpt><trkpt lat="45.67622424489057" lon="10.118163456577946"><ele>619.0</ele><time>2026-03-15T14:43:35.999Z</time></trkpt><trkpt lat="45.6762358808137" lon="10.118332229004231"><ele>617.0</ele><time>2026-03-15T14:43:36.999Z</time></trkpt><trkpt lat="45.67625191078421" lon="10.118499014992226"><ele>615.0</ele><time>2026-03-15T14:43:37.999Z</time></trkpt><trkpt lat="45.67628082771956" lon="10.118670847073956"><ele>614.4</ele><time>2026-03-15T14:43:38.999Z</time></trkpt><trkpt lat="45.676317694125665" lon="10.11883420801392"><ele>613.8</ele><time>2026-03-15T14:43:39.999Z</time></trkpt><trkpt lat="45.6763611091065" lon="10.118975780646231"><ele>613.2</ele><time>2026-03-15T14:43:40.999Z</time></trkpt><trkpt lat="45.6764218970203" lon="10.119096049302465"><ele>612.6</ele><time>2026-03-15T14:43:41.999Z</time></trkpt><trkpt lat="45.67646354222865" lon="10.119243528062496"><ele>612.0</ele><time>2026-03-15T14:43:42.999Z</time></trkpt><trkpt lat="45.67656270402442" lon="10.119387312808705"><ele>611.25</ele><time>2026-03-15T14:43:43.999Z</time></trkpt><trkpt lat="45.676673350710324" lon="10.119558919323556"><ele>610.5</ele><time>2026-03-15T14:43:44.999Z</time></trkpt><trkpt lat="45.67677858808315" lon="10.119713970704145"><ele>609.75</ele><time>2026-03-15T14:43:45.999Z</time></trkpt><trkpt lat="45.676851499752985" lon="10.119875773159313"><ele>609.0</ele><time>2026-03-15T14:43:46.999Z</time></trkpt><trkpt lat="45.67694625741584" lon="10.120024188476805"><ele>608.6666666666666</ele><time>2026-03-15T14:43:47.999Z</time></trkpt><trkpt lat="45.67706498666964" lon="10.120220678803584"><ele>608.3333333333333</ele><time>2026-03-15T14:43:48.999Z</time></trkpt><trkpt lat="45.677212034039954" lon="10.120400229354912"><ele>608.0</ele><time>2026-03-15T14:43:49.999Z</time></trkpt><trkpt lat="45.677366636251364" lon="10.120572523454207"><ele>608.6666666666666</ele><time>2026-03-15T14:43:50.999Z</time></trkpt><trkpt lat="45.677471541610736" lon="10.120805113451352"><ele>609.3333333333334</ele><time>2026-03-15T14:43:51.999Z</time></trkpt><trkpt lat="45.67757351983814" lon="10.120997624829105"><ele>610.0</ele><time>2026-03-15T14:43:52.999Z</time></trkpt><trkpt lat="45.67766402559551" lon="10.121164396963547"><ele>610.0</ele><time>2026-03-15T14:43:53.999Z</time></trkpt><trkpt lat="45.67775495004155" lon="10.121292270859474"><ele>610.0</ele><time>2026-03-15T14:43:54.999Z</time></trkpt><trkpt lat="45.677834252917194" lon="10.121408754045595"><ele>610.0</ele><time>2026-03-15T14:43:55.999Z</time></trkpt><trkpt lat="45.6779216520244" lon="10.121505161809752"><ele>610.0</ele><time>2026-03-15T14:43:56.999Z</time></trkpt><trkpt lat="45.678019529597265" lon="10.121580485291416"><ele>611.5</ele><time>2026-03-15T14:43:57.999Z</time></trkpt><trkpt lat="45.678115717386156" lon="10.121650660017897"><ele>613.0</ele><time>2026-03-15T14:43:58.999Z</time></trkpt><trkpt lat="45.678215118281926" lon="10.121720743022593"><ele>614.5</ele><time>2026-03-15T14:43:59.999Z</time></trkpt><trkpt lat="45.678329395305525" lon="10.121792064682037"><ele>616.0</ele><time>2026-03-15T14:44:00.999Z</time></trkpt><trkpt lat="45.67843452200846" lon="10.121864222556841"><ele>616.0</ele><time>2026-03-15T14:44:01.999Z</time></trkpt><trkpt lat="45.67852901596752" lon="10.12193074886299"><ele>616.0</ele><time>2026-03-15T14:44:02.999Z</time></trkpt><trkpt lat="45.678608011945585" lon="10.121995805968764"><ele>616.0</ele><time>2026-03-15T14:44:03.999Z</time></trkpt><trkpt lat="45.67870443248357" lon="10.122082219151157"><ele>616.0</ele><time>2026-03-15T14:44:04.999Z</time></trkpt><trkpt lat="45.67880404090075" lon="10.122173044264976"><ele>616.0</ele><time>2026-03-15T14:44:05.999Z</time></trkpt><trkpt lat="45.67890113338178" lon="10.122263023276798"><ele>616.2</ele><time>2026-03-15T14:44:06.999Z</time></trkpt><trkpt lat="45.67898291991246" lon="10.122343969579433"><ele>616.4000000000001</ele><time>2026-03-15T14:44:07.999Z</time></trkpt><trkpt lat="45.67905827469673" lon="10.122420953928735"><ele>616.6</ele><time>2026-03-15T14:44:08.998Z</time></trkpt><trkpt lat="45.679122291801065" lon="10.122503094799972"><ele>616.8000000000001</ele><time>2026-03-15T14:44:09.998Z</time></trkpt><trkpt lat="45.679151055402706" lon="10.122633787419407"><ele>617.0</ele><time>2026-03-15T14:44:10.998Z</time></trkpt><trkpt lat="45.679162555966045" lon="10.122780658279721"><ele>614.75</ele><time>2026-03-15T14:44:11.998Z</time></trkpt><trkpt lat="45.67918073745318" lon="10.122948070898428"><ele>612.5</ele><time>2026-03-15T14:44:12.998Z</time></trkpt><trkpt lat="45.67924076488916" lon="10.123114102534842"><ele>610.25</ele><time>2026-03-15T14:44:13.998Z</time></trkpt><trkpt lat="45.67930384236269" lon="10.123259584788887"><ele>608.0</ele><time>2026-03-15T14:44:14.998Z</time></trkpt><trkpt lat="45.67937128434839" lon="10.123369142671864"><ele>607.0</ele><time>2026-03-15T14:44:15.998Z</time></trkpt><trkpt lat="45.679438087714004" lon="10.123468047003302"><ele>606.0</ele><time>2026-03-15T14:44:16.998Z</time></trkpt><trkpt lat="45.679504288604456" lon="10.123585642543237"><ele>605.0</ele><time>2026-03-15T14:44:17.998Z</time></trkpt><trkpt lat="45.6795675040734" lon="10.12370673574218"><ele>604.0</ele><time>2026-03-15T14:44:18.998Z</time></trkpt><trkpt lat="45.67962725795631" lon="10.123810634780062"><ele>603.0</ele><time>2026-03-15T14:44:19.998Z</time></trkpt><trkpt lat="45.67969033888677" lon="10.123902128680617"><ele>603.0</ele><time>2026-03-15T14:44:20.998Z</time></trkpt><trkpt lat="45.67976870669401" lon="10.123958570015635"><ele>603.0</ele><time>2026-03-15T14:44:21.998Z</time></trkpt><trkpt lat="45.679863978689255" lon="10.123965896382677"><ele>603.0</ele><time>2026-03-15T14:44:22.998Z</time></trkpt><trkpt lat="45.67997738201633" lon="10.123942938345941"><ele>603.0</ele><time>2026-03-15T14:44:23.998Z</time></trkpt><trkpt lat="45.680116931349716" lon="10.123899519210296"><ele>603.0</ele><time>2026-03-15T14:44:24.998Z</time></trkpt><trkpt lat="45.68026211846558" lon="10.123860698721609"><ele>602.5</ele><time>2026-03-15T14:44:25.998Z</time></trkpt><trkpt lat="45.68039995524513" lon="10.123841371660511"><ele>602.0</ele><time>2026-03-15T14:44:26.998Z</time></trkpt><trkpt lat="45.6805180877776" lon="10.123850819697351"><ele>601.5</ele><time>2026-03-15T14:44:27.998Z</time></trkpt><trkpt lat="45.68064224669486" lon="10.123871406556926"><ele>601.0</ele><time>2026-03-15T14:44:28.998Z</time></trkpt><trkpt lat="45.68076767485613" lon="10.123921403646339"><ele>601.0</ele><time>2026-03-15T14:44:29.998Z</time></trkpt><trkpt lat="45.68087188704077" lon="10.123949525050847"><ele>601.0</ele><time>2026-03-15T14:44:30.998Z</time></trkpt><trkpt lat="45.68096593130217" lon="10.123968125137898"><ele>601.0</ele><time>2026-03-15T14:44:31.998Z</time></trkpt><trkpt lat="45.68105618811448" lon="10.124041660576196"><ele>601.0</ele><time>2026-03-15T14:44:32.998Z</time></trkpt><trkpt lat="45.68113479387258" lon="10.124130698836582"><ele>601.0</ele><time>2026-03-15T14:44:33.998Z</time></trkpt><trkpt lat="45.68122595468739" lon="10.124176073782593"><ele>603.25</ele><time>2026-03-15T14:44:34.998Z</time></trkpt><trkpt lat="45.681338438694546" lon="10.124095531609873"><ele>605.5</ele><time>2026-03-15T14:44:35.998Z</time></trkpt><trkpt lat="45.681470551004985" lon="10.124032362443158"><ele>607.75</ele><time>2026-03-15T14:44:36.998Z</time></trkpt><trkpt lat="45.68160479092048" lon="10.124003043685"><ele>610.0</ele><time>2026-03-15T14:44:37.998Z</time></trkpt><trkpt lat="45.68172528562957" lon="10.12398015913317"><ele>607.5</ele><time>2026-03-15T14:44:38.998Z</time></trkpt><trkpt lat="45.68183945149261" lon="10.12395641706483"><ele>605.0</ele><time>2026-03-15T14:44:39.998Z</time></trkpt><trkpt lat="45.68196708055714" lon="10.12399615114165"><ele>602.5</ele><time>2026-03-15T14:44:40.998Z</time></trkpt><trkpt lat="45.682082824908115" lon="10.12399122954565"><ele>600.0</ele><time>2026-03-15T14:44:41.998Z</time></trkpt><trkpt lat="45.682205702471755" lon="10.123988821163548"><ele>600.0</ele><time>2026-03-15T14:44:42.998Z</time></trkpt><trkpt lat="45.682327301574325" lon="10.124021802889668"><ele>600.0</ele><time>2026-03-15T14:44:43.998Z</time></trkpt><trkpt lat="45.68242755962167" lon="10.124028838481486"><ele>600.0</ele><time>2026-03-15T14:44:44.998Z</time></trkpt><trkpt lat="45.68249834288777" lon="10.124061179570937"><ele>600.0</ele><time>2026-03-15T14:44:45.998Z</time></trkpt><trkpt lat="45.682601564714695" lon="10.124106240235955"><ele>600.0</ele><time>2026-03-15T14:44:47.998Z</time></trkpt><trkpt lat="45.6827168341231" lon="10.124085258965724"><ele>600.0</ele><time>2026-03-15T14:44:57Z</time></trkpt><trkpt lat="45.68272230079885" lon="10.12392610162318"><ele>600.0</ele><time>2026-03-15T14:44:58Z</time></trkpt><trkpt lat="45.682745733590096" lon="10.123787079393548"><ele>600.0</ele><time>2026-03-15T14:44:59Z</time></trkpt><trkpt lat="45.68276025548017" lon="10.12363208503732"><ele>600.0</ele><time>2026-03-15T14:45:00Z</time></trkpt><trkpt lat="45.68278517722439" lon="10.123503633612419"><ele>600.0</ele><time>2026-03-15T14:45:01Z</time></trkpt><trkpt lat="45.68281579903383" lon="10.123422501256163"><ele>602.25</ele><time>2026-03-15T14:45:02Z</time></trkpt><trkpt lat="45.68286256877604" lon="10.123332237391718"><ele>604.5</ele><time>2026-03-15T14:45:04Z</time></trkpt><trkpt lat="45.6830025825645" lon="10.123266160433301"><ele>606.75</ele><time>2026-03-15T14:45:06Z</time></trkpt><trkpt lat="45.68311055475273" lon="10.123436903823238"><ele>609.0</ele><time>2026-03-15T14:45:07Z</time></trkpt><trkpt lat="45.68319924141784" lon="10.123535782389881"><ele>609.0</ele><time>2026-03-15T14:45:08Z</time></trkpt><trkpt lat="45.6832718751419" lon="10.123661687776451"><ele>609.0</ele><time>2026-03-15T14:45:09Z</time></trkpt><trkpt lat="45.683353494821404" lon="10.123791508180785"><ele>609.0</ele><time>2026-03-15T14:45:10Z</time></trkpt><trkpt lat="45.68342663529775" lon="10.123874617825013"><ele>609.0</ele><time>2026-03-15T14:45:11Z</time></trkpt><trkpt lat="45.6835078286817" lon="10.123945565264576"><ele>609.0</ele><time>2026-03-15T14:45:12Z</time></trkpt><trkpt lat="45.683595678104666" lon="10.1239953422928"><ele>607.2</ele><time>2026-03-15T14:45:13Z</time></trkpt><trkpt lat="45.68369493652604" lon="10.124026350714042"><ele>605.4</ele><time>2026-03-15T14:45:14Z</time></trkpt><trkpt lat="45.68379785270528" lon="10.124052384005253"><ele>603.6</ele><time>2026-03-15T14:45:15Z</time></trkpt><trkpt lat="45.68390849408589" lon="10.1241036915445"><ele>601.8</ele><time>2026-03-15T14:45:16Z</time></trkpt><trkpt lat="45.68401371704602" lon="10.124167659514676"><ele>600.0</ele><time>2026-03-15T14:45:17Z</time></trkpt><trkpt lat="45.68411341089933" lon="10.124246941833823"><ele>605.75</ele><time>2026-03-15T14:45:18Z</time></trkpt><trkpt lat="45.68420685208434" lon="10.124343079760031"><ele>611.5</ele><time>2026-03-15T14:45:19Z</time></trkpt><trkpt lat="45.6842953885433" lon="10.124454642329356"><ele>617.25</ele><time>2026-03-15T14:45:20Z</time></trkpt><trkpt lat="45.684383716052025" lon="10.124580944832488"><ele>623.0</ele><time>2026-03-15T14:45:21Z</time></trkpt><trkpt lat="45.68448114082985" lon="10.124721833698706"><ele>623.0</ele><time>2026-03-15T14:45:22Z</time></trkpt><trkpt lat="45.68457719979056" lon="10.124865501632835"><ele>623.0</ele><time>2026-03-15T14:45:23Z</time></trkpt><trkpt lat="45.684651391739116" lon="10.125005399581154"><ele>623.0</ele><time>2026-03-15T14:45:24Z</time></trkpt><trkpt lat="45.68469913032524" lon="10.125123807040067"><ele>623.0</ele><time>2026-03-15T14:45:25Z</time></trkpt><trkpt lat="45.68475151913446" lon="10.125240887433499"><ele>629.0</ele><time>2026-03-15T14:45:26Z</time></trkpt><trkpt lat="45.68482773114099" lon="10.125377166735703"><ele>635.0</ele><time>2026-03-15T14:45:27Z</time></trkpt><trkpt lat="45.684920563340796" lon="10.12552629570317"><ele>641.0</ele><time>2026-03-15T14:45:28Z</time></trkpt><trkpt lat="45.68503291974591" lon="10.125656484674627"><ele>647.0</ele><time>2026-03-15T14:45:29Z</time></trkpt><trkpt lat="45.68515174800886" lon="10.12576861162272"><ele>648.6</ele><time>2026-03-15T14:45:30Z</time></trkpt><trkpt lat="45.68524758335641" lon="10.125868123829965"><ele>650.2</ele><time>2026-03-15T14:45:31Z</time></trkpt><trkpt lat="45.68532010415665" lon="10.12595317926146"><ele>651.8</ele><time>2026-03-15T14:45:32Z</time></trkpt><trkpt lat="45.68537557454746" lon="10.126058707508626"><ele>653.4</ele><time>2026-03-15T14:45:33Z</time></trkpt><trkpt lat="45.68543236183928" lon="10.126209354509456"><ele>655.0</ele><time>2026-03-15T14:45:34Z</time></trkpt><trkpt lat="45.685478538246365" lon="10.126361508991325"><ele>655.8333333333334</ele><time>2026-03-15T14:45:35Z</time></trkpt><trkpt lat="45.685497836501185" lon="10.12648480134363"><ele>656.6666666666667</ele><time>2026-03-15T14:45:36Z</time></trkpt><trkpt lat="45.685499074391075" lon="10.126592189608495"><ele>657.5</ele><time>2026-03-15T14:45:37Z</time></trkpt><trkpt lat="45.68548430648902" lon="10.126680341367901"><ele>658.3333333333334</ele><time>2026-03-15T14:45:38Z</time></trkpt><trkpt lat="45.68544042182158" lon="10.126769639037105"><ele>659.1666666666666</ele><time>2026-03-15T14:45:39Z</time></trkpt><trkpt lat="45.68537387656346" lon="10.126893655510498"><ele>660.0</ele><time>2026-03-15T14:45:40Z</time></trkpt><trkpt lat="45.68531700686524" lon="10.127030014151"><ele>661.1666666666666</ele><time>2026-03-15T14:45:41Z</time></trkpt><trkpt lat="45.68525805746011" lon="10.127106909574973"><ele>662.3333333333334</ele><time>2026-03-15T14:45:42Z</time></trkpt><trkpt lat="45.68518741672883" lon="10.127135381442606"><ele>663.5</ele><time>2026-03-15T14:45:43Z</time></trkpt><trkpt lat="45.685105462784946" lon="10.12713291089447"><ele>664.6666666666667</ele><time>2026-03-15T14:45:44Z</time></trkpt><trkpt lat="45.68500797274831" lon="10.127113119903676"><ele>665.8333333333334</ele><time>2026-03-15T14:45:45Z</time></trkpt><trkpt lat="45.68490097568464" lon="10.127065011730592"><ele>667.0</ele><time>2026-03-15T14:45:46Z</time></trkpt><trkpt lat="45.6848095639936" lon="10.127041304517373"><ele>667.0</ele><time>2026-03-15T14:45:46.999Z</time></trkpt><trkpt lat="45.68470147126697" lon="10.127023553510144"><ele>667.0</ele><time>2026-03-15T14:45:48.999Z</time></trkpt><trkpt lat="45.684639404279565" lon="10.127053770168907"><ele>667.0</ele><time>2026-03-15T14:45:49.999Z</time></trkpt><trkpt lat="45.684535132773604" lon="10.12709067866117"><ele>667.0</ele><time>2026-03-15T14:45:50.998Z</time></trkpt><trkpt lat="45.68441221570957" lon="10.127161535013888"><ele>667.0</ele><time>2026-03-15T14:45:51.998Z</time></trkpt><trkpt lat="45.68427134403368" lon="10.127180898567229"><ele>666.0</ele><time>2026-03-15T14:45:52.998Z</time></trkpt><trkpt lat="45.68413340203203" lon="10.127198869313592"><ele>665.0</ele><time>2026-03-15T14:45:53.998Z</time></trkpt><trkpt lat="45.68401645341527" lon="10.127243934525131"><ele>664.0</ele><time>2026-03-15T14:45:54.998Z</time></trkpt><trkpt lat="45.68393768064451" lon="10.12731297762904"><ele>663.0</ele><time>2026-03-15T14:45:55.998Z</time></trkpt><trkpt lat="45.683862105251166" lon="10.12740590542005"><ele>669.25</ele><time>2026-03-15T14:45:56.998Z</time></trkpt><trkpt lat="45.68380744400258" lon="10.127507575131293"><ele>675.5</ele><time>2026-03-15T14:45:57.998Z</time></trkpt><trkpt lat="45.68379099141927" lon="10.12761507792651"><ele>681.75</ele><time>2026-03-15T14:45:58.998Z</time></trkpt><trkpt lat="45.68376334801562" lon="10.127865776877353"><ele>688.0</ele><time>2026-03-15T14:46:00.998Z</time></trkpt><trkpt lat="45.68374119116901" lon="10.12808436550913"><ele>688.0</ele><time>2026-03-15T14:46:01.998Z</time></trkpt><trkpt lat="45.68369810341674" lon="10.128220909753693"><ele>688.0</ele><time>2026-03-15T14:46:02.998Z</time></trkpt><trkpt lat="45.68364863763642" lon="10.128285076707858"><ele>688.0</ele><time>2026-03-15T14:46:03.998Z</time></trkpt><trkpt lat="45.6835332832801" lon="10.128304282954984"><ele>688.0</ele><time>2026-03-15T14:46:05.998Z</time></trkpt><trkpt lat="45.68346325645764" lon="10.128291054422853"><ele>688.0</ele><time>2026-03-15T14:46:06.998Z</time></trkpt><trkpt lat="45.6833901876123" lon="10.128284654239383"><ele>688.0</ele><time>2026-03-15T14:46:07.998Z</time></trkpt><trkpt lat="45.68329618731476" lon="10.128274656054547"><ele>690.3333333333334</ele><time>2026-03-15T14:46:08.998Z</time></trkpt><trkpt lat="45.68322757904044" lon="10.128262896567591"><ele>692.6666666666667</ele><time>2026-03-15T14:46:09.998Z</time></trkpt><trkpt lat="45.68312214161901" lon="10.128275979002254"><ele>695.0</ele><time>2026-03-15T14:46:11.998Z</time></trkpt><trkpt lat="45.68302931325527" lon="10.128365827208876"><ele>697.3333333333334</ele><time>2026-03-15T14:46:13.998Z</time></trkpt><trkpt lat="45.68303986408465" lon="10.128463356787163"><ele>699.6666666666666</ele><time>2026-03-15T14:46:14.998Z</time></trkpt><trkpt lat="45.683113699275346" lon="10.12852495912811"><ele>702.0</ele><time>2026-03-15T14:46:15.998Z</time></trkpt><trkpt lat="45.68319374297185" lon="10.128597816722902"><ele>702.0</ele><time>2026-03-15T14:46:16.998Z</time></trkpt><trkpt lat="45.683293828563095" lon="10.128698750879444"><ele>702.0</ele><time>2026-03-15T14:46:17.998Z</time></trkpt><trkpt lat="45.68341360155945" lon="10.128794611644205"><ele>702.0</ele><time>2026-03-15T14:46:18.998Z</time></trkpt><trkpt lat="45.68351188069195" lon="10.128908315689909"><ele>702.0</ele><time>2026-03-15T14:46:19.998Z</time></trkpt><trkpt lat="45.68359198202303" lon="10.129023279321778"><ele>703.2</ele><time>2026-03-15T14:46:20.998Z</time></trkpt><trkpt lat="45.68365290208057" lon="10.129097560188654"><ele>704.4000000000001</ele><time>2026-03-15T14:46:21.998Z</time></trkpt><trkpt lat="45.683722004758636" lon="10.129112578196152"><ele>705.5999999999999</ele><time>2026-03-15T14:46:22.998Z</time></trkpt><trkpt lat="45.68383622954026" lon="10.129035542618341"><ele>706.8</ele><time>2026-03-15T14:46:24.998Z</time></trkpt><trkpt lat="45.68392205141379" lon="10.128978032567652"><ele>708.0</ele><time>2026-03-15T14:46:25.998Z</time></trkpt><trkpt lat="45.68404351446183" lon="10.12892715053755"><ele>708.0</ele><time>2026-03-15T14:46:26.998Z</time></trkpt><trkpt lat="45.68413990687371" lon="10.128895275550056"><ele>708.0</ele><time>2026-03-15T14:46:27.998Z</time></trkpt><trkpt lat="45.68420707567232" lon="10.128896545461561"><ele>708.0</ele><time>2026-03-15T14:46:28.997Z</time></trkpt><trkpt lat="45.68428057420516" lon="10.128929345176857"><ele>708.0</ele><time>2026-03-15T14:46:29.997Z</time></trkpt><trkpt lat="45.684370095335595" lon="10.128980812243151"><ele>708.0</ele><time>2026-03-15T14:46:30.997Z</time></trkpt><trkpt lat="45.68447818609875" lon="10.129029515605747"><ele>715.0</ele><time>2026-03-15T14:46:31.997Z</time></trkpt><trkpt lat="45.68460011508664" lon="10.129128587657537"><ele>722.0</ele><time>2026-03-15T14:46:32.997Z</time></trkpt><trkpt lat="45.68473205670175" lon="10.129246722220088"><ele>729.0</ele><time>2026-03-15T14:46:33.997Z</time></trkpt><trkpt lat="45.68484804717474" lon="10.129352062148065"><ele>736.0</ele><time>2026-03-15T14:46:34.997Z</time></trkpt><trkpt lat="45.684938880070064" lon="10.1294073821299"><ele>736.0</ele><time>2026-03-15T14:46:35.997Z</time></trkpt><trkpt lat="45.68505434464878" lon="10.129466057268706"><ele>736.0</ele><time>2026-03-15T14:46:36.997Z</time></trkpt><trkpt lat="45.68521379983442" lon="10.129506382648916"><ele>736.0</ele><time>2026-03-15T14:46:37.997Z</time></trkpt><trkpt lat="45.68536085200432" lon="10.129547826507137"><ele>736.0</ele><time>2026-03-15T14:46:38.997Z</time></trkpt><trkpt lat="45.685467957774286" lon="10.129613587302426"><ele>737.1999999999999</ele><time>2026-03-15T14:46:39.997Z</time></trkpt><trkpt lat="45.68556362764553" lon="10.12964565966479"><ele>738.4</ele><time>2026-03-15T14:46:40.997Z</time></trkpt><trkpt lat="45.68565724327211" lon="10.129632845393242"><ele>739.6</ele><time>2026-03-15T14:46:41.997Z</time></trkpt><trkpt lat="45.68570674920872" lon="10.129504674732422"><ele>740.8</ele><time>2026-03-15T14:46:42.997Z</time></trkpt><trkpt lat="45.68577297190037" lon="10.12946315928497"><ele>742.0</ele><time>2026-03-15T14:46:43.997Z</time></trkpt><trkpt lat="45.68587848527748" lon="10.129406110312974"><ele>742.0</ele><time>2026-03-15T14:46:44.997Z</time></trkpt><trkpt lat="45.68600950517407" lon="10.129350954950043"><ele>742.0</ele><time>2026-03-15T14:46:45.997Z</time></trkpt><trkpt lat="45.68612245756589" lon="10.12926447639396"><ele>742.0</ele><time>2026-03-15T14:46:46.997Z</time></trkpt><trkpt lat="45.686216099102545" lon="10.129131467624811"><ele>742.0</ele><time>2026-03-15T14:46:47.997Z</time></trkpt><trkpt lat="45.68633637938632" lon="10.128981252932665"><ele>744.3333333333334</ele><time>2026-03-15T14:46:48.997Z</time></trkpt><trkpt lat="45.68646108298951" lon="10.1288116639876"><ele>746.6666666666666</ele><time>2026-03-15T14:46:49.997Z</time></trkpt><trkpt lat="45.68656962825813" lon="10.128674555468985"><ele>749.0</ele><time>2026-03-15T14:46:50.997Z</time></trkpt><trkpt lat="45.686689852740905" lon="10.128534566388858"><ele>749.0</ele><time>2026-03-15T14:46:51.997Z</time></trkpt><trkpt lat="45.68678966353374" lon="10.128422920883674"><ele>749.0</ele><time>2026-03-15T14:46:52.997Z</time></trkpt><trkpt lat="45.68688097560178" lon="10.12832168671051"><ele>749.0</ele><time>2026-03-15T14:46:53.997Z</time></trkpt><trkpt lat="45.68695287958969" lon="10.128242236856389"><ele>749.0</ele><time>2026-03-15T14:46:54.997Z</time></trkpt><trkpt lat="45.687030546103855" lon="10.1281625950372"><ele>749.0</ele><time>2026-03-15T14:46:55.997Z</time></trkpt><trkpt lat="45.68711296574342" lon="10.128102132271355"><ele>748.6</ele><time>2026-03-15T14:46:56.997Z</time></trkpt><trkpt lat="45.68719853187728" lon="10.128050545295418"><ele>748.2</ele><time>2026-03-15T14:46:57.997Z</time></trkpt><trkpt lat="45.6872909659784" lon="10.12800052500128"><ele>747.8000000000001</ele><time>2026-03-15T14:46:58.997Z</time></trkpt><trkpt lat="45.68740659391608" lon="10.127945257911687"><ele>747.4000000000001</ele><time>2026-03-15T14:47:00Z</time></trkpt><trkpt lat="45.68751507045724" lon="10.127879252539092"><ele>747.0</ele><time>2026-03-15T14:47:01Z</time></trkpt><trkpt lat="45.68760571175669" lon="10.127872261344537"><ele>747.0</ele><time>2026-03-15T14:47:02Z</time></trkpt><trkpt lat="45.687676964005" lon="10.12787503408313"><ele>747.0</ele><time>2026-03-15T14:47:04Z</time></trkpt><trkpt lat="45.687625600136485" lon="10.127984681824962"><ele>747.0</ele><time>2026-03-15T14:47:07Z</time></trkpt><trkpt lat="45.68750642990653" lon="10.128008447756274"><ele>747.0</ele><time>2026-03-15T14:47:08Z</time></trkpt><trkpt lat="45.68738441055459" lon="10.128085810211124"><ele>747.0</ele><time>2026-03-15T14:47:09Z</time></trkpt><trkpt lat="45.687284331889074" lon="10.12817083267233"><ele>754.8</ele><time>2026-03-15T14:47:10Z</time></trkpt><trkpt lat="45.687207017775016" lon="10.128258624342209"><ele>762.6</ele><time>2026-03-15T14:47:11Z</time></trkpt><trkpt lat="45.68714451599261" lon="10.128340445778536"><ele>770.4</ele><time>2026-03-15T14:47:12Z</time></trkpt><trkpt lat="45.68710448716449" lon="10.128433943312865"><ele>778.1999999999999</ele><time>2026-03-15T14:47:13Z</time></trkpt><trkpt lat="45.68705726514551" lon="10.128571527447189"><ele>786.0</ele><time>2026-03-15T14:47:14Z</time></trkpt><trkpt lat="45.687004998075125" lon="10.128743250932336"><ele>786.0</ele><time>2026-03-15T14:47:15Z</time></trkpt><trkpt lat="45.686961886293076" lon="10.128914177967713"><ele>786.0</ele><time>2026-03-15T14:47:16Z</time></trkpt><trkpt lat="45.68692689352739" lon="10.129104459704486"><ele>786.0</ele><time>2026-03-15T14:47:17Z</time></trkpt><trkpt lat="45.68688484179152" lon="10.129313236164045"><ele>786.0</ele><time>2026-03-15T14:47:18Z</time></trkpt><trkpt lat="45.686838865783436" lon="10.129537560528624"><ele>787.75</ele><time>2026-03-15T14:47:19Z</time></trkpt><trkpt lat="45.68679313959731" lon="10.129764664799152"><ele>789.5</ele><time>2026-03-15T14:47:20Z</time></trkpt><trkpt lat="45.68676448157274" lon="10.129952623233649"><ele>791.25</ele><time>2026-03-15T14:47:21Z</time></trkpt><trkpt lat="45.68671443395728" lon="10.130103181416569"><ele>793.0</ele><time>2026-03-15T14:47:22Z</time></trkpt><trkpt lat="45.686654843344364" lon="10.13026073688053"><ele>793.0</ele><time>2026-03-15T14:47:23Z</time></trkpt><trkpt lat="45.68656796125408" lon="10.130457031255702"><ele>793.0</ele><time>2026-03-15T14:47:23.999Z</time></trkpt><trkpt lat="45.68647128680103" lon="10.130660839785136"><ele>793.0</ele><time>2026-03-15T14:47:24.999Z</time></trkpt><trkpt lat="45.68637857809003" lon="10.13080741662588"><ele>795.0</ele><time>2026-03-15T14:47:25.999Z</time></trkpt><trkpt lat="45.68629189578764" lon="10.130955192248884"><ele>797.0</ele><time>2026-03-15T14:47:26.999Z</time></trkpt><trkpt lat="45.68617821240781" lon="10.131087980764125"><ele>799.0</ele><time>2026-03-15T14:47:27.999Z</time></trkpt><trkpt lat="45.686053140288855" lon="10.131202880074778"><ele>801.0</ele><time>2026-03-15T14:47:28.999Z</time></trkpt><trkpt lat="45.68594361721038" lon="10.131288397553101"><ele>801.0</ele><time>2026-03-15T14:47:29.999Z</time></trkpt><trkpt lat="45.68583892337138" lon="10.131344938983545"><ele>801.0</ele><time>2026-03-15T14:47:30.999Z</time></trkpt><trkpt lat="45.68575652964897" lon="10.131368325647454"><ele>801.0</ele><time>2026-03-15T14:47:31.999Z</time></trkpt><trkpt lat="45.68565314278543" lon="10.131364113774513"><ele>801.0</ele><time>2026-03-15T14:47:32.999Z</time></trkpt><trkpt lat="45.68552117598259" lon="10.13135311700443"><ele>801.0</ele><time>2026-03-15T14:47:33.999Z</time></trkpt><trkpt lat="45.68537182507849" lon="10.131340028410944"><ele>802.25</ele><time>2026-03-15T14:47:34.999Z</time></trkpt><trkpt lat="45.68522714034364" lon="10.131311206298088"><ele>803.5</ele><time>2026-03-15T14:47:35.999Z</time></trkpt><trkpt lat="45.6851063905898" lon="10.131285643221332"><ele>804.75</ele><time>2026-03-15T14:47:36.999Z</time></trkpt><trkpt lat="45.68501087613332" lon="10.13125081161926"><ele>806.0</ele><time>2026-03-15T14:47:37.999Z</time></trkpt><trkpt lat="45.68490064852112" lon="10.13123022309606"><ele>806.0</ele><time>2026-03-15T14:47:38.999Z</time></trkpt><trkpt lat="45.68478627924931" lon="10.131222741039654"><ele>806.0</ele><time>2026-03-15T14:47:39.999Z</time></trkpt><trkpt lat="45.68469651154652" lon="10.13121455037741"><ele>806.0</ele><time>2026-03-15T14:47:40.999Z</time></trkpt><trkpt lat="45.684627523610054" lon="10.13120654965187"><ele>806.0</ele><time>2026-03-15T14:47:41.999Z</time></trkpt><trkpt lat="45.684534518376886" lon="10.131311412154059"><ele>806.0</ele><time>2026-03-15T14:47:43.999Z</time></trkpt><trkpt lat="45.684493797151646" lon="10.131384128069445"><ele>806.0</ele><time>2026-03-15T14:47:44.999Z</time></trkpt><trkpt lat="45.68444971282618" lon="10.131479771930952"><ele>806.0</ele><time>2026-03-15T14:47:45.999Z</time></trkpt><trkpt lat="45.684393715252575" lon="10.131599043520547"><ele>806.0</ele><time>2026-03-15T14:47:46.999Z</time></trkpt><trkpt lat="45.68433063083584" lon="10.131735145850056"><ele>806.0</ele><time>2026-03-15T14:47:47.999Z</time></trkpt><trkpt lat="45.684267486242994" lon="10.131880131582784"><ele>806.0</ele><time>2026-03-15T14:47:48.999Z</time></trkpt><trkpt lat="45.68418641910234" lon="10.132003460261682"><ele>810.5000000000001</ele><time>2026-03-15T14:47:49.999Z</time></trkpt><trkpt lat="45.684111631402246" lon="10.132115625693464"><ele>815.0</ele><time>2026-03-15T14:47:50.999Z</time></trkpt><trkpt lat="45.68403983939472" lon="10.132164399744806"><ele>819.5</ele><time>2026-03-15T14:47:51.999Z</time></trkpt><trkpt lat="45.68397345553835" lon="10.132205971026288"><ele>824.0</ele><time>2026-03-15T14:47:52.999Z</time></trkpt><trkpt lat="45.683911496143416" lon="10.13225512532105"><ele>828.5000000000001</ele><time>2026-03-15T14:47:53.999Z</time></trkpt><trkpt lat="45.683826731061686" lon="10.13226146283615"><ele>833.0</ele><time>2026-03-15T14:47:54.999Z</time></trkpt><trkpt lat="45.68372653119147" lon="10.132325870465106"><ele>833.0000000000001</ele><time>2026-03-15T14:47:55.999Z</time></trkpt><trkpt lat="45.68362008453375" lon="10.132341113025944"><ele>833.0</ele><time>2026-03-15T14:47:56.999Z</time></trkpt><trkpt lat="45.68353548470474" lon="10.13231110785723"><ele>833.0</ele><time>2026-03-15T14:47:57.999Z</time></trkpt><trkpt lat="45.68348265037476" lon="10.132239500000637"><ele>833.0</ele><time>2026-03-15T14:47:58.999Z</time></trkpt><trkpt lat="45.68341754185146" lon="10.132171533482515"><ele>833.0000000000001</ele><time>2026-03-15T14:47:59.999Z</time></trkpt><trkpt lat="45.68334066955302" lon="10.132098163069141"><ele>833.0</ele><time>2026-03-15T14:48:00.999Z</time></trkpt><trkpt lat="45.683250542507935" lon="10.132032204365471"><ele>833.8</ele><time>2026-03-15T14:48:01.999Z</time></trkpt><trkpt lat="45.68316051840894" lon="10.131973522631291"><ele>834.5999999999999</ele><time>2026-03-15T14:48:02.999Z</time></trkpt><trkpt lat="45.683082843686925" lon="10.13193751599647"><ele>835.4000000000001</ele><time>2026-03-15T14:48:03.999Z</time></trkpt><trkpt lat="45.683000554112965" lon="10.131917637666312"><ele>836.2</ele><time>2026-03-15T14:48:04.999Z</time></trkpt><trkpt lat="45.682933857526514" lon="10.131936275074084"><ele>837.0</ele><time>2026-03-15T14:48:05.998Z</time></trkpt><trkpt lat="45.682814695623016" lon="10.131993682386877"><ele>837.0</ele><time>2026-03-15T14:48:07.998Z</time></trkpt><trkpt lat="45.68276954331053" lon="10.132082565281422"><ele>837.0</ele><time>2026-03-15T14:48:08.998Z</time></trkpt><trkpt lat="45.682728586861984" lon="10.132236929164053"><ele>837.0</ele><time>2026-03-15T14:48:09.998Z</time></trkpt><trkpt lat="45.682683523540874" lon="10.13241795426601"><ele>837.0</ele><time>2026-03-15T14:48:10.998Z</time></trkpt><trkpt lat="45.682658315383414" lon="10.132565129484306"><ele>837.0</ele><time>2026-03-15T14:48:11.998Z</time></trkpt><trkpt lat="45.6826662719707" lon="10.132704360518025"><ele>839.0</ele><time>2026-03-15T14:48:12.998Z</time></trkpt><trkpt lat="45.682682292920205" lon="10.132863982381242"><ele>841.0</ele><time>2026-03-15T14:48:13.998Z</time></trkpt><trkpt lat="45.68268024871727" lon="10.133011836008642"><ele>843.0</ele><time>2026-03-15T14:48:14.998Z</time></trkpt><trkpt lat="45.682679692297164" lon="10.133123437571166"><ele>845.0</ele><time>2026-03-15T14:48:15.998Z</time></trkpt><trkpt lat="45.68263213862024" lon="10.133185522566242"><ele>847.0</ele><time>2026-03-15T14:48:16.998Z</time></trkpt><trkpt lat="45.68258474824917" lon="10.133289265077906"><ele>849.0</ele><time>2026-03-15T14:48:17.998Z</time></trkpt><trkpt lat="45.682570416859384" lon="10.13338198253748"><ele>849.0</ele><time>2026-03-15T14:48:20.998Z</time></trkpt><trkpt lat="45.68265183008101" lon="10.133377611362887"><ele>849.0</ele><time>2026-03-15T14:48:21.998Z</time></trkpt><trkpt lat="45.68271581706957" lon="10.133289585913579"><ele>849.0</ele><time>2026-03-15T14:48:22.998Z</time></trkpt><trkpt lat="45.68275242751855" lon="10.13313982560053"><ele>849.0</ele><time>2026-03-15T14:48:23.998Z</time></trkpt><trkpt lat="45.682785804835234" lon="10.132961187105542"><ele>849.0</ele><time>2026-03-15T14:48:24.998Z</time></trkpt><trkpt lat="45.682818304418305" lon="10.132849346301954"><ele>851.6666666666666</ele><time>2026-03-15T14:48:25.998Z</time></trkpt><trkpt lat="45.682818814544454" lon="10.13272683317797"><ele>854.3333333333333</ele><time>2026-03-15T14:48:26.998Z</time></trkpt><trkpt lat="45.68283686438017" lon="10.132631207816901"><ele>857.0</ele><time>2026-03-15T14:48:27.998Z</time></trkpt><trkpt lat="45.6828942679656" lon="10.132499312671309"><ele>859.6666666666666</ele><time>2026-03-15T14:48:29.998Z</time></trkpt><trkpt lat="45.68295834925807" lon="10.132519067443228"><ele>862.3333333333333</ele><time>2026-03-15T14:48:30.998Z</time></trkpt><trkpt lat="45.683019970536755" lon="10.132593147874301"><ele>865.0</ele><time>2026-03-15T14:48:31.998Z</time></trkpt><trkpt lat="45.68309101892398" lon="10.13266985264559"><ele>865.0</ele><time>2026-03-15T14:48:32.998Z</time></trkpt><trkpt lat="45.68315411026548" lon="10.132758661375664"><ele>865.0</ele><time>2026-03-15T14:48:33.998Z</time></trkpt><trkpt lat="45.68322424221055" lon="10.132819352081556"><ele>865.0</ele><time>2026-03-15T14:48:34.998Z</time></trkpt><trkpt lat="45.68330556943817" lon="10.132908818700264"><ele>865.0</ele><time>2026-03-15T14:48:35.998Z</time></trkpt><trkpt lat="45.68338611603112" lon="10.132975210226565"><ele>865.0</ele><time>2026-03-15T14:48:36.998Z</time></trkpt><trkpt lat="45.683466020620976" lon="10.133026539479896"><ele>865.0</ele><time>2026-03-15T14:48:37.998Z</time></trkpt><trkpt lat="45.68354641865046" lon="10.133067300671089"><ele>865.0</ele><time>2026-03-15T14:48:38.998Z</time></trkpt><trkpt lat="45.68362673875972" lon="10.133105441141039"><ele>865.0</ele><time>2026-03-15T14:48:39.998Z</time></trkpt><trkpt lat="45.683702355411995" lon="10.133057494296922"><ele>865.0</ele><time>2026-03-15T14:48:40.998Z</time></trkpt><trkpt lat="45.683816290002504" lon="10.133009923940744"><ele>865.0</ele><time>2026-03-15T14:48:42.998Z</time></trkpt><trkpt lat="45.683908781430546" lon="10.133017996162364"><ele>865.2</ele><time>2026-03-15T14:48:44.998Z</time></trkpt><trkpt lat="45.68399435342726" lon="10.133036383278453"><ele>865.4</ele><time>2026-03-15T14:48:46.998Z</time></trkpt><trkpt lat="45.68411246638677" lon="10.133061676437471"><ele>865.5999999999999</ele><time>2026-03-15T14:48:48.997Z</time></trkpt><trkpt lat="45.68423712735675" lon="10.133082158998507"><ele>865.8</ele><time>2026-03-15T14:48:50.997Z</time></trkpt><trkpt lat="45.684309508919874" lon="10.133068425504659"><ele>866.0</ele><time>2026-03-15T14:48:51.997Z</time></trkpt><trkpt lat="45.684386182478434" lon="10.13303624773177"><ele>868.1666666666667</ele><time>2026-03-15T14:48:52.997Z</time></trkpt><trkpt lat="45.68446276241322" lon="10.132980298589805"><ele>870.3333333333334</ele><time>2026-03-15T14:48:53.997Z</time></trkpt><trkpt lat="45.68451521836622" lon="10.132910419602842"><ele>872.5</ele><time>2026-03-15T14:48:54.997Z</time></trkpt><trkpt lat="45.68454944030928" lon="10.132802794563958"><ele>874.6666666666667</ele><time>2026-03-15T14:48:55.997Z</time></trkpt><trkpt lat="45.68458967446733" lon="10.132699473107635"><ele>876.8333333333334</ele><time>2026-03-15T14:48:56.997Z</time></trkpt><trkpt lat="45.68463233255829" lon="10.132591834292601"><ele>879.0</ele><time>2026-03-15T14:48:57.997Z</time></trkpt><trkpt lat="45.68467444957702" lon="10.132512865764632"><ele>879.0</ele><time>2026-03-15T14:48:58.997Z</time></trkpt><trkpt lat="45.68473330468951" lon="10.132427030595634"><ele>879.0</ele><time>2026-03-15T14:48:59.997Z</time></trkpt><trkpt lat="45.68480204819955" lon="10.132346298332378"><ele>879.0</ele><time>2026-03-15T14:49:00.997Z</time></trkpt><trkpt lat="45.684873943541604" lon="10.132337226006797"><ele>879.0</ele><time>2026-03-15T14:49:01.997Z</time></trkpt><trkpt lat="45.684964767219604" lon="10.13235564354321"><ele>879.0</ele><time>2026-03-15T14:49:02.997Z</time></trkpt><trkpt lat="45.685016664098384" lon="10.132423194287345"><ele>879.0</ele><time>2026-03-15T14:49:03.997Z</time></trkpt><trkpt lat="45.68507841994373" lon="10.132483872259938"><ele>879.0</ele><time>2026-03-15T14:49:05Z</time></trkpt><trkpt lat="45.68514249245051" lon="10.13255780788663"><ele>879.0</ele><time>2026-03-15T14:49:06Z</time></trkpt><trkpt lat="45.68521238097667" lon="10.132674796805347"><ele>879.0</ele><time>2026-03-15T14:49:07Z</time></trkpt><trkpt lat="45.68527000360277" lon="10.132778267884166"><ele>879.0</ele><time>2026-03-15T14:49:08Z</time></trkpt><trkpt lat="45.68530055241002" lon="10.132885312878228"><ele>879.0</ele><time>2026-03-15T14:49:09Z</time></trkpt><trkpt lat="45.68533864730635" lon="10.132996191900185"><ele>879.0</ele><time>2026-03-15T14:49:10Z</time></trkpt><trkpt lat="45.68537582148002" lon="10.13307262921092"><ele>876.4000000000001</ele><time>2026-03-15T14:49:11Z</time></trkpt><trkpt lat="45.685446100804846" lon="10.133154475125398"><ele>873.8000000000001</ele><time>2026-03-15T14:49:12Z</time></trkpt><trkpt lat="45.685535683122346" lon="10.133220869467797"><ele>871.1999999999999</ele><time>2026-03-15T14:49:13Z</time></trkpt><trkpt lat="45.685664285807306" lon="10.133247409898544"><ele>868.5999999999999</ele><time>2026-03-15T14:49:14Z</time></trkpt><trkpt lat="45.68578564546458" lon="10.133240258597194"><ele>866.0</ele><time>2026-03-15T14:49:15Z</time></trkpt><trkpt lat="45.685883374037076" lon="10.133204039398214"><ele>866.0</ele><time>2026-03-15T14:49:16Z</time></trkpt><trkpt lat="45.685960974098364" lon="10.133192441650307"><ele>865.9999999999999</ele><time>2026-03-15T14:49:17Z</time></trkpt><trkpt lat="45.68602935323453" lon="10.133272109169353"><ele>865.9999999999999</ele><time>2026-03-15T14:49:18Z</time></trkpt><trkpt lat="45.68613475227598" lon="10.133270846437382"><ele>866.0</ele><time>2026-03-15T14:49:19Z</time></trkpt><trkpt lat="45.68625402465492" lon="10.133281921146521"><ele>866.0</ele><time>2026-03-15T14:49:20Z</time></trkpt><trkpt lat="45.68638573367879" lon="10.133257944515869"><ele>867.75</ele><time>2026-03-15T14:49:21Z</time></trkpt><trkpt lat="45.68652032210856" lon="10.133235721967681"><ele>869.5</ele><time>2026-03-15T14:49:22Z</time></trkpt><trkpt lat="45.68665005392625" lon="10.133193380965595"><ele>871.25</ele><time>2026-03-15T14:49:23Z</time></trkpt><trkpt lat="45.68676487341953" lon="10.133132802645763"><ele>873.0</ele><time>2026-03-15T14:49:24Z</time></trkpt><trkpt lat="45.68688877633572" lon="10.133053383921478"><ele>883.6666666666667</ele><time>2026-03-15T14:49:25Z</time></trkpt><trkpt lat="45.68704328022063" lon="10.132969980808474"><ele>894.3333333333334</ele><time>2026-03-15T14:49:26Z</time></trkpt><trkpt lat="45.68718176152239" lon="10.132869255914686"><ele>905.0</ele><time>2026-03-15T14:49:27Z</time></trkpt><trkpt lat="45.68732517597851" lon="10.132738526734373"><ele>905.0</ele><time>2026-03-15T14:49:28Z</time></trkpt><trkpt lat="45.68744923543862" lon="10.132610778803036"><ele>905.0</ele><time>2026-03-15T14:49:29Z</time></trkpt><trkpt lat="45.68754691072412" lon="10.132503896429169"><ele>905.0</ele><time>2026-03-15T14:49:30Z</time></trkpt><trkpt lat="45.68764244284335" lon="10.132396765431261"><ele>905.0</ele><time>2026-03-15T14:49:31Z</time></trkpt><trkpt lat="45.68773798020193" lon="10.132306886518867"><ele>906.6</ele><time>2026-03-15T14:49:32Z</time></trkpt><trkpt lat="45.68784559289503" lon="10.132231983663019"><ele>908.2</ele><time>2026-03-15T14:49:33Z</time></trkpt><trkpt lat="45.68795168090136" lon="10.132161564818157"><ele>909.8</ele><time>2026-03-15T14:49:34Z</time></trkpt><trkpt lat="45.688038262376715" lon="10.132140729804322"><ele>911.4</ele><time>2026-03-15T14:49:35Z</time></trkpt><trkpt lat="45.688133544002746" lon="10.132097023954067"><ele>913.0</ele><time>2026-03-15T14:49:36Z</time></trkpt><trkpt lat="45.688227699015776" lon="10.132031183553314"><ele>913.0</ele><time>2026-03-15T14:49:37Z</time></trkpt><trkpt lat="45.688300273156926" lon="10.13194690860628"><ele>913.0</ele><time>2026-03-15T14:49:38Z</time></trkpt><trkpt lat="45.688365657423496" lon="10.131832903179033"><ele>913.0</ele><time>2026-03-15T14:49:39Z</time></trkpt><trkpt lat="45.68842130892524" lon="10.131711617795313"><ele>913.0</ele><time>2026-03-15T14:49:40Z</time></trkpt><trkpt lat="45.68849322675757" lon="10.131560470177106"><ele>913.0</ele><time>2026-03-15T14:49:40.999Z</time></trkpt><trkpt lat="45.68857621733062" lon="10.131438688782449"><ele>912.8</ele><time>2026-03-15T14:49:41.999Z</time></trkpt><trkpt lat="45.6886586954532" lon="10.131310964007767"><ele>912.5999999999999</ele><time>2026-03-15T14:49:42.999Z</time></trkpt><trkpt lat="45.68873959394167" lon="10.131202856767349"><ele>912.4000000000001</ele><time>2026-03-15T14:49:43.999Z</time></trkpt><trkpt lat="45.688809427710815" lon="10.131096607963308"><ele>912.2</ele><time>2026-03-15T14:49:44.999Z</time></trkpt><trkpt lat="45.68888676844308" lon="10.131045972891489"><ele>912.0</ele><time>2026-03-15T14:49:45.999Z</time></trkpt><trkpt lat="45.68897358174251" lon="10.131042518814068"><ele>912.0</ele><time>2026-03-15T14:49:46.999Z</time></trkpt><trkpt lat="45.68910391149215" lon="10.131012418876175"><ele>912.0</ele><time>2026-03-15T14:49:47.999Z</time></trkpt><trkpt lat="45.68925214968211" lon="10.130936187019747"><ele>912.0</ele><time>2026-03-15T14:49:48.999Z</time></trkpt><trkpt lat="45.689407419267084" lon="10.130871249740105"><ele>909.75</ele><time>2026-03-15T14:49:49.999Z</time></trkpt><trkpt lat="45.68956782794552" lon="10.13080460657063"><ele>907.5</ele><time>2026-03-15T14:49:50.999Z</time></trkpt><trkpt lat="45.68969012931777" lon="10.130781728281569"><ele>905.25</ele><time>2026-03-15T14:49:51.999Z</time></trkpt><trkpt lat="45.689804101832486" lon="10.130750919996151"><ele>903.0</ele><time>2026-03-15T14:49:52.999Z</time></trkpt><trkpt lat="45.68993594098961" lon="10.13071753557634"><ele>903.0</ele><time>2026-03-15T14:49:53.999Z</time></trkpt><trkpt lat="45.690064476457025" lon="10.13065242023768"><ele>903.0</ele><time>2026-03-15T14:49:54.999Z</time></trkpt><trkpt lat="45.69017024611628" lon="10.130584052463"><ele>903.0</ele><time>2026-03-15T14:49:55.999Z</time></trkpt><trkpt lat="45.69027314505205" lon="10.130473956848322"><ele>903.0</ele><time>2026-03-15T14:49:56.999Z</time></trkpt><trkpt lat="45.69036486587237" lon="10.130365598065925"><ele>906.8</ele><time>2026-03-15T14:49:57.999Z</time></trkpt><trkpt lat="45.69045140384683" lon="10.130329435887127"><ele>910.5999999999999</ele><time>2026-03-15T14:49:58.999Z</time></trkpt><trkpt lat="45.69051879522695" lon="10.13030830584845"><ele>914.4000000000001</ele><time>2026-03-15T14:49:59.999Z</time></trkpt><trkpt lat="45.69061964166919" lon="10.13035396855835"><ele>918.2</ele><time>2026-03-15T14:50:00.999Z</time></trkpt><trkpt lat="45.69073337216866" lon="10.130385821640948"><ele>922.0</ele><time>2026-03-15T14:50:01.999Z</time></trkpt><trkpt lat="45.69081819211454" lon="10.130442946634005"><ele>922.0</ele><time>2026-03-15T14:50:02.999Z</time></trkpt><trkpt lat="45.69087914894888" lon="10.130473350064518"><ele>922.0</ele><time>2026-03-15T14:50:04.999Z</time></trkpt><trkpt lat="45.691021767147255" lon="10.13036314426202"><ele>922.0</ele><time>2026-03-15T14:50:49.998Z</time></trkpt><trkpt lat="45.69110373073803" lon="10.130284920048627"><ele>922.0</ele><time>2026-03-15T14:50:50.998Z</time></trkpt><trkpt lat="45.69117922297088" lon="10.130209981281826"><ele>922.0</ele><time>2026-03-15T14:50:51.998Z</time></trkpt><trkpt lat="45.69124612962196" lon="10.13013000314739"><ele>922.6</ele><time>2026-03-15T14:50:52.998Z</time></trkpt><trkpt lat="45.691307067996625" lon="10.130042918156352"><ele>923.2</ele><time>2026-03-15T14:50:53.998Z</time></trkpt><trkpt lat="45.691361369480326" lon="10.129960595643798"><ele>923.8</ele><time>2026-03-15T14:50:54.998Z</time></trkpt><trkpt lat="45.69143059596808" lon="10.129865118236905"><ele>924.4</ele><time>2026-03-15T14:50:55.998Z</time></trkpt><trkpt lat="45.691523735151314" lon="10.129763888076479"><ele>925.0</ele><time>2026-03-15T14:50:56.998Z</time></trkpt><trkpt lat="45.69162510215013" lon="10.129649880100779"><ele>924.9999999999999</ele><time>2026-03-15T14:50:57.998Z</time></trkpt><trkpt lat="45.69169244068609" lon="10.12953950497316"><ele>925.0</ele><time>2026-03-15T14:50:58.998Z</time></trkpt><trkpt lat="45.69174498724521" lon="10.129455758287804"><ele>925.0</ele><time>2026-03-15T14:50:59.998Z</time></trkpt><trkpt lat="45.69180964370268" lon="10.129393905361997"><ele>925.0</ele><time>2026-03-15T14:51:00.998Z</time></trkpt><trkpt lat="45.691883093833425" lon="10.129256791337466"><ele>924.9999999999999</ele><time>2026-03-15T14:51:02.998Z</time></trkpt><trkpt lat="45.69193674368065" lon="10.129200818577125"><ele>925.0</ele><time>2026-03-15T14:51:04.998Z</time></trkpt><trkpt lat="45.69197750463643" lon="10.129106367570662"><ele>921.6666666666666</ele><time>2026-03-15T14:51:07.997Z</time></trkpt><trkpt lat="45.692005343494245" lon="10.129012583219115"><ele>918.3333333333333</ele><time>2026-03-15T14:51:10Z</time></trkpt><trkpt lat="45.69203150763142" lon="10.128908725563548"><ele>915.0</ele><time>2026-03-15T14:51:12Z</time></trkpt><trkpt lat="45.69210808792914" lon="10.128840699657063"><ele>911.6666666666667</ele><time>2026-03-15T14:51:14Z</time></trkpt><trkpt lat="45.692186878143225" lon="10.128797260162813"><ele>908.3333333333334</ele><time>2026-03-15T14:51:16Z</time></trkpt><trkpt lat="45.69225967336147" lon="10.12874804342955"><ele>905.0</ele><time>2026-03-15T14:51:18Z</time></trkpt><trkpt lat="45.69232846261214" lon="10.128673089548462"><ele>905.0000000000001</ele><time>2026-03-15T14:51:20Z</time></trkpt><trkpt lat="45.69238654281214" lon="10.128610748756289"><ele>905.0</ele><time>2026-03-15T14:51:22Z</time></trkpt><trkpt lat="45.69245242477845" lon="10.12857129957123"><ele>905.0</ele><time>2026-03-15T14:51:24Z</time></trkpt><trkpt lat="45.69251658019602" lon="10.128515038022945"><ele>905.0</ele><time>2026-03-15T14:51:26Z</time></trkpt><trkpt lat="45.69261303398999" lon="10.128495142440375"><ele>905.0000000000001</ele><time>2026-03-15T14:51:29Z</time></trkpt><trkpt lat="45.69268200683776" lon="10.128459846785296"><ele>905.0</ele><time>2026-03-15T14:51:31Z</time></trkpt><trkpt lat="45.69277095680312" lon="10.128446092960885"><ele>901.3333333333334</ele><time>2026-03-15T14:51:33Z</time></trkpt><trkpt lat="45.692862231957804" lon="10.12842819084711"><ele>897.6666666666667</ele><time>2026-03-15T14:51:36Z</time></trkpt><trkpt lat="45.692936917253384" lon="10.128420515582778"><ele>894.0</ele><time>2026-03-15T14:51:39Z</time></trkpt><trkpt lat="45.693018112439916" lon="10.128413724638852"><ele>890.3333333333333</ele><time>2026-03-15T14:51:41Z</time></trkpt><trkpt lat="45.69308472169134" lon="10.128408005869629"><ele>886.6666666666666</ele><time>2026-03-15T14:51:43Z</time></trkpt><trkpt lat="45.693173398800916" lon="10.12841110425042"><ele>883.0</ele><time>2026-03-15T14:51:45Z</time></trkpt><trkpt lat="45.69325351772399" lon="10.128420229221533"><ele>882.9999999999999</ele><time>2026-03-15T14:51:47Z</time></trkpt><trkpt lat="45.693321637397446" lon="10.128433066264044"><ele>883.0</ele><time>2026-03-15T14:51:49Z</time></trkpt><trkpt lat="45.69339957772231" lon="10.128448440765684"><ele>883.0</ele><time>2026-03-15T14:51:53Z</time></trkpt><trkpt lat="45.6934724148477" lon="10.128466212091343"><ele>883.0</ele><time>2026-03-15T14:51:56Z</time></trkpt><trkpt lat="45.693532595359784" lon="10.128511126703746"><ele>882.9999999999999</ele><time>2026-03-15T14:51:59.999Z</time></trkpt><trkpt lat="45.69361545078613" lon="10.128534415702898"><ele>883.0</ele><time>2026-03-15T14:52:02.999Z</time></trkpt><trkpt lat="45.69369392414606" lon="10.128550378062123"><ele>878.8333333333333</ele><time>2026-03-15T14:52:05.999Z</time></trkpt><trkpt lat="45.69378546692813" lon="10.128539958656464"><ele>874.6666666666666</ele><time>2026-03-15T14:52:08.999Z</time></trkpt><trkpt lat="45.69384936222043" lon="10.12854778348525"><ele>870.5</ele><time>2026-03-15T14:52:10.999Z</time></trkpt><trkpt lat="45.69393293428558" lon="10.128554042119154"><ele>866.3333333333333</ele><time>2026-03-15T14:52:13.999Z</time></trkpt><trkpt lat="45.69401089814128" lon="10.128563615554384"><ele>862.1666666666666</ele><time>2026-03-15T14:52:16.999Z</time></trkpt><trkpt lat="45.69408866857597" lon="10.128586225583161"><ele>858.0</ele><time>2026-03-15T14:52:20.999Z</time></trkpt><trkpt lat="45.69415472967284" lon="10.128629978088746"><ele>858.0</ele><time>2026-03-15T14:52:24.999Z</time></trkpt><trkpt lat="45.69423293698834" lon="10.128681509578414"><ele>858.0</ele><time>2026-03-15T14:52:27.999Z</time></trkpt><trkpt lat="45.694312855948695" lon="10.1287413797002"><ele>858.0</ele><time>2026-03-15T14:52:30.999Z</time></trkpt><trkpt lat="45.69439240285158" lon="10.128793547209558"><ele>858.0</ele><time>2026-03-15T14:52:33.999Z</time></trkpt><trkpt lat="45.69444953678716" lon="10.128844023808165"><ele>858.0</ele><time>2026-03-15T14:52:35.999Z</time></trkpt><trkpt lat="45.69451571117091" lon="10.128836215993102"><ele>858.0</ele><time>2026-03-15T14:52:37.998Z</time></trkpt><trkpt lat="45.694604577606384" lon="10.12884915995185"><ele>852.0</ele><time>2026-03-15T14:52:40.998Z</time></trkpt><trkpt lat="45.69466923861043" lon="10.128861887191366"><ele>846.0</ele><time>2026-03-15T14:52:42.997Z</time></trkpt><trkpt lat="45.69475278966367" lon="10.128871610819527"><ele>840.0</ele><time>2026-03-15T14:52:44.997Z</time></trkpt><trkpt lat="45.69483110475286" lon="10.12888802878464"><ele>834.0</ele><time>2026-03-15T14:52:47.997Z</time></trkpt><trkpt lat="45.694896485029695" lon="10.128910650169772"><ele>828.0</ele><time>2026-03-15T14:52:50.997Z</time></trkpt><trkpt lat="45.6949624128839" lon="10.128929198155637"><ele>822.0</ele><time>2026-03-15T14:52:52.997Z</time></trkpt><trkpt lat="45.695033538716416" lon="10.128973485165348"><ele>816.0</ele><time>2026-03-15T14:52:56.997Z</time></trkpt><trkpt lat="45.695100278971616" lon="10.129023251483204"><ele>819.0</ele><time>2026-03-15T14:52:59.997Z</time></trkpt><trkpt lat="45.69517476895209" lon="10.129077436019653"><ele>822.0</ele><time>2026-03-15T14:53:03.997Z</time></trkpt><trkpt lat="45.695229998911586" lon="10.129121304940115"><ele>825.0</ele><time>2026-03-15T14:53:05.997Z</time></trkpt><trkpt lat="45.69529378849989" lon="10.129189487673758"><ele>828.0</ele><time>2026-03-15T14:53:08.997Z</time></trkpt><trkpt lat="45.695364387533274" lon="10.129256138316888"><ele>831.0</ele><time>2026-03-15T14:53:10.997Z</time></trkpt><trkpt lat="45.695415780057566" lon="10.129324798140384"><ele>834.0</ele><time>2026-03-15T14:53:12.997Z</time></trkpt><trkpt lat="45.69551397399552" lon="10.12943400269315"><ele>827.0</ele><time>2026-03-15T14:53:14.997Z</time></trkpt><trkpt lat="45.69560430059841" lon="10.129527006944961"><ele>820.0</ele><time>2026-03-15T14:53:17Z</time></trkpt><trkpt lat="45.695681032529144" lon="10.129595468166626"><ele>813.0</ele><time>2026-03-15T14:53:19Z</time></trkpt><trkpt lat="45.69572906984243" lon="10.129658625821424"><ele>806.0</ele><time>2026-03-15T14:53:20Z</time></trkpt><trkpt lat="45.695779999929535" lon="10.129737722063915"><ele>799.0</ele><time>2026-03-15T14:53:21Z</time></trkpt><trkpt lat="45.695822975887424" lon="10.129810165935625"><ele>792.0</ele><time>2026-03-15T14:53:22Z</time></trkpt><trkpt lat="45.69587506192748" lon="10.129864104020687"><ele>793.6</ele><time>2026-03-15T14:53:23Z</time></trkpt><trkpt lat="45.695947195003" lon="10.129959525936023"><ele>795.2</ele><time>2026-03-15T14:53:25Z</time></trkpt><trkpt lat="45.696024093432726" lon="10.13006071021663"><ele>796.8</ele><time>2026-03-15T14:53:27Z</time></trkpt><trkpt lat="45.69608044752684" lon="10.130175690709361"><ele>798.4</ele><time>2026-03-15T14:53:29Z</time></trkpt><trkpt lat="45.69613045880228" lon="10.130283984489061"><ele>800.0</ele><time>2026-03-15T14:53:31Z</time></trkpt><trkpt lat="45.696164524580254" lon="10.130359925344438"><ele>792.6</ele><time>2026-03-15T14:53:33Z</time></trkpt><trkpt lat="45.696199026053776" lon="10.130452751036083"><ele>785.2</ele><time>2026-03-15T14:53:35Z</time></trkpt><trkpt lat="45.69625790344301" lon="10.13055840862111"><ele>777.8</ele><time>2026-03-15T14:53:36.999Z</time></trkpt><trkpt lat="45.6963070449729" lon="10.130714329421657"><ele>770.4</ele><time>2026-03-15T14:53:38.999Z</time></trkpt><trkpt lat="45.69635663014626" lon="10.130833239606117"><ele>763.0</ele><time>2026-03-15T14:53:40.999Z</time></trkpt><trkpt lat="45.69641913781383" lon="10.130963033783484"><ele>763.0</ele><time>2026-03-15T14:53:42.999Z</time></trkpt><trkpt lat="45.69648858090685" lon="10.131078214562004"><ele>763.0</ele><time>2026-03-15T14:53:44.999Z</time></trkpt><trkpt lat="45.69656146842897" lon="10.131155551735207"><ele>763.0</ele><time>2026-03-15T14:53:46.999Z</time></trkpt><trkpt lat="45.69662447567426" lon="10.131218775113336"><ele>763.0</ele><time>2026-03-15T14:53:48.999Z</time></trkpt><trkpt lat="45.696692674411395" lon="10.131292829503948"><ele>763.0</ele><time>2026-03-15T14:53:50.999Z</time></trkpt><trkpt lat="45.69676468195962" lon="10.131367941731739"><ele>763.0</ele><time>2026-03-15T14:53:52.999Z</time></trkpt><trkpt lat="45.696853217983175" lon="10.131468049802011"><ele>756.5999999999999</ele><time>2026-03-15T14:53:54.999Z</time></trkpt><trkpt lat="45.69694089370118" lon="10.131558772300705"><ele>750.1999999999999</ele><time>2026-03-15T14:53:56.999Z</time></trkpt><trkpt lat="45.697039098670295" lon="10.13165633175822"><ele>743.8</ele><time>2026-03-15T14:53:58.999Z</time></trkpt><trkpt lat="45.69709953683159" lon="10.131707330834535"><ele>737.4</ele><time>2026-03-15T14:53:59.999Z</time></trkpt><trkpt lat="45.69720420907274" lon="10.131802157576344"><ele>731.0</ele><time>2026-03-15T14:54:01.999Z</time></trkpt><trkpt lat="45.69726104807695" lon="10.131854307211654"><ele>731.0</ele><time>2026-03-15T14:54:02.999Z</time></trkpt><trkpt lat="45.6973687908397" lon="10.131940752179005"><ele>731.0</ele><time>2026-03-15T14:54:04.999Z</time></trkpt><trkpt lat="45.69746177813908" lon="10.132018911150027"><ele>731.0</ele><time>2026-03-15T14:54:06.999Z</time></trkpt><trkpt lat="45.69756733864829" lon="10.132088259135502"><ele>731.0</ele><time>2026-03-15T14:54:08.999Z</time></trkpt><trkpt lat="45.697627833261784" lon="10.132117165054554"><ele>731.0</ele><time>2026-03-15T14:54:09.999Z</time></trkpt><trkpt lat="45.69772427596854" lon="10.13217809121907"><ele>726.6666666666666</ele><time>2026-03-15T14:54:11.999Z</time></trkpt><trkpt lat="45.697791583573185" lon="10.132232869060061"><ele>722.3333333333333</ele><time>2026-03-15T14:54:13.999Z</time></trkpt><trkpt lat="45.697851947271616" lon="10.132309553518411"><ele>718.0</ele><time>2026-03-15T14:54:15.999Z</time></trkpt><trkpt lat="45.6979363706423" lon="10.132421493736379"><ele>713.6666666666666</ele><time>2026-03-15T14:54:17.998Z</time></trkpt><trkpt lat="45.697954258610864" lon="10.132531127722647"><ele>709.3333333333334</ele><time>2026-03-15T14:54:21.998Z</time></trkpt><trkpt lat="45.69799083931581" lon="10.132639972296408"><ele>705.0</ele><time>2026-03-15T14:54:24.998Z</time></trkpt><trkpt lat="45.69802960094439" lon="10.132723869529533"><ele>705.0</ele><time>2026-03-15T14:54:27.998Z</time></trkpt><trkpt lat="45.69810265924869" lon="10.132769742733691"><ele>705.0</ele><time>2026-03-15T14:54:31.998Z</time></trkpt><trkpt lat="45.698181766632516" lon="10.13275825622579"><ele>705.0</ele><time>2026-03-15T14:54:33.998Z</time></trkpt><trkpt lat="45.69827026522557" lon="10.132718188420283"><ele>705.0</ele><time>2026-03-15T14:54:35.998Z</time></trkpt><trkpt lat="45.69834341876348" lon="10.132700141695384"><ele>705.0</ele><time>2026-03-15T14:54:37.998Z</time></trkpt><trkpt lat="45.69840963566842" lon="10.132699432898736"><ele>705.0</ele><time>2026-03-15T14:54:41.998Z</time></trkpt><trkpt lat="45.69844468965591" lon="10.132886182116794"><ele>705.0</ele><time>2026-03-15T14:54:49.998Z</time></trkpt><trkpt lat="45.69840141516595" lon="10.133027718191563"><ele>705.0</ele><time>2026-03-15T14:54:51.998Z</time></trkpt><trkpt lat="45.69842257819829" lon="10.133131794669044"><ele>705.0</ele><time>2026-03-15T14:55:04.997Z</time></trkpt><trkpt lat="45.6984113417677" lon="10.133242472196528"><ele>705.0</ele><time>2026-03-15T14:55:06.997Z</time></trkpt><trkpt lat="45.69851932927299" lon="10.13332593971842"><ele>705.0</ele><time>2026-03-15T14:55:07.997Z</time></trkpt><trkpt lat="45.698570777633726" lon="10.133409153003917"><ele>703.5</ele><time>2026-03-15T14:55:08.997Z</time></trkpt><trkpt lat="45.69862309186774" lon="10.133489588771575"><ele>702.0</ele><time>2026-03-15T14:55:09.997Z</time></trkpt><trkpt lat="45.69870131753866" lon="10.133566964709157"><ele>700.5</ele><time>2026-03-15T14:55:10.997Z</time></trkpt><trkpt lat="45.69874895514883" lon="10.133659180506703"><ele>699.0</ele><time>2026-03-15T14:55:11.997Z</time></trkpt><trkpt lat="45.6987975246767" lon="10.133721891769024"><ele>697.5</ele><time>2026-03-15T14:55:12.997Z</time></trkpt><trkpt lat="45.69884558231276" lon="10.1337821519731"><ele>696.0</ele><time>2026-03-15T14:55:13.997Z</time></trkpt><trkpt lat="45.698942543397294" lon="10.133892962776947"><ele>696.0</ele><time>2026-03-15T14:55:15.997Z</time></trkpt><trkpt lat="45.699032146172385" lon="10.134000926253334"><ele>696.0</ele><time>2026-03-15T14:55:17.997Z</time></trkpt><trkpt lat="45.6990945637968" lon="10.134094326823163"><ele>696.0</ele><time>2026-03-15T14:55:18.997Z</time></trkpt><trkpt lat="45.6991575503982" lon="10.13418804155036"><ele>696.0</ele><time>2026-03-15T14:55:19.997Z</time></trkpt><trkpt lat="45.69923170770327" lon="10.134261275484892"><ele>696.0</ele><time>2026-03-15T14:55:20.997Z</time></trkpt><trkpt lat="45.69932018379042" lon="10.134356603414485"><ele>695.5999999999999</ele><time>2026-03-15T14:55:22Z</time></trkpt><trkpt lat="45.69940573133811" lon="10.134458446944615"><ele>695.2</ele><time>2026-03-15T14:55:23Z</time></trkpt><trkpt lat="45.699461094568136" lon="10.134548898475733"><ele>694.8</ele><time>2026-03-15T14:55:24Z</time></trkpt><trkpt lat="45.69951145763855" lon="10.134632949444844"><ele>694.4000000000001</ele><time>2026-03-15T14:55:25Z</time></trkpt><trkpt lat="45.69956069676752" lon="10.134762913268734"><ele>694.0</ele><time>2026-03-15T14:55:26Z</time></trkpt><trkpt lat="45.69961266983425" lon="10.134896976838931"><ele>694.0</ele><time>2026-03-15T14:55:27Z</time></trkpt><trkpt lat="45.69966240263299" lon="10.134989631407066"><ele>694.0</ele><time>2026-03-15T14:55:28Z</time></trkpt><trkpt lat="45.69970250436494" lon="10.135063926884124"><ele>694.0</ele><time>2026-03-15T14:55:29Z</time></trkpt><trkpt lat="45.69974996540368" lon="10.135140698962186"><ele>694.0</ele><time>2026-03-15T14:55:30Z</time></trkpt><trkpt lat="45.69982411268389" lon="10.135222382836787"><ele>694.0</ele><time>2026-03-15T14:55:31Z</time></trkpt><trkpt lat="45.699884709902264" lon="10.13529282052164"><ele>694.0</ele><time>2026-03-15T14:55:32Z</time></trkpt><trkpt lat="45.69993364272342" lon="10.135387131887429"><ele>694.0</ele><time>2026-03-15T14:55:33Z</time></trkpt><trkpt lat="45.699988012057766" lon="10.135447113022055"><ele>694.0</ele><time>2026-03-15T14:55:34Z</time></trkpt><trkpt lat="45.700048410173714" lon="10.135521026171613"><ele>694.0</ele><time>2026-03-15T14:55:35Z</time></trkpt><trkpt lat="45.700110366955016" lon="10.135593467151597"><ele>694.0</ele><time>2026-03-15T14:55:36Z</time></trkpt><trkpt lat="45.700182903016355" lon="10.135656115335216"><ele>694.0</ele><time>2026-03-15T14:55:37Z</time></trkpt><trkpt lat="45.70024611364626" lon="10.135702143768391"><ele>694.0</ele><time>2026-03-15T14:55:38Z</time></trkpt><trkpt lat="45.70031100309266" lon="10.1357419658622"><ele>693.5</ele><time>2026-03-15T14:55:39Z</time></trkpt><trkpt lat="45.70037348515995" lon="10.135779531844396"><ele>693.0</ele><time>2026-03-15T14:55:40Z</time></trkpt><trkpt lat="45.7004533181509" lon="10.135818255539725"><ele>692.5</ele><time>2026-03-15T14:55:41Z</time></trkpt><trkpt lat="45.7005301575713" lon="10.135870896258586"><ele>692.0</ele><time>2026-03-15T14:55:42Z</time></trkpt><trkpt lat="45.70061945966007" lon="10.135942842786497"><ele>691.5</ele><time>2026-03-15T14:55:44Z</time></trkpt><trkpt lat="45.700690959041225" lon="10.136002136254753"><ele>691.0</ele><time>2026-03-15T14:55:46Z</time></trkpt><trkpt lat="45.70076225233636" lon="10.136052965524996"><ele>691.0</ele><time>2026-03-15T14:55:48Z</time></trkpt><trkpt lat="45.70086000082001" lon="10.136155648430046"><ele>691.0</ele><time>2026-03-15T14:55:50Z</time></trkpt><trkpt lat="45.70094123440617" lon="10.136238841352574"><ele>691.0</ele><time>2026-03-15T14:55:52Z</time></trkpt><trkpt lat="45.70104881660674" lon="10.136313370344403"><ele>691.0</ele><time>2026-03-15T14:55:53.999Z</time></trkpt><trkpt lat="45.70115034206769" lon="10.13637067372383"><ele>690.8</ele><time>2026-03-15T14:55:55.999Z</time></trkpt><trkpt lat="45.70126633094163" lon="10.136423697061666"><ele>690.5999999999999</ele><time>2026-03-15T14:55:57.999Z</time></trkpt><trkpt lat="45.701329049930486" lon="10.136467572598411"><ele>690.4</ele><time>2026-03-15T14:55:58.999Z</time></trkpt><trkpt lat="45.701435082742634" lon="10.136526358651038"><ele>690.2</ele><time>2026-03-15T14:56:00.999Z</time></trkpt><trkpt lat="45.70150139563727" lon="10.13656391230025"><ele>690.0</ele><time>2026-03-15T14:56:01.999Z</time></trkpt><trkpt lat="45.70157004508796" lon="10.136610889703087"><ele>689.6</ele><time>2026-03-15T14:56:02.999Z</time></trkpt><trkpt lat="45.70166165812137" lon="10.136673022244151"><ele>689.2</ele><time>2026-03-15T14:56:03.999Z</time></trkpt><trkpt lat="45.701778936038366" lon="10.1367328919929"><ele>688.8</ele><time>2026-03-15T14:56:04.999Z</time></trkpt><trkpt lat="45.701872343134625" lon="10.136795179929587"><ele>688.4</ele><time>2026-03-15T14:56:05.999Z</time></trkpt><trkpt lat="45.70195745744987" lon="10.13684177623361"><ele>688.0</ele><time>2026-03-15T14:56:06.999Z</time></trkpt><trkpt lat="45.702024389695325" lon="10.136888233191854"><ele>688.0</ele><time>2026-03-15T14:56:07.999Z</time></trkpt><trkpt lat="45.7021074974033" lon="10.136937145079386"><ele>688.0</ele><time>2026-03-15T14:56:08.999Z</time></trkpt><trkpt lat="45.70219305245019" lon="10.136982131391422"><ele>688.0</ele><time>2026-03-15T14:56:09.999Z</time></trkpt><trkpt lat="45.70225337316496" lon="10.137025579036427"><ele>688.0</ele><time>2026-03-15T14:56:10.999Z</time></trkpt><trkpt lat="45.70233936773516" lon="10.137080142793529"><ele>688.0</ele><time>2026-03-15T14:56:11.999Z</time></trkpt><trkpt lat="45.702418547376965" lon="10.137139194927142"><ele>688.0</ele><time>2026-03-15T14:56:12.999Z</time></trkpt><trkpt lat="45.70248081616159" lon="10.13720567326773"><ele>688.0</ele><time>2026-03-15T14:56:13.999Z</time></trkpt><trkpt lat="45.702567082800655" lon="10.137291585437854"><ele>688.0</ele><time>2026-03-15T14:56:15.999Z</time></trkpt><trkpt lat="45.70269083124331" lon="10.13738536382086"><ele>688.0</ele><time>2026-03-15T14:56:17.999Z</time></trkpt><trkpt lat="45.70281693621594" lon="10.137477157208407"><ele>688.0</ele><time>2026-03-15T14:56:19.999Z</time></trkpt><trkpt lat="45.702879040852345" lon="10.137516985427917"><ele>688.5</ele><time>2026-03-15T14:56:20.999Z</time></trkpt><trkpt lat="45.70294370857947" lon="10.137556271881506"><ele>689.0</ele><time>2026-03-15T14:56:21.999Z</time></trkpt><trkpt lat="45.703024343833604" lon="10.13759993240025"><ele>689.5</ele><time>2026-03-15T14:56:22.999Z</time></trkpt><trkpt lat="45.70312803928804" lon="10.137653849435527"><ele>690.0</ele><time>2026-03-15T14:56:24.999Z</time></trkpt><trkpt lat="45.70318943522519" lon="10.137684311651737"><ele>690.5</ele><time>2026-03-15T14:56:25.999Z</time></trkpt><trkpt lat="45.70325552442321" lon="10.137715791867608"><ele>691.0</ele><time>2026-03-15T14:56:26.999Z</time></trkpt><trkpt lat="45.70339043396901" lon="10.137777528629305"><ele>691.0</ele><time>2026-03-15T14:56:28.999Z</time></trkpt><trkpt lat="45.703465807143544" lon="10.1378098375195"><ele>691.0</ele><time>2026-03-15T14:56:29.999Z</time></trkpt><trkpt lat="45.7035689896235" lon="10.137838425562384"><ele>691.0</ele><time>2026-03-15T14:56:31.999Z</time></trkpt><trkpt lat="45.70369458867471" lon="10.137899297647884"><ele>691.0</ele><time>2026-03-15T14:56:33.999Z</time></trkpt><trkpt lat="45.70375763853803" lon="10.137919930679294"><ele>691.0</ele><time>2026-03-15T14:56:34.999Z</time></trkpt><trkpt lat="45.70382979977558" lon="10.137935423337115"><ele>688.8</ele><time>2026-03-15T14:56:35.999Z</time></trkpt><trkpt lat="45.70392001696348" lon="10.137947852311607"><ele>686.5999999999999</ele><time>2026-03-15T14:56:36.998Z</time></trkpt><trkpt lat="45.7039935300417" lon="10.137950052327534"><ele>684.4</ele><time>2026-03-15T14:56:37.998Z</time></trkpt><trkpt lat="45.7040825438996" lon="10.137926666411696"><ele>682.2</ele><time>2026-03-15T14:56:39.998Z</time></trkpt><trkpt lat="45.7041890860955" lon="10.137899574503546"><ele>680.0</ele><time>2026-03-15T14:56:41.998Z</time></trkpt><trkpt lat="45.70433258785757" lon="10.137907588068092"><ele>678.8333333333333</ele><time>2026-03-15T14:56:43.998Z</time></trkpt><trkpt lat="45.704418291737795" lon="10.137934322453084"><ele>677.6666666666666</ele><time>2026-03-15T14:56:44.998Z</time></trkpt><trkpt lat="45.70449576566329" lon="10.137958644611539"><ele>676.5</ele><time>2026-03-15T14:56:45.998Z</time></trkpt><trkpt lat="45.70459297724554" lon="10.13799945591326"><ele>675.3333333333334</ele><time>2026-03-15T14:56:46.998Z</time></trkpt><trkpt lat="45.704663265202505" lon="10.138027712562996"><ele>674.1666666666667</ele><time>2026-03-15T14:56:47.998Z</time></trkpt><trkpt lat="45.704747870090465" lon="10.1380718385079"><ele>673.0</ele><time>2026-03-15T14:56:48.998Z</time></trkpt><trkpt lat="45.704841979050016" lon="10.138112715985788"><ele>673.0</ele><time>2026-03-15T14:56:49.998Z</time></trkpt><trkpt lat="45.70491092485219" lon="10.138147139144799"><ele>673.0</ele><time>2026-03-15T14:56:50.998Z</time></trkpt><trkpt lat="45.70499124656773" lon="10.138184123710232"><ele>673.0</ele><time>2026-03-15T14:56:51.998Z</time></trkpt><trkpt lat="45.70511829971763" lon="10.138265656546386"><ele>673.0</ele><time>2026-03-15T14:56:53.998Z</time></trkpt><trkpt lat="45.705180536468" lon="10.138301292516037"><ele>673.0</ele><time>2026-03-15T14:56:54.998Z</time></trkpt><trkpt lat="45.70524207941131" lon="10.138339451881214"><ele>673.0</ele><time>2026-03-15T14:56:55.998Z</time></trkpt><trkpt lat="45.70531586051487" lon="10.138390845789077"><ele>673.5999999999999</ele><time>2026-03-15T14:56:56.998Z</time></trkpt><trkpt lat="45.70539512172874" lon="10.138458608046074"><ele>674.1999999999999</ele><time>2026-03-15T14:56:57.998Z</time></trkpt><trkpt lat="45.70546803782351" lon="10.13852888382178"><ele>674.8</ele><time>2026-03-15T14:56:58.998Z</time></trkpt><trkpt lat="45.705555914237344" lon="10.138620815008938"><ele>675.4</ele><time>2026-03-15T14:56:59.998Z</time></trkpt><trkpt lat="45.705634723159136" lon="10.138713925012993"><ele>676.0</ele><time>2026-03-15T14:57:00.998Z</time></trkpt><trkpt lat="45.705690603961415" lon="10.138793084029214"><ele>676.0</ele><time>2026-03-15T14:57:01.998Z</time></trkpt><trkpt lat="45.70574957361793" lon="10.138874915192295"><ele>676.0</ele><time>2026-03-15T14:57:02.998Z</time></trkpt><trkpt lat="45.705829362951185" lon="10.138960981662137"><ele>676.0</ele><time>2026-03-15T14:57:03.998Z</time></trkpt><trkpt lat="45.70593338456855" lon="10.13905741249404"><ele>676.0</ele><time>2026-03-15T14:57:04.998Z</time></trkpt><trkpt lat="45.70603034771073" lon="10.139162063028492"><ele>676.0</ele><time>2026-03-15T14:57:05.998Z</time></trkpt><trkpt lat="45.706106692670126" lon="10.139212260206081"><ele>677.4</ele><time>2026-03-15T14:57:06.998Z</time></trkpt><trkpt lat="45.706174172467364" lon="10.139292042969574"><ele>678.8</ele><time>2026-03-15T14:57:07.998Z</time></trkpt><trkpt lat="45.70623857874645" lon="10.139365971781341"><ele>680.1999999999999</ele><time>2026-03-15T14:57:09.998Z</time></trkpt><trkpt lat="45.70631278898131" lon="10.139451802707613"><ele>681.5999999999999</ele><time>2026-03-15T14:57:17.998Z</time></trkpt><trkpt lat="45.706407796670305" lon="10.139556759929773"><ele>683.0</ele><time>2026-03-15T14:57:19.997Z</time></trkpt><trkpt lat="45.70645279562737" lon="10.139626897808458"><ele>683.0</ele><time>2026-03-15T14:57:20.997Z</time></trkpt><trkpt lat="45.70649286012365" lon="10.139708855611834"><ele>683.0</ele><time>2026-03-15T14:57:21.997Z</time></trkpt><trkpt lat="45.706559770153454" lon="10.139770325759418"><ele>683.0</ele><time>2026-03-15T14:57:23.997Z</time></trkpt><trkpt lat="45.70662592853738" lon="10.139831753628826"><ele>683.0</ele><time>2026-03-15T14:57:25.997Z</time></trkpt><trkpt lat="45.70670392570981" lon="10.139883083905259"><ele>683.0</ele><time>2026-03-15T14:57:26.997Z</time></trkpt><trkpt lat="45.706754660847096" lon="10.139965289161967"><ele>683.0</ele><time>2026-03-15T14:57:28Z</time></trkpt><trkpt lat="45.70683753920138" lon="10.140082682430029"><ele>684.4</ele><time>2026-03-15T14:57:30Z</time></trkpt><trkpt lat="45.70687674587105" lon="10.140156083420342"><ele>685.8</ele><time>2026-03-15T14:57:31Z</time></trkpt><trkpt lat="45.70691489014907" lon="10.140244352643704"><ele>687.2</ele><time>2026-03-15T14:57:32Z</time></trkpt><trkpt lat="45.7069621777887" lon="10.140362629711472"><ele>688.6</ele><time>2026-03-15T14:57:33Z</time></trkpt><trkpt lat="45.707014240508144" lon="10.140506960564267"><ele>690.0</ele><time>2026-03-15T14:57:35Z</time></trkpt><trkpt lat="45.70708224416274" lon="10.140669625195804"><ele>694.6</ele><time>2026-03-15T14:57:36Z</time></trkpt><trkpt lat="45.70713506014306" lon="10.140834833652605"><ele>699.2</ele><time>2026-03-15T14:57:37Z</time></trkpt><trkpt lat="45.707188631187904" lon="10.140947101741732"><ele>703.8</ele><time>2026-03-15T14:57:38Z</time></trkpt><trkpt lat="45.707228055104274" lon="10.141018954325494"><ele>708.4</ele><time>2026-03-15T14:57:39Z</time></trkpt><trkpt lat="45.707280814429" lon="10.141106254941826"><ele>713.0</ele><time>2026-03-15T14:57:40Z</time></trkpt><trkpt lat="45.70735677121925" lon="10.141182940978496"><ele>713.0</ele><time>2026-03-15T14:57:41Z</time></trkpt><trkpt lat="45.70743205034333" lon="10.141257998924686"><ele>713.0</ele><time>2026-03-15T14:57:42Z</time></trkpt><trkpt lat="45.70751090005295" lon="10.141301691192501"><ele>713.0</ele><time>2026-03-15T14:57:43Z</time></trkpt><trkpt lat="45.70759569605034" lon="10.141348008502185"><ele>713.0</ele><time>2026-03-15T14:57:45Z</time></trkpt><trkpt lat="45.70766628240382" lon="10.141396790725924"><ele>713.0</ele><time>2026-03-15T14:57:47Z</time></trkpt><trkpt lat="45.707723933212385" lon="10.141434076799252"><ele>713.0</ele><time>2026-03-15T14:57:49Z</time></trkpt><trkpt lat="45.7078309465229" lon="10.141397848989413"><ele>714.8</ele><time>2026-03-15T14:57:52Z</time></trkpt><trkpt lat="45.70788979604794" lon="10.141270355891715"><ele>716.5999999999999</ele><time>2026-03-15T14:57:54Z</time></trkpt><trkpt lat="45.707977464901965" lon="10.14121116665923"><ele>718.4000000000001</ele><time>2026-03-15T14:57:56Z</time></trkpt><trkpt lat="45.70805101873571" lon="10.14131559082479"><ele>720.2</ele><time>2026-03-15T14:57:59Z</time></trkpt><trkpt lat="45.70809476526171" lon="10.141382931338034"><ele>722.0</ele><time>2026-03-15T14:58:00Z</time></trkpt><trkpt lat="45.70819298791379" lon="10.141440177738932"><ele>722.0</ele><time>2026-03-15T14:58:02Z</time></trkpt><trkpt lat="45.70828133193546" lon="10.141412131478754"><ele>722.0</ele><time>2026-03-15T14:58:04Z</time></trkpt><trkpt lat="45.70835809673694" lon="10.141404682820005"><ele>722.0</ele><time>2026-03-15T14:58:05Z</time></trkpt><trkpt lat="45.70844030521215" lon="10.141349627898128"><ele>722.0</ele><time>2026-03-15T14:58:05.999Z</time></trkpt><trkpt lat="45.708502164618075" lon="10.14127202883218"><ele>722.0</ele><time>2026-03-15T14:58:06.999Z</time></trkpt><trkpt lat="45.70858140815608" lon="10.141205786505488"><ele>722.0</ele><time>2026-03-15T14:58:07.999Z</time></trkpt><trkpt lat="45.70869029425299" lon="10.14119136259168"><ele>725.0</ele><time>2026-03-15T14:58:09.999Z</time></trkpt><trkpt lat="45.70877919749095" lon="10.141190554116088"><ele>728.0</ele><time>2026-03-15T14:58:10.999Z</time></trkpt><trkpt lat="45.708879627752545" lon="10.141174278806583"><ele>731.0</ele><time>2026-03-15T14:58:11.999Z</time></trkpt><trkpt lat="45.70899625289981" lon="10.141209205530908"><ele>734.0</ele><time>2026-03-15T14:58:12.999Z</time></trkpt><trkpt lat="45.70912313566023" lon="10.141216850637973"><ele>737.0</ele><time>2026-03-15T14:58:13.999Z</time></trkpt><trkpt lat="45.709225407129445" lon="10.141209366412609"><ele>737.0</ele><time>2026-03-15T14:58:14.999Z</time></trkpt><trkpt lat="45.709328080636595" lon="10.141208293150612"><ele>737.0</ele><time>2026-03-15T14:58:15.999Z</time></trkpt><trkpt lat="45.70940518093889" lon="10.14121889717387"><ele>737.0</ele><time>2026-03-15T14:58:16.999Z</time></trkpt><trkpt lat="45.70952775295144" lon="10.141328353270968"><ele>737.0</ele><time>2026-03-15T14:58:18.999Z</time></trkpt><trkpt lat="45.70961701080729" lon="10.141398154536255"><ele>737.0</ele><time>2026-03-15T14:58:19.999Z</time></trkpt><trkpt lat="45.709702218102116" lon="10.14144644066767"><ele>738.0</ele><time>2026-03-15T14:58:20.999Z</time></trkpt><trkpt lat="45.70978961667177" lon="10.141487132579016"><ele>739.0</ele><time>2026-03-15T14:58:21.999Z</time></trkpt><trkpt lat="45.70987004830647" lon="10.141549468674862"><ele>740.0</ele><time>2026-03-15T14:58:22.999Z</time></trkpt><trkpt lat="45.709954558260605" lon="10.14160607446033"><ele>741.0</ele><time>2026-03-15T14:58:23.999Z</time></trkpt><trkpt lat="45.710063875289045" lon="10.14164494461227"><ele>742.0</ele><time>2026-03-15T14:58:25.999Z</time></trkpt><trkpt lat="45.7101120853432" lon="10.141721614257598"><ele>746.8</ele><time>2026-03-15T14:58:28.999Z</time></trkpt><trkpt lat="45.710199069714" lon="10.141810366745213"><ele>751.6</ele><time>2026-03-15T14:58:31.999Z</time></trkpt><trkpt lat="45.710267999393366" lon="10.141933133726992"><ele>756.4</ele><time>2026-03-15T14:58:33.999Z</time></trkpt><trkpt lat="45.71030504637342" lon="10.142031888862196"><ele>761.1999999999999</ele><time>2026-03-15T14:58:35.999Z</time></trkpt><trkpt lat="45.71041801542077" lon="10.142048836852233"><ele>766.0</ele><time>2026-03-15T14:58:37.999Z</time></trkpt><trkpt lat="45.71048289801079" lon="10.142010357391367"><ele>768.1999999999999</ele><time>2026-03-15T14:58:38.999Z</time></trkpt><trkpt lat="45.71053685836078" lon="10.141893235819259"><ele>770.4</ele><time>2026-03-15T14:58:39.999Z</time></trkpt><trkpt lat="45.71057668157998" lon="10.14173971301203"><ele>772.6</ele><time>2026-03-15T14:58:40.999Z</time></trkpt><trkpt lat="45.71061425505239" lon="10.141597863191208"><ele>774.8</ele><time>2026-03-15T14:58:41.999Z</time></trkpt><trkpt lat="45.71064508248458" lon="10.141501701008314"><ele>777.0</ele><time>2026-03-15T14:58:42.999Z</time></trkpt><trkpt lat="45.710740933222944" lon="10.141385746106181"><ele>773.25</ele><time>2026-03-15T14:58:44.999Z</time></trkpt><trkpt lat="45.71083776780766" lon="10.141340318675297"><ele>769.5</ele><time>2026-03-15T14:58:45.999Z</time></trkpt><trkpt lat="45.71094629097545" lon="10.14125855039643"><ele>765.75</ele><time>2026-03-15T14:58:46.999Z</time></trkpt><trkpt lat="45.71105567526461" lon="10.141176454948695"><ele>762.0</ele><time>2026-03-15T14:58:47.998Z</time></trkpt><trkpt lat="45.71115706024264" lon="10.141107327513549"><ele>762.0</ele><time>2026-03-15T14:58:48.998Z</time></trkpt><trkpt lat="45.71124101726047" lon="10.141055878799797"><ele>762.0</ele><time>2026-03-15T14:58:49.998Z</time></trkpt><trkpt lat="45.71132380633572" lon="10.141007923982587"><ele>762.0</ele><time>2026-03-15T14:58:50.998Z</time></trkpt><trkpt lat="45.711419833423285" lon="10.140957461746233"><ele>762.0</ele><time>2026-03-15T14:58:51.998Z</time></trkpt><trkpt lat="45.71152083559755" lon="10.140909516016716"><ele>762.0</ele><time>2026-03-15T14:58:52.998Z</time></trkpt><trkpt lat="45.711621004731015" lon="10.140854267607505"><ele>762.0</ele><time>2026-03-15T14:58:53.998Z</time></trkpt><trkpt lat="45.7117242164094" lon="10.140814521152855"><ele>762.0</ele><time>2026-03-15T14:58:54.998Z</time></trkpt><trkpt lat="45.71183639142485" lon="10.140801084299381"><ele>762.0</ele><time>2026-03-15T14:58:55.998Z</time></trkpt><trkpt lat="45.711945017729924" lon="10.140751032168104"><ele>762.0</ele><time>2026-03-15T14:58:56.998Z</time></trkpt><trkpt lat="45.71206506836535" lon="10.140688601653986"><ele>760.5</ele><time>2026-03-15T14:58:57.998Z</time></trkpt><trkpt lat="45.712175122117465" lon="10.140624881760509"><ele>759.0</ele><time>2026-03-15T14:58:58.998Z</time></trkpt><trkpt lat="45.71228190785971" lon="10.140559317036029"><ele>757.5</ele><time>2026-03-15T14:58:59.998Z</time></trkpt><trkpt lat="45.712397969312796" lon="10.140477231085196"><ele>756.0</ele><time>2026-03-15T14:59:00.998Z</time></trkpt><trkpt lat="45.71250199088923" lon="10.140390097866419"><ele>756.0</ele><time>2026-03-15T14:59:01.998Z</time></trkpt><trkpt lat="45.71260796505931" lon="10.140303178465825"><ele>756.0</ele><time>2026-03-15T14:59:02.998Z</time></trkpt><trkpt lat="45.712703916619525" lon="10.140224479523129"><ele>756.0</ele><time>2026-03-15T14:59:03.998Z</time></trkpt><trkpt lat="45.71279842547274" lon="10.14014696406382"><ele>756.0</ele><time>2026-03-15T14:59:04.998Z</time></trkpt><trkpt lat="45.71286703012486" lon="10.140069038974987"><ele>756.0</ele><time>2026-03-15T14:59:05.998Z</time></trkpt><trkpt lat="45.712955591232664" lon="10.14001361255387"><ele>754.1999999999999</ele><time>2026-03-15T14:59:06.998Z</time></trkpt><trkpt lat="45.71306251825884" lon="10.139922485522618"><ele>752.4</ele><time>2026-03-15T14:59:07.998Z</time></trkpt><trkpt lat="45.713155870741915" lon="10.139845410098742"><ele>750.6</ele><time>2026-03-15T14:59:08.998Z</time></trkpt><trkpt lat="45.71324087661123" lon="10.139782391486554"><ele>748.8</ele><time>2026-03-15T14:59:09.998Z</time></trkpt><trkpt lat="45.713336914120816" lon="10.13972619698412"><ele>747.0</ele><time>2026-03-15T14:59:10.998Z</time></trkpt><trkpt lat="45.713450746533006" lon="10.139671836924398"><ele>747.0</ele><time>2026-03-15T14:59:11.998Z</time></trkpt><trkpt lat="45.71356012310905" lon="10.139637241213933"><ele>747.0</ele><time>2026-03-15T14:59:12.998Z</time></trkpt><trkpt lat="45.713656331879" lon="10.13962118983342"><ele>747.0</ele><time>2026-03-15T14:59:13.998Z</time></trkpt><trkpt lat="45.71376988654237" lon="10.139618656099964"><ele>747.0</ele><time>2026-03-15T14:59:14.998Z</time></trkpt><trkpt lat="45.71388172617523" lon="10.139649938612667"><ele>747.0</ele><time>2026-03-15T14:59:15.998Z</time></trkpt><trkpt lat="45.713970335777866" lon="10.139692560829614"><ele>749.6</ele><time>2026-03-15T14:59:16.998Z</time></trkpt><trkpt lat="45.714070222887145" lon="10.139752481168912"><ele>752.2</ele><time>2026-03-15T14:59:18.997Z</time></trkpt><trkpt lat="45.71417554734294" lon="10.139834462940717"><ele>754.8</ele><time>2026-03-15T14:59:19.997Z</time></trkpt><trkpt lat="45.71426381006168" lon="10.139898251794063"><ele>757.4</ele><time>2026-03-15T14:59:20.997Z</time></trkpt><trkpt lat="45.71435396389738" lon="10.139957049069848"><ele>760.0</ele><time>2026-03-15T14:59:21.997Z</time></trkpt><trkpt lat="45.7144725229218" lon="10.140021986178072"><ele>763.8</ele><time>2026-03-15T14:59:22.997Z</time></trkpt><trkpt lat="45.71458697553259" lon="10.14008282888031"><ele>767.6</ele><time>2026-03-15T14:59:23.997Z</time></trkpt><trkpt lat="45.71469434071624" lon="10.140160205132128"><ele>771.4000000000001</ele><time>2026-03-15T14:59:25.997Z</time></trkpt><trkpt lat="45.71476442158393" lon="10.140250612670572"><ele>775.2</ele><time>2026-03-15T14:59:26.997Z</time></trkpt><trkpt lat="45.714820251806906" lon="10.140379872403253"><ele>779.0</ele><time>2026-03-15T14:59:27.997Z</time></trkpt><trkpt lat="45.71489051153461" lon="10.140479432965893"><ele>779.0</ele><time>2026-03-15T14:59:28.997Z</time></trkpt><trkpt lat="45.71496192514881" lon="10.140574243985471"><ele>779.0</ele><time>2026-03-15T14:59:29.996Z</time></trkpt><trkpt lat="45.71504090509301" lon="10.140655500552592"><ele>779.0</ele><time>2026-03-15T14:59:30.996Z</time></trkpt><trkpt lat="45.715121187770094" lon="10.140718181411897"><ele>779.0</ele><time>2026-03-15T14:59:31.996Z</time></trkpt><trkpt lat="45.71518442228285" lon="10.140797853836258"><ele>779.0</ele><time>2026-03-15T14:59:32.999Z</time></trkpt><trkpt lat="45.71522689220061" lon="10.140898726631232"><ele>786.6</ele><time>2026-03-15T14:59:33.999Z</time></trkpt><trkpt lat="45.71525738034167" lon="10.141014112196595"><ele>794.2</ele><time>2026-03-15T14:59:34.999Z</time></trkpt><trkpt lat="45.715293365596594" lon="10.141147859546576"><ele>801.8000000000001</ele><time>2026-03-15T14:59:35.999Z</time></trkpt><trkpt lat="45.71533058016026" lon="10.141279420950946"><ele>809.4000000000001</ele><time>2026-03-15T14:59:36.999Z</time></trkpt><trkpt lat="45.71536804961216" lon="10.141421561101716"><ele>817.0</ele><time>2026-03-15T14:59:37.999Z</time></trkpt><trkpt lat="45.71541341940892" lon="10.141574760966524"><ele>821.6666666666666</ele><time>2026-03-15T14:59:38.999Z</time></trkpt><trkpt lat="45.715466612252015" lon="10.141709638458575"><ele>826.3333333333333</ele><time>2026-03-15T14:59:39.999Z</time></trkpt><trkpt lat="45.71551457249661" lon="10.141803850671252"><ele>831.0</ele><time>2026-03-15T14:59:40.999Z</time></trkpt><trkpt lat="45.71557088572011" lon="10.141894780059484"><ele>835.6666666666667</ele><time>2026-03-15T14:59:41.999Z</time></trkpt><trkpt lat="45.71562383880653" lon="10.141968291614768"><ele>840.3333333333334</ele><time>2026-03-15T14:59:42.999Z</time></trkpt><trkpt lat="45.71567687119853" lon="10.142035768270212"><ele>845.0</ele><time>2026-03-15T14:59:43.999Z</time></trkpt><trkpt lat="45.71576884106475" lon="10.142123649074987"><ele>845.0000000000001</ele><time>2026-03-15T14:59:45.999Z</time></trkpt><trkpt lat="45.715837212170754" lon="10.142133862878493"><ele>845.0</ele><time>2026-03-15T14:59:46.999Z</time></trkpt><trkpt lat="45.71591910786788" lon="10.142072014757446"><ele>845.0</ele><time>2026-03-15T14:59:47.999Z</time></trkpt><trkpt lat="45.71598176899026" lon="10.141977520066476"><ele>845.0</ele><time>2026-03-15T14:59:48.999Z</time></trkpt><trkpt lat="45.71604541112549" lon="10.141895525298057"><ele>845.0000000000001</ele><time>2026-03-15T14:59:49.999Z</time></trkpt><trkpt lat="45.716115114756725" lon="10.141834103826266"><ele>845.0</ele><time>2026-03-15T14:59:51.999Z</time></trkpt><trkpt lat="45.716201607452255" lon="10.1418121930237"><ele>847.8</ele><time>2026-03-15T14:59:53.999Z</time></trkpt><trkpt lat="45.71628896847001" lon="10.141880918599291"><ele>850.6</ele><time>2026-03-15T14:59:55.999Z</time></trkpt><trkpt lat="45.71635949744645" lon="10.141927575907781"><ele>853.4000000000001</ele><time>2026-03-15T14:59:57.999Z</time></trkpt><trkpt lat="45.71645653700449" lon="10.14200517868168"><ele>856.2</ele><time>2026-03-15T14:59:59.999Z</time></trkpt><trkpt lat="45.716558996510074" lon="10.142108827757763"><ele>859.0</ele><time>2026-03-15T15:00:01.999Z</time></trkpt><trkpt lat="45.71661972966002" lon="10.142158213272713"><ele>859.0</ele><time>2026-03-15T15:00:02.999Z</time></trkpt><trkpt lat="45.71673921364098" lon="10.142202060738104"><ele>859.0000000000001</ele><time>2026-03-15T15:00:04.999Z</time></trkpt><trkpt lat="45.716844556242364" lon="10.142206524947486"><ele>859.0000000000001</ele><time>2026-03-15T15:00:05.999Z</time></trkpt><trkpt lat="45.71693823212886" lon="10.142208893432016"><ele>859.0</ele><time>2026-03-15T15:00:06.999Z</time></trkpt><trkpt lat="45.71703551966603" lon="10.142223548174908"><ele>859.0</ele><time>2026-03-15T15:00:07.999Z</time></trkpt><trkpt lat="45.717130941708255" lon="10.142243025435535"><ele>860.4999999999999</ele><time>2026-03-15T15:00:08.999Z</time></trkpt><trkpt lat="45.71722893820429" lon="10.14226945621027"><ele>862.0</ele><time>2026-03-15T15:00:09.999Z</time></trkpt><trkpt lat="45.717322423225355" lon="10.142305398428203"><ele>863.5</ele><time>2026-03-15T15:00:10.999Z</time></trkpt><trkpt lat="45.7173887471609" lon="10.142354761571118"><ele>865.0</ele><time>2026-03-15T15:00:11.999Z</time></trkpt><trkpt lat="45.7174456241336" lon="10.14240478020372"><ele>866.4999999999999</ele><time>2026-03-15T15:00:12.999Z</time></trkpt><trkpt lat="45.71749891573286" lon="10.142471770035556"><ele>868.0</ele><time>2026-03-15T15:00:13.999Z</time></trkpt><trkpt lat="45.71755151589343" lon="10.142539312868466"><ele>871.9999999999999</ele><time>2026-03-15T15:00:14.999Z</time></trkpt><trkpt lat="45.71761161885595" lon="10.142628143222248"><ele>876.0</ele><time>2026-03-15T15:00:15.999Z</time></trkpt><trkpt lat="45.71765986644393" lon="10.142735015642863"><ele>880.0</ele><time>2026-03-15T15:00:16.999Z</time></trkpt><trkpt lat="45.717700243423955" lon="10.142820773341592"><ele>884.0</ele><time>2026-03-15T15:00:17.999Z</time></trkpt><trkpt lat="45.71774768167144" lon="10.142887013065803"><ele>887.9999999999999</ele><time>2026-03-15T15:00:18.999Z</time></trkpt><trkpt lat="45.71783729328779" lon="10.14297881671179"><ele>892.0</ele><time>2026-03-15T15:00:19.999Z</time></trkpt><trkpt lat="45.71791208362183" lon="10.143099908706247"><ele>893.0</ele><time>2026-03-15T15:00:20.999Z</time></trkpt><trkpt lat="45.717991349184686" lon="10.143193833736104"><ele>894.0</ele><time>2026-03-15T15:00:21.999Z</time></trkpt><trkpt lat="45.718082939990154" lon="10.143270665900992"><ele>895.0</ele><time>2026-03-15T15:00:22.999Z</time></trkpt><trkpt lat="45.718188337472185" lon="10.143321447547592"><ele>896.0</ele><time>2026-03-15T15:00:23.999Z</time></trkpt><trkpt lat="45.718290167063984" lon="10.143352600883349"><ele>897.0</ele><time>2026-03-15T15:00:24.999Z</time></trkpt><trkpt lat="45.71838517243989" lon="10.143380465720961"><ele>901.3333333333334</ele><time>2026-03-15T15:00:25.999Z</time></trkpt><trkpt lat="45.718480595925044" lon="10.143414571855844"><ele>905.6666666666667</ele><time>2026-03-15T15:00:26.999Z</time></trkpt><trkpt lat="45.71854578619029" lon="10.14345089646414"><ele>910.0</ele><time>2026-03-15T15:00:27.999Z</time></trkpt><trkpt lat="45.71860434214324" lon="10.14348541546249"><ele>914.3333333333334</ele><time>2026-03-15T15:00:28.998Z</time></trkpt><trkpt lat="45.718659545941804" lon="10.14359030804194"><ele>918.6666666666667</ele><time>2026-03-15T15:00:29.998Z</time></trkpt><trkpt lat="45.71873827526911" lon="10.143672558919686"><ele>923.0</ele><time>2026-03-15T15:00:30.998Z</time></trkpt><trkpt lat="45.718838711303846" lon="10.143725894821795"><ele>925.0</ele><time>2026-03-15T15:00:32.998Z</time></trkpt><trkpt lat="45.718903483663915" lon="10.143728257430269"><ele>927.0</ele><time>2026-03-15T15:00:33.998Z</time></trkpt><trkpt lat="45.71898649696401" lon="10.143724446446088"><ele>929.0</ele><time>2026-03-15T15:00:34.998Z</time></trkpt><trkpt lat="45.71908030025826" lon="10.143724408285626"><ele>931.0</ele><time>2026-03-15T15:00:35.998Z</time></trkpt><trkpt lat="45.71919929420176" lon="10.143718857408636"><ele>933.0</ele><time>2026-03-15T15:00:36.998Z</time></trkpt><trkpt lat="45.71929494343972" lon="10.143726018512185"><ele>933.0</ele><time>2026-03-15T15:00:37.998Z</time></trkpt><trkpt lat="45.719372267988845" lon="10.143724753839392"><ele>933.0</ele><time>2026-03-15T15:00:38.998Z</time></trkpt><trkpt lat="45.71948303423648" lon="10.143809213045268"><ele>933.0</ele><time>2026-03-15T15:00:40.998Z</time></trkpt><trkpt lat="45.71960196062281" lon="10.143884136738368"><ele>933.0</ele><time>2026-03-15T15:00:42.998Z</time></trkpt><trkpt lat="45.71966064492089" lon="10.143942959622821"><ele>933.0</ele><time>2026-03-15T15:00:43.998Z</time></trkpt><trkpt lat="45.71970058555697" lon="10.144014355904838"><ele>937.6666666666666</ele><time>2026-03-15T15:00:44.998Z</time></trkpt><trkpt lat="45.71975257737033" lon="10.144114824870034"><ele>942.3333333333333</ele><time>2026-03-15T15:00:45.998Z</time></trkpt><trkpt lat="45.71981105349185" lon="10.144201096677204"><ele>947.0</ele><time>2026-03-15T15:00:46.998Z</time></trkpt><trkpt lat="45.71986276103461" lon="10.144267027332813"><ele>951.6666666666666</ele><time>2026-03-15T15:00:47.998Z</time></trkpt><trkpt lat="45.719959651650186" lon="10.144310632263723"><ele>956.3333333333333</ele><time>2026-03-15T15:00:49.998Z</time></trkpt><trkpt lat="45.72006117450062" lon="10.144344971239171"><ele>961.0</ele><time>2026-03-15T15:00:51.998Z</time></trkpt><trkpt lat="45.72012011793018" lon="10.144394260371385"><ele>960.9999999999999</ele><time>2026-03-15T15:00:52.998Z</time></trkpt><trkpt lat="45.72019948486033" lon="10.14442537183638"><ele>961.0</ele><time>2026-03-15T15:00:53.998Z</time></trkpt><trkpt lat="45.72027219139485" lon="10.144455110311092"><ele>961.0</ele><time>2026-03-15T15:00:54.998Z</time></trkpt><trkpt lat="45.72035482139609" lon="10.14449391741181"><ele>961.0</ele><time>2026-03-15T15:00:55.998Z</time></trkpt><trkpt lat="45.720419658986806" lon="10.14452581108865"><ele>960.9999999999999</ele><time>2026-03-15T15:00:56.998Z</time></trkpt><trkpt lat="45.72051409522591" lon="10.14457843629657"><ele>961.0</ele><time>2026-03-15T15:00:58.998Z</time></trkpt><trkpt lat="45.7205747095548" lon="10.14461141711265"><ele>962.5999999999999</ele><time>2026-03-15T15:00:59.998Z</time></trkpt><trkpt lat="45.720642104141156" lon="10.144646732355646"><ele>964.1999999999999</ele><time>2026-03-15T15:01:00.998Z</time></trkpt><trkpt lat="45.720758761923136" lon="10.144685020744085"><ele>965.8000000000001</ele><time>2026-03-15T15:01:02.998Z</time></trkpt><trkpt lat="45.72088651694777" lon="10.144723912868534"><ele>967.4000000000001</ele><time>2026-03-15T15:01:04.998Z</time></trkpt><trkpt lat="45.720954240457246" lon="10.14469433584926"><ele>969.0</ele><time>2026-03-15T15:01:05.998Z</time></trkpt><trkpt lat="45.72102271619198" lon="10.144667107347994"><ele>973.2</ele><time>2026-03-15T15:01:06.998Z</time></trkpt><trkpt lat="45.72111595612643" lon="10.144679132995279"><ele>977.4000000000001</ele><time>2026-03-15T15:01:08.998Z</time></trkpt><trkpt lat="45.72121128998254" lon="10.144776628706406"><ele>981.6</ele><time>2026-03-15T15:01:10.998Z</time></trkpt><trkpt lat="45.72127338435379" lon="10.144821594799271"><ele>985.8</ele><time>2026-03-15T15:01:11.998Z</time></trkpt><trkpt lat="45.72137397901506" lon="10.144894101161821"><ele>990.0</ele><time>2026-03-15T15:01:13.997Z</time></trkpt><trkpt lat="45.72145274800035" lon="10.144902898005896"><ele>990.0</ele><time>2026-03-15T15:01:14.997Z</time></trkpt><trkpt lat="45.7215499134993" lon="10.144900559244379"><ele>990.0</ele><time>2026-03-15T15:01:15.997Z</time></trkpt><trkpt lat="45.72162605734199" lon="10.144878339166855"><ele>990.0</ele><time>2026-03-15T15:01:16.997Z</time></trkpt><trkpt lat="45.721691189661435" lon="10.144925084242109"><ele>990.0</ele><time>2026-03-15T15:01:17.997Z</time></trkpt><trkpt lat="45.7217301883705" lon="10.145045600575632"><ele>990.0</ele><time>2026-03-15T15:01:19.997Z</time></trkpt><trkpt lat="45.72172584053179" lon="10.145208234934803"><ele>995.6</ele><time>2026-03-15T15:01:21.997Z</time></trkpt><trkpt lat="45.721727578849006" lon="10.14531378159053"><ele>1001.2</ele><time>2026-03-15T15:01:23.997Z</time></trkpt><trkpt lat="45.72178426736573" lon="10.145410380322296"><ele>1006.8</ele><time>2026-03-15T15:01:26.997Z</time></trkpt><trkpt lat="45.72187107146301" lon="10.145454032901482"><ele>1012.4</ele><time>2026-03-15T15:01:27.997Z</time></trkpt><trkpt lat="45.72201683848501" lon="10.145472933954903"><ele>1018.0</ele><time>2026-03-15T15:01:29.997Z</time></trkpt><trkpt lat="45.722121560463485" lon="10.145504955864787"><ele>1019.9999999999999</ele><time>2026-03-15T15:01:31.997Z</time></trkpt><trkpt lat="45.722236187882054" lon="10.145566296576773"><ele>1022.0</ele><time>2026-03-15T15:01:33.997Z</time></trkpt><trkpt lat="45.72230060093753" lon="10.145602160525426"><ele>1024.0</ele><time>2026-03-15T15:01:34.997Z</time></trkpt><trkpt lat="45.72239756014167" lon="10.145632743827774"><ele>1026.0</ele><time>2026-03-15T15:01:36.997Z</time></trkpt><trkpt lat="45.72246601113864" lon="10.145690793516291"><ele>1028.0</ele><time>2026-03-15T15:01:39Z</time></trkpt><trkpt lat="45.72252994618947" lon="10.145719732218826"><ele>1030.0</ele><time>2026-03-15T15:01:41Z</time></trkpt><trkpt lat="45.72264481165498" lon="10.14574815334703"><ele>1037.1666666666665</ele><time>2026-03-15T15:01:43Z</time></trkpt><trkpt lat="45.72273510516111" lon="10.145765793628547"><ele>1044.3333333333333</ele><time>2026-03-15T15:01:45Z</time></trkpt><trkpt lat="45.7228406900245" lon="10.14578624511389"><ele>1051.5</ele><time>2026-03-15T15:01:47Z</time></trkpt><trkpt lat="45.72293028234629" lon="10.145810907703224"><ele>1058.6666666666667</ele><time>2026-03-15T15:01:50Z</time></trkpt><trkpt lat="45.7230178415291" lon="10.14584756558184"><ele>1065.8333333333335</ele><time>2026-03-15T15:01:52Z</time></trkpt><trkpt lat="45.723080649394056" lon="10.145869908279034"><ele>1073.0</ele><time>2026-03-15T15:01:54Z</time></trkpt><trkpt lat="45.72313647483497" lon="10.145934423716312"><ele>1073.0</ele><time>2026-03-15T15:01:55Z</time></trkpt><trkpt lat="45.72319450324822" lon="10.14602372128749"><ele>1073.0</ele><time>2026-03-15T15:01:56Z</time></trkpt><trkpt lat="45.72323102233798" lon="10.146111312812636"><ele>1073.0</ele><time>2026-03-15T15:01:57Z</time></trkpt><trkpt lat="45.723268278504335" lon="10.146209607475576"><ele>1073.0</ele><time>2026-03-15T15:01:58Z</time></trkpt><trkpt lat="45.72331689653781" lon="10.146356711762156"><ele>1073.0</ele><time>2026-03-15T15:02:00Z</time></trkpt><trkpt lat="45.72341432567614" lon="10.146539400902903"><ele>1076.5</ele><time>2026-03-15T15:02:03Z</time></trkpt><trkpt lat="45.72345300478048" lon="10.14662750544131"><ele>1080.0</ele><time>2026-03-15T15:02:04Z</time></trkpt><trkpt lat="45.72352716981936" lon="10.146755020157824"><ele>1083.5</ele><time>2026-03-15T15:02:06Z</time></trkpt><trkpt lat="45.72362714874429" lon="10.146794766494557"><ele>1087.0</ele><time>2026-03-15T15:02:08Z</time></trkpt><trkpt lat="45.72369912130312" lon="10.146793187481812"><ele>1090.5</ele><time>2026-03-15T15:02:08.999Z</time></trkpt><trkpt lat="45.723766692894685" lon="10.146792982553437"><ele>1094.0</ele><time>2026-03-15T15:02:09.999Z</time></trkpt><trkpt lat="45.72383272083801" lon="10.146820752242272"><ele>1096.1666666666667</ele><time>2026-03-15T15:02:11.999Z</time></trkpt><trkpt lat="45.723878186945385" lon="10.14690976073899"><ele>1098.3333333333335</ele><time>2026-03-15T15:02:13.999Z</time></trkpt><trkpt lat="45.72394488875646" lon="10.147056946011443"><ele>1100.5</ele><time>2026-03-15T15:02:15.999Z</time></trkpt><trkpt lat="45.72397091101601" lon="10.147147026544198"><ele>1102.6666666666667</ele><time>2026-03-15T15:02:17.999Z</time></trkpt><trkpt lat="45.7240233870663" lon="10.147248261459008"><ele>1104.8333333333333</ele><time>2026-03-15T15:02:25.999Z</time></trkpt><trkpt lat="45.724062471155875" lon="10.14733142766534"><ele>1107.0</ele><time>2026-03-15T15:02:27.999Z</time></trkpt><trkpt lat="45.72410711885131" lon="10.14741610064793"><ele>1107.0</ele><time>2026-03-15T15:02:30.999Z</time></trkpt><trkpt lat="45.72418956650957" lon="10.147373828489577"><ele>1107.0</ele><time>2026-03-15T15:02:31.999Z</time></trkpt><trkpt lat="45.7242831451105" lon="10.14742081000249"><ele>1107.0</ele><time>2026-03-15T15:02:33.999Z</time></trkpt><trkpt lat="45.724364317723655" lon="10.14745777502374"><ele>1107.0</ele><time>2026-03-15T15:02:35.999Z</time></trkpt><trkpt lat="45.72444167959235" lon="10.147496137656464"><ele>1107.0</ele><time>2026-03-15T15:02:37.999Z</time></trkpt><trkpt lat="45.72450328758144" lon="10.147528587403423"><ele>1107.0</ele><time>2026-03-15T15:02:38.999Z</time></trkpt><trkpt lat="45.72456685208803" lon="10.147548366835712"><ele>1107.6666666666667</ele><time>2026-03-15T15:02:39.999Z</time></trkpt><trkpt lat="45.72463222897325" lon="10.147588266060648"><ele>1108.3333333333333</ele><time>2026-03-15T15:02:40.999Z</time></trkpt><trkpt lat="45.72472328999171" lon="10.147623174620401"><ele>1109.0</ele><time>2026-03-15T15:02:42.999Z</time></trkpt><trkpt lat="45.72479188960758" lon="10.147645258347428"><ele>1109.6666666666665</ele><time>2026-03-15T15:02:43.999Z</time></trkpt><trkpt lat="45.72486768771469" lon="10.147679666195634"><ele>1110.3333333333333</ele><time>2026-03-15T15:02:44.999Z</time></trkpt><trkpt lat="45.724927323068705" lon="10.147713965212226"><ele>1111.0</ele><time>2026-03-15T15:02:45.999Z</time></trkpt><trkpt lat="45.725001151643994" lon="10.147767339450706"><ele>1111.0</ele><time>2026-03-15T15:02:47.999Z</time></trkpt><trkpt lat="45.72508599739921" lon="10.147789597901227"><ele>1111.0</ele><time>2026-03-15T15:02:49.999Z</time></trkpt><trkpt lat="45.725196790604485" lon="10.147789593612735"><ele>1111.0</ele><time>2026-03-15T15:02:51.999Z</time></trkpt><trkpt lat="45.72530984201534" lon="10.147832785873463"><ele>1111.0</ele><time>2026-03-15T15:02:53.998Z</time></trkpt><trkpt lat="45.72536496689879" lon="10.147879033428156"><ele>1111.0</ele><time>2026-03-15T15:02:54.998Z</time></trkpt><trkpt lat="45.72543463119854" lon="10.148035601362928"><ele>1111.0</ele><time>2026-03-15T15:02:56.998Z</time></trkpt><trkpt lat="45.72552016782663" lon="10.148144146108379"><ele>1111.0</ele><time>2026-03-15T15:02:58.998Z</time></trkpt><trkpt lat="45.72558365693618" lon="10.14819533502147"><ele>1111.0</ele><time>2026-03-15T15:02:59.998Z</time></trkpt><trkpt lat="45.72568710839799" lon="10.148269179120106"><ele>1111.0</ele><time>2026-03-15T15:03:01.998Z</time></trkpt><trkpt lat="45.72579112303127" lon="10.14832083541431"><ele>1111.0</ele><time>2026-03-15T15:03:03.998Z</time></trkpt><trkpt lat="45.725887268826476" lon="10.1483563294527"><ele>1107.6666666666665</ele><time>2026-03-15T15:03:05.998Z</time></trkpt><trkpt lat="45.72602075510639" lon="10.148388147556657"><ele>1104.3333333333333</ele><time>2026-03-15T15:03:07.998Z</time></trkpt><trkpt lat="45.726083350060655" lon="10.148400278706681"><ele>1101.0</ele><time>2026-03-15T15:03:08.998Z</time></trkpt><trkpt lat="45.72615404561544" lon="10.14842151572388"><ele>1097.6666666666667</ele><time>2026-03-15T15:03:09.998Z</time></trkpt><trkpt lat="45.72622461112523" lon="10.148464485492159"><ele>1094.3333333333335</ele><time>2026-03-15T15:03:10.998Z</time></trkpt><trkpt lat="45.7262868173706" lon="10.148513291799178"><ele>1091.0</ele><time>2026-03-15T15:03:11.998Z</time></trkpt><trkpt lat="45.726363156575694" lon="10.148567853493004"><ele>1090.0</ele><time>2026-03-15T15:03:12.998Z</time></trkpt><trkpt lat="45.72642203567616" lon="10.14860767335053"><ele>1089.0</ele><time>2026-03-15T15:03:13.998Z</time></trkpt><trkpt lat="45.726487530009095" lon="10.148642044415476"><ele>1088.0</ele><time>2026-03-15T15:03:14.998Z</time></trkpt><trkpt lat="45.726549292769256" lon="10.148690624618885"><ele>1087.0</ele><time>2026-03-15T15:03:15.998Z</time></trkpt><trkpt lat="45.72660426206101" lon="10.148757178706788"><ele>1086.0</ele><time>2026-03-15T15:03:16.998Z</time></trkpt><trkpt lat="45.72664975389818" lon="10.148823134898024"><ele>1085.0</ele><time>2026-03-15T15:03:17.998Z</time></trkpt><trkpt lat="45.72674074572265" lon="10.148941228307535"><ele>1085.0</ele><time>2026-03-15T15:03:19.998Z</time></trkpt><trkpt lat="45.72683867070489" lon="10.14902627621198"><ele>1085.0</ele><time>2026-03-15T15:03:21.998Z</time></trkpt><trkpt lat="45.7269539914655" lon="10.148995675689749"><ele>1085.0</ele><time>2026-03-15T15:03:23.998Z</time></trkpt><trkpt lat="45.72701889581135" lon="10.14900902186443"><ele>1085.0</ele><time>2026-03-15T15:03:24.998Z</time></trkpt><trkpt lat="45.727085148242345" lon="10.149038649899481"><ele>1085.0</ele><time>2026-03-15T15:03:25.998Z</time></trkpt><trkpt lat="45.72714970183754" lon="10.149073903640337"><ele>1085.0</ele><time>2026-03-15T15:03:26.998Z</time></trkpt><trkpt lat="45.72721098320562" lon="10.149125969270855"><ele>1082.2</ele><time>2026-03-15T15:03:27.998Z</time></trkpt><trkpt lat="45.72727142919986" lon="10.14918622501072"><ele>1079.4</ele><time>2026-03-15T15:03:28.998Z</time></trkpt><trkpt lat="45.72732407364616" lon="10.149261087929306"><ele>1076.6</ele><time>2026-03-15T15:03:29.998Z</time></trkpt><trkpt lat="45.727390121512684" lon="10.149351811862221"><ele>1073.8</ele><time>2026-03-15T15:03:30.998Z</time></trkpt><trkpt lat="45.72746248985827" lon="10.149468836103242"><ele>1071.0</ele><time>2026-03-15T15:03:31.998Z</time></trkpt><trkpt lat="45.72754759427" lon="10.149610190283102"><ele>1071.0</ele><time>2026-03-15T15:03:32.998Z</time></trkpt><trkpt lat="45.727614174884074" lon="10.149772967304374"><ele>1071.0</ele><time>2026-03-15T15:03:33.998Z</time></trkpt><trkpt lat="45.72766847668093" lon="10.149855414364762"><ele>1071.0</ele><time>2026-03-15T15:03:34.998Z</time></trkpt><trkpt lat="45.72772015034374" lon="10.14991904071272"><ele>1071.0</ele><time>2026-03-15T15:03:36.997Z</time></trkpt><trkpt lat="45.727802811536066" lon="10.14998540385631"><ele>1071.0</ele><time>2026-03-15T15:03:38.997Z</time></trkpt><trkpt lat="45.727869812718374" lon="10.15000826076124"><ele>1071.0</ele><time>2026-03-15T15:03:39.997Z</time></trkpt><trkpt lat="45.72794232129879" lon="10.150011066153702"><ele>1072.2857142857142</ele><time>2026-03-15T15:03:41.997Z</time></trkpt><trkpt lat="45.72800924723142" lon="10.150026077903327"><ele>1073.5714285714284</ele><time>2026-03-15T15:04:26Z</time></trkpt><trkpt lat="45.72806350667951" lon="10.150085086868554"><ele>1074.857142857143</ele><time>2026-03-15T15:04:27.999Z</time></trkpt><trkpt lat="45.72807890172761" lon="10.150227647373576"><ele>1076.142857142857</ele><time>2026-03-15T15:04:29.999Z</time></trkpt><trkpt lat="45.72807868461464" lon="10.15031850022454"><ele>1077.4285714285713</ele><time>2026-03-15T15:04:30.999Z</time></trkpt><trkpt lat="45.72806784633379" lon="10.150418249062508"><ele>1078.7142857142858</ele><time>2026-03-15T15:04:31.999Z</time></trkpt><trkpt lat="45.72806620886581" lon="10.150528807416853"><ele>1080.0</ele><time>2026-03-15T15:04:32.999Z</time></trkpt><trkpt lat="45.72806663327392" lon="10.150662896717245"><ele>1084.2</ele><time>2026-03-15T15:04:33.999Z</time></trkpt><trkpt lat="45.728078812214775" lon="10.150801139485923"><ele>1088.4</ele><time>2026-03-15T15:04:34.999Z</time></trkpt><trkpt lat="45.72809847958925" lon="10.150924769149247"><ele>1092.6</ele><time>2026-03-15T15:04:35.999Z</time></trkpt><trkpt lat="45.72811614970519" lon="10.151051132216061"><ele>1096.8</ele><time>2026-03-15T15:04:36.999Z</time></trkpt><trkpt lat="45.72811196077383" lon="10.151209736221537"><ele>1101.0</ele><time>2026-03-15T15:04:38.999Z</time></trkpt><trkpt lat="45.7280976270666" lon="10.151342479464521"><ele>1101.0</ele><time>2026-03-15T15:04:39.999Z</time></trkpt><trkpt lat="45.728077730909746" lon="10.151448601544235"><ele>1101.0</ele><time>2026-03-15T15:04:40.999Z</time></trkpt><trkpt lat="45.72801639789219" lon="10.151615508180207"><ele>1101.0</ele><time>2026-03-15T15:04:42.999Z</time></trkpt><trkpt lat="45.72797675223751" lon="10.151714349323631"><ele>1101.0</ele><time>2026-03-15T15:04:43.999Z</time></trkpt><trkpt lat="45.72794264998394" lon="10.151802954735391"><ele>1101.0</ele><time>2026-03-15T15:04:44.999Z</time></trkpt><trkpt lat="45.72788867483052" lon="10.151901384848758"><ele>1101.0</ele><time>2026-03-15T15:04:46.999Z</time></trkpt><trkpt lat="45.727845347379386" lon="10.151997077799228"><ele>1103.6666666666667</ele><time>2026-03-15T15:04:48.999Z</time></trkpt><trkpt lat="45.72782298491728" lon="10.152149009108305"><ele>1106.3333333333333</ele><time>2026-03-15T15:04:50.999Z</time></trkpt><trkpt lat="45.727795911936845" lon="10.152262991518356"><ele>1109.0</ele><time>2026-03-15T15:04:51.999Z</time></trkpt><trkpt lat="45.72779423314608" lon="10.152356458829962"><ele>1111.6666666666665</ele><time>2026-03-15T15:04:52.999Z</time></trkpt><trkpt lat="45.72778523720749" lon="10.152446666627876"><ele>1114.3333333333333</ele><time>2026-03-15T15:04:53.999Z</time></trkpt><trkpt lat="45.72776413795941" lon="10.152539168572293"><ele>1117.0</ele><time>2026-03-15T15:04:55.999Z</time></trkpt><trkpt lat="45.72774769664535" lon="10.152689518930178"><ele>1115.1666666666665</ele><time>2026-03-15T15:04:57.999Z</time></trkpt><trkpt lat="45.727669040437" lon="10.15282509090592"><ele>1113.3333333333333</ele><time>2026-03-15T15:04:59.999Z</time></trkpt><trkpt lat="45.72762841352963" lon="10.15290615170009"><ele>1111.5</ele><time>2026-03-15T15:05:00.999Z</time></trkpt><trkpt lat="45.72757434836097" lon="10.15297529015452"><ele>1109.6666666666667</ele><time>2026-03-15T15:05:01.999Z</time></trkpt><trkpt lat="45.72752145280042" lon="10.153063798572754"><ele>1107.8333333333335</ele><time>2026-03-15T15:05:02.999Z</time></trkpt><trkpt lat="45.727483173592326" lon="10.153152845434509"><ele>1106.0</ele><time>2026-03-15T15:05:03.999Z</time></trkpt><trkpt lat="45.72743133903282" lon="10.153276708647786"><ele>1106.0</ele><time>2026-03-15T15:05:04.999Z</time></trkpt><trkpt lat="45.72738458966034" lon="10.153379775793566"><ele>1106.0</ele><time>2026-03-15T15:05:05.999Z</time></trkpt><trkpt lat="45.72737484104179" lon="10.153475279821581"><ele>1106.0</ele><time>2026-03-15T15:05:09.998Z</time></trkpt><trkpt lat="45.72748032418063" lon="10.153429582709773"><ele>1106.0</ele><time>2026-03-15T15:05:12.998Z</time></trkpt><trkpt lat="45.72752470281266" lon="10.153333837243565"><ele>1106.0</ele><time>2026-03-15T15:05:13.998Z</time></trkpt><trkpt lat="45.72757044275228" lon="10.153242378847908"><ele>1106.0</ele><time>2026-03-15T15:05:15.998Z</time></trkpt><trkpt lat="45.727659451763834" lon="10.15317629717028"><ele>1110.3333333333335</ele><time>2026-03-15T15:05:17.998Z</time></trkpt><trkpt lat="45.72773450961424" lon="10.153121564497141"><ele>1114.6666666666667</ele><time>2026-03-15T15:05:18.998Z</time></trkpt><trkpt lat="45.72780957126577" lon="10.153071385536805"><ele>1119.0</ele><time>2026-03-15T15:05:19.998Z</time></trkpt><trkpt lat="45.72787418235831" lon="10.153034594309652"><ele>1123.3333333333333</ele><time>2026-03-15T15:05:20.998Z</time></trkpt><trkpt lat="45.7279268437337" lon="10.152959069035306"><ele>1127.6666666666665</ele><time>2026-03-15T15:05:22.998Z</time></trkpt><trkpt lat="45.72799842801747" lon="10.153013508364145"><ele>1132.0</ele><time>2026-03-15T15:05:24.998Z</time></trkpt><trkpt lat="45.728055038393215" lon="10.153078353152118"><ele>1132.0</ele><time>2026-03-15T15:05:25.998Z</time></trkpt><trkpt lat="45.7281134547454" lon="10.15311845762213"><ele>1132.0</ele><time>2026-03-15T15:05:26.998Z</time></trkpt><trkpt lat="45.72820672827863" lon="10.153196508900127"><ele>1132.0</ele><time>2026-03-15T15:05:28.998Z</time></trkpt><trkpt lat="45.728255875958745" lon="10.153286897802051"><ele>1132.0</ele><time>2026-03-15T15:05:29.998Z</time></trkpt><trkpt lat="45.72829788525927" lon="10.153391429033505"><ele>1132.0</ele><time>2026-03-15T15:05:30.998Z</time></trkpt><trkpt lat="45.728359517634885" lon="10.153499693220562"><ele>1132.0</ele><time>2026-03-15T15:05:31.998Z</time></trkpt><trkpt lat="45.72841276355325" lon="10.153611146921397"><ele>1132.8333333333333</ele><time>2026-03-15T15:05:32.998Z</time></trkpt><trkpt lat="45.728439930408825" lon="10.153705660987608"><ele>1133.6666666666665</ele><time>2026-03-15T15:05:33.998Z</time></trkpt><trkpt lat="45.72844804285754" lon="10.153804672542428"><ele>1134.5</ele><time>2026-03-15T15:05:34.998Z</time></trkpt><trkpt lat="45.72844914059852" lon="10.153919921906903"><ele>1135.3333333333333</ele><time>2026-03-15T15:05:35.998Z</time></trkpt><trkpt lat="45.72849656751343" lon="10.15404484692695"><ele>1136.1666666666667</ele><time>2026-03-15T15:05:37.998Z</time></trkpt><trkpt lat="45.72859809661183" lon="10.154009115525229"><ele>1137.0</ele><time>2026-03-15T15:05:40.998Z</time></trkpt><trkpt lat="45.72872067844854" lon="10.153899818581882"><ele>1140.8</ele><time>2026-03-15T15:05:42.998Z</time></trkpt><trkpt lat="45.728818210096776" lon="10.153823538490263"><ele>1144.6</ele><time>2026-03-15T15:05:43.998Z</time></trkpt><trkpt lat="45.72889071264868" lon="10.153763602376829"><ele>1148.3999999999999</ele><time>2026-03-15T15:05:44.998Z</time></trkpt><trkpt lat="45.72895905791983" lon="10.153668477599915"><ele>1152.2</ele><time>2026-03-15T15:05:46.998Z</time></trkpt><trkpt lat="45.72900430943415" lon="10.153562321433062"><ele>1156.0</ele><time>2026-03-15T15:05:48.998Z</time></trkpt><trkpt lat="45.72897860807819" lon="10.153401361588942"><ele>1156.0</ele><time>2026-03-15T15:05:51Z</time></trkpt><trkpt lat="45.728963391879304" lon="10.153290888618479"><ele>1156.0</ele><time>2026-03-15T15:05:52Z</time></trkpt><trkpt lat="45.728965269007915" lon="10.153193984908075"><ele>1156.0</ele><time>2026-03-15T15:05:53Z</time></trkpt><trkpt lat="45.72898148458009" lon="10.153068905389736"><ele>1156.0</ele><time>2026-03-15T15:05:54Z</time></trkpt><trkpt lat="45.728982310198795" lon="10.152921998554481"><ele>1156.0</ele><time>2026-03-15T15:05:55Z</time></trkpt><trkpt lat="45.72899257875157" lon="10.152816814110272"><ele>1156.0</ele><time>2026-03-15T15:05:55.999Z</time></trkpt><trkpt lat="45.7290525224045" lon="10.15272079779124"><ele>1155.8</ele><time>2026-03-15T15:05:57.999Z</time></trkpt><trkpt lat="45.72913723928777" lon="10.152667932837836"><ele>1155.6</ele><time>2026-03-15T15:05:59.999Z</time></trkpt><trkpt lat="45.72922738069259" lon="10.152694496739052"><ele>1155.4</ele><time>2026-03-15T15:06:01.999Z</time></trkpt><trkpt lat="45.72929455869975" lon="10.152723522520517"><ele>1155.2</ele><time>2026-03-15T15:06:02.999Z</time></trkpt><trkpt lat="45.72938827477081" lon="10.152758061732184"><ele>1155.0</ele><time>2026-03-15T15:06:03.999Z</time></trkpt><trkpt lat="45.729507949513405" lon="10.15279971268561"><ele>1157.2</ele><time>2026-03-15T15:06:04.999Z</time></trkpt><trkpt lat="45.72961793236999" lon="10.152837604299945"><ele>1159.4</ele><time>2026-03-15T15:06:05.999Z</time></trkpt><trkpt lat="45.72970690204979" lon="10.152870615527123"><ele>1161.6</ele><time>2026-03-15T15:06:06.999Z</time></trkpt><trkpt lat="45.72977488223039" lon="10.152874870744396"><ele>1163.8</ele><time>2026-03-15T15:06:07.999Z</time></trkpt><trkpt lat="45.72988228945842" lon="10.152795558714272"><ele>1166.0</ele><time>2026-03-15T15:06:09.999Z</time></trkpt><trkpt lat="45.729982382748496" lon="10.152740824500247"><ele>1166.0</ele><time>2026-03-15T15:06:10.999Z</time></trkpt><trkpt lat="45.730094276817915" lon="10.152691486063894"><ele>1166.0</ele><time>2026-03-15T15:06:11.999Z</time></trkpt><trkpt lat="45.7301857540713" lon="10.152641492086689"><ele>1166.0</ele><time>2026-03-15T15:06:12.999Z</time></trkpt><trkpt lat="45.730258784769" lon="10.152601198195999"><ele>1166.0</ele><time>2026-03-15T15:06:13.999Z</time></trkpt><trkpt lat="45.730331175945494" lon="10.152566674025802"><ele>1166.0</ele><time>2026-03-15T15:06:14.999Z</time></trkpt><trkpt lat="45.73041255268081" lon="10.152541710644302"><ele>1167.1428571428573</ele><time>2026-03-15T15:06:15.999Z</time></trkpt><trkpt lat="45.73048146113149" lon="10.152533361878463"><ele>1168.2857142857142</ele><time>2026-03-15T15:06:16.999Z</time></trkpt><trkpt lat="45.73055475967252" lon="10.15254133919782"><ele>1169.4285714285716</ele><time>2026-03-15T15:06:17.999Z</time></trkpt><trkpt lat="45.73063232497454" lon="10.152562032741406"><ele>1170.5714285714287</ele><time>2026-03-15T15:06:18.999Z</time></trkpt><trkpt lat="45.73071568836345" lon="10.152571395510323"><ele>1171.7142857142858</ele><time>2026-03-15T15:06:19.999Z</time></trkpt><trkpt lat="45.73078636076642" lon="10.152565122097409"><ele>1172.857142857143</ele><time>2026-03-15T15:06:20.999Z</time></trkpt><trkpt lat="45.73085671614345" lon="10.152543310972463"><ele>1174.0</ele><time>2026-03-15T15:06:21.999Z</time></trkpt><trkpt lat="45.73091668091066" lon="10.152505585882798"><ele>1174.0</ele><time>2026-03-15T15:06:22.999Z</time></trkpt><trkpt lat="45.73097938165459" lon="10.152453434858522"><ele>1174.0</ele><time>2026-03-15T15:06:23.999Z</time></trkpt><trkpt lat="45.73104095890635" lon="10.152405263167182"><ele>1174.0</ele><time>2026-03-15T15:06:24.999Z</time></trkpt><trkpt lat="45.73113628689913" lon="10.152323448333473"><ele>1174.0</ele><time>2026-03-15T15:06:26.999Z</time></trkpt><trkpt lat="45.7312020369724" lon="10.152304944475324"><ele>1174.0</ele><time>2026-03-15T15:06:27.999Z</time></trkpt><trkpt lat="45.731283485801846" lon="10.152308798799623"><ele>1174.0</ele><time>2026-03-15T15:06:28.999Z</time></trkpt><trkpt lat="45.731350319417665" lon="10.15233217142333"><ele>1175.0</ele><time>2026-03-15T15:06:29.999Z</time></trkpt><trkpt lat="45.73143227046092" lon="10.152365109096609"><ele>1176.0</ele><time>2026-03-15T15:06:31.999Z</time></trkpt><trkpt lat="45.7315619177882" lon="10.152400489979144"><ele>1177.0</ele><time>2026-03-15T15:06:33.999Z</time></trkpt><trkpt lat="45.73162708266579" lon="10.15241158517052"><ele>1178.0</ele><time>2026-03-15T15:06:34.999Z</time></trkpt><trkpt lat="45.73174667552867" lon="10.152431857122703"><ele>1179.0</ele><time>2026-03-15T15:06:36.999Z</time></trkpt><trkpt lat="45.731845300152536" lon="10.15249167589739"><ele>1180.3333333333333</ele><time>2026-03-15T15:06:38.999Z</time></trkpt><trkpt lat="45.73191648180406" lon="10.1525191293116"><ele>1181.6666666666667</ele><time>2026-03-15T15:06:46.998Z</time></trkpt><trkpt lat="45.732020898568656" lon="10.152564100810272"><ele>1183.0</ele><time>2026-03-15T15:06:48.998Z</time></trkpt><trkpt lat="45.73210939189272" lon="10.152590838666699"><ele>1184.3333333333335</ele><time>2026-03-15T15:06:50.998Z</time></trkpt><trkpt lat="45.73217473251715" lon="10.15260221506938"><ele>1185.6666666666667</ele><time>2026-03-15T15:06:51.998Z</time></trkpt><trkpt lat="45.73227040110483" lon="10.152622546765318"><ele>1187.0</ele><time>2026-03-15T15:06:52.998Z</time></trkpt><trkpt lat="45.73234959427347" lon="10.152648488826339"><ele>1187.0</ele><time>2026-03-15T15:06:53.998Z</time></trkpt><trkpt lat="45.732417713100375" lon="10.152677401677108"><ele>1187.0</ele><time>2026-03-15T15:06:54.998Z</time></trkpt><trkpt lat="45.73251941001288" lon="10.152751166949702"><ele>1187.0</ele><time>2026-03-15T15:06:56.998Z</time></trkpt><trkpt lat="45.73260721657606" lon="10.152821131447718"><ele>1187.0</ele><time>2026-03-15T15:06:58.998Z</time></trkpt><trkpt lat="45.732707363365115" lon="10.152810136703408"><ele>1187.0</ele><time>2026-03-15T15:07:01.998Z</time></trkpt><trkpt lat="45.7327855279458" lon="10.152753000126966"><ele>1185.6</ele><time>2026-03-15T15:07:03.998Z</time></trkpt><trkpt lat="45.73287039167091" lon="10.152705991836736"><ele>1184.2</ele><time>2026-03-15T15:07:05.998Z</time></trkpt><trkpt lat="45.732959208973" lon="10.152660597285411"><ele>1182.8</ele><time>2026-03-15T15:07:07.998Z</time></trkpt><trkpt lat="45.733057662971255" lon="10.152624873784882"><ele>1181.4</ele><time>2026-03-15T15:07:09.998Z</time></trkpt><trkpt lat="45.73314335377033" lon="10.152603111700282"><ele>1180.0</ele><time>2026-03-15T15:07:11.998Z</time></trkpt><trkpt lat="45.733237682602926" lon="10.15261870229469"><ele>1180.0</ele><time>2026-03-15T15:07:13.998Z</time></trkpt><trkpt lat="45.733357356780424" lon="10.152659725237722"><ele>1180.0</ele><time>2026-03-15T15:07:15.998Z</time></trkpt><trkpt lat="45.73348163836797" lon="10.152732090708755"><ele>1180.0</ele><time>2026-03-15T15:07:17.998Z</time></trkpt><trkpt lat="45.73355614185709" lon="10.152735662042236"><ele>1180.0</ele><time>2026-03-15T15:07:19.998Z</time></trkpt><trkpt lat="45.73364490127496" lon="10.152700458539293"><ele>1180.0</ele><time>2026-03-15T15:07:21.998Z</time></trkpt><trkpt lat="45.733713046823404" lon="10.15259476147249"><ele>1174.4</ele><time>2026-03-15T15:07:23.998Z</time></trkpt><trkpt lat="45.73374019502193" lon="10.15240202010506"><ele>1168.8</ele><time>2026-03-15T15:07:25.998Z</time></trkpt><trkpt lat="45.733747222440996" lon="10.152303306677284"><ele>1163.2</ele><time>2026-03-15T15:07:26.998Z</time></trkpt><trkpt lat="45.73371749886861" lon="10.152152056301855"><ele>1157.6</ele><time>2026-03-15T15:07:28.997Z</time></trkpt><trkpt lat="45.73368938281164" lon="10.152029791561135"><ele>1152.0</ele><time>2026-03-15T15:07:30.997Z</time></trkpt><trkpt lat="45.73363457566071" lon="10.151915237507245"><ele>1151.0</ele><time>2026-03-15T15:07:33.997Z</time></trkpt><trkpt lat="45.733584536351174" lon="10.15181343651517"><ele>1150.0</ele><time>2026-03-15T15:07:36.997Z</time></trkpt><trkpt lat="45.733613111557354" lon="10.151685905648241"><ele>1149.0</ele><time>2026-03-15T15:07:39.997Z</time></trkpt><trkpt lat="45.73369102604193" lon="10.151661899523683"><ele>1148.0</ele><time>2026-03-15T15:07:41.997Z</time></trkpt><trkpt lat="45.73376134250001" lon="10.151685408831497"><ele>1147.0</ele><time>2026-03-15T15:07:43.997Z</time></trkpt><trkpt lat="45.73384186181715" lon="10.151727266033122"><ele>1146.0</ele><time>2026-03-15T15:07:45.997Z</time></trkpt><trkpt lat="45.73393119571749" lon="10.151776393817402"><ele>1146.0</ele><time>2026-03-15T15:07:47.997Z</time></trkpt><trkpt lat="45.73403484299865" lon="10.151827033007054"><ele>1146.0</ele><time>2026-03-15T15:07:49.997Z</time></trkpt><trkpt lat="45.73414682399611" lon="10.151877637115097"><ele>1146.0</ele><time>2026-03-15T15:07:51.997Z</time></trkpt><trkpt lat="45.73422047298723" lon="10.151901754676992"><ele>1146.0</ele><time>2026-03-15T15:07:52.997Z</time></trkpt><trkpt lat="45.73429215120035" lon="10.151917606764334"><ele>1146.0</ele><time>2026-03-15T15:07:53.997Z</time></trkpt><trkpt lat="45.73436285804153" lon="10.151931409435317"><ele>1146.0</ele><time>2026-03-15T15:07:54.997Z</time></trkpt><trkpt lat="45.73447429312526" lon="10.151953888279392"><ele>1143.0</ele><time>2026-03-15T15:07:57Z</time></trkpt><trkpt lat="45.73456706057243" lon="10.152013994072162"><ele>1140.0</ele><time>2026-03-15T15:07:59Z</time></trkpt><trkpt lat="45.73463139253878" lon="10.1521619610326"><ele>1137.0</ele><time>2026-03-15T15:08:01Z</time></trkpt><trkpt lat="45.73468986388812" lon="10.15226058665896"><ele>1134.0</ele><time>2026-03-15T15:08:02Z</time></trkpt><trkpt lat="45.73476575427885" lon="10.15236384782485"><ele>1131.0</ele><time>2026-03-15T15:08:03Z</time></trkpt><trkpt lat="45.734858429420605" lon="10.1524476491156"><ele>1131.0</ele><time>2026-03-15T15:08:04Z</time></trkpt><trkpt lat="45.73494160695004" lon="10.152511111200065"><ele>1131.0</ele><time>2026-03-15T15:08:05Z</time></trkpt><trkpt lat="45.735033532382104" lon="10.152579918624257"><ele>1131.0</ele><time>2026-03-15T15:08:06Z</time></trkpt><trkpt lat="45.7351275992219" lon="10.152641949145194"><ele>1131.0</ele><time>2026-03-15T15:08:07Z</time></trkpt><trkpt lat="45.73521322724473" lon="10.152676643808862"><ele>1131.0</ele><time>2026-03-15T15:08:08Z</time></trkpt><trkpt lat="45.73530446330218" lon="10.152724375135579"><ele>1130.6</ele><time>2026-03-15T15:08:09Z</time></trkpt><trkpt lat="45.73540879748401" lon="10.152797592830135"><ele>1130.1999999999998</ele><time>2026-03-15T15:08:10Z</time></trkpt><trkpt lat="45.735534534551284" lon="10.152853028582859"><ele>1129.8000000000002</ele><time>2026-03-15T15:08:11Z</time></trkpt><trkpt lat="45.735630564268064" lon="10.152857011457192"><ele>1129.4</ele><time>2026-03-15T15:08:12Z</time></trkpt><trkpt lat="45.73570529477679" lon="10.152849871613547"><ele>1129.0</ele><time>2026-03-15T15:08:13Z</time></trkpt><trkpt lat="45.73578017765957" lon="10.15284866340751"><ele>1129.0</ele><time>2026-03-15T15:08:14Z</time></trkpt><trkpt lat="45.735867941842706" lon="10.15285612208505"><ele>1129.0</ele><time>2026-03-15T15:08:15Z</time></trkpt><trkpt lat="45.73592037867945" lon="10.15291087966191"><ele>1129.0</ele><time>2026-03-15T15:08:16Z</time></trkpt><trkpt lat="45.73606492288041" lon="10.152897237674923"><ele>1129.0</ele><time>2026-03-15T15:08:18Z</time></trkpt><trkpt lat="45.73615908547983" lon="10.1528809382336"><ele>1129.0</ele><time>2026-03-15T15:08:19Z</time></trkpt><trkpt lat="45.7362649777453" lon="10.15284964821207"><ele>1128.1666666666665</ele><time>2026-03-15T15:08:20Z</time></trkpt><trkpt lat="45.73634899572467" lon="10.152827768781282"><ele>1127.3333333333333</ele><time>2026-03-15T15:08:21Z</time></trkpt><trkpt lat="45.73643327347319" lon="10.152816795384176"><ele>1126.5</ele><time>2026-03-15T15:08:22Z</time></trkpt><trkpt lat="45.73650417935804" lon="10.152810824573173"><ele>1125.6666666666667</ele><time>2026-03-15T15:08:22.999Z</time></trkpt><trkpt lat="45.736632491152285" lon="10.152851650310279"><ele>1124.8333333333335</ele><time>2026-03-15T15:08:24.999Z</time></trkpt><trkpt lat="45.73670124829916" lon="10.152874624706243"><ele>1124.0</ele><time>2026-03-15T15:08:25.999Z</time></trkpt><trkpt lat="45.73677061722798" lon="10.152886633199921"><ele>1124.0</ele><time>2026-03-15T15:08:26.999Z</time></trkpt><trkpt lat="45.7368549744628" lon="10.152917041005727"><ele>1124.0</ele><time>2026-03-15T15:08:27.999Z</time></trkpt><trkpt lat="45.736942486339856" lon="10.152958608413448"><ele>1124.0</ele><time>2026-03-15T15:08:28.999Z</time></trkpt><trkpt lat="45.737054229756865" lon="10.153024419134812"><ele>1124.0</ele><time>2026-03-15T15:08:29.999Z</time></trkpt><trkpt lat="45.73714273183247" lon="10.153099766139768"><ele>1124.0</ele><time>2026-03-15T15:08:30.999Z</time></trkpt><trkpt lat="45.7372159526117" lon="10.153151471226986"><ele>1128.8333333333335</ele><time>2026-03-15T15:08:31.999Z</time></trkpt><trkpt lat="45.73729438727546" lon="10.153212622881613"><ele>1133.6666666666667</ele><time>2026-03-15T15:08:32.999Z</time></trkpt><trkpt lat="45.73736958556799" lon="10.153238195592488"><ele>1138.5</ele><time>2026-03-15T15:08:33.999Z</time></trkpt><trkpt lat="45.737454003673285" lon="10.153259188832946"><ele>1143.3333333333333</ele><time>2026-03-15T15:08:34.999Z</time></trkpt><trkpt lat="45.73753441450321" lon="10.153277214497932"><ele>1148.1666666666665</ele><time>2026-03-15T15:08:35.999Z</time></trkpt><trkpt lat="45.73761327394992" lon="10.153258485721175"><ele>1153.0</ele><time>2026-03-15T15:08:36.999Z</time></trkpt><trkpt lat="45.737713042457955" lon="10.153235390513258"><ele>1150.2</ele><time>2026-03-15T15:08:37.999Z</time></trkpt><trkpt lat="45.737804305269684" lon="10.153244223005832"><ele>1147.4</ele><time>2026-03-15T15:08:38.999Z</time></trkpt><trkpt lat="45.737867433672605" lon="10.153273246142797"><ele>1144.6000000000001</ele><time>2026-03-15T15:08:40.999Z</time></trkpt><trkpt lat="45.73793806761335" lon="10.153307726983613"><ele>1141.8</ele><time>2026-03-15T15:08:55.999Z</time></trkpt><trkpt lat="45.73804589348165" lon="10.153385017301883"><ele>1139.0</ele><time>2026-03-15T15:08:57.999Z</time></trkpt><trkpt lat="45.73813319960659" lon="10.153500972328604"><ele>1139.0</ele><time>2026-03-15T15:08:59.999Z</time></trkpt><trkpt lat="45.73821441543225" lon="10.15355464824751"><ele>1139.0</ele><time>2026-03-15T15:09:01.999Z</time></trkpt><trkpt lat="45.73827687508529" lon="10.153681967418372"><ele>1139.0</ele><time>2026-03-15T15:09:03.999Z</time></trkpt><trkpt lat="45.73833505564445" lon="10.15373673683828"><ele>1139.0</ele><time>2026-03-15T15:09:05.999Z</time></trkpt><trkpt lat="45.738425566455646" lon="10.15383095989191"><ele>1139.0</ele><time>2026-03-15T15:09:08.998Z</time></trkpt><trkpt lat="45.738560726812366" lon="10.154056127710243"><ele>1144.2</ele><time>2026-03-15T15:09:10.998Z</time></trkpt><trkpt lat="45.73862963711821" lon="10.154155650458602"><ele>1149.4</ele><time>2026-03-15T15:09:11.998Z</time></trkpt><trkpt lat="45.73869301008762" lon="10.154282031555013"><ele>1154.6</ele><time>2026-03-15T15:09:12.998Z</time></trkpt><trkpt lat="45.7387452220865" lon="10.154411357062497"><ele>1159.8</ele><time>2026-03-15T15:09:13.998Z</time></trkpt><trkpt lat="45.73877341915168" lon="10.154518185102194"><ele>1165.0</ele><time>2026-03-15T15:09:14.998Z</time></trkpt><trkpt lat="45.73879350314725" lon="10.15460384082113"><ele>1165.0</ele><time>2026-03-15T15:09:15.998Z</time></trkpt><trkpt lat="45.738839583421424" lon="10.154685635051763"><ele>1165.0</ele><time>2026-03-15T15:09:16.998Z</time></trkpt><trkpt lat="45.738880620250846" lon="10.154769076900878"><ele>1165.0</ele><time>2026-03-15T15:09:17.998Z</time></trkpt><trkpt lat="45.738922977643625" lon="10.154863074277744"><ele>1165.0</ele><time>2026-03-15T15:09:19.998Z</time></trkpt><trkpt lat="45.738946282651135" lon="10.154999980383776"><ele>1165.0</ele><time>2026-03-15T15:09:22.998Z</time></trkpt><trkpt lat="45.739000939377384" lon="10.15512769063432"><ele>1165.0</ele><time>2026-03-15T15:09:24.998Z</time></trkpt><trkpt lat="45.739097733587975" lon="10.155198334142396"><ele>1166.3333333333333</ele><time>2026-03-15T15:09:26.998Z</time></trkpt><trkpt lat="45.7391650388119" lon="10.15523932638476"><ele>1167.6666666666665</ele><time>2026-03-15T15:09:27.998Z</time></trkpt><trkpt lat="45.73925184602194" lon="10.15528753925988"><ele>1169.0</ele><time>2026-03-15T15:09:28.998Z</time></trkpt><trkpt lat="45.739332640938265" lon="10.155324873874347"><ele>1170.3333333333333</ele><time>2026-03-15T15:09:29.998Z</time></trkpt><trkpt lat="45.739389530751865" lon="10.155372335029776"><ele>1171.6666666666667</ele><time>2026-03-15T15:09:30.998Z</time></trkpt><trkpt lat="45.73944416925067" lon="10.155440468612154"><ele>1173.0</ele><time>2026-03-15T15:09:31.998Z</time></trkpt><trkpt lat="45.739520855027735" lon="10.155530368533416"><ele>1176.6</ele><time>2026-03-15T15:09:32.998Z</time></trkpt><trkpt lat="45.739607817277964" lon="10.15561772842217"><ele>1180.1999999999998</ele><time>2026-03-15T15:09:33.998Z</time></trkpt><trkpt lat="45.73968615446372" lon="10.155695875432926"><ele>1183.8</ele><time>2026-03-15T15:09:34.998Z</time></trkpt><trkpt lat="45.739772212802144" lon="10.155792357844327"><ele>1187.3999999999999</ele><time>2026-03-15T15:09:35.998Z</time></trkpt><trkpt lat="45.73986429572573" lon="10.155911912544484"><ele>1191.0</ele><time>2026-03-15T15:09:36.998Z</time></trkpt><trkpt lat="45.73993812033503" lon="10.156042073300839"><ele>1191.0</ele><time>2026-03-15T15:09:37.998Z</time></trkpt><trkpt lat="45.740003908263176" lon="10.156196243570479"><ele>1191.0</ele><time>2026-03-15T15:09:38.998Z</time></trkpt><trkpt lat="45.74006956722789" lon="10.156357644681425"><ele>1191.0</ele><time>2026-03-15T15:09:39.998Z</time></trkpt><trkpt lat="45.740138319363794" lon="10.156500873544212"><ele>1191.0</ele><time>2026-03-15T15:09:40.998Z</time></trkpt><trkpt lat="45.74020986399094" lon="10.156621834565632"><ele>1198.6</ele><time>2026-03-15T15:09:41.998Z</time></trkpt><trkpt lat="45.74027842360939" lon="10.156762410733283"><ele>1206.1999999999998</ele><time>2026-03-15T15:09:42.998Z</time></trkpt><trkpt lat="45.740326024682375" lon="10.156900422790963"><ele>1213.8000000000002</ele><time>2026-03-15T15:09:43.998Z</time></trkpt><trkpt lat="45.74035648499864" lon="10.15702519520757"><ele>1221.4</ele><time>2026-03-15T15:09:44.998Z</time></trkpt><trkpt lat="45.740399385327954" lon="10.157153608950066"><ele>1229.0</ele><time>2026-03-15T15:09:45.998Z</time></trkpt><trkpt lat="45.740474772573556" lon="10.157260276352472"><ele>1226.25</ele><time>2026-03-15T15:09:46.998Z</time></trkpt><trkpt lat="45.74055798992039" lon="10.157373915081493"><ele>1223.5</ele><time>2026-03-15T15:09:47.998Z</time></trkpt><trkpt lat="45.74065688609789" lon="10.157494495602728"><ele>1220.75</ele><time>2026-03-15T15:09:48.998Z</time></trkpt><trkpt lat="45.740738875544956" lon="10.157585447094208"><ele>1218.0</ele><time>2026-03-15T15:09:49.998Z</time></trkpt><trkpt lat="45.740834561330935" lon="10.157667637429729"><ele>1218.0</ele><time>2026-03-15T15:09:50.998Z</time></trkpt><trkpt lat="45.74092453881121" lon="10.157723350185648"><ele>1218.0</ele><time>2026-03-15T15:09:51.998Z</time></trkpt><trkpt lat="45.741016677557724" lon="10.157782195038527"><ele>1218.0</ele><time>2026-03-15T15:09:52.998Z</time></trkpt><trkpt lat="45.741112292757215" lon="10.157824671052465"><ele>1218.0</ele><time>2026-03-15T15:09:53.997Z</time></trkpt><trkpt lat="45.74119118386598" lon="10.157858021117113"><ele>1218.0</ele><time>2026-03-15T15:09:54.997Z</time></trkpt><trkpt lat="45.74125187210599" lon="10.157910862108983"><ele>1222.6666666666667</ele><time>2026-03-15T15:09:55.997Z</time></trkpt><trkpt lat="45.74130850240114" lon="10.157997337022097"><ele>1227.3333333333333</ele><time>2026-03-15T15:09:56.997Z</time></trkpt><trkpt lat="45.74133097921183" lon="10.158096414583852"><ele>1232.0</ele><time>2026-03-15T15:09:57.997Z</time></trkpt><trkpt lat="45.741362016135916" lon="10.158194824450586"><ele>1236.6666666666665</ele><time>2026-03-15T15:09:58.997Z</time></trkpt><trkpt lat="45.741381947106596" lon="10.15830181324021"><ele>1241.3333333333333</ele><time>2026-03-15T15:09:59.997Z</time></trkpt><trkpt lat="45.74139484402045" lon="10.1584537528006"><ele>1246.0</ele><time>2026-03-15T15:10:01.997Z</time></trkpt><trkpt lat="45.7414603955097" lon="10.158465756800616"><ele>1246.0</ele><time>2026-03-15T15:10:04Z</time></trkpt><trkpt lat="45.74150505504676" lon="10.158333230875343"><ele>1246.0</ele><time>2026-03-15T15:10:06Z</time></trkpt><trkpt lat="45.74145670538492" lon="10.15814240521153"><ele>1246.0</ele><time>2026-03-15T15:10:08Z</time></trkpt><trkpt lat="45.741431971566186" lon="10.157994977685847"><ele>1246.0</ele><time>2026-03-15T15:10:09Z</time></trkpt><trkpt lat="45.74139255683014" lon="10.157829234464518"><ele>1248.8</ele><time>2026-03-15T15:10:10Z</time></trkpt><trkpt lat="45.741344124862486" lon="10.157671244858774"><ele>1251.6</ele><time>2026-03-15T15:10:11Z</time></trkpt><trkpt lat="45.74129389069953" lon="10.157569663548054"><ele>1254.4</ele><time>2026-03-15T15:10:12Z</time></trkpt><trkpt lat="45.74123248671461" lon="10.15753235873644"><ele>1257.2</ele><time>2026-03-15T15:10:13Z</time></trkpt><trkpt lat="45.741153640440196" lon="10.157466878686801"><ele>1260.0</ele><time>2026-03-15T15:10:14Z</time></trkpt><trkpt lat="45.74107970071055" lon="10.157358249148022"><ele>1253.8</ele><time>2026-03-15T15:10:15Z</time></trkpt><trkpt lat="45.74101772151704" lon="10.157225885451764"><ele>1247.6</ele><time>2026-03-15T15:10:16Z</time></trkpt><trkpt lat="45.74098883235273" lon="10.157072703381909"><ele>1241.4</ele><time>2026-03-15T15:10:17Z</time></trkpt><trkpt lat="45.74096893549401" lon="10.156986560880188"><ele>1235.2</ele><time>2026-03-15T15:10:18Z</time></trkpt><trkpt lat="45.74095745564965" lon="10.156843824944906"><ele>1229.0</ele><time>2026-03-15T15:10:19Z</time></trkpt><trkpt lat="45.74094206847221" lon="10.156700978770752"><ele>1229.0</ele><time>2026-03-15T15:10:20Z</time></trkpt><trkpt lat="45.740944575166985" lon="10.156562210671868"><ele>1229.0</ele><time>2026-03-15T15:10:21Z</time></trkpt><trkpt lat="45.740957077898514" lon="10.156407066921199"><ele>1229.0</ele><time>2026-03-15T15:10:22Z</time></trkpt><trkpt lat="45.74099086630201" lon="10.156219081967636"><ele>1229.0</ele><time>2026-03-15T15:10:23Z</time></trkpt><trkpt lat="45.74102277895704" lon="10.156023120857364"><ele>1230.2</ele><time>2026-03-15T15:10:24Z</time></trkpt><trkpt lat="45.74103934410593" lon="10.155847816610274"><ele>1231.4</ele><time>2026-03-15T15:10:25Z</time></trkpt><trkpt lat="45.74102626874429" lon="10.155718612069036"><ele>1232.6</ele><time>2026-03-15T15:10:26Z</time></trkpt><trkpt lat="45.74097524938452" lon="10.155597118532908"><ele>1233.8</ele><time>2026-03-15T15:10:27Z</time></trkpt><trkpt lat="45.74091399690867" lon="10.155456843027288"><ele>1235.0</ele><time>2026-03-15T15:10:28Z</time></trkpt><trkpt lat="45.74085860675468" lon="10.155295970819692"><ele>1238.8</ele><time>2026-03-15T15:10:29Z</time></trkpt><trkpt lat="45.74082023393685" lon="10.155156695698171"><ele>1242.6</ele><time>2026-03-15T15:10:30Z</time></trkpt><trkpt lat="45.74078067734724" lon="10.154999742192688"><ele>1246.4</ele><time>2026-03-15T15:10:31Z</time></trkpt><trkpt lat="45.7407486668873" lon="10.154859871657676"><ele>1250.2</ele><time>2026-03-15T15:10:32Z</time></trkpt><trkpt lat="45.74072034312022" lon="10.154727948019818"><ele>1254.0</ele><time>2026-03-15T15:10:33Z</time></trkpt><trkpt lat="45.74069386960265" lon="10.154599769788586"><ele>1256.6000000000001</ele><time>2026-03-15T15:10:34Z</time></trkpt><trkpt lat="45.740702894302785" lon="10.154447026192232"><ele>1259.2</ele><time>2026-03-15T15:10:35Z</time></trkpt><trkpt lat="45.740728636990305" lon="10.154312052347358"><ele>1261.8000000000002</ele><time>2026-03-15T15:10:36Z</time></trkpt><trkpt lat="45.74072644145833" lon="10.154167676432351"><ele>1264.4</ele><time>2026-03-15T15:10:38Z</time></trkpt><trkpt lat="45.740729084943354" lon="10.154075539098073"><ele>1267.0</ele><time>2026-03-15T15:10:40Z</time></trkpt><trkpt lat="45.740790596118686" lon="10.154261969727369"><ele>1267.0</ele><time>2026-03-15T15:10:44Z</time></trkpt><trkpt lat="45.740817939237054" lon="10.154449881422103"><ele>1267.0</ele><time>2026-03-15T15:10:45.999Z</time></trkpt><trkpt lat="45.7408489769961" lon="10.15455712870111"><ele>1267.0</ele><time>2026-03-15T15:10:46.999Z</time></trkpt><trkpt lat="45.74088527143272" lon="10.154642228246745"><ele>1267.0</ele><time>2026-03-15T15:10:47.999Z</time></trkpt><trkpt lat="45.74094550356495" lon="10.154776501439366"><ele>1267.0</ele><time>2026-03-15T15:10:48.999Z</time></trkpt><trkpt lat="45.74102029828577" lon="10.154909040168933"><ele>1279.0</ele><time>2026-03-15T15:10:49.999Z</time></trkpt><trkpt lat="45.74111145318166" lon="10.155021232955116"><ele>1291.0</ele><time>2026-03-15T15:10:50.999Z</time></trkpt><trkpt lat="45.74120092372588" lon="10.155131815810533"><ele>1303.0</ele><time>2026-03-15T15:10:51.999Z</time></trkpt><trkpt lat="45.7412991863702" lon="10.15525342747507"><ele>1315.0</ele><time>2026-03-15T15:10:52.999Z</time></trkpt><trkpt lat="45.74139677604487" lon="10.155397509219787"><ele>1315.0</ele><time>2026-03-15T15:10:53.999Z</time></trkpt><trkpt lat="45.741461737961856" lon="10.155545310277928"><ele>1315.0</ele><time>2026-03-15T15:10:54.999Z</time></trkpt><trkpt lat="45.741493089584225" lon="10.15568101459282"><ele>1315.0</ele><time>2026-03-15T15:10:55.999Z</time></trkpt><trkpt lat="45.741529483745076" lon="10.155817857362267"><ele>1315.0</ele><time>2026-03-15T15:10:56.999Z</time></trkpt><trkpt lat="45.74154470919657" lon="10.15592910475467"><ele>1315.0</ele><time>2026-03-15T15:10:57.999Z</time></trkpt><trkpt lat="45.74153012525207" lon="10.156060398364133"><ele>1313.0</ele><time>2026-03-15T15:10:58.999Z</time></trkpt><trkpt lat="45.74155858063081" lon="10.156181877730441"><ele>1311.0</ele><time>2026-03-15T15:10:59.999Z</time></trkpt><trkpt lat="45.74156434721652" lon="10.156279972810266"><ele>1309.0</ele><time>2026-03-15T15:11:00.999Z</time></trkpt><trkpt lat="45.741600070822926" lon="10.15638151245009"><ele>1307.0</ele><time>2026-03-15T15:11:01.999Z</time></trkpt><trkpt lat="45.74163459226186" lon="10.156499027985163"><ele>1305.0</ele><time>2026-03-15T15:11:02.999Z</time></trkpt><trkpt lat="45.74168842702833" lon="10.156628283617705"><ele>1303.0</ele><time>2026-03-15T15:11:03.999Z</time></trkpt><trkpt lat="45.74172659782352" lon="10.156754296917699"><ele>1298.2</ele><time>2026-03-15T15:11:04.999Z</time></trkpt><trkpt lat="45.74176531425411" lon="10.156861561807451"><ele>1293.4</ele><time>2026-03-15T15:11:05.999Z</time></trkpt><trkpt lat="45.7417999106573" lon="10.156952951214803"><ele>1288.6000000000001</ele><time>2026-03-15T15:11:06.999Z</time></trkpt><trkpt lat="45.74191542776359" lon="10.157033758495672"><ele>1283.8000000000002</ele><time>2026-03-15T15:11:08.999Z</time></trkpt><trkpt lat="45.74199968237596" lon="10.15712003109039"><ele>1279.0</ele><time>2026-03-15T15:11:09.999Z</time></trkpt><trkpt lat="45.74208859853328" lon="10.157165587063455"><ele>1285.5</ele><time>2026-03-15T15:11:10.999Z</time></trkpt><trkpt lat="45.74212078905856" lon="10.157267239794656"><ele>1292.0</ele><time>2026-03-15T15:11:11.999Z</time></trkpt><trkpt lat="45.74212537873552" lon="10.157436799429359"><ele>1298.5</ele><time>2026-03-15T15:11:13.999Z</time></trkpt><trkpt lat="45.742099824619935" lon="10.157551630850929"><ele>1305.0</ele><time>2026-03-15T15:11:14.999Z</time></trkpt><trkpt lat="45.74208958975501" lon="10.157680719967352"><ele>1311.5</ele><time>2026-03-15T15:11:15.999Z</time></trkpt><trkpt lat="45.7420811048729" lon="10.157777296971927"><ele>1318.0</ele><time>2026-03-15T15:11:16.999Z</time></trkpt><trkpt lat="45.74213590553028" lon="10.15793489998835"><ele>1318.0</ele><time>2026-03-15T15:11:18.999Z</time></trkpt><trkpt lat="45.74226162687322" lon="10.15800741670803"><ele>1318.0</ele><time>2026-03-15T15:11:20.999Z</time></trkpt><trkpt lat="45.7423501159905" lon="10.158028261305875"><ele>1318.0</ele><time>2026-03-15T15:11:21.999Z</time></trkpt><trkpt lat="45.74244343484086" lon="10.158150215760585"><ele>1318.0</ele><time>2026-03-15T15:11:23.999Z</time></trkpt><trkpt lat="45.7424687709039" lon="10.15823419614122"><ele>1318.0</ele><time>2026-03-15T15:11:24.999Z</time></trkpt><trkpt lat="45.742495263654085" lon="10.15837612236608"><ele>1315.4</ele><time>2026-03-15T15:11:25.999Z</time></trkpt><trkpt lat="45.74251872459974" lon="10.1585269731871"><ele>1312.8000000000002</ele><time>2026-03-15T15:11:26.999Z</time></trkpt><trkpt lat="45.742527115306565" lon="10.15867040410724"><ele>1310.2</ele><time>2026-03-15T15:11:27.999Z</time></trkpt><trkpt lat="45.742513790745264" lon="10.158828437668895"><ele>1307.6</ele><time>2026-03-15T15:11:28.999Z</time></trkpt><trkpt lat="45.74248806030787" lon="10.158944774220915"><ele>1305.0</ele><time>2026-03-15T15:11:29.998Z</time></trkpt><trkpt lat="45.742422376158444" lon="10.159135393780055"><ele>1304.8333333333333</ele><time>2026-03-15T15:11:31.998Z</time></trkpt><trkpt lat="45.74240780196975" lon="10.159245064643146"><ele>1304.6666666666667</ele><time>2026-03-15T15:11:32.998Z</time></trkpt><trkpt lat="45.74242842120828" lon="10.159335609891187"><ele>1304.5</ele><time>2026-03-15T15:11:33.998Z</time></trkpt><trkpt lat="45.742462003628866" lon="10.159416746021945"><ele>1304.3333333333335</ele><time>2026-03-15T15:11:34.998Z</time></trkpt><trkpt lat="45.74250009760362" lon="10.159515922326843"><ele>1304.1666666666667</ele><time>2026-03-15T15:11:35.998Z</time></trkpt><trkpt lat="45.742569049820794" lon="10.159611858715591"><ele>1304.0</ele><time>2026-03-15T15:11:36.998Z</time></trkpt><trkpt lat="45.74266221478839" lon="10.159680436062384"><ele>1311.8000000000002</ele><time>2026-03-15T15:11:37.998Z</time></trkpt><trkpt lat="45.74276065130322" lon="10.159782295637255"><ele>1319.6000000000001</ele><time>2026-03-15T15:11:38.998Z</time></trkpt><trkpt lat="45.74284965448488" lon="10.159897368208377"><ele>1327.4</ele><time>2026-03-15T15:11:39.998Z</time></trkpt><trkpt lat="45.742914359693295" lon="10.159987117920835"><ele>1335.2</ele><time>2026-03-15T15:11:40.998Z</time></trkpt><trkpt lat="45.74296727787588" lon="10.160070227483969"><ele>1343.0</ele><time>2026-03-15T15:11:41.998Z</time></trkpt><trkpt lat="45.74300211845723" lon="10.160190567709737"><ele>1343.0</ele><time>2026-03-15T15:11:43.998Z</time></trkpt><trkpt lat="45.742997024187844" lon="10.160289343724893"><ele>1343.0</ele><time>2026-03-15T15:11:44.998Z</time></trkpt><trkpt lat="45.74292900140282" lon="10.160383973998355"><ele>1343.0</ele><time>2026-03-15T15:11:45.998Z</time></trkpt><trkpt lat="45.74290348281458" lon="10.160523716368887"><ele>1343.0</ele><time>2026-03-15T15:11:46.998Z</time></trkpt><trkpt lat="45.7429023783954" lon="10.160659650416635"><ele>1343.0</ele><time>2026-03-15T15:11:47.998Z</time></trkpt><trkpt lat="45.742891776775956" lon="10.160783970059635"><ele>1343.0</ele><time>2026-03-15T15:11:48.998Z</time></trkpt><trkpt lat="45.742875831562834" lon="10.160908856334256"><ele>1343.6666666666667</ele><time>2026-03-15T15:11:49.998Z</time></trkpt><trkpt lat="45.74285267511356" lon="10.161022166454607"><ele>1344.3333333333335</ele><time>2026-03-15T15:11:50.998Z</time></trkpt><trkpt lat="45.742834674000015" lon="10.161131611642277"><ele>1345.0</ele><time>2026-03-15T15:11:51.998Z</time></trkpt><trkpt lat="45.74278537708017" lon="10.161233092379632"><ele>1345.6666666666667</ele><time>2026-03-15T15:11:52.998Z</time></trkpt><trkpt lat="45.742758316824094" lon="10.16134050691749"><ele>1346.3333333333333</ele><time>2026-03-15T15:11:53.998Z</time></trkpt><trkpt lat="45.742675926463185" lon="10.161443595769786"><ele>1347.0</ele><time>2026-03-15T15:11:54.998Z</time></trkpt><trkpt lat="45.742611201401836" lon="10.161536591454764"><ele>1341.5</ele><time>2026-03-15T15:11:55.998Z</time></trkpt><trkpt lat="45.742533779384374" lon="10.1615531118677"><ele>1336.0</ele><time>2026-03-15T15:11:56.998Z</time></trkpt><trkpt lat="45.74243462164844" lon="10.161582739153344"><ele>1330.5</ele><time>2026-03-15T15:11:57.998Z</time></trkpt><trkpt lat="45.74229037414938" lon="10.161600323662892"><ele>1325.0</ele><time>2026-03-15T15:11:58.998Z</time></trkpt><trkpt lat="45.74214673073859" lon="10.16164255714454"><ele>1325.0</ele><time>2026-03-15T15:11:59.998Z</time></trkpt><trkpt lat="45.742011043078776" lon="10.161702332340333"><ele>1325.0</ele><time>2026-03-15T15:12:00.998Z</time></trkpt><trkpt lat="45.74187325869162" lon="10.161752759669444"><ele>1325.0</ele><time>2026-03-15T15:12:01.998Z</time></trkpt><trkpt lat="45.741742018269804" lon="10.161802952666843"><ele>1325.0</ele><time>2026-03-15T15:12:02.998Z</time></trkpt><trkpt lat="45.74162740341248" lon="10.161849185855095"><ele>1324.25</ele><time>2026-03-15T15:12:03.998Z</time></trkpt><trkpt lat="45.741509173436604" lon="10.161925431523489"><ele>1323.5</ele><time>2026-03-15T15:12:04.998Z</time></trkpt><trkpt lat="45.74138173126172" lon="10.161977500936185"><ele>1322.75</ele><time>2026-03-15T15:12:05.998Z</time></trkpt><trkpt lat="45.74127750656576" lon="10.162001104296873"><ele>1322.0</ele><time>2026-03-15T15:12:06.998Z</time></trkpt><trkpt lat="45.741171657648785" lon="10.162015277530523"><ele>1322.0</ele><time>2026-03-15T15:12:07.998Z</time></trkpt><trkpt lat="45.74107668168124" lon="10.16204410593186"><ele>1322.0</ele><time>2026-03-15T15:12:09Z</time></trkpt><trkpt lat="45.740979685727666" lon="10.162035014563347"><ele>1322.0</ele><time>2026-03-15T15:12:10Z</time></trkpt><trkpt lat="45.740878749083905" lon="10.162050027196845"><ele>1322.0</ele><time>2026-03-15T15:12:12Z</time></trkpt><trkpt lat="45.740991071345654" lon="10.162246736732266"><ele>1322.0</ele><time>2026-03-15T15:12:17Z</time></trkpt><trkpt lat="45.741083424251755" lon="10.1622093334645"><ele>1322.0</ele><time>2026-03-15T15:12:18Z</time></trkpt><trkpt lat="45.74118455186423" lon="10.162166420799409"><ele>1322.0</ele><time>2026-03-15T15:12:19Z</time></trkpt><trkpt lat="45.74125315808834" lon="10.162066025081785"><ele>1322.0</ele><time>2026-03-15T15:12:21Z</time></trkpt><trkpt lat="45.7412436278248" lon="10.162310223077128"><ele>1322.8</ele><time>2026-03-15T15:12:23Z</time></trkpt><trkpt lat="45.7411505427196" lon="10.162367114453918"><ele>1323.6</ele><time>2026-03-15T15:12:25Z</time></trkpt><trkpt lat="45.741061731687346" lon="10.162418808063588"><ele>1324.3999999999999</ele><time>2026-03-15T15:12:27Z</time></trkpt><trkpt lat="45.741021368019815" lon="10.162619587759224"><ele>1325.1999999999998</ele><time>2026-03-15T15:12:28.999Z</time></trkpt><trkpt lat="45.74102303017397" lon="10.16276068182133"><ele>1326.0</ele><time>2026-03-15T15:12:29.999Z</time></trkpt><trkpt lat="45.74100964669166" lon="10.162894612529994"><ele>1326.0</ele><time>2026-03-15T15:12:30.999Z</time></trkpt><trkpt lat="45.74097274147763" lon="10.163034762752087"><ele>1326.0</ele><time>2026-03-15T15:12:31.999Z</time></trkpt><trkpt lat="45.74090156437083" lon="10.16319272118803"><ele>1326.0</ele><time>2026-03-15T15:12:32.999Z</time></trkpt><trkpt lat="45.74083571847109" lon="10.163327115918749"><ele>1326.0</ele><time>2026-03-15T15:12:33.999Z</time></trkpt><trkpt lat="45.74079612012006" lon="10.163514819663632"><ele>1329.5</ele><time>2026-03-15T15:12:34.999Z</time></trkpt><trkpt lat="45.74077081390036" lon="10.163690610068551"><ele>1333.0</ele><time>2026-03-15T15:12:35.999Z</time></trkpt><trkpt lat="45.74075651447985" lon="10.163805420682666"><ele>1336.5</ele><time>2026-03-15T15:12:36.999Z</time></trkpt><trkpt lat="45.74075644432239" lon="10.163912613937654"><ele>1340.0</ele><time>2026-03-15T15:12:37.999Z</time></trkpt><trkpt lat="45.74076914600993" lon="10.164049019083732"><ele>1343.5</ele><time>2026-03-15T15:12:39.999Z</time></trkpt><trkpt lat="45.74082407635842" lon="10.164110381341954"><ele>1347.0</ele><time>2026-03-15T15:12:40.999Z</time></trkpt><trkpt lat="45.74089274692028" lon="10.164177009945341"><ele>1347.1666666666667</ele><time>2026-03-15T15:12:41.999Z</time></trkpt><trkpt lat="45.740964682564055" lon="10.164210392774322"><ele>1347.3333333333333</ele><time>2026-03-15T15:12:42.999Z</time></trkpt><trkpt lat="45.74104856027187" lon="10.16426589763036"><ele>1347.5</ele><time>2026-03-15T15:12:43.999Z</time></trkpt><trkpt lat="45.74111601997589" lon="10.164328619684124"><ele>1347.6666666666665</ele><time>2026-03-15T15:12:44.999Z</time></trkpt><trkpt lat="45.74116740967344" lon="10.16442113073829"><ele>1347.8333333333333</ele><time>2026-03-15T15:12:45.999Z</time></trkpt><trkpt lat="45.74121585802003" lon="10.164551853645518"><ele>1348.0</ele><time>2026-03-15T15:12:46.999Z</time></trkpt><trkpt lat="45.7412760543587" lon="10.164684903247787"><ele>1349.2</ele><time>2026-03-15T15:12:47.999Z</time></trkpt><trkpt lat="45.74134073126141" lon="10.16478051000746"><ele>1350.4</ele><time>2026-03-15T15:12:48.999Z</time></trkpt><trkpt lat="45.74142182641049" lon="10.164856806741028"><ele>1351.6000000000001</ele><time>2026-03-15T15:12:49.999Z</time></trkpt><trkpt lat="45.741489753940684" lon="10.16489692544182"><ele>1352.8000000000002</ele><time>2026-03-15T15:12:50.999Z</time></trkpt><trkpt lat="45.74158616175418" lon="10.164933909019732"><ele>1354.0</ele><time>2026-03-15T15:12:51.999Z</time></trkpt><trkpt lat="45.74171526636663" lon="10.164960572929255"><ele>1354.0</ele><time>2026-03-15T15:12:52.999Z</time></trkpt><trkpt lat="45.7418682142997" lon="10.164989766537307"><ele>1354.0</ele><time>2026-03-15T15:12:53.999Z</time></trkpt><trkpt lat="45.74199978725239" lon="10.16499782845287"><ele>1354.0</ele><time>2026-03-15T15:12:54.999Z</time></trkpt><trkpt lat="45.74212504927001" lon="10.164987546651874"><ele>1354.0</ele><time>2026-03-15T15:12:55.999Z</time></trkpt><trkpt lat="45.74227202086137" lon="10.164992898778511"><ele>1360.75</ele><time>2026-03-15T15:12:56.999Z</time></trkpt><trkpt lat="45.74241132510425" lon="10.165013162129064"><ele>1367.5</ele><time>2026-03-15T15:12:57.999Z</time></trkpt><trkpt lat="45.74251766575421" lon="10.165040266245205"><ele>1374.25</ele><time>2026-03-15T15:12:58.999Z</time></trkpt><trkpt lat="45.742637995829284" lon="10.165056375410826"><ele>1381.0</ele><time>2026-03-15T15:12:59.999Z</time></trkpt><trkpt lat="45.74273274920058" lon="10.165105496048358"><ele>1386.1666666666665</ele><time>2026-03-15T15:13:00.999Z</time></trkpt><trkpt lat="45.74280680297632" lon="10.165126841448796"><ele>1391.3333333333333</ele><time>2026-03-15T15:13:01.999Z</time></trkpt><trkpt lat="45.74286700549894" lon="10.165157194631659"><ele>1396.5</ele><time>2026-03-15T15:13:02.999Z</time></trkpt><trkpt lat="45.742964623161264" lon="10.165206384093754"><ele>1401.6666666666667</ele><time>2026-03-15T15:13:03.999Z</time></trkpt><trkpt lat="45.74302714889637" lon="10.16526436578082"><ele>1406.8333333333335</ele><time>2026-03-15T15:13:04.998Z</time></trkpt><trkpt lat="45.74308973546811" lon="10.165320447680925"><ele>1412.0</ele><time>2026-03-15T15:13:05.998Z</time></trkpt><trkpt lat="45.74318152742887" lon="10.165523887120361"><ele>1412.0</ele><time>2026-03-15T15:13:06.998Z</time></trkpt><trkpt lat="45.74324466461523" lon="10.165654147041238"><ele>1412.0</ele><time>2026-03-15T15:13:07.998Z</time></trkpt><trkpt lat="45.7433091180148" lon="10.165710112707172"><ele>1412.0</ele><time>2026-03-15T15:13:08.998Z</time></trkpt><trkpt lat="45.74339816610387" lon="10.16578312065805"><ele>1412.0</ele><time>2026-03-15T15:13:09.998Z</time></trkpt><trkpt lat="45.743448822408595" lon="10.16585548716881"><ele>1412.0</ele><time>2026-03-15T15:13:10.998Z</time></trkpt><trkpt lat="45.7434984756954" lon="10.166004898489422"><ele>1415.1999999999998</ele><time>2026-03-15T15:13:12.998Z</time></trkpt><trkpt lat="45.74351359683858" lon="10.166137810771728"><ele>1418.4</ele><time>2026-03-15T15:13:13.998Z</time></trkpt><trkpt lat="45.743535322899895" lon="10.166287264334805"><ele>1421.6</ele><time>2026-03-15T15:13:14.998Z</time></trkpt><trkpt lat="45.74357484168879" lon="10.166453089579404"><ele>1424.8000000000002</ele><time>2026-03-15T15:13:15.998Z</time></trkpt><trkpt lat="45.743620911420564" lon="10.166593920199324"><ele>1428.0</ele><time>2026-03-15T15:13:16.998Z</time></trkpt><trkpt lat="45.743635100064864" lon="10.166718465203395"><ele>1428.0</ele><time>2026-03-15T15:13:17.998Z</time></trkpt><trkpt lat="45.74366793496102" lon="10.16682569456927"><ele>1428.0</ele><time>2026-03-15T15:13:18.998Z</time></trkpt><trkpt lat="45.74372028479392" lon="10.166952170059378"><ele>1428.0</ele><time>2026-03-15T15:13:19.998Z</time></trkpt><trkpt lat="45.743789784775764" lon="10.167100449052292"><ele>1428.0</ele><time>2026-03-15T15:13:20.998Z</time></trkpt><trkpt lat="45.74381471365132" lon="10.167208178583001"><ele>1428.0</ele><time>2026-03-15T15:13:21.998Z</time></trkpt><trkpt lat="45.743807450133794" lon="10.167350550366058"><ele>1428.0</ele><time>2026-03-15T15:13:23.998Z</time></trkpt><trkpt lat="45.743889334364916" lon="10.167464920248218"><ele>1428.0</ele><time>2026-03-15T15:13:24.998Z</time></trkpt><trkpt lat="45.74397718191805" lon="10.167490525383164"><ele>1428.0</ele><time>2026-03-15T15:13:27.998Z</time></trkpt><trkpt lat="45.744019571238155" lon="10.167383660446658"><ele>1428.0</ele><time>2026-03-15T15:13:29.998Z</time></trkpt><trkpt lat="45.74394078203613" lon="10.16715426399455"><ele>1428.0</ele><time>2026-03-15T15:13:31.998Z</time></trkpt><trkpt lat="45.74390300593215" lon="10.167020430423113"><ele>1428.0</ele><time>2026-03-15T15:13:32.998Z</time></trkpt><trkpt lat="45.74387724000751" lon="10.166889711672336"><ele>1428.0</ele><time>2026-03-15T15:13:33.998Z</time></trkpt><trkpt lat="45.7438642186638" lon="10.166747208183025"><ele>1428.0</ele><time>2026-03-15T15:13:34.998Z</time></trkpt><trkpt lat="45.743863463569284" lon="10.166643947596617"><ele>1428.0</ele><time>2026-03-15T15:13:35.998Z</time></trkpt><trkpt lat="45.74387677106044" lon="10.16652362085176"><ele>1429.4</ele><time>2026-03-15T15:13:36.998Z</time></trkpt><trkpt lat="45.743889204919675" lon="10.166379095481915"><ele>1430.8000000000002</ele><time>2026-03-15T15:13:37.998Z</time></trkpt><trkpt lat="45.7439035723793" lon="10.166207024192854"><ele>1432.2</ele><time>2026-03-15T15:13:38.998Z</time></trkpt><trkpt lat="45.74391239434021" lon="10.166046521544944"><ele>1433.6</ele><time>2026-03-15T15:13:39.998Z</time></trkpt><trkpt lat="45.743888595762165" lon="10.165942667711967"><ele>1435.0</ele><time>2026-03-15T15:13:40.998Z</time></trkpt><trkpt lat="45.74387932028686" lon="10.165839327205953"><ele>1435.0</ele><time>2026-03-15T15:13:41.998Z</time></trkpt><trkpt lat="45.74386373776677" lon="10.16573322342355"><ele>1435.0</ele><time>2026-03-15T15:13:42.998Z</time></trkpt><trkpt lat="45.743879096609604" lon="10.16563231205324"><ele>1435.0</ele><time>2026-03-15T15:13:44.998Z</time></trkpt><trkpt lat="45.74395402292665" lon="10.16565581298173"><ele>1435.0</ele><time>2026-03-15T15:13:46.998Z</time></trkpt><trkpt lat="45.74398430796538" lon="10.165764938833444"><ele>1435.0</ele><time>2026-03-15T15:13:48.997Z</time></trkpt><trkpt lat="45.743983155634716" lon="10.165874971018946"><ele>1435.0</ele><time>2026-03-15T15:13:49.997Z</time></trkpt><trkpt lat="45.74401082116996" lon="10.166012772621599"><ele>1435.0</ele><time>2026-03-15T15:13:50.997Z</time></trkpt><trkpt lat="45.7440360589625" lon="10.166147441824988"><ele>1435.0</ele><time>2026-03-15T15:13:51.997Z</time></trkpt><trkpt lat="45.74407183107425" lon="10.166269810470906"><ele>1435.0</ele><time>2026-03-15T15:13:52.997Z</time></trkpt><trkpt lat="45.74408040382412" lon="10.166398086942161"><ele>1435.0</ele><time>2026-03-15T15:13:53.997Z</time></trkpt><trkpt lat="45.74408011619019" lon="10.166534725884883"><ele>1435.0</ele><time>2026-03-15T15:13:54.997Z</time></trkpt><trkpt lat="45.74409278411841" lon="10.166663427457138"><ele>1433.8333333333333</ele><time>2026-03-15T15:13:55.997Z</time></trkpt><trkpt lat="45.744125220140546" lon="10.166747577056908"><ele>1432.6666666666665</ele><time>2026-03-15T15:13:56.997Z</time></trkpt><trkpt lat="45.74416151884398" lon="10.166843600226962"><ele>1431.5</ele><time>2026-03-15T15:13:57.997Z</time></trkpt><trkpt lat="45.74422104281699" lon="10.166964160998742"><ele>1430.3333333333333</ele><time>2026-03-15T15:13:58.997Z</time></trkpt><trkpt lat="45.74425518241175" lon="10.167053955706864"><ele>1429.1666666666667</ele><time>2026-03-15T15:13:59.997Z</time></trkpt><trkpt lat="45.74431677786323" lon="10.167121741773041"><ele>1428.0</ele><time>2026-03-15T15:14:00.997Z</time></trkpt><trkpt lat="45.74430451366233" lon="10.167296301297942"><ele>1424.3333333333333</ele><time>2026-03-15T15:14:02.997Z</time></trkpt><trkpt lat="45.74430628351811" lon="10.167391442572134"><ele>1420.6666666666665</ele><time>2026-03-15T15:14:03.997Z</time></trkpt><trkpt lat="45.74455960804396" lon="10.167654226811504"><ele>1417.0</ele><time>2026-03-15T15:14:04.997Z</time></trkpt><trkpt lat="45.744564374341174" lon="10.167806295448424"><ele>1428.5</ele><time>2026-03-15T15:14:05.997Z</time></trkpt><trkpt lat="45.7445679799506" lon="10.16797804860318"><ele>1440.0</ele><time>2026-03-15T15:14:06.997Z</time></trkpt><trkpt lat="45.74447648990992" lon="10.168147740727496"><ele>1451.5</ele><time>2026-03-15T15:14:07.997Z</time></trkpt><trkpt lat="45.744508980228666" lon="10.168292174262756"><ele>1463.0</ele><time>2026-03-15T15:14:08.997Z</time></trkpt><trkpt lat="45.74449763670875" lon="10.168414531554705"><ele>1463.0</ele><time>2026-03-15T15:14:09.997Z</time></trkpt><trkpt lat="45.744589428368705" lon="10.168496167449812"><ele>1463.0</ele><time>2026-03-15T15:14:15Z</time></trkpt><trkpt lat="45.74468241918087" lon="10.16862145143124"><ele>1463.0</ele><time>2026-03-15T15:14:17Z</time></trkpt><trkpt lat="45.74470560096884" lon="10.168760522872027"><ele>1463.0</ele><time>2026-03-15T15:14:19Z</time></trkpt><trkpt lat="45.744653125580534" lon="10.168876281165245"><ele>1463.0</ele><time>2026-03-15T15:14:21Z</time></trkpt><trkpt lat="45.74461764810537" lon="10.168957168247916"><ele>1464.5</ele><time>2026-03-15T15:14:22Z</time></trkpt><trkpt lat="45.74450522367038" lon="10.169095861944754"><ele>1466.0</ele><time>2026-03-15T15:14:24Z</time></trkpt><trkpt lat="45.74442206315089" lon="10.169198866180688"><ele>1467.5</ele><time>2026-03-15T15:14:25Z</time></trkpt><trkpt lat="45.74433949643462" lon="10.169319826192513"><ele>1469.0</ele><time>2026-03-15T15:14:26Z</time></trkpt><trkpt lat="45.744266810293254" lon="10.169425674437694"><ele>1466.5</ele><time>2026-03-15T15:14:27Z</time></trkpt><trkpt lat="45.74422321236789" lon="10.169492679618992"><ele>1464.0</ele><time>2026-03-15T15:14:28Z</time></trkpt><trkpt lat="45.74418061411152" lon="10.169581112487124"><ele>1461.5</ele><time>2026-03-15T15:14:29Z</time></trkpt><trkpt lat="45.74415111996185" lon="10.169675619655504"><ele>1459.0</ele><time>2026-03-15T15:14:30Z</time></trkpt><trkpt lat="45.74414504323741" lon="10.169870788969972"><ele>1456.5</ele><time>2026-03-15T15:14:32Z</time></trkpt><trkpt lat="45.74413501997188" lon="10.170009334328096"><ele>1454.0</ele><time>2026-03-15T15:14:33Z</time></trkpt><trkpt lat="45.74411711465087" lon="10.170121588371988"><ele>1454.0</ele><time>2026-03-15T15:14:34Z</time></trkpt><trkpt lat="45.744036254494745" lon="10.17021165860879"><ele>1454.0</ele><time>2026-03-15T15:14:35.999Z</time></trkpt><trkpt lat="45.74396751535661" lon="10.170273298096975"><ele>1454.0</ele><time>2026-03-15T15:14:36.999Z</time></trkpt><trkpt lat="45.743894370537696" lon="10.170313754921523"><ele>1454.0</ele><time>2026-03-15T15:14:37.999Z</time></trkpt><trkpt lat="45.74377500046891" lon="10.170350556163731"><ele>1454.0</ele><time>2026-03-15T15:14:39.999Z</time></trkpt><trkpt lat="45.74367551483305" lon="10.170422151334476"><ele>1454.0</ele><time>2026-03-15T15:14:41.999Z</time></trkpt><trkpt lat="45.743635406096885" lon="10.17050439426027"><ele>1454.0</ele><time>2026-03-15T15:14:42.999Z</time></trkpt><trkpt lat="45.74363597460428" lon="10.170609427925692"><ele>1454.0</ele><time>2026-03-15T15:14:44.999Z</time></trkpt><trkpt lat="45.7436910012695" lon="10.170660939038951"><ele>1454.0</ele><time>2026-03-15T15:14:46.999Z</time></trkpt><trkpt lat="45.74375799406243" lon="10.170613146273695"><ele>1454.0</ele><time>2026-03-15T15:14:48.999Z</time></trkpt><trkpt lat="45.743839163463925" lon="10.170501817090411"><ele>1454.0</ele><time>2026-03-15T15:14:50.999Z</time></trkpt><trkpt lat="45.74394352104296" lon="10.17047670836995"><ele>1454.0</ele><time>2026-03-15T15:14:52.999Z</time></trkpt><trkpt lat="45.744021044610484" lon="10.170463309558125"><ele>1454.0</ele><time>2026-03-15T15:14:53.999Z</time></trkpt><trkpt lat="45.744121973771904" lon="10.170466330847097"><ele>1454.0</ele><time>2026-03-15T15:14:54.999Z</time></trkpt><trkpt lat="45.74420379823853" lon="10.170464119436678"><ele>1454.0</ele><time>2026-03-15T15:14:55.999Z</time></trkpt><trkpt lat="45.74433984027071" lon="10.170367417580568"><ele>1454.0</ele><time>2026-03-15T15:14:57.999Z</time></trkpt><trkpt lat="45.744415803126714" lon="10.170274188072602"><ele>1460.1666666666667</ele><time>2026-03-15T15:14:58.999Z</time></trkpt><trkpt lat="45.74445743634039" lon="10.170185711706353"><ele>1466.3333333333335</ele><time>2026-03-15T15:14:59.999Z</time></trkpt><trkpt lat="45.7444887918922" lon="10.17008435912753"><ele>1472.5</ele><time>2026-03-15T15:15:00.999Z</time></trkpt><trkpt lat="45.744497806042055" lon="10.16997779172068"><ele>1478.6666666666667</ele><time>2026-03-15T15:15:01.999Z</time></trkpt><trkpt lat="45.74447817456561" lon="10.169890996463815"><ele>1484.8333333333333</ele><time>2026-03-15T15:15:03.999Z</time></trkpt><trkpt lat="45.74454719551673" lon="10.169861608524414"><ele>1491.0</ele><time>2026-03-15T15:15:06.999Z</time></trkpt><trkpt lat="45.74458292940048" lon="10.169982795176738"><ele>1491.0</ele><time>2026-03-15T15:15:09.999Z</time></trkpt><trkpt lat="45.74454201232047" lon="10.170127806313024"><ele>1491.0</ele><time>2026-03-15T15:15:11.999Z</time></trkpt><trkpt lat="45.74452986210609" lon="10.17022430000902"><ele>1491.0</ele><time>2026-03-15T15:15:12.999Z</time></trkpt><trkpt lat="45.74451530403327" lon="10.170373118047747"><ele>1491.0</ele><time>2026-03-15T15:15:13.999Z</time></trkpt><trkpt lat="45.7444829393532" lon="10.17049526354353"><ele>1491.0</ele><time>2026-03-15T15:15:14.999Z</time></trkpt><trkpt lat="45.74443098238322" lon="10.170574218070284"><ele>1491.0</ele><time>2026-03-15T15:15:15.999Z</time></trkpt><trkpt lat="45.74435996054528" lon="10.17066520511128"><ele>1487.6</ele><time>2026-03-15T15:15:16.999Z</time></trkpt><trkpt lat="45.74428196726668" lon="10.17077233581323"><ele>1484.1999999999998</ele><time>2026-03-15T15:15:17.999Z</time></trkpt><trkpt lat="45.74419504193815" lon="10.170854213851793"><ele>1480.8000000000002</ele><time>2026-03-15T15:15:18.999Z</time></trkpt><trkpt lat="45.74413479521615" lon="10.170896492252314"><ele>1477.4</ele><time>2026-03-15T15:15:19.999Z</time></trkpt><trkpt lat="45.744041490694144" lon="10.170979722284464"><ele>1474.0</ele><time>2026-03-15T15:15:21.999Z</time></trkpt><trkpt lat="45.74396864536475" lon="10.171135891304031"><ele>1474.0</ele><time>2026-03-15T15:15:23.998Z</time></trkpt><trkpt lat="45.743932611980426" lon="10.171254415664698"><ele>1474.0</ele><time>2026-03-15T15:15:24.998Z</time></trkpt><trkpt lat="45.74389583761305" lon="10.171355087381675"><ele>1474.0</ele><time>2026-03-15T15:15:25.998Z</time></trkpt><trkpt lat="45.74380101920119" lon="10.171493481260594"><ele>1474.0</ele><time>2026-03-15T15:15:27.998Z</time></trkpt><trkpt lat="45.74373676299565" lon="10.171577809146566"><ele>1474.0</ele><time>2026-03-15T15:15:28.998Z</time></trkpt><trkpt lat="45.74367868960249" lon="10.17165873996412"><ele>1472.8333333333333</ele><time>2026-03-15T15:15:29.998Z</time></trkpt><trkpt lat="45.743623821840174" lon="10.171758389568147"><ele>1471.6666666666665</ele><time>2026-03-15T15:15:30.998Z</time></trkpt><trkpt lat="45.743576688550895" lon="10.171856812400549"><ele>1470.5</ele><time>2026-03-15T15:15:31.998Z</time></trkpt><trkpt lat="45.74352826113822" lon="10.171942559976353"><ele>1469.3333333333333</ele><time>2026-03-15T15:15:32.998Z</time></trkpt><trkpt lat="45.74351082808701" lon="10.172093399778177"><ele>1468.1666666666667</ele><time>2026-03-15T15:15:34.998Z</time></trkpt><trkpt lat="45.74350663003895" lon="10.172204921786653"><ele>1467.0</ele><time>2026-03-15T15:15:35.998Z</time></trkpt><trkpt lat="45.74349603052642" lon="10.172328944995163"><ele>1470.6666666666667</ele><time>2026-03-15T15:15:36.998Z</time></trkpt><trkpt lat="45.743476249844086" lon="10.17244939105913"><ele>1474.3333333333333</ele><time>2026-03-15T15:15:37.998Z</time></trkpt><trkpt lat="45.74345394883037" lon="10.172540577070473"><ele>1478.0</ele><time>2026-03-15T15:15:38.998Z</time></trkpt><trkpt lat="45.74339390125588" lon="10.17266387410355"><ele>1481.6666666666665</ele><time>2026-03-15T15:15:40.998Z</time></trkpt><trkpt lat="45.74330851060145" lon="10.17275987091589"><ele>1485.3333333333333</ele><time>2026-03-15T15:15:42.998Z</time></trkpt><trkpt lat="45.74331058418719" lon="10.172852873558144"><ele>1489.0</ele><time>2026-03-15T15:15:46.998Z</time></trkpt><trkpt lat="45.74339081228996" lon="10.172836829188928"><ele>1489.0</ele><time>2026-03-15T15:16:08.997Z</time></trkpt><trkpt lat="45.74344388481688" lon="10.17277433706828"><ele>1489.0</ele><time>2026-03-15T15:16:10.997Z</time></trkpt><trkpt lat="45.74349606225172" lon="10.172665634416985"><ele>1489.0</ele><time>2026-03-15T15:16:12.997Z</time></trkpt><trkpt lat="45.743549734342665" lon="10.172565467064636"><ele>1489.0</ele><time>2026-03-15T15:16:14.997Z</time></trkpt><trkpt lat="45.743594014110094" lon="10.172496721571981"><ele>1489.0</ele><time>2026-03-15T15:16:15.997Z</time></trkpt><trkpt lat="45.743641480225676" lon="10.172402510474347"><ele>1489.0</ele><time>2026-03-15T15:16:16.997Z</time></trkpt><trkpt lat="45.74367189463642" lon="10.172315631195007"><ele>1491.6</ele><time>2026-03-15T15:16:17.997Z</time></trkpt><trkpt lat="45.743682275879955" lon="10.172213277453334"><ele>1494.2</ele><time>2026-03-15T15:16:18.997Z</time></trkpt><trkpt lat="45.74370135666102" lon="10.172105676373201"><ele>1496.8</ele><time>2026-03-15T15:16:19.997Z</time></trkpt><trkpt lat="45.74376450601763" lon="10.171999197618872"><ele>1499.3999999999999</ele><time>2026-03-15T15:16:22Z</time></trkpt><trkpt lat="45.74385083471655" lon="10.171943916835694"><ele>1502.0</ele><time>2026-03-15T15:16:24Z</time></trkpt><trkpt lat="45.74397782251147" lon="10.17188215523768"><ele>1502.0</ele><time>2026-03-15T15:16:26Z</time></trkpt><trkpt lat="45.7440472216662" lon="10.171839277117273"><ele>1502.0</ele><time>2026-03-15T15:16:27Z</time></trkpt><trkpt lat="45.744110059944205" lon="10.171809939191593"><ele>1502.0</ele><time>2026-03-15T15:16:28Z</time></trkpt><trkpt lat="45.74418035488756" lon="10.171774364194452"><ele>1502.0</ele><time>2026-03-15T15:16:29Z</time></trkpt><trkpt lat="45.744245754888375" lon="10.171747744603957"><ele>1502.0</ele><time>2026-03-15T15:16:30Z</time></trkpt><trkpt lat="45.744312009152345" lon="10.17172293044791"><ele>1502.0</ele><time>2026-03-15T15:16:31Z</time></trkpt><trkpt lat="45.74441627521267" lon="10.17167932437573"><ele>1503.5</ele><time>2026-03-15T15:16:33Z</time></trkpt><trkpt lat="45.74451159072542" lon="10.171663080782643"><ele>1505.0</ele><time>2026-03-15T15:16:35Z</time></trkpt><trkpt lat="45.7446253287558" lon="10.171612640175876"><ele>1506.5</ele><time>2026-03-15T15:16:37Z</time></trkpt><trkpt lat="45.74468895885123" lon="10.17159015136796"><ele>1508.0</ele><time>2026-03-15T15:16:38Z</time></trkpt><trkpt lat="45.74474615431872" lon="10.171548320220044"><ele>1509.5</ele><time>2026-03-15T15:16:39Z</time></trkpt><trkpt lat="45.744810650747084" lon="10.171498011423196"><ele>1511.0</ele><time>2026-03-15T15:16:40Z</time></trkpt><trkpt lat="45.744864252394045" lon="10.171444908966198"><ele>1511.0</ele><time>2026-03-15T15:16:41Z</time></trkpt><trkpt lat="45.74492470679099" lon="10.171375918839274"><ele>1511.0</ele><time>2026-03-15T15:16:42Z</time></trkpt><trkpt lat="45.744989667402486" lon="10.171306863865883"><ele>1511.0</ele><time>2026-03-15T15:16:43Z</time></trkpt><trkpt lat="45.745056540176826" lon="10.17123896698323"><ele>1511.0</ele><time>2026-03-15T15:16:44Z</time></trkpt><trkpt lat="45.74511056070758" lon="10.171179304110542"><ele>1511.0</ele><time>2026-03-15T15:16:45Z</time></trkpt><trkpt lat="45.74516206784685" lon="10.171114564473646"><ele>1511.0</ele><time>2026-03-15T15:16:46Z</time></trkpt><trkpt lat="45.74522410363353" lon="10.171026170197893"><ele>1514.6666666666667</ele><time>2026-03-15T15:16:47Z</time></trkpt><trkpt lat="45.745288362430145" lon="10.170937773663994"><ele>1518.3333333333335</ele><time>2026-03-15T15:16:48Z</time></trkpt><trkpt lat="45.745339426039386" lon="10.170854552347825"><ele>1522.0</ele><time>2026-03-15T15:16:49Z</time></trkpt><trkpt lat="45.745415902062135" lon="10.170703251198182"><ele>1525.6666666666667</ele><time>2026-03-15T15:16:51Z</time></trkpt><trkpt lat="45.74545223380998" lon="10.17060748979675"><ele>1529.3333333333333</ele><time>2026-03-15T15:16:52Z</time></trkpt><trkpt lat="45.74548319933678" lon="10.170515845904147"><ele>1533.0</ele><time>2026-03-15T15:16:53Z</time></trkpt><trkpt lat="45.74552774054179" lon="10.170396211285682"><ele>1533.0</ele><time>2026-03-15T15:16:55Z</time></trkpt><trkpt lat="45.74558130034999" lon="10.170282280628522"><ele>1533.0</ele><time>2026-03-15T15:16:57Z</time></trkpt><trkpt lat="45.74565960073355" lon="10.170188311898858"><ele>1533.0</ele><time>2026-03-15T15:16:58.999Z</time></trkpt><trkpt lat="45.745744608927154" lon="10.170102318572356"><ele>1533.0</ele><time>2026-03-15T15:17:00.999Z</time></trkpt><trkpt lat="45.74580075598252" lon="10.170055489762174"><ele>1533.0</ele><time>2026-03-15T15:17:01.999Z</time></trkpt><trkpt lat="45.74585615644463" lon="10.170004462612516"><ele>1533.0</ele><time>2026-03-15T15:17:02.999Z</time></trkpt><trkpt lat="45.74590804684481" lon="10.169950497338517"><ele>1530.5</ele><time>2026-03-15T15:17:03.999Z</time></trkpt><trkpt lat="45.74598722426567" lon="10.169839224560173"><ele>1528.0</ele><time>2026-03-15T15:17:05.999Z</time></trkpt><trkpt lat="45.74602171067522" lon="10.169756149081804"><ele>1525.5</ele><time>2026-03-15T15:17:07.999Z</time></trkpt><trkpt lat="45.746063573408804" lon="10.169667155127105"><ele>1523.0</ele><time>2026-03-15T15:17:09.999Z</time></trkpt><trkpt lat="45.7460992209464" lon="10.16957775697681"><ele>1520.5</ele><time>2026-03-15T15:17:33.999Z</time></trkpt><trkpt lat="45.7461290875381" lon="10.169488178778535"><ele>1518.0</ele><time>2026-03-15T15:17:35.999Z</time></trkpt><trkpt lat="45.74616136402642" lon="10.169382843917548"><ele>1527.5</ele><time>2026-03-15T15:17:37.999Z</time></trkpt><trkpt lat="45.746199463506166" lon="10.169270842895"><ele>1537.0</ele><time>2026-03-15T15:17:39.999Z</time></trkpt><trkpt lat="45.746246023178564" lon="10.169173891853145"><ele>1546.5</ele><time>2026-03-15T15:17:42.999Z</time></trkpt><trkpt lat="45.746300853350164" lon="10.169079787294317"><ele>1556.0</ele><time>2026-03-15T15:17:44.999Z</time></trkpt><trkpt lat="45.74635341189939" lon="10.16901795532896"><ele>1565.5</ele><time>2026-03-15T15:17:47.998Z</time></trkpt><trkpt lat="45.74640047678289" lon="10.168913200295743"><ele>1575.0</ele><time>2026-03-15T15:18:13.998Z</time></trkpt><trkpt lat="45.74641818198885" lon="10.16877772685928"><ele>1575.0</ele><time>2026-03-15T15:18:16.998Z</time></trkpt><trkpt lat="45.74641733308271" lon="10.168624733927198"><ele>1575.0</ele><time>2026-03-15T15:18:18.998Z</time></trkpt><trkpt lat="45.74644065737515" lon="10.16845692088606"><ele>1575.0</ele><time>2026-03-15T15:18:20.998Z</time></trkpt><trkpt lat="45.74645403366923" lon="10.168367951113554"><ele>1575.0</ele><time>2026-03-15T15:18:21.998Z</time></trkpt><trkpt lat="45.74647793053435" lon="10.168201086722135"><ele>1575.0</ele><time>2026-03-15T15:18:23.998Z</time></trkpt><trkpt lat="45.746493104593526" lon="10.16803185453554"><ele>1574.4</ele><time>2026-03-15T15:18:26Z</time></trkpt><trkpt lat="45.74648533336679" lon="10.167886892547534"><ele>1573.8</ele><time>2026-03-15T15:18:28Z</time></trkpt><trkpt lat="45.74646589600575" lon="10.167738590234872"><ele>1573.1999999999998</ele><time>2026-03-15T15:18:30Z</time></trkpt><trkpt lat="45.74647152293061" lon="10.167588861094883"><ele>1572.6</ele><time>2026-03-15T15:18:32Z</time></trkpt><trkpt lat="45.746520599432024" lon="10.167467490991994"><ele>1572.0</ele><time>2026-03-15T15:18:34Z</time></trkpt><trkpt lat="45.74658259365179" lon="10.167321908117755"><ele>1572.0</ele><time>2026-03-15T15:18:36Z</time></trkpt><trkpt lat="45.746607353093644" lon="10.167188313077984"><ele>1572.0</ele><time>2026-03-15T15:18:38Z</time></trkpt><trkpt lat="45.74654499093058" lon="10.167073404193813"><ele>1572.0</ele><time>2026-03-15T15:18:41Z</time></trkpt><trkpt lat="45.7464841365203" lon="10.166995879617485"><ele>1572.0</ele><time>2026-03-15T15:18:43Z</time></trkpt><trkpt lat="45.746424128247114" lon="10.16689538836173"><ele>1572.0</ele><time>2026-03-15T15:18:45Z</time></trkpt><trkpt lat="45.746374240291544" lon="10.166778320581253"><ele>1572.0000000000002</ele><time>2026-03-15T15:18:47Z</time></trkpt><trkpt lat="45.74633812843236" lon="10.166673621158042"><ele>1572.0</ele><time>2026-03-15T15:18:49Z</time></trkpt><trkpt lat="45.74633820302336" lon="10.166581348246822"><ele>1572.0</ele><time>2026-03-15T15:18:52Z</time></trkpt><trkpt lat="45.746364754033564" lon="10.166498442863388"><ele>1572.0</ele><time>2026-03-15T15:20:53Z</time></trkpt><trkpt lat="45.746399840753575" lon="10.166409433165372"><ele>1572.0</ele><time>2026-03-15T15:20:57.999Z</time></trkpt><trkpt lat="45.746431726180454" lon="10.166328344720997"><ele>1572.0000000000002</ele><time>2026-03-15T15:21:01.999Z</time></trkpt><trkpt lat="45.74644336934685" lon="10.166239417859039"><ele>1572.0</ele><time>2026-03-15T15:21:05.999Z</time></trkpt><trkpt lat="45.746497084988476" lon="10.166129435882112"><ele>1571.7142857142858</ele><time>2026-03-15T15:21:09.999Z</time></trkpt><trkpt lat="45.74653458736714" lon="10.16603487270388"><ele>1571.4285714285716</ele><time>2026-03-15T15:21:11.999Z</time></trkpt><trkpt lat="45.74659165581964" lon="10.165982105225323"><ele>1571.1428571428573</ele><time>2026-03-15T15:21:14.999Z</time></trkpt><trkpt lat="45.74658059300126" lon="10.165888886654866"><ele>1570.857142857143</ele><time>2026-03-15T15:30:18.999Z</time></trkpt><trkpt lat="45.74657259960615" lon="10.165995191828896"><ele>1570.5714285714284</ele><time>2026-03-15T15:31:01.001Z</time></trkpt><trkpt lat="45.74660446621469" lon="10.16588080995926"><ele>1570.2857142857144</ele><time>2026-03-15T15:32:53.997Z</time></trkpt><trkpt lat="45.74657785252193" lon="10.165970597531073"><ele>1570.0</ele><time>2026-03-15T15:33:38.999Z</time></trkpt><trkpt lat="45.746573839677275" lon="10.165932197489976"><ele>1570.0</ele><time>2026-03-15T15:40:23.999Z</time></trkpt><trkpt lat="45.746540980821806" lon="10.16602085547583"><ele>1570.0</ele><time>2026-03-15T15:41:22.001Z</time></trkpt><trkpt lat="45.74652020422626" lon="10.166108165097821"><ele>1570.0</ele><time>2026-03-15T15:45:18.997Z</time></trkpt><trkpt lat="45.74648797358587" lon="10.166190141222657"><ele>1570.0</ele><time>2026-03-15T15:45:25.997Z</time></trkpt><trkpt lat="45.74644737123844" lon="10.166278173982889"><ele>1570.0</ele><time>2026-03-15T15:45:31Z</time></trkpt><trkpt lat="45.74642891159122" lon="10.16636606275158"><ele>1570.0</ele><time>2026-03-15T15:45:35Z</time></trkpt><trkpt lat="45.74639922020526" lon="10.166445830771563"><ele>1570.0</ele><time>2026-03-15T15:45:43Z</time></trkpt><trkpt lat="45.74635981974553" lon="10.166536135042216"><ele>1570.3333333333335</ele><time>2026-03-15T15:45:47Z</time></trkpt><trkpt lat="45.74635047068711" lon="10.166642298216289"><ele>1570.6666666666667</ele><time>2026-03-15T15:45:52Z</time></trkpt><trkpt lat="45.74637461859853" lon="10.16675134020938"><ele>1571.0</ele><time>2026-03-15T15:45:57Z</time></trkpt><trkpt lat="45.746416055427105" lon="10.166838748133898"><ele>1571.3333333333335</ele><time>2026-03-15T15:46:01Z</time></trkpt><trkpt lat="45.74645930695311" lon="10.166920057895679"><ele>1571.6666666666667</ele><time>2026-03-15T15:46:16.999Z</time></trkpt><trkpt lat="45.74651649396092" lon="10.167013752411059"><ele>1572.0</ele><time>2026-03-15T15:46:19.999Z</time></trkpt><trkpt lat="45.74657219467546" lon="10.167090755148601"><ele>1572.0</ele><time>2026-03-15T15:46:22.999Z</time></trkpt><trkpt lat="45.746614665402575" lon="10.167181716683835"><ele>1572.0</ele><time>2026-03-15T15:46:25.999Z</time></trkpt><trkpt lat="45.74662646890847" lon="10.167284399003446"><ele>1572.0</ele><time>2026-03-15T15:46:28.999Z</time></trkpt><trkpt lat="45.74659864330775" lon="10.167380003611498"><ele>1572.0</ele><time>2026-03-15T15:46:31.999Z</time></trkpt><trkpt lat="45.74655353475804" lon="10.167472858702437"><ele>1572.0</ele><time>2026-03-15T15:46:34.999Z</time></trkpt><trkpt lat="45.74651214946614" lon="10.16756376560219"><ele>1572.0</ele><time>2026-03-15T15:46:37.999Z</time></trkpt><trkpt lat="45.74648610308622" lon="10.167671595318128"><ele>1572.4285714285716</ele><time>2026-03-15T15:46:40.999Z</time></trkpt><trkpt lat="45.74649928935358" lon="10.167791828258773"><ele>1572.857142857143</ele><time>2026-03-15T15:46:43.999Z</time></trkpt><trkpt lat="45.74651098329988" lon="10.167888794305137"><ele>1573.2857142857142</ele><time>2026-03-15T15:46:46.999Z</time></trkpt><trkpt lat="45.74652239042337" lon="10.16799522849513"><ele>1573.7142857142858</ele><time>2026-03-15T15:46:50.998Z</time></trkpt><trkpt lat="45.7465172809649" lon="10.168093700557039"><ele>1574.142857142857</ele><time>2026-03-15T15:46:53.998Z</time></trkpt><trkpt lat="45.74651057347445" lon="10.168189364149454"><ele>1574.5714285714287</ele><time>2026-03-15T15:46:56.998Z</time></trkpt><trkpt lat="45.74649006872762" lon="10.16829724780077"><ele>1575.0</ele><time>2026-03-15T15:47:00.998Z</time></trkpt><trkpt lat="45.74647435699567" lon="10.168403265419736"><ele>1575.0</ele><time>2026-03-15T15:47:03.998Z</time></trkpt><trkpt lat="45.74645681022268" lon="10.168495447460403"><ele>1575.0</ele><time>2026-03-15T15:47:06.998Z</time></trkpt><trkpt lat="45.74643536070699" lon="10.168618218249469"><ele>1575.0</ele><time>2026-03-15T15:47:09.998Z</time></trkpt><trkpt lat="45.74642702635198" lon="10.168708253505784"><ele>1575.0</ele><time>2026-03-15T15:47:11.998Z</time></trkpt><trkpt lat="45.746424308541954" lon="10.168825301841938"><ele>1575.0</ele><time>2026-03-15T15:47:14.998Z</time></trkpt><trkpt lat="45.74641717109639" lon="10.168917241811123"><ele>1575.0</ele><time>2026-03-15T15:47:16.998Z</time></trkpt><trkpt lat="45.746377038178316" lon="10.169016473666641"><ele>1575.0</ele><time>2026-03-15T15:47:19.998Z</time></trkpt><trkpt lat="45.74632129711696" lon="10.169097210447788"><ele>1575.8333333333333</ele><time>2026-03-15T15:47:22.998Z</time></trkpt><trkpt lat="45.74626064328015" lon="10.169190404450587"><ele>1576.6666666666665</ele><time>2026-03-15T15:47:25.998Z</time></trkpt><trkpt lat="45.74622664918187" lon="10.16930016328995"><ele>1577.5</ele><time>2026-03-15T15:47:28.998Z</time></trkpt><trkpt lat="45.74619786092312" lon="10.169383518667278"><ele>1578.3333333333333</ele><time>2026-03-15T15:47:30.997Z</time></trkpt><trkpt lat="45.74616134581266" lon="10.169474012537904"><ele>1579.1666666666665</ele><time>2026-03-15T15:47:33Z</time></trkpt><trkpt lat="45.746129552275775" lon="10.169571703840278"><ele>1580.0</ele><time>2026-03-15T15:47:35Z</time></trkpt><trkpt lat="45.74608228324616" lon="10.169689056952683"><ele>1572.1666666666665</ele><time>2026-03-15T15:47:37Z</time></trkpt><trkpt lat="45.746035864194205" lon="10.169788960122204"><ele>1564.3333333333333</ele><time>2026-03-15T15:47:39Z</time></trkpt><trkpt lat="45.745994838066636" lon="10.169864956003915"><ele>1556.5</ele><time>2026-03-15T15:47:41Z</time></trkpt><trkpt lat="45.74592823389243" lon="10.169963194172805"><ele>1548.6666666666665</ele><time>2026-03-15T15:47:43Z</time></trkpt><trkpt lat="45.7458773932534" lon="10.170017191246506"><ele>1540.8333333333333</ele><time>2026-03-15T15:47:44Z</time></trkpt><trkpt lat="45.745768031013114" lon="10.170065351531571"><ele>1533.0</ele><time>2026-03-15T15:47:46Z</time></trkpt><trkpt lat="45.74569550161308" lon="10.170141566111239"><ele>1533.0</ele><time>2026-03-15T15:47:48Z</time></trkpt><trkpt lat="45.74561986740782" lon="10.170224073125556"><ele>1533.0</ele><time>2026-03-15T15:47:50Z</time></trkpt><trkpt lat="45.74555993957819" lon="10.17032388345265"><ele>1533.0</ele><time>2026-03-15T15:47:52Z</time></trkpt><trkpt lat="45.74551613038816" lon="10.170437631865912"><ele>1533.0</ele><time>2026-03-15T15:47:54Z</time></trkpt><trkpt lat="45.74548899630442" lon="10.170519865969965"><ele>1533.0</ele><time>2026-03-15T15:47:56Z</time></trkpt><trkpt lat="45.74544912777709" lon="10.170621913053413"><ele>1533.0</ele><time>2026-03-15T15:47:58Z</time></trkpt><trkpt lat="45.74540368249416" lon="10.170719598951397"><ele>1536.4</ele><time>2026-03-15T15:48:00Z</time></trkpt><trkpt lat="45.74534867813448" lon="10.170821808186346"><ele>1539.8000000000002</ele><time>2026-03-15T15:48:02Z</time></trkpt><trkpt lat="45.745278908302005" lon="10.170938923727558"><ele>1543.2</ele><time>2026-03-15T15:48:04Z</time></trkpt><trkpt lat="45.74522331735308" lon="10.171021530365138"><ele>1546.6</ele><time>2026-03-15T15:48:06Z</time></trkpt><trkpt lat="45.74515167689983" lon="10.171114587085613"><ele>1550.0</ele><time>2026-03-15T15:48:08Z</time></trkpt><trkpt lat="45.74508864541149" lon="10.1711921424003"><ele>1547.4999999999998</ele><time>2026-03-15T15:48:10Z</time></trkpt><trkpt lat="45.74503288697003" lon="10.171258716311732"><ele>1545.0</ele><time>2026-03-15T15:48:12Z</time></trkpt><trkpt lat="45.74497755488497" lon="10.171349319581568"><ele>1542.5</ele><time>2026-03-15T15:48:14Z</time></trkpt><trkpt lat="45.74490043379176" lon="10.171421497829733"><ele>1540.0</ele><time>2026-03-15T15:48:16Z</time></trkpt><trkpt lat="45.7448267157744" lon="10.171493846952758"><ele>1537.5</ele><time>2026-03-15T15:48:18Z</time></trkpt><trkpt lat="45.74472979665303" lon="10.171549889940565"><ele>1535.0</ele><time>2026-03-15T15:48:20Z</time></trkpt><trkpt lat="45.74462859674523" lon="10.171615029005782"><ele>1535.0</ele><time>2026-03-15T15:48:22Z</time></trkpt><trkpt lat="45.744544539792294" lon="10.171645026980846"><ele>1535.0</ele><time>2026-03-15T15:48:23.999Z</time></trkpt><trkpt lat="45.744458458841216" lon="10.171673294725789"><ele>1535.0</ele><time>2026-03-15T15:48:25.999Z</time></trkpt><trkpt lat="45.74438038996568" lon="10.171715100338455"><ele>1535.0</ele><time>2026-03-15T15:48:27.999Z</time></trkpt><trkpt lat="45.744294716259276" lon="10.17172838919543"><ele>1535.0</ele><time>2026-03-15T15:48:29.999Z</time></trkpt><trkpt lat="45.74422582871919" lon="10.171753854248198"><ele>1535.0</ele><time>2026-03-15T15:48:31.999Z</time></trkpt><trkpt lat="45.74416333234323" lon="10.171780546517665"><ele>1529.5</ele><time>2026-03-15T15:48:33.999Z</time></trkpt><trkpt lat="45.744090810957594" lon="10.17180008048106"><ele>1524.0</ele><time>2026-03-15T15:48:35.999Z</time></trkpt><trkpt lat="45.74400533619519" lon="10.17184051686817"><ele>1518.5</ele><time>2026-03-15T15:48:37.999Z</time></trkpt><trkpt lat="45.74392195064749" lon="10.171883375779858"><ele>1513.0</ele><time>2026-03-15T15:48:39.998Z</time></trkpt><trkpt lat="45.74383803735074" lon="10.171932120707341"><ele>1507.5</ele><time>2026-03-15T15:48:41.998Z</time></trkpt><trkpt lat="45.74375085731102" lon="10.171996793784711"><ele>1502.0</ele><time>2026-03-15T15:48:43.998Z</time></trkpt><trkpt lat="45.743677911796084" lon="10.172095833710843"><ele>1502.0</ele><time>2026-03-15T15:48:45.998Z</time></trkpt><trkpt lat="45.74363526417108" lon="10.17222500285487"><ele>1502.0</ele><time>2026-03-15T15:48:47.998Z</time></trkpt><trkpt lat="45.74360376277491" lon="10.172361870383353"><ele>1502.0</ele><time>2026-03-15T15:48:49.998Z</time></trkpt><trkpt lat="45.74358019645908" lon="10.172489410132522"><ele>1502.0</ele><time>2026-03-15T15:48:51.998Z</time></trkpt><trkpt lat="45.74354681505139" lon="10.172566864826996"><ele>1502.0</ele><time>2026-03-15T15:48:52.998Z</time></trkpt><trkpt lat="45.74346989206411" lon="10.1726817226532"><ele>1499.8333333333335</ele><time>2026-03-15T15:48:54.998Z</time></trkpt><trkpt lat="45.7434040180977" lon="10.17277346767458"><ele>1497.6666666666667</ele><time>2026-03-15T15:48:56.998Z</time></trkpt><trkpt lat="45.7433341721943" lon="10.17281875857596"><ele>1495.5</ele><time>2026-03-15T15:49:01.998Z</time></trkpt><trkpt lat="45.74333832761363" lon="10.17272039109378"><ele>1493.3333333333333</ele><time>2026-03-15T15:49:22.997Z</time></trkpt><trkpt lat="45.74340067275686" lon="10.172672411989614"><ele>1491.1666666666665</ele><time>2026-03-15T15:49:23.997Z</time></trkpt><trkpt lat="45.74344885566999" lon="10.172602260860813"><ele>1489.0</ele><time>2026-03-15T15:49:25.997Z</time></trkpt><trkpt lat="45.74349614628863" lon="10.172478051369016"><ele>1491.6</ele><time>2026-03-15T15:49:27.997Z</time></trkpt><trkpt lat="45.743515601973954" lon="10.17231935620129"><ele>1494.2</ele><time>2026-03-15T15:49:29.997Z</time></trkpt><trkpt lat="45.743530773089546" lon="10.172165861006025"><ele>1496.8</ele><time>2026-03-15T15:49:31.997Z</time></trkpt><trkpt lat="45.74355285290834" lon="10.172032418580716"><ele>1499.3999999999999</ele><time>2026-03-15T15:49:33.997Z</time></trkpt><trkpt lat="45.743577305461216" lon="10.171901271354592"><ele>1502.0</ele><time>2026-03-15T15:49:35.997Z</time></trkpt><trkpt lat="45.743638444849836" lon="10.171769470458477"><ele>1502.0</ele><time>2026-03-15T15:49:38Z</time></trkpt><trkpt lat="45.74368516434687" lon="10.171698507584615"><ele>1502.0</ele><time>2026-03-15T15:49:39Z</time></trkpt><trkpt lat="45.74377336050107" lon="10.171604634013194"><ele>1502.0</ele><time>2026-03-15T15:49:41Z</time></trkpt><trkpt lat="45.74383877627351" lon="10.171511981133603"><ele>1502.0</ele><time>2026-03-15T15:49:43Z</time></trkpt><trkpt lat="45.74389574064769" lon="10.171425698943942"><ele>1502.0</ele><time>2026-03-15T15:49:45Z</time></trkpt><trkpt lat="45.74394570648041" lon="10.17130010039963"><ele>1496.3999999999999</ele><time>2026-03-15T15:49:47Z</time></trkpt><trkpt lat="45.74400936906803" lon="10.17119996959163"><ele>1490.8</ele><time>2026-03-15T15:49:49Z</time></trkpt><trkpt lat="45.74406913851167" lon="10.171064540425009"><ele>1485.2</ele><time>2026-03-15T15:49:51Z</time></trkpt><trkpt lat="45.744117127355445" lon="10.170925628887094"><ele>1479.6</ele><time>2026-03-15T15:49:53Z</time></trkpt><trkpt lat="45.744237078596385" lon="10.17085801332735"><ele>1474.0</ele><time>2026-03-15T15:49:55Z</time></trkpt><trkpt lat="45.74432500434355" lon="10.170754875011076"><ele>1476.8333333333333</ele><time>2026-03-15T15:49:57Z</time></trkpt><trkpt lat="45.74443032104074" lon="10.170649007099229"><ele>1479.6666666666665</ele><time>2026-03-15T15:49:59Z</time></trkpt><trkpt lat="45.74447342764046" lon="10.170579776407056"><ele>1482.5</ele><time>2026-03-15T15:50:00Z</time></trkpt><trkpt lat="45.74451513153286" lon="10.170501276169041"><ele>1485.3333333333333</ele><time>2026-03-15T15:50:01Z</time></trkpt><trkpt lat="45.74454674963155" lon="10.170422100497241"><ele>1488.1666666666667</ele><time>2026-03-15T15:50:01.999Z</time></trkpt><trkpt lat="45.74457132843169" lon="10.17033195210722"><ele>1491.0</ele><time>2026-03-15T15:50:02.999Z</time></trkpt><trkpt lat="45.74459832753738" lon="10.170170355087967"><ele>1491.0</ele><time>2026-03-15T15:50:04.999Z</time></trkpt><trkpt lat="45.744608990424794" lon="10.170026537241847"><ele>1491.0</ele><time>2026-03-15T15:50:06.999Z</time></trkpt><trkpt lat="45.744609140870054" lon="10.16991140650239"><ele>1491.0</ele><time>2026-03-15T15:50:08.999Z</time></trkpt><trkpt lat="45.74456447874656" lon="10.169826892557266"><ele>1491.0</ele><time>2026-03-15T15:50:10.999Z</time></trkpt><trkpt lat="45.7444833519896" lon="10.169871534760585"><ele>1491.0</ele><time>2026-03-15T15:50:12.999Z</time></trkpt><trkpt lat="45.744479261933556" lon="10.169992654407153"><ele>1491.0</ele><time>2026-03-15T15:50:15.999Z</time></trkpt><trkpt lat="45.74448118923615" lon="10.17008639530365"><ele>1491.0</ele><time>2026-03-15T15:50:18.999Z</time></trkpt><trkpt lat="45.74443522037108" lon="10.170159689642354"><ele>1491.0</ele><time>2026-03-15T15:50:21.999Z</time></trkpt><trkpt lat="45.74439335873301" lon="10.17024450199135"><ele>1491.0</ele><time>2026-03-15T15:50:24.999Z</time></trkpt><trkpt lat="45.744349993568356" lon="10.17035381934501"><ele>1491.0</ele><time>2026-03-15T15:50:27.999Z</time></trkpt><trkpt lat="45.74426356899498" lon="10.170421724146479"><ele>1491.0</ele><time>2026-03-15T15:50:30.999Z</time></trkpt><trkpt lat="45.74418323721115" lon="10.170466682456011"><ele>1491.0</ele><time>2026-03-15T15:50:32.999Z</time></trkpt><trkpt lat="45.744108572642375" lon="10.17044576912992"><ele>1484.8333333333333</ele><time>2026-03-15T15:50:34.999Z</time></trkpt><trkpt lat="45.7440052224968" lon="10.170443079169571"><ele>1478.6666666666667</ele><time>2026-03-15T15:50:36.999Z</time></trkpt><trkpt lat="45.74390892932121" lon="10.170469856168221"><ele>1472.5</ele><time>2026-03-15T15:50:38.999Z</time></trkpt><trkpt lat="45.7438419274015" lon="10.1705246387762"><ele>1466.3333333333335</ele><time>2026-03-15T15:50:40.999Z</time></trkpt><trkpt lat="45.7437599921452" lon="10.170561277098233"><ele>1460.1666666666667</ele><time>2026-03-15T15:50:42.999Z</time></trkpt><trkpt lat="45.74369670110382" lon="10.170617177059315"><ele>1454.0</ele><time>2026-03-15T15:50:44.998Z</time></trkpt><trkpt lat="45.74366105736216" lon="10.17052346028178"><ele>1454.0</ele><time>2026-03-15T15:50:48.998Z</time></trkpt><trkpt lat="45.74371076824668" lon="10.17044840957138"><ele>1454.0</ele><time>2026-03-15T15:50:50.998Z</time></trkpt><trkpt lat="45.743783577632875" lon="10.170386512278181"><ele>1454.0</ele><time>2026-03-15T15:50:52.998Z</time></trkpt><trkpt lat="45.743857245311574" lon="10.170322058559822"><ele>1454.0</ele><time>2026-03-15T15:50:54.998Z</time></trkpt><trkpt lat="45.743960580337664" lon="10.170300213208082"><ele>1454.0</ele><time>2026-03-15T15:50:56.998Z</time></trkpt><trkpt lat="45.7440206560399" lon="10.170266054633151"><ele>1454.0</ele><time>2026-03-15T15:50:58.998Z</time></trkpt><trkpt lat="45.74410602121234" lon="10.170182233373533"><ele>1454.0</ele><time>2026-03-15T15:51:00.998Z</time></trkpt><trkpt lat="45.74416942904845" lon="10.17005178527363"><ele>1454.0</ele><time>2026-03-15T15:51:02.998Z</time></trkpt><trkpt lat="45.744174463282924" lon="10.169877124418939"><ele>1454.0</ele><time>2026-03-15T15:51:04.998Z</time></trkpt><trkpt lat="45.74417701435235" lon="10.16975529527142"><ele>1454.0</ele><time>2026-03-15T15:51:06.998Z</time></trkpt><trkpt lat="45.74419370595593" lon="10.169640156609626"><ele>1454.0</ele><time>2026-03-15T15:51:08.998Z</time></trkpt><trkpt lat="45.74424250438794" lon="10.169529275817148"><ele>1455.8000000000002</ele><time>2026-03-15T15:51:10.998Z</time></trkpt><trkpt lat="45.744290709884474" lon="10.169420400984501"><ele>1457.6000000000001</ele><time>2026-03-15T15:51:12.998Z</time></trkpt><trkpt lat="45.744382784164955" lon="10.169317597343634"><ele>1459.4</ele><time>2026-03-15T15:51:14.998Z</time></trkpt><trkpt lat="45.744450822752114" lon="10.169181783687225"><ele>1461.2</ele><time>2026-03-15T15:51:16.998Z</time></trkpt><trkpt lat="45.74452949788787" lon="10.169064795145516"><ele>1463.0</ele><time>2026-03-15T15:51:18.998Z</time></trkpt><trkpt lat="45.744616269069084" lon="10.168956294941795"><ele>1463.0</ele><time>2026-03-15T15:51:20.998Z</time></trkpt><trkpt lat="45.74469064068497" lon="10.16883562737538"><ele>1463.0</ele><time>2026-03-15T15:51:22.998Z</time></trkpt><trkpt lat="45.74474110277641" lon="10.168707046280067"><ele>1463.0</ele><time>2026-03-15T15:51:24.998Z</time></trkpt><trkpt lat="45.74470891689743" lon="10.168550437937373"><ele>1463.0</ele><time>2026-03-15T15:51:26.997Z</time></trkpt><trkpt lat="45.74461393275073" lon="10.168452518007275"><ele>1463.0</ele><time>2026-03-15T15:51:28.997Z</time></trkpt><trkpt lat="45.74452681447525" lon="10.168372987353315"><ele>1463.0</ele><time>2026-03-15T15:51:30.997Z</time></trkpt><trkpt lat="45.74447245818151" lon="10.168289885964999"><ele>1463.0</ele><time>2026-03-15T15:51:32.997Z</time></trkpt><trkpt lat="45.74445309728074" lon="10.168197441441162"><ele>1463.0</ele><time>2026-03-15T15:51:35.997Z</time></trkpt><trkpt lat="45.74444617811221" lon="10.168068430163174"><ele>1463.0</ele><time>2026-03-15T15:51:37.997Z</time></trkpt><trkpt lat="45.74444211715019" lon="10.167896409657466"><ele>1463.0</ele><time>2026-03-15T15:51:39.997Z</time></trkpt><trkpt lat="45.74443619140224" lon="10.16779831953125"><ele>1463.0</ele><time>2026-03-15T15:51:40.997Z</time></trkpt><trkpt lat="45.74442982156408" lon="10.167700679869478"><ele>1466.25</ele><time>2026-03-15T15:51:41.997Z</time></trkpt><trkpt lat="45.74442311856244" lon="10.16759987439054"><ele>1469.5</ele><time>2026-03-15T15:51:44Z</time></trkpt><trkpt lat="45.74440772939329" lon="10.167317266920564"><ele>1472.75</ele><time>2026-03-15T15:51:46Z</time></trkpt><trkpt lat="45.744385404371975" lon="10.167173326316837"><ele>1476.0</ele><time>2026-03-15T15:51:48Z</time></trkpt><trkpt lat="45.74429554800387" lon="10.167096293188143"><ele>1469.1666666666667</ele><time>2026-03-15T15:51:49Z</time></trkpt><trkpt lat="45.74425858338293" lon="10.167003476523623"><ele>1462.3333333333333</ele><time>2026-03-15T15:51:50Z</time></trkpt><trkpt lat="45.744194569365455" lon="10.166874989789084"><ele>1455.5</ele><time>2026-03-15T15:51:52Z</time></trkpt><trkpt lat="45.744158657045354" lon="10.166798529584419"><ele>1448.6666666666665</ele><time>2026-03-15T15:51:53Z</time></trkpt><trkpt lat="45.744123549077926" lon="10.16671666369252"><ele>1441.8333333333333</ele><time>2026-03-15T15:51:54Z</time></trkpt><trkpt lat="45.74409655672672" lon="10.16663256637371"><ele>1435.0</ele><time>2026-03-15T15:51:55Z</time></trkpt><trkpt lat="45.74407817184783" lon="10.166428593196203"><ele>1435.0</ele><time>2026-03-15T15:51:57Z</time></trkpt><trkpt lat="45.74406141868475" lon="10.166339516013025"><ele>1435.0</ele><time>2026-03-15T15:51:58Z</time></trkpt><trkpt lat="45.74406840718308" lon="10.16623945916079"><ele>1435.0</ele><time>2026-03-15T15:51:59Z</time></trkpt><trkpt lat="45.744067743186456" lon="10.166132053985176"><ele>1435.0</ele><time>2026-03-15T15:52:00Z</time></trkpt><trkpt lat="45.74406120615933" lon="10.165996058421879"><ele>1435.0</ele><time>2026-03-15T15:52:02Z</time></trkpt><trkpt lat="45.744012346942135" lon="10.165829113701225"><ele>1435.0</ele><time>2026-03-15T15:52:04Z</time></trkpt><trkpt lat="45.74399678971663" lon="10.165696243645268"><ele>1435.0</ele><time>2026-03-15T15:52:06Z</time></trkpt><trkpt lat="45.7439147800182" lon="10.165638876505238"><ele>1435.0</ele><time>2026-03-15T15:52:08Z</time></trkpt><trkpt lat="45.74387644106515" lon="10.165744762261067"><ele>1435.0</ele><time>2026-03-15T15:52:10Z</time></trkpt><trkpt lat="45.743869761501855" lon="10.16586564366659"><ele>1435.0</ele><time>2026-03-15T15:52:12Z</time></trkpt><trkpt lat="45.7438844847565" lon="10.166018093713687"><ele>1435.0</ele><time>2026-03-15T15:52:14Z</time></trkpt><trkpt lat="45.743888992061784" lon="10.166118599343525"><ele>1435.0</ele><time>2026-03-15T15:52:16Z</time></trkpt><trkpt lat="45.74387918405455" lon="10.166251957633722"><ele>1435.0</ele><time>2026-03-15T15:52:18Z</time></trkpt><trkpt lat="45.743869271672054" lon="10.166350461711463"><ele>1435.0</ele><time>2026-03-15T15:52:19Z</time></trkpt><trkpt lat="45.74385305431607" lon="10.166489628843374"><ele>1435.0</ele><time>2026-03-15T15:52:20.999Z</time></trkpt><trkpt lat="45.743850991031856" lon="10.166630669452738"><ele>1435.0</ele><time>2026-03-15T15:52:22.999Z</time></trkpt><trkpt lat="45.74387274058167" lon="10.166785206707551"><ele>1435.0</ele><time>2026-03-15T15:52:24.999Z</time></trkpt><trkpt lat="45.743891694786385" lon="10.166883097335504"><ele>1435.0</ele><time>2026-03-15T15:52:25.999Z</time></trkpt><trkpt lat="45.74390974888969" lon="10.166990514932525"><ele>1433.8333333333333</ele><time>2026-03-15T15:52:26.999Z</time></trkpt><trkpt lat="45.74393660213275" lon="10.16713384032883"><ele>1432.6666666666665</ele><time>2026-03-15T15:52:28.999Z</time></trkpt><trkpt lat="45.74398688981499" lon="10.16724829377478"><ele>1431.5</ele><time>2026-03-15T15:52:30.999Z</time></trkpt><trkpt lat="45.744015512398704" lon="10.167360914265851"><ele>1430.3333333333333</ele><time>2026-03-15T15:52:32.999Z</time></trkpt><trkpt lat="45.743981422354835" lon="10.167460323576062"><ele>1429.1666666666667</ele><time>2026-03-15T15:52:34.999Z</time></trkpt><trkpt lat="45.74394445945028" lon="10.167359531555073"><ele>1428.0</ele><time>2026-03-15T15:52:36.999Z</time></trkpt><trkpt lat="45.74390473326514" lon="10.167237273488903"><ele>1428.0</ele><time>2026-03-15T15:52:40.999Z</time></trkpt><trkpt lat="45.7438409153574" lon="10.167122568707173"><ele>1428.0</ele><time>2026-03-15T15:52:42.999Z</time></trkpt><trkpt lat="45.74378015666287" lon="10.167012949662956"><ele>1428.0</ele><time>2026-03-15T15:52:44.999Z</time></trkpt><trkpt lat="45.74373050569481" lon="10.166914010872572"><ele>1428.0</ele><time>2026-03-15T15:52:46.999Z</time></trkpt><trkpt lat="45.743682820813866" lon="10.166772220877311"><ele>1428.0</ele><time>2026-03-15T15:52:48.999Z</time></trkpt><trkpt lat="45.74366353522957" lon="10.166684561172415"><ele>1428.0</ele><time>2026-03-15T15:52:49.999Z</time></trkpt><trkpt lat="45.74364761225447" lon="10.16659531455315"><ele>1428.0</ele><time>2026-03-15T15:52:50.999Z</time></trkpt><trkpt lat="45.74363068080286" lon="10.166502989335996"><ele>1428.0</ele><time>2026-03-15T15:52:51.999Z</time></trkpt><trkpt lat="45.74360500766983" lon="10.166360733623508"><ele>1428.0</ele><time>2026-03-15T15:52:53.999Z</time></trkpt><trkpt lat="45.743587982230224" lon="10.166269675633432"><ele>1428.0</ele><time>2026-03-15T15:52:54.999Z</time></trkpt><trkpt lat="45.74355398482961" lon="10.166091638169963"><ele>1428.0</ele><time>2026-03-15T15:52:56.999Z</time></trkpt><trkpt lat="45.74351149377661" lon="10.165947391752072"><ele>1424.8000000000002</ele><time>2026-03-15T15:52:58.999Z</time></trkpt><trkpt lat="45.743412106391965" lon="10.16584255764027"><ele>1421.6</ele><time>2026-03-15T15:53:00.998Z</time></trkpt><trkpt lat="45.74336258145425" lon="10.165754841781835"><ele>1418.4</ele><time>2026-03-15T15:53:01.998Z</time></trkpt><trkpt lat="45.74331624777046" lon="10.165688452728293"><ele>1415.1999999999998</ele><time>2026-03-15T15:53:02.998Z</time></trkpt><trkpt lat="45.743230600761585" lon="10.165596508418995"><ele>1412.0</ele><time>2026-03-15T15:53:04.998Z</time></trkpt><trkpt lat="45.74316410287074" lon="10.165471346433351"><ele>1412.0</ele><time>2026-03-15T15:53:06.998Z</time></trkpt><trkpt lat="45.74313160356712" lon="10.165388112512947"><ele>1412.0</ele><time>2026-03-15T15:53:07.998Z</time></trkpt><trkpt lat="45.74308144412047" lon="10.16533131853362"><ele>1412.0</ele><time>2026-03-15T15:53:08.998Z</time></trkpt><trkpt lat="45.74303263062142" lon="10.16526067622898"><ele>1412.0</ele><time>2026-03-15T15:53:09.998Z</time></trkpt><trkpt lat="45.742989124284435" lon="10.165184555283156"><ele>1412.0</ele><time>2026-03-15T15:53:10.998Z</time></trkpt><trkpt lat="45.742932057879734" lon="10.165141352806883"><ele>1412.0</ele><time>2026-03-15T15:53:11.998Z</time></trkpt><trkpt lat="45.74286335706709" lon="10.165102838920223"><ele>1412.0</ele><time>2026-03-15T15:53:12.998Z</time></trkpt><trkpt lat="45.742785473228054" lon="10.165073363438035"><ele>1412.0</ele><time>2026-03-15T15:53:13.998Z</time></trkpt><trkpt lat="45.74271467537198" lon="10.165052333454062"><ele>1412.0</ele><time>2026-03-15T15:53:14.998Z</time></trkpt><trkpt lat="45.74263490674809" lon="10.165031865100032"><ele>1412.0</ele><time>2026-03-15T15:53:15.998Z</time></trkpt><trkpt lat="45.74256105009751" lon="10.165016989804572"><ele>1412.0</ele><time>2026-03-15T15:53:16.998Z</time></trkpt><trkpt lat="45.742496471417525" lon="10.16500839879198"><ele>1412.0</ele><time>2026-03-15T15:53:17.998Z</time></trkpt><trkpt lat="45.74242374849901" lon="10.16500024010627"><ele>1412.0</ele><time>2026-03-15T15:53:18.998Z</time></trkpt><trkpt lat="45.74235080315011" lon="10.164993978125025"><ele>1412.0</ele><time>2026-03-15T15:53:19.998Z</time></trkpt><trkpt lat="45.74223994816126" lon="10.164989398874264"><ele>1406.8333333333335</ele><time>2026-03-15T15:53:21.998Z</time></trkpt><trkpt lat="45.74215392280278" lon="10.165018012448904"><ele>1401.6666666666667</ele><time>2026-03-15T15:53:22.998Z</time></trkpt><trkpt lat="45.74206672053263" lon="10.165015796022454"><ele>1396.5</ele><time>2026-03-15T15:53:23.998Z</time></trkpt><trkpt lat="45.742002029879984" lon="10.165016576640246"><ele>1391.3333333333333</ele><time>2026-03-15T15:53:24.998Z</time></trkpt><trkpt lat="45.74192797732769" lon="10.16501414088409"><ele>1386.1666666666665</ele><time>2026-03-15T15:53:25.998Z</time></trkpt><trkpt lat="45.74185872894519" lon="10.165015363544873"><ele>1381.0</ele><time>2026-03-15T15:53:26.998Z</time></trkpt><trkpt lat="45.741787986938455" lon="10.16500055141972"><ele>1381.5714285714287</ele><time>2026-03-15T15:53:27.998Z</time></trkpt><trkpt lat="45.74171484015008" lon="10.164963722865336"><ele>1382.142857142857</ele><time>2026-03-15T15:53:28.998Z</time></trkpt><trkpt lat="45.74163891709883" lon="10.16493878111788"><ele>1382.7142857142858</ele><time>2026-03-15T15:53:29.998Z</time></trkpt><trkpt lat="45.7415677983233" lon="10.164908322786896"><ele>1383.2857142857142</ele><time>2026-03-15T15:53:30.998Z</time></trkpt><trkpt lat="45.7415027451535" lon="10.164876926258053"><ele>1383.857142857143</ele><time>2026-03-15T15:53:31.998Z</time></trkpt><trkpt lat="45.74144634012958" lon="10.164826568406168"><ele>1384.4285714285713</ele><time>2026-03-15T15:53:32.998Z</time></trkpt><trkpt lat="45.741395934384656" lon="10.164762206196038"><ele>1385.0</ele><time>2026-03-15T15:53:33.998Z</time></trkpt><trkpt lat="45.741336861297405" lon="10.164681725684963"><ele>1385.0</ele><time>2026-03-15T15:53:34.998Z</time></trkpt><trkpt lat="45.741278244587974" lon="10.16458986668665"><ele>1385.0</ele><time>2026-03-15T15:53:35.998Z</time></trkpt><trkpt lat="45.741211246702235" lon="10.164505708528118"><ele>1385.0</ele><time>2026-03-15T15:53:36.998Z</time></trkpt><trkpt lat="45.741148719418874" lon="10.164386643035469"><ele>1385.0</ele><time>2026-03-15T15:53:37.998Z</time></trkpt><trkpt lat="45.741103102938894" lon="10.164306338940746"><ele>1385.0</ele><time>2026-03-15T15:53:38.998Z</time></trkpt><trkpt lat="45.7410541673918" lon="10.16424494275306"><ele>1385.0</ele><time>2026-03-15T15:53:39.998Z</time></trkpt><trkpt lat="45.740996943790265" lon="10.164190420849973"><ele>1378.8333333333335</ele><time>2026-03-15T15:53:40.998Z</time></trkpt><trkpt lat="45.740930245267" lon="10.164143231495489"><ele>1372.6666666666667</ele><time>2026-03-15T15:53:41.998Z</time></trkpt><trkpt lat="45.74084151334295" lon="10.164075976105467"><ele>1366.5</ele><time>2026-03-15T15:53:43.997Z</time></trkpt><trkpt lat="45.740803735936" lon="10.163995478988465"><ele>1360.3333333333333</ele><time>2026-03-15T15:53:45.997Z</time></trkpt><trkpt lat="45.740800635492164" lon="10.163833358120096"><ele>1354.1666666666665</ele><time>2026-03-15T15:53:47.997Z</time></trkpt><trkpt lat="45.74080041547636" lon="10.16371285528306"><ele>1348.0</ele><time>2026-03-15T15:53:49Z</time></trkpt><trkpt lat="45.74082384163678" lon="10.163595159377879"><ele>1347.8000000000002</ele><time>2026-03-15T15:53:50Z</time></trkpt><trkpt lat="45.74084949223033" lon="10.163470067983337"><ele>1347.6</ele><time>2026-03-15T15:53:51Z</time></trkpt><trkpt lat="45.740886353138" lon="10.163375842132378"><ele>1347.4</ele><time>2026-03-15T15:53:52Z</time></trkpt><trkpt lat="45.74093227189919" lon="10.163215794259699"><ele>1347.1999999999998</ele><time>2026-03-15T15:53:54Z</time></trkpt><trkpt lat="45.74096502916982" lon="10.163125816630851"><ele>1347.0</ele><time>2026-03-15T15:53:55Z</time></trkpt><trkpt lat="45.741002976317596" lon="10.16294020519461"><ele>1350.0</ele><time>2026-03-15T15:53:57Z</time></trkpt><trkpt lat="45.74102486827578" lon="10.162830848823425"><ele>1353.0</ele><time>2026-03-15T15:53:58Z</time></trkpt><trkpt lat="45.741069534076836" lon="10.16267726526823"><ele>1356.0</ele><time>2026-03-15T15:54:00Z</time></trkpt><trkpt lat="45.74107465760334" lon="10.162582167010813"><ele>1359.0</ele><time>2026-03-15T15:54:01Z</time></trkpt><trkpt lat="45.74112971010794" lon="10.162445407929749"><ele>1362.0</ele><time>2026-03-15T15:54:03Z</time></trkpt><trkpt lat="45.741223321737955" lon="10.162374380952606"><ele>1354.0</ele><time>2026-03-15T15:54:05Z</time></trkpt><trkpt lat="45.74129019382317" lon="10.16232722275101"><ele>1346.0</ele><time>2026-03-15T15:54:07Z</time></trkpt><trkpt lat="45.741274186148104" lon="10.162181454085259"><ele>1338.0</ele><time>2026-03-15T15:54:09Z</time></trkpt><trkpt lat="45.7411385776103" lon="10.162171296547763"><ele>1330.0</ele><time>2026-03-15T15:54:11Z</time></trkpt><trkpt lat="45.741065550718766" lon="10.16220026907537"><ele>1322.0</ele><time>2026-03-15T15:54:12Z</time></trkpt><trkpt lat="45.74096031076908" lon="10.162239969465121"><ele>1322.0</ele><time>2026-03-15T15:54:14Z</time></trkpt><trkpt lat="45.74093732663381" lon="10.162150158884819"><ele>1322.0</ele><time>2026-03-15T15:54:18Z</time></trkpt><trkpt lat="45.74101408420577" lon="10.162108702200292"><ele>1322.0</ele><time>2026-03-15T15:54:20Z</time></trkpt><trkpt lat="45.741077908180586" lon="10.162105205643797"><ele>1322.0</ele><time>2026-03-15T15:54:21Z</time></trkpt><trkpt lat="45.74119783040347" lon="10.162079992526492"><ele>1322.0</ele><time>2026-03-15T15:54:23Z</time></trkpt><trkpt lat="45.74126025034092" lon="10.16205703531613"><ele>1322.0</ele><time>2026-03-15T15:54:24Z</time></trkpt><trkpt lat="45.741330411596316" lon="10.162030677899823"><ele>1322.0</ele><time>2026-03-15T15:54:25Z</time></trkpt><trkpt lat="45.74145180788261" lon="10.161993714901763"><ele>1322.0</ele><time>2026-03-15T15:54:27Z</time></trkpt><trkpt lat="45.74152752430073" lon="10.161978259569564"><ele>1322.0</ele><time>2026-03-15T15:54:28Z</time></trkpt><trkpt lat="45.74159747004399" lon="10.161937901260515"><ele>1322.0</ele><time>2026-03-15T15:54:29Z</time></trkpt><trkpt lat="45.741663642692025" lon="10.161884886504534"><ele>1322.0</ele><time>2026-03-15T15:54:30Z</time></trkpt><trkpt lat="45.74172792533629" lon="10.16184608372563"><ele>1322.0</ele><time>2026-03-15T15:54:31Z</time></trkpt><trkpt lat="45.74180241613388" lon="10.161813246782208"><ele>1322.0</ele><time>2026-03-15T15:54:32Z</time></trkpt><trkpt lat="45.74187331629161" lon="10.161799490678062"><ele>1322.0</ele><time>2026-03-15T15:54:33Z</time></trkpt><trkpt lat="45.74194011259866" lon="10.16176810116919"><ele>1322.0</ele><time>2026-03-15T15:54:34Z</time></trkpt><trkpt lat="45.742018269465426" lon="10.161743346804522"><ele>1322.0</ele><time>2026-03-15T15:54:35Z</time></trkpt><trkpt lat="45.74210870633993" lon="10.16171979773702"><ele>1322.0</ele><time>2026-03-15T15:54:36Z</time></trkpt><trkpt lat="45.74219082609447" lon="10.161687343241045"><ele>1322.0</ele><time>2026-03-15T15:54:36.999Z</time></trkpt><trkpt lat="45.74227614663386" lon="10.161659740072794"><ele>1322.5</ele><time>2026-03-15T15:54:37.999Z</time></trkpt><trkpt lat="45.74234827178731" lon="10.161650051562756"><ele>1323.0</ele><time>2026-03-15T15:54:38.999Z</time></trkpt><trkpt lat="45.74243000304628" lon="10.161635904281644"><ele>1323.5</ele><time>2026-03-15T15:54:39.999Z</time></trkpt><trkpt lat="45.74252187186373" lon="10.161615147180807"><ele>1324.0</ele><time>2026-03-15T15:54:40.999Z</time></trkpt><trkpt lat="45.742603761798236" lon="10.16157806743967"><ele>1324.5</ele><time>2026-03-15T15:54:41.999Z</time></trkpt><trkpt lat="45.74267629481262" lon="10.161558538641955"><ele>1325.0</ele><time>2026-03-15T15:54:42.999Z</time></trkpt><trkpt lat="45.742746200767016" lon="10.161474441178761"><ele>1329.4</ele><time>2026-03-15T15:54:43.999Z</time></trkpt><trkpt lat="45.74281604843424" lon="10.16134990852467"><ele>1333.8</ele><time>2026-03-15T15:54:44.999Z</time></trkpt><trkpt lat="45.7428620260048" lon="10.161224451882982"><ele>1338.1999999999998</ele><time>2026-03-15T15:54:45.999Z</time></trkpt><trkpt lat="45.74288803487649" lon="10.16112786880429"><ele>1342.6</ele><time>2026-03-15T15:54:46.999Z</time></trkpt><trkpt lat="45.74291253507209" lon="10.161006030749933"><ele>1347.0</ele><time>2026-03-15T15:54:47.999Z</time></trkpt><trkpt lat="45.742928543820604" lon="10.16089346414272"><ele>1347.0</ele><time>2026-03-15T15:54:48.999Z</time></trkpt><trkpt lat="45.74294244787606" lon="10.16078213010758"><ele>1347.0</ele><time>2026-03-15T15:54:49.999Z</time></trkpt><trkpt lat="45.74295007776826" lon="10.16067443663059"><ele>1347.0</ele><time>2026-03-15T15:54:50.999Z</time></trkpt><trkpt lat="45.742956154373736" lon="10.160561506475103"><ele>1347.0</ele><time>2026-03-15T15:54:51.999Z</time></trkpt><trkpt lat="45.74300292817629" lon="10.160376903854576"><ele>1347.0</ele><time>2026-03-15T15:54:53.999Z</time></trkpt><trkpt lat="45.74304040387444" lon="10.160289929892292"><ele>1347.0</ele><time>2026-03-15T15:54:54.999Z</time></trkpt><trkpt lat="45.74305718760471" lon="10.160187381326645"><ele>1346.1999999999998</ele><time>2026-03-15T15:54:55.999Z</time></trkpt><trkpt lat="45.7430310878575" lon="10.160079207748224"><ele>1345.4</ele><time>2026-03-15T15:54:56.999Z</time></trkpt><trkpt lat="45.74294746625831" lon="10.15997149379008"><ele>1344.6</ele><time>2026-03-15T15:54:57.999Z</time></trkpt><trkpt lat="45.74286419763051" lon="10.15985438074054"><ele>1343.8000000000002</ele><time>2026-03-15T15:54:58.999Z</time></trkpt><trkpt lat="45.74277248845434" lon="10.15974407540233"><ele>1343.0</ele><time>2026-03-15T15:54:59.999Z</time></trkpt><trkpt lat="45.7426929985492" lon="10.159668497833977"><ele>1336.6666666666667</ele><time>2026-03-15T15:55:00.999Z</time></trkpt><trkpt lat="45.742623931757144" lon="10.159609900266485"><ele>1330.3333333333335</ele><time>2026-03-15T15:55:01.999Z</time></trkpt><trkpt lat="45.742543674373714" lon="10.159511763659191"><ele>1324.0</ele><time>2026-03-15T15:55:03.999Z</time></trkpt><trkpt lat="45.74250228743818" lon="10.159442784179895"><ele>1317.6666666666667</ele><time>2026-03-15T15:55:04.999Z</time></trkpt><trkpt lat="45.74245853164418" lon="10.159348262732932"><ele>1311.3333333333333</ele><time>2026-03-15T15:55:05.999Z</time></trkpt><trkpt lat="45.74246766354179" lon="10.15920208511631"><ele>1305.0</ele><time>2026-03-15T15:55:07.999Z</time></trkpt><trkpt lat="45.742527403674096" lon="10.159001869627101"><ele>1305.0</ele><time>2026-03-15T15:55:09.999Z</time></trkpt><trkpt lat="45.74253924816337" lon="10.158895532899072"><ele>1305.0</ele><time>2026-03-15T15:55:10.999Z</time></trkpt><trkpt lat="45.74255529350056" lon="10.158775833214222"><ele>1305.0</ele><time>2026-03-15T15:55:11.999Z</time></trkpt><trkpt lat="45.74257974959026" lon="10.158667923100941"><ele>1305.0</ele><time>2026-03-15T15:55:12.999Z</time></trkpt><trkpt lat="45.742579665601596" lon="10.158530802399717"><ele>1305.0</ele><time>2026-03-15T15:55:13.999Z</time></trkpt><trkpt lat="45.74256734702866" lon="10.158399860698346"><ele>1305.0</ele><time>2026-03-15T15:55:14.999Z</time></trkpt><trkpt lat="45.74254054792086" lon="10.158267662245612"><ele>1309.3333333333333</ele><time>2026-03-15T15:55:15.999Z</time></trkpt><trkpt lat="45.742488358341" lon="10.158151167581106"><ele>1313.6666666666665</ele><time>2026-03-15T15:55:16.999Z</time></trkpt><trkpt lat="45.7423889214334" lon="10.158022772454117"><ele>1318.0</ele><time>2026-03-15T15:55:18.998Z</time></trkpt><trkpt lat="45.742168017802335" lon="10.157911560290538"><ele>1318.0</ele><time>2026-03-15T15:55:22.998Z</time></trkpt><trkpt lat="45.74212229193978" lon="10.157839496902106"><ele>1318.0</ele><time>2026-03-15T15:55:23.998Z</time></trkpt><trkpt lat="45.74211377944656" lon="10.15769589251938"><ele>1318.0</ele><time>2026-03-15T15:55:25.998Z</time></trkpt><trkpt lat="45.74216215617833" lon="10.157478939622509"><ele>1318.0</ele><time>2026-03-15T15:55:27.998Z</time></trkpt><trkpt lat="45.74218196610355" lon="10.157335754121158"><ele>1318.0</ele><time>2026-03-15T15:55:29.997Z</time></trkpt><trkpt lat="45.7421582596375" lon="10.157203440973113"><ele>1323.6000000000001</ele><time>2026-03-15T15:55:30.997Z</time></trkpt><trkpt lat="45.742109983283505" lon="10.157106716560136"><ele>1329.2</ele><time>2026-03-15T15:55:31.997Z</time></trkpt><trkpt lat="45.74199489752164" lon="10.157010111888303"><ele>1334.8</ele><time>2026-03-15T15:55:32.997Z</time></trkpt><trkpt lat="45.74191863247151" lon="10.156952881290781"><ele>1340.4</ele><time>2026-03-15T15:55:33.997Z</time></trkpt><trkpt lat="45.741853476707504" lon="10.15689716716234"><ele>1346.0</ele><time>2026-03-15T15:55:34.997Z</time></trkpt><trkpt lat="45.74178179099007" lon="10.156786879325997"><ele>1338.8333333333335</ele><time>2026-03-15T15:55:36.997Z</time></trkpt><trkpt lat="45.74174697078778" lon="10.156692011891874"><ele>1331.6666666666667</ele><time>2026-03-15T15:55:37.997Z</time></trkpt><trkpt lat="45.74170593361908" lon="10.15656414480629"><ele>1324.5</ele><time>2026-03-15T15:55:38.997Z</time></trkpt><trkpt lat="45.74167804826612" lon="10.156468386389609"><ele>1317.3333333333333</ele><time>2026-03-15T15:55:39.997Z</time></trkpt><trkpt lat="45.74165305931187" lon="10.156372751402145"><ele>1310.1666666666665</ele><time>2026-03-15T15:55:40.997Z</time></trkpt><trkpt lat="45.74162950333147" lon="10.156270470128424"><ele>1303.0</ele><time>2026-03-15T15:55:41.997Z</time></trkpt><trkpt lat="45.741609229538454" lon="10.15617566751334"><ele>1303.0</ele><time>2026-03-15T15:55:42.997Z</time></trkpt><trkpt lat="45.74158986227799" lon="10.156076567963972"><ele>1303.0</ele><time>2026-03-15T15:55:43.997Z</time></trkpt><trkpt lat="45.74157264689889" lon="10.155968864526486"><ele>1303.0</ele><time>2026-03-15T15:55:44.997Z</time></trkpt><trkpt lat="45.74156205489212" lon="10.155871831653682"><ele>1303.0</ele><time>2026-03-15T15:55:45.997Z</time></trkpt><trkpt lat="45.741547627835295" lon="10.155780966988708"><ele>1303.0</ele><time>2026-03-15T15:55:46.997Z</time></trkpt><trkpt lat="45.74152352601995" lon="10.15568980808764"><ele>1303.0</ele><time>2026-03-15T15:55:47.997Z</time></trkpt><trkpt lat="45.741501028336536" lon="10.155547326830966"><ele>1305.4</ele><time>2026-03-15T15:55:48.997Z</time></trkpt><trkpt lat="45.7414497295562" lon="10.1553866182478"><ele>1307.8000000000002</ele><time>2026-03-15T15:55:49.997Z</time></trkpt><trkpt lat="45.74137775600075" lon="10.155262853219506"><ele>1310.2</ele><time>2026-03-15T15:55:50.997Z</time></trkpt><trkpt lat="45.741306628215185" lon="10.155165981932903"><ele>1312.6</ele><time>2026-03-15T15:55:51.997Z</time></trkpt><trkpt lat="45.74123618801761" lon="10.155081061206957"><ele>1315.0</ele><time>2026-03-15T15:55:52.997Z</time></trkpt><trkpt lat="45.74117155294485" lon="10.155002283329619"><ele>1315.0</ele><time>2026-03-15T15:55:53.997Z</time></trkpt><trkpt lat="45.74111463570377" lon="10.154929279341768"><ele>1315.0</ele><time>2026-03-15T15:55:55Z</time></trkpt><trkpt lat="45.74105774234409" lon="10.154841610121728"><ele>1315.0</ele><time>2026-03-15T15:55:56Z</time></trkpt><trkpt lat="45.74101366180302" lon="10.15476829498281"><ele>1315.0</ele><time>2026-03-15T15:55:57Z</time></trkpt><trkpt lat="45.74096701490252" lon="10.1546828083983"><ele>1315.0</ele><time>2026-03-15T15:55:58Z</time></trkpt><trkpt lat="45.740910341156436" lon="10.154563612904237"><ele>1315.0</ele><time>2026-03-15T15:55:59Z</time></trkpt><trkpt lat="45.74087338600469" lon="10.154456052552256"><ele>1305.4</ele><time>2026-03-15T15:56:00Z</time></trkpt><trkpt lat="45.7408524425571" lon="10.154352943933587"><ele>1295.8</ele><time>2026-03-15T15:56:01Z</time></trkpt><trkpt lat="45.74083464296799" lon="10.154184565732153"><ele>1286.2</ele><time>2026-03-15T15:56:03Z</time></trkpt><trkpt lat="45.74081451122392" lon="10.154045263297489"><ele>1276.6</ele><time>2026-03-15T15:56:05Z</time></trkpt><trkpt lat="45.740737225841855" lon="10.15398014615525"><ele>1267.0</ele><time>2026-03-15T15:56:06Z</time></trkpt><trkpt lat="45.74066908581444" lon="10.15404390916492"><ele>1267.0</ele><time>2026-03-15T15:56:07Z</time></trkpt><trkpt lat="45.74067027569108" lon="10.154155613188015"><ele>1267.0</ele><time>2026-03-15T15:56:08Z</time></trkpt><trkpt lat="45.740707127654105" lon="10.15430757764085"><ele>1267.0</ele><time>2026-03-15T15:56:10Z</time></trkpt><trkpt lat="45.74070063183745" lon="10.154398326710133"><ele>1267.0</ele><time>2026-03-15T15:56:10.999Z</time></trkpt><trkpt lat="45.74071153694972" lon="10.154512836792183"><ele>1267.0</ele><time>2026-03-15T15:56:11.999Z</time></trkpt><trkpt lat="45.74071181666" lon="10.15463220788871"><ele>1267.0</ele><time>2026-03-15T15:56:12.999Z</time></trkpt><trkpt lat="45.740737942240564" lon="10.154750397205081"><ele>1264.4</ele><time>2026-03-15T15:56:13.999Z</time></trkpt><trkpt lat="45.74077634763485" lon="10.154891611174921"><ele>1261.8000000000002</ele><time>2026-03-15T15:56:14.999Z</time></trkpt><trkpt lat="45.74079534876475" lon="10.154999422107995"><ele>1259.2</ele><time>2026-03-15T15:56:15.999Z</time></trkpt><trkpt lat="45.74083239694488" lon="10.155131699982269"><ele>1256.6000000000001</ele><time>2026-03-15T15:56:17.999Z</time></trkpt><trkpt lat="45.74088105927658" lon="10.155258264460114"><ele>1254.0</ele><time>2026-03-15T15:56:19.999Z</time></trkpt><trkpt lat="45.7409244969682" lon="10.155379172070894"><ele>1254.0</ele><time>2026-03-15T15:56:21.999Z</time></trkpt><trkpt lat="45.74095790983799" lon="10.155513798690732"><ele>1254.0</ele><time>2026-03-15T15:56:23.999Z</time></trkpt><trkpt lat="45.740998802157094" lon="10.155661894829432"><ele>1254.0</ele><time>2026-03-15T15:56:25.999Z</time></trkpt><trkpt lat="45.741016199660535" lon="10.155755630534385"><ele>1254.0</ele><time>2026-03-15T15:56:26.999Z</time></trkpt><trkpt lat="45.74102537745265" lon="10.155926547933209"><ele>1254.0</ele><time>2026-03-15T15:56:28.999Z</time></trkpt><trkpt lat="45.74100323161768" lon="10.156042659823308"><ele>1250.8333333333333</ele><time>2026-03-15T15:56:29.999Z</time></trkpt><trkpt lat="45.74097488304048" lon="10.15617611129464"><ele>1247.6666666666667</ele><time>2026-03-15T15:56:30.999Z</time></trkpt><trkpt lat="45.74095077905855" lon="10.15632845001006"><ele>1244.5</ele><time>2026-03-15T15:56:31.999Z</time></trkpt><trkpt lat="45.74093519304549" lon="10.156456834948003"><ele>1241.3333333333335</ele><time>2026-03-15T15:56:32.999Z</time></trkpt><trkpt lat="45.74092309946958" lon="10.156564297578177"><ele>1238.1666666666667</ele><time>2026-03-15T15:56:33.999Z</time></trkpt><trkpt lat="45.74092748880819" lon="10.156673011881226"><ele>1235.0</ele><time>2026-03-15T15:56:34.999Z</time></trkpt><trkpt lat="45.740934554844" lon="10.156800724664706"><ele>1234.0</ele><time>2026-03-15T15:56:35.999Z</time></trkpt><trkpt lat="45.74094509019129" lon="10.15690782360365"><ele>1233.0</ele><time>2026-03-15T15:56:36.999Z</time></trkpt><trkpt lat="45.74095593175268" lon="10.157022471045538"><ele>1232.0</ele><time>2026-03-15T15:56:37.999Z</time></trkpt><trkpt lat="45.74099295132481" lon="10.157127667961626"><ele>1231.0</ele><time>2026-03-15T15:56:38.999Z</time></trkpt><trkpt lat="45.74102943578321" lon="10.157227309375772"><ele>1230.0</ele><time>2026-03-15T15:56:39.999Z</time></trkpt><trkpt lat="45.74107782069219" lon="10.157295726395434"><ele>1229.0</ele><time>2026-03-15T15:56:40.999Z</time></trkpt><trkpt lat="45.74117393662703" lon="10.157422635117058"><ele>1234.1666666666667</ele><time>2026-03-15T15:56:42.999Z</time></trkpt><trkpt lat="45.74121578204376" lon="10.157500562956457"><ele>1239.3333333333335</ele><time>2026-03-15T15:56:43.999Z</time></trkpt><trkpt lat="45.741263038469505" lon="10.157576940647509"><ele>1244.5</ele><time>2026-03-15T15:56:44.999Z</time></trkpt><trkpt lat="45.74131060062437" lon="10.157654133388265"><ele>1249.6666666666667</ele><time>2026-03-15T15:56:45.999Z</time></trkpt><trkpt lat="45.741369855977474" lon="10.157756233845591"><ele>1254.8333333333333</ele><time>2026-03-15T15:56:46.999Z</time></trkpt><trkpt lat="45.741422218148465" lon="10.15783682794752"><ele>1260.0</ele><time>2026-03-15T15:56:47.999Z</time></trkpt><trkpt lat="45.741442277565376" lon="10.157948631675675"><ele>1260.0</ele><time>2026-03-15T15:56:48.999Z</time></trkpt><trkpt lat="45.74146094072294" lon="10.158059495742338"><ele>1260.0</ele><time>2026-03-15T15:56:49.999Z</time></trkpt><trkpt lat="45.74148713119158" lon="10.158224127194833"><ele>1260.0</ele><time>2026-03-15T15:56:51.999Z</time></trkpt><trkpt lat="45.74151233063018" lon="10.158387038442871"><ele>1260.0</ele><time>2026-03-15T15:56:53.999Z</time></trkpt><trkpt lat="45.741429477290126" lon="10.158445248185208"><ele>1260.0</ele><time>2026-03-15T15:56:55.998Z</time></trkpt><trkpt lat="45.74138163804153" lon="10.15832577838155"><ele>1260.0</ele><time>2026-03-15T15:56:57.998Z</time></trkpt><trkpt lat="45.741370303926665" lon="10.158192028878336"><ele>1260.0</ele><time>2026-03-15T15:56:58.998Z</time></trkpt><trkpt lat="45.741350746106654" lon="10.158080791542423"><ele>1260.0</ele><time>2026-03-15T15:56:59.998Z</time></trkpt><trkpt lat="45.741318917369654" lon="10.157996556418846"><ele>1260.0</ele><time>2026-03-15T15:57:00.998Z</time></trkpt><trkpt lat="45.74126976351387" lon="10.157911939517154"><ele>1260.0</ele><time>2026-03-15T15:57:01.998Z</time></trkpt><trkpt lat="45.741225027800645" lon="10.15782986205298"><ele>1260.0</ele><time>2026-03-15T15:57:02.998Z</time></trkpt><trkpt lat="45.74115011313626" lon="10.157772349271353"><ele>1251.6</ele><time>2026-03-15T15:57:03.998Z</time></trkpt><trkpt lat="45.741041799482126" lon="10.157721520648467"><ele>1243.2</ele><time>2026-03-15T15:57:04.998Z</time></trkpt><trkpt lat="45.74092702015066" lon="10.157655847056063"><ele>1234.8</ele><time>2026-03-15T15:57:05.998Z</time></trkpt><trkpt lat="45.7408406308102" lon="10.157603044671674"><ele>1226.4</ele><time>2026-03-15T15:57:06.998Z</time></trkpt><trkpt lat="45.740774319729596" lon="10.157547743176831"><ele>1218.0</ele><time>2026-03-15T15:57:07.998Z</time></trkpt><trkpt lat="45.74071048957895" lon="10.157475098225534"><ele>1218.0</ele><time>2026-03-15T15:57:08.998Z</time></trkpt><trkpt lat="45.74065317037034" lon="10.15739606457447"><ele>1218.0</ele><time>2026-03-15T15:57:09.998Z</time></trkpt><trkpt lat="45.74059737523045" lon="10.157316829189302"><ele>1218.0</ele><time>2026-03-15T15:57:10.998Z</time></trkpt><trkpt lat="45.74054213899933" lon="10.157237733758778"><ele>1218.0</ele><time>2026-03-15T15:57:11.998Z</time></trkpt><trkpt lat="45.74048030975576" lon="10.157144268027283"><ele>1218.0</ele><time>2026-03-15T15:57:12.998Z</time></trkpt><trkpt lat="45.74041527930889" lon="10.157029376568696"><ele>1218.0</ele><time>2026-03-15T15:57:13.998Z</time></trkpt><trkpt lat="45.74036891035781" lon="10.156932034290511"><ele>1219.8333333333333</ele><time>2026-03-15T15:57:14.998Z</time></trkpt><trkpt lat="45.74033022485059" lon="10.15683533354422"><ele>1221.6666666666667</ele><time>2026-03-15T15:57:15.998Z</time></trkpt><trkpt lat="45.740293598214905" lon="10.156742601370201"><ele>1223.5</ele><time>2026-03-15T15:57:16.998Z</time></trkpt><trkpt lat="45.74024460072802" lon="10.156658642680009"><ele>1225.3333333333335</ele><time>2026-03-15T15:57:17.998Z</time></trkpt><trkpt lat="45.74021861171065" lon="10.156565069300228"><ele>1227.1666666666667</ele><time>2026-03-15T15:57:18.998Z</time></trkpt><trkpt lat="45.740176775940846" lon="10.156471672592078"><ele>1229.0</ele><time>2026-03-15T15:57:19.998Z</time></trkpt><trkpt lat="45.740133173214424" lon="10.156375775190465"><ele>1222.6666666666667</ele><time>2026-03-15T15:57:20.998Z</time></trkpt><trkpt lat="45.74009371360446" lon="10.156289532982203"><ele>1216.3333333333335</ele><time>2026-03-15T15:57:21.998Z</time></trkpt><trkpt lat="45.74004984193674" lon="10.156195814939508"><ele>1210.0</ele><time>2026-03-15T15:57:22.998Z</time></trkpt><trkpt lat="45.73999848295292" lon="10.156096100793988"><ele>1203.6666666666667</ele><time>2026-03-15T15:57:23.998Z</time></trkpt><trkpt lat="45.739949559094526" lon="10.156006772603535"><ele>1197.3333333333333</ele><time>2026-03-15T15:57:24.998Z</time></trkpt><trkpt lat="45.73989851622793" lon="10.155925923512303"><ele>1191.0</ele><time>2026-03-15T15:57:25.998Z</time></trkpt><trkpt lat="45.73984431988412" lon="10.155846362602915"><ele>1191.0</ele><time>2026-03-15T15:57:26.998Z</time></trkpt><trkpt lat="45.73978693923856" lon="10.155770561814403"><ele>1191.0</ele><time>2026-03-15T15:57:27.998Z</time></trkpt><trkpt lat="45.73972815535764" lon="10.15569615682341"><ele>1191.0</ele><time>2026-03-15T15:57:28.998Z</time></trkpt><trkpt lat="45.739667177861556" lon="10.155625517880619"><ele>1191.0</ele><time>2026-03-15T15:57:29.998Z</time></trkpt><trkpt lat="45.73959997579238" lon="10.155550213605482"><ele>1191.0</ele><time>2026-03-15T15:57:30.998Z</time></trkpt><trkpt lat="45.73954060481435" lon="10.155486350201619"><ele>1191.0</ele><time>2026-03-15T15:57:31.998Z</time></trkpt><trkpt lat="45.739468612281776" lon="10.155415463889353"><ele>1192.6666666666667</ele><time>2026-03-15T15:57:32.998Z</time></trkpt><trkpt lat="45.73940273273643" lon="10.155352941757098"><ele>1194.3333333333333</ele><time>2026-03-15T15:57:33.998Z</time></trkpt><trkpt lat="45.73934001676164" lon="10.155297391826618"><ele>1196.0</ele><time>2026-03-15T15:57:34.998Z</time></trkpt><trkpt lat="45.73928097658262" lon="10.155248619540734"><ele>1197.6666666666665</ele><time>2026-03-15T15:57:35.998Z</time></trkpt><trkpt lat="45.739213433324565" lon="10.155204459751197"><ele>1199.3333333333333</ele><time>2026-03-15T15:57:36.997Z</time></trkpt><trkpt lat="45.7391508436522" lon="10.155166536495768"><ele>1201.0</ele><time>2026-03-15T15:57:37.997Z</time></trkpt><trkpt lat="45.73905975880007" lon="10.155104416247656"><ele>1195.3999999999999</ele><time>2026-03-15T15:57:39.997Z</time></trkpt><trkpt lat="45.738974414010585" lon="10.155038485164381"><ele>1189.8</ele><time>2026-03-15T15:57:46.997Z</time></trkpt><trkpt lat="45.73892352611429" lon="10.154911524042955"><ele>1184.1999999999998</ele><time>2026-03-15T15:57:48.997Z</time></trkpt><trkpt lat="45.738907627126544" lon="10.154805634369533"><ele>1178.6</ele><time>2026-03-15T15:57:50.997Z</time></trkpt><trkpt lat="45.73890004174701" lon="10.154706316672005"><ele>1173.0</ele><time>2026-03-15T15:57:54.997Z</time></trkpt><trkpt lat="45.7390010926033" lon="10.15452669005198"><ele>1171.4</ele><time>2026-03-15T15:58:12Z</time></trkpt><trkpt lat="45.7390170336008" lon="10.154404613862685"><ele>1169.8</ele><time>2026-03-15T15:58:13Z</time></trkpt><trkpt lat="45.73906644907897" lon="10.154275468090542"><ele>1168.2</ele><time>2026-03-15T15:58:14Z</time></trkpt><trkpt lat="45.73909972464366" lon="10.154180530257518"><ele>1166.6</ele><time>2026-03-15T15:58:15Z</time></trkpt><trkpt lat="45.73914819206742" lon="10.154016655518005"><ele>1165.0</ele><time>2026-03-15T15:58:17Z</time></trkpt><trkpt lat="45.73916638875538" lon="10.153900637664051"><ele>1162.8333333333333</ele><time>2026-03-15T15:58:18Z</time></trkpt><trkpt lat="45.73918152546049" lon="10.15378067019598"><ele>1160.6666666666665</ele><time>2026-03-15T15:58:19Z</time></trkpt><trkpt lat="45.73919401734502" lon="10.153654419481397"><ele>1158.5</ele><time>2026-03-15T15:58:20Z</time></trkpt><trkpt lat="45.73920624839194" lon="10.153530805261468"><ele>1156.3333333333333</ele><time>2026-03-15T15:58:21Z</time></trkpt><trkpt lat="45.73922603661163" lon="10.153403592203189"><ele>1154.1666666666667</ele><time>2026-03-15T15:58:22Z</time></trkpt><trkpt lat="45.739238826248446" lon="10.153265596492906"><ele>1152.0</ele><time>2026-03-15T15:58:23Z</time></trkpt><trkpt lat="45.73925963492489" lon="10.153150666603056"><ele>1149.8333333333333</ele><time>2026-03-15T15:58:24Z</time></trkpt><trkpt lat="45.739279891146666" lon="10.153044350388662"><ele>1147.6666666666667</ele><time>2026-03-15T15:58:25Z</time></trkpt><trkpt lat="45.73929965691296" lon="10.152934079588062"><ele>1145.5</ele><time>2026-03-15T15:58:26Z</time></trkpt><trkpt lat="45.73932759758824" lon="10.152823767179251"><ele>1143.3333333333335</ele><time>2026-03-15T15:58:27Z</time></trkpt><trkpt lat="45.73934140667291" lon="10.152712081432682"><ele>1141.1666666666667</ele><time>2026-03-15T15:58:28Z</time></trkpt><trkpt lat="45.73934961847079" lon="10.152604553743643"><ele>1139.0</ele><time>2026-03-15T15:58:29Z</time></trkpt><trkpt lat="45.739368184664265" lon="10.152501164833742"><ele>1137.4</ele><time>2026-03-15T15:58:29.999Z</time></trkpt><trkpt lat="45.739378210332674" lon="10.152340477363559"><ele>1135.8000000000002</ele><time>2026-03-15T15:58:31.999Z</time></trkpt><trkpt lat="45.739381164380546" lon="10.152217952697118"><ele>1134.1999999999998</ele><time>2026-03-15T15:58:33.999Z</time></trkpt><trkpt lat="45.739385909940864" lon="10.15207818575549"><ele>1132.6</ele><time>2026-03-15T15:58:35.999Z</time></trkpt><trkpt lat="45.73940439301013" lon="10.151968924986965"><ele>1131.0</ele><time>2026-03-15T15:58:37.999Z</time></trkpt><trkpt lat="45.73946922660356" lon="10.151884267745245"><ele>1138.2</ele><time>2026-03-15T15:58:39.999Z</time></trkpt><trkpt lat="45.73952905601757" lon="10.151777814791691"><ele>1145.3999999999999</ele><time>2026-03-15T15:58:41.999Z</time></trkpt><trkpt lat="45.73957190365109" lon="10.151654615167368"><ele>1152.6</ele><time>2026-03-15T15:58:44.999Z</time></trkpt><trkpt lat="45.73957689280693" lon="10.151543629985554"><ele>1159.8</ele><time>2026-03-15T15:58:45.999Z</time></trkpt><trkpt lat="45.73954516049437" lon="10.151423350351171"><ele>1167.0</ele><time>2026-03-15T15:58:49.999Z</time></trkpt><trkpt lat="45.739497234783734" lon="10.151264853703497"><ele>1167.0</ele><time>2026-03-15T15:59:24.998Z</time></trkpt><trkpt lat="45.73948545807572" lon="10.151145538582014"><ele>1167.0</ele><time>2026-03-15T15:59:26.998Z</time></trkpt><trkpt lat="45.73950993430215" lon="10.150993186642962"><ele>1167.0</ele><time>2026-03-15T15:59:27.998Z</time></trkpt><trkpt lat="45.73954910806473" lon="10.150806378981994"><ele>1167.0</ele><time>2026-03-15T15:59:28.998Z</time></trkpt><trkpt lat="45.73957888767326" lon="10.150683572633172"><ele>1167.0</ele><time>2026-03-15T15:59:29.998Z</time></trkpt><trkpt lat="45.73961775914344" lon="10.150545480622554"><ele>1163.4</ele><time>2026-03-15T15:59:30.998Z</time></trkpt><trkpt lat="45.739640456840235" lon="10.150412567084214"><ele>1159.8000000000002</ele><time>2026-03-15T15:59:31.998Z</time></trkpt><trkpt lat="45.73969001532597" lon="10.150318761753864"><ele>1156.2</ele><time>2026-03-15T15:59:32.998Z</time></trkpt><trkpt lat="45.73974176348757" lon="10.150174155451097"><ele>1152.6000000000001</ele><time>2026-03-15T15:59:33.998Z</time></trkpt><trkpt lat="45.73981827928609" lon="10.150056243214381"><ele>1149.0</ele><time>2026-03-15T15:59:34.998Z</time></trkpt><trkpt lat="45.73988261957921" lon="10.149951761080906"><ele>1144.0</ele><time>2026-03-15T15:59:35.998Z</time></trkpt><trkpt lat="45.739992858807426" lon="10.149756345767633"><ele>1139.0</ele><time>2026-03-15T15:59:36.998Z</time></trkpt><trkpt lat="45.740061252140286" lon="10.149633584980366"><ele>1134.0</ele><time>2026-03-15T15:59:37.998Z</time></trkpt><trkpt lat="45.7401230994216" lon="10.149531020024751"><ele>1129.0</ele><time>2026-03-15T15:59:38.998Z</time></trkpt><trkpt lat="45.74018427051721" lon="10.149447870766474"><ele>1136.0</ele><time>2026-03-15T15:59:39.998Z</time></trkpt><trkpt lat="45.74024531255782" lon="10.149366573437707"><ele>1143.0</ele><time>2026-03-15T15:59:40.998Z</time></trkpt><trkpt lat="45.74029299201487" lon="10.149250345217547"><ele>1150.0</ele><time>2026-03-15T15:59:41.998Z</time></trkpt><trkpt lat="45.74035267995747" lon="10.14915744801442"><ele>1157.0</ele><time>2026-03-15T15:59:42.998Z</time></trkpt><trkpt lat="45.740393691025716" lon="10.149014532503509"><ele>1164.0</ele><time>2026-03-15T15:59:43.998Z</time></trkpt><trkpt lat="45.74045366903198" lon="10.148851456405836"><ele>1164.0</ele><time>2026-03-15T15:59:44.998Z</time></trkpt><trkpt lat="45.74053123945441" lon="10.148681493327262"><ele>1164.0</ele><time>2026-03-15T15:59:45.998Z</time></trkpt><trkpt lat="45.74061454637844" lon="10.148511779849914"><ele>1164.0</ele><time>2026-03-15T15:59:46.998Z</time></trkpt><trkpt lat="45.740677994066615" lon="10.148372311408025"><ele>1164.0</ele><time>2026-03-15T15:59:47.998Z</time></trkpt><trkpt lat="45.74073437576664" lon="10.148242438674643"><ele>1158.8</ele><time>2026-03-15T15:59:48.998Z</time></trkpt><trkpt lat="45.740762807182" lon="10.14814201046315"><ele>1153.6000000000001</ele><time>2026-03-15T15:59:49.998Z</time></trkpt><trkpt lat="45.74078283035598" lon="10.14801679630302"><ele>1148.4</ele><time>2026-03-15T15:59:50.998Z</time></trkpt><trkpt lat="45.740807386590234" lon="10.147855071064766"><ele>1143.2</ele><time>2026-03-15T15:59:51.998Z</time></trkpt><trkpt lat="45.74083160461164" lon="10.147706557238198"><ele>1138.0</ele><time>2026-03-15T15:59:52.998Z</time></trkpt><trkpt lat="45.74086013434903" lon="10.147576902065055"><ele>1138.0</ele><time>2026-03-15T15:59:53.998Z</time></trkpt><trkpt lat="45.74088088600123" lon="10.147478159048289"><ele>1138.0</ele><time>2026-03-15T15:59:54.998Z</time></trkpt><trkpt lat="45.740927661874196" lon="10.147404993935755"><ele>1138.0</ele><time>2026-03-15T15:59:56.997Z</time></trkpt><trkpt lat="45.74099242400262" lon="10.147331476410415"><ele>1138.0</ele><time>2026-03-15T15:59:57.997Z</time></trkpt><trkpt lat="45.741054590049664" lon="10.147235297696758"><ele>1138.0</ele><time>2026-03-15T15:59:58.997Z</time></trkpt><trkpt lat="45.741109630361" lon="10.147144204746391"><ele>1138.0</ele><time>2026-03-15T15:59:59.997Z</time></trkpt><trkpt lat="45.741131928110335" lon="10.147022342359302"><ele>1137.8</ele><time>2026-03-15T16:00:00.997Z</time></trkpt><trkpt lat="45.74121350696592" lon="10.146853882206837"><ele>1137.6</ele><time>2026-03-15T16:00:01.997Z</time></trkpt><trkpt lat="45.74124966855504" lon="10.146736182108413"><ele>1137.4</ele><time>2026-03-15T16:00:02.997Z</time></trkpt><trkpt lat="45.74127711764665" lon="10.146640636967264"><ele>1137.2</ele><time>2026-03-15T16:00:03.997Z</time></trkpt><trkpt lat="45.74130216751768" lon="10.146556766668452"><ele>1137.0</ele><time>2026-03-15T16:00:04.997Z</time></trkpt><trkpt lat="45.74133615998647" lon="10.1464477250166"><ele>1137.0</ele><time>2026-03-15T16:00:07Z</time></trkpt><trkpt lat="45.741371051438165" lon="10.146369198741814"><ele>1137.0</ele><time>2026-03-15T16:00:10Z</time></trkpt><trkpt lat="45.7414775401612" lon="10.146415982648238"><ele>1137.0</ele><time>2026-03-15T16:00:13Z</time></trkpt><trkpt lat="45.74154226198407" lon="10.146494093193379"><ele>1137.0</ele><time>2026-03-15T16:00:14Z</time></trkpt><trkpt lat="45.74159627397195" lon="10.146541823461076"><ele>1137.0</ele><time>2026-03-15T16:00:15Z</time></trkpt><trkpt lat="45.74168790220346" lon="10.146607304304515"><ele>1137.0</ele><time>2026-03-15T16:00:17Z</time></trkpt><trkpt lat="45.74177872838045" lon="10.146610263440172"><ele>1134.2</ele><time>2026-03-15T16:00:19Z</time></trkpt><trkpt lat="45.74178399695289" lon="10.1464721716606"><ele>1131.4</ele><time>2026-03-15T16:00:21Z</time></trkpt><trkpt lat="45.74169308395026" lon="10.146369317408901"><ele>1128.6</ele><time>2026-03-15T16:00:23Z</time></trkpt><trkpt lat="45.74162999144413" lon="10.146285792835837"><ele>1125.8</ele><time>2026-03-15T16:00:24Z</time></trkpt><trkpt lat="45.74156955870595" lon="10.146131407793785"><ele>1123.0</ele><time>2026-03-15T16:00:26Z</time></trkpt><trkpt lat="45.74157066065543" lon="10.14600247719266"><ele>1123.0</ele><time>2026-03-15T16:00:27Z</time></trkpt><trkpt lat="45.741570441804654" lon="10.145860478981398"><ele>1123.0</ele><time>2026-03-15T16:00:29Z</time></trkpt><trkpt lat="45.741669042235074" lon="10.14584265461018"><ele>1123.0</ele><time>2026-03-15T16:00:31Z</time></trkpt><trkpt lat="45.74173726441827" lon="10.1459922099736"><ele>1123.0</ele><time>2026-03-15T16:00:33Z</time></trkpt><trkpt lat="45.74174661999672" lon="10.146089312098741"><ele>1123.0</ele><time>2026-03-15T16:00:34Z</time></trkpt><trkpt lat="45.741817905509755" lon="10.146206534687286"><ele>1118.8333333333333</ele><time>2026-03-15T16:00:36Z</time></trkpt><trkpt lat="45.74188861827394" lon="10.14622758974041"><ele>1114.6666666666665</ele><time>2026-03-15T16:00:37Z</time></trkpt><trkpt lat="45.741965645988536" lon="10.14624466588706"><ele>1110.5</ele><time>2026-03-15T16:00:38Z</time></trkpt><trkpt lat="45.74204094662414" lon="10.146266315371538"><ele>1106.3333333333333</ele><time>2026-03-15T16:00:39Z</time></trkpt><trkpt lat="45.742118485969144" lon="10.146283412913107"><ele>1102.1666666666667</ele><time>2026-03-15T16:00:40Z</time></trkpt><trkpt lat="45.74220298583709" lon="10.146264267084536"><ele>1098.0</ele><time>2026-03-15T16:00:41Z</time></trkpt><trkpt lat="45.74231381828135" lon="10.146234230144984"><ele>1098.0</ele><time>2026-03-15T16:00:42Z</time></trkpt><trkpt lat="45.742423566847776" lon="10.146205257716275"><ele>1098.0</ele><time>2026-03-15T16:00:43Z</time></trkpt><trkpt lat="45.742503907833" lon="10.146205467913546"><ele>1098.0</ele><time>2026-03-15T16:00:44Z</time></trkpt><trkpt lat="45.74259807084395" lon="10.146223076293508"><ele>1098.0</ele><time>2026-03-15T16:00:45Z</time></trkpt><trkpt lat="45.742684092318584" lon="10.146230531227324"><ele>1098.0</ele><time>2026-03-15T16:00:46Z</time></trkpt><trkpt lat="45.74280130930952" lon="10.146227091340803"><ele>1094.6</ele><time>2026-03-15T16:00:47Z</time></trkpt><trkpt lat="45.74291150259293" lon="10.146231769180224"><ele>1091.1999999999998</ele><time>2026-03-15T16:00:48Z</time></trkpt><trkpt lat="45.742995112361776" lon="10.146240150042775"><ele>1087.8</ele><time>2026-03-15T16:00:49Z</time></trkpt><trkpt lat="45.74307614560651" lon="10.146252355523185"><ele>1084.3999999999999</ele><time>2026-03-15T16:00:50Z</time></trkpt><trkpt lat="45.74316518085966" lon="10.146279466913489"><ele>1081.0</ele><time>2026-03-15T16:00:51Z</time></trkpt><trkpt lat="45.74327435859446" lon="10.146297322850483"><ele>1081.0</ele><time>2026-03-15T16:00:51.999Z</time></trkpt><trkpt lat="45.74338354082684" lon="10.146320945145353"><ele>1081.0</ele><time>2026-03-15T16:00:52.999Z</time></trkpt><trkpt lat="45.74347951878928" lon="10.14634397395665"><ele>1081.0</ele><time>2026-03-15T16:00:53.999Z</time></trkpt><trkpt lat="45.74355767824081" lon="10.146373976290239"><ele>1081.0</ele><time>2026-03-15T16:00:54.999Z</time></trkpt><trkpt lat="45.74362833449509" lon="10.146387377674209"><ele>1081.0</ele><time>2026-03-15T16:00:55.999Z</time></trkpt><trkpt lat="45.74370247089832" lon="10.146417006619492"><ele>1081.0</ele><time>2026-03-15T16:00:56.999Z</time></trkpt><trkpt lat="45.74380258934019" lon="10.146478146760996"><ele>1079.5</ele><time>2026-03-15T16:00:58.999Z</time></trkpt><trkpt lat="45.74388064078955" lon="10.146536168717729"><ele>1078.0</ele><time>2026-03-15T16:01:00.999Z</time></trkpt><trkpt lat="45.74394785429006" lon="10.146572267117731"><ele>1076.5</ele><time>2026-03-15T16:01:02.999Z</time></trkpt><trkpt lat="45.743977478042176" lon="10.146486978087502"><ele>1075.0</ele><time>2026-03-15T16:01:05.999Z</time></trkpt><trkpt lat="45.743937808298234" lon="10.146367838996012"><ele>1073.5</ele><time>2026-03-15T16:01:08.999Z</time></trkpt><trkpt lat="45.743891045085185" lon="10.146296477527613"><ele>1072.0</ele><time>2026-03-15T16:01:10.999Z</time></trkpt><trkpt lat="45.743821816362924" lon="10.146214747600787"><ele>1072.0</ele><time>2026-03-15T16:01:12.999Z</time></trkpt><trkpt lat="45.743722005997554" lon="10.1461489750429"><ele>1072.0</ele><time>2026-03-15T16:01:14.999Z</time></trkpt><trkpt lat="45.7436314492961" lon="10.146097075424521"><ele>1072.0</ele><time>2026-03-15T16:01:16.999Z</time></trkpt><trkpt lat="45.74352556562604" lon="10.145974526684979"><ele>1072.0</ele><time>2026-03-15T16:01:18.999Z</time></trkpt><trkpt lat="45.74347114484301" lon="10.145923808336967"><ele>1072.0</ele><time>2026-03-15T16:01:19.999Z</time></trkpt><trkpt lat="45.74337636952326" lon="10.145832897189717"><ele>1074.25</ele><time>2026-03-15T16:01:21.999Z</time></trkpt><trkpt lat="45.74326666145954" lon="10.14572750080911"><ele>1076.5</ele><time>2026-03-15T16:01:23.999Z</time></trkpt><trkpt lat="45.74320804037221" lon="10.145671183523602"><ele>1078.75</ele><time>2026-03-15T16:01:24.999Z</time></trkpt><trkpt lat="45.74310356033559" lon="10.1455716542715"><ele>1081.0</ele><time>2026-03-15T16:01:26.999Z</time></trkpt><trkpt lat="45.742991327291264" lon="10.14547735590492"><ele>1081.6</ele><time>2026-03-15T16:01:28.999Z</time></trkpt><trkpt lat="45.74287020902266" lon="10.145401736996279"><ele>1082.1999999999998</ele><time>2026-03-15T16:01:30.999Z</time></trkpt><trkpt lat="45.74276200338834" lon="10.145352268438417"><ele>1082.8000000000002</ele><time>2026-03-15T16:01:32.999Z</time></trkpt><trkpt lat="45.742687713491854" lon="10.145300388593423"><ele>1083.4</ele><time>2026-03-15T16:01:34.998Z</time></trkpt><trkpt lat="45.74272617483652" lon="10.14521629842628"><ele>1084.0</ele><time>2026-03-15T16:01:38.998Z</time></trkpt><trkpt lat="45.742831845243444" lon="10.1452636849622"><ele>1078.8333333333333</ele><time>2026-03-15T16:01:40.998Z</time></trkpt><trkpt lat="45.74296315059942" lon="10.145296448298144"><ele>1073.6666666666665</ele><time>2026-03-15T16:01:42.998Z</time></trkpt><trkpt lat="45.7430377278647" lon="10.145313929879455"><ele>1068.5</ele><time>2026-03-15T16:01:43.998Z</time></trkpt><trkpt lat="45.74310958163416" lon="10.14533356044998"><ele>1063.3333333333333</ele><time>2026-03-15T16:01:44.998Z</time></trkpt><trkpt lat="45.74317337990844" lon="10.145348704326297"><ele>1058.1666666666667</ele><time>2026-03-15T16:01:45.998Z</time></trkpt><trkpt lat="45.74324837389187" lon="10.145361764038363"><ele>1053.0</ele><time>2026-03-15T16:01:46.998Z</time></trkpt><trkpt lat="45.74331492923218" lon="10.145371948067776"><ele>1052.9999999999998</ele><time>2026-03-15T16:01:47.998Z</time></trkpt><trkpt lat="45.74338189882316" lon="10.145375798310592"><ele>1053.0</ele><time>2026-03-15T16:01:48.998Z</time></trkpt><trkpt lat="45.743453679993095" lon="10.145380446217949"><ele>1053.0</ele><time>2026-03-15T16:01:49.998Z</time></trkpt><trkpt lat="45.74352642295982" lon="10.14539334285352"><ele>1053.0</ele><time>2026-03-15T16:01:50.998Z</time></trkpt><trkpt lat="45.74359931082256" lon="10.145391475327122"><ele>1053.0</ele><time>2026-03-15T16:01:51.998Z</time></trkpt><trkpt lat="45.743672010224984" lon="10.14539609217877"><ele>1052.9999999999998</ele><time>2026-03-15T16:01:52.998Z</time></trkpt><trkpt lat="45.743745764047794" lon="10.14540351334515"><ele>1053.0</ele><time>2026-03-15T16:01:53.998Z</time></trkpt><trkpt lat="45.74386362645295" lon="10.14543692000049"><ele>1050.0</ele><time>2026-03-15T16:01:55.998Z</time></trkpt><trkpt lat="45.743963826086684" lon="10.145502614809654"><ele>1047.0</ele><time>2026-03-15T16:01:57.998Z</time></trkpt><trkpt lat="45.74407705378104" lon="10.145568803934838"><ele>1044.0</ele><time>2026-03-15T16:01:59.998Z</time></trkpt><trkpt lat="45.744205381306905" lon="10.145562267579376"><ele>1041.0</ele><time>2026-03-15T16:02:01.998Z</time></trkpt><trkpt lat="45.744270030513135" lon="10.14555241582111"><ele>1038.0</ele><time>2026-03-15T16:02:02.998Z</time></trkpt><trkpt lat="45.74438506480153" lon="10.145518856101964"><ele>1036.5</ele><time>2026-03-15T16:02:04.998Z</time></trkpt><trkpt lat="45.74444939571984" lon="10.145522234582508"><ele>1035.0</ele><time>2026-03-15T16:02:05.998Z</time></trkpt><trkpt lat="45.74450853602523" lon="10.145489739137789"><ele>1033.5</ele><time>2026-03-15T16:02:06.998Z</time></trkpt><trkpt lat="45.74461641405865" lon="10.145390738340701"><ele>1032.0</ele><time>2026-03-15T16:02:08.997Z</time></trkpt><trkpt lat="45.74468468381867" lon="10.14538334848752"><ele>1030.5</ele><time>2026-03-15T16:02:09.997Z</time></trkpt><trkpt lat="45.74474856619494" lon="10.145370525493735"><ele>1029.0</ele><time>2026-03-15T16:02:10.997Z</time></trkpt><trkpt lat="45.74486279447618" lon="10.145391880338085"><ele>1029.0</ele><time>2026-03-15T16:02:12.999Z</time></trkpt><trkpt lat="45.74497111031566" lon="10.145465976639356"><ele>1029.0</ele><time>2026-03-15T16:02:14.999Z</time></trkpt><trkpt lat="45.74505858460091" lon="10.145588284848401"><ele>1029.0</ele><time>2026-03-15T16:02:16.999Z</time></trkpt><trkpt lat="45.745150772660885" lon="10.14570311012022"><ele>1029.0</ele><time>2026-03-15T16:02:18.999Z</time></trkpt><trkpt lat="45.74528429374092" lon="10.145759285882704"><ele>1029.0</ele><time>2026-03-15T16:02:20.999Z</time></trkpt><trkpt lat="45.74540653891948" lon="10.145799175706339"><ele>1029.0</ele><time>2026-03-15T16:02:22.999Z</time></trkpt><trkpt lat="45.74553313070859" lon="10.14584308204439"><ele>1029.0</ele><time>2026-03-15T16:02:24.999Z</time></trkpt><trkpt lat="45.74562970621395" lon="10.145925826570522"><ele>1029.0</ele><time>2026-03-15T16:02:26.999Z</time></trkpt><trkpt lat="45.74571594866524" lon="10.146042532570528"><ele>1029.0</ele><time>2026-03-15T16:02:28.999Z</time></trkpt><trkpt lat="45.74582119565895" lon="10.146013197493167"><ele>1029.0</ele><time>2026-03-15T16:02:30.999Z</time></trkpt><trkpt lat="45.745879783920266" lon="10.14590537606971"><ele>1029.0</ele><time>2026-03-15T16:02:32.999Z</time></trkpt><trkpt lat="45.74582146697454" lon="10.145789740995568"><ele>1029.0</ele><time>2026-03-15T16:02:34.999Z</time></trkpt><trkpt lat="45.745748391863565" lon="10.14567758006492"><ele>1029.0</ele><time>2026-03-15T16:02:36.999Z</time></trkpt><trkpt lat="45.745658933967476" lon="10.145568446292431"><ele>1025.0</ele><time>2026-03-15T16:02:38.999Z</time></trkpt><trkpt lat="45.74556617253729" lon="10.145476942697622"><ele>1021.0000000000001</ele><time>2026-03-15T16:02:40.999Z</time></trkpt><trkpt lat="45.745464948615265" lon="10.145395714804872"><ele>1017.0000000000001</ele><time>2026-03-15T16:02:42.999Z</time></trkpt><trkpt lat="45.74537144167232" lon="10.14530242100692"><ele>1013.0</ele><time>2026-03-15T16:02:44.999Z</time></trkpt><trkpt lat="45.74529527331903" lon="10.145220575022496"><ele>1009.0</ele><time>2026-03-15T16:02:46.999Z</time></trkpt><trkpt lat="45.74522877753668" lon="10.145110169358126"><ele>1008.9999999999999</ele><time>2026-03-15T16:02:48.999Z</time></trkpt><trkpt lat="45.74529558747857" lon="10.145073368284121"><ele>1009.0</ele><time>2026-03-15T16:02:51.999Z</time></trkpt><trkpt lat="45.74539612342992" lon="10.145188919812806"><ele>1009.0</ele><time>2026-03-15T16:02:54.999Z</time></trkpt><trkpt lat="45.74546840410336" lon="10.145236113080328"><ele>1009.0</ele><time>2026-03-15T16:02:55.999Z</time></trkpt><trkpt lat="45.745544654112365" lon="10.145262995334937"><ele>1008.9999999999999</ele><time>2026-03-15T16:02:56.999Z</time></trkpt><trkpt lat="45.74562389826928" lon="10.145282846315498"><ele>1009.0</ele><time>2026-03-15T16:02:57.999Z</time></trkpt><trkpt lat="45.74569911943707" lon="10.1452872204554"><ele>1009.0</ele><time>2026-03-15T16:02:58.999Z</time></trkpt><trkpt lat="45.74576630834494" lon="10.145307678085143"><ele>1009.0</ele><time>2026-03-15T16:02:59.999Z</time></trkpt><trkpt lat="45.74583109997534" lon="10.145366119588726"><ele>1009.0</ele><time>2026-03-15T16:03:00.999Z</time></trkpt><trkpt lat="45.74590092323039" lon="10.145415960934713"><ele>1009.0</ele><time>2026-03-15T16:03:01.999Z</time></trkpt><trkpt lat="45.745960572136454" lon="10.14545455192964"><ele>1009.0</ele><time>2026-03-15T16:03:02.999Z</time></trkpt><trkpt lat="45.74602038045241" lon="10.145487757991352"><ele>1009.0</ele><time>2026-03-15T16:03:03.999Z</time></trkpt><trkpt lat="45.74610611870189" lon="10.14547014395614"><ele>1009.0</ele><time>2026-03-15T16:03:05.998Z</time></trkpt><trkpt lat="45.746164810540435" lon="10.145386344382443"><ele>1011.6</ele><time>2026-03-15T16:03:06.998Z</time></trkpt><trkpt lat="45.746230198036415" lon="10.145271665987728"><ele>1014.2</ele><time>2026-03-15T16:03:07.998Z</time></trkpt><trkpt lat="45.74621477953755" lon="10.145110820025755"><ele>1016.8000000000001</ele><time>2026-03-15T16:03:09.998Z</time></trkpt><trkpt lat="45.74615826982063" lon="10.145046786123627"><ele>1019.4000000000001</ele><time>2026-03-15T16:03:10.998Z</time></trkpt><trkpt lat="45.746098342961595" lon="10.14493192014835"><ele>1022.0</ele><time>2026-03-15T16:03:11.998Z</time></trkpt><trkpt lat="45.74604114504466" lon="10.144804113857862"><ele>1017.1666666666667</ele><time>2026-03-15T16:03:12.998Z</time></trkpt><trkpt lat="45.74600024054233" lon="10.144687264798357"><ele>1012.3333333333334</ele><time>2026-03-15T16:03:13.998Z</time></trkpt><trkpt lat="45.74595511718453" lon="10.144577053653173"><ele>1007.5</ele><time>2026-03-15T16:03:14.998Z</time></trkpt><trkpt lat="45.74591379582503" lon="10.144478832455663"><ele>1002.6666666666667</ele><time>2026-03-15T16:03:15.998Z</time></trkpt><trkpt lat="45.74587378068716" lon="10.144404333850108"><ele>997.8333333333334</ele><time>2026-03-15T16:03:16.998Z</time></trkpt><trkpt lat="45.745868850500294" lon="10.144240075220523"><ele>993.0</ele><time>2026-03-15T16:03:18.998Z</time></trkpt><trkpt lat="45.74593873634482" lon="10.14420041445135"><ele>993.0</ele><time>2026-03-15T16:03:20.998Z</time></trkpt><trkpt lat="45.7460243526322" lon="10.144202101975203"><ele>993.0</ele><time>2026-03-15T16:03:22.998Z</time></trkpt><trkpt lat="45.74608937032571" lon="10.144199829323234"><ele>993.0</ele><time>2026-03-15T16:03:23.998Z</time></trkpt><trkpt lat="45.74614764641828" lon="10.14416139977198"><ele>993.0</ele><time>2026-03-15T16:03:24.998Z</time></trkpt><trkpt lat="45.74620877285905" lon="10.144080504168045"><ele>993.0</ele><time>2026-03-15T16:03:25.998Z</time></trkpt><trkpt lat="45.74624064507378" lon="10.143946589353074"><ele>993.0</ele><time>2026-03-15T16:03:26.998Z</time></trkpt><trkpt lat="45.74619458381538" lon="10.143819252339682"><ele>992.4</ele><time>2026-03-15T16:03:27.998Z</time></trkpt><trkpt lat="45.74618212022458" lon="10.143679710150165"><ele>991.8</ele><time>2026-03-15T16:03:28.998Z</time></trkpt><trkpt lat="45.746191540304245" lon="10.143538264735266"><ele>991.2</ele><time>2026-03-15T16:03:29.998Z</time></trkpt><trkpt lat="45.74619094214532" lon="10.143395038467553"><ele>990.6</ele><time>2026-03-15T16:03:30.998Z</time></trkpt><trkpt lat="45.74619860597651" lon="10.143238221408629"><ele>990.0</ele><time>2026-03-15T16:03:31.998Z</time></trkpt><trkpt lat="45.74620635893808" lon="10.143091625231362"><ele>990.0</ele><time>2026-03-15T16:03:32.998Z</time></trkpt><trkpt lat="45.746209124602565" lon="10.142960676246565"><ele>990.0</ele><time>2026-03-15T16:03:33.998Z</time></trkpt><trkpt lat="45.74621180404946" lon="10.14280970811267"><ele>990.0</ele><time>2026-03-15T16:03:34.998Z</time></trkpt><trkpt lat="45.74621989255611" lon="10.142655074339922"><ele>990.0</ele><time>2026-03-15T16:03:35.998Z</time></trkpt><trkpt lat="45.74623201112066" lon="10.14251249041287"><ele>990.0</ele><time>2026-03-15T16:03:36.998Z</time></trkpt><trkpt lat="45.746253392308006" lon="10.142370513581463"><ele>986.8333333333334</ele><time>2026-03-15T16:03:37.998Z</time></trkpt><trkpt lat="45.7462772729802" lon="10.142238600140198"><ele>983.6666666666667</ele><time>2026-03-15T16:03:38.998Z</time></trkpt><trkpt lat="45.74629819997726" lon="10.142132101940755"><ele>980.5</ele><time>2026-03-15T16:03:39.998Z</time></trkpt><trkpt lat="45.746315746176776" lon="10.142042809101872"><ele>977.3333333333334</ele><time>2026-03-15T16:03:40.998Z</time></trkpt><trkpt lat="45.746332907731436" lon="10.141888195422961"><ele>974.1666666666667</ele><time>2026-03-15T16:03:42.998Z</time></trkpt><trkpt lat="45.74636075193614" lon="10.14175910595883"><ele>971.0</ele><time>2026-03-15T16:03:43.998Z</time></trkpt><trkpt lat="45.74639154872266" lon="10.141637724088872"><ele>971.0000000000001</ele><time>2026-03-15T16:03:44.998Z</time></trkpt><trkpt lat="45.74643436682276" lon="10.141552611992122"><ele>971.0</ele><time>2026-03-15T16:03:45.998Z</time></trkpt><trkpt lat="45.746470608847666" lon="10.141442985783407"><ele>971.0</ele><time>2026-03-15T16:03:46.998Z</time></trkpt><trkpt lat="45.74649419694018" lon="10.14135070440309"><ele>971.0</ele><time>2026-03-15T16:03:47.998Z</time></trkpt><trkpt lat="45.74655183533242" lon="10.141284856983969"><ele>971.0000000000001</ele><time>2026-03-15T16:03:48.997Z</time></trkpt><trkpt lat="45.746618842016105" lon="10.141218925246148"><ele>971.0</ele><time>2026-03-15T16:03:49.997Z</time></trkpt><trkpt lat="45.746683053995916" lon="10.141169613246296"><ele>970.5999999999999</ele><time>2026-03-15T16:03:50.997Z</time></trkpt><trkpt lat="45.74674595661139" lon="10.141083075549268"><ele>970.1999999999999</ele><time>2026-03-15T16:03:51.997Z</time></trkpt><trkpt lat="45.7467815183259" lon="10.140976844930124"><ele>969.8000000000001</ele><time>2026-03-15T16:03:52.997Z</time></trkpt><trkpt lat="45.74682297326608" lon="10.140889338498399"><ele>969.4000000000001</ele><time>2026-03-15T16:03:53.997Z</time></trkpt><trkpt lat="45.74689317863045" lon="10.140789550380815"><ele>969.0</ele><time>2026-03-15T16:03:55.997Z</time></trkpt><trkpt lat="45.74699922895063" lon="10.14087833248689"><ele>969.0</ele><time>2026-03-15T16:03:57.997Z</time></trkpt><trkpt lat="45.74705637212367" lon="10.141038895606972"><ele>969.0000000000001</ele><time>2026-03-15T16:03:59.997Z</time></trkpt><trkpt lat="45.74713640717368" lon="10.141131697124404"><ele>969.0000000000001</ele><time>2026-03-15T16:04:01.997Z</time></trkpt><trkpt lat="45.747238123729446" lon="10.14109515810083"><ele>969.0</ele><time>2026-03-15T16:04:03.997Z</time></trkpt><trkpt lat="45.74729887773365" lon="10.14099064836079"><ele>969.0</ele><time>2026-03-15T16:04:04.997Z</time></trkpt><trkpt lat="45.747348147660176" lon="10.140912034033661"><ele>969.0</ele><time>2026-03-15T16:04:05.997Z</time></trkpt><trkpt lat="45.747431226340936" lon="10.140792897687865"><ele>969.0000000000001</ele><time>2026-03-15T16:04:06.997Z</time></trkpt><trkpt lat="45.74747747751582" lon="10.140693603012858"><ele>969.0000000000001</ele><time>2026-03-15T16:04:07.997Z</time></trkpt><trkpt lat="45.74752708278317" lon="10.14060084143669"><ele>969.0</ele><time>2026-03-15T16:04:08.997Z</time></trkpt><trkpt lat="45.7475725774502" lon="10.140510495423708"><ele>969.0</ele><time>2026-03-15T16:04:09.997Z</time></trkpt><trkpt lat="45.747620981590565" lon="10.140387214954625"><ele>970.8000000000001</ele><time>2026-03-15T16:04:10.997Z</time></trkpt><trkpt lat="45.74767024134654" lon="10.140260215085087"><ele>972.6000000000001</ele><time>2026-03-15T16:04:11.997Z</time></trkpt><trkpt lat="45.74772539642831" lon="10.140134899453889"><ele>974.4</ele><time>2026-03-15T16:04:12.997Z</time></trkpt><trkpt lat="45.74776716922249" lon="10.1399897439158"><ele>976.2</ele><time>2026-03-15T16:04:13.997Z</time></trkpt><trkpt lat="45.74779995937743" lon="10.139866773090613"><ele>978.0</ele><time>2026-03-15T16:04:14.997Z</time></trkpt><trkpt lat="45.74783415859568" lon="10.139728121036384"><ele>972.8</ele><time>2026-03-15T16:04:15.997Z</time></trkpt><trkpt lat="45.747859200026696" lon="10.139579373540911"><ele>967.5999999999999</ele><time>2026-03-15T16:04:17Z</time></trkpt><trkpt lat="45.7478987070274" lon="10.139431731897133"><ele>962.4000000000001</ele><time>2026-03-15T16:04:18Z</time></trkpt><trkpt lat="45.74795037835493" lon="10.139303017492265"><ele>957.2</ele><time>2026-03-15T16:04:19Z</time></trkpt><trkpt lat="45.7479883060354" lon="10.139196870524541"><ele>952.0</ele><time>2026-03-15T16:04:20Z</time></trkpt><trkpt lat="45.74803075293332" lon="10.139104970022846"><ele>947.4000000000001</ele><time>2026-03-15T16:04:21Z</time></trkpt><trkpt lat="45.74808282093787" lon="10.139022170812808"><ele>942.8000000000001</ele><time>2026-03-15T16:04:22Z</time></trkpt><trkpt lat="45.74814783344515" lon="10.138919755526487"><ele>938.2</ele><time>2026-03-15T16:04:23Z</time></trkpt><trkpt lat="45.7482120257831" lon="10.138806720886969"><ele>933.6</ele><time>2026-03-15T16:04:24Z</time></trkpt><trkpt lat="45.7482748256044" lon="10.138712573923268"><ele>929.0</ele><time>2026-03-15T16:04:25Z</time></trkpt><trkpt lat="45.74833590286793" lon="10.138615117380704"><ele>929.0</ele><time>2026-03-15T16:04:26Z</time></trkpt><trkpt lat="45.74839409644219" lon="10.138510024028053"><ele>929.0000000000001</ele><time>2026-03-15T16:04:27Z</time></trkpt><trkpt lat="45.748467995907845" lon="10.138410915131294"><ele>929.0000000000001</ele><time>2026-03-15T16:04:28Z</time></trkpt><trkpt lat="45.74853167193125" lon="10.138273789578559"><ele>929.0</ele><time>2026-03-15T16:04:29Z</time></trkpt><trkpt lat="45.7485987369552" lon="10.138119748989837"><ele>929.0</ele><time>2026-03-15T16:04:30Z</time></trkpt><trkpt lat="45.74865098206456" lon="10.138009966249449"><ele>929.8333333333334</ele><time>2026-03-15T16:04:31Z</time></trkpt><trkpt lat="45.74870133337119" lon="10.13792064963115"><ele>930.6666666666667</ele><time>2026-03-15T16:04:32Z</time></trkpt><trkpt lat="45.748751020992685" lon="10.137842570179973"><ele>931.5</ele><time>2026-03-15T16:04:33Z</time></trkpt><trkpt lat="45.74880334193569" lon="10.137771041046678"><ele>932.3333333333333</ele><time>2026-03-15T16:04:34Z</time></trkpt><trkpt lat="45.74885317730152" lon="10.137714022724836"><ele>933.1666666666666</ele><time>2026-03-15T16:04:35Z</time></trkpt><trkpt lat="45.74891202006964" lon="10.1376096053665"><ele>934.0</ele><time>2026-03-15T16:04:37Z</time></trkpt><trkpt lat="45.748893746638245" lon="10.13751673288414"><ele>934.0</ele><time>2026-03-15T16:04:38Z</time></trkpt><trkpt lat="45.74880781390598" lon="10.13747506411883"><ele>934.0000000000001</ele><time>2026-03-15T16:04:39Z</time></trkpt><trkpt lat="45.74873962638223" lon="10.137604597019022"><ele>934.0000000000001</ele><time>2026-03-15T16:04:40Z</time></trkpt><trkpt lat="45.74867531394068" lon="10.137654286289601"><ele>934.0</ele><time>2026-03-15T16:04:40.999Z</time></trkpt><trkpt lat="45.74859626250854" lon="10.13774175346357"><ele>934.0</ele><time>2026-03-15T16:04:41.999Z</time></trkpt><trkpt lat="45.74851546405832" lon="10.13785427150285"><ele>928.4000000000001</ele><time>2026-03-15T16:04:42.999Z</time></trkpt><trkpt lat="45.74844077433837" lon="10.137930772975588"><ele>922.8000000000001</ele><time>2026-03-15T16:04:43.999Z</time></trkpt><trkpt lat="45.74836278373859" lon="10.137986539970326"><ele>917.1999999999999</ele><time>2026-03-15T16:04:44.999Z</time></trkpt><trkpt lat="45.74828114116877" lon="10.138062452457236"><ele>911.5999999999999</ele><time>2026-03-15T16:04:45.999Z</time></trkpt><trkpt lat="45.74820482505118" lon="10.138125643763646"><ele>906.0</ele><time>2026-03-15T16:04:46.999Z</time></trkpt><trkpt lat="45.74811522934699" lon="10.138187797502898"><ele>906.3333333333334</ele><time>2026-03-15T16:04:47.999Z</time></trkpt><trkpt lat="45.74802409821694" lon="10.13822956481929"><ele>906.6666666666667</ele><time>2026-03-15T16:04:48.999Z</time></trkpt><trkpt lat="45.7479386076609" lon="10.138255362519192"><ele>907.0</ele><time>2026-03-15T16:04:49.999Z</time></trkpt><trkpt lat="45.74785740146881" lon="10.138278923244652"><ele>907.3333333333334</ele><time>2026-03-15T16:04:50.999Z</time></trkpt><trkpt lat="45.747789577352506" lon="10.138324380459636"><ele>907.6666666666667</ele><time>2026-03-15T16:04:51.999Z</time></trkpt><trkpt lat="45.74772269251728" lon="10.138344558726715"><ele>908.0</ele><time>2026-03-15T16:04:52.999Z</time></trkpt><trkpt lat="45.74767524861185" lon="10.138406006127274"><ele>908.0</ele><time>2026-03-15T16:04:53.999Z</time></trkpt><trkpt lat="45.747620802578176" lon="10.138558752454479"><ele>908.0</ele><time>2026-03-15T16:04:55.999Z</time></trkpt><trkpt lat="45.74755783916242" lon="10.138619696879095"><ele>908.0</ele><time>2026-03-15T16:04:57.999Z</time></trkpt><trkpt lat="45.747591387670575" lon="10.138539483578441"><ele>908.0</ele><time>2026-03-15T16:05:01.999Z</time></trkpt><trkpt lat="45.747628450922356" lon="10.13836300196357"><ele>908.0</ele><time>2026-03-15T16:05:03.999Z</time></trkpt><trkpt lat="45.74765578004257" lon="10.138248053310988"><ele>907.6666666666667</ele><time>2026-03-15T16:05:04.999Z</time></trkpt><trkpt lat="45.74767286617105" lon="10.138141261057749"><ele>907.3333333333334</ele><time>2026-03-15T16:05:05.999Z</time></trkpt><trkpt lat="45.74771704605284" lon="10.138050106359241"><ele>907.0</ele><time>2026-03-15T16:05:06.999Z</time></trkpt><trkpt lat="45.74774572112389" lon="10.137940005278603"><ele>906.6666666666667</ele><time>2026-03-15T16:05:07.999Z</time></trkpt><trkpt lat="45.747814961243236" lon="10.137831354815086"><ele>906.3333333333334</ele><time>2026-03-15T16:05:08.999Z</time></trkpt><trkpt lat="45.747883401744375" lon="10.13775459260098"><ele>906.0</ele><time>2026-03-15T16:05:09.999Z</time></trkpt><trkpt lat="45.747954863856314" lon="10.137667709812384"><ele>906.0</ele><time>2026-03-15T16:05:10.999Z</time></trkpt><trkpt lat="45.74802119236519" lon="10.137574570589505"><ele>905.9999999999999</ele><time>2026-03-15T16:05:11.999Z</time></trkpt><trkpt lat="45.74807506041688" lon="10.137504358806684"><ele>905.9999999999999</ele><time>2026-03-15T16:05:12.999Z</time></trkpt><trkpt lat="45.74813358498494" lon="10.137417205036238"><ele>906.0</ele><time>2026-03-15T16:05:13.999Z</time></trkpt><trkpt lat="45.74820323029368" lon="10.13731846318172"><ele>906.0</ele><time>2026-03-15T16:05:14.999Z</time></trkpt><trkpt lat="45.748284398505575" lon="10.137216396936893"><ele>907.1666666666666</ele><time>2026-03-15T16:05:15.999Z</time></trkpt><trkpt lat="45.74836194642966" lon="10.137136918484918"><ele>908.3333333333333</ele><time>2026-03-15T16:05:16.999Z</time></trkpt><trkpt lat="45.74842037916782" lon="10.137055583006015"><ele>909.5</ele><time>2026-03-15T16:05:17.999Z</time></trkpt><trkpt lat="45.74848042569752" lon="10.136995519490329"><ele>910.6666666666666</ele><time>2026-03-15T16:05:18.999Z</time></trkpt><trkpt lat="45.74854068030464" lon="10.136952796039465"><ele>911.8333333333333</ele><time>2026-03-15T16:05:19.999Z</time></trkpt><trkpt lat="45.74859206374432" lon="10.136900323712746"><ele>913.0</ele><time>2026-03-15T16:05:20.999Z</time></trkpt><trkpt lat="45.748669439471335" lon="10.136806564851621"><ele>912.9999999999999</ele><time>2026-03-15T16:05:22.999Z</time></trkpt><trkpt lat="45.74865865412188" lon="10.13671063504264"><ele>913.0</ele><time>2026-03-15T16:05:23.999Z</time></trkpt><trkpt lat="45.74855967118566" lon="10.136683921322579"><ele>913.0</ele><time>2026-03-15T16:05:24.999Z</time></trkpt><trkpt lat="45.74849883835345" lon="10.136752440589618"><ele>913.0</ele><time>2026-03-15T16:05:25.999Z</time></trkpt><trkpt lat="45.74843085239829" lon="10.136796971924099"><ele>912.9999999999999</ele><time>2026-03-15T16:05:26.998Z</time></trkpt><trkpt lat="45.74833668731544" lon="10.136820938929795"><ele>913.0</ele><time>2026-03-15T16:05:27.998Z</time></trkpt><trkpt lat="45.748215353910915" lon="10.136849595388068"><ele>907.4</ele><time>2026-03-15T16:05:28.998Z</time></trkpt><trkpt lat="45.7480962937444" lon="10.136894278513667"><ele>901.8</ele><time>2026-03-15T16:05:29.998Z</time></trkpt><trkpt lat="45.74802751723399" lon="10.136910444721808"><ele>896.2</ele><time>2026-03-15T16:05:30.998Z</time></trkpt><trkpt lat="45.74792734632602" lon="10.13688391943336"><ele>890.6</ele><time>2026-03-15T16:05:32.998Z</time></trkpt><trkpt lat="45.74793560409076" lon="10.136731287096962"><ele>885.0</ele><time>2026-03-15T16:05:34.998Z</time></trkpt><trkpt lat="45.748012179160476" lon="10.136667242254012"><ele>885.0</ele><time>2026-03-15T16:05:36.998Z</time></trkpt><trkpt lat="45.74807919456993" lon="10.136649713294782"><ele>885.0</ele><time>2026-03-15T16:05:37.998Z</time></trkpt><trkpt lat="45.748161740522505" lon="10.136655831876002"><ele>885.0</ele><time>2026-03-15T16:05:38.998Z</time></trkpt><trkpt lat="45.7482476152767" lon="10.136613506505702"><ele>885.0</ele><time>2026-03-15T16:05:39.998Z</time></trkpt><trkpt lat="45.74834337813095" lon="10.136538987928375"><ele>885.0</ele><time>2026-03-15T16:05:40.998Z</time></trkpt><trkpt lat="45.74841226614434" lon="10.136486053825262"><ele>885.0</ele><time>2026-03-15T16:05:41.998Z</time></trkpt><trkpt lat="45.748473305929444" lon="10.13643819899467"><ele>882.3333333333334</ele><time>2026-03-15T16:05:42.998Z</time></trkpt><trkpt lat="45.74853324265846" lon="10.13638600971507"><ele>879.6666666666667</ele><time>2026-03-15T16:05:43.998Z</time></trkpt><trkpt lat="45.74858877986909" lon="10.136321473176764"><ele>877.0</ele><time>2026-03-15T16:05:44.998Z</time></trkpt><trkpt lat="45.74864689019662" lon="10.136225361264867"><ele>874.3333333333334</ele><time>2026-03-15T16:05:45.998Z</time></trkpt><trkpt lat="45.74869212816932" lon="10.136109976060414"><ele>871.6666666666667</ele><time>2026-03-15T16:05:46.998Z</time></trkpt><trkpt lat="45.74871873975983" lon="10.135975792012264"><ele>869.0</ele><time>2026-03-15T16:05:48.998Z</time></trkpt><trkpt lat="45.74869042364155" lon="10.135879720376874"><ele>869.0000000000001</ele><time>2026-03-15T16:05:49.998Z</time></trkpt><trkpt lat="45.74861664334563" lon="10.135831935405008"><ele>869.0</ele><time>2026-03-15T16:05:50.998Z</time></trkpt><trkpt lat="45.74855024957151" lon="10.135868025719573"><ele>869.0</ele><time>2026-03-15T16:05:51.998Z</time></trkpt><trkpt lat="45.74852640743717" lon="10.13595855524743"><ele>869.0</ele><time>2026-03-15T16:05:52.998Z</time></trkpt><trkpt lat="45.74850782781636" lon="10.13606732017065"><ele>869.0000000000001</ele><time>2026-03-15T16:05:53.998Z</time></trkpt><trkpt lat="45.748493383320294" lon="10.136179072333233"><ele>869.0</ele><time>2026-03-15T16:05:54.998Z</time></trkpt><trkpt lat="45.748392787440864" lon="10.13615509473458"><ele>869.0</ele><time>2026-03-15T16:05:56.998Z</time></trkpt><trkpt lat="45.74830703856061" lon="10.136110902620766"><ele>869.0000000000001</ele><time>2026-03-15T16:05:57.998Z</time></trkpt><trkpt lat="45.74821023805377" lon="10.136050839068599"><ele>869.0000000000001</ele><time>2026-03-15T16:05:58.998Z</time></trkpt><trkpt lat="45.74811245975468" lon="10.135977593948855"><ele>869.0</ele><time>2026-03-15T16:05:59.998Z</time></trkpt><trkpt lat="45.74803099927638" lon="10.135913187030406"><ele>869.0</ele><time>2026-03-15T16:06:00.998Z</time></trkpt><trkpt lat="45.747953164843686" lon="10.135850582241286"><ele>869.0000000000001</ele><time>2026-03-15T16:06:01.998Z</time></trkpt><trkpt lat="45.74790217609853" lon="10.135793026147292"><ele>869.0</ele><time>2026-03-15T16:06:02.998Z</time></trkpt><trkpt lat="45.74784627774519" lon="10.135740793979034"><ele>869.0</ele><time>2026-03-15T16:06:03.998Z</time></trkpt><trkpt lat="45.74778096178724" lon="10.135706025190192"><ele>869.0</ele><time>2026-03-15T16:06:04.998Z</time></trkpt><trkpt lat="45.74769406338634" lon="10.135689721840096"><ele>869.0000000000001</ele><time>2026-03-15T16:06:05.998Z</time></trkpt><trkpt lat="45.74757805678665" lon="10.13571837269164"><ele>869.0</ele><time>2026-03-15T16:06:06.998Z</time></trkpt><trkpt lat="45.74749600225516" lon="10.135755071834216"><ele>866.6</ele><time>2026-03-15T16:06:07.998Z</time></trkpt><trkpt lat="45.74740199517746" lon="10.135824644316088"><ele>864.2</ele><time>2026-03-15T16:06:08.998Z</time></trkpt><trkpt lat="45.747295844495376" lon="10.135890294320834"><ele>861.8000000000001</ele><time>2026-03-15T16:06:09.998Z</time></trkpt><trkpt lat="45.74720359573456" lon="10.135935582561768"><ele>859.4000000000001</ele><time>2026-03-15T16:06:10.997Z</time></trkpt><trkpt lat="45.74712131095875" lon="10.13597127944493"><ele>857.0</ele><time>2026-03-15T16:06:11.997Z</time></trkpt><trkpt lat="45.747039420118305" lon="10.136002700756125"><ele>857.0</ele><time>2026-03-15T16:06:12.997Z</time></trkpt><trkpt lat="45.74696894367605" lon="10.136023693012035"><ele>857.0</ele><time>2026-03-15T16:06:13.997Z</time></trkpt><trkpt lat="45.74687329619042" lon="10.136038291083759"><ele>857.0</ele><time>2026-03-15T16:06:15.997Z</time></trkpt><trkpt lat="45.74682562720034" lon="10.135967614788743"><ele>857.0</ele><time>2026-03-15T16:06:17.997Z</time></trkpt><trkpt lat="45.746893820043596" lon="10.135863569338024"><ele>857.0</ele><time>2026-03-15T16:06:19.997Z</time></trkpt><trkpt lat="45.74700130812689" lon="10.135799962235128"><ele>857.0000000000001</ele><time>2026-03-15T16:06:21.997Z</time></trkpt><trkpt lat="45.747107809525275" lon="10.135727670554154"><ele>857.0</ele><time>2026-03-15T16:06:24Z</time></trkpt><trkpt lat="45.74718328483953" lon="10.135606347872226"><ele>857.0</ele><time>2026-03-15T16:06:26Z</time></trkpt><trkpt lat="45.74722631285373" lon="10.13553643874716"><ele>857.0</ele><time>2026-03-15T16:06:27Z</time></trkpt><trkpt lat="45.74728874144073" lon="10.135468542030416"><ele>857.0000000000001</ele><time>2026-03-15T16:06:28Z</time></trkpt><trkpt lat="45.74733946308931" lon="10.135398000334826"><ele>857.0</ele><time>2026-03-15T16:06:29Z</time></trkpt><trkpt lat="45.7474395392964" lon="10.135267950233168"><ele>856.6</ele><time>2026-03-15T16:06:31Z</time></trkpt><trkpt lat="45.74750134525011" lon="10.13518003378735"><ele>856.2</ele><time>2026-03-15T16:06:32Z</time></trkpt><trkpt lat="45.74756367766095" lon="10.135100775366991"><ele>855.8</ele><time>2026-03-15T16:06:33Z</time></trkpt><trkpt lat="45.747622269644744" lon="10.135024643260103"><ele>855.4</ele><time>2026-03-15T16:06:34Z</time></trkpt><trkpt lat="45.74771432318953" lon="10.134927814950558"><ele>855.0</ele><time>2026-03-15T16:06:36Z</time></trkpt><trkpt lat="45.74780509822479" lon="10.134936548980308"><ele>855.0</ele><time>2026-03-15T16:06:38Z</time></trkpt><trkpt lat="45.74793108596033" lon="10.134958436920208"><ele>855.0</ele><time>2026-03-15T16:06:40Z</time></trkpt><trkpt lat="45.74804913493133" lon="10.134914195892602"><ele>855.0</ele><time>2026-03-15T16:06:42Z</time></trkpt><trkpt lat="45.74811532521593" lon="10.134844668772562"><ele>855.0</ele><time>2026-03-15T16:06:43Z</time></trkpt><trkpt lat="45.74816598590609" lon="10.134737305963533"><ele>855.0</ele><time>2026-03-15T16:06:44Z</time></trkpt><trkpt lat="45.748181319390085" lon="10.13457865547534"><ele>852.4285714285714</ele><time>2026-03-15T16:06:45Z</time></trkpt><trkpt lat="45.74816628905419" lon="10.134463622211786"><ele>849.8571428571428</ele><time>2026-03-15T16:06:46Z</time></trkpt><trkpt lat="45.74817990705636" lon="10.134368085003064"><ele>847.2857142857142</ele><time>2026-03-15T16:06:47Z</time></trkpt><trkpt lat="45.74820264208157" lon="10.134268841750638"><ele>844.7142857142858</ele><time>2026-03-15T16:06:48Z</time></trkpt><trkpt lat="45.7482268251321" lon="10.13417873403782"><ele>842.1428571428571</ele><time>2026-03-15T16:06:49Z</time></trkpt><trkpt lat="45.74825420455856" lon="10.134090915761448"><ele>839.5714285714286</ele><time>2026-03-15T16:06:50Z</time></trkpt><trkpt lat="45.74828985861975" lon="10.13400248753489"><ele>837.0</ele><time>2026-03-15T16:06:51Z</time></trkpt><trkpt lat="45.74837383035691" lon="10.13388496618013"><ele>838.8333333333334</ele><time>2026-03-15T16:06:53Z</time></trkpt><trkpt lat="45.74846646111722" lon="10.13381275981629"><ele>840.6666666666667</ele><time>2026-03-15T16:06:55Z</time></trkpt><trkpt lat="45.74855356307437" lon="10.133755356238554"><ele>842.5</ele><time>2026-03-15T16:06:57Z</time></trkpt><trkpt lat="45.74857630637666" lon="10.133649269359873"><ele>844.3333333333334</ele><time>2026-03-15T16:06:58Z</time></trkpt><trkpt lat="45.748538883134025" lon="10.133547045868854"><ele>846.1666666666667</ele><time>2026-03-15T16:06:59Z</time></trkpt><trkpt lat="45.74847705524079" lon="10.133500536310784"><ele>848.0</ele><time>2026-03-15T16:07:00Z</time></trkpt><trkpt lat="45.74840545850475" lon="10.133518548305954"><ele>842.8333333333334</ele><time>2026-03-15T16:07:01Z</time></trkpt><trkpt lat="45.748355333115704" lon="10.133664859221328"><ele>837.6666666666667</ele><time>2026-03-15T16:07:02Z</time></trkpt><trkpt lat="45.7482862397065" lon="10.13374912407639"><ele>832.5</ele><time>2026-03-15T16:07:03Z</time></trkpt><trkpt lat="45.74821461724829" lon="10.133828637247792"><ele>827.3333333333333</ele><time>2026-03-15T16:07:04Z</time></trkpt><trkpt lat="45.74814653833677" lon="10.133879577958197"><ele>822.1666666666666</ele><time>2026-03-15T16:07:05Z</time></trkpt><trkpt lat="45.7480869113773" lon="10.133930145683175"><ele>817.0</ele><time>2026-03-15T16:07:05.999Z</time></trkpt><trkpt lat="45.74796516618476" lon="10.134013025835607"><ele>816.9999999999999</ele><time>2026-03-15T16:07:07.999Z</time></trkpt><trkpt lat="45.74789544589952" lon="10.134052953126718"><ele>817.0</ele><time>2026-03-15T16:07:08.999Z</time></trkpt><trkpt lat="45.74783094489149" lon="10.134080956244627"><ele>817.0</ele><time>2026-03-15T16:07:09.999Z</time></trkpt><trkpt lat="45.74776651035074" lon="10.134102084106994"><ele>817.0</ele><time>2026-03-15T16:07:10.999Z</time></trkpt><trkpt lat="45.7476868701338" lon="10.134086957127737"><ele>816.9999999999999</ele><time>2026-03-15T16:07:12.999Z</time></trkpt><trkpt lat="45.74762209846661" lon="10.13400660610093"><ele>817.0</ele><time>2026-03-15T16:07:14.999Z</time></trkpt><trkpt lat="45.74762049413612" lon="10.133881622106768"><ele>819.4000000000001</ele><time>2026-03-15T16:07:17.999Z</time></trkpt><trkpt lat="45.747607072065016" lon="10.133760015503382"><ele>821.8000000000001</ele><time>2026-03-15T16:07:18.999Z</time></trkpt><trkpt lat="45.74761053425145" lon="10.133632339415312"><ele>824.2</ele><time>2026-03-15T16:07:19.999Z</time></trkpt><trkpt lat="45.74760235937622" lon="10.133494956710146"><ele>826.6</ele><time>2026-03-15T16:07:20.999Z</time></trkpt><trkpt lat="45.74760113063432" lon="10.133361138106652"><ele>829.0</ele><time>2026-03-15T16:07:21.999Z</time></trkpt><trkpt lat="45.74760240931974" lon="10.133236901090982"><ele>828.9999999999999</ele><time>2026-03-15T16:07:22.999Z</time></trkpt><trkpt lat="45.74762728351123" lon="10.133106537750972"><ele>829.0</ele><time>2026-03-15T16:07:23.999Z</time></trkpt><trkpt lat="45.74764683979754" lon="10.132994919520211"><ele>829.0</ele><time>2026-03-15T16:07:24.999Z</time></trkpt><trkpt lat="45.74767218626428" lon="10.132902908939574"><ele>829.0</ele><time>2026-03-15T16:07:25.999Z</time></trkpt><trkpt lat="45.74769782339912" lon="10.132808359713065"><ele>828.9999999999999</ele><time>2026-03-15T16:07:26.999Z</time></trkpt><trkpt lat="45.74771839148558" lon="10.132704337988738"><ele>829.0</ele><time>2026-03-15T16:07:27.999Z</time></trkpt><trkpt lat="45.74772963450896" lon="10.132597635634784"><ele>824.1666666666666</ele><time>2026-03-15T16:07:28.999Z</time></trkpt><trkpt lat="45.74772185423393" lon="10.132494029904642"><ele>819.3333333333333</ele><time>2026-03-15T16:07:29.999Z</time></trkpt><trkpt lat="45.747730051065034" lon="10.132371864626101"><ele>814.5</ele><time>2026-03-15T16:07:30.999Z</time></trkpt><trkpt lat="45.74773688767209" lon="10.132242535411933"><ele>809.6666666666667</ele><time>2026-03-15T16:07:31.999Z</time></trkpt><trkpt lat="45.74775549951137" lon="10.132131947621092"><ele>804.8333333333334</ele><time>2026-03-15T16:07:32.999Z</time></trkpt><trkpt lat="45.74779310277348" lon="10.13200522393882"><ele>800.0</ele><time>2026-03-15T16:07:33.999Z</time></trkpt><trkpt lat="45.7478133969768" lon="10.131867783354393"><ele>798.2</ele><time>2026-03-15T16:07:34.999Z</time></trkpt><trkpt lat="45.74783751045743" lon="10.131733529602347"><ele>796.4</ele><time>2026-03-15T16:07:35.999Z</time></trkpt><trkpt lat="45.7478764664291" lon="10.131595067071604"><ele>794.5999999999999</ele><time>2026-03-15T16:07:36.999Z</time></trkpt><trkpt lat="45.747910800589864" lon="10.131450569564294"><ele>792.8</ele><time>2026-03-15T16:07:37.999Z</time></trkpt><trkpt lat="45.74795687130916" lon="10.131301504264504"><ele>791.0</ele><time>2026-03-15T16:07:38.999Z</time></trkpt><trkpt lat="45.74798008847551" lon="10.13114789639059"><ele>790.1999999999999</ele><time>2026-03-15T16:07:39.999Z</time></trkpt><trkpt lat="45.747997697334576" lon="10.131012441703762"><ele>789.4</ele><time>2026-03-15T16:07:40.999Z</time></trkpt><trkpt lat="45.748015105585125" lon="10.130875288428651"><ele>788.6</ele><time>2026-03-15T16:07:41.999Z</time></trkpt><trkpt lat="45.74801546644757" lon="10.130741379402725"><ele>787.8</ele><time>2026-03-15T16:07:42.999Z</time></trkpt><trkpt lat="45.74803467502413" lon="10.130598011686256"><ele>787.0</ele><time>2026-03-15T16:07:43.999Z</time></trkpt><trkpt lat="45.74805858415443" lon="10.130460303295358"><ele>787.0</ele><time>2026-03-15T16:07:44.999Z</time></trkpt><trkpt lat="45.74807100832228" lon="10.130331636639575"><ele>787.0</ele><time>2026-03-15T16:07:45.999Z</time></trkpt><trkpt lat="45.74810633075598" lon="10.130203969719222"><ele>787.0</ele><time>2026-03-15T16:07:46.999Z</time></trkpt><trkpt lat="45.748133255627195" lon="10.130065782882955"><ele>787.0</ele><time>2026-03-15T16:07:47.999Z</time></trkpt><trkpt lat="45.74816181140872" lon="10.12993591234726"><ele>787.0</ele><time>2026-03-15T16:07:48.999Z</time></trkpt><trkpt lat="45.7481905942337" lon="10.129811044180563"><ele>786.9999999999999</ele><time>2026-03-15T16:07:49.999Z</time></trkpt><trkpt lat="45.74821974922601" lon="10.129700685937918"><ele>787.0</ele><time>2026-03-15T16:07:50.998Z</time></trkpt><trkpt lat="45.748249074665814" lon="10.129606284280793"><ele>787.0</ele><time>2026-03-15T16:07:51.998Z</time></trkpt><trkpt lat="45.748268214394976" lon="10.129514022507433"><ele>787.0</ele><time>2026-03-15T16:07:52.998Z</time></trkpt><trkpt lat="45.74831079748753" lon="10.129435972104291"><ele>786.9999999999999</ele><time>2026-03-15T16:07:53.998Z</time></trkpt><trkpt lat="45.74835312739707" lon="10.129337658940942"><ele>787.0</ele><time>2026-03-15T16:07:54.998Z</time></trkpt><trkpt lat="45.74839209666607" lon="10.129222253084807"><ele>786.9999999999999</ele><time>2026-03-15T16:07:55.998Z</time></trkpt><trkpt lat="45.74842211384618" lon="10.1291078855744"><ele>787.0</ele><time>2026-03-15T16:07:56.998Z</time></trkpt><trkpt lat="45.74844858790919" lon="10.129003969813756"><ele>787.0</ele><time>2026-03-15T16:07:57.998Z</time></trkpt><trkpt lat="45.74846973302367" lon="10.128895701086671"><ele>787.0</ele><time>2026-03-15T16:07:58.998Z</time></trkpt><trkpt lat="45.748488969485955" lon="10.12874778354346"><ele>786.9999999999999</ele><time>2026-03-15T16:07:59.998Z</time></trkpt><trkpt lat="45.74850420845734" lon="10.128620690997552"><ele>787.0</ele><time>2026-03-15T16:08:00.998Z</time></trkpt><trkpt lat="45.74850029837272" lon="10.128483782500403"><ele>787.0</ele><time>2026-03-15T16:08:01.998Z</time></trkpt><trkpt lat="45.748507935073725" lon="10.128360362240812"><ele>787.0</ele><time>2026-03-15T16:08:02.998Z</time></trkpt><trkpt lat="45.74852686152003" lon="10.128237431837753"><ele>787.0</ele><time>2026-03-15T16:08:03.998Z</time></trkpt><trkpt lat="45.748571182167204" lon="10.128100615677438"><ele>787.0</ele><time>2026-03-15T16:08:04.998Z</time></trkpt><trkpt lat="45.7486124170887" lon="10.12795622809014"><ele>787.0</ele><time>2026-03-15T16:08:05.998Z</time></trkpt><trkpt lat="45.748652691326605" lon="10.127812719714946"><ele>780.0</ele><time>2026-03-15T16:08:06.998Z</time></trkpt><trkpt lat="45.748688389160506" lon="10.12767023931332"><ele>773.0</ele><time>2026-03-15T16:08:07.998Z</time></trkpt><trkpt lat="45.74871927262298" lon="10.127534184113061"><ele>766.0</ele><time>2026-03-15T16:08:08.998Z</time></trkpt><trkpt lat="45.74874437313963" lon="10.127399006233713"><ele>759.0</ele><time>2026-03-15T16:08:09.998Z</time></trkpt><trkpt lat="45.748790120097695" lon="10.127271917540755"><ele>752.0</ele><time>2026-03-15T16:08:10.998Z</time></trkpt><trkpt lat="45.748820638426544" lon="10.127153151132363"><ele>751.8333333333333</ele><time>2026-03-15T16:08:11.998Z</time></trkpt><trkpt lat="45.74883878341997" lon="10.127031023213554"><ele>751.6666666666666</ele><time>2026-03-15T16:08:12.998Z</time></trkpt><trkpt lat="45.74887993939924" lon="10.126919663578644"><ele>751.5</ele><time>2026-03-15T16:08:13.998Z</time></trkpt><trkpt lat="45.74891015239181" lon="10.126808988677043"><ele>751.3333333333334</ele><time>2026-03-15T16:08:14.998Z</time></trkpt><trkpt lat="45.74894144009221" lon="10.12669614177488"><ele>751.1666666666667</ele><time>2026-03-15T16:08:15.998Z</time></trkpt><trkpt lat="45.74896751449441" lon="10.12658374999303"><ele>751.0</ele><time>2026-03-15T16:08:16.998Z</time></trkpt><trkpt lat="45.74899670117956" lon="10.126470030532651"><ele>751.0</ele><time>2026-03-15T16:08:17.998Z</time></trkpt><trkpt lat="45.74901999124526" lon="10.12636921772058"><ele>751.0</ele><time>2026-03-15T16:08:18.998Z</time></trkpt><trkpt lat="45.74904785208009" lon="10.126266277308071"><ele>751.0</ele><time>2026-03-15T16:08:19.998Z</time></trkpt><trkpt lat="45.74907691255958" lon="10.126125399732354"><ele>751.0</ele><time>2026-03-15T16:08:20.998Z</time></trkpt><trkpt lat="45.74909479121184" lon="10.125973087560746"><ele>751.0</ele><time>2026-03-15T16:08:21.998Z</time></trkpt><trkpt lat="45.74913313325071" lon="10.125837408236128"><ele>751.0</ele><time>2026-03-15T16:08:22.998Z</time></trkpt><trkpt lat="45.749159754380436" lon="10.125697085979242"><ele>751.0</ele><time>2026-03-15T16:08:23.998Z</time></trkpt><trkpt lat="45.74917193489792" lon="10.125557104428458"><ele>751.0</ele><time>2026-03-15T16:08:24.998Z</time></trkpt><trkpt lat="45.74918888696512" lon="10.125413321018685"><ele>751.0</ele><time>2026-03-15T16:08:25.998Z</time></trkpt><trkpt lat="45.74922732176112" lon="10.125279008685162"><ele>751.0</ele><time>2026-03-15T16:08:26.998Z</time></trkpt><trkpt lat="45.74924926274869" lon="10.125130204469915"><ele>751.0</ele><time>2026-03-15T16:08:28.001Z</time></trkpt><trkpt lat="45.74926832679112" lon="10.124990644048253"><ele>751.0</ele><time>2026-03-15T16:08:29.001Z</time></trkpt><trkpt lat="45.749286303804446" lon="10.12485904133276"><ele>751.0</ele><time>2026-03-15T16:08:30.001Z</time></trkpt><trkpt lat="45.749304347075366" lon="10.124726953641005"><ele>751.0</ele><time>2026-03-15T16:08:31.001Z</time></trkpt><trkpt lat="45.74932296329775" lon="10.124590601486391"><ele>751.0</ele><time>2026-03-15T16:08:32.001Z</time></trkpt><trkpt lat="45.74932520963048" lon="10.124447597163314"><ele>751.1999999999999</ele><time>2026-03-15T16:08:33.001Z</time></trkpt><trkpt lat="45.74934226964535" lon="10.124324903607134"><ele>751.4</ele><time>2026-03-15T16:08:34.001Z</time></trkpt><trkpt lat="45.749359907049914" lon="10.124184541525485"><ele>751.6</ele><time>2026-03-15T16:08:35.001Z</time></trkpt><trkpt lat="45.74938836864246" lon="10.124056933466573"><ele>751.8</ele><time>2026-03-15T16:08:36.001Z</time></trkpt><trkpt lat="45.749404779232954" lon="10.12392149973745"><ele>752.0</ele><time>2026-03-15T16:08:37.001Z</time></trkpt><trkpt lat="45.74941471080693" lon="10.123794146602398"><ele>745.0</ele><time>2026-03-15T16:08:38.001Z</time></trkpt><trkpt lat="45.74942604889439" lon="10.123675463987393"><ele>738.0</ele><time>2026-03-15T16:08:39.001Z</time></trkpt><trkpt lat="45.74943681221862" lon="10.123561180501277"><ele>731.0</ele><time>2026-03-15T16:08:40.001Z</time></trkpt><trkpt lat="45.749486296640136" lon="10.123457502069229"><ele>724.0</ele><time>2026-03-15T16:08:41.001Z</time></trkpt><trkpt lat="45.7495237766891" lon="10.123364343158032"><ele>717.0</ele><time>2026-03-15T16:08:42.001Z</time></trkpt><trkpt lat="45.749548790150016" lon="10.123272022458705"><ele>710.0</ele><time>2026-03-15T16:08:43.001Z</time></trkpt><trkpt lat="45.7495599756681" lon="10.123181794464541"><ele>710.0</ele><time>2026-03-15T16:08:44Z</time></trkpt><trkpt lat="45.74957261663519" lon="10.123087102067613"><ele>710.0</ele><time>2026-03-15T16:08:45Z</time></trkpt><trkpt lat="45.749611086143496" lon="10.122948940743852"><ele>710.0</ele><time>2026-03-15T16:08:47Z</time></trkpt><trkpt lat="45.7496892888755" lon="10.122924711237822"><ele>710.0</ele><time>2026-03-15T16:08:48.999Z</time></trkpt><trkpt lat="45.749702266546414" lon="10.123022836330682"><ele>710.0</ele><time>2026-03-15T16:08:49.999Z</time></trkpt><trkpt lat="45.74969858519863" lon="10.123127970961844"><ele>710.0</ele><time>2026-03-15T16:08:50.999Z</time></trkpt><trkpt lat="45.74968273983039" lon="10.123239466869267"><ele>710.0</ele><time>2026-03-15T16:08:51.999Z</time></trkpt><trkpt lat="45.74967328015386" lon="10.123356646754608"><ele>710.0</ele><time>2026-03-15T16:08:52.999Z</time></trkpt><trkpt lat="45.74966702716441" lon="10.123476207263842"><ele>710.0</ele><time>2026-03-15T16:08:53.999Z</time></trkpt><trkpt lat="45.74965977418958" lon="10.123600139631247"><ele>710.0</ele><time>2026-03-15T16:08:54.999Z</time></trkpt><trkpt lat="45.74964946610159" lon="10.123722106977201"><ele>710.0</ele><time>2026-03-15T16:08:55.999Z</time></trkpt><trkpt lat="45.74964327875194" lon="10.123838550853518"><ele>710.0</ele><time>2026-03-15T16:08:56.999Z</time></trkpt><trkpt lat="45.74965510722587" lon="10.123958062068736"><ele>710.0</ele><time>2026-03-15T16:08:57.999Z</time></trkpt><trkpt lat="45.749681878499004" lon="10.124074108711065"><ele>710.0</ele><time>2026-03-15T16:08:58.999Z</time></trkpt><trkpt lat="45.74970810422438" lon="10.124174312368089"><ele>710.0</ele><time>2026-03-15T16:08:59.999Z</time></trkpt><trkpt lat="45.74970570351512" lon="10.124286847665822"><ele>710.0</ele><time>2026-03-15T16:09:00.999Z</time></trkpt><trkpt lat="45.749732155721745" lon="10.12439371196928"><ele>710.0</ele><time>2026-03-15T16:09:01.999Z</time></trkpt><trkpt lat="45.74976297467473" lon="10.124523022549196"><ele>710.0</ele><time>2026-03-15T16:09:03.999Z</time></trkpt><trkpt lat="45.74986099006083" lon="10.124487245889247"><ele>710.0</ele><time>2026-03-15T16:09:05.999Z</time></trkpt><trkpt lat="45.74988493065874" lon="10.124392643116074"><ele>710.0</ele><time>2026-03-15T16:09:06.999Z</time></trkpt><trkpt lat="45.749909634508924" lon="10.124272387734774"><ele>710.0</ele><time>2026-03-15T16:09:07.999Z</time></trkpt><trkpt lat="45.74993102729281" lon="10.124154820546773"><ele>710.0</ele><time>2026-03-15T16:09:08.999Z</time></trkpt><trkpt lat="45.74996199165074" lon="10.124027311735022"><ele>710.0</ele><time>2026-03-15T16:09:09.999Z</time></trkpt><trkpt lat="45.749998885195765" lon="10.123905012624352"><ele>710.0</ele><time>2026-03-15T16:09:10.999Z</time></trkpt><trkpt lat="45.75003920068884" lon="10.123779049449087"><ele>710.0</ele><time>2026-03-15T16:09:11.999Z</time></trkpt><trkpt lat="45.75008095710237" lon="10.12364683137591"><ele>710.0</ele><time>2026-03-15T16:09:12.999Z</time></trkpt><trkpt lat="45.75011844818709" lon="10.123524617825037"><ele>710.0</ele><time>2026-03-15T16:09:13.999Z</time></trkpt><trkpt lat="45.750143443381596" lon="10.123401046488624"><ele>710.0</ele><time>2026-03-15T16:09:14.999Z</time></trkpt><trkpt lat="45.75017968988712" lon="10.123278701893724"><ele>710.0</ele><time>2026-03-15T16:09:15.999Z</time></trkpt><trkpt lat="45.750223367348006" lon="10.123173220663679"><ele>703.8333333333333</ele><time>2026-03-15T16:09:16.999Z</time></trkpt><trkpt lat="45.75025768860645" lon="10.12304821603417"><ele>697.6666666666666</ele><time>2026-03-15T16:09:17.999Z</time></trkpt><trkpt lat="45.750285513522584" lon="10.122937466890512"><ele>691.5</ele><time>2026-03-15T16:09:18.999Z</time></trkpt><trkpt lat="45.75030887377617" lon="10.122815636395242"><ele>685.3333333333334</ele><time>2026-03-15T16:09:19.999Z</time></trkpt><trkpt lat="45.750321905676564" lon="10.122697296477611"><ele>679.1666666666667</ele><time>2026-03-15T16:09:20.999Z</time></trkpt><trkpt lat="45.75032414028973" lon="10.122566405763079"><ele>673.0</ele><time>2026-03-15T16:09:21.999Z</time></trkpt><trkpt lat="45.75031542445534" lon="10.122431252407749"><ele>671.4</ele><time>2026-03-15T16:09:22.999Z</time></trkpt><trkpt lat="45.750301476496674" lon="10.122274911181684"><ele>669.8</ele><time>2026-03-15T16:09:23.999Z</time></trkpt><trkpt lat="45.750283626575175" lon="10.122135192886823"><ele>668.2</ele><time>2026-03-15T16:09:24.999Z</time></trkpt><trkpt lat="45.750258252590804" lon="10.122010192668382"><ele>666.6</ele><time>2026-03-15T16:09:25.999Z</time></trkpt><trkpt lat="45.750243078034394" lon="10.121887818710752"><ele>665.0</ele><time>2026-03-15T16:09:26.998Z</time></trkpt><trkpt lat="45.75023972658977" lon="10.12176042019663"><ele>665.0</ele><time>2026-03-15T16:09:27.998Z</time></trkpt><trkpt lat="45.750239873336966" lon="10.12162512128736"><ele>665.0</ele><time>2026-03-15T16:09:28.998Z</time></trkpt><trkpt lat="45.750242327452746" lon="10.12145966242945"><ele>665.0</ele><time>2026-03-15T16:09:29.998Z</time></trkpt><trkpt lat="45.75024530373062" lon="10.121310153442838"><ele>665.0</ele><time>2026-03-15T16:09:30.998Z</time></trkpt><trkpt lat="45.75024644291994" lon="10.12114825118369"><ele>665.0</ele><time>2026-03-15T16:09:31.998Z</time></trkpt><trkpt lat="45.750236161015" lon="10.121017739280909"><ele>664.1666666666666</ele><time>2026-03-15T16:09:32.998Z</time></trkpt><trkpt lat="45.75025675547188" lon="10.120891825299108"><ele>663.3333333333333</ele><time>2026-03-15T16:09:33.998Z</time></trkpt><trkpt lat="45.750289633253075" lon="10.120770687661286"><ele>662.5</ele><time>2026-03-15T16:09:34.998Z</time></trkpt><trkpt lat="45.75033591542093" lon="10.120669357386426"><ele>661.6666666666666</ele><time>2026-03-15T16:09:35.998Z</time></trkpt><trkpt lat="45.7503656710008" lon="10.12056685271718"><ele>660.8333333333334</ele><time>2026-03-15T16:09:36.998Z</time></trkpt><trkpt lat="45.75039212054775" lon="10.120454667208035"><ele>660.0</ele><time>2026-03-15T16:09:37.998Z</time></trkpt><trkpt lat="45.75040537172098" lon="10.12032468468991"><ele>660.4</ele><time>2026-03-15T16:09:38.998Z</time></trkpt><trkpt lat="45.750406999770576" lon="10.120178121440235"><ele>660.8</ele><time>2026-03-15T16:09:39.998Z</time></trkpt><trkpt lat="45.7504036051452" lon="10.12003032302744"><ele>661.2</ele><time>2026-03-15T16:09:40.998Z</time></trkpt><trkpt lat="45.750427149287475" lon="10.11989038496973"><ele>661.6</ele><time>2026-03-15T16:09:41.998Z</time></trkpt><trkpt lat="45.750471121476" lon="10.119732610226821"><ele>662.0</ele><time>2026-03-15T16:09:42.998Z</time></trkpt><trkpt lat="45.75050786153498" lon="10.11960074963545"><ele>662.0</ele><time>2026-03-15T16:09:43.998Z</time></trkpt><trkpt lat="45.75056269471774" lon="10.11949651153359"><ele>662.0</ele><time>2026-03-15T16:09:44.998Z</time></trkpt><trkpt lat="45.750598285555235" lon="10.119404586468269"><ele>662.0</ele><time>2026-03-15T16:09:45.998Z</time></trkpt><trkpt lat="45.75064000198521" lon="10.119296055630643"><ele>662.0</ele><time>2026-03-15T16:09:46.998Z</time></trkpt><trkpt lat="45.75068404201667" lon="10.119179213711734"><ele>662.0</ele><time>2026-03-15T16:09:47.998Z</time></trkpt><trkpt lat="45.75074842669915" lon="10.119094888236289"><ele>662.0</ele><time>2026-03-15T16:09:48.998Z</time></trkpt><trkpt lat="45.75081807054189" lon="10.119036414885098"><ele>665.2</ele><time>2026-03-15T16:09:49.998Z</time></trkpt><trkpt lat="45.75090342679132" lon="10.11899766731359"><ele>668.4000000000001</ele><time>2026-03-15T16:09:50.998Z</time></trkpt><trkpt lat="45.75095451055765" lon="10.11893842277177"><ele>671.5999999999999</ele><time>2026-03-15T16:09:51.998Z</time></trkpt><trkpt lat="45.751015336889154" lon="10.118854609650292"><ele>674.8</ele><time>2026-03-15T16:09:52.998Z</time></trkpt><trkpt lat="45.75108111693233" lon="10.118730879017756"><ele>678.0</ele><time>2026-03-15T16:09:53.998Z</time></trkpt><trkpt lat="45.75112230072785" lon="10.118594713458375"><ele>671.8</ele><time>2026-03-15T16:09:54.998Z</time></trkpt><trkpt lat="45.751129984063546" lon="10.118463418941834"><ele>665.5999999999999</ele><time>2026-03-15T16:09:55.998Z</time></trkpt><trkpt lat="45.75118644295316" lon="10.118357390083295"><ele>659.4000000000001</ele><time>2026-03-15T16:09:56.998Z</time></trkpt><trkpt lat="45.75125782007595" lon="10.118277430698825"><ele>653.2</ele><time>2026-03-15T16:09:57.998Z</time></trkpt><trkpt lat="45.75131219201628" lon="10.11818401994076"><ele>647.0</ele><time>2026-03-15T16:09:58.998Z</time></trkpt><trkpt lat="45.751381559870644" lon="10.118056155046386"><ele>647.0</ele><time>2026-03-15T16:09:59.998Z</time></trkpt><trkpt lat="45.75144101792851" lon="10.117927276008627"><ele>647.0</ele><time>2026-03-15T16:10:00.998Z</time></trkpt><trkpt lat="45.75149420418786" lon="10.117807281166947"><ele>647.0</ele><time>2026-03-15T16:10:01.998Z</time></trkpt><trkpt lat="45.75154331347781" lon="10.1176897262521"><ele>647.0</ele><time>2026-03-15T16:10:02.998Z</time></trkpt><trkpt lat="45.7515839573544" lon="10.117584847466192"><ele>647.0</ele><time>2026-03-15T16:10:03.998Z</time></trkpt><trkpt lat="45.75162281726547" lon="10.117469332327177"><ele>649.4000000000001</ele><time>2026-03-15T16:10:04.998Z</time></trkpt><trkpt lat="45.751646765703924" lon="10.117347589567634"><ele>651.8000000000001</ele><time>2026-03-15T16:10:05.998Z</time></trkpt><trkpt lat="45.751690703939346" lon="10.117254100735455"><ele>654.2</ele><time>2026-03-15T16:10:06.998Z</time></trkpt><trkpt lat="45.751728560697586" lon="10.117118173674772"><ele>656.6</ele><time>2026-03-15T16:10:08.998Z</time></trkpt><trkpt lat="45.75181634979233" lon="10.117150261090778"><ele>659.0</ele><time>2026-03-15T16:10:10.997Z</time></trkpt><trkpt lat="45.75178895207606" lon="10.117306308186548"><ele>656.6</ele><time>2026-03-15T16:10:11.997Z</time></trkpt><trkpt lat="45.751741352019906" lon="10.11742076645293"><ele>654.2</ele><time>2026-03-15T16:10:12.997Z</time></trkpt><trkpt lat="45.75171544539961" lon="10.117562626352584"><ele>651.8000000000001</ele><time>2026-03-15T16:10:13.997Z</time></trkpt><trkpt lat="45.75168180149192" lon="10.117695608030932"><ele>649.4000000000001</ele><time>2026-03-15T16:10:14.997Z</time></trkpt><trkpt lat="45.75165360201825" lon="10.117830369687013"><ele>647.0</ele><time>2026-03-15T16:10:15.997Z</time></trkpt><trkpt lat="45.751629676930484" lon="10.117960710912113"><ele>647.0</ele><time>2026-03-15T16:10:16.997Z</time></trkpt><trkpt lat="45.75160265069585" lon="10.11806059601863"><ele>647.0</ele><time>2026-03-15T16:10:17.997Z</time></trkpt><trkpt lat="45.75160614013822" lon="10.118220968969897"><ele>647.0</ele><time>2026-03-15T16:10:19.997Z</time></trkpt><trkpt lat="45.75164778535625" lon="10.118288970020027"><ele>647.0</ele><time>2026-03-15T16:10:20.997Z</time></trkpt><trkpt lat="45.751717530480505" lon="10.118350218204808"><ele>647.0</ele><time>2026-03-15T16:10:21.997Z</time></trkpt><trkpt lat="45.75180293472982" lon="10.118388494938795"><ele>647.0</ele><time>2026-03-15T16:10:22.997Z</time></trkpt><trkpt lat="45.75186620953194" lon="10.11839109462953"><ele>643.6</ele><time>2026-03-15T16:10:23.997Z</time></trkpt><trkpt lat="45.751954881101994" lon="10.11826591403742"><ele>640.2</ele><time>2026-03-15T16:10:25.997Z</time></trkpt><trkpt lat="45.751987224390966" lon="10.11815001130603"><ele>636.8</ele><time>2026-03-15T16:10:26.997Z</time></trkpt><trkpt lat="45.7520067732163" lon="10.118037724062354"><ele>633.4</ele><time>2026-03-15T16:10:27.997Z</time></trkpt><trkpt lat="45.75203979728917" lon="10.117939940061378"><ele>630.0</ele><time>2026-03-15T16:10:28.997Z</time></trkpt><trkpt lat="45.7520427511247" lon="10.117816580422648"><ele>628.6</ele><time>2026-03-15T16:10:29.997Z</time></trkpt><trkpt lat="45.75206877212867" lon="10.117684938014346"><ele>627.2</ele><time>2026-03-15T16:10:30.997Z</time></trkpt><trkpt lat="45.752101487336745" lon="10.117553407524035"><ele>625.8</ele><time>2026-03-15T16:10:31.997Z</time></trkpt><trkpt lat="45.752158974418336" lon="10.117408410614852"><ele>624.4</ele><time>2026-03-15T16:10:32.997Z</time></trkpt><trkpt lat="45.75223636398711" lon="10.11728752597702"><ele>623.0</ele><time>2026-03-15T16:10:34Z</time></trkpt><trkpt lat="45.75228261984902" lon="10.11714403746062"><ele>622.8333333333333</ele><time>2026-03-15T16:10:35Z</time></trkpt><trkpt lat="45.75233943794446" lon="10.117027415879683"><ele>622.6666666666666</ele><time>2026-03-15T16:10:36Z</time></trkpt><trkpt lat="45.752380282002974" lon="10.116912506260478"><ele>622.5</ele><time>2026-03-15T16:10:37Z</time></trkpt><trkpt lat="45.75242400327042" lon="10.116796975525169"><ele>622.3333333333334</ele><time>2026-03-15T16:10:38Z</time></trkpt><trkpt lat="45.75246165839912" lon="10.11669046309274"><ele>622.1666666666667</ele><time>2026-03-15T16:10:39Z</time></trkpt><trkpt lat="45.75249395409315" lon="10.116588131536313"><ele>622.0</ele><time>2026-03-15T16:10:40Z</time></trkpt><trkpt lat="45.75254218024072" lon="10.11645114120912"><ele>622.8333333333334</ele><time>2026-03-15T16:10:42Z</time></trkpt><trkpt lat="45.75260533515511" lon="10.116376951398726"><ele>623.6666666666667</ele><time>2026-03-15T16:26:00.999Z</time></trkpt><trkpt lat="45.752625811244464" lon="10.116288045348465"><ele>624.5</ele><time>2026-03-15T16:26:58.998Z</time></trkpt><trkpt lat="45.75268681160528" lon="10.116208758298727"><ele>625.3333333333334</ele><time>2026-03-15T16:27:01.998Z</time></trkpt><trkpt lat="45.752696445574315" lon="10.116061894522321"><ele>626.1666666666666</ele><time>2026-03-15T16:27:03.998Z</time></trkpt><trkpt lat="45.75267963599845" lon="10.11596933637015"><ele>627.0</ele><time>2026-03-15T16:27:04.998Z</time></trkpt><trkpt lat="45.75266155385749" lon="10.115872396235954"><ele>627.0</ele><time>2026-03-15T16:27:05.998Z</time></trkpt><trkpt lat="45.75265437117281" lon="10.115763309420672"><ele>627.0</ele><time>2026-03-15T16:27:06.998Z</time></trkpt><trkpt lat="45.75265254168983" lon="10.115642175918444"><ele>627.0</ele><time>2026-03-15T16:27:07.998Z</time></trkpt><trkpt lat="45.75265767285795" lon="10.115548524369107"><ele>627.0</ele><time>2026-03-15T16:27:08.998Z</time></trkpt><trkpt lat="45.75266834002803" lon="10.11543632600562"><ele>627.0</ele><time>2026-03-15T16:27:09.998Z</time></trkpt><trkpt lat="45.7526856220263" lon="10.115302924467853"><ele>627.0</ele><time>2026-03-15T16:27:10.998Z</time></trkpt><trkpt lat="45.752700091795674" lon="10.115191285940066"><ele>624.5</ele><time>2026-03-15T16:27:11.998Z</time></trkpt><trkpt lat="45.75271349041172" lon="10.11508679510925"><ele>622.0</ele><time>2026-03-15T16:27:12.998Z</time></trkpt><trkpt lat="45.75272445997141" lon="10.11498536384014"><ele>619.5</ele><time>2026-03-15T16:27:13.998Z</time></trkpt><trkpt lat="45.75273194257683" lon="10.114872487443629"><ele>617.0</ele><time>2026-03-15T16:27:14.998Z</time></trkpt><trkpt lat="45.75274374535697" lon="10.114767537071481"><ele>614.5</ele><time>2026-03-15T16:27:15.998Z</time></trkpt><trkpt lat="45.752755764515705" lon="10.11459601863822"><ele>612.0</ele><time>2026-03-15T16:27:16.998Z</time></trkpt><trkpt lat="45.752785223511445" lon="10.114339342807467"><ele>611.2</ele><time>2026-03-15T16:27:17.998Z</time></trkpt><trkpt lat="45.75280499898223" lon="10.11412829876956"><ele>610.4000000000001</ele><time>2026-03-15T16:27:18.998Z</time></trkpt><trkpt lat="45.75280658343982" lon="10.114011677547108"><ele>609.5999999999999</ele><time>2026-03-15T16:27:20.001Z</time></trkpt><trkpt lat="45.75279730971666" lon="10.113868957677775"><ele>608.8</ele><time>2026-03-15T16:27:21.001Z</time></trkpt><trkpt lat="45.75280036405537" lon="10.113737126367955"><ele>608.0</ele><time>2026-03-15T16:27:22.001Z</time></trkpt><trkpt lat="45.75278898257666" lon="10.113614905102482"><ele>608.0</ele><time>2026-03-15T16:27:23.001Z</time></trkpt><trkpt lat="45.752792551161" lon="10.113500102801908"><ele>608.0</ele><time>2026-03-15T16:27:24.001Z</time></trkpt><trkpt lat="45.75280096119851" lon="10.113387992198511"><ele>608.0</ele><time>2026-03-15T16:27:25.001Z</time></trkpt><trkpt lat="45.75277732516157" lon="10.113243863952526"><ele>608.0</ele><time>2026-03-15T16:27:26.001Z</time></trkpt><trkpt lat="45.75276386587296" lon="10.11310261132946"><ele>608.0</ele><time>2026-03-15T16:27:27.001Z</time></trkpt><trkpt lat="45.75273125296695" lon="10.112964535297014"><ele>608.1999999999999</ele><time>2026-03-15T16:27:28.001Z</time></trkpt><trkpt lat="45.75270702393425" lon="10.112829245717007"><ele>608.4</ele><time>2026-03-15T16:27:29.001Z</time></trkpt><trkpt lat="45.752677013194734" lon="10.112719789007127"><ele>608.5999999999999</ele><time>2026-03-15T16:27:30.001Z</time></trkpt><trkpt lat="45.75264215480302" lon="10.112599032183207"><ele>608.8</ele><time>2026-03-15T16:27:31.001Z</time></trkpt><trkpt lat="45.75259793470764" lon="10.112458113529971"><ele>609.0</ele><time>2026-03-15T16:27:32.001Z</time></trkpt><trkpt lat="45.75255259943013" lon="10.112338442180826"><ele>609.0</ele><time>2026-03-15T16:27:33.001Z</time></trkpt><trkpt lat="45.75249855835457" lon="10.112238259265643"><ele>609.0</ele><time>2026-03-15T16:27:34.001Z</time></trkpt><trkpt lat="45.75244551431297" lon="10.112151093052342"><ele>609.0</ele><time>2026-03-15T16:27:35.001Z</time></trkpt><trkpt lat="45.75238786271032" lon="10.112074287117908"><ele>609.0</ele><time>2026-03-15T16:27:36.001Z</time></trkpt><trkpt lat="45.75231344411706" lon="10.112014732493138"><ele>609.0</ele><time>2026-03-15T16:27:37Z</time></trkpt><trkpt lat="45.75223394400128" lon="10.111936913742873"><ele>609.0</ele><time>2026-03-15T16:27:38Z</time></trkpt><trkpt lat="45.75216995818212" lon="10.11185833137098"><ele>609.0</ele><time>2026-03-15T16:27:39Z</time></trkpt><trkpt lat="45.75211689829871" lon="10.111809150240486"><ele>609.0</ele><time>2026-03-15T16:27:40Z</time></trkpt><trkpt lat="45.752052125662665" lon="10.11174911256109"><ele>609.0</ele><time>2026-03-15T16:27:41Z</time></trkpt><trkpt lat="45.75196564565469" lon="10.11167160895887"><ele>609.0</ele><time>2026-03-15T16:27:42Z</time></trkpt><trkpt lat="45.75186740541219" lon="10.111584786320202"><ele>609.0</ele><time>2026-03-15T16:27:43Z</time></trkpt><trkpt lat="45.75177733596386" lon="10.111508376915628"><ele>604.0</ele><time>2026-03-15T16:27:44Z</time></trkpt><trkpt lat="45.75168059686561" lon="10.111445591346365"><ele>599.0</ele><time>2026-03-15T16:27:45Z</time></trkpt><trkpt lat="45.75154779587968" lon="10.111402015656557"><ele>594.0</ele><time>2026-03-15T16:27:46Z</time></trkpt><trkpt lat="45.751380441278386" lon="10.111375075894662"><ele>589.0</ele><time>2026-03-15T16:27:47Z</time></trkpt><trkpt lat="45.7512170385526" lon="10.11135775408765"><ele>589.0</ele><time>2026-03-15T16:27:48Z</time></trkpt><trkpt lat="45.751071087455664" lon="10.111346654064194"><ele>589.0</ele><time>2026-03-15T16:27:49Z</time></trkpt><trkpt lat="45.75093507683927" lon="10.111308649055863"><ele>589.0</ele><time>2026-03-15T16:27:50Z</time></trkpt><trkpt lat="45.75076886057982" lon="10.11122736219766"><ele>587.0</ele><time>2026-03-15T16:27:51Z</time></trkpt><trkpt lat="45.750590231806726" lon="10.111129921829649"><ele>585.0</ele><time>2026-03-15T16:27:52Z</time></trkpt><trkpt lat="45.75044951514585" lon="10.111054987780332"><ele>583.0</ele><time>2026-03-15T16:27:53Z</time></trkpt><trkpt lat="45.750324942191796" lon="10.110984338363476"><ele>584.5</ele><time>2026-03-15T16:27:54Z</time></trkpt><trkpt lat="45.75020375855248" lon="10.110905526399227"><ele>586.0</ele><time>2026-03-15T16:27:55Z</time></trkpt><trkpt lat="45.750092267643474" lon="10.11080430687334"><ele>587.5</ele><time>2026-03-15T16:27:56Z</time></trkpt><trkpt lat="45.74997817385008" lon="10.110679040309009"><ele>589.0</ele><time>2026-03-15T16:27:57Z</time></trkpt><trkpt lat="45.7498614009828" lon="10.110550513674857"><ele>586.25</ele><time>2026-03-15T16:27:58Z</time></trkpt><trkpt lat="45.749748295377756" lon="10.110426023419498"><ele>583.5</ele><time>2026-03-15T16:27:59Z</time></trkpt><trkpt lat="45.74963452957391" lon="10.11030526568838"><ele>580.75</ele><time>2026-03-15T16:28:00Z</time></trkpt><trkpt lat="45.749496021353394" lon="10.110196401916697"><ele>578.0</ele><time>2026-03-15T16:28:01Z</time></trkpt><trkpt lat="45.749334871121874" lon="10.110077636948951"><ele>578.0</ele><time>2026-03-15T16:28:02Z</time></trkpt><trkpt lat="45.74914166026101" lon="10.109971826578562"><ele>578.0</ele><time>2026-03-15T16:28:03Z</time></trkpt><trkpt lat="45.74895766996469" lon="10.109883016590157"><ele>578.0</ele><time>2026-03-15T16:28:04Z</time></trkpt><trkpt lat="45.74880194127331" lon="10.10978238220367"><ele>574.75</ele><time>2026-03-15T16:28:05Z</time></trkpt><trkpt lat="45.74866936793873" lon="10.109698113724187"><ele>571.5</ele><time>2026-03-15T16:28:06Z</time></trkpt><trkpt lat="45.74855374436554" lon="10.109602971965419"><ele>568.25</ele><time>2026-03-15T16:28:07Z</time></trkpt><trkpt lat="45.74845122277975" lon="10.109478233553709"><ele>565.0</ele><time>2026-03-15T16:28:08Z</time></trkpt><trkpt lat="45.74835510827641" lon="10.109331201990148"><ele>565.0</ele><time>2026-03-15T16:28:09Z</time></trkpt><trkpt lat="45.748257917070426" lon="10.109217864409938"><ele>565.0</ele><time>2026-03-15T16:28:10Z</time></trkpt><trkpt lat="45.74815767681251" lon="10.10913269906189"><ele>565.0</ele><time>2026-03-15T16:28:11Z</time></trkpt><trkpt lat="45.748044406617915" lon="10.109083101532644"><ele>565.0</ele><time>2026-03-15T16:28:12Z</time></trkpt><trkpt lat="45.747940285475714" lon="10.109030706350282"><ele>560.8</ele><time>2026-03-15T16:28:13Z</time></trkpt><trkpt lat="45.74786100490399" lon="10.108986084780415"><ele>556.6</ele><time>2026-03-15T16:28:14Z</time></trkpt><trkpt lat="45.747831213791486" lon="10.108840461246679"><ele>552.4</ele><time>2026-03-15T16:28:15.999Z</time></trkpt><trkpt lat="45.74789423788999" lon="10.108761110667423"><ele>548.2</ele><time>2026-03-15T16:28:16.999Z</time></trkpt><trkpt lat="45.747985875613004" lon="10.108770020349436"><ele>544.0</ele><time>2026-03-15T16:28:17.999Z</time></trkpt><trkpt lat="45.748089980300804" lon="10.10886215674089"><ele>544.0</ele><time>2026-03-15T16:28:18.999Z</time></trkpt><trkpt lat="45.74823433642574" lon="10.109008810339303"><ele>544.0</ele><time>2026-03-15T16:28:19.999Z</time></trkpt><trkpt lat="45.748397430169796" lon="10.109140392944683"><ele>544.0</ele><time>2026-03-15T16:28:20.999Z</time></trkpt><trkpt lat="45.748574092845324" lon="10.109263225488574"><ele>545.25</ele><time>2026-03-15T16:28:21.999Z</time></trkpt><trkpt lat="45.748721224111826" lon="10.10937030223323"><ele>546.5</ele><time>2026-03-15T16:28:22.999Z</time></trkpt><trkpt lat="45.74884959973931" lon="10.1094396846548"><ele>547.75</ele><time>2026-03-15T16:28:23.999Z</time></trkpt><trkpt lat="45.74898439752093" lon="10.109461671625045"><ele>549.0</ele><time>2026-03-15T16:28:24.999Z</time></trkpt><trkpt lat="45.74912021539157" lon="10.109444852675534"><ele>549.0</ele><time>2026-03-15T16:28:25.999Z</time></trkpt><trkpt lat="45.749266224676035" lon="10.10942891637625"><ele>549.0</ele><time>2026-03-15T16:28:26.999Z</time></trkpt><trkpt lat="45.749388024770994" lon="10.109474326144884"><ele>549.0</ele><time>2026-03-15T16:28:27.999Z</time></trkpt><trkpt lat="45.749483937236775" lon="10.109543844358393"><ele>549.0</ele><time>2026-03-15T16:28:28.999Z</time></trkpt><trkpt lat="45.74956406614176" lon="10.10959002863618"><ele>546.2</ele><time>2026-03-15T16:28:29.999Z</time></trkpt><trkpt lat="45.74964411140181" lon="10.109576293106864"><ele>543.4</ele><time>2026-03-15T16:28:30.999Z</time></trkpt><trkpt lat="45.74969360863693" lon="10.10946716532035"><ele>540.6</ele><time>2026-03-15T16:28:31.999Z</time></trkpt><trkpt lat="45.74966958592634" lon="10.10931608819816"><ele>537.8</ele><time>2026-03-15T16:28:32.999Z</time></trkpt><trkpt lat="45.74961165110099" lon="10.10920490927389"><ele>535.0</ele><time>2026-03-15T16:28:33.999Z</time></trkpt><trkpt lat="45.74946452617601" lon="10.109197272300745"><ele>539.6666666666667</ele><time>2026-03-15T16:28:34.999Z</time></trkpt><trkpt lat="45.7492803288124" lon="10.109203014403388"><ele>544.3333333333334</ele><time>2026-03-15T16:28:35.999Z</time></trkpt><trkpt lat="45.74908879519669" lon="10.109196146516723"><ele>549.0</ele><time>2026-03-15T16:28:36.998Z</time></trkpt><trkpt lat="45.748968778816526" lon="10.10914317844454"><ele>543.0</ele><time>2026-03-15T16:28:37.998Z</time></trkpt><trkpt lat="45.748905879259226" lon="10.109056971439939"><ele>537.0</ele><time>2026-03-15T16:28:38.998Z</time></trkpt><trkpt lat="45.74884359831231" lon="10.108965046922972"><ele>531.0</ele><time>2026-03-15T16:28:39.998Z</time></trkpt><trkpt lat="45.74881720551733" lon="10.108779720445817"><ele>525.0</ele><time>2026-03-15T16:28:40.998Z</time></trkpt><trkpt lat="45.748727623423" lon="10.10862734718609"><ele>519.0</ele><time>2026-03-15T16:28:41.998Z</time></trkpt><trkpt lat="45.74857370940014" lon="10.108484059482326"><ele>513.5</ele><time>2026-03-15T16:28:42.998Z</time></trkpt><trkpt lat="45.74837651814239" lon="10.108316947412431"><ele>508.0</ele><time>2026-03-15T16:28:43.998Z</time></trkpt><trkpt lat="45.74817423590018" lon="10.108134004089509"><ele>508.0</ele><time>2026-03-15T16:28:44.998Z</time></trkpt><trkpt lat="45.74797824503482" lon="10.107947575210659"><ele>508.0</ele><time>2026-03-15T16:28:45.998Z</time></trkpt><trkpt lat="45.747810522217435" lon="10.107780739468481"><ele>508.0</ele><time>2026-03-15T16:28:46.998Z</time></trkpt><trkpt lat="45.747648537049116" lon="10.107618011711201"><ele>507.0</ele><time>2026-03-15T16:28:47.998Z</time></trkpt><trkpt lat="45.74748876944205" lon="10.107455951485093"><ele>506.0</ele><time>2026-03-15T16:28:48.998Z</time></trkpt><trkpt lat="45.74732599000649" lon="10.107295799507936"><ele>505.0</ele><time>2026-03-15T16:28:49.998Z</time></trkpt><trkpt lat="45.747171717497864" lon="10.107129068223793"><ele>505.0</ele><time>2026-03-15T16:28:50.998Z</time></trkpt><trkpt lat="45.74701507760971" lon="10.106956920299272"><ele>505.0</ele><time>2026-03-15T16:28:51.998Z</time></trkpt><trkpt lat="45.74685295535041" lon="10.10678142721112"><ele>505.0</ele><time>2026-03-15T16:28:52.998Z</time></trkpt><trkpt lat="45.74669226298666" lon="10.106608256722401"><ele>502.0</ele><time>2026-03-15T16:28:53.998Z</time></trkpt><trkpt lat="45.74652915176072" lon="10.106433393106784"><ele>499.0</ele><time>2026-03-15T16:28:54.998Z</time></trkpt><trkpt lat="45.746364546077146" lon="10.106266954305712"><ele>496.0</ele><time>2026-03-15T16:28:55.998Z</time></trkpt><trkpt lat="45.74619602472977" lon="10.10610917077327"><ele>493.0</ele><time>2026-03-15T16:28:56.998Z</time></trkpt><trkpt lat="45.746033618197075" lon="10.10597304777688"><ele>490.0</ele><time>2026-03-15T16:28:57.998Z</time></trkpt><trkpt lat="45.7458889816379" lon="10.105840783871296"><ele>487.0</ele><time>2026-03-15T16:28:58.997Z</time></trkpt><trkpt lat="45.74575284750725" lon="10.105720992232486"><ele>487.0</ele><time>2026-03-15T16:28:59.997Z</time></trkpt><trkpt lat="45.7456254059324" lon="10.105607566480423"><ele>487.0</ele><time>2026-03-15T16:29:00.997Z</time></trkpt><trkpt lat="45.74549809581826" lon="10.10550623847405"><ele>487.0</ele><time>2026-03-15T16:29:01.997Z</time></trkpt><trkpt lat="45.745369624647985" lon="10.105433208653366"><ele>487.0</ele><time>2026-03-15T16:29:02.997Z</time></trkpt><trkpt lat="45.745241606538876" lon="10.105390587928289"><ele>488.6666666666667</ele><time>2026-03-15T16:29:03.997Z</time></trkpt><trkpt lat="45.745103433474966" lon="10.105368493028493"><ele>490.33333333333337</ele><time>2026-03-15T16:29:04.997Z</time></trkpt><trkpt lat="45.744950345278006" lon="10.105355085502051"><ele>492.0</ele><time>2026-03-15T16:29:05.997Z</time></trkpt><trkpt lat="45.74478924477069" lon="10.10535133910322"><ele>492.0</ele><time>2026-03-15T16:29:06.997Z</time></trkpt><trkpt lat="45.74463554055575" lon="10.105357925328992"><ele>492.0</ele><time>2026-03-15T16:29:07.997Z</time></trkpt><trkpt lat="45.7444826930946" lon="10.105350319644431"><ele>492.0</ele><time>2026-03-15T16:29:08.997Z</time></trkpt><trkpt lat="45.74433649323603" lon="10.10533340360285"><ele>492.5</ele><time>2026-03-15T16:29:09.997Z</time></trkpt><trkpt lat="45.7441989370969" lon="10.105275129064509"><ele>493.0</ele><time>2026-03-15T16:29:10.997Z</time></trkpt><trkpt lat="45.74407544912705" lon="10.105250643382998"><ele>493.5</ele><time>2026-03-15T16:29:11.997Z</time></trkpt><trkpt lat="45.74396381499405" lon="10.105259319870529"><ele>494.0</ele><time>2026-03-15T16:29:12.997Z</time></trkpt><trkpt lat="45.74386305823538" lon="10.105274399452847"><ele>493.99999999999994</ele><time>2026-03-15T16:29:13.997Z</time></trkpt><trkpt lat="45.74378666235949" lon="10.105234524318062"><ele>494.0</ele><time>2026-03-15T16:29:14.997Z</time></trkpt><trkpt lat="45.743727570609146" lon="10.105194176075905"><ele>494.0</ele><time>2026-03-15T16:29:15.997Z</time></trkpt><trkpt lat="45.74371408451131" lon="10.105089825085104"><ele>494.0</ele><time>2026-03-15T16:29:16.997Z</time></trkpt><trkpt lat="45.74375255983983" lon="10.104985503244976"><ele>493.99999999999994</ele><time>2026-03-15T16:29:17.997Z</time></trkpt><trkpt lat="45.74383673067754" lon="10.104937999237228"><ele>494.0</ele><time>2026-03-15T16:29:18.997Z</time></trkpt><trkpt lat="45.743942088922374" lon="10.104993293701908"><ele>494.0</ele><time>2026-03-15T16:29:19.997Z</time></trkpt><trkpt lat="45.74409390678798" lon="10.105035054079927"><ele>494.0</ele><time>2026-03-15T16:29:20.997Z</time></trkpt><trkpt lat="45.7442684017226" lon="10.105099022247604"><ele>494.0</ele><time>2026-03-15T16:29:21.997Z</time></trkpt><trkpt lat="45.744450568933836" lon="10.10510865656849"><ele>493.3333333333333</ele><time>2026-03-15T16:29:22.997Z</time></trkpt><trkpt lat="45.744644279035526" lon="10.10505825651386"><ele>492.66666666666663</ele><time>2026-03-15T16:29:23.997Z</time></trkpt><trkpt lat="45.74483299283664" lon="10.104979182836114"><ele>492.0</ele><time>2026-03-15T16:29:24.997Z</time></trkpt><trkpt lat="45.745006033559996" lon="10.104913408553172"><ele>481.33333333333337</ele><time>2026-03-15T16:29:26Z</time></trkpt><trkpt lat="45.74516920063415" lon="10.104861796197449"><ele>470.6666666666667</ele><time>2026-03-15T16:29:27Z</time></trkpt><trkpt lat="45.745323449474995" lon="10.104813496143587"><ele>460.0</ele><time>2026-03-15T16:29:28Z</time></trkpt><trkpt lat="45.7454673375511" lon="10.104780248576706"><ele>458.6666666666667</ele><time>2026-03-15T16:29:29Z</time></trkpt><trkpt lat="45.74561071965818" lon="10.10479888104941"><ele>457.33333333333337</ele><time>2026-03-15T16:29:30Z</time></trkpt><trkpt lat="45.74575319529878" lon="10.104819822163618"><ele>456.0</ele><time>2026-03-15T16:29:31Z</time></trkpt><trkpt lat="45.745916262323064" lon="10.104857087465861"><ele>450.66666666666663</ele><time>2026-03-15T16:29:32Z</time></trkpt><trkpt lat="45.746086801548344" lon="10.10488029072175"><ele>445.3333333333333</ele><time>2026-03-15T16:29:33Z</time></trkpt><trkpt lat="45.74626707417184" lon="10.104927599279918"><ele>440.0</ele><time>2026-03-15T16:29:34Z</time></trkpt><trkpt lat="45.74644657835061" lon="10.104993917118858"><ele>443.66666666666663</ele><time>2026-03-15T16:29:35Z</time></trkpt><trkpt lat="45.74659498983537" lon="10.105056126564119"><ele>447.33333333333337</ele><time>2026-03-15T16:29:36Z</time></trkpt><trkpt lat="45.746747718483505" lon="10.105140721950521"><ele>451.0</ele><time>2026-03-15T16:29:37Z</time></trkpt><trkpt lat="45.746903487542525" lon="10.105227777411656"><ele>451.0</ele><time>2026-03-15T16:29:38Z</time></trkpt><trkpt lat="45.74704336513429" lon="10.105312637095784"><ele>451.0</ele><time>2026-03-15T16:29:39Z</time></trkpt><trkpt lat="45.747161922402334" lon="10.105375585366414"><ele>451.0</ele><time>2026-03-15T16:29:40Z</time></trkpt><trkpt lat="45.747266670127374" lon="10.105434814070973"><ele>451.0</ele><time>2026-03-15T16:29:41Z</time></trkpt><trkpt lat="45.747359170188524" lon="10.105487435850733"><ele>451.0</ele><time>2026-03-15T16:29:42Z</time></trkpt><trkpt lat="45.74743817279398" lon="10.105514700959302"><ele>451.0</ele><time>2026-03-15T16:29:43Z</time></trkpt><trkpt lat="45.74750690757037" lon="10.105473416680047"><ele>451.0</ele><time>2026-03-15T16:29:44Z</time></trkpt><trkpt lat="45.74755766943327" lon="10.105366376388144"><ele>451.0</ele><time>2026-03-15T16:29:45Z</time></trkpt><trkpt lat="45.74750632478797" lon="10.105215905887864"><ele>451.0</ele><time>2026-03-15T16:29:46Z</time></trkpt><trkpt lat="45.747418755174316" lon="10.105152089514922"><ele>451.0</ele><time>2026-03-15T16:29:47Z</time></trkpt><trkpt lat="45.7472907596376" lon="10.105146098191057"><ele>451.0</ele><time>2026-03-15T16:29:48Z</time></trkpt><trkpt lat="45.74714120688507" lon="10.105129313111123"><ele>451.0</ele><time>2026-03-15T16:29:49Z</time></trkpt><trkpt lat="45.74701182504521" lon="10.105004310408697"><ele>451.0</ele><time>2026-03-15T16:29:50Z</time></trkpt><trkpt lat="45.746856629229995" lon="10.104840632842734"><ele>447.33333333333337</ele><time>2026-03-15T16:29:51Z</time></trkpt><trkpt lat="45.746688985259645" lon="10.104682130176702"><ele>443.66666666666663</ele><time>2026-03-15T16:29:51.999Z</time></trkpt><trkpt lat="45.74657793398608" lon="10.104537646375526"><ele>440.0</ele><time>2026-03-15T16:29:52.999Z</time></trkpt><trkpt lat="45.74645614594309" lon="10.104423866136823"><ele>440.0</ele><time>2026-03-15T16:29:53.999Z</time></trkpt><trkpt lat="45.74632524418597" lon="10.104319590682067"><ele>440.0</ele><time>2026-03-15T16:29:54.999Z</time></trkpt><trkpt lat="45.74616612770048" lon="10.104257989595148"><ele>440.0</ele><time>2026-03-15T16:29:55.999Z</time></trkpt><trkpt lat="45.74598939355215" lon="10.10422361352043"><ele>445.3333333333333</ele><time>2026-03-15T16:29:56.999Z</time></trkpt><trkpt lat="45.745800789735526" lon="10.104181821677031"><ele>450.66666666666663</ele><time>2026-03-15T16:29:57.999Z</time></trkpt><trkpt lat="45.74560898823277" lon="10.10413035168086"><ele>456.0</ele><time>2026-03-15T16:29:58.999Z</time></trkpt><trkpt lat="45.745408762902535" lon="10.10407679521166"><ele>447.66666666666663</ele><time>2026-03-15T16:29:59.999Z</time></trkpt><trkpt lat="45.74523908783816" lon="10.104029814384782"><ele>439.3333333333333</ele><time>2026-03-15T16:30:00.999Z</time></trkpt><trkpt lat="45.745078599779156" lon="10.103977538294561"><ele>431.0</ele><time>2026-03-15T16:30:01.999Z</time></trkpt><trkpt lat="45.74492848480667" lon="10.103905105965536"><ele>431.0</ele><time>2026-03-15T16:30:02.999Z</time></trkpt><trkpt lat="45.74480733128579" lon="10.103773839975219"><ele>431.0</ele><time>2026-03-15T16:30:03.999Z</time></trkpt><trkpt lat="45.74465595064812" lon="10.103615411079339"><ele>431.0</ele><time>2026-03-15T16:30:04.999Z</time></trkpt><trkpt lat="45.744499465314156" lon="10.103463485360654"><ele>435.3333333333333</ele><time>2026-03-15T16:30:05.999Z</time></trkpt><trkpt lat="45.744351201576805" lon="10.103285981922882"><ele>439.66666666666663</ele><time>2026-03-15T16:30:06.999Z</time></trkpt><trkpt lat="45.74423529052569" lon="10.103153759786492"><ele>444.0</ele><time>2026-03-15T16:30:07.999Z</time></trkpt><trkpt lat="45.74413230877952" lon="10.103044021473755"><ele>437.5</ele><time>2026-03-15T16:30:08.999Z</time></trkpt><trkpt lat="45.7440384946668" lon="10.102955578558197"><ele>431.0</ele><time>2026-03-15T16:30:09.999Z</time></trkpt><trkpt lat="45.7439316275054" lon="10.102900785317397"><ele>424.5</ele><time>2026-03-15T16:30:10.999Z</time></trkpt><trkpt lat="45.74380182609629" lon="10.102896375857148"><ele>418.0</ele><time>2026-03-15T16:30:11.999Z</time></trkpt><trkpt lat="45.74368411764076" lon="10.10295960961571"><ele>418.0</ele><time>2026-03-15T16:30:12.999Z</time></trkpt><trkpt lat="45.74356851590543" lon="10.10307237570265"><ele>418.0</ele><time>2026-03-15T16:30:13.999Z</time></trkpt><trkpt lat="45.74346527448191" lon="10.103161616783245"><ele>418.0</ele><time>2026-03-15T16:30:14.999Z</time></trkpt><trkpt lat="45.74338836234977" lon="10.103208760281339"><ele>418.0</ele><time>2026-03-15T16:30:15.999Z</time></trkpt><trkpt lat="45.74329148688022" lon="10.103098192026248"><ele>418.0</ele><time>2026-03-15T16:30:17.999Z</time></trkpt><trkpt lat="45.74331513172779" lon="10.102996935697492"><ele>418.0</ele><time>2026-03-15T16:30:18.999Z</time></trkpt><trkpt lat="45.74339668383261" lon="10.102931383265618"><ele>418.0</ele><time>2026-03-15T16:30:19.999Z</time></trkpt><trkpt lat="45.74351793552016" lon="10.10296285964243"><ele>418.0</ele><time>2026-03-15T16:30:20.999Z</time></trkpt><trkpt lat="45.743655189606976" lon="10.102896504064713"><ele>418.0</ele><time>2026-03-15T16:30:21.999Z</time></trkpt><trkpt lat="45.74377299934389" lon="10.102781459734887"><ele>418.0</ele><time>2026-03-15T16:30:22.999Z</time></trkpt><trkpt lat="45.743894494391796" lon="10.102640636044685"><ele>418.0</ele><time>2026-03-15T16:30:23.999Z</time></trkpt><trkpt lat="45.74400705637066" lon="10.102603117199447"><ele>418.0</ele><time>2026-03-15T16:30:24.999Z</time></trkpt><trkpt lat="45.74411298160034" lon="10.10266856233541"><ele>418.0</ele><time>2026-03-15T16:30:25.999Z</time></trkpt><trkpt lat="45.744231078014415" lon="10.102749013548546"><ele>415.25</ele><time>2026-03-15T16:30:26.999Z</time></trkpt><trkpt lat="45.744403675839706" lon="10.102747410117747"><ele>412.5</ele><time>2026-03-15T16:30:27.999Z</time></trkpt><trkpt lat="45.744576173039874" lon="10.102736097408837"><ele>409.75</ele><time>2026-03-15T16:30:28.999Z</time></trkpt><trkpt lat="45.744676916807684" lon="10.1027674977181"><ele>407.0</ele><time>2026-03-15T16:30:29.999Z</time></trkpt><trkpt lat="45.74472690079778" lon="10.102890918886096"><ele>407.0</ele><time>2026-03-15T16:30:30.999Z</time></trkpt><trkpt lat="45.744707554625364" lon="10.103046167521178"><ele>407.0</ele><time>2026-03-15T16:30:31.998Z</time></trkpt><trkpt lat="45.74475633377429" lon="10.103161007603168"><ele>407.0</ele><time>2026-03-15T16:30:32.998Z</time></trkpt><trkpt lat="45.74489210954339" lon="10.103146486968798"><ele>407.0</ele><time>2026-03-15T16:30:34.998Z</time></trkpt><trkpt lat="45.74496491350702" lon="10.103038719447657"><ele>407.0</ele><time>2026-03-15T16:30:35.998Z</time></trkpt><trkpt lat="45.74495307139753" lon="10.102868155246732"><ele>407.0</ele><time>2026-03-15T16:30:36.998Z</time></trkpt><trkpt lat="45.74488621742834" lon="10.102722439345888"><ele>407.0</ele><time>2026-03-15T16:30:37.998Z</time></trkpt><trkpt lat="45.74478602186342" lon="10.102551573174113"><ele>407.0</ele><time>2026-03-15T16:30:38.998Z</time></trkpt><trkpt lat="45.74466341084061" lon="10.10247365782531"><ele>407.0</ele><time>2026-03-15T16:30:39.998Z</time></trkpt><trkpt lat="45.744533424338606" lon="10.102420799876105"><ele>405.5</ele><time>2026-03-15T16:30:40.998Z</time></trkpt><trkpt lat="45.744358889915155" lon="10.10233520785103"><ele>404.0</ele><time>2026-03-15T16:30:41.998Z</time></trkpt><trkpt lat="45.74421906990112" lon="10.10226281052202"><ele>402.5</ele><time>2026-03-15T16:30:42.998Z</time></trkpt><trkpt lat="45.74410496927323" lon="10.102239039760676"><ele>401.0</ele><time>2026-03-15T16:30:43.998Z</time></trkpt><trkpt lat="45.743985638102046" lon="10.102255465218617"><ele>401.0</ele><time>2026-03-15T16:30:44.998Z</time></trkpt><trkpt lat="45.743877566494916" lon="10.10225489685591"><ele>401.0</ele><time>2026-03-15T16:30:45.998Z</time></trkpt><trkpt lat="45.743755989646395" lon="10.102245960500408"><ele>401.0</ele><time>2026-03-15T16:30:46.998Z</time></trkpt><trkpt lat="45.743618913725136" lon="10.102151331733387"><ele>401.0</ele><time>2026-03-15T16:30:47.998Z</time></trkpt><trkpt lat="45.7433976445494" lon="10.101990526992436"><ele>401.66666666666663</ele><time>2026-03-15T16:30:48.998Z</time></trkpt><trkpt lat="45.74323135083627" lon="10.101889837605325"><ele>402.33333333333337</ele><time>2026-03-15T16:30:49.998Z</time></trkpt><trkpt lat="45.74311908221156" lon="10.101776454023044"><ele>403.0</ele><time>2026-03-15T16:30:50.998Z</time></trkpt><trkpt lat="45.743010979422316" lon="10.10164646368982"><ele>398.6666666666667</ele><time>2026-03-15T16:30:51.998Z</time></trkpt><trkpt lat="45.74290362325232" lon="10.10148453705295"><ele>394.33333333333337</ele><time>2026-03-15T16:30:52.998Z</time></trkpt><trkpt lat="45.74279121573405" lon="10.101304300995384"><ele>390.0</ele><time>2026-03-15T16:30:53.998Z</time></trkpt><trkpt lat="45.74266911698314" lon="10.101127136053485"><ele>390.0</ele><time>2026-03-15T16:30:54.998Z</time></trkpt><trkpt lat="45.742557128627844" lon="10.100973329709545"><ele>390.0</ele><time>2026-03-15T16:30:55.998Z</time></trkpt><trkpt lat="45.74241425933617" lon="10.10085661051714"><ele>390.0</ele><time>2026-03-15T16:30:56.998Z</time></trkpt><trkpt lat="45.74226820173044" lon="10.100789444886175"><ele>384.75</ele><time>2026-03-15T16:30:57.998Z</time></trkpt><trkpt lat="45.74217926919396" lon="10.100639421803297"><ele>379.5</ele><time>2026-03-15T16:30:58.998Z</time></trkpt><trkpt lat="45.74210624478283" lon="10.100463412342599"><ele>374.25</ele><time>2026-03-15T16:30:59.998Z</time></trkpt><trkpt lat="45.74202641410926" lon="10.100266145891228"><ele>369.0</ele><time>2026-03-15T16:31:00.998Z</time></trkpt><trkpt lat="45.741949861733" lon="10.10008797930775"><ele>368.25</ele><time>2026-03-15T16:31:01.998Z</time></trkpt><trkpt lat="45.74186097153328" lon="10.09995891166582"><ele>367.5</ele><time>2026-03-15T16:31:02.998Z</time></trkpt><trkpt lat="45.741771363280236" lon="10.099870110919484"><ele>366.75</ele><time>2026-03-15T16:31:03.998Z</time></trkpt><trkpt lat="45.74164685868685" lon="10.099834037387508"><ele>366.0</ele><time>2026-03-15T16:31:04.998Z</time></trkpt><trkpt lat="45.74148127768238" lon="10.099829096227385"><ele>366.0</ele><time>2026-03-15T16:31:05.998Z</time></trkpt><trkpt lat="45.74134051206248" lon="10.099818724937531"><ele>366.0</ele><time>2026-03-15T16:31:06.998Z</time></trkpt><trkpt lat="45.74121571427706" lon="10.099800712444114"><ele>366.0</ele><time>2026-03-15T16:31:07.998Z</time></trkpt><trkpt lat="45.74110126406465" lon="10.099765988696243"><ele>366.0</ele><time>2026-03-15T16:31:08.998Z</time></trkpt><trkpt lat="45.74100800923779" lon="10.099666036434744"><ele>368.5</ele><time>2026-03-15T16:31:09.998Z</time></trkpt><trkpt lat="45.740911253208246" lon="10.099557342646667"><ele>371.0</ele><time>2026-03-15T16:31:10.998Z</time></trkpt><trkpt lat="45.74081173639822" lon="10.099422056580485"><ele>373.5</ele><time>2026-03-15T16:31:11.998Z</time></trkpt><trkpt lat="45.740707450709124" lon="10.099278489231265"><ele>376.0</ele><time>2026-03-15T16:31:12.998Z</time></trkpt><trkpt lat="45.74061853998348" lon="10.099149527841616"><ele>373.66666666666663</ele><time>2026-03-15T16:31:13.998Z</time></trkpt><trkpt lat="45.74055381634822" lon="10.099036593301676"><ele>371.3333333333333</ele><time>2026-03-15T16:31:14.997Z</time></trkpt><trkpt lat="45.740517686391215" lon="10.09894218695896"><ele>369.0</ele><time>2026-03-15T16:31:15.997Z</time></trkpt><trkpt lat="45.740509500837454" lon="10.098834636058761"><ele>366.6666666666667</ele><time>2026-03-15T16:31:16.997Z</time></trkpt><trkpt lat="45.74053944559126" lon="10.098721224349866"><ele>364.33333333333337</ele><time>2026-03-15T16:31:17.997Z</time></trkpt><trkpt lat="45.74060328762983" lon="10.098602979708343"><ele>362.0</ele><time>2026-03-15T16:31:18.997Z</time></trkpt><trkpt lat="45.74071738073452" lon="10.098520992271027"><ele>362.0</ele><time>2026-03-15T16:31:19.997Z</time></trkpt><trkpt lat="45.740806788689795" lon="10.098539434960713"><ele>362.0</ele><time>2026-03-15T16:31:20.997Z</time></trkpt><trkpt lat="45.74087837121375" lon="10.098605539736376"><ele>362.0</ele><time>2026-03-15T16:31:21.997Z</time></trkpt><trkpt lat="45.74101572820567" lon="10.098748715725783"><ele>362.0</ele><time>2026-03-15T16:31:22.997Z</time></trkpt><trkpt lat="45.741139177356686" lon="10.098916257419924"><ele>362.8</ele><time>2026-03-15T16:31:23.997Z</time></trkpt><trkpt lat="45.74123932720599" lon="10.099061514958095"><ele>363.6</ele><time>2026-03-15T16:31:24.997Z</time></trkpt><trkpt lat="45.74131473002121" lon="10.099163755897468"><ele>364.40000000000003</ele><time>2026-03-15T16:31:25.997Z</time></trkpt><trkpt lat="45.741376671131896" lon="10.099219912807333"><ele>365.20000000000005</ele><time>2026-03-15T16:31:26.997Z</time></trkpt><trkpt lat="45.74145829388953" lon="10.099206133802095"><ele>366.0</ele><time>2026-03-15T16:31:27.997Z</time></trkpt><trkpt lat="45.74151818248519" lon="10.099110300984485"><ele>361.6</ele><time>2026-03-15T16:31:28.997Z</time></trkpt><trkpt lat="45.74153583820527" lon="10.09895120408872"><ele>357.20000000000005</ele><time>2026-03-15T16:31:29.997Z</time></trkpt><trkpt lat="45.741493817030786" lon="10.0988338094115"><ele>352.79999999999995</ele><time>2026-03-15T16:31:30.997Z</time></trkpt><trkpt lat="45.741409248014804" lon="10.098763278169857"><ele>348.4</ele><time>2026-03-15T16:31:32Z</time></trkpt><trkpt lat="45.741274099318055" lon="10.098716638169392"><ele>344.0</ele><time>2026-03-15T16:31:33Z</time></trkpt><trkpt lat="45.741109986226505" lon="10.098610201692496"><ele>341.5</ele><time>2026-03-15T16:31:34Z</time></trkpt><trkpt lat="45.74103211108605" lon="10.098478956397043"><ele>339.0</ele><time>2026-03-15T16:31:35Z</time></trkpt><trkpt lat="45.740983708973765" lon="10.098346622368371"><ele>336.5</ele><time>2026-03-15T16:31:36Z</time></trkpt><trkpt lat="45.74093011449539" lon="10.098192224996216"><ele>334.0</ele><time>2026-03-15T16:31:37Z</time></trkpt><trkpt lat="45.740856225924" lon="10.098061573812586"><ele>334.0</ele><time>2026-03-15T16:31:38Z</time></trkpt><trkpt lat="45.74074524950422" lon="10.097945136948375"><ele>334.0</ele><time>2026-03-15T16:31:39Z</time></trkpt><trkpt lat="45.74059414265004" lon="10.097955495284255"><ele>334.0</ele><time>2026-03-15T16:31:40Z</time></trkpt><trkpt lat="45.74040315907872" lon="10.097976019863856"><ele>334.0</ele><time>2026-03-15T16:31:41Z</time></trkpt><trkpt lat="45.74021415445529" lon="10.098036996241905"><ele>334.0</ele><time>2026-03-15T16:31:42Z</time></trkpt><trkpt lat="45.740061010519376" lon="10.09814847126403"><ele>334.0</ele><time>2026-03-15T16:31:43Z</time></trkpt><trkpt lat="45.73993745357718" lon="10.098277436948857"><ele>340.66666666666663</ele><time>2026-03-15T16:31:44Z</time></trkpt><trkpt lat="45.7398288358378" lon="10.098426833195152"><ele>347.3333333333333</ele><time>2026-03-15T16:31:45Z</time></trkpt><trkpt lat="45.73973751463751" lon="10.09860277046468"><ele>354.0</ele><time>2026-03-15T16:31:46Z</time></trkpt><trkpt lat="45.739657223865784" lon="10.09882213734979"><ele>354.0</ele><time>2026-03-15T16:31:47Z</time></trkpt><trkpt lat="45.73959353025456" lon="10.099047721556268"><ele>354.0</ele><time>2026-03-15T16:31:48Z</time></trkpt><trkpt lat="45.73950942583308" lon="10.099226054038672"><ele>354.0</ele><time>2026-03-15T16:31:49Z</time></trkpt><trkpt lat="45.73941366874792" lon="10.09938549456843"><ele>351.5</ele><time>2026-03-15T16:31:50Z</time></trkpt><trkpt lat="45.73934987785177" lon="10.099561210025206"><ele>349.0</ele><time>2026-03-15T16:31:51Z</time></trkpt><trkpt lat="45.73928361489737" lon="10.099727648194792"><ele>346.5</ele><time>2026-03-15T16:31:52Z</time></trkpt><trkpt lat="45.73923973688564" lon="10.09991604892406"><ele>344.0</ele><time>2026-03-15T16:31:53Z</time></trkpt><trkpt lat="45.73921564821534" lon="10.100132551085261"><ele>342.33333333333337</ele><time>2026-03-15T16:31:54Z</time></trkpt><trkpt lat="45.73921314542852" lon="10.100378728401726"><ele>340.6666666666667</ele><time>2026-03-15T16:31:55Z</time></trkpt><trkpt lat="45.73921346957392" lon="10.100616893760984"><ele>339.0</ele><time>2026-03-15T16:31:56Z</time></trkpt><trkpt lat="45.73919405162571" lon="10.100828829777807"><ele>339.0</ele><time>2026-03-15T16:31:57Z</time></trkpt><trkpt lat="45.739124615439025" lon="10.100998117486064"><ele>339.0</ele><time>2026-03-15T16:31:58Z</time></trkpt><trkpt lat="45.73902260236466" lon="10.101112211716575"><ele>339.0</ele><time>2026-03-15T16:31:59Z</time></trkpt><trkpt lat="45.73889419724802" lon="10.10123520311263"><ele>339.0</ele><time>2026-03-15T16:32:00Z</time></trkpt><trkpt lat="45.738732432030844" lon="10.101377138190733"><ele>339.0</ele><time>2026-03-15T16:32:01Z</time></trkpt><trkpt lat="45.738585669451226" lon="10.10149714780411"><ele>339.0</ele><time>2026-03-15T16:32:02Z</time></trkpt><trkpt lat="45.738454403600144" lon="10.101585193078936"><ele>339.0</ele><time>2026-03-15T16:32:03Z</time></trkpt><trkpt lat="45.73832735171216" lon="10.101670740788713"><ele>337.5</ele><time>2026-03-15T16:32:04Z</time></trkpt><trkpt lat="45.738189918240025" lon="10.101723727498605"><ele>336.0</ele><time>2026-03-15T16:32:05Z</time></trkpt><trkpt lat="45.73804595208358" lon="10.10178065886659"><ele>334.5</ele><time>2026-03-15T16:32:06Z</time></trkpt><trkpt lat="45.73789743075047" lon="10.101849492972601"><ele>333.0</ele><time>2026-03-15T16:32:07Z</time></trkpt><trkpt lat="45.73774343934284" lon="10.101901092747536"><ele>330.75</ele><time>2026-03-15T16:32:08Z</time></trkpt><trkpt lat="45.73760244068104" lon="10.101968920787114"><ele>328.5</ele><time>2026-03-15T16:32:09Z</time></trkpt><trkpt lat="45.73747077117079" lon="10.102036785884069"><ele>326.25</ele><time>2026-03-15T16:32:10Z</time></trkpt><trkpt lat="45.73735024596367" lon="10.102100215889704"><ele>324.0</ele><time>2026-03-15T16:32:10.999Z</time></trkpt><trkpt lat="45.737246662503075" lon="10.102154729790366"><ele>324.0</ele><time>2026-03-15T16:32:11.999Z</time></trkpt><trkpt lat="45.73716374788433" lon="10.102215014784045"><ele>324.0</ele><time>2026-03-15T16:32:12.999Z</time></trkpt><trkpt lat="45.73707843937615" lon="10.102193209713617"><ele>324.0</ele><time>2026-03-15T16:32:13.999Z</time></trkpt><trkpt lat="45.73699743501966" lon="10.10216325074858"><ele>324.0</ele><time>2026-03-15T16:32:14.999Z</time></trkpt><trkpt lat="45.736935442424446" lon="10.102123621419384"><ele>324.0</ele><time>2026-03-15T16:32:15.999Z</time></trkpt><trkpt lat="45.736833693860476" lon="10.102318270944146"><ele>322.2</ele><time>2026-03-15T16:32:16.999Z</time></trkpt><trkpt lat="45.736720017372434" lon="10.102457442138354"><ele>320.4</ele><time>2026-03-15T16:32:17.999Z</time></trkpt><trkpt lat="45.736631472573336" lon="10.102564955659531"><ele>318.6</ele><time>2026-03-15T16:32:18.999Z</time></trkpt><trkpt lat="45.73656023905603" lon="10.102641131149555"><ele>316.8</ele><time>2026-03-15T16:32:19.999Z</time></trkpt><trkpt lat="45.73649507815927" lon="10.102702779079753"><ele>315.0</ele><time>2026-03-15T16:32:20.999Z</time></trkpt><trkpt lat="45.73643834139158" lon="10.10276134397424"><ele>315.0</ele><time>2026-03-15T16:32:21.999Z</time></trkpt><trkpt lat="45.736381475897794" lon="10.102852702213164"><ele>315.0</ele><time>2026-03-15T16:32:22.999Z</time></trkpt><trkpt lat="45.736355157342224" lon="10.102981142651535"><ele>315.0</ele><time>2026-03-15T16:32:23.999Z</time></trkpt><trkpt lat="45.736344040461596" lon="10.1031325410514"><ele>315.0</ele><time>2026-03-15T16:32:24.999Z</time></trkpt><trkpt lat="45.736383851157875" lon="10.103286396772813"><ele>315.0</ele><time>2026-03-15T16:32:25.999Z</time></trkpt><trkpt lat="45.73633618886171" lon="10.103401622751692"><ele>313.6666666666667</ele><time>2026-03-15T16:32:26.999Z</time></trkpt><trkpt lat="45.736238390538425" lon="10.103553589252192"><ele>312.33333333333337</ele><time>2026-03-15T16:32:27.999Z</time></trkpt><trkpt lat="45.736124027430236" lon="10.10372091755569"><ele>311.0</ele><time>2026-03-15T16:32:28.999Z</time></trkpt><trkpt lat="45.73601615946779" lon="10.103919546885358"><ele>314.33333333333337</ele><time>2026-03-15T16:32:29.999Z</time></trkpt><trkpt lat="45.735895537906764" lon="10.10417283502665"><ele>317.6666666666667</ele><time>2026-03-15T16:32:30.999Z</time></trkpt><trkpt lat="45.73578849573177" lon="10.104402944841917"><ele>321.0</ele><time>2026-03-15T16:32:31.999Z</time></trkpt><trkpt lat="45.735695642225714" lon="10.104591853151762"><ele>321.0</ele><time>2026-03-15T16:32:32.999Z</time></trkpt><trkpt lat="45.73561410452997" lon="10.104761632636169"><ele>321.0</ele><time>2026-03-15T16:32:33.999Z</time></trkpt><trkpt lat="45.73553511225128" lon="10.104925132729589"><ele>321.0</ele><time>2026-03-15T16:32:34.999Z</time></trkpt><trkpt lat="45.73544884064106" lon="10.105096795179424"><ele>321.0</ele><time>2026-03-15T16:32:35.999Z</time></trkpt><trkpt lat="45.735361494676546" lon="10.105270961391918"><ele>324.3333333333333</ele><time>2026-03-15T16:32:36.999Z</time></trkpt><trkpt lat="45.73527445460034" lon="10.105452531814704"><ele>327.66666666666663</ele><time>2026-03-15T16:32:37.999Z</time></trkpt><trkpt lat="45.735166440744635" lon="10.105630763940146"><ele>331.0</ele><time>2026-03-15T16:32:38.999Z</time></trkpt><trkpt lat="45.73506349255749" lon="10.105835858242276"><ele>345.0</ele><time>2026-03-15T16:32:39.999Z</time></trkpt><trkpt lat="45.734954421021634" lon="10.10605315159781"><ele>359.0</ele><time>2026-03-15T16:32:40.999Z</time></trkpt><trkpt lat="45.734851198308235" lon="10.106257384259015"><ele>373.0</ele><time>2026-03-15T16:32:41.999Z</time></trkpt><trkpt lat="45.734744177215745" lon="10.106471180890303"><ele>380.0</ele><time>2026-03-15T16:32:42.999Z</time></trkpt><trkpt lat="45.7346414263846" lon="10.10667792572527"><ele>387.0</ele><time>2026-03-15T16:32:43.999Z</time></trkpt><trkpt lat="45.73454092296703" lon="10.10688014848156"><ele>394.0</ele><time>2026-03-15T16:32:45.07Z</time></trkpt><trkpt lat="45.73444985816115" lon="10.107059589738354"><ele>404.0</ele><time>2026-03-15T16:32:46.072Z</time></trkpt><trkpt lat="45.73435928945035" lon="10.107236624753353"><ele>414.0</ele><time>2026-03-15T16:32:47.064Z</time></trkpt><trkpt lat="45.73426945087788" lon="10.107414245207424"><ele>424.0</ele><time>2026-03-15T16:32:48.064Z</time></trkpt><trkpt lat="45.73418683571718" lon="10.107583658709432"><ele>435.5</ele><time>2026-03-15T16:32:49.048Z</time></trkpt><trkpt lat="45.73409042784052" lon="10.107781355864361"><ele>447.0</ele><time>2026-03-15T16:32:50.034Z</time></trkpt><trkpt lat="45.732670527956124" lon="10.109800164097233"><ele>647.0</ele><time>2026-03-15T16:32:53.767Z</time></trkpt><trkpt lat="45.73211788192359" lon="10.11023095711786"><ele>666.0</ele><time>2026-03-15T16:32:54.767Z</time></trkpt><trkpt lat="45.73154096429461" lon="10.110589610465867"><ele>668.0</ele><time>2026-03-15T16:32:55.766Z</time></trkpt><trkpt lat="45.73096276446725" lon="10.110944726736857"><ele>668.0</ele><time>2026-03-15T16:32:56.766Z</time></trkpt><trkpt lat="45.73038308384196" lon="10.111299226997282"><ele>634.0</ele><time>2026-03-15T16:32:57.767Z</time></trkpt><trkpt lat="45.729804345812546" lon="10.111653670523413"><ele>569.0</ele><time>2026-03-15T16:32:58.767Z</time></trkpt><trkpt lat="45.72922511253852" lon="10.11200688580351"><ele>374.0</ele><time>2026-03-15T16:32:59.767Z</time></trkpt><trkpt lat="45.717384394668706" lon="10.11930050585735"><ele>374.0</ele><time>2026-03-15T16:34:34.996Z</time></trkpt><trkpt lat="45.71723953520351" lon="10.119341459326414"><ele>374.0</ele><time>2026-03-15T16:34:35.996Z</time></trkpt><trkpt lat="45.71701958077711" lon="10.119466762107795"><ele>374.0</ele><time>2026-03-15T16:34:36.996Z</time></trkpt><trkpt lat="45.71679926553977" lon="10.119597071952716"><ele>377.0</ele><time>2026-03-15T16:34:37.996Z</time></trkpt><trkpt lat="45.71662117901262" lon="10.119704457755553"><ele>380.0</ele><time>2026-03-15T16:34:38.996Z</time></trkpt><trkpt lat="45.71644620371229" lon="10.119783743465545"><ele>383.0</ele><time>2026-03-15T16:34:39.996Z</time></trkpt><trkpt lat="45.71627785769678" lon="10.119862286467782"><ele>382.0</ele><time>2026-03-15T16:34:41.001Z</time></trkpt><trkpt lat="45.71611002102427" lon="10.11994075282804"><ele>381.0</ele><time>2026-03-15T16:34:42.001Z</time></trkpt><trkpt lat="45.715944197396084" lon="10.120018747088551"><ele>380.0</ele><time>2026-03-15T16:34:43.001Z</time></trkpt><trkpt lat="45.715776701000394" lon="10.120094684167254"><ele>380.0</ele><time>2026-03-15T16:34:44.001Z</time></trkpt><trkpt lat="45.71560997526415" lon="10.120175019555118"><ele>380.0</ele><time>2026-03-15T16:34:45.068Z</time></trkpt><trkpt lat="45.71547524429163" lon="10.120250328256503"><ele>380.0</ele><time>2026-03-15T16:34:46.069Z</time></trkpt><trkpt lat="45.71534795545976" lon="10.12032810096513"><ele>379.6666666666667</ele><time>2026-03-15T16:34:47.061Z</time></trkpt><trkpt lat="45.71521444175202" lon="10.120399982830218"><ele>379.3333333333333</ele><time>2026-03-15T16:34:48.062Z</time></trkpt><trkpt lat="45.715067445477914" lon="10.120471838689147"><ele>379.0</ele><time>2026-03-15T16:34:49.055Z</time></trkpt><trkpt lat="45.714915289840874" lon="10.120543987631793"><ele>379.0</ele><time>2026-03-15T16:34:50.052Z</time></trkpt><trkpt lat="45.71475644143506" lon="10.120617917106848"><ele>379.0</ele><time>2026-03-15T16:34:51.032Z</time></trkpt><trkpt lat="45.715713090967846" lon="10.12014770486073"><ele>379.0</ele><time>2026-03-15T16:34:56Z</time></trkpt><trkpt lat="45.715582851534194" lon="10.120261136494761"><ele>379.0</ele><time>2026-03-15T16:34:59Z</time></trkpt><trkpt lat="45.71538911792959" lon="10.120353549945992"><ele>379.0</ele><time>2026-03-15T16:35:00Z</time></trkpt><trkpt lat="45.71520013828483" lon="10.120447159539891"><ele>379.0</ele><time>2026-03-15T16:35:01Z</time></trkpt><trkpt lat="45.71505706601242" lon="10.120509141893695"><ele>379.0</ele><time>2026-03-15T16:35:02Z</time></trkpt><trkpt lat="45.7149114695029" lon="10.120581435559888"><ele>379.0</ele><time>2026-03-15T16:35:03Z</time></trkpt><trkpt lat="45.714806159529005" lon="10.120640070629037"><ele>379.0</ele><time>2026-03-15T16:35:04Z</time></trkpt><trkpt lat="45.71471256616956" lon="10.120694563915245"><ele>379.0</ele><time>2026-03-15T16:35:05Z</time></trkpt><trkpt lat="45.71464789815608" lon="10.120727806797833"><ele>379.0</ele><time>2026-03-15T16:35:06Z</time></trkpt><trkpt lat="45.71463748157156" lon="10.12086998319922"><ele>379.0</ele><time>2026-03-15T16:40:25.998Z</time></trkpt><trkpt lat="45.71454573001233" lon="10.120955223296768"><ele>379.0</ele><time>2026-03-15T16:43:42.999Z</time></trkpt><trkpt lat="45.71453018971469" lon="10.121062757742608"><ele>379.0</ele><time>2026-03-15T16:43:43.999Z</time></trkpt><trkpt lat="45.71445488123842" lon="10.121197764633232"><ele>379.0</ele><time>2026-03-15T16:43:44.999Z</time></trkpt><trkpt lat="45.71435330800757" lon="10.121166241614741"><ele>379.0</ele><time>2026-03-15T16:43:45.999Z</time></trkpt><trkpt lat="45.714237523674775" lon="10.121226248469153"><ele>379.0</ele><time>2026-03-15T16:43:46.999Z</time></trkpt><trkpt lat="45.71392180687401" lon="10.12119040903504"><ele>379.0</ele><time>2026-03-15T16:43:47.999Z</time></trkpt><trkpt lat="45.713798472896386" lon="10.121227537181587"><ele>379.0</ele><time>2026-03-15T16:43:48.999Z</time></trkpt><trkpt lat="45.71365170006847" lon="10.121299117558394"><ele>379.0</ele><time>2026-03-15T16:43:49.999Z</time></trkpt><trkpt lat="45.713483142950146" lon="10.121391028659254"><ele>379.0</ele><time>2026-03-15T16:43:50.999Z</time></trkpt><trkpt lat="45.7133155577414" lon="10.121478728360568"><ele>379.0</ele><time>2026-03-15T16:43:51.999Z</time></trkpt><trkpt lat="45.713147358114874" lon="10.121576614211543"><ele>379.0</ele><time>2026-03-15T16:43:52.999Z</time></trkpt><trkpt lat="45.71298452119015" lon="10.121659922126787"><ele>379.0</ele><time>2026-03-15T16:43:53.999Z</time></trkpt><trkpt lat="45.71285042310617" lon="10.121736890934754"><ele>379.0</ele><time>2026-03-15T16:43:54.999Z</time></trkpt><trkpt lat="45.71272682882784" lon="10.121801892824289"><ele>379.0</ele><time>2026-03-15T16:43:55.999Z</time></trkpt><trkpt lat="45.71260924000007" lon="10.121865667761963"><ele>379.0</ele><time>2026-03-15T16:43:56.999Z</time></trkpt><trkpt lat="45.712463974943084" lon="10.12193345469241"><ele>375.66666666666663</ele><time>2026-03-15T16:43:57.999Z</time></trkpt><trkpt lat="45.71230336675686" lon="10.121997826706195"><ele>372.3333333333333</ele><time>2026-03-15T16:43:58.999Z</time></trkpt><trkpt lat="45.7121541047542" lon="10.122054443537621"><ele>369.0</ele><time>2026-03-15T16:43:59.998Z</time></trkpt><trkpt lat="45.71198147262385" lon="10.122111625044637"><ele>368.6666666666667</ele><time>2026-03-15T16:44:00.998Z</time></trkpt><trkpt lat="45.71180487417724" lon="10.122161402083908"><ele>368.33333333333337</ele><time>2026-03-15T16:44:01.998Z</time></trkpt><trkpt lat="45.711608380895335" lon="10.12219518740463"><ele>368.0</ele><time>2026-03-15T16:44:02.998Z</time></trkpt><trkpt lat="45.71141228572713" lon="10.122209935798484"><ele>368.0</ele><time>2026-03-15T16:44:03.998Z</time></trkpt><trkpt lat="45.71122178646892" lon="10.122218431822938"><ele>368.0</ele><time>2026-03-15T16:44:04.998Z</time></trkpt><trkpt lat="45.71102243143999" lon="10.122213040192774"><ele>368.0</ele><time>2026-03-15T16:44:05.998Z</time></trkpt><trkpt lat="45.710822403259165" lon="10.12216213241201"><ele>366.33333333333337</ele><time>2026-03-15T16:44:06.998Z</time></trkpt><trkpt lat="45.71063148709998" lon="10.12212844917548"><ele>364.6666666666667</ele><time>2026-03-15T16:44:07.998Z</time></trkpt><trkpt lat="45.71045699139534" lon="10.122094122718007"><ele>363.0</ele><time>2026-03-15T16:44:08.998Z</time></trkpt><trkpt lat="45.710288835906624" lon="10.12208159807934"><ele>361.3333333333333</ele><time>2026-03-15T16:44:09.998Z</time></trkpt><trkpt lat="45.710107450670186" lon="10.12203952943829"><ele>359.66666666666663</ele><time>2026-03-15T16:44:10.998Z</time></trkpt><trkpt lat="45.70995315766984" lon="10.12198637701862"><ele>358.0</ele><time>2026-03-15T16:44:11.998Z</time></trkpt><trkpt lat="45.70979764037216" lon="10.121952048602754"><ele>358.0</ele><time>2026-03-15T16:44:12.998Z</time></trkpt><trkpt lat="45.70964967778963" lon="10.12194201112004"><ele>358.0</ele><time>2026-03-15T16:44:13.998Z</time></trkpt><trkpt lat="45.70950226621125" lon="10.121904486088003"><ele>358.0</ele><time>2026-03-15T16:44:14.998Z</time></trkpt><trkpt lat="45.709335394098915" lon="10.121864490125004"><ele>357.3333333333333</ele><time>2026-03-15T16:44:15.998Z</time></trkpt><trkpt lat="45.70914915654077" lon="10.121822018180543"><ele>356.6666666666667</ele><time>2026-03-15T16:44:16.998Z</time></trkpt><trkpt lat="45.70895450313562" lon="10.121784020835488"><ele>356.0</ele><time>2026-03-15T16:44:17.998Z</time></trkpt><trkpt lat="45.7087456768276" lon="10.121740051256873"><ele>356.0</ele><time>2026-03-15T16:44:18.998Z</time></trkpt><trkpt lat="45.708544935217965" lon="10.121698927305685"><ele>356.0</ele><time>2026-03-15T16:44:19.998Z</time></trkpt><trkpt lat="45.708366617405524" lon="10.121636345282534"><ele>356.0</ele><time>2026-03-15T16:44:20.998Z</time></trkpt><trkpt lat="45.70819146095315" lon="10.121599403023946"><ele>356.0</ele><time>2026-03-15T16:44:21.998Z</time></trkpt><trkpt lat="45.7080319820266" lon="10.121570482612947"><ele>356.0</ele><time>2026-03-15T16:44:22.998Z</time></trkpt><trkpt lat="45.70786165159748" lon="10.1215652304475"><ele>356.0</ele><time>2026-03-15T16:44:23.998Z</time></trkpt><trkpt lat="45.707674394268075" lon="10.121516231795978"><ele>352.0</ele><time>2026-03-15T16:44:24.998Z</time></trkpt><trkpt lat="45.70746803555442" lon="10.12149974775563"><ele>348.0</ele><time>2026-03-15T16:44:25.998Z</time></trkpt><trkpt lat="45.707249194656534" lon="10.121490774965517"><ele>344.0</ele><time>2026-03-15T16:44:26.998Z</time></trkpt><trkpt lat="45.70702135512046" lon="10.121490598344685"><ele>343.6666666666667</ele><time>2026-03-15T16:44:27.998Z</time></trkpt><trkpt lat="45.706800451068844" lon="10.12149484264909"><ele>343.3333333333333</ele><time>2026-03-15T16:44:28.998Z</time></trkpt><trkpt lat="45.70659107309556" lon="10.121494842646436"><ele>343.0</ele><time>2026-03-15T16:44:29.998Z</time></trkpt><trkpt lat="45.706392658772685" lon="10.121493542642567"><ele>343.0</ele><time>2026-03-15T16:44:30.998Z</time></trkpt><trkpt lat="45.70619821454628" lon="10.121485857278886"><ele>343.0</ele><time>2026-03-15T16:44:31.998Z</time></trkpt><trkpt lat="45.70599021784707" lon="10.12146589432633"><ele>343.0</ele><time>2026-03-15T16:44:32.998Z</time></trkpt><trkpt lat="45.705768811626314" lon="10.12143279905681"><ele>341.0</ele><time>2026-03-15T16:44:33.998Z</time></trkpt><trkpt lat="45.70554500561213" lon="10.12138913751681"><ele>339.0</ele><time>2026-03-15T16:44:34.998Z</time></trkpt><trkpt lat="45.70533543310497" lon="10.12132997870089"><ele>337.0</ele><time>2026-03-15T16:44:35.998Z</time></trkpt><trkpt lat="45.705128005249584" lon="10.12125778073063"><ele>337.0</ele><time>2026-03-15T16:44:36.998Z</time></trkpt><trkpt lat="45.70491660182777" lon="10.121166386044653"><ele>337.0</ele><time>2026-03-15T16:44:37.998Z</time></trkpt><trkpt lat="45.70470110628322" lon="10.121059716435422"><ele>337.0</ele><time>2026-03-15T16:44:38.998Z</time></trkpt><trkpt lat="45.704486082586136" lon="10.12093819631386"><ele>334.0</ele><time>2026-03-15T16:44:39.998Z</time></trkpt><trkpt lat="45.70427168402508" lon="10.120806576633527"><ele>331.0</ele><time>2026-03-15T16:44:40.998Z</time></trkpt><trkpt lat="45.70406043410439" lon="10.120673840667589"><ele>331.0</ele><time>2026-03-15T16:44:41.998Z</time></trkpt><trkpt lat="45.70385980784461" lon="10.12056889504716"><ele>331.0</ele><time>2026-03-15T16:44:42.997Z</time></trkpt><trkpt lat="45.703676358017475" lon="10.1204539329268"><ele>331.0</ele><time>2026-03-15T16:44:43.997Z</time></trkpt><trkpt lat="45.70349184864188" lon="10.120342734022307"><ele>334.0</ele><time>2026-03-15T16:44:44.997Z</time></trkpt><trkpt lat="45.70331208031166" lon="10.120205813700155"><ele>337.0</ele><time>2026-03-15T16:44:45.997Z</time></trkpt><trkpt lat="45.70312052932997" lon="10.120085085366119"><ele>340.0</ele><time>2026-03-15T16:44:46.997Z</time></trkpt><trkpt lat="45.70292141967156" lon="10.119957115496211"><ele>337.3333333333333</ele><time>2026-03-15T16:44:47.997Z</time></trkpt><trkpt lat="45.702719571370494" lon="10.119824357506147"><ele>334.6666666666667</ele><time>2026-03-15T16:44:48.997Z</time></trkpt><trkpt lat="45.702522088687374" lon="10.119688979898203"><ele>332.0</ele><time>2026-03-15T16:44:49.997Z</time></trkpt><trkpt lat="45.70232681226129" lon="10.119540216696516"><ele>332.0</ele><time>2026-03-15T16:44:50.997Z</time></trkpt><trkpt lat="45.70214598117977" lon="10.119389563799398"><ele>332.0</ele><time>2026-03-15T16:44:51.997Z</time></trkpt><trkpt lat="45.70197374470368" lon="10.119237134654735"><ele>332.0</ele><time>2026-03-15T16:44:52.997Z</time></trkpt><trkpt lat="45.70181198592459" lon="10.119090624511118"><ele>331.33333333333337</ele><time>2026-03-15T16:44:53.997Z</time></trkpt><trkpt lat="45.70166317721211" lon="10.118955843599837"><ele>330.6666666666667</ele><time>2026-03-15T16:44:54.997Z</time></trkpt><trkpt lat="45.70151390351363" lon="10.11884261659008"><ele>330.0</ele><time>2026-03-15T16:44:55.997Z</time></trkpt><trkpt lat="45.70137996980074" lon="10.118714849005963"><ele>330.0</ele><time>2026-03-15T16:44:56.997Z</time></trkpt><trkpt lat="45.70125364439103" lon="10.118597874659974"><ele>330.0</ele><time>2026-03-15T16:44:57.997Z</time></trkpt><trkpt lat="45.70113040088727" lon="10.118491583228293"><ele>330.0</ele><time>2026-03-15T16:44:58.997Z</time></trkpt><trkpt lat="45.701022199161535" lon="10.118364433117167"><ele>330.0</ele><time>2026-03-15T16:44:59.997Z</time></trkpt><trkpt lat="45.70090225438585" lon="10.118256054950775"><ele>327.6666666666667</ele><time>2026-03-15T16:45:00.997Z</time></trkpt><trkpt lat="45.70076795572374" lon="10.118135379978089"><ele>325.33333333333337</ele><time>2026-03-15T16:45:01.997Z</time></trkpt><trkpt lat="45.70059896687481" lon="10.117983534396028"><ele>323.0</ele><time>2026-03-15T16:45:02.997Z</time></trkpt><trkpt lat="45.70041530286237" lon="10.11782179382567"><ele>334.0</ele><time>2026-03-15T16:45:03.997Z</time></trkpt><trkpt lat="45.70022779965137" lon="10.11765815657814"><ele>345.0</ele><time>2026-03-15T16:45:04.997Z</time></trkpt><trkpt lat="45.70002922198564" lon="10.117487854211856"><ele>337.0</ele><time>2026-03-15T16:45:05.997Z</time></trkpt><trkpt lat="45.69982329354139" lon="10.117315421958429"><ele>329.0</ele><time>2026-03-15T16:45:07Z</time></trkpt><trkpt lat="45.69960976353637" lon="10.117138062929484"><ele>334.5</ele><time>2026-03-15T16:45:08Z</time></trkpt><trkpt lat="45.6993973187649" lon="10.116962285994967"><ele>340.0</ele><time>2026-03-15T16:45:09Z</time></trkpt><trkpt lat="45.69918547949679" lon="10.116790186625865"><ele>340.0</ele><time>2026-03-15T16:45:10Z</time></trkpt><trkpt lat="45.69897744834661" lon="10.116626451710298"><ele>340.0</ele><time>2026-03-15T16:45:11Z</time></trkpt><trkpt lat="45.69877269173748" lon="10.116466201908933"><ele>338.0</ele><time>2026-03-15T16:45:12Z</time></trkpt><trkpt lat="45.69858128172487" lon="10.116318610519667"><ele>336.0</ele><time>2026-03-15T16:45:13Z</time></trkpt><trkpt lat="45.698409168886855" lon="10.116187122774104"><ele>334.0</ele><time>2026-03-15T16:45:14Z</time></trkpt><trkpt lat="45.698242185121124" lon="10.11606082078627"><ele>334.0</ele><time>2026-03-15T16:45:15Z</time></trkpt><trkpt lat="45.698088708619984" lon="10.115944735334987"><ele>334.0</ele><time>2026-03-15T16:45:16Z</time></trkpt><trkpt lat="45.697943546923746" lon="10.11583493898434"><ele>334.0</ele><time>2026-03-15T16:45:17Z</time></trkpt><trkpt lat="45.69780369239256" lon="10.115728693729627"><ele>333.0</ele><time>2026-03-15T16:45:18Z</time></trkpt><trkpt lat="45.697655458850186" lon="10.11561549172469"><ele>332.0</ele><time>2026-03-15T16:45:19Z</time></trkpt><trkpt lat="45.697490446702986" lon="10.115489476337984"><ele>331.0</ele><time>2026-03-15T16:45:20Z</time></trkpt><trkpt lat="45.69730510477102" lon="10.115348824936692"><ele>331.0</ele><time>2026-03-15T16:45:21Z</time></trkpt><trkpt lat="45.69711448396915" lon="10.115205607366564"><ele>331.0</ele><time>2026-03-15T16:45:22Z</time></trkpt><trkpt lat="45.69691859184375" lon="10.115058429275164"><ele>331.0</ele><time>2026-03-15T16:45:23Z</time></trkpt><trkpt lat="45.69671903809919" lon="10.114909824921277"><ele>329.66666666666663</ele><time>2026-03-15T16:45:24Z</time></trkpt><trkpt lat="45.69651979797037" lon="10.114765138747156"><ele>328.3333333333333</ele><time>2026-03-15T16:45:25Z</time></trkpt><trkpt lat="45.696320755116254" lon="10.114629115653706"><ele>327.0</ele><time>2026-03-15T16:45:26Z</time></trkpt><trkpt lat="45.696117014215396" lon="10.114503330756678"><ele>331.3333333333333</ele><time>2026-03-15T16:45:27Z</time></trkpt><trkpt lat="45.6959114050112" lon="10.114386363080895"><ele>335.66666666666663</ele><time>2026-03-15T16:45:28Z</time></trkpt><trkpt lat="45.6957115667654" lon="10.114275822566386"><ele>340.0</ele><time>2026-03-15T16:45:29Z</time></trkpt><trkpt lat="45.69553313693306" lon="10.114178541173393"><ele>340.0</ele><time>2026-03-15T16:45:30Z</time></trkpt><trkpt lat="45.69535630941755" lon="10.114083389992883"><ele>340.0</ele><time>2026-03-15T16:45:31Z</time></trkpt><trkpt lat="45.69518117601609" lon="10.113989150413008"><ele>340.0</ele><time>2026-03-15T16:45:32Z</time></trkpt><trkpt lat="45.694995015913904" lon="10.113890185850606"><ele>337.3333333333333</ele><time>2026-03-15T16:45:33Z</time></trkpt><trkpt lat="45.694811474574664" lon="10.113792886816968"><ele>334.6666666666667</ele><time>2026-03-15T16:45:34Z</time></trkpt><trkpt lat="45.694624605401" lon="10.113693565560922"><ele>332.0</ele><time>2026-03-15T16:45:35Z</time></trkpt><trkpt lat="45.69442934260166" lon="10.113613573309415"><ele>336.33333333333337</ele><time>2026-03-15T16:45:36Z</time></trkpt><trkpt lat="45.69423911116653" lon="10.11350838053991"><ele>340.6666666666667</ele><time>2026-03-15T16:45:37Z</time></trkpt><trkpt lat="45.69404123074155" lon="10.113405015457323"><ele>345.0</ele><time>2026-03-15T16:45:38Z</time></trkpt><trkpt lat="45.69384043236814" lon="10.113298462655685"><ele>342.6666666666667</ele><time>2026-03-15T16:45:38.999Z</time></trkpt><trkpt lat="45.69363734725361" lon="10.113181445503402"><ele>340.33333333333337</ele><time>2026-03-15T16:45:39.999Z</time></trkpt><trkpt lat="45.693433871898804" lon="10.11305146160803"><ele>338.0</ele><time>2026-03-15T16:45:40.999Z</time></trkpt><trkpt lat="45.69323690082197" lon="10.112912751563972"><ele>338.0</ele><time>2026-03-15T16:45:41.999Z</time></trkpt><trkpt lat="45.6930482605982" lon="10.112741190058358"><ele>338.0</ele><time>2026-03-15T16:45:42.999Z</time></trkpt><trkpt lat="45.69286427866507" lon="10.112569555803468"><ele>338.0</ele><time>2026-03-15T16:45:43.999Z</time></trkpt><trkpt lat="45.692681485687906" lon="10.112397135239963"><ele>335.33333333333337</ele><time>2026-03-15T16:45:44.999Z</time></trkpt><trkpt lat="45.692497361310146" lon="10.112220697852724"><ele>332.6666666666667</ele><time>2026-03-15T16:45:45.999Z</time></trkpt><trkpt lat="45.692313443978456" lon="10.112044274005966"><ele>330.0</ele><time>2026-03-15T16:45:46.999Z</time></trkpt><trkpt lat="45.692132740046326" lon="10.111870930492394"><ele>330.0</ele><time>2026-03-15T16:45:47.999Z</time></trkpt><trkpt lat="45.69195989160972" lon="10.111705120197803"><ele>330.0</ele><time>2026-03-15T16:45:48.999Z</time></trkpt><trkpt lat="45.69179671212037" lon="10.111574562133606"><ele>330.0</ele><time>2026-03-15T16:45:49.999Z</time></trkpt><trkpt lat="45.69164924812661" lon="10.111430403330871"><ele>329.0</ele><time>2026-03-15T16:45:50.999Z</time></trkpt><trkpt lat="45.691496127939736" lon="10.11128366898256"><ele>328.0</ele><time>2026-03-15T16:45:51.999Z</time></trkpt><trkpt lat="45.69133185830699" lon="10.111129426265368"><ele>327.0</ele><time>2026-03-15T16:45:52.999Z</time></trkpt><trkpt lat="45.691160680398475" lon="10.110964761867201"><ele>326.3333333333333</ele><time>2026-03-15T16:45:53.999Z</time></trkpt><trkpt lat="45.69098135463766" lon="10.110793873371204"><ele>325.66666666666663</ele><time>2026-03-15T16:45:54.999Z</time></trkpt><trkpt lat="45.69079869544863" lon="10.11062443748299"><ele>325.0</ele><time>2026-03-15T16:45:55.999Z</time></trkpt><trkpt lat="45.690613495507606" lon="10.110460799090802"><ele>325.0</ele><time>2026-03-15T16:45:56.999Z</time></trkpt><trkpt lat="45.69042255985295" lon="10.110299968159"><ele>325.0</ele><time>2026-03-15T16:45:57.999Z</time></trkpt><trkpt lat="45.69022737263892" lon="10.11015041426587"><ele>325.0</ele><time>2026-03-15T16:45:58.999Z</time></trkpt><trkpt lat="45.69003211741134" lon="10.110015459743904"><ele>323.0</ele><time>2026-03-15T16:45:59.999Z</time></trkpt><trkpt lat="45.68983569092451" lon="10.109882326436393"><ele>321.0</ele><time>2026-03-15T16:46:00.999Z</time></trkpt><trkpt lat="45.689644812168986" lon="10.109751919122175"><ele>319.0</ele><time>2026-03-15T16:46:01.999Z</time></trkpt><trkpt lat="45.68945357864274" lon="10.10961485898325"><ele>322.0</ele><time>2026-03-15T16:46:02.999Z</time></trkpt><trkpt lat="45.689262420007786" lon="10.109476126653403"><ele>325.0</ele><time>2026-03-15T16:46:03.999Z</time></trkpt><trkpt lat="45.689072645627206" lon="10.109339259138903"><ele>328.0</ele><time>2026-03-15T16:46:04.999Z</time></trkpt><trkpt lat="45.68887828535842" lon="10.10920296337128"><ele>326.0</ele><time>2026-03-15T16:46:05.999Z</time></trkpt><trkpt lat="45.68868642676774" lon="10.109066363630417"><ele>324.0</ele><time>2026-03-15T16:46:06.999Z</time></trkpt><trkpt lat="45.68849507972058" lon="10.108931447637495"><ele>322.0</ele><time>2026-03-15T16:46:07.999Z</time></trkpt><trkpt lat="45.688306718463295" lon="10.108797620582017"><ele>322.0</ele><time>2026-03-15T16:46:08.999Z</time></trkpt><trkpt lat="45.6881133763973" lon="10.10866543124214"><ele>322.0</ele><time>2026-03-15T16:46:09.999Z</time></trkpt><trkpt lat="45.68792313909882" lon="10.108531689115976"><ele>322.0</ele><time>2026-03-15T16:46:10.999Z</time></trkpt><trkpt lat="45.687733469979975" lon="10.10839376123735"><ele>323.3333333333333</ele><time>2026-03-15T16:46:11.999Z</time></trkpt><trkpt lat="45.68754394642541" lon="10.108253765015682"><ele>324.6666666666667</ele><time>2026-03-15T16:46:12.999Z</time></trkpt><trkpt lat="45.68734667064462" lon="10.108115193741853"><ele>326.0</ele><time>2026-03-15T16:46:13.999Z</time></trkpt><trkpt lat="45.687149729957156" lon="10.107980264177124"><ele>320.33333333333337</ele><time>2026-03-15T16:46:14.999Z</time></trkpt><trkpt lat="45.68695344586675" lon="10.10784763836281"><ele>314.6666666666667</ele><time>2026-03-15T16:46:15.999Z</time></trkpt><trkpt lat="45.68675627978919" lon="10.10771286219155"><ele>309.0</ele><time>2026-03-15T16:46:16.999Z</time></trkpt><trkpt lat="45.686560650047646" lon="10.107574134876494"><ele>309.0</ele><time>2026-03-15T16:46:17.999Z</time></trkpt><trkpt lat="45.68636889839043" lon="10.1074306789509"><ele>309.0</ele><time>2026-03-15T16:46:18.999Z</time></trkpt><trkpt lat="45.68618703995605" lon="10.107280041948302"><ele>309.0</ele><time>2026-03-15T16:46:19.999Z</time></trkpt><trkpt lat="45.686006979527384" lon="10.107120747347325"><ele>303.6666666666667</ele><time>2026-03-15T16:46:20.999Z</time></trkpt><trkpt lat="45.68583172179583" lon="10.10695965723827"><ele>298.33333333333337</ele><time>2026-03-15T16:46:21.999Z</time></trkpt><trkpt lat="45.68565706956731" lon="10.106782036688271"><ele>293.0</ele><time>2026-03-15T16:46:22.998Z</time></trkpt><trkpt lat="45.685485889664804" lon="10.106585770039757"><ele>293.6666666666667</ele><time>2026-03-15T16:46:23.998Z</time></trkpt><trkpt lat="45.685315991737745" lon="10.106376057818585"><ele>294.3333333333333</ele><time>2026-03-15T16:46:24.998Z</time></trkpt><trkpt lat="45.68515580706441" lon="10.106157259546949"><ele>295.0</ele><time>2026-03-15T16:46:25.998Z</time></trkpt><trkpt lat="45.68500212569349" lon="10.105926701347848"><ele>304.0</ele><time>2026-03-15T16:46:26.998Z</time></trkpt><trkpt lat="45.684858318387626" lon="10.10568357354187"><ele>313.0</ele><time>2026-03-15T16:46:27.998Z</time></trkpt><trkpt lat="45.684719295618564" lon="10.105432960808669"><ele>322.0</ele><time>2026-03-15T16:46:28.998Z</time></trkpt><trkpt lat="45.684583877853015" lon="10.105176906458185"><ele>322.0</ele><time>2026-03-15T16:46:29.998Z</time></trkpt><trkpt lat="45.6844467328291" lon="10.104919781018815"><ele>322.0</ele><time>2026-03-15T16:46:30.998Z</time></trkpt><trkpt lat="45.68430756428059" lon="10.104664868401802"><ele>320.0</ele><time>2026-03-15T16:46:31.998Z</time></trkpt><trkpt lat="45.68416972589604" lon="10.104410569902244"><ele>318.0</ele><time>2026-03-15T16:46:32.998Z</time></trkpt><trkpt lat="45.684021559893814" lon="10.104149367933637"><ele>313.75</ele><time>2026-03-15T16:46:33.998Z</time></trkpt><trkpt lat="45.683921026529624" lon="10.103890393693987"><ele>309.5</ele><time>2026-03-15T16:46:34.998Z</time></trkpt><trkpt lat="45.68391961789582" lon="10.103771623900613"><ele>305.25</ele><time>2026-03-15T16:46:35.998Z</time></trkpt><trkpt lat="45.68383979629937" lon="10.10361549822882"><ele>301.0</ele><time>2026-03-15T16:46:36.998Z</time></trkpt><trkpt lat="45.68374850047223" lon="10.103404717344675"><ele>298.66666666666663</ele><time>2026-03-15T16:46:37.998Z</time></trkpt><trkpt lat="45.683653856207755" lon="10.1031953563182"><ele>296.3333333333333</ele><time>2026-03-15T16:46:38.998Z</time></trkpt><trkpt lat="45.68354530624076" lon="10.102977229784758"><ele>294.0</ele><time>2026-03-15T16:46:39.998Z</time></trkpt><trkpt lat="45.68344524623475" lon="10.102762259391884"><ele>301.0</ele><time>2026-03-15T16:46:40.998Z</time></trkpt><trkpt lat="45.683343048681934" lon="10.102542943090775"><ele>308.0</ele><time>2026-03-15T16:46:41.998Z</time></trkpt><trkpt lat="45.683243820808975" lon="10.102327227827331"><ele>315.0</ele><time>2026-03-15T16:46:42.998Z</time></trkpt><trkpt lat="45.683144027514025" lon="10.10209876445114"><ele>315.0</ele><time>2026-03-15T16:46:43.998Z</time></trkpt><trkpt lat="45.68304319100305" lon="10.101824042667252"><ele>315.0</ele><time>2026-03-15T16:46:44.998Z</time></trkpt><trkpt lat="45.68294325319298" lon="10.10157146039816"><ele>315.0</ele><time>2026-03-15T16:46:45.998Z</time></trkpt><trkpt lat="45.6828390546954" lon="10.101320503954767"><ele>314.0</ele><time>2026-03-15T16:46:46.998Z</time></trkpt><trkpt lat="45.68273282627643" lon="10.101073342400618"><ele>313.0</ele><time>2026-03-15T16:46:47.998Z</time></trkpt><trkpt lat="45.68262430688725" lon="10.100800116867479"><ele>312.0</ele><time>2026-03-15T16:46:49.068Z</time></trkpt><trkpt lat="45.68252436298532" lon="10.100544379325731"><ele>312.0</ele><time>2026-03-15T16:46:50.067Z</time></trkpt><trkpt lat="45.682418754714305" lon="10.100284566261417"><ele>312.0</ele><time>2026-03-15T16:46:51.066Z</time></trkpt><trkpt lat="45.68230798476891" lon="10.100011684884544"><ele>312.0</ele><time>2026-03-15T16:46:52.066Z</time></trkpt><trkpt lat="45.682204525639406" lon="10.099755720961587"><ele>307.5</ele><time>2026-03-15T16:46:53.045Z</time></trkpt><trkpt lat="45.68211497671107" lon="10.099517397077177"><ele>303.0</ele><time>2026-03-15T16:46:54.03Z</time></trkpt><trkpt lat="45.681028625628166" lon="10.096695264066737"><ele>319.0</ele><time>2026-03-15T16:47:06.66Z</time></trkpt><trkpt lat="45.68075510122657" lon="10.09595151838149"><ele>267.0</ele><time>2026-03-15T16:47:11.196Z</time></trkpt><trkpt lat="45.678893562042" lon="10.09280360120726"><ele>267.0</ele><time>2026-03-15T16:47:23.997Z</time></trkpt><trkpt lat="45.67871581552904" lon="10.092669913135053"><ele>267.0</ele><time>2026-03-15T16:47:24.997Z</time></trkpt><trkpt lat="45.67855122861849" lon="10.09250466189286"><ele>267.0</ele><time>2026-03-15T16:47:25.997Z</time></trkpt><trkpt lat="45.67840200532461" lon="10.092327635494062"><ele>266.6666666666667</ele><time>2026-03-15T16:47:26.997Z</time></trkpt><trkpt lat="45.678247045983774" lon="10.092152724070818"><ele>266.33333333333337</ele><time>2026-03-15T16:47:27.997Z</time></trkpt><trkpt lat="45.67812492612217" lon="10.091933884726974"><ele>266.0</ele><time>2026-03-15T16:47:28.997Z</time></trkpt><trkpt lat="45.67796707574844" lon="10.091759282499233"><ele>267.33333333333337</ele><time>2026-03-15T16:47:30Z</time></trkpt><trkpt lat="45.67780772421495" lon="10.091583046944598"><ele>268.6666666666667</ele><time>2026-03-15T16:47:31Z</time></trkpt><trkpt lat="45.67764607413284" lon="10.09140620370582"><ele>270.0</ele><time>2026-03-15T16:47:32Z</time></trkpt><trkpt lat="45.67748479616814" lon="10.091229767460074"><ele>270.0</ele><time>2026-03-15T16:47:33Z</time></trkpt><trkpt lat="45.67732811159516" lon="10.091055294015115"><ele>270.0</ele><time>2026-03-15T16:47:34Z</time></trkpt><trkpt lat="45.677170864699555" lon="10.090880061383904"><ele>270.0</ele><time>2026-03-15T16:47:35Z</time></trkpt><trkpt lat="45.67701334164925" lon="10.090707142363852"><ele>269.3333333333333</ele><time>2026-03-15T16:47:36Z</time></trkpt><trkpt lat="45.67686074200924" lon="10.09053962803174"><ele>268.66666666666663</ele><time>2026-03-15T16:47:37Z</time></trkpt><trkpt lat="45.676707326018004" lon="10.090371217395278"><ele>268.0</ele><time>2026-03-15T16:47:38Z</time></trkpt><trkpt lat="45.67655664718259" lon="10.090204265578382"><ele>268.0</ele><time>2026-03-15T16:47:39Z</time></trkpt><trkpt lat="45.67641098374702" lon="10.090040800367941"><ele>268.0</ele><time>2026-03-15T16:47:40Z</time></trkpt><trkpt lat="45.676273014708684" lon="10.08988596975447"><ele>268.0</ele><time>2026-03-15T16:47:41Z</time></trkpt><trkpt lat="45.67614190127135" lon="10.089740689170933"><ele>269.0</ele><time>2026-03-15T16:47:42Z</time></trkpt><trkpt lat="45.67602011935814" lon="10.089607475005671"><ele>270.0</ele><time>2026-03-15T16:47:43Z</time></trkpt><trkpt lat="45.6759001235822" lon="10.08947621447962"><ele>271.0</ele><time>2026-03-15T16:47:44Z</time></trkpt><trkpt lat="45.67577474545652" lon="10.08933841597081"><ele>271.0</ele><time>2026-03-15T16:47:45Z</time></trkpt><trkpt lat="45.67564949777067" lon="10.089200022950205"><ele>271.0</ele><time>2026-03-15T16:47:46Z</time></trkpt><trkpt lat="45.67552322664151" lon="10.08906049909263"><ele>271.0</ele><time>2026-03-15T16:47:47Z</time></trkpt><trkpt lat="45.675397265463474" lon="10.088920162692904"><ele>273.75</ele><time>2026-03-15T16:47:48Z</time></trkpt><trkpt lat="45.675276407428534" lon="10.08878515324971"><ele>276.5</ele><time>2026-03-15T16:47:49Z</time></trkpt><trkpt lat="45.675163064766224" lon="10.088658539094968"><ele>279.25</ele><time>2026-03-15T16:47:50Z</time></trkpt><trkpt lat="45.67504327347186" lon="10.088524721366069"><ele>282.0</ele><time>2026-03-15T16:47:51Z</time></trkpt><trkpt lat="45.674919815455944" lon="10.088389039994183"><ele>278.5</ele><time>2026-03-15T16:47:52Z</time></trkpt><trkpt lat="45.6747934770812" lon="10.088256684529957"><ele>275.0</ele><time>2026-03-15T16:47:53Z</time></trkpt><trkpt lat="45.674667531565895" lon="10.088123958664243"><ele>271.5</ele><time>2026-03-15T16:47:54.077Z</time></trkpt><trkpt lat="45.67456735287345" lon="10.088012724050802"><ele>268.0</ele><time>2026-03-15T16:47:55.068Z</time></trkpt><trkpt lat="45.6744512317538" lon="10.08788156789211"><ele>275.0</ele><time>2026-03-15T16:47:56.066Z</time></trkpt><trkpt lat="45.67432668215235" lon="10.087739802400073"><ele>282.0</ele><time>2026-03-15T16:47:57.03Z</time></trkpt><trkpt lat="45.674194743894304" lon="10.08758962630965"><ele>289.0</ele><time>2026-03-15T16:47:58.026Z</time></trkpt><trkpt lat="45.67282129231153" lon="10.085503396663563"><ele>309.0</ele><time>2026-03-15T16:48:01.744Z</time></trkpt><trkpt lat="45.67230161426674" lon="10.084617608628465"><ele>326.0</ele><time>2026-03-15T16:48:02.744Z</time></trkpt><trkpt lat="45.671785401934734" lon="10.08373166864585"><ele>298.0</ele><time>2026-03-15T16:48:03.741Z</time></trkpt><trkpt lat="45.671265834378794" lon="10.082841780191652"><ele>336.0</ele><time>2026-03-15T16:48:04.744Z</time></trkpt><trkpt lat="45.67075112395891" lon="10.08195684882308"><ele>371.0</ele><time>2026-03-15T16:48:05.739Z</time></trkpt><trkpt lat="45.670233254171464" lon="10.081068767572454"><ele>349.0</ele><time>2026-03-15T16:48:06.739Z</time></trkpt><trkpt lat="45.66971185272667" lon="10.080177830413156"><ele>368.0</ele><time>2026-03-15T16:48:07.744Z</time></trkpt><trkpt lat="45.669192474005285" lon="10.079292610693184"><ele>346.0</ele><time>2026-03-15T16:48:08.743Z</time></trkpt><trkpt lat="45.66867537102483" lon="10.078408309908863"><ele>356.0</ele><time>2026-03-15T16:48:09.74Z</time></trkpt><trkpt lat="45.66815663833661" lon="10.077516731962566"><ele>318.0</ele><time>2026-03-15T16:48:10.743Z</time></trkpt><trkpt lat="45.6678053" lon="10.0769174"><ele>274.0</ele><time>2026-03-15T16:48:11.74Z</time></trkpt><trkpt lat="45.661207651235934" lon="10.066546389209813"><ele>278.0</ele><time>2026-03-15T16:49:39.998Z</time></trkpt><trkpt lat="45.661006329436226" lon="10.066380829382945"><ele>282.0</ele><time>2026-03-15T16:49:40.998Z</time></trkpt><trkpt lat="45.660934910114804" lon="10.066064574415796"><ele>282.0</ele><time>2026-03-15T16:49:41.997Z</time></trkpt><trkpt lat="45.66079907429659" lon="10.065847647007065"><ele>282.0</ele><time>2026-03-15T16:49:42.997Z</time></trkpt><trkpt lat="45.66065563684498" lon="10.065710847090473"><ele>282.0</ele><time>2026-03-15T16:49:43.997Z</time></trkpt><trkpt lat="45.66050404580798" lon="10.065566272524853"><ele>282.0</ele><time>2026-03-15T16:49:44.997Z</time></trkpt><trkpt lat="45.66034349363056" lon="10.065435498248462"><ele>282.0</ele><time>2026-03-15T16:49:46Z</time></trkpt><trkpt lat="45.66018442029685" lon="10.065277760356341"><ele>282.0</ele><time>2026-03-15T16:49:47Z</time></trkpt><trkpt lat="45.66002176429547" lon="10.06512055046187"><ele>282.0</ele><time>2026-03-15T16:49:48Z</time></trkpt><trkpt lat="45.65985550958337" lon="10.064961177607662"><ele>282.0</ele><time>2026-03-15T16:49:49Z</time></trkpt><trkpt lat="45.659687837656634" lon="10.064798263919364"><ele>282.0</ele><time>2026-03-15T16:49:50Z</time></trkpt><trkpt lat="45.65952726179955" lon="10.064645737787734"><ele>280.0</ele><time>2026-03-15T16:49:51Z</time></trkpt><trkpt lat="45.65936574815073" lon="10.064489870799648"><ele>278.0</ele><time>2026-03-15T16:49:52Z</time></trkpt><trkpt lat="45.6592071910325" lon="10.064337381351077"><ele>276.0</ele><time>2026-03-15T16:49:53Z</time></trkpt><trkpt lat="45.65904406097048" lon="10.064178907995407"><ele>271.6666666666667</ele><time>2026-03-15T16:49:54Z</time></trkpt><trkpt lat="45.65887950070263" lon="10.064021622044056"><ele>267.33333333333337</ele><time>2026-03-15T16:49:54.999Z</time></trkpt><trkpt lat="45.65870860242107" lon="10.063864412115969"><ele>263.0</ele><time>2026-03-15T16:49:55.999Z</time></trkpt><trkpt lat="45.65854090723017" lon="10.063719845534473"><ele>263.0</ele><time>2026-03-15T16:49:56.999Z</time></trkpt><trkpt lat="45.65836161142551" lon="10.063585704233105"><ele>263.0</ele><time>2026-03-15T16:49:57.999Z</time></trkpt><trkpt lat="45.658181249920666" lon="10.063472020312572"><ele>263.0</ele><time>2026-03-15T16:49:58.999Z</time></trkpt><trkpt lat="45.657984619149225" lon="10.0633891058226"><ele>266.0</ele><time>2026-03-15T16:49:59.999Z</time></trkpt><trkpt lat="45.65778340231333" lon="10.063325851324999"><ele>269.0</ele><time>2026-03-15T16:50:00.999Z</time></trkpt><trkpt lat="45.657573201452436" lon="10.063290299445628"><ele>272.0</ele><time>2026-03-15T16:50:01.999Z</time></trkpt><trkpt lat="45.657364408072" lon="10.063282672142861"><ele>272.0</ele><time>2026-03-15T16:50:02.999Z</time></trkpt><trkpt lat="45.65715078439262" lon="10.063291138377897"><ele>272.0</ele><time>2026-03-15T16:50:03.999Z</time></trkpt><trkpt lat="45.656942018810945" lon="10.063312611387508"><ele>272.0</ele><time>2026-03-15T16:50:04.999Z</time></trkpt><trkpt lat="45.65674050544397" lon="10.063345241763004"><ele>271.33333333333337</ele><time>2026-03-15T16:50:05.999Z</time></trkpt><trkpt lat="45.65654056577169" lon="10.06340037543776"><ele>270.6666666666667</ele><time>2026-03-15T16:50:06.999Z</time></trkpt><trkpt lat="45.65634773236533" lon="10.063481206411181"><ele>270.0</ele><time>2026-03-15T16:50:07.999Z</time></trkpt><trkpt lat="45.656155799042764" lon="10.063585525013378"><ele>273.0</ele><time>2026-03-15T16:50:08.999Z</time></trkpt><trkpt lat="45.65596792587637" lon="10.063700660012044"><ele>276.0</ele><time>2026-03-15T16:50:09.999Z</time></trkpt><trkpt lat="45.65578753927095" lon="10.063824391654595"><ele>279.0</ele><time>2026-03-15T16:50:10.999Z</time></trkpt><trkpt lat="45.655598677186866" lon="10.063932135488258"><ele>279.0</ele><time>2026-03-15T16:50:11.999Z</time></trkpt><trkpt lat="45.65542076939633" lon="10.06405062012051"><ele>279.0</ele><time>2026-03-15T16:50:12.999Z</time></trkpt><trkpt lat="45.65525028105806" lon="10.064165766334774"><ele>279.0</ele><time>2026-03-15T16:50:13.999Z</time></trkpt><trkpt lat="45.65507374196377" lon="10.064283838570613"><ele>295.6666666666667</ele><time>2026-03-15T16:50:14.999Z</time></trkpt><trkpt lat="45.65489587994001" lon="10.064403072965817"><ele>312.33333333333337</ele><time>2026-03-15T16:50:15.999Z</time></trkpt><trkpt lat="45.65472092204255" lon="10.064520360512"><ele>329.0</ele><time>2026-03-15T16:50:16.999Z</time></trkpt><trkpt lat="45.65454646066846" lon="10.064635128592887"><ele>341.6666666666667</ele><time>2026-03-15T16:50:17.999Z</time></trkpt><trkpt lat="45.65435818816051" lon="10.064758751415631"><ele>354.3333333333333</ele><time>2026-03-15T16:50:19.067Z</time></trkpt><trkpt lat="45.65417517042126" lon="10.064878923859458"><ele>367.0</ele><time>2026-03-15T16:50:20.066Z</time></trkpt><trkpt lat="45.653991085844254" lon="10.064999796814767"><ele>442.0</ele><time>2026-03-15T16:50:21.066Z</time></trkpt><trkpt lat="45.65216161475759" lon="10.066230755696248"><ele>315.0</ele><time>2026-03-15T16:50:24.735Z</time></trkpt><trkpt lat="45.640605030271374" lon="10.073895694351396"><ele>315.0</ele><time>2026-03-15T16:51:54.997Z</time></trkpt><trkpt lat="45.64048219078498" lon="10.07402043604765"><ele>315.0</ele><time>2026-03-15T16:51:55.997Z</time></trkpt><trkpt lat="45.6403234262281" lon="10.074097191119263"><ele>315.0</ele><time>2026-03-15T16:51:56.997Z</time></trkpt><trkpt lat="45.640156840309096" lon="10.074176369073095"><ele>310.0</ele><time>2026-03-15T16:51:57.997Z</time></trkpt><trkpt lat="45.63997341946105" lon="10.07421222964118"><ele>305.0</ele><time>2026-03-15T16:51:58.997Z</time></trkpt><trkpt lat="45.6398070199456" lon="10.074307113042764"><ele>300.0</ele><time>2026-03-15T16:51:59.997Z</time></trkpt><trkpt lat="45.639635440586865" lon="10.07440386512663"><ele>298.0</ele><time>2026-03-15T16:52:01Z</time></trkpt><trkpt lat="45.63945512880672" lon="10.074504467544433"><ele>296.0</ele><time>2026-03-15T16:52:02Z</time></trkpt><trkpt lat="45.639244578017916" lon="10.074621225734774"><ele>294.0</ele><time>2026-03-15T16:52:03Z</time></trkpt><trkpt lat="45.6390149935112" lon="10.074748009872717"><ele>294.0</ele><time>2026-03-15T16:52:04Z</time></trkpt><trkpt lat="45.63879805369425" lon="10.074862739144109"><ele>294.0</ele><time>2026-03-15T16:52:05Z</time></trkpt><trkpt lat="45.63859664936792" lon="10.074969273058185"><ele>294.0</ele><time>2026-03-15T16:52:06Z</time></trkpt><trkpt lat="45.63840149877188" lon="10.075072703278709"><ele>292.6666666666667</ele><time>2026-03-15T16:52:07Z</time></trkpt><trkpt lat="45.63821578381197" lon="10.075171132591942"><ele>291.33333333333337</ele><time>2026-03-15T16:52:08Z</time></trkpt><trkpt lat="45.638010439775655" lon="10.075279112761466"><ele>290.0</ele><time>2026-03-15T16:52:09Z</time></trkpt><trkpt lat="45.63778429268477" lon="10.075397439630246"><ele>286.0</ele><time>2026-03-15T16:52:10Z</time></trkpt><trkpt lat="45.63755936695887" lon="10.075515127444243"><ele>282.0</ele><time>2026-03-15T16:52:11Z</time></trkpt><trkpt lat="45.637344928667645" lon="10.075627327922067"><ele>282.0</ele><time>2026-03-15T16:52:12Z</time></trkpt><trkpt lat="45.63714897141377" lon="10.075731138911307"><ele>282.0</ele><time>2026-03-15T16:52:13Z</time></trkpt><trkpt lat="45.63695175776465" lon="10.07583707527566"><ele>282.0</ele><time>2026-03-15T16:52:14Z</time></trkpt><trkpt lat="45.636750812083086" lon="10.075946308236619"><ele>284.6666666666667</ele><time>2026-03-15T16:52:15Z</time></trkpt><trkpt lat="45.63656329053091" lon="10.076048512752537"><ele>287.33333333333337</ele><time>2026-03-15T16:52:16Z</time></trkpt><trkpt lat="45.63637617140557" lon="10.076148728250685"><ele>290.0</ele><time>2026-03-15T16:52:17Z</time></trkpt><trkpt lat="45.636188240524554" lon="10.076248638934866"><ele>289.6666666666667</ele><time>2026-03-15T16:52:18Z</time></trkpt><trkpt lat="45.63600451124686" lon="10.0763666054095"><ele>289.3333333333333</ele><time>2026-03-15T16:52:19Z</time></trkpt><trkpt lat="45.63581568882524" lon="10.07646185724778"><ele>289.0</ele><time>2026-03-15T16:52:20Z</time></trkpt><trkpt lat="45.63568649660544" lon="10.07652399138713"><ele>290.3333333333333</ele><time>2026-03-15T16:52:21Z</time></trkpt><trkpt lat="45.63550869382918" lon="10.076617039914712"><ele>291.6666666666667</ele><time>2026-03-15T16:52:22Z</time></trkpt><trkpt lat="45.635402026067986" lon="10.076688466006809"><ele>293.0</ele><time>2026-03-15T16:52:23Z</time></trkpt><trkpt lat="45.63525451423887" lon="10.076744319040932"><ele>287.0</ele><time>2026-03-15T16:52:24Z</time></trkpt><trkpt lat="45.63509939323568" lon="10.076826619168608"><ele>281.0</ele><time>2026-03-15T16:52:25Z</time></trkpt><trkpt lat="45.63493591210269" lon="10.076913354804468"><ele>275.0</ele><time>2026-03-15T16:52:26Z</time></trkpt><trkpt lat="45.634784630130966" lon="10.07699361812232"><ele>275.0</ele><time>2026-03-15T16:52:27Z</time></trkpt><trkpt lat="45.63462688105793" lon="10.07707731258609"><ele>275.0</ele><time>2026-03-15T16:52:28Z</time></trkpt><trkpt lat="45.634466631039295" lon="10.077162333936807"><ele>275.0</ele><time>2026-03-15T16:52:29Z</time></trkpt><trkpt lat="45.634298614017645" lon="10.07725147610566"><ele>273.0</ele><time>2026-03-15T16:52:30Z</time></trkpt><trkpt lat="45.63412638553527" lon="10.077342852682797"><ele>271.0</ele><time>2026-03-15T16:52:31Z</time></trkpt><trkpt lat="45.63395127333541" lon="10.077435899146803"><ele>269.0</ele><time>2026-03-15T16:52:32Z</time></trkpt><trkpt lat="45.6337768557812" lon="10.077528822613576"><ele>268.0</ele><time>2026-03-15T16:52:33Z</time></trkpt><trkpt lat="45.63360997222839" lon="10.077617732233053"><ele>267.0</ele><time>2026-03-15T16:52:34Z</time></trkpt><trkpt lat="45.633449969732574" lon="10.07770297586833"><ele>266.0</ele><time>2026-03-15T16:52:35Z</time></trkpt><trkpt lat="45.633289420172375" lon="10.077788510960131"><ele>266.0</ele><time>2026-03-15T16:52:36Z</time></trkpt><trkpt lat="45.63313832145395" lon="10.07786901098113"><ele>266.0</ele><time>2026-03-15T16:52:37Z</time></trkpt><trkpt lat="45.63297915966203" lon="10.077953117107217"><ele>266.0</ele><time>2026-03-15T16:52:38Z</time></trkpt><trkpt lat="45.63282166816792" lon="10.078035763772128"><ele>263.0</ele><time>2026-03-15T16:52:39Z</time></trkpt><trkpt lat="45.63266210678502" lon="10.078119496653976"><ele>260.0</ele><time>2026-03-15T16:52:39.999Z</time></trkpt><trkpt lat="45.632500186754555" lon="10.078204467283005"><ele>257.0</ele><time>2026-03-15T16:52:40.999Z</time></trkpt><trkpt lat="45.63233856923121" lon="10.078289703855207"><ele>257.0</ele><time>2026-03-15T16:52:41.999Z</time></trkpt><trkpt lat="45.632172933184414" lon="10.078373298452394"><ele>257.0</ele><time>2026-03-15T16:52:42.999Z</time></trkpt><trkpt lat="45.63199612264323" lon="10.078452913434948"><ele>257.0</ele><time>2026-03-15T16:52:43.999Z</time></trkpt><trkpt lat="45.6318144554143" lon="10.078525286219369"><ele>256.0</ele><time>2026-03-15T16:52:44.999Z</time></trkpt><trkpt lat="45.631631206923615" lon="10.078591650530477"><ele>255.0</ele><time>2026-03-15T16:52:45.999Z</time></trkpt><trkpt lat="45.63145575369191" lon="10.078650112133598"><ele>254.0</ele><time>2026-03-15T16:52:46.999Z</time></trkpt><trkpt lat="45.631275598011186" lon="10.078721856937195"><ele>253.0</ele><time>2026-03-15T16:52:47.999Z</time></trkpt><trkpt lat="45.631091190364565" lon="10.078739081148921"><ele>252.0</ele><time>2026-03-15T16:52:48.999Z</time></trkpt><trkpt lat="45.63090333972838" lon="10.078771632300846"><ele>251.0</ele><time>2026-03-15T16:52:49.999Z</time></trkpt><trkpt lat="45.63071774174045" lon="10.078797779418966"><ele>251.0</ele><time>2026-03-15T16:52:50.999Z</time></trkpt><trkpt lat="45.630517912021254" lon="10.07881701194162"><ele>251.0</ele><time>2026-03-15T16:52:51.999Z</time></trkpt><trkpt lat="45.63031129061463" lon="10.078829912244954"><ele>251.0</ele><time>2026-03-15T16:52:52.999Z</time></trkpt><trkpt lat="45.63009707531106" lon="10.07882684479652"><ele>251.0</ele><time>2026-03-15T16:52:53.999Z</time></trkpt><trkpt lat="45.62988457634064" lon="10.07881820820447"><ele>251.0</ele><time>2026-03-15T16:52:54.999Z</time></trkpt><trkpt lat="45.62968245542414" lon="10.0788018770669"><ele>251.0</ele><time>2026-03-15T16:52:55.999Z</time></trkpt><trkpt lat="45.62949049778241" lon="10.07877375270499"><ele>250.66666666666669</ele><time>2026-03-15T16:52:56.999Z</time></trkpt><trkpt lat="45.62928895934807" lon="10.078736626592727"><ele>250.33333333333331</ele><time>2026-03-15T16:52:57.999Z</time></trkpt><trkpt lat="45.629085059918765" lon="10.078686690914738"><ele>250.0</ele><time>2026-03-15T16:52:58.999Z</time></trkpt><trkpt lat="45.62887540038374" lon="10.078630113908137"><ele>250.0</ele><time>2026-03-15T16:52:59.999Z</time></trkpt><trkpt lat="45.628657660972394" lon="10.078594924506596"><ele>250.0</ele><time>2026-03-15T16:53:00.999Z</time></trkpt><trkpt lat="45.628447208606524" lon="10.078532885815532"><ele>250.0</ele><time>2026-03-15T16:53:01.999Z</time></trkpt><trkpt lat="45.628229757764466" lon="10.078472654670163"><ele>249.33333333333331</ele><time>2026-03-15T16:53:02.999Z</time></trkpt><trkpt lat="45.628022086651974" lon="10.078417095699733"><ele>248.66666666666669</ele><time>2026-03-15T16:53:03.999Z</time></trkpt><trkpt lat="45.627825611361295" lon="10.07836307663227"><ele>248.0</ele><time>2026-03-15T16:53:04.999Z</time></trkpt><trkpt lat="45.627640699060464" lon="10.078307540406428"><ele>246.66666666666669</ele><time>2026-03-15T16:53:05.999Z</time></trkpt><trkpt lat="45.62746568637406" lon="10.078256635693108"><ele>245.33333333333331</ele><time>2026-03-15T16:53:06.999Z</time></trkpt><trkpt lat="45.62729346877743" lon="10.07821204837924"><ele>244.0</ele><time>2026-03-15T16:53:07.999Z</time></trkpt><trkpt lat="45.62710882255458" lon="10.07813699758195"><ele>244.0</ele><time>2026-03-15T16:53:08.999Z</time></trkpt><trkpt lat="45.62692909953196" lon="10.078085963255168"><ele>244.0</ele><time>2026-03-15T16:53:09.999Z</time></trkpt><trkpt lat="45.62675986741044" lon="10.07803790984942"><ele>244.0</ele><time>2026-03-15T16:53:10.999Z</time></trkpt><trkpt lat="45.62657753240296" lon="10.077986393708489"><ele>244.0</ele><time>2026-03-15T16:53:11.999Z</time></trkpt><trkpt lat="45.62638726995094" lon="10.077933328640674"><ele>244.0</ele><time>2026-03-15T16:53:12.999Z</time></trkpt><trkpt lat="45.62618677222669" lon="10.077877408889002"><ele>244.0</ele><time>2026-03-15T16:53:13.999Z</time></trkpt><trkpt lat="45.62598429616563" lon="10.077820937313627"><ele>243.66666666666666</ele><time>2026-03-15T16:53:14.999Z</time></trkpt><trkpt lat="45.62576766228511" lon="10.077777168138066"><ele>243.33333333333331</ele><time>2026-03-15T16:53:15.999Z</time></trkpt><trkpt lat="45.62555139608339" lon="10.077711017941386"><ele>243.0</ele><time>2026-03-15T16:53:16.999Z</time></trkpt><trkpt lat="45.6253534846795" lon="10.077657733480365"><ele>242.0</ele><time>2026-03-15T16:53:17.999Z</time></trkpt><trkpt lat="45.625166539260434" lon="10.077610016483849"><ele>241.0</ele><time>2026-03-15T16:53:18.999Z</time></trkpt><trkpt lat="45.624973482612845" lon="10.077558295257049"><ele>240.0</ele><time>2026-03-15T16:53:19.999Z</time></trkpt><trkpt lat="45.6247847430085" lon="10.077508136283823"><ele>240.33333333333331</ele><time>2026-03-15T16:53:20.999Z</time></trkpt><trkpt lat="45.62458663649112" lon="10.077430932807887"><ele>240.66666666666666</ele><time>2026-03-15T16:53:21.999Z</time></trkpt><trkpt lat="45.62438675009806" lon="10.077375280878487"><ele>241.0</ele><time>2026-03-15T16:53:22.998Z</time></trkpt><trkpt lat="45.62416859046093" lon="10.077314832901681"><ele>241.0</ele><time>2026-03-15T16:53:23.998Z</time></trkpt><trkpt lat="45.62395374036067" lon="10.077254565464145"><ele>241.0</ele><time>2026-03-15T16:53:24.998Z</time></trkpt><trkpt lat="45.62375772612972" lon="10.077199581674579"><ele>241.0</ele><time>2026-03-15T16:53:25.998Z</time></trkpt><trkpt lat="45.62356594722266" lon="10.07714578588202"><ele>241.0</ele><time>2026-03-15T16:53:26.998Z</time></trkpt><trkpt lat="45.62336913992284" lon="10.077090063102977"><ele>241.0</ele><time>2026-03-15T16:53:27.998Z</time></trkpt><trkpt lat="45.62312721341152" lon="10.077022846859565"><ele>241.0</ele><time>2026-03-15T16:53:28.998Z</time></trkpt><trkpt lat="45.622875266233336" lon="10.07695206598862"><ele>239.5</ele><time>2026-03-15T16:53:29.998Z</time></trkpt><trkpt lat="45.622631157953954" lon="10.07688348736954"><ele>238.0</ele><time>2026-03-15T16:53:30.998Z</time></trkpt><trkpt lat="45.6223920017804" lon="10.076816299972728"><ele>238.0</ele><time>2026-03-15T16:53:31.998Z</time></trkpt><trkpt lat="45.622148324216546" lon="10.07675081539109"><ele>238.0</ele><time>2026-03-15T16:53:32.998Z</time></trkpt><trkpt lat="45.621909903444404" lon="10.076687571718976"><ele>237.0</ele><time>2026-03-15T16:53:33.998Z</time></trkpt><trkpt lat="45.621668329794" lon="10.076626749335082"><ele>236.0</ele><time>2026-03-15T16:53:34.998Z</time></trkpt><trkpt lat="45.621428487211645" lon="10.076575013538823"><ele>236.0</ele><time>2026-03-15T16:53:35.998Z</time></trkpt><trkpt lat="45.62118572076949" lon="10.07653658124888"><ele>236.0</ele><time>2026-03-15T16:53:36.998Z</time></trkpt><trkpt lat="45.62094688522189" lon="10.076506260582281"><ele>234.5</ele><time>2026-03-15T16:53:37.998Z</time></trkpt><trkpt lat="45.6207025089892" lon="10.076519072310095"><ele>233.0</ele><time>2026-03-15T16:53:38.998Z</time></trkpt><trkpt lat="45.620472442159176" lon="10.076504312473483"><ele>231.33333333333334</ele><time>2026-03-15T16:53:39.998Z</time></trkpt><trkpt lat="45.620257412088016" lon="10.076502212798315"><ele>229.66666666666669</ele><time>2026-03-15T16:53:40.998Z</time></trkpt><trkpt lat="45.62006061384685" lon="10.076507175891185"><ele>228.0</ele><time>2026-03-15T16:53:41.998Z</time></trkpt><trkpt lat="45.61986307398495" lon="10.076470647465483"><ele>228.0</ele><time>2026-03-15T16:53:42.998Z</time></trkpt><trkpt lat="45.619652647357285" lon="10.076470126804429"><ele>228.0</ele><time>2026-03-15T16:53:43.998Z</time></trkpt><trkpt lat="45.61943137153115" lon="10.076470684875893"><ele>228.0</ele><time>2026-03-15T16:53:44.998Z</time></trkpt><trkpt lat="45.61919604958158" lon="10.07647224559373"><ele>227.5</ele><time>2026-03-15T16:53:45.998Z</time></trkpt><trkpt lat="45.61894749812166" lon="10.07647257978099"><ele>227.0</ele><time>2026-03-15T16:53:46.998Z</time></trkpt><trkpt lat="45.618701164077756" lon="10.076472579780859"><ele>226.0</ele><time>2026-03-15T16:53:47.998Z</time></trkpt><trkpt lat="45.61845018966604" lon="10.076472579780992"><ele>225.0</ele><time>2026-03-15T16:53:48.998Z</time></trkpt><trkpt lat="45.61819503998698" lon="10.076472579780676"><ele>225.0</ele><time>2026-03-15T16:53:49.998Z</time></trkpt><trkpt lat="45.61795835534301" lon="10.076472579780516"><ele>225.0</ele><time>2026-03-15T16:53:50.998Z</time></trkpt><trkpt lat="45.61774546991087" lon="10.076472408314348"><ele>224.66666666666669</ele><time>2026-03-15T16:53:51.998Z</time></trkpt><trkpt lat="45.61754744899158" lon="10.076471597061218"><ele>224.33333333333334</ele><time>2026-03-15T16:53:52.998Z</time></trkpt><trkpt lat="45.61735158978389" lon="10.076470794664901"><ele>224.0</ele><time>2026-03-15T16:53:53.998Z</time></trkpt><trkpt lat="45.617164429915896" lon="10.076470027906531"><ele>224.0</ele><time>2026-03-15T16:53:54.998Z</time></trkpt><trkpt lat="45.616980387999966" lon="10.076469273922966"><ele>224.0</ele><time>2026-03-15T16:53:55.998Z</time></trkpt><trkpt lat="45.61679657013439" lon="10.076468522922562"><ele>224.0</ele><time>2026-03-15T16:53:56.998Z</time></trkpt><trkpt lat="45.61660304554121" lon="10.076467730090457"><ele>224.0</ele><time>2026-03-15T16:53:57.998Z</time></trkpt><trkpt lat="45.6164006606237" lon="10.076468310979658"><ele>224.0</ele><time>2026-03-15T16:53:58.998Z</time></trkpt><trkpt lat="45.61620716577622" lon="10.07647007928553"><ele>224.0</ele><time>2026-03-15T16:53:59.998Z</time></trkpt><trkpt lat="45.6160180712357" lon="10.076471801714053"><ele>223.66666666666669</ele><time>2026-03-15T16:54:00.998Z</time></trkpt><trkpt lat="45.615822612485886" lon="10.076472580873743"><ele>223.33333333333331</ele><time>2026-03-15T16:54:01.998Z</time></trkpt><trkpt lat="45.61561487321583" lon="10.076471211069382"><ele>223.0</ele><time>2026-03-15T16:54:02.998Z</time></trkpt><trkpt lat="45.61537728821623" lon="10.07647086458147"><ele>222.5</ele><time>2026-03-15T16:54:03.998Z</time></trkpt><trkpt lat="45.61512185818226" lon="10.076470519941516"><ele>222.0</ele><time>2026-03-15T16:54:04.998Z</time></trkpt><trkpt lat="45.61486116781381" lon="10.076470168204182"><ele>222.0</ele><time>2026-03-15T16:54:05.997Z</time></trkpt><trkpt lat="45.61460455661385" lon="10.076469821973241"><ele>222.0</ele><time>2026-03-15T16:54:07Z</time></trkpt><trkpt lat="45.614348365091395" lon="10.076491299119734"><ele>220.5</ele><time>2026-03-15T16:54:08Z</time></trkpt><trkpt lat="45.614091049972146" lon="10.076469129160806"><ele>219.0</ele><time>2026-03-15T16:54:09Z</time></trkpt><trkpt lat="45.61384084930979" lon="10.076522814366772"><ele>219.0</ele><time>2026-03-15T16:54:10Z</time></trkpt><trkpt lat="45.61359327796953" lon="10.076587277409605"><ele>219.0</ele><time>2026-03-15T16:54:11Z</time></trkpt><trkpt lat="45.613348963869804" lon="10.076679752303301"><ele>219.0</ele><time>2026-03-15T16:54:12Z</time></trkpt><trkpt lat="45.613104173460556" lon="10.076782500033534"><ele>219.0</ele><time>2026-03-15T16:54:13Z</time></trkpt><trkpt lat="45.612862731573664" lon="10.076899227411753"><ele>218.0</ele><time>2026-03-15T16:54:14Z</time></trkpt><trkpt lat="45.61262641076492" lon="10.077035128313483"><ele>217.0</ele><time>2026-03-15T16:54:15Z</time></trkpt><trkpt lat="45.612397838907945" lon="10.077192084442967"><ele>217.0</ele><time>2026-03-15T16:54:16Z</time></trkpt><trkpt lat="45.61217250393884" lon="10.077366193072807"><ele>217.0</ele><time>2026-03-15T16:54:17Z</time></trkpt><trkpt lat="45.61194650407098" lon="10.07755088833428"><ele>216.0</ele><time>2026-03-15T16:54:18Z</time></trkpt><trkpt lat="45.61173137323706" lon="10.07772781032626"><ele>215.0</ele><time>2026-03-15T16:54:19Z</time></trkpt><trkpt lat="45.61153015984513" lon="10.077888876799802"><ele>215.0</ele><time>2026-03-15T16:54:20Z</time></trkpt><trkpt lat="45.61133400606332" lon="10.07804236990699"><ele>215.0</ele><time>2026-03-15T16:54:21Z</time></trkpt><trkpt lat="45.61114572677576" lon="10.07819023392224"><ele>215.0</ele><time>2026-03-15T16:54:22Z</time></trkpt><trkpt lat="45.61096517046933" lon="10.078334531335564"><ele>213.33333333333334</ele><time>2026-03-15T16:54:23Z</time></trkpt><trkpt lat="45.610778068511905" lon="10.078484816217312"><ele>211.66666666666669</ele><time>2026-03-15T16:54:24Z</time></trkpt><trkpt lat="45.61058923200902" lon="10.07863838540479"><ele>210.0</ele><time>2026-03-15T16:54:25Z</time></trkpt><trkpt lat="45.61040050124444" lon="10.078788370294898"><ele>210.0</ele><time>2026-03-15T16:54:26Z</time></trkpt><trkpt lat="45.61022039755408" lon="10.078922649917377"><ele>210.0</ele><time>2026-03-15T16:54:27Z</time></trkpt><trkpt lat="45.610044757225594" lon="10.079049934434163"><ele>210.0</ele><time>2026-03-15T16:54:28Z</time></trkpt><trkpt lat="45.60986840052409" lon="10.079178734614885"><ele>210.0</ele><time>2026-03-15T16:54:29Z</time></trkpt><trkpt lat="45.60970056364113" lon="10.079302551484115"><ele>210.0</ele><time>2026-03-15T16:54:30Z</time></trkpt><trkpt lat="45.60952716166308" lon="10.07943376318432"><ele>210.0</ele><time>2026-03-15T16:54:31Z</time></trkpt><trkpt lat="45.60935726405732" lon="10.079564807457073"><ele>210.0</ele><time>2026-03-15T16:54:32Z</time></trkpt><trkpt lat="45.60917419695986" lon="10.079710224982477"><ele>210.0</ele><time>2026-03-15T16:54:33Z</time></trkpt><trkpt lat="45.60897374142406" lon="10.079872572282323"><ele>210.0</ele><time>2026-03-15T16:54:34Z</time></trkpt><trkpt lat="45.608758366799535" lon="10.080050752345404"><ele>208.5</ele><time>2026-03-15T16:54:35Z</time></trkpt><trkpt lat="45.60854095235683" lon="10.080223620951235"><ele>207.0</ele><time>2026-03-15T16:54:36Z</time></trkpt><trkpt lat="45.6083285875291" lon="10.08038607153099"><ele>207.0</ele><time>2026-03-15T16:54:37Z</time></trkpt><trkpt lat="45.60812369758619" lon="10.080542447972903"><ele>207.0</ele><time>2026-03-15T16:54:38Z</time></trkpt><trkpt lat="45.6079140846837" lon="10.080706622157054"><ele>206.5</ele><time>2026-03-15T16:54:39Z</time></trkpt><trkpt lat="45.60770321535907" lon="10.08087174660631"><ele>206.0</ele><time>2026-03-15T16:54:40Z</time></trkpt><trkpt lat="45.60749553392391" lon="10.081036095217868"><ele>206.0</ele><time>2026-03-15T16:54:41Z</time></trkpt><trkpt lat="45.60728503967376" lon="10.081208786989157"><ele>206.0</ele><time>2026-03-15T16:54:42Z</time></trkpt><trkpt lat="45.607072056679726" lon="10.081391221004614"><ele>206.0</ele><time>2026-03-15T16:54:43Z</time></trkpt><trkpt lat="45.606861759631414" lon="10.081579683953823"><ele>206.0</ele><time>2026-03-15T16:54:44Z</time></trkpt><trkpt lat="45.60665225215073" lon="10.081776254226092"><ele>205.0</ele><time>2026-03-15T16:54:45Z</time></trkpt><trkpt lat="45.60644826334998" lon="10.081985013080462"><ele>204.0</ele><time>2026-03-15T16:54:46Z</time></trkpt><trkpt lat="45.6062466889142" lon="10.082207884576345"><ele>204.0</ele><time>2026-03-15T16:54:47Z</time></trkpt><trkpt lat="45.606047997654755" lon="10.082439639660565"><ele>204.0</ele><time>2026-03-15T16:54:48Z</time></trkpt><trkpt lat="45.60585097481632" lon="10.082675552486386"><ele>204.0</ele><time>2026-03-15T16:54:49Z</time></trkpt><trkpt lat="45.60565476913879" lon="10.08290946031992"><ele>204.0</ele><time>2026-03-15T16:54:50Z</time></trkpt><trkpt lat="45.60545654273007" lon="10.083142070010338"><ele>203.5</ele><time>2026-03-15T16:54:51Z</time></trkpt><trkpt lat="45.6052599460299" lon="10.083371820611207"><ele>203.0</ele><time>2026-03-15T16:54:52Z</time></trkpt><trkpt lat="45.60506068489615" lon="10.083602103514513"><ele>203.0</ele><time>2026-03-15T16:54:53Z</time></trkpt><trkpt lat="45.60486571653139" lon="10.08382946604297"><ele>203.0</ele><time>2026-03-15T16:54:54Z</time></trkpt><trkpt lat="45.604667776442255" lon="10.084059985249642"><ele>202.0</ele><time>2026-03-15T16:54:55Z</time></trkpt><trkpt lat="45.604473436642564" lon="10.084284589348393"><ele>201.0</ele><time>2026-03-15T16:54:56Z</time></trkpt><trkpt lat="45.60427832438894" lon="10.084510185583115"><ele>201.0</ele><time>2026-03-15T16:54:57Z</time></trkpt><trkpt lat="45.60408523181276" lon="10.08473983068254"><ele>201.0</ele><time>2026-03-15T16:54:58Z</time></trkpt><trkpt lat="45.60388946388034" lon="10.084973278250175"><ele>200.5</ele><time>2026-03-15T16:54:59Z</time></trkpt><trkpt lat="45.60368936848331" lon="10.085209538340193"><ele>200.0</ele><time>2026-03-15T16:54:59.999Z</time></trkpt><trkpt lat="45.60348755164764" lon="10.08543955390607"><ele>200.0</ele><time>2026-03-15T16:55:00.999Z</time></trkpt><trkpt lat="45.60328676450626" lon="10.085663608816722"><ele>200.0</ele><time>2026-03-15T16:55:01.999Z</time></trkpt><trkpt lat="45.60309635811309" lon="10.08587488878131"><ele>198.5</ele><time>2026-03-15T16:55:02.999Z</time></trkpt><trkpt lat="45.602921881395176" lon="10.08607407937313"><ele>197.0</ele><time>2026-03-15T16:55:03.999Z</time></trkpt><trkpt lat="45.60273914316725" lon="10.086282227340101"><ele>197.0</ele><time>2026-03-15T16:55:04.999Z</time></trkpt><trkpt lat="45.60255319993871" lon="10.086493724380556"><ele>197.0</ele><time>2026-03-15T16:55:05.999Z</time></trkpt><trkpt lat="45.60236121042267" lon="10.086714184398808"><ele>196.5</ele><time>2026-03-15T16:55:06.999Z</time></trkpt><trkpt lat="45.60216416067313" lon="10.086944252802775"><ele>196.0</ele><time>2026-03-15T16:55:07.999Z</time></trkpt><trkpt lat="45.60196372725702" lon="10.087179814463965"><ele>195.0</ele><time>2026-03-15T16:55:08.999Z</time></trkpt><trkpt lat="45.60175902343081" lon="10.087416378989305"><ele>194.0</ele><time>2026-03-15T16:55:09.999Z</time></trkpt><trkpt lat="45.60155085613072" lon="10.08765212492414"><ele>194.0</ele><time>2026-03-15T16:55:10.999Z</time></trkpt><trkpt lat="45.601351484263226" lon="10.087877360637336"><ele>194.0</ele><time>2026-03-15T16:55:11.999Z</time></trkpt><trkpt lat="45.601169226203105" lon="10.088089911967394"><ele>194.0</ele><time>2026-03-15T16:55:12.999Z</time></trkpt><trkpt lat="45.6009919575094" lon="10.088297611592767"><ele>194.0</ele><time>2026-03-15T16:55:13.999Z</time></trkpt><trkpt lat="45.60081398675774" lon="10.088508410643373"><ele>194.0</ele><time>2026-03-15T16:55:14.999Z</time></trkpt><trkpt lat="45.600636771642584" lon="10.088726565306388"><ele>194.0</ele><time>2026-03-15T16:55:15.999Z</time></trkpt><trkpt lat="45.60047076979477" lon="10.088928378530053"><ele>193.66666666666669</ele><time>2026-03-15T16:55:16.999Z</time></trkpt><trkpt lat="45.600313647761695" lon="10.089118229256956"><ele>193.33333333333331</ele><time>2026-03-15T16:55:17.999Z</time></trkpt><trkpt lat="45.60016200860364" lon="10.089294070789473"><ele>193.0</ele><time>2026-03-15T16:55:18.999Z</time></trkpt><trkpt lat="45.60000820830038" lon="10.089472774573553"><ele>193.0</ele><time>2026-03-15T16:55:19.999Z</time></trkpt><trkpt lat="45.59984842529716" lon="10.089657621418741"><ele>193.0</ele><time>2026-03-15T16:55:20.999Z</time></trkpt><trkpt lat="45.59968647998355" lon="10.089850369158132"><ele>193.0</ele><time>2026-03-15T16:55:21.999Z</time></trkpt><trkpt lat="45.59951868149695" lon="10.090047268824499"><ele>192.0</ele><time>2026-03-15T16:55:22.999Z</time></trkpt><trkpt lat="45.59934753955682" lon="10.090247420002761"><ele>191.0</ele><time>2026-03-15T16:55:23.999Z</time></trkpt><trkpt lat="45.599168578329696" lon="10.090453996861676"><ele>191.0</ele><time>2026-03-15T16:55:24.999Z</time></trkpt><trkpt lat="45.59900665521955" lon="10.09064280980249"><ele>191.0</ele><time>2026-03-15T16:55:25.999Z</time></trkpt><trkpt lat="45.59884890152989" lon="10.090833154476163"><ele>191.0</ele><time>2026-03-15T16:55:26.999Z</time></trkpt><trkpt lat="45.59868704352997" lon="10.091025566601637"><ele>191.33333333333331</ele><time>2026-03-15T16:55:27.999Z</time></trkpt><trkpt lat="45.59851838821212" lon="10.091223793440477"><ele>191.66666666666666</ele><time>2026-03-15T16:55:28.999Z</time></trkpt><trkpt lat="45.5983525769833" lon="10.091418035321666"><ele>192.0</ele><time>2026-03-15T16:55:29.999Z</time></trkpt><trkpt lat="45.59817877674255" lon="10.091621551717465"><ele>191.0</ele><time>2026-03-15T16:55:30.999Z</time></trkpt><trkpt lat="45.59801513165351" lon="10.09181814491941"><ele>190.0</ele><time>2026-03-15T16:55:31.999Z</time></trkpt><trkpt lat="45.59784799219137" lon="10.092013960407625"><ele>189.0</ele><time>2026-03-15T16:55:32.999Z</time></trkpt><trkpt lat="45.597681394300665" lon="10.092204882168817"><ele>188.66666666666666</ele><time>2026-03-15T16:55:33.999Z</time></trkpt><trkpt lat="45.59751165001938" lon="10.092401080312076"><ele>188.33333333333331</ele><time>2026-03-15T16:55:34.998Z</time></trkpt><trkpt lat="45.59734464574187" lon="10.092597183411682"><ele>188.0</ele><time>2026-03-15T16:55:35.998Z</time></trkpt><trkpt lat="45.597175279948864" lon="10.092794823479627"><ele>187.33333333333331</ele><time>2026-03-15T16:55:36.998Z</time></trkpt><trkpt lat="45.59700581844174" lon="10.09299471485141"><ele>186.66666666666666</ele><time>2026-03-15T16:55:37.998Z</time></trkpt><trkpt lat="45.59683733398559" lon="10.0931888292962"><ele>186.0</ele><time>2026-03-15T16:55:38.998Z</time></trkpt><trkpt lat="45.59667032059301" lon="10.093379022445268"><ele>185.66666666666666</ele><time>2026-03-15T16:55:39.998Z</time></trkpt><trkpt lat="45.596504378372686" lon="10.093572523738437"><ele>185.33333333333331</ele><time>2026-03-15T16:55:40.998Z</time></trkpt><trkpt lat="45.59633849870997" lon="10.093767280785329"><ele>185.0</ele><time>2026-03-15T16:55:41.998Z</time></trkpt><trkpt lat="45.596171462914874" lon="10.093965678835598"><ele>184.33333333333331</ele><time>2026-03-15T16:55:42.997Z</time></trkpt><trkpt lat="45.59600276219619" lon="10.094167059036034"><ele>183.66666666666666</ele><time>2026-03-15T16:55:43.997Z</time></trkpt><trkpt lat="45.59583450893466" lon="10.094361772645506"><ele>183.0</ele><time>2026-03-15T16:55:44.997Z</time></trkpt><trkpt lat="45.595665341151154" lon="10.094554821330783"><ele>183.0</ele><time>2026-03-15T16:55:45.997Z</time></trkpt><trkpt lat="45.59549337248819" lon="10.09474201183427"><ele>183.0</ele><time>2026-03-15T16:55:46.997Z</time></trkpt><trkpt lat="45.5953203318983" lon="10.09491808196489"><ele>183.0</ele><time>2026-03-15T16:55:47.997Z</time></trkpt><trkpt lat="45.59514689984457" lon="10.095104503400746"><ele>183.33333333333334</ele><time>2026-03-15T16:55:48.997Z</time></trkpt><trkpt lat="45.59497690732329" lon="10.095301126182258"><ele>183.66666666666669</ele><time>2026-03-15T16:55:49.997Z</time></trkpt><trkpt lat="45.59481289907986" lon="10.09549805778823"><ele>184.0</ele><time>2026-03-15T16:55:50.997Z</time></trkpt><trkpt lat="45.59464575912619" lon="10.095695786069877"><ele>182.66666666666669</ele><time>2026-03-15T16:55:51.997Z</time></trkpt><trkpt lat="45.59447642796034" lon="10.095891587805744"><ele>181.33333333333334</ele><time>2026-03-15T16:55:52.997Z</time></trkpt><trkpt lat="45.594303079937596" lon="10.096092108675592"><ele>180.0</ele><time>2026-03-15T16:55:53.997Z</time></trkpt><trkpt lat="45.594135928468184" lon="10.096289334382206"><ele>180.0</ele><time>2026-03-15T16:55:54.997Z</time></trkpt><trkpt lat="45.593969598279486" lon="10.09648430017755"><ele>180.0</ele><time>2026-03-15T16:55:55.997Z</time></trkpt><trkpt lat="45.59380454015992" lon="10.096676692269389"><ele>180.0</ele><time>2026-03-15T16:55:56.997Z</time></trkpt><trkpt lat="45.59363858440289" lon="10.096868087065335"><ele>180.0</ele><time>2026-03-15T16:55:57.997Z</time></trkpt><trkpt lat="45.593473131547384" lon="10.097060702270127"><ele>180.0</ele><time>2026-03-15T16:55:58.997Z</time></trkpt><trkpt lat="45.59331034315538" lon="10.097250634679465"><ele>180.0</ele><time>2026-03-15T16:55:59.997Z</time></trkpt><trkpt lat="45.593144936261204" lon="10.097444185475277"><ele>179.66666666666666</ele><time>2026-03-15T16:56:00.997Z</time></trkpt><trkpt lat="45.59297953237226" lon="10.097639672620502"><ele>179.33333333333331</ele><time>2026-03-15T16:56:01.997Z</time></trkpt><trkpt lat="45.59281430222248" lon="10.097835924778815"><ele>179.0</ele><time>2026-03-15T16:56:02.997Z</time></trkpt><trkpt lat="45.59264460216533" lon="10.098036829031331"><ele>179.0</ele><time>2026-03-15T16:56:03.997Z</time></trkpt><trkpt lat="45.59248028960179" lon="10.098231400578253"><ele>179.0</ele><time>2026-03-15T16:56:04.997Z</time></trkpt><trkpt lat="45.59231252834657" lon="10.098431576803806"><ele>179.0</ele><time>2026-03-15T16:56:05.997Z</time></trkpt><trkpt lat="45.5921456386999" lon="10.09862897189253"><ele>178.66666666666666</ele><time>2026-03-15T16:56:06.997Z</time></trkpt><trkpt lat="45.59198056835288" lon="10.098828769321557"><ele>178.33333333333334</ele><time>2026-03-15T16:56:07.997Z</time></trkpt><trkpt lat="45.59181858550732" lon="10.099026211484421"><ele>178.0</ele><time>2026-03-15T16:56:08.997Z</time></trkpt><trkpt lat="45.59165541202866" lon="10.09922399119524"><ele>177.66666666666669</ele><time>2026-03-15T16:56:09.997Z</time></trkpt><trkpt lat="45.59150013904176" lon="10.099410602515144"><ele>177.33333333333334</ele><time>2026-03-15T16:56:10.997Z</time></trkpt><trkpt lat="45.59135124377573" lon="10.099588770067522"><ele>177.0</ele><time>2026-03-15T16:56:11.997Z</time></trkpt><trkpt lat="45.59120640199283" lon="10.099761657204661"><ele>176.33333333333334</ele><time>2026-03-15T16:56:13Z</time></trkpt><trkpt lat="45.59105532175869" lon="10.099945850569851"><ele>175.66666666666669</ele><time>2026-03-15T16:56:14Z</time></trkpt><trkpt lat="45.590900252544095" lon="10.100137961736827"><ele>175.0</ele><time>2026-03-15T16:56:15Z</time></trkpt><trkpt lat="45.59074113962353" lon="10.10033528596867"><ele>175.0</ele><time>2026-03-15T16:56:16Z</time></trkpt><trkpt lat="45.59058226729847" lon="10.100535512777526"><ele>175.0</ele><time>2026-03-15T16:56:17Z</time></trkpt><trkpt lat="45.590424253310104" lon="10.100737096349357"><ele>175.0</ele><time>2026-03-15T16:56:18Z</time></trkpt><trkpt lat="45.59026562951958" lon="10.100930703292766"><ele>175.33333333333334</ele><time>2026-03-15T16:56:19Z</time></trkpt><trkpt lat="45.590114008113325" lon="10.101113744910602"><ele>175.66666666666666</ele><time>2026-03-15T16:56:20Z</time></trkpt><trkpt lat="45.58996763115708" lon="10.101292851261947"><ele>176.0</ele><time>2026-03-15T16:56:21Z</time></trkpt><trkpt lat="45.589817490800655" lon="10.101489425397116"><ele>176.33333333333331</ele><time>2026-03-15T16:56:22Z</time></trkpt><trkpt lat="45.58965355025879" lon="10.101673930544761"><ele>176.66666666666666</ele><time>2026-03-15T16:56:23Z</time></trkpt><trkpt lat="45.5894871780412" lon="10.101866394233793"><ele>177.0</ele><time>2026-03-15T16:56:24Z</time></trkpt><trkpt lat="45.58932372793413" lon="10.10206011715445"><ele>176.33333333333334</ele><time>2026-03-15T16:56:25Z</time></trkpt><trkpt lat="45.589161298651895" lon="10.102253360519436"><ele>175.66666666666669</ele><time>2026-03-15T16:56:26Z</time></trkpt><trkpt lat="45.58899640124204" lon="10.10244914414347"><ele>175.0</ele><time>2026-03-15T16:56:27Z</time></trkpt><trkpt lat="45.58883375079431" lon="10.102645034602336"><ele>172.66666666666669</ele><time>2026-03-15T16:56:28Z</time></trkpt><trkpt lat="45.58867261436708" lon="10.102835976924892"><ele>170.33333333333334</ele><time>2026-03-15T16:56:29Z</time></trkpt><trkpt lat="45.58850121769234" lon="10.103038940568101"><ele>168.0</ele><time>2026-03-15T16:56:30Z</time></trkpt><trkpt lat="45.588332131006226" lon="10.10323719129231"><ele>168.0</ele><time>2026-03-15T16:56:31Z</time></trkpt><trkpt lat="45.58815917047749" lon="10.103439252404911"><ele>168.0</ele><time>2026-03-15T16:56:32Z</time></trkpt><trkpt lat="45.58798761901021" lon="10.103640771260597"><ele>168.0</ele><time>2026-03-15T16:56:33Z</time></trkpt><trkpt lat="45.587819308796526" lon="10.10384285854808"><ele>168.0</ele><time>2026-03-15T16:56:34Z</time></trkpt><trkpt lat="45.58764595497229" lon="10.10404951914858"><ele>168.0</ele><time>2026-03-15T16:56:34.999Z</time></trkpt><trkpt lat="45.58746894517487" lon="10.104264757665307"><ele>167.0</ele><time>2026-03-15T16:56:35.999Z</time></trkpt><trkpt lat="45.58729254055944" lon="10.104476393278519"><ele>166.0</ele><time>2026-03-15T16:56:36.999Z</time></trkpt><trkpt lat="45.587112293720985" lon="10.10469084619332"><ele>165.5</ele><time>2026-03-15T16:56:37.999Z</time></trkpt><trkpt lat="45.58693504945438" lon="10.104902363574036"><ele>165.0</ele><time>2026-03-15T16:56:38.999Z</time></trkpt><trkpt lat="45.586754608946656" lon="10.105117879503759"><ele>166.0</ele><time>2026-03-15T16:56:39.999Z</time></trkpt><trkpt lat="45.58657418599608" lon="10.105330226445112"><ele>167.0</ele><time>2026-03-15T16:56:40.999Z</time></trkpt><trkpt lat="45.58639504772198" lon="10.105539294225062"><ele>167.5</ele><time>2026-03-15T16:56:41.999Z</time></trkpt><trkpt lat="45.586215623272864" lon="10.105749095099927"><ele>168.0</ele><time>2026-03-15T16:56:42.999Z</time></trkpt><trkpt lat="45.586034437920944" lon="10.105965906632207"><ele>167.0</ele><time>2026-03-15T16:56:43.999Z</time></trkpt><trkpt lat="45.585858409776" lon="10.106179393767173"><ele>166.0</ele><time>2026-03-15T16:56:44.999Z</time></trkpt><trkpt lat="45.585682533120604" lon="10.106394260914797"><ele>166.0</ele><time>2026-03-15T16:56:45.999Z</time></trkpt><trkpt lat="45.5855072736347" lon="10.106606583680232"><ele>166.0</ele><time>2026-03-15T16:56:46.999Z</time></trkpt><trkpt lat="45.585322819879806" lon="10.106828711621956"><ele>165.0</ele><time>2026-03-15T16:56:47.999Z</time></trkpt><trkpt lat="45.58513401125761" lon="10.107054155909946"><ele>164.0</ele><time>2026-03-15T16:56:48.999Z</time></trkpt><trkpt lat="45.58494184754344" lon="10.107281759388101"><ele>164.5</ele><time>2026-03-15T16:56:49.999Z</time></trkpt><trkpt lat="45.58474820197967" lon="10.107512609267136"><ele>165.0</ele><time>2026-03-15T16:56:50.999Z</time></trkpt><trkpt lat="45.584556104326225" lon="10.10774142836303"><ele>164.5</ele><time>2026-03-15T16:56:51.999Z</time></trkpt><trkpt lat="45.584363159622235" lon="10.10797277719241"><ele>164.0</ele><time>2026-03-15T16:56:52.999Z</time></trkpt><trkpt lat="45.584173958480704" lon="10.108198875464803"><ele>164.0</ele><time>2026-03-15T16:56:53.999Z</time></trkpt><trkpt lat="45.58398402482421" lon="10.10842604451122"><ele>164.0</ele><time>2026-03-15T16:56:54.999Z</time></trkpt><trkpt lat="45.583797280962365" lon="10.108646581723502"><ele>164.0</ele><time>2026-03-15T16:56:55.999Z</time></trkpt><trkpt lat="45.583605769178284" lon="10.108873241824378"><ele>164.0</ele><time>2026-03-15T16:56:56.999Z</time></trkpt><trkpt lat="45.58341824820272" lon="10.109094231179538"><ele>164.0</ele><time>2026-03-15T16:56:57.999Z</time></trkpt><trkpt lat="45.58323033902255" lon="10.109315568962376"><ele>164.0</ele><time>2026-03-15T16:56:58.999Z</time></trkpt><trkpt lat="45.5830472292992" lon="10.109541472691093"><ele>164.0</ele><time>2026-03-15T16:56:59.999Z</time></trkpt><trkpt lat="45.58286469165088" lon="10.109766518317329"><ele>164.0</ele><time>2026-03-15T16:57:00.999Z</time></trkpt><trkpt lat="45.58267931668444" lon="10.109993827745043"><ele>163.0</ele><time>2026-03-15T16:57:01.999Z</time></trkpt><trkpt lat="45.5824931062599" lon="10.110214724288808"><ele>162.0</ele><time>2026-03-15T16:57:02.999Z</time></trkpt><trkpt lat="45.58230473216222" lon="10.110436792883068"><ele>162.0</ele><time>2026-03-15T16:57:03.999Z</time></trkpt><trkpt lat="45.58211458969408" lon="10.110657957154023"><ele>162.0</ele><time>2026-03-15T16:57:04.999Z</time></trkpt><trkpt lat="45.58192700182761" lon="10.110870904014453"><ele>161.5</ele><time>2026-03-15T16:57:05.999Z</time></trkpt><trkpt lat="45.58173805083419" lon="10.11108463408004"><ele>161.0</ele><time>2026-03-15T16:57:06.999Z</time></trkpt><trkpt lat="45.58155108384279" lon="10.11129796644851"><ele>161.0</ele><time>2026-03-15T16:57:07.999Z</time></trkpt><trkpt lat="45.581366414981964" lon="10.111513786154166"><ele>161.0</ele><time>2026-03-15T16:57:08.999Z</time></trkpt><trkpt lat="45.58117773460721" lon="10.111733838995805"><ele>160.5</ele><time>2026-03-15T16:57:09.999Z</time></trkpt><trkpt lat="45.580991326337205" lon="10.111951067318044"><ele>160.0</ele><time>2026-03-15T16:57:10.999Z</time></trkpt><trkpt lat="45.58080652636916" lon="10.11216456665845"><ele>160.0</ele><time>2026-03-15T16:57:11.999Z</time></trkpt><trkpt lat="45.5806235463722" lon="10.1123764309178"><ele>160.0</ele><time>2026-03-15T16:57:12.999Z</time></trkpt><trkpt lat="45.58044168986982" lon="10.112584682344375"><ele>159.0</ele><time>2026-03-15T16:57:13.999Z</time></trkpt><trkpt lat="45.58026018081078" lon="10.11279576374276"><ele>158.0</ele><time>2026-03-15T16:57:14.998Z</time></trkpt><trkpt lat="45.58008645050528" lon="10.113004106099254"><ele>158.0</ele><time>2026-03-15T16:57:15.998Z</time></trkpt><trkpt lat="45.57991007999794" lon="10.113222349092014"><ele>158.0</ele><time>2026-03-15T16:57:16.998Z</time></trkpt><trkpt lat="45.57972691409713" lon="10.113450149705708"><ele>158.0</ele><time>2026-03-15T16:57:17.998Z</time></trkpt><trkpt lat="45.57954169218294" lon="10.113674332997183"><ele>158.0</ele><time>2026-03-15T16:57:18.998Z</time></trkpt><trkpt lat="45.579360785194744" lon="10.113891049098516"><ele>157.0</ele><time>2026-03-15T16:57:19.998Z</time></trkpt><trkpt lat="45.57917525290365" lon="10.114111110040266"><ele>156.0</ele><time>2026-03-15T16:57:20.998Z</time></trkpt><trkpt lat="45.57899282432731" lon="10.11433097047926"><ele>156.0</ele><time>2026-03-15T16:57:21.998Z</time></trkpt><trkpt lat="45.578815264298576" lon="10.114546619279826"><ele>156.0</ele><time>2026-03-15T16:57:22.998Z</time></trkpt><trkpt lat="45.57863450814112" lon="10.114758332363305"><ele>155.5</ele><time>2026-03-15T16:57:23.998Z</time></trkpt><trkpt lat="45.57845276251631" lon="10.114953724141428"><ele>155.0</ele><time>2026-03-15T16:57:24.998Z</time></trkpt><trkpt lat="45.5782715791727" lon="10.115150500632568"><ele>155.0</ele><time>2026-03-15T16:57:25.998Z</time></trkpt><trkpt lat="45.578099811712754" lon="10.115345553824918"><ele>155.0</ele><time>2026-03-15T16:57:26.998Z</time></trkpt><trkpt lat="45.57792985828445" lon="10.11555002531219"><ele>155.0</ele><time>2026-03-15T16:57:27.998Z</time></trkpt><trkpt lat="45.57776394893429" lon="10.115748755717814"><ele>154.33333333333331</ele><time>2026-03-15T16:57:28.998Z</time></trkpt><trkpt lat="45.5775951893013" lon="10.115949671547423"><ele>153.66666666666666</ele><time>2026-03-15T16:57:29.998Z</time></trkpt><trkpt lat="45.57742788177301" lon="10.116145005133625"><ele>153.0</ele><time>2026-03-15T16:57:30.998Z</time></trkpt><trkpt lat="45.57726248435908" lon="10.116337028514439"><ele>153.0</ele><time>2026-03-15T16:57:31.998Z</time></trkpt><trkpt lat="45.57709726046232" lon="10.116528873219773"><ele>153.0</ele><time>2026-03-15T16:57:32.998Z</time></trkpt><trkpt lat="45.57693540304355" lon="10.116718776768309"><ele>153.0</ele><time>2026-03-15T16:57:33.998Z</time></trkpt><trkpt lat="45.57677459340406" lon="10.116909868846774"><ele>152.66666666666666</ele><time>2026-03-15T16:57:34.998Z</time></trkpt><trkpt lat="45.576614088675754" lon="10.117104158937817"><ele>152.33333333333331</ele><time>2026-03-15T16:57:35.998Z</time></trkpt><trkpt lat="45.576454031248296" lon="10.117293740147497"><ele>152.0</ele><time>2026-03-15T16:57:36.998Z</time></trkpt><trkpt lat="45.576289804437835" lon="10.117485389847339"><ele>152.0</ele><time>2026-03-15T16:57:37.998Z</time></trkpt><trkpt lat="45.57612460936188" lon="10.117677949717807"><ele>152.0</ele><time>2026-03-15T16:57:38.998Z</time></trkpt><trkpt lat="45.57596252810672" lon="10.117866860284387"><ele>152.0</ele><time>2026-03-15T16:57:39.998Z</time></trkpt><trkpt lat="45.57579812236178" lon="10.118058992455834"><ele>152.0</ele><time>2026-03-15T16:57:40.998Z</time></trkpt><trkpt lat="45.57563397236856" lon="10.11825369834142"><ele>152.0</ele><time>2026-03-15T16:57:41.998Z</time></trkpt><trkpt lat="45.57546974043404" lon="10.118450272794798"><ele>152.0</ele><time>2026-03-15T16:57:42.998Z</time></trkpt><trkpt lat="45.57531784351811" lon="10.118632587955243"><ele>152.0</ele><time>2026-03-15T16:57:43.998Z</time></trkpt><trkpt lat="45.57517513084889" lon="10.118804204712642"><ele>152.0</ele><time>2026-03-15T16:57:44.998Z</time></trkpt><trkpt lat="45.575034116624856" lon="10.11897029636732"><ele>152.0</ele><time>2026-03-15T16:57:45.998Z</time></trkpt><trkpt lat="45.57489739601044" lon="10.11913343453504"><ele>151.33333333333331</ele><time>2026-03-15T16:57:46.998Z</time></trkpt><trkpt lat="45.57475695085559" lon="10.119304182524598"><ele>150.66666666666666</ele><time>2026-03-15T16:57:47.998Z</time></trkpt><trkpt lat="45.57461277818435" lon="10.119479371685337"><ele>150.0</ele><time>2026-03-15T16:57:48.998Z</time></trkpt><trkpt lat="45.57446359340134" lon="10.119656959071525"><ele>149.66666666666666</ele><time>2026-03-15T16:57:49.998Z</time></trkpt><trkpt lat="45.57430896620327" lon="10.119835041022634"><ele>149.33333333333331</ele><time>2026-03-15T16:57:50.998Z</time></trkpt><trkpt lat="45.57415390242701" lon="10.120013585415423"><ele>149.0</ele><time>2026-03-15T16:57:51.998Z</time></trkpt><trkpt lat="45.573997457034146" lon="10.120198433358361"><ele>148.66666666666666</ele><time>2026-03-15T16:57:52.998Z</time></trkpt><trkpt lat="45.57384216643075" lon="10.120390303460779"><ele>148.33333333333334</ele><time>2026-03-15T16:57:53.998Z</time></trkpt><trkpt lat="45.57368989497687" lon="10.120588825910628"><ele>148.0</ele><time>2026-03-15T16:57:54.998Z</time></trkpt><trkpt lat="45.57354975154796" lon="10.120791460741415"><ele>148.0</ele><time>2026-03-15T16:57:55.998Z</time></trkpt><trkpt lat="45.573413544152245" lon="10.1210058715244"><ele>148.0</ele><time>2026-03-15T16:57:56.997Z</time></trkpt><trkpt lat="45.573281018387185" lon="10.121203170381579"><ele>148.0</ele><time>2026-03-15T16:57:57.997Z</time></trkpt><trkpt lat="45.57314269494983" lon="10.121390705213745"><ele>148.0</ele><time>2026-03-15T16:57:58.997Z</time></trkpt><trkpt lat="45.572995488590294" lon="10.121574764065656"><ele>148.0</ele><time>2026-03-15T16:57:59.997Z</time></trkpt><trkpt lat="45.57284320541389" lon="10.12175096962818"><ele>148.0</ele><time>2026-03-15T16:58:00.997Z</time></trkpt><trkpt lat="45.57269331700909" lon="10.121920828289188"><ele>148.0</ele><time>2026-03-15T16:58:01.997Z</time></trkpt><trkpt lat="45.572538184256196" lon="10.12209664468658"><ele>148.0</ele><time>2026-03-15T16:58:02.997Z</time></trkpt><trkpt lat="45.57237587394949" lon="10.122271172118758"><ele>148.0</ele><time>2026-03-15T16:58:03.997Z</time></trkpt><trkpt lat="45.57219637425362" lon="10.122442655470797"><ele>147.66666666666669</ele><time>2026-03-15T16:58:04.997Z</time></trkpt><trkpt lat="45.572013872364046" lon="10.1225977842676"><ele>147.33333333333334</ele><time>2026-03-15T16:58:05.997Z</time></trkpt><trkpt lat="45.57182299159127" lon="10.122754974481719"><ele>147.0</ele><time>2026-03-15T16:58:06.997Z</time></trkpt><trkpt lat="45.57163591932997" lon="10.122914045068917"><ele>147.0</ele><time>2026-03-15T16:58:07.997Z</time></trkpt><trkpt lat="45.57144747177096" lon="10.123075856931722"><ele>147.0</ele><time>2026-03-15T16:58:08.997Z</time></trkpt><trkpt lat="45.57126000788826" lon="10.123239875110082"><ele>147.0</ele><time>2026-03-15T16:58:09.997Z</time></trkpt><trkpt lat="45.5710786739981" lon="10.123402521151267"><ele>147.0</ele><time>2026-03-15T16:58:10.997Z</time></trkpt><trkpt lat="45.57089764533384" lon="10.12356609539522"><ele>147.0</ele><time>2026-03-15T16:58:11.997Z</time></trkpt><trkpt lat="45.57071585612052" lon="10.123728331576203"><ele>147.0</ele><time>2026-03-15T16:58:12.997Z</time></trkpt><trkpt lat="45.57053583169223" lon="10.123887466692924"><ele>146.33333333333334</ele><time>2026-03-15T16:58:13.997Z</time></trkpt><trkpt lat="45.57035447679933" lon="10.124047375856094"><ele>145.66666666666669</ele><time>2026-03-15T16:58:14.997Z</time></trkpt><trkpt lat="45.570172185596476" lon="10.124204834496776"><ele>145.0</ele><time>2026-03-15T16:58:15.997Z</time></trkpt><trkpt lat="45.56998841098272" lon="10.124359679033871"><ele>145.0</ele><time>2026-03-15T16:58:16.997Z</time></trkpt><trkpt lat="45.569796699073606" lon="10.12451006083705"><ele>145.0</ele><time>2026-03-15T16:58:18Z</time></trkpt><trkpt lat="45.56959991942763" lon="10.124638459286441"><ele>145.0</ele><time>2026-03-15T16:58:19Z</time></trkpt><trkpt lat="45.56940014940485" lon="10.12474393866188"><ele>145.0</ele><time>2026-03-15T16:58:20Z</time></trkpt><trkpt lat="45.56919469890334" lon="10.12483976236116"><ele>145.0</ele><time>2026-03-15T16:58:21Z</time></trkpt><trkpt lat="45.568985838889375" lon="10.124935454815216"><ele>145.0</ele><time>2026-03-15T16:58:22Z</time></trkpt><trkpt lat="45.56876385192739" lon="10.125032724719178"><ele>143.5</ele><time>2026-03-15T16:58:23Z</time></trkpt><trkpt lat="45.56853894674773" lon="10.125127150544559"><ele>142.0</ele><time>2026-03-15T16:58:24Z</time></trkpt><trkpt lat="45.56830794337365" lon="10.12522034652675"><ele>142.0</ele><time>2026-03-15T16:58:25Z</time></trkpt><trkpt lat="45.56807280797315" lon="10.125308797473622"><ele>142.0</ele><time>2026-03-15T16:58:26Z</time></trkpt><trkpt lat="45.56783076691557" lon="10.125390644587839"><ele>141.5</ele><time>2026-03-15T16:58:27Z</time></trkpt><trkpt lat="45.567589862165306" lon="10.12545983127954"><ele>141.0</ele><time>2026-03-15T16:58:28Z</time></trkpt><trkpt lat="45.56735260822176" lon="10.125517222367135"><ele>141.0</ele><time>2026-03-15T16:58:29Z</time></trkpt><trkpt lat="45.56711972504669" lon="10.125571389606131"><ele>141.0</ele><time>2026-03-15T16:58:30Z</time></trkpt><trkpt lat="45.56688833150269" lon="10.125635587314394"><ele>141.0</ele><time>2026-03-15T16:58:31Z</time></trkpt><trkpt lat="45.56666555565701" lon="10.125708296498283"><ele>141.0</ele><time>2026-03-15T16:58:32Z</time></trkpt><trkpt lat="45.566443030608184" lon="10.125789543612836"><ele>141.0</ele><time>2026-03-15T16:58:33Z</time></trkpt><trkpt lat="45.56622512441948" lon="10.125869097816636"><ele>141.0</ele><time>2026-03-15T16:58:34Z</time></trkpt><trkpt lat="45.56601138390956" lon="10.125942273243679"><ele>141.0</ele><time>2026-03-15T16:58:35Z</time></trkpt><trkpt lat="45.56578753052007" lon="10.126010835559336"><ele>141.0</ele><time>2026-03-15T16:58:36Z</time></trkpt><trkpt lat="45.565555670702985" lon="10.126079229766503"><ele>141.0</ele><time>2026-03-15T16:58:37Z</time></trkpt><trkpt lat="45.56532256935945" lon="10.126144576997625"><ele>140.0</ele><time>2026-03-15T16:58:38Z</time></trkpt><trkpt lat="45.5650810149792" lon="10.126211776337124"><ele>139.0</ele><time>2026-03-15T16:58:39Z</time></trkpt><trkpt lat="45.56485177963579" lon="10.126280423224467"><ele>139.0</ele><time>2026-03-15T16:58:40Z</time></trkpt><trkpt lat="45.564614407006985" lon="10.126351940481516"><ele>139.0</ele><time>2026-03-15T16:58:41Z</time></trkpt><trkpt lat="45.56439075209306" lon="10.126424618889638"><ele>139.0</ele><time>2026-03-15T16:58:42Z</time></trkpt><trkpt lat="45.564167938559976" lon="10.126496018209716"><ele>139.0</ele><time>2026-03-15T16:58:43Z</time></trkpt><trkpt lat="45.56394623994577" lon="10.12656530146482"><ele>139.0</ele><time>2026-03-15T16:58:44Z</time></trkpt><trkpt lat="45.56372325184188" lon="10.126633355190776"><ele>139.0</ele><time>2026-03-15T16:58:45Z</time></trkpt><trkpt lat="45.563505645216175" lon="10.126698924920893"><ele>138.5</ele><time>2026-03-15T16:58:46Z</time></trkpt><trkpt lat="45.563285580213574" lon="10.126765906017129"><ele>138.0</ele><time>2026-03-15T16:58:47Z</time></trkpt><trkpt lat="45.563058946087615" lon="10.126839246611016"><ele>138.0</ele><time>2026-03-15T16:58:48Z</time></trkpt><trkpt lat="45.56284643970765" lon="10.126909320425044"><ele>138.0</ele><time>2026-03-15T16:58:49Z</time></trkpt><trkpt lat="45.562624675219254" lon="10.126983220772496"><ele>138.0</ele><time>2026-03-15T16:58:50Z</time></trkpt><trkpt lat="45.56239937683981" lon="10.12705852471363"><ele>138.0</ele><time>2026-03-15T16:58:51Z</time></trkpt><trkpt lat="45.56218019545814" lon="10.127128760188002"><ele>138.0</ele><time>2026-03-15T16:58:52Z</time></trkpt><trkpt lat="45.56196147424826" lon="10.12719692022612"><ele>138.0</ele><time>2026-03-15T16:58:52.999Z</time></trkpt><trkpt lat="45.56173825775617" lon="10.127265706556848"><ele>137.5</ele><time>2026-03-15T16:58:53.999Z</time></trkpt><trkpt lat="45.561524784634905" lon="10.127335188168816"><ele>137.0</ele><time>2026-03-15T16:58:54.999Z</time></trkpt><trkpt lat="45.56129964395207" lon="10.12740820172387"><ele>137.5</ele><time>2026-03-15T16:58:55.999Z</time></trkpt><trkpt lat="45.56107865728824" lon="10.127481352483807"><ele>138.0</ele><time>2026-03-15T16:58:56.999Z</time></trkpt><trkpt lat="45.56085914541956" lon="10.12755782434604"><ele>138.0</ele><time>2026-03-15T16:58:57.999Z</time></trkpt><trkpt lat="45.560636931586075" lon="10.127628687421126"><ele>138.0</ele><time>2026-03-15T16:58:58.999Z</time></trkpt><trkpt lat="45.56041079890052" lon="10.12769318244734"><ele>137.5</ele><time>2026-03-15T16:58:59.999Z</time></trkpt><trkpt lat="45.560182457056314" lon="10.127752110788425"><ele>137.0</ele><time>2026-03-15T16:59:00.999Z</time></trkpt><trkpt lat="45.559951107182144" lon="10.127809776635825"><ele>137.0</ele><time>2026-03-15T16:59:01.999Z</time></trkpt><trkpt lat="45.55972751499977" lon="10.12786014654041"><ele>137.0</ele><time>2026-03-15T16:59:02.999Z</time></trkpt><trkpt lat="45.559509943977034" lon="10.127904941537047"><ele>137.0</ele><time>2026-03-15T16:59:03.999Z</time></trkpt><trkpt lat="45.55930608207202" lon="10.127948875848327"><ele>137.0</ele><time>2026-03-15T16:59:04.999Z</time></trkpt><trkpt lat="45.55910833665905" lon="10.127990900251067"><ele>137.0</ele><time>2026-03-15T16:59:05.999Z</time></trkpt><trkpt lat="45.55891082656617" lon="10.128030728584042"><ele>137.0</ele><time>2026-03-15T16:59:06.999Z</time></trkpt><trkpt lat="45.558703971131315" lon="10.128073761301494"><ele>136.66666666666666</ele><time>2026-03-15T16:59:07.999Z</time></trkpt><trkpt lat="45.55850190717869" lon="10.12811368587578"><ele>136.33333333333334</ele><time>2026-03-15T16:59:08.999Z</time></trkpt><trkpt lat="45.55829796884497" lon="10.128154460279482"><ele>136.0</ele><time>2026-03-15T16:59:09.999Z</time></trkpt><trkpt lat="45.558090775344205" lon="10.128198463756107"><ele>136.0</ele><time>2026-03-15T16:59:10.999Z</time></trkpt><trkpt lat="45.55789294636151" lon="10.128240310906639"><ele>136.0</ele><time>2026-03-15T16:59:11.999Z</time></trkpt><trkpt lat="45.55768503080541" lon="10.128285174970454"><ele>136.0</ele><time>2026-03-15T16:59:12.999Z</time></trkpt><trkpt lat="45.55747555714579" lon="10.12832820067302"><ele>135.33333333333334</ele><time>2026-03-15T16:59:13.999Z</time></trkpt><trkpt lat="45.55726608450052" lon="10.12837220802779"><ele>134.66666666666666</ele><time>2026-03-15T16:59:14.999Z</time></trkpt><trkpt lat="45.55705929694182" lon="10.128413848332956"><ele>134.0</ele><time>2026-03-15T16:59:15.999Z</time></trkpt><trkpt lat="45.556850340343104" lon="10.128457468473918"><ele>133.66666666666666</ele><time>2026-03-15T16:59:16.999Z</time></trkpt><trkpt lat="45.55664548509669" lon="10.128499182215643"><ele>133.33333333333334</ele><time>2026-03-15T16:59:17.999Z</time></trkpt><trkpt lat="45.55644526917795" lon="10.128537640048512"><ele>133.0</ele><time>2026-03-15T16:59:18.999Z</time></trkpt><trkpt lat="45.55624444541113" lon="10.128579140148231"><ele>133.0</ele><time>2026-03-15T16:59:19.999Z</time></trkpt><trkpt lat="45.55605389764895" lon="10.128624494794307"><ele>133.0</ele><time>2026-03-15T16:59:20.999Z</time></trkpt><trkpt lat="45.55588585715092" lon="10.128664436754134"><ele>133.0</ele><time>2026-03-15T16:59:21.999Z</time></trkpt><trkpt lat="45.55572585758231" lon="10.128696613823847"><ele>133.0</ele><time>2026-03-15T16:59:22.999Z</time></trkpt><trkpt lat="45.5555736364619" lon="10.128725389207728"><ele>133.0</ele><time>2026-03-15T16:59:23.999Z</time></trkpt><trkpt lat="45.5554270273299" lon="10.128752635579321"><ele>133.0</ele><time>2026-03-15T16:59:24.999Z</time></trkpt><trkpt lat="45.55528209981432" lon="10.128775319186612"><ele>133.0</ele><time>2026-03-15T16:59:25.999Z</time></trkpt><trkpt lat="45.55514680885101" lon="10.128793099894546"><ele>132.75</ele><time>2026-03-15T16:59:26.999Z</time></trkpt><trkpt lat="45.55501970667623" lon="10.128807054653365"><ele>132.5</ele><time>2026-03-15T16:59:27.999Z</time></trkpt><trkpt lat="45.55488329282412" lon="10.128816480859658"><ele>132.25</ele><time>2026-03-15T16:59:28.999Z</time></trkpt><trkpt lat="45.55472074874213" lon="10.12882078531763"><ele>132.0</ele><time>2026-03-15T16:59:29.999Z</time></trkpt><trkpt lat="45.554526102419146" lon="10.128813381646415"><ele>131.66666666666666</ele><time>2026-03-15T16:59:30.999Z</time></trkpt><trkpt lat="45.55430702285883" lon="10.128791617463841"><ele>131.33333333333331</ele><time>2026-03-15T16:59:31.999Z</time></trkpt><trkpt lat="45.55409599972432" lon="10.128760076611734"><ele>131.0</ele><time>2026-03-15T16:59:32.999Z</time></trkpt><trkpt lat="45.553906580496246" lon="10.128716728206994"><ele>131.0</ele><time>2026-03-15T16:59:33.999Z</time></trkpt><trkpt lat="45.55373375511741" lon="10.12867454288907"><ele>131.0</ele><time>2026-03-15T16:59:34.999Z</time></trkpt><trkpt lat="45.55354929701618" lon="10.12863066793823"><ele>131.0</ele><time>2026-03-15T16:59:35.998Z</time></trkpt><trkpt lat="45.55336094097741" lon="10.128582011396475"><ele>131.0</ele><time>2026-03-15T16:59:36.998Z</time></trkpt><trkpt lat="45.55317292702515" lon="10.12853338643139"><ele>131.0</ele><time>2026-03-15T16:59:37.998Z</time></trkpt><trkpt lat="45.5529780309844" lon="10.12848599319328"><ele>131.0</ele><time>2026-03-15T16:59:38.998Z</time></trkpt><trkpt lat="45.55278364204953" lon="10.128439580094307"><ele>131.33333333333331</ele><time>2026-03-15T16:59:39.998Z</time></trkpt><trkpt lat="45.55258703320169" lon="10.12839221189279"><ele>131.66666666666666</ele><time>2026-03-15T16:59:40.998Z</time></trkpt><trkpt lat="45.55238787191043" lon="10.128345870482573"><ele>132.0</ele><time>2026-03-15T16:59:41.998Z</time></trkpt><trkpt lat="45.55219180654057" lon="10.128309607826399"><ele>131.66666666666666</ele><time>2026-03-15T16:59:42.998Z</time></trkpt><trkpt lat="45.55199351201784" lon="10.128300059272721"><ele>131.33333333333331</ele><time>2026-03-15T16:59:43.998Z</time></trkpt><trkpt lat="45.55179527866832" lon="10.128334636061211"><ele>131.0</ele><time>2026-03-15T16:59:44.998Z</time></trkpt><trkpt lat="45.55160707589666" lon="10.128400825610978"><ele>131.0</ele><time>2026-03-15T16:59:45.998Z</time></trkpt><trkpt lat="45.55142187948678" lon="10.1284959059271"><ele>131.0</ele><time>2026-03-15T16:59:46.998Z</time></trkpt><trkpt lat="45.55124949788511" lon="10.128619231087345"><ele>131.0</ele><time>2026-03-15T16:59:47.998Z</time></trkpt><trkpt lat="45.551087185803304" lon="10.128780354731328"><ele>131.0</ele><time>2026-03-15T16:59:48.998Z</time></trkpt><trkpt lat="45.550937171252976" lon="10.128974492853827"><ele>131.0</ele><time>2026-03-15T16:59:49.998Z</time></trkpt><trkpt lat="45.55080275223503" lon="10.129187391383828"><ele>131.0</ele><time>2026-03-15T16:59:50.998Z</time></trkpt><trkpt lat="45.55068064660108" lon="10.129408764135778"><ele>131.0</ele><time>2026-03-15T16:59:51.998Z</time></trkpt><trkpt lat="45.55055522808456" lon="10.12962807372126"><ele>131.0</ele><time>2026-03-15T16:59:52.998Z</time></trkpt><trkpt lat="45.55043204199772" lon="10.129833226975276"><ele>131.0</ele><time>2026-03-15T16:59:53.998Z</time></trkpt><trkpt lat="45.550317910014094" lon="10.130024838085463"><ele>131.0</ele><time>2026-03-15T16:59:54.998Z</time></trkpt><trkpt lat="45.55019884943347" lon="10.1302262077954"><ele>131.0</ele><time>2026-03-15T16:59:55.998Z</time></trkpt><trkpt lat="45.55007033697002" lon="10.130432000338496"><ele>131.0</ele><time>2026-03-15T16:59:56.998Z</time></trkpt><trkpt lat="45.54994197012201" lon="10.130624164017991"><ele>131.33333333333331</ele><time>2026-03-15T16:59:57.998Z</time></trkpt><trkpt lat="45.54980460442794" lon="10.13081632232585"><ele>131.66666666666666</ele><time>2026-03-15T16:59:58.998Z</time></trkpt><trkpt lat="45.54965590662084" lon="10.131006262648793"><ele>132.0</ele><time>2026-03-15T16:59:59.998Z</time></trkpt><trkpt lat="45.549500847922815" lon="10.131181459083386"><ele>131.66666666666666</ele><time>2026-03-15T17:00:00.998Z</time></trkpt><trkpt lat="45.549333665793924" lon="10.131344408496442"><ele>131.33333333333331</ele><time>2026-03-15T17:00:01.998Z</time></trkpt><trkpt lat="45.54916941768769" lon="10.131479307809489"><ele>131.0</ele><time>2026-03-15T17:00:02.998Z</time></trkpt><trkpt lat="45.5490181281006" lon="10.131584142751036"><ele>131.0</ele><time>2026-03-15T17:00:03.998Z</time></trkpt><trkpt lat="45.54887500846581" lon="10.131680223836762"><ele>131.0</ele><time>2026-03-15T17:00:04.998Z</time></trkpt><trkpt lat="45.54874479259273" lon="10.131769791732005"><ele>131.0</ele><time>2026-03-15T17:00:05.998Z</time></trkpt><trkpt lat="45.548615533812544" lon="10.131823168949463"><ele>131.0</ele><time>2026-03-15T17:00:06.998Z</time></trkpt><trkpt lat="45.5484799581465" lon="10.131820668074491"><ele>130.5</ele><time>2026-03-15T17:00:07.998Z</time></trkpt><trkpt lat="45.548339125935215" lon="10.131765245227076"><ele>130.0</ele><time>2026-03-15T17:00:08.998Z</time></trkpt><trkpt lat="45.5482114829649" lon="10.131652239382388"><ele>129.5</ele><time>2026-03-15T17:00:09.998Z</time></trkpt><trkpt lat="45.54811497365713" lon="10.131496048617857"><ele>129.0</ele><time>2026-03-15T17:00:10.998Z</time></trkpt><trkpt lat="45.54804934863313" lon="10.131292264780955"><ele>129.0</ele><time>2026-03-15T17:00:11.998Z</time></trkpt><trkpt lat="45.54801881058538" lon="10.131037921171208"><ele>129.0</ele><time>2026-03-15T17:00:12.998Z</time></trkpt><trkpt lat="45.54802893647438" lon="10.13073656363062"><ele>129.0</ele><time>2026-03-15T17:00:13.998Z</time></trkpt><trkpt lat="45.54807021061137" lon="10.130437305443044"><ele>128.66666666666666</ele><time>2026-03-15T17:00:14.998Z</time></trkpt><trkpt lat="45.54809997181286" lon="10.130132723419067"><ele>128.33333333333331</ele><time>2026-03-15T17:00:15.998Z</time></trkpt><trkpt lat="45.548113822788864" lon="10.12983632573684"><ele>128.0</ele><time>2026-03-15T17:00:16.998Z</time></trkpt><trkpt lat="45.548122015605514" lon="10.129531840636481"><ele>128.0</ele><time>2026-03-15T17:00:17.997Z</time></trkpt><trkpt lat="45.54812571469494" lon="10.129230902486938"><ele>128.0</ele><time>2026-03-15T17:00:18.997Z</time></trkpt><trkpt lat="45.54812331863962" lon="10.12892249484004"><ele>128.0</ele><time>2026-03-15T17:00:19.997Z</time></trkpt><trkpt lat="45.54810449338333" lon="10.128624212529106"><ele>128.0</ele><time>2026-03-15T17:00:20.997Z</time></trkpt><trkpt lat="45.5480970008681" lon="10.128348134863248"><ele>128.0</ele><time>2026-03-15T17:00:21.997Z</time></trkpt><trkpt lat="45.548101222477136" lon="10.128072823437655"><ele>128.0</ele><time>2026-03-15T17:00:22.997Z</time></trkpt><trkpt lat="45.54810122247692" lon="10.127773809984907"><ele>128.5</ele><time>2026-03-15T17:00:24Z</time></trkpt><trkpt lat="45.5480987900071" lon="10.127451135736228"><ele>129.0</ele><time>2026-03-15T17:00:25Z</time></trkpt><trkpt lat="45.5480961204394" lon="10.12711531156552"><ele>129.0</ele><time>2026-03-15T17:00:26Z</time></trkpt><trkpt lat="45.54807352350468" lon="10.12681044473328"><ele>129.0</ele><time>2026-03-15T17:00:27Z</time></trkpt><trkpt lat="45.54805749790383" lon="10.126523284805497"><ele>129.0</ele><time>2026-03-15T17:00:28Z</time></trkpt><trkpt lat="45.54804808835084" lon="10.126257873557394"><ele>129.0</ele><time>2026-03-15T17:00:29Z</time></trkpt><trkpt lat="45.54804116585582" lon="10.126006633428421"><ele>129.0</ele><time>2026-03-15T17:00:30Z</time></trkpt><trkpt lat="45.54803493759016" lon="10.12576138392434"><ele>129.0</ele><time>2026-03-15T17:00:31Z</time></trkpt><trkpt lat="45.54802671929557" lon="10.125524734408664"><ele>129.0</ele><time>2026-03-15T17:00:32Z</time></trkpt><trkpt lat="45.548015283131264" lon="10.125284268754987"><ele>129.0</ele><time>2026-03-15T17:00:33Z</time></trkpt><trkpt lat="45.548000358559285" lon="10.12503755197574"><ele>129.0</ele><time>2026-03-15T17:00:34Z</time></trkpt><trkpt lat="45.54798502498215" lon="10.124786867118893"><ele>129.0</ele><time>2026-03-15T17:00:35Z</time></trkpt><trkpt lat="45.54796829410075" lon="10.124528781725317"><ele>129.0</ele><time>2026-03-15T17:00:36Z</time></trkpt><trkpt lat="45.547950095837635" lon="10.124273972367012"><ele>129.0</ele><time>2026-03-15T17:00:37Z</time></trkpt><trkpt lat="45.5479267465535" lon="10.124009652712703"><ele>129.0</ele><time>2026-03-15T17:00:38Z</time></trkpt><trkpt lat="45.547903087897225" lon="10.12374093983663"><ele>129.0</ele><time>2026-03-15T17:00:39Z</time></trkpt><trkpt lat="45.54787807760472" lon="10.123460707111716"><ele>129.0</ele><time>2026-03-15T17:00:40Z</time></trkpt><trkpt lat="45.54784903671995" lon="10.12318748802696"><ele>129.0</ele><time>2026-03-15T17:00:41Z</time></trkpt><trkpt lat="45.54781739258206" lon="10.122901954552333"><ele>129.0</ele><time>2026-03-15T17:00:42Z</time></trkpt><trkpt lat="45.54778509313248" lon="10.122617765278685"><ele>129.0</ele><time>2026-03-15T17:00:43Z</time></trkpt><trkpt lat="45.54775332377366" lon="10.122340917667117"><ele>128.33333333333334</ele><time>2026-03-15T17:00:44Z</time></trkpt><trkpt lat="45.54772495175516" lon="10.122082306208023"><ele>127.66666666666667</ele><time>2026-03-15T17:00:45Z</time></trkpt><trkpt lat="45.54769922175481" lon="10.121839563246283"><ele>127.0</ele><time>2026-03-15T17:00:46Z</time></trkpt><trkpt lat="45.54767633240668" lon="10.121611127212994"><ele>126.66666666666667</ele><time>2026-03-15T17:00:47Z</time></trkpt><trkpt lat="45.54765359383165" lon="10.121384015526443"><ele>126.33333333333334</ele><time>2026-03-15T17:00:48Z</time></trkpt><trkpt lat="45.54762680961671" lon="10.121156104440292"><ele>126.0</ele><time>2026-03-15T17:00:49Z</time></trkpt><trkpt lat="45.54759447929704" lon="10.120925806775672"><ele>126.66666666666666</ele><time>2026-03-15T17:00:50Z</time></trkpt><trkpt lat="45.547557543689756" lon="10.120696823614058"><ele>127.33333333333333</ele><time>2026-03-15T17:00:51Z</time></trkpt><trkpt lat="45.54751205792508" lon="10.120463833335023"><ele>128.0</ele><time>2026-03-15T17:00:52Z</time></trkpt><trkpt lat="45.54746175867287" lon="10.120247504287706"><ele>128.0</ele><time>2026-03-15T17:00:53Z</time></trkpt><trkpt lat="45.547403471821895" lon="10.120029174785179"><ele>128.0</ele><time>2026-03-15T17:00:54Z</time></trkpt><trkpt lat="45.547346400357725" lon="10.1198093396536"><ele>128.0</ele><time>2026-03-15T17:00:55Z</time></trkpt><trkpt lat="45.547282817997534" lon="10.11956890503987"><ele>128.66666666666666</ele><time>2026-03-15T17:00:56Z</time></trkpt><trkpt lat="45.54720863669856" lon="10.119293655015461"><ele>129.33333333333334</ele><time>2026-03-15T17:00:57Z</time></trkpt><trkpt lat="45.54714241861846" lon="10.119012161759038"><ele>130.0</ele><time>2026-03-15T17:00:58Z</time></trkpt><trkpt lat="45.54709135138074" lon="10.118758136264686"><ele>129.75</ele><time>2026-03-15T17:00:59Z</time></trkpt><trkpt lat="45.54704604729641" lon="10.118525835520101"><ele>129.5</ele><time>2026-03-15T17:01:00Z</time></trkpt><trkpt lat="45.54699156135648" lon="10.118347780888236"><ele>129.25</ele><time>2026-03-15T17:01:01Z</time></trkpt><trkpt lat="45.546966530294874" lon="10.118214860284317"><ele>129.0</ele><time>2026-03-15T17:01:02Z</time></trkpt><trkpt lat="45.54690199133318" lon="10.117989768695343"><ele>129.0</ele><time>2026-03-15T17:01:03Z</time></trkpt><trkpt lat="45.546845418526175" lon="10.117753408607703"><ele>129.0</ele><time>2026-03-15T17:01:04Z</time></trkpt><trkpt lat="45.54679500811818" lon="10.117518965046623"><ele>129.0</ele><time>2026-03-15T17:01:05Z</time></trkpt><trkpt lat="45.546731951485576" lon="10.117270918352641"><ele>128.33333333333334</ele><time>2026-03-15T17:01:06Z</time></trkpt><trkpt lat="45.54666386097315" lon="10.117015039248454"><ele>127.66666666666667</ele><time>2026-03-15T17:01:07Z</time></trkpt><trkpt lat="45.54659822665546" lon="10.116753164525527"><ele>127.0</ele><time>2026-03-15T17:01:08Z</time></trkpt><trkpt lat="45.54653677949435" lon="10.116504128972796"><ele>127.0</ele><time>2026-03-15T17:01:09Z</time></trkpt><trkpt lat="45.54647843558629" lon="10.116282738041845"><ele>127.0</ele><time>2026-03-15T17:01:10Z</time></trkpt><trkpt lat="45.54642009644274" lon="10.116053000711345"><ele>127.0</ele><time>2026-03-15T17:01:11Z</time></trkpt><trkpt lat="45.54636114585199" lon="10.11581022479537"><ele>127.0</ele><time>2026-03-15T17:01:11.999Z</time></trkpt><trkpt lat="45.546304474251656" lon="10.115578621897232"><ele>127.0</ele><time>2026-03-15T17:01:12.999Z</time></trkpt><trkpt lat="45.54624813977496" lon="10.115358085063919"><ele>127.0</ele><time>2026-03-15T17:01:13.999Z</time></trkpt><trkpt lat="45.54619232675045" lon="10.115149211272959"><ele>127.0</ele><time>2026-03-15T17:01:14.999Z</time></trkpt><trkpt lat="45.54613247895619" lon="10.11492609162403"><ele>127.0</ele><time>2026-03-15T17:01:15.999Z</time></trkpt><trkpt lat="45.54607579227688" lon="10.114705660024303"><ele>127.0</ele><time>2026-03-15T17:01:16.999Z</time></trkpt><trkpt lat="45.54601007047151" lon="10.11446712636805"><ele>127.0</ele><time>2026-03-15T17:01:17.999Z</time></trkpt><trkpt lat="45.54593110582617" lon="10.114234336489261"><ele>127.0</ele><time>2026-03-15T17:01:18.999Z</time></trkpt><trkpt lat="45.54584745524382" lon="10.11400603135431"><ele>127.0</ele><time>2026-03-15T17:01:19.999Z</time></trkpt><trkpt lat="45.54575522247755" lon="10.113778894067051"><ele>127.0</ele><time>2026-03-15T17:01:20.999Z</time></trkpt><trkpt lat="45.54564561878818" lon="10.113556298756343"><ele>127.0</ele><time>2026-03-15T17:01:21.999Z</time></trkpt><trkpt lat="45.54552825424009" lon="10.113352819443797"><ele>127.0</ele><time>2026-03-15T17:01:22.999Z</time></trkpt><trkpt lat="45.545399377502704" lon="10.113151096834871"><ele>127.33333333333334</ele><time>2026-03-15T17:01:23.999Z</time></trkpt><trkpt lat="45.54526595228296" lon="10.112953999120505"><ele>127.66666666666666</ele><time>2026-03-15T17:01:24.999Z</time></trkpt><trkpt lat="45.54513022355178" lon="10.112759489490024"><ele>128.0</ele><time>2026-03-15T17:01:25.999Z</time></trkpt><trkpt lat="45.54499125124063" lon="10.112556401808842"><ele>128.33333333333331</ele><time>2026-03-15T17:01:26.999Z</time></trkpt><trkpt lat="45.54485092279709" lon="10.112350166236736"><ele>128.66666666666666</ele><time>2026-03-15T17:01:27.999Z</time></trkpt><trkpt lat="45.544716222397206" lon="10.112147687388019"><ele>129.0</ele><time>2026-03-15T17:01:28.999Z</time></trkpt><trkpt lat="45.544581992365174" lon="10.111935520285043"><ele>129.0</ele><time>2026-03-15T17:01:29.999Z</time></trkpt><trkpt lat="45.54445829858764" lon="10.111720556947166"><ele>129.0</ele><time>2026-03-15T17:01:30.999Z</time></trkpt><trkpt lat="45.544342840354844" lon="10.111499844679885"><ele>129.0</ele><time>2026-03-15T17:01:31.999Z</time></trkpt><trkpt lat="45.54423504739448" lon="10.111276781847867"><ele>129.0</ele><time>2026-03-15T17:01:32.999Z</time></trkpt><trkpt lat="45.544130401878945" lon="10.1110462373115"><ele>129.0</ele><time>2026-03-15T17:01:33.999Z</time></trkpt><trkpt lat="45.54402585163899" lon="10.110817491796087"><ele>129.0</ele><time>2026-03-15T17:01:34.999Z</time></trkpt><trkpt lat="45.54392016744493" lon="10.110593214803343"><ele>129.0</ele><time>2026-03-15T17:01:35.999Z</time></trkpt><trkpt lat="45.54381590363712" lon="10.110367784495086"><ele>129.0</ele><time>2026-03-15T17:01:36.999Z</time></trkpt><trkpt lat="45.543713250271644" lon="10.11014011572397"><ele>129.0</ele><time>2026-03-15T17:01:37.999Z</time></trkpt><trkpt lat="45.543614098385845" lon="10.10991577031493"><ele>128.66666666666666</ele><time>2026-03-15T17:01:38.999Z</time></trkpt><trkpt lat="45.54351882708645" lon="10.109699579727236"><ele>128.33333333333331</ele><time>2026-03-15T17:01:39.999Z</time></trkpt><trkpt lat="45.54343303139844" lon="10.10950348182279"><ele>128.0</ele><time>2026-03-15T17:01:40.999Z</time></trkpt><trkpt lat="45.54335529520937" lon="10.109327267371128"><ele>128.0</ele><time>2026-03-15T17:01:41.999Z</time></trkpt><trkpt lat="45.54329712564598" lon="10.109183068280547"><ele>128.0</ele><time>2026-03-15T17:01:42.999Z</time></trkpt><trkpt lat="45.543268825186544" lon="10.109075097722506"><ele>128.0</ele><time>2026-03-15T17:01:43.999Z</time></trkpt><trkpt lat="45.54326390386375" lon="10.108958507530426"><ele>128.0</ele><time>2026-03-15T17:01:44.999Z</time></trkpt><trkpt lat="45.54326455524622" lon="10.108782593635969"><ele>128.0</ele><time>2026-03-15T17:01:45.999Z</time></trkpt><trkpt lat="45.543251199166406" lon="10.108575301972778"><ele>128.0</ele><time>2026-03-15T17:01:46.999Z</time></trkpt><trkpt lat="45.543194986798554" lon="10.108398322158202"><ele>128.0</ele><time>2026-03-15T17:01:47.999Z</time></trkpt><trkpt lat="45.54309872268069" lon="10.108259204764494"><ele>128.0</ele><time>2026-03-15T17:01:48.999Z</time></trkpt><trkpt lat="45.542981001514065" lon="10.108169983415106"><ele>128.0</ele><time>2026-03-15T17:01:49.999Z</time></trkpt><trkpt lat="45.54286828539743" lon="10.108110838965162"><ele>128.25</ele><time>2026-03-15T17:01:50.999Z</time></trkpt><trkpt lat="45.54274983587305" lon="10.10817439229953"><ele>128.5</ele><time>2026-03-15T17:01:51.999Z</time></trkpt><trkpt lat="45.54262919938118" lon="10.10825855749214"><ele>128.75</ele><time>2026-03-15T17:01:52.999Z</time></trkpt><trkpt lat="45.54251761311243" lon="10.108377636126402"><ele>129.0</ele><time>2026-03-15T17:01:53.999Z</time></trkpt><trkpt lat="45.54246095999972" lon="10.10854760066981"><ele>129.0</ele><time>2026-03-15T17:01:54.998Z</time></trkpt><trkpt lat="45.54243901072689" lon="10.108770197479416"><ele>129.0</ele><time>2026-03-15T17:01:55.998Z</time></trkpt><trkpt lat="45.54228630113689" lon="10.10889898930662"><ele>129.0</ele><time>2026-03-15T17:01:56.998Z</time></trkpt><trkpt lat="45.542226778124004" lon="10.109096992179198"><ele>129.0</ele><time>2026-03-15T17:01:57.998Z</time></trkpt><trkpt lat="45.54212909739133" lon="10.109331247484752"><ele>129.0</ele><time>2026-03-15T17:01:58.998Z</time></trkpt><trkpt lat="45.542036188849615" lon="10.109571753032721"><ele>129.0</ele><time>2026-03-15T17:01:59.998Z</time></trkpt><trkpt lat="45.54194991356083" lon="10.109803598648423"><ele>128.66666666666666</ele><time>2026-03-15T17:02:00.998Z</time></trkpt><trkpt lat="45.54186548325109" lon="10.110019436821505"><ele>128.33333333333331</ele><time>2026-03-15T17:02:01.998Z</time></trkpt><trkpt lat="45.54178103971447" lon="10.110210417738903"><ele>128.0</ele><time>2026-03-15T17:02:02.998Z</time></trkpt><trkpt lat="45.5416723523861" lon="10.110384732462474"><ele>128.0</ele><time>2026-03-15T17:02:03.998Z</time></trkpt><trkpt lat="45.54153897198947" lon="10.110554759187352"><ele>128.0</ele><time>2026-03-15T17:02:04.998Z</time></trkpt><trkpt lat="45.54139368578171" lon="10.11070099115658"><ele>128.0</ele><time>2026-03-15T17:02:05.998Z</time></trkpt><trkpt lat="45.54122832104037" lon="10.11081709369301"><ele>127.66666666666666</ele><time>2026-03-15T17:02:06.998Z</time></trkpt><trkpt lat="45.54104512904253" lon="10.11090769141334"><ele>127.33333333333334</ele><time>2026-03-15T17:02:07.998Z</time></trkpt><trkpt lat="45.54085035975652" lon="10.110957927765226"><ele>127.0</ele><time>2026-03-15T17:02:08.998Z</time></trkpt><trkpt lat="45.54064542871692" lon="10.110959660801598"><ele>127.0</ele><time>2026-03-15T17:02:09.998Z</time></trkpt><trkpt lat="45.540439094322394" lon="10.110913224134888"><ele>127.0</ele><time>2026-03-15T17:02:10.998Z</time></trkpt><trkpt lat="45.54022902679241" lon="10.110862208538208"><ele>127.0</ele><time>2026-03-15T17:02:11.998Z</time></trkpt><trkpt lat="45.54002215139564" lon="10.110829410343557"><ele>126.66666666666667</ele><time>2026-03-15T17:02:12.998Z</time></trkpt><trkpt lat="45.53982343682816" lon="10.110777794311952"><ele>126.33333333333334</ele><time>2026-03-15T17:02:13.998Z</time></trkpt><trkpt lat="45.53962784610141" lon="10.110729530076913"><ele>126.0</ele><time>2026-03-15T17:02:14.998Z</time></trkpt><trkpt lat="45.53942660715809" lon="10.1106789785726"><ele>126.0</ele><time>2026-03-15T17:02:15.998Z</time></trkpt><trkpt lat="45.53922854919831" lon="10.110629835332777"><ele>126.0</ele><time>2026-03-15T17:02:16.998Z</time></trkpt><trkpt lat="45.53903144251352" lon="10.110582423347925"><ele>126.0</ele><time>2026-03-15T17:02:17.998Z</time></trkpt><trkpt lat="45.5388352257322" lon="10.11053560841087"><ele>125.66666666666666</ele><time>2026-03-15T17:02:18.998Z</time></trkpt><trkpt lat="45.53864022037718" lon="10.110488868423731"><ele>125.33333333333333</ele><time>2026-03-15T17:02:19.997Z</time></trkpt><trkpt lat="45.538443360607786" lon="10.110442727299278"><ele>125.0</ele><time>2026-03-15T17:02:20.997Z</time></trkpt><trkpt lat="45.538248693109615" lon="10.110404327259351"><ele>125.0</ele><time>2026-03-15T17:02:21.997Z</time></trkpt><trkpt lat="45.53805462547571" lon="10.110365444985927"><ele>125.0</ele><time>2026-03-15T17:02:22.997Z</time></trkpt><trkpt lat="45.537856202075965" lon="10.110304841649008"><ele>125.0</ele><time>2026-03-15T17:02:23.997Z</time></trkpt><trkpt lat="45.537659391070726" lon="10.110265924184905"><ele>125.0</ele><time>2026-03-15T17:02:24.997Z</time></trkpt><trkpt lat="45.53746791310788" lon="10.110228060370886"><ele>125.0</ele><time>2026-03-15T17:02:25.997Z</time></trkpt><trkpt lat="45.537298360548" lon="10.110214443595286"><ele>125.0</ele><time>2026-03-15T17:02:26.997Z</time></trkpt><trkpt lat="45.53714066441778" lon="10.110172757892434"><ele>124.66666666666666</ele><time>2026-03-15T17:02:27.997Z</time></trkpt><trkpt lat="45.53699812513478" lon="10.110133896159638"><ele>124.33333333333334</ele><time>2026-03-15T17:02:28.997Z</time></trkpt><trkpt lat="45.53685405705748" lon="10.110080937448156"><ele>124.0</ele><time>2026-03-15T17:02:30Z</time></trkpt><trkpt lat="45.53671150239483" lon="10.109978767016502"><ele>124.66666666666667</ele><time>2026-03-15T17:02:31Z</time></trkpt><trkpt lat="45.53655860253303" lon="10.109880150791424"><ele>125.33333333333334</ele><time>2026-03-15T17:02:32Z</time></trkpt><trkpt lat="45.536399332352765" lon="10.109775278260587"><ele>126.0</ele><time>2026-03-15T17:02:33Z</time></trkpt><trkpt lat="45.53623977270721" lon="10.109670215123545"><ele>125.5</ele><time>2026-03-15T17:02:34Z</time></trkpt><trkpt lat="45.536111282108415" lon="10.109605294295848"><ele>125.0</ele><time>2026-03-15T17:02:35Z</time></trkpt><trkpt lat="45.53602518202462" lon="10.10954843498409"><ele>124.5</ele><time>2026-03-15T17:02:36Z</time></trkpt><trkpt lat="45.53596448327996" lon="10.109441898823373"><ele>124.0</ele><time>2026-03-15T17:02:38Z</time></trkpt><trkpt lat="45.535991033390744" lon="10.1092227103568"><ele>124.0</ele><time>2026-03-15T17:02:40Z</time></trkpt><trkpt lat="45.536019568541676" lon="10.109010077120335"><ele>124.0</ele><time>2026-03-15T17:02:41Z</time></trkpt><trkpt lat="45.53604178286447" lon="10.108756391648429"><ele>124.0</ele><time>2026-03-15T17:02:42Z</time></trkpt><trkpt lat="45.53606304584634" lon="10.108482497993545"><ele>124.0</ele><time>2026-03-15T17:02:43Z</time></trkpt><trkpt lat="45.53607797532476" lon="10.108237444680604"><ele>124.0</ele><time>2026-03-15T17:02:44Z</time></trkpt><trkpt lat="45.53609114751512" lon="10.108034301399108"><ele>124.0</ele><time>2026-03-15T17:02:45Z</time></trkpt><trkpt lat="45.53610163356424" lon="10.107855990531682"><ele>124.0</ele><time>2026-03-15T17:02:46Z</time></trkpt><trkpt lat="45.53610719700394" lon="10.10770031049036"><ele>124.0</ele><time>2026-03-15T17:02:47Z</time></trkpt><trkpt lat="45.53612539352276" lon="10.107575400016392"><ele>124.0</ele><time>2026-03-15T17:02:47.999Z</time></trkpt><trkpt lat="45.53613351316818" lon="10.107466498527977"><ele>124.0</ele><time>2026-03-15T17:02:48.999Z</time></trkpt><trkpt lat="45.53614595017245" lon="10.107321406773904"><ele>124.0</ele><time>2026-03-15T17:02:50.999Z</time></trkpt><trkpt lat="45.536124129473784" lon="10.107166274886119"><ele>124.0</ele><time>2026-03-15T17:03:40.998Z</time></trkpt><trkpt lat="45.53610781483763" lon="10.107658065333283"><ele>124.0</ele><time>2026-03-15T17:03:41.998Z</time></trkpt><trkpt lat="45.536104366099146" lon="10.107860224798626"><ele>124.0</ele><time>2026-03-15T17:03:42.998Z</time></trkpt><trkpt lat="45.53608790850085" lon="10.108096555679108"><ele>124.0</ele><time>2026-03-15T17:03:43.998Z</time></trkpt><trkpt lat="45.536072365836425" lon="10.10832207481872"><ele>124.0</ele><time>2026-03-15T17:03:44.998Z</time></trkpt><trkpt lat="45.53605840461313" lon="10.108513630713698"><ele>124.0</ele><time>2026-03-15T17:03:45.998Z</time></trkpt><trkpt lat="45.53604231127556" lon="10.108690799740542"><ele>124.0</ele><time>2026-03-15T17:03:46.998Z</time></trkpt><trkpt lat="45.53599854396581" lon="10.108850825591004"><ele>124.0</ele><time>2026-03-15T17:03:47.998Z</time></trkpt><trkpt lat="45.535984553100526" lon="10.109009197539825"><ele>124.0</ele><time>2026-03-15T17:03:48.998Z</time></trkpt><trkpt lat="45.535972002849064" lon="10.109137365231495"><ele>124.0</ele><time>2026-03-15T17:03:49.998Z</time></trkpt><trkpt lat="45.535956315314266" lon="10.109279652654083"><ele>124.0</ele><time>2026-03-15T17:03:51.998Z</time></trkpt><trkpt lat="45.53603682919743" lon="10.109588847257042"><ele>124.0</ele><time>2026-03-15T17:03:53.998Z</time></trkpt><trkpt lat="45.53621493532582" lon="10.109346983494213"><ele>124.33333333333334</ele><time>2026-03-15T17:03:55.998Z</time></trkpt><trkpt lat="45.53627813263279" lon="10.109400012323826"><ele>124.66666666666667</ele><time>2026-03-15T17:03:57.998Z</time></trkpt><trkpt lat="45.536351710511546" lon="10.109385722875578"><ele>125.0</ele><time>2026-03-15T17:04:01.998Z</time></trkpt><trkpt lat="45.53637307035613" lon="10.109235930248357"><ele>125.33333333333334</ele><time>2026-03-15T17:04:02.998Z</time></trkpt><trkpt lat="45.53631129499394" lon="10.109206577674058"><ele>125.66666666666667</ele><time>2026-03-15T17:04:07.998Z</time></trkpt><trkpt lat="45.53632711796259" lon="10.109301071581264"><ele>126.0</ele><time>2026-03-15T17:08:59Z</time></trkpt><trkpt lat="45.53629409585036" lon="10.109398767663702"><ele>126.0</ele><time>2026-03-15T17:13:31.999Z</time></trkpt><trkpt lat="45.536365439039514" lon="10.109468595554612"><ele>126.0</ele><time>2026-03-15T17:17:37.999Z</time></trkpt><trkpt lat="45.536424615475056" lon="10.109508697216619"><ele>126.0</ele><time>2026-03-15T17:17:38.999Z</time></trkpt><trkpt lat="45.53648180326717" lon="10.109552710748972"><ele>126.0</ele><time>2026-03-15T17:17:39.999Z</time></trkpt><trkpt lat="45.53645387425761" lon="10.109863389677868"><ele>126.0</ele><time>2026-03-15T17:17:41.999Z</time></trkpt><trkpt lat="45.53673861394792" lon="10.109634497897742"><ele>126.0</ele><time>2026-03-15T17:31:52Z</time></trkpt><trkpt lat="45.5365502400771" lon="10.109769326845074"><ele>126.0</ele><time>2026-03-15T17:31:55Z</time></trkpt><trkpt lat="45.53672998290316" lon="10.10966997884423"><ele>126.0</ele><time>2026-03-15T17:31:58Z</time></trkpt><trkpt lat="45.53648677197973" lon="10.108970542478852"><ele>126.25</ele><time>2026-03-15T17:32:23.999Z</time></trkpt><trkpt lat="45.5363833632689" lon="10.108945010828432"><ele>126.5</ele><time>2026-03-15T17:32:25.999Z</time></trkpt><trkpt lat="45.53630387296093" lon="10.108935821363266"><ele>126.75</ele><time>2026-03-15T17:32:28.999Z</time></trkpt><trkpt lat="45.536130632825675" lon="10.109212485497627"><ele>127.0</ele><time>2026-03-15T17:33:51.997Z</time></trkpt><trkpt lat="45.53603844744019" lon="10.109167488999539"><ele>126.50000000000001</ele><time>2026-03-15T17:33:54Z</time></trkpt><trkpt lat="45.53599462909432" lon="10.109252184951668"><ele>126.0</ele><time>2026-03-15T17:33:56Z</time></trkpt><trkpt lat="45.535959116172855" lon="10.109397677086305"><ele>125.5</ele><time>2026-03-15T17:33:58Z</time></trkpt><trkpt lat="45.53595205152699" lon="10.109497433602671"><ele>125.0</ele><time>2026-03-15T17:34:00Z</time></trkpt><trkpt lat="45.53599837793874" lon="10.10957259470635"><ele>124.50000000000001</ele><time>2026-03-15T17:34:01Z</time></trkpt><trkpt lat="45.53609395239355" lon="10.109642351837785"><ele>124.0</ele><time>2026-03-15T17:34:02Z</time></trkpt><trkpt lat="45.536211819551426" lon="10.109709221068634"><ele>124.0</ele><time>2026-03-15T17:34:03Z</time></trkpt><trkpt lat="45.53633218893086" lon="10.109777648519671"><ele>124.0</ele><time>2026-03-15T17:34:04Z</time></trkpt><trkpt lat="45.53643099658939" lon="10.109836049167384"><ele>124.0</ele><time>2026-03-15T17:34:05Z</time></trkpt><trkpt lat="45.536522797023224" lon="10.10989710522997"><ele>124.0</ele><time>2026-03-15T17:34:06Z</time></trkpt><trkpt lat="45.53663082600032" lon="10.109975509009342"><ele>124.0</ele><time>2026-03-15T17:34:07Z</time></trkpt><trkpt lat="45.53673856380313" lon="10.110050878607172"><ele>124.0</ele><time>2026-03-15T17:34:08Z</time></trkpt><trkpt lat="45.536851509464114" lon="10.110111277991942"><ele>124.0</ele><time>2026-03-15T17:34:09Z</time></trkpt><trkpt lat="45.53697258147131" lon="10.110160360743265"><ele>124.0</ele><time>2026-03-15T17:34:10Z</time></trkpt><trkpt lat="45.537094695544425" lon="10.11019455742199"><ele>124.25</ele><time>2026-03-15T17:34:11Z</time></trkpt><trkpt lat="45.53722160153295" lon="10.110222277136046"><ele>124.5</ele><time>2026-03-15T17:34:12Z</time></trkpt><trkpt lat="45.5373522867546" lon="10.110251523375288"><ele>124.75</ele><time>2026-03-15T17:34:13Z</time></trkpt><trkpt lat="45.53748102317906" lon="10.110278287063542"><ele>125.0</ele><time>2026-03-15T17:34:14Z</time></trkpt><trkpt lat="45.537617201944656" lon="10.110305626405353"><ele>125.0</ele><time>2026-03-15T17:34:15Z</time></trkpt><trkpt lat="45.53775704584044" lon="10.110333387974663"><ele>125.0</ele><time>2026-03-15T17:34:16Z</time></trkpt><trkpt lat="45.5378934195376" lon="10.110356941204605"><ele>125.0</ele><time>2026-03-15T17:34:17Z</time></trkpt><trkpt lat="45.53803645684754" lon="10.11038001560075"><ele>125.0</ele><time>2026-03-15T17:34:18Z</time></trkpt><trkpt lat="45.538173913273056" lon="10.110407058981624"><ele>125.0</ele><time>2026-03-15T17:34:19Z</time></trkpt><trkpt lat="45.538310939130355" lon="10.110436800484724"><ele>125.0</ele><time>2026-03-15T17:34:20Z</time></trkpt><trkpt lat="45.5384570699526" lon="10.110469435892506"><ele>125.0</ele><time>2026-03-15T17:34:21Z</time></trkpt><trkpt lat="45.53860178161943" lon="10.11050426478837"><ele>125.0</ele><time>2026-03-15T17:34:22Z</time></trkpt><trkpt lat="45.53874747935255" lon="10.110539860083875"><ele>125.25</ele><time>2026-03-15T17:34:23Z</time></trkpt><trkpt lat="45.538892786029116" lon="10.110576185138655"><ele>125.5</ele><time>2026-03-15T17:34:24Z</time></trkpt><trkpt lat="45.53903710160143" lon="10.110612473858586"><ele>125.75</ele><time>2026-03-15T17:34:25Z</time></trkpt><trkpt lat="45.53918369364664" lon="10.11064533203816"><ele>126.0</ele><time>2026-03-15T17:34:26Z</time></trkpt><trkpt lat="45.53933074776588" lon="10.110678715347008"><ele>126.0</ele><time>2026-03-15T17:34:27Z</time></trkpt><trkpt lat="45.53947877765446" lon="10.110714967545821"><ele>126.0</ele><time>2026-03-15T17:34:28Z</time></trkpt><trkpt lat="45.53962966081322" lon="10.11075061811767"><ele>126.0</ele><time>2026-03-15T17:34:29Z</time></trkpt><trkpt lat="45.53978462075314" lon="10.110787713054098"><ele>126.0</ele><time>2026-03-15T17:34:30Z</time></trkpt><trkpt lat="45.53994183577504" lon="10.110830574039202"><ele>126.0</ele><time>2026-03-15T17:34:31Z</time></trkpt><trkpt lat="45.540101736157276" lon="10.110874330286995"><ele>126.0</ele><time>2026-03-15T17:34:32Z</time></trkpt><trkpt lat="45.540258000792385" lon="10.11091472929328"><ele>126.33333333333334</ele><time>2026-03-15T17:34:33Z</time></trkpt><trkpt lat="45.540417713075485" lon="10.11095443652626"><ele>126.66666666666667</ele><time>2026-03-15T17:34:34Z</time></trkpt><trkpt lat="45.54057644657357" lon="10.110991073290473"><ele>127.0</ele><time>2026-03-15T17:34:35Z</time></trkpt><trkpt lat="45.54073513169733" lon="10.1110162329516"><ele>127.0</ele><time>2026-03-15T17:34:35.999Z</time></trkpt><trkpt lat="45.54088952448738" lon="10.11100874011852"><ele>127.0</ele><time>2026-03-15T17:34:36.999Z</time></trkpt><trkpt lat="45.541042887503664" lon="10.110967722308244"><ele>127.0</ele><time>2026-03-15T17:34:37.999Z</time></trkpt><trkpt lat="45.5411901167203" lon="10.110897692330214"><ele>127.33333333333334</ele><time>2026-03-15T17:34:38.999Z</time></trkpt><trkpt lat="45.541336844440586" lon="10.11080336550821"><ele>127.66666666666666</ele><time>2026-03-15T17:34:39.999Z</time></trkpt><trkpt lat="45.541480562753776" lon="10.110681070739055"><ele>128.0</ele><time>2026-03-15T17:34:40.999Z</time></trkpt><trkpt lat="45.54161265829183" lon="10.1105297868944"><ele>128.0</ele><time>2026-03-15T17:34:41.999Z</time></trkpt><trkpt lat="45.54173683292071" lon="10.110349864397579"><ele>128.0</ele><time>2026-03-15T17:34:42.999Z</time></trkpt><trkpt lat="45.54184001486995" lon="10.110152911222658"><ele>128.0</ele><time>2026-03-15T17:34:43.999Z</time></trkpt><trkpt lat="45.54193950631155" lon="10.109925735768362"><ele>128.0</ele><time>2026-03-15T17:34:44.999Z</time></trkpt><trkpt lat="45.542030238271714" lon="10.109684068296545"><ele>128.0</ele><time>2026-03-15T17:34:45.999Z</time></trkpt><trkpt lat="45.54210871330782" lon="10.109483101975675"><ele>128.0</ele><time>2026-03-15T17:34:46.999Z</time></trkpt><trkpt lat="45.542174045802845" lon="10.109286378936044"><ele>128.16666666666666</ele><time>2026-03-15T17:34:47.999Z</time></trkpt><trkpt lat="45.54223623281721" lon="10.109122391288906"><ele>128.33333333333331</ele><time>2026-03-15T17:34:48.999Z</time></trkpt><trkpt lat="45.542279789984924" lon="10.108995786103856"><ele>128.5</ele><time>2026-03-15T17:34:49.999Z</time></trkpt><trkpt lat="45.54232089957685" lon="10.108891242648605"><ele>128.66666666666666</ele><time>2026-03-15T17:34:50.999Z</time></trkpt><trkpt lat="45.542370220454465" lon="10.108833477080466"><ele>128.83333333333334</ele><time>2026-03-15T17:34:51.999Z</time></trkpt><trkpt lat="45.542435680657775" lon="10.10885149440902"><ele>129.0</ele><time>2026-03-15T17:34:53.999Z</time></trkpt><trkpt lat="45.542495436537635" lon="10.10893257987937"><ele>129.0</ele><time>2026-03-15T17:34:57.999Z</time></trkpt><trkpt lat="45.54255521064124" lon="10.10907507645141"><ele>129.0</ele><time>2026-03-15T17:34:58.999Z</time></trkpt><trkpt lat="45.5426547595586" lon="10.109189906912833"><ele>129.0</ele><time>2026-03-15T17:34:59.999Z</time></trkpt><trkpt lat="45.542764581432905" lon="10.109276131410578"><ele>129.0</ele><time>2026-03-15T17:35:00.999Z</time></trkpt><trkpt lat="45.54286716442259" lon="10.109318537770179"><ele>128.75</ele><time>2026-03-15T17:35:01.999Z</time></trkpt><trkpt lat="45.542985039838776" lon="10.109262016549136"><ele>128.5</ele><time>2026-03-15T17:35:02.999Z</time></trkpt><trkpt lat="45.543081964449925" lon="10.109199961372735"><ele>128.25</ele><time>2026-03-15T17:35:03.999Z</time></trkpt><trkpt lat="45.54316308190994" lon="10.109105134926656"><ele>128.0</ele><time>2026-03-15T17:35:04.999Z</time></trkpt><trkpt lat="45.54323775575671" lon="10.108979757991099"><ele>128.0</ele><time>2026-03-15T17:35:05.999Z</time></trkpt><trkpt lat="45.54326773277573" lon="10.108842332938305"><ele>128.0</ele><time>2026-03-15T17:35:06.999Z</time></trkpt><trkpt lat="45.54325985682786" lon="10.108664205784928"><ele>128.0</ele><time>2026-03-15T17:35:07.999Z</time></trkpt><trkpt lat="45.54323323768043" lon="10.108504665358018"><ele>128.0</ele><time>2026-03-15T17:35:08.999Z</time></trkpt><trkpt lat="45.54318020688141" lon="10.10836350250392"><ele>128.0</ele><time>2026-03-15T17:35:09.999Z</time></trkpt><trkpt lat="45.543098679675865" lon="10.10824977462507"><ele>128.0</ele><time>2026-03-15T17:35:10.999Z</time></trkpt><trkpt lat="45.54299093246393" lon="10.108138702361646"><ele>128.0</ele><time>2026-03-15T17:35:11.999Z</time></trkpt><trkpt lat="45.542889717010965" lon="10.10802064716113"><ele>128.0</ele><time>2026-03-15T17:35:12.999Z</time></trkpt><trkpt lat="45.54280047452566" lon="10.107854228411014"><ele>128.33333333333331</ele><time>2026-03-15T17:35:13.999Z</time></trkpt><trkpt lat="45.54272912657863" lon="10.107660735413106"><ele>128.66666666666666</ele><time>2026-03-15T17:35:14.999Z</time></trkpt><trkpt lat="45.54266155830399" lon="10.107430698101481"><ele>129.0</ele><time>2026-03-15T17:35:15.999Z</time></trkpt><trkpt lat="45.54258596259674" lon="10.107195883814635"><ele>129.66666666666666</ele><time>2026-03-15T17:35:16.999Z</time></trkpt><trkpt lat="45.54249788945398" lon="10.106951595761052"><ele>130.33333333333331</ele><time>2026-03-15T17:35:17.998Z</time></trkpt><trkpt lat="45.54240196299907" lon="10.10670610115718"><ele>131.0</ele><time>2026-03-15T17:35:18.998Z</time></trkpt><trkpt lat="45.54230335795763" lon="10.10645933571403"><ele>131.0</ele><time>2026-03-15T17:35:19.998Z</time></trkpt><trkpt lat="45.54220200326424" lon="10.10622474900168"><ele>131.0</ele><time>2026-03-15T17:35:20.998Z</time></trkpt><trkpt lat="45.54210699285814" lon="10.106024975373465"><ele>131.0</ele><time>2026-03-15T17:35:21.998Z</time></trkpt><trkpt lat="45.54202281400848" lon="10.1058369963454"><ele>131.0</ele><time>2026-03-15T17:35:22.998Z</time></trkpt><trkpt lat="45.54194662103706" lon="10.105623521338938"><ele>131.0</ele><time>2026-03-15T17:35:23.998Z</time></trkpt><trkpt lat="45.54188123392605" lon="10.10538885444129"><ele>131.0</ele><time>2026-03-15T17:35:24.998Z</time></trkpt><trkpt lat="45.54181794028511" lon="10.105140617756108"><ele>131.0</ele><time>2026-03-15T17:35:25.998Z</time></trkpt><trkpt lat="45.54175181212908" lon="10.1048924207246"><ele>131.0</ele><time>2026-03-15T17:35:26.998Z</time></trkpt><trkpt lat="45.541683670871194" lon="10.10463304974662"><ele>131.0</ele><time>2026-03-15T17:35:27.998Z</time></trkpt><trkpt lat="45.54161589936815" lon="10.104363839255532"><ele>131.0</ele><time>2026-03-15T17:35:28.998Z</time></trkpt><trkpt lat="45.541547588270845" lon="10.104087466185316"><ele>131.0</ele><time>2026-03-15T17:35:29.998Z</time></trkpt><trkpt lat="45.541481033119695" lon="10.103805846700583"><ele>131.0</ele><time>2026-03-15T17:35:30.998Z</time></trkpt><trkpt lat="45.5414153625539" lon="10.103513200127548"><ele>130.66666666666666</ele><time>2026-03-15T17:35:31.998Z</time></trkpt><trkpt lat="45.54135410041161" lon="10.103222627911565"><ele>130.33333333333334</ele><time>2026-03-15T17:35:32.998Z</time></trkpt><trkpt lat="45.54129434190194" lon="10.10292673770074"><ele>130.0</ele><time>2026-03-15T17:35:33.998Z</time></trkpt><trkpt lat="45.541233753623075" lon="10.102627703203462"><ele>129.33333333333334</ele><time>2026-03-15T17:35:34.998Z</time></trkpt><trkpt lat="45.541172004462716" lon="10.102324257847807"><ele>128.66666666666666</ele><time>2026-03-15T17:35:35.998Z</time></trkpt><trkpt lat="45.541115889704955" lon="10.102023397077469"><ele>128.0</ele><time>2026-03-15T17:35:36.998Z</time></trkpt><trkpt lat="45.54106410546642" lon="10.101730725720518"><ele>128.33333333333331</ele><time>2026-03-15T17:35:37.998Z</time></trkpt><trkpt lat="45.54101670939966" lon="10.101450259132234"><ele>128.66666666666666</ele><time>2026-03-15T17:35:38.998Z</time></trkpt><trkpt lat="45.540967904478556" lon="10.101183823455273"><ele>129.0</ele><time>2026-03-15T17:35:39.998Z</time></trkpt><trkpt lat="45.54091462785941" lon="10.10092014560678"><ele>129.66666666666666</ele><time>2026-03-15T17:35:40.998Z</time></trkpt><trkpt lat="45.54086724018014" lon="10.100649913411598"><ele>130.33333333333331</ele><time>2026-03-15T17:35:41.998Z</time></trkpt><trkpt lat="45.540825128237984" lon="10.100372796432556"><ele>131.0</ele><time>2026-03-15T17:35:42.998Z</time></trkpt><trkpt lat="45.54078614127003" lon="10.100091495727318"><ele>131.33333333333331</ele><time>2026-03-15T17:35:43.998Z</time></trkpt><trkpt lat="45.5407476213249" lon="10.099802341805804"><ele>131.66666666666666</ele><time>2026-03-15T17:35:44.998Z</time></trkpt><trkpt lat="45.54070911697607" lon="10.099513965829843"><ele>132.0</ele><time>2026-03-15T17:35:45.998Z</time></trkpt><trkpt lat="45.54066937739399" lon="10.099218265441898"><ele>132.0</ele><time>2026-03-15T17:35:46.998Z</time></trkpt><trkpt lat="45.540631949334255" lon="10.098922788977475"><ele>132.0</ele><time>2026-03-15T17:35:47.998Z</time></trkpt><trkpt lat="45.54059690521249" lon="10.098627013713742"><ele>132.0</ele><time>2026-03-15T17:35:48.998Z</time></trkpt><trkpt lat="45.54056055651269" lon="10.09832446283266"><ele>132.66666666666666</ele><time>2026-03-15T17:35:49.998Z</time></trkpt><trkpt lat="45.54052544618813" lon="10.098020743108187"><ele>133.33333333333331</ele><time>2026-03-15T17:35:50.998Z</time></trkpt><trkpt lat="45.54048981812351" lon="10.097722748546868"><ele>134.0</ele><time>2026-03-15T17:35:51.998Z</time></trkpt><trkpt lat="45.54045437082488" lon="10.097423964215801"><ele>133.66666666666666</ele><time>2026-03-15T17:35:52.998Z</time></trkpt><trkpt lat="45.54041903116473" lon="10.097124272504802"><ele>133.33333333333334</ele><time>2026-03-15T17:35:53.998Z</time></trkpt><trkpt lat="45.54038332952346" lon="10.096821094385813"><ele>133.0</ele><time>2026-03-15T17:35:54.998Z</time></trkpt><trkpt lat="45.540348293576606" lon="10.09652121035691"><ele>133.0</ele><time>2026-03-15T17:35:55.998Z</time></trkpt><trkpt lat="45.54031448216782" lon="10.096223611667865"><ele>133.0</ele><time>2026-03-15T17:35:56.998Z</time></trkpt><trkpt lat="45.540279505300994" lon="10.095926156705387"><ele>133.0</ele><time>2026-03-15T17:35:57.998Z</time></trkpt><trkpt lat="45.54024149286416" lon="10.095618693839052"><ele>132.66666666666669</ele><time>2026-03-15T17:35:59Z</time></trkpt><trkpt lat="45.540204967722055" lon="10.095321634579108"><ele>132.33333333333334</ele><time>2026-03-15T17:36:00Z</time></trkpt><trkpt lat="45.54016895818163" lon="10.0950185762797"><ele>132.0</ele><time>2026-03-15T17:36:01Z</time></trkpt><trkpt lat="45.54013412835083" lon="10.094724044792876"><ele>132.0</ele><time>2026-03-15T17:36:02Z</time></trkpt><trkpt lat="45.54009959639719" lon="10.094447011283453"><ele>132.0</ele><time>2026-03-15T17:36:03Z</time></trkpt><trkpt lat="45.540067134182316" lon="10.094178103100395"><ele>132.0</ele><time>2026-03-15T17:36:04Z</time></trkpt><trkpt lat="45.54003307498434" lon="10.093905526802278"><ele>132.0</ele><time>2026-03-15T17:36:05Z</time></trkpt><trkpt lat="45.53999927017932" lon="10.093615987740353"><ele>132.0</ele><time>2026-03-15T17:36:06Z</time></trkpt><trkpt lat="45.53996604715282" lon="10.093329424120261"><ele>132.0</ele><time>2026-03-15T17:36:07Z</time></trkpt><trkpt lat="45.5399344386743" lon="10.09305348289153"><ele>132.0</ele><time>2026-03-15T17:36:08Z</time></trkpt><trkpt lat="45.539904202153544" lon="10.092793573316133"><ele>132.0</ele><time>2026-03-15T17:36:09Z</time></trkpt><trkpt lat="45.539873707103354" lon="10.092522807625677"><ele>132.0</ele><time>2026-03-15T17:36:10Z</time></trkpt><trkpt lat="45.53984346844162" lon="10.092230974976754"><ele>132.66666666666666</ele><time>2026-03-15T17:36:11Z</time></trkpt><trkpt lat="45.53981050362018" lon="10.091932433042313"><ele>133.33333333333331</ele><time>2026-03-15T17:36:12Z</time></trkpt><trkpt lat="45.53976855878988" lon="10.091631274621014"><ele>134.0</ele><time>2026-03-15T17:36:13Z</time></trkpt><trkpt lat="45.53971859883329" lon="10.091316669266396"><ele>134.5</ele><time>2026-03-15T17:36:14Z</time></trkpt><trkpt lat="45.53967091196226" lon="10.090987866963802"><ele>135.0</ele><time>2026-03-15T17:36:15Z</time></trkpt><trkpt lat="45.53962554275742" lon="10.090649952049358"><ele>135.0</ele><time>2026-03-15T17:36:16Z</time></trkpt><trkpt lat="45.53957553342203" lon="10.090285071110063"><ele>135.0</ele><time>2026-03-15T17:36:17Z</time></trkpt><trkpt lat="45.539525238522884" lon="10.08991342220688"><ele>133.0</ele><time>2026-03-15T17:36:17.999Z</time></trkpt><trkpt lat="45.53947936250707" lon="10.089533304769448"><ele>131.0</ele><time>2026-03-15T17:36:18.999Z</time></trkpt><trkpt lat="45.539430589788324" lon="10.089150639468413"><ele>132.5</ele><time>2026-03-15T17:36:19.999Z</time></trkpt><trkpt lat="45.539385832785904" lon="10.088768283856373"><ele>134.0</ele><time>2026-03-15T17:36:20.999Z</time></trkpt><trkpt lat="45.53933670782252" lon="10.088388144793509"><ele>134.0</ele><time>2026-03-15T17:36:21.999Z</time></trkpt><trkpt lat="45.53929010775764" lon="10.088008123131406"><ele>134.0</ele><time>2026-03-15T17:36:22.999Z</time></trkpt><trkpt lat="45.53925117416309" lon="10.087636310468474"><ele>134.0</ele><time>2026-03-15T17:36:23.999Z</time></trkpt><trkpt lat="45.53921546159492" lon="10.087266408553488"><ele>134.0</ele><time>2026-03-15T17:36:24.999Z</time></trkpt><trkpt lat="45.53917325419055" lon="10.086896069474802"><ele>134.0</ele><time>2026-03-15T17:36:25.999Z</time></trkpt><trkpt lat="45.539130020763025" lon="10.086527143847968"><ele>134.0</ele><time>2026-03-15T17:36:26.999Z</time></trkpt><trkpt lat="45.53907881754836" lon="10.086163159235007"><ele>134.0</ele><time>2026-03-15T17:36:27.999Z</time></trkpt><trkpt lat="45.53903411957687" lon="10.085792299843003"><ele>134.0</ele><time>2026-03-15T17:36:28.999Z</time></trkpt><trkpt lat="45.53899074258475" lon="10.085418781936207"><ele>134.5</ele><time>2026-03-15T17:36:29.999Z</time></trkpt><trkpt lat="45.53894647881871" lon="10.085045813429558"><ele>135.0</ele><time>2026-03-15T17:36:30.999Z</time></trkpt><trkpt lat="45.538901195257345" lon="10.084669018676045"><ele>135.0</ele><time>2026-03-15T17:36:31.999Z</time></trkpt><trkpt lat="45.53885655161943" lon="10.084296218097801"><ele>135.0</ele><time>2026-03-15T17:36:32.999Z</time></trkpt><trkpt lat="45.53881165119602" lon="10.083919779523889"><ele>135.0</ele><time>2026-03-15T17:36:33.999Z</time></trkpt><trkpt lat="45.53876664919873" lon="10.08353928618433"><ele>135.0</ele><time>2026-03-15T17:36:34.999Z</time></trkpt><trkpt lat="45.538721914939806" lon="10.083161108747953"><ele>135.5</ele><time>2026-03-15T17:36:35.999Z</time></trkpt><trkpt lat="45.53867450788601" lon="10.082780558952281"><ele>136.0</ele><time>2026-03-15T17:36:36.999Z</time></trkpt><trkpt lat="45.538626520856866" lon="10.082400303330084"><ele>136.0</ele><time>2026-03-15T17:36:37.999Z</time></trkpt><trkpt lat="45.53857956690743" lon="10.082016107917347"><ele>136.0</ele><time>2026-03-15T17:36:38.999Z</time></trkpt><trkpt lat="45.538533286409006" lon="10.081637336131857"><ele>136.0</ele><time>2026-03-15T17:36:39.999Z</time></trkpt><trkpt lat="45.53848782652336" lon="10.081258949503038"><ele>136.0</ele><time>2026-03-15T17:36:40.999Z</time></trkpt><trkpt lat="45.53844076402011" lon="10.08087924745104"><ele>136.5</ele><time>2026-03-15T17:36:41.999Z</time></trkpt><trkpt lat="45.538395873952666" lon="10.080499563807505"><ele>137.0</ele><time>2026-03-15T17:36:42.999Z</time></trkpt><trkpt lat="45.538355675891864" lon="10.080124729408704"><ele>137.5</ele><time>2026-03-15T17:36:43.999Z</time></trkpt><trkpt lat="45.53831777973221" lon="10.079753610024813"><ele>138.0</ele><time>2026-03-15T17:36:44.999Z</time></trkpt><trkpt lat="45.5382839342343" lon="10.079377869703015"><ele>137.5</ele><time>2026-03-15T17:36:45.999Z</time></trkpt><trkpt lat="45.53824997714597" lon="10.079009504150365"><ele>137.0</ele><time>2026-03-15T17:36:46.999Z</time></trkpt><trkpt lat="45.53821281474374" lon="10.078645225128692"><ele>137.0</ele><time>2026-03-15T17:36:47.999Z</time></trkpt><trkpt lat="45.538172245392104" lon="10.078285237245135"><ele>137.0</ele><time>2026-03-15T17:36:48.999Z</time></trkpt><trkpt lat="45.53812958996925" lon="10.077924424279477"><ele>137.5</ele><time>2026-03-15T17:36:49.999Z</time></trkpt><trkpt lat="45.53808612030267" lon="10.077566890066764"><ele>138.0</ele><time>2026-03-15T17:36:50.999Z</time></trkpt><trkpt lat="45.53804241694066" lon="10.077214752602087"><ele>138.0</ele><time>2026-03-15T17:36:51.999Z</time></trkpt><trkpt lat="45.53799868164075" lon="10.076854551724798"><ele>138.0</ele><time>2026-03-15T17:36:52.999Z</time></trkpt><trkpt lat="45.53795613374556" lon="10.076494765693393"><ele>138.0</ele><time>2026-03-15T17:36:53.999Z</time></trkpt><trkpt lat="45.537916879799035" lon="10.07613462133596"><ele>138.0</ele><time>2026-03-15T17:36:54.998Z</time></trkpt><trkpt lat="45.53787679691672" lon="10.075774191008673"><ele>137.5</ele><time>2026-03-15T17:36:55.998Z</time></trkpt><trkpt lat="45.537832781955196" lon="10.075411275900809"><ele>137.0</ele><time>2026-03-15T17:36:56.998Z</time></trkpt><trkpt lat="45.53778279611135" lon="10.075046509717794"><ele>137.0</ele><time>2026-03-15T17:36:57.998Z</time></trkpt><trkpt lat="45.5377380765203" lon="10.07468613171198"><ele>137.0</ele><time>2026-03-15T17:36:58.998Z</time></trkpt><trkpt lat="45.53769245517776" lon="10.074323641672835"><ele>137.0</ele><time>2026-03-15T17:36:59.998Z</time></trkpt><trkpt lat="45.537642042284126" lon="10.073963132174043"><ele>137.0</ele><time>2026-03-15T17:37:00.998Z</time></trkpt><trkpt lat="45.537592004372286" lon="10.073606348393447"><ele>137.5</ele><time>2026-03-15T17:37:01.998Z</time></trkpt><trkpt lat="45.53753454594396" lon="10.073249380387038"><ele>138.0</ele><time>2026-03-15T17:37:02.998Z</time></trkpt><trkpt lat="45.5374791287276" lon="10.072892831146017"><ele>138.0</ele><time>2026-03-15T17:37:03.998Z</time></trkpt><trkpt lat="45.53742141296283" lon="10.072536726825685"><ele>138.0</ele><time>2026-03-15T17:37:04.998Z</time></trkpt><trkpt lat="45.53736198751415" lon="10.072179306212714"><ele>137.5</ele><time>2026-03-15T17:37:05.998Z</time></trkpt><trkpt lat="45.537301557046604" lon="10.071830163248098"><ele>137.0</ele><time>2026-03-15T17:37:06.998Z</time></trkpt><trkpt lat="45.53723102295928" lon="10.07147515010741"><ele>137.0</ele><time>2026-03-15T17:37:07.998Z</time></trkpt><trkpt lat="45.53716192599201" lon="10.07110865215053"><ele>137.0</ele><time>2026-03-15T17:37:08.998Z</time></trkpt><trkpt lat="45.53709258486594" lon="10.070766556863164"><ele>137.5</ele><time>2026-03-15T17:37:09.998Z</time></trkpt><trkpt lat="45.53701734220968" lon="10.07041489437806"><ele>138.0</ele><time>2026-03-15T17:37:10.998Z</time></trkpt><trkpt lat="45.5369384020851" lon="10.070069784023673"><ele>138.0</ele><time>2026-03-15T17:37:11.998Z</time></trkpt><trkpt lat="45.536859986916234" lon="10.069718808840141"><ele>138.0</ele><time>2026-03-15T17:37:12.998Z</time></trkpt><trkpt lat="45.536774661721665" lon="10.069373675990732"><ele>138.0</ele><time>2026-03-15T17:37:13.998Z</time></trkpt><trkpt lat="45.53668758867893" lon="10.069032078252578"><ele>138.0</ele><time>2026-03-15T17:37:14.998Z</time></trkpt><trkpt lat="45.53659986068056" lon="10.068691464336933"><ele>138.0</ele><time>2026-03-15T17:37:15.998Z</time></trkpt><trkpt lat="45.53651395758292" lon="10.06835075407073"><ele>138.0</ele><time>2026-03-15T17:37:16.998Z</time></trkpt><trkpt lat="45.536425730785254" lon="10.068009377483541"><ele>138.0</ele><time>2026-03-15T17:37:17.998Z</time></trkpt><trkpt lat="45.536337011114846" lon="10.067669574781151"><ele>138.0</ele><time>2026-03-15T17:37:18.998Z</time></trkpt><trkpt lat="45.536240510044955" lon="10.067328477240842"><ele>138.0</ele><time>2026-03-15T17:37:19.998Z</time></trkpt><trkpt lat="45.53614221291599" lon="10.066992538671636"><ele>138.0</ele><time>2026-03-15T17:37:20.998Z</time></trkpt><trkpt lat="45.53603886006078" lon="10.066658842497787"><ele>138.0</ele><time>2026-03-15T17:37:21.998Z</time></trkpt><trkpt lat="45.535936956843265" lon="10.066329614356265"><ele>138.0</ele><time>2026-03-15T17:37:22.998Z</time></trkpt><trkpt lat="45.535829460531964" lon="10.065996544247723"><ele>138.5</ele><time>2026-03-15T17:37:23.998Z</time></trkpt><trkpt lat="45.535719989518796" lon="10.065666361284967"><ele>139.0</ele><time>2026-03-15T17:37:24.998Z</time></trkpt><trkpt lat="45.535608731224784" lon="10.065336754733334"><ele>139.0</ele><time>2026-03-15T17:37:25.998Z</time></trkpt><trkpt lat="45.535497450430164" lon="10.065020007517699"><ele>139.0</ele><time>2026-03-15T17:37:26.998Z</time></trkpt><trkpt lat="45.53538861500871" lon="10.064677753907706"><ele>138.5</ele><time>2026-03-15T17:37:27.998Z</time></trkpt><trkpt lat="45.53527474005336" lon="10.064345393323636"><ele>138.0</ele><time>2026-03-15T17:37:28.998Z</time></trkpt><trkpt lat="45.535173264054535" lon="10.06400704043928"><ele>138.0</ele><time>2026-03-15T17:37:29.998Z</time></trkpt><trkpt lat="45.53507527204907" lon="10.063662281136816"><ele>138.0</ele><time>2026-03-15T17:37:30.998Z</time></trkpt><trkpt lat="45.53497605581436" lon="10.063357292982436"><ele>139.0</ele><time>2026-03-15T17:37:31.998Z</time></trkpt><trkpt lat="45.53479133569281" lon="10.063063831610542"><ele>140.0</ele><time>2026-03-15T17:37:32.998Z</time></trkpt><trkpt lat="45.53463098588264" lon="10.062764388704716"><ele>138.5</ele><time>2026-03-15T17:37:33.998Z</time></trkpt><trkpt lat="45.53450292166432" lon="10.062443898413456"><ele>137.0</ele><time>2026-03-15T17:37:34.998Z</time></trkpt><trkpt lat="45.534369873829604" lon="10.06213196619914"><ele>137.0</ele><time>2026-03-15T17:37:35.998Z</time></trkpt><trkpt lat="45.534249626812155" lon="10.061834201273493"><ele>137.0</ele><time>2026-03-15T17:37:36.998Z</time></trkpt><trkpt lat="45.534137475798545" lon="10.06155782571725"><ele>137.66666666666666</ele><time>2026-03-15T17:37:37.997Z</time></trkpt><trkpt lat="45.53402807138826" lon="10.061293485200062"><ele>138.33333333333334</ele><time>2026-03-15T17:37:38.997Z</time></trkpt><trkpt lat="45.533920528192404" lon="10.061018335472564"><ele>139.0</ele><time>2026-03-15T17:37:39.997Z</time></trkpt><trkpt lat="45.53380977235977" lon="10.060740131833047"><ele>139.0</ele><time>2026-03-15T17:37:40.997Z</time></trkpt><trkpt lat="45.533698005790285" lon="10.060455519918067"><ele>139.0</ele><time>2026-03-15T17:37:41.997Z</time></trkpt><trkpt lat="45.53358383719925" lon="10.060167186185037"><ele>138.5</ele><time>2026-03-15T17:37:42.997Z</time></trkpt><trkpt lat="45.533468157312385" lon="10.059877108316456"><ele>138.0</ele><time>2026-03-15T17:37:43.997Z</time></trkpt><trkpt lat="45.53335383816545" lon="10.0595838019072"><ele>138.0</ele><time>2026-03-15T17:37:44.997Z</time></trkpt><trkpt lat="45.533242558622156" lon="10.05928163560195"><ele>138.0</ele><time>2026-03-15T17:37:45.997Z</time></trkpt><trkpt lat="45.53313562284171" lon="10.058981092356655"><ele>137.5</ele><time>2026-03-15T17:37:46.997Z</time></trkpt><trkpt lat="45.533029618714274" lon="10.05868783095311"><ele>137.0</ele><time>2026-03-15T17:37:47.997Z</time></trkpt><trkpt lat="45.53291900249983" lon="10.058390781945175"><ele>138.0</ele><time>2026-03-15T17:37:48.997Z</time></trkpt><trkpt lat="45.5328120960823" lon="10.058104502060779"><ele>139.0</ele><time>2026-03-15T17:37:49.997Z</time></trkpt><trkpt lat="45.53270494031779" lon="10.057821351426686"><ele>139.0</ele><time>2026-03-15T17:37:50.997Z</time></trkpt><trkpt lat="45.53260059072558" lon="10.057527823118233"><ele>139.0</ele><time>2026-03-15T17:37:51.997Z</time></trkpt><trkpt lat="45.53251425107664" lon="10.057242309054445"><ele>139.0</ele><time>2026-03-15T17:37:52.997Z</time></trkpt><trkpt lat="45.53245644344124" lon="10.056960454021095"><ele>138.66666666666669</ele><time>2026-03-15T17:37:53.997Z</time></trkpt><trkpt lat="45.53242812387478" lon="10.056672031486833"><ele>138.33333333333334</ele><time>2026-03-15T17:37:54.997Z</time></trkpt><trkpt lat="45.53243703399212" lon="10.056379542553705"><ele>138.0</ele><time>2026-03-15T17:37:55.997Z</time></trkpt><trkpt lat="45.532475629298865" lon="10.056083429888261"><ele>138.0</ele><time>2026-03-15T17:37:56.997Z</time></trkpt><trkpt lat="45.5325443468958" lon="10.055813100282162"><ele>138.0</ele><time>2026-03-15T17:37:57.997Z</time></trkpt><trkpt lat="45.532638858496966" lon="10.05556231054297"><ele>138.0</ele><time>2026-03-15T17:37:58.997Z</time></trkpt><trkpt lat="45.532757693040175" lon="10.055344924219773"><ele>138.33333333333334</ele><time>2026-03-15T17:37:59.997Z</time></trkpt><trkpt lat="45.53289728622862" lon="10.05514670054934"><ele>138.66666666666669</ele><time>2026-03-15T17:38:00.997Z</time></trkpt><trkpt lat="45.5330436249438" lon="10.054980403484375"><ele>139.0</ele><time>2026-03-15T17:38:01.997Z</time></trkpt><trkpt lat="45.53320373559802" lon="10.05484688653671"><ele>139.33333333333334</ele><time>2026-03-15T17:38:02.997Z</time></trkpt><trkpt lat="45.53335740470859" lon="10.054762998072782"><ele>139.66666666666666</ele><time>2026-03-15T17:38:04Z</time></trkpt><trkpt lat="45.53350710062776" lon="10.05470841509416"><ele>140.0</ele><time>2026-03-15T17:38:05Z</time></trkpt><trkpt lat="45.53366975801037" lon="10.054668265720265"><ele>140.0</ele><time>2026-03-15T17:38:06Z</time></trkpt><trkpt lat="45.53384902385856" lon="10.054612198961815"><ele>140.0</ele><time>2026-03-15T17:38:07Z</time></trkpt><trkpt lat="45.53403423220684" lon="10.054566961631354"><ele>140.0</ele><time>2026-03-15T17:38:08Z</time></trkpt><trkpt lat="45.534226087583626" lon="10.054540037144328"><ele>140.0</ele><time>2026-03-15T17:38:09Z</time></trkpt><trkpt lat="45.53441929587864" lon="10.05450802956744"><ele>140.0</ele><time>2026-03-15T17:38:10Z</time></trkpt><trkpt lat="45.53461476641169" lon="10.054488747278029"><ele>140.0</ele><time>2026-03-15T17:38:11Z</time></trkpt><trkpt lat="45.53481330965931" lon="10.054451321441954"><ele>140.33333333333331</ele><time>2026-03-15T17:38:12Z</time></trkpt><trkpt lat="45.535017148175974" lon="10.054416831234208"><ele>140.66666666666666</ele><time>2026-03-15T17:38:13Z</time></trkpt><trkpt lat="45.535223692728415" lon="10.054382671861191"><ele>141.0</ele><time>2026-03-15T17:38:14Z</time></trkpt><trkpt lat="45.53542758933584" lon="10.054347471043972"><ele>141.0</ele><time>2026-03-15T17:38:15Z</time></trkpt><trkpt lat="45.53563594816641" lon="10.054313615385302"><ele>141.0</ele><time>2026-03-15T17:38:16Z</time></trkpt><trkpt lat="45.53584051733518" lon="10.054285289856873"><ele>141.0</ele><time>2026-03-15T17:38:17Z</time></trkpt><trkpt lat="45.53603394883741" lon="10.054259940294925"><ele>140.33333333333334</ele><time>2026-03-15T17:38:18Z</time></trkpt><trkpt lat="45.53622288459559" lon="10.054233643730363"><ele>139.66666666666669</ele><time>2026-03-15T17:38:19Z</time></trkpt><trkpt lat="45.536417252781284" lon="10.054201241373306"><ele>139.0</ele><time>2026-03-15T17:38:20Z</time></trkpt><trkpt lat="45.53661690370044" lon="10.054169699569721"><ele>139.0</ele><time>2026-03-15T17:38:21Z</time></trkpt><trkpt lat="45.53681587635975" lon="10.054139845604373"><ele>139.0</ele><time>2026-03-15T17:38:22Z</time></trkpt><trkpt lat="45.537015431371444" lon="10.054111777537484"><ele>139.0</ele><time>2026-03-15T17:38:23Z</time></trkpt><trkpt lat="45.537226243991284" lon="10.054083834589731"><ele>139.66666666666669</ele><time>2026-03-15T17:38:24Z</time></trkpt><trkpt lat="45.537436315175604" lon="10.054054373016282"><ele>140.33333333333334</ele><time>2026-03-15T17:38:25Z</time></trkpt><trkpt lat="45.537650996459305" lon="10.054018483051216"><ele>141.0</ele><time>2026-03-15T17:38:26Z</time></trkpt><trkpt lat="45.53786880482356" lon="10.053986900279162"><ele>141.66666666666666</ele><time>2026-03-15T17:38:27Z</time></trkpt><trkpt lat="45.538088085250955" lon="10.053954159012298"><ele>142.33333333333331</ele><time>2026-03-15T17:38:28Z</time></trkpt><trkpt lat="45.538304117049826" lon="10.053914851675263"><ele>143.0</ele><time>2026-03-15T17:38:28.999Z</time></trkpt><trkpt lat="45.53851523336056" lon="10.053862958077142"><ele>143.33333333333331</ele><time>2026-03-15T17:38:29.999Z</time></trkpt><trkpt lat="45.53872704249345" lon="10.053800835169767"><ele>143.66666666666666</ele><time>2026-03-15T17:38:30.999Z</time></trkpt><trkpt lat="45.53894014738741" lon="10.053751279695572"><ele>144.0</ele><time>2026-03-15T17:38:31.999Z</time></trkpt><trkpt lat="45.53915261363832" lon="10.053725975409902"><ele>144.0</ele><time>2026-03-15T17:38:32.999Z</time></trkpt><trkpt lat="45.539370413522256" lon="10.053710713750466"><ele>144.0</ele><time>2026-03-15T17:38:33.999Z</time></trkpt><trkpt lat="45.53958818235792" lon="10.053703149501235"><ele>144.0</ele><time>2026-03-15T17:38:34.999Z</time></trkpt><trkpt lat="45.53981203572043" lon="10.053694886546149"><ele>144.5</ele><time>2026-03-15T17:38:35.999Z</time></trkpt><trkpt lat="45.54004678699226" lon="10.05369048238841"><ele>145.0</ele><time>2026-03-15T17:38:36.999Z</time></trkpt><trkpt lat="45.54028579999464" lon="10.053689176351156"><ele>145.5</ele><time>2026-03-15T17:38:37.999Z</time></trkpt><trkpt lat="45.54052727748549" lon="10.0536924875406"><ele>146.0</ele><time>2026-03-15T17:38:38.999Z</time></trkpt><trkpt lat="45.540771147664884" lon="10.053700777381874"><ele>146.0</ele><time>2026-03-15T17:38:39.999Z</time></trkpt><trkpt lat="45.54101417695113" lon="10.053712102448843"><ele>146.0</ele><time>2026-03-15T17:38:40.999Z</time></trkpt><trkpt lat="45.541261619315556" lon="10.05372073826077"><ele>146.5</ele><time>2026-03-15T17:38:41.999Z</time></trkpt><trkpt lat="45.54151333622131" lon="10.053732141032553"><ele>147.0</ele><time>2026-03-15T17:38:42.999Z</time></trkpt><trkpt lat="45.54176184534255" lon="10.053759317284527"><ele>147.0</ele><time>2026-03-15T17:38:43.999Z</time></trkpt><trkpt lat="45.542014077158065" lon="10.053797049902006"><ele>147.0</ele><time>2026-03-15T17:38:44.999Z</time></trkpt><trkpt lat="45.542251749155085" lon="10.053839970254673"><ele>147.0</ele><time>2026-03-15T17:38:45.999Z</time></trkpt><trkpt lat="45.54247428158934" lon="10.053884008220557"><ele>147.0</ele><time>2026-03-15T17:38:46.999Z</time></trkpt><trkpt lat="45.542693100667144" lon="10.053931408825994"><ele>147.0</ele><time>2026-03-15T17:38:47.999Z</time></trkpt><trkpt lat="45.54291772489899" lon="10.053966071710118"><ele>147.0</ele><time>2026-03-15T17:38:48.999Z</time></trkpt><trkpt lat="45.54315039987312" lon="10.054000386287012"><ele>147.0</ele><time>2026-03-15T17:38:49.999Z</time></trkpt><trkpt lat="45.543380982211865" lon="10.054037782948265"><ele>147.0</ele><time>2026-03-15T17:38:50.999Z</time></trkpt><trkpt lat="45.54361619139433" lon="10.054076971121745"><ele>147.0</ele><time>2026-03-15T17:38:51.999Z</time></trkpt><trkpt lat="45.5438530964107" lon="10.054117739347202"><ele>147.0</ele><time>2026-03-15T17:38:52.999Z</time></trkpt><trkpt lat="45.54409325059964" lon="10.054157958517305"><ele>147.0</ele><time>2026-03-15T17:38:53.999Z</time></trkpt><trkpt lat="45.54433475222335" lon="10.054198745667026"><ele>147.5</ele><time>2026-03-15T17:38:54.999Z</time></trkpt><trkpt lat="45.544582070447234" lon="10.054240002899848"><ele>148.0</ele><time>2026-03-15T17:38:55.999Z</time></trkpt><trkpt lat="45.54483057917727" lon="10.054282753201162"><ele>148.0</ele><time>2026-03-15T17:38:56.999Z</time></trkpt><trkpt lat="45.54507621469221" lon="10.054325711920164"><ele>148.0</ele><time>2026-03-15T17:38:57.999Z</time></trkpt><trkpt lat="45.54532708280959" lon="10.054360298267913"><ele>147.5</ele><time>2026-03-15T17:38:58.999Z</time></trkpt><trkpt lat="45.545575344722685" lon="10.054404187722694"><ele>147.0</ele><time>2026-03-15T17:38:59.999Z</time></trkpt><trkpt lat="45.545823558526706" lon="10.0544462122405"><ele>147.0</ele><time>2026-03-15T17:39:00.999Z</time></trkpt><trkpt lat="45.5460695918566" lon="10.054489050743515"><ele>147.0</ele><time>2026-03-15T17:39:01.999Z</time></trkpt><trkpt lat="45.54631377990579" lon="10.054534197240484"><ele>147.5</ele><time>2026-03-15T17:39:02.999Z</time></trkpt><trkpt lat="45.54655171520341" lon="10.054575231151164"><ele>148.0</ele><time>2026-03-15T17:39:03.999Z</time></trkpt><trkpt lat="45.54679428283524" lon="10.054615032307618"><ele>148.0</ele><time>2026-03-15T17:39:04.999Z</time></trkpt><trkpt lat="45.54703566737634" lon="10.054651989512537"><ele>148.0</ele><time>2026-03-15T17:39:05.999Z</time></trkpt><trkpt lat="45.547294511731145" lon="10.05469298279694"><ele>148.66666666666669</ele><time>2026-03-15T17:39:06.999Z</time></trkpt><trkpt lat="45.54750754166447" lon="10.05472468956113"><ele>149.33333333333334</ele><time>2026-03-15T17:39:07.999Z</time></trkpt><trkpt lat="45.54773970944764" lon="10.054771986023685"><ele>150.0</ele><time>2026-03-15T17:39:08.999Z</time></trkpt><trkpt lat="45.547970806672986" lon="10.054822714657767"><ele>150.0</ele><time>2026-03-15T17:39:09.999Z</time></trkpt><trkpt lat="45.548197533680536" lon="10.054844524962224"><ele>150.0</ele><time>2026-03-15T17:39:10.999Z</time></trkpt><trkpt lat="45.54843050924047" lon="10.05488026153127"><ele>150.0</ele><time>2026-03-15T17:39:11.998Z</time></trkpt><trkpt lat="45.54866584892292" lon="10.054923457487577"><ele>150.0</ele><time>2026-03-15T17:39:12.998Z</time></trkpt><trkpt lat="45.54890438153511" lon="10.05496327436944"><ele>150.5</ele><time>2026-03-15T17:39:13.998Z</time></trkpt><trkpt lat="45.549143080757275" lon="10.055006065095112"><ele>151.0</ele><time>2026-03-15T17:39:14.998Z</time></trkpt><trkpt lat="45.54938272006053" lon="10.055055702964495"><ele>150.5</ele><time>2026-03-15T17:39:15.998Z</time></trkpt><trkpt lat="45.54962028753581" lon="10.055111691386967"><ele>150.0</ele><time>2026-03-15T17:39:16.998Z</time></trkpt><trkpt lat="45.54985983900743" lon="10.055164110131782"><ele>150.0</ele><time>2026-03-15T17:39:17.998Z</time></trkpt><trkpt lat="45.55009591842474" lon="10.055225415551691"><ele>150.0</ele><time>2026-03-15T17:39:18.998Z</time></trkpt><trkpt lat="45.550329656149756" lon="10.055287868309195"><ele>151.5</ele><time>2026-03-15T17:39:19.998Z</time></trkpt><trkpt lat="45.55056292542522" lon="10.055355915137591"><ele>153.0</ele><time>2026-03-15T17:39:20.998Z</time></trkpt><trkpt lat="45.55078275614108" lon="10.055425486362324"><ele>153.0</ele><time>2026-03-15T17:39:21.998Z</time></trkpt><trkpt lat="45.55099042412949" lon="10.055495111089185"><ele>153.0</ele><time>2026-03-15T17:39:22.998Z</time></trkpt><trkpt lat="45.55120574034261" lon="10.055571229398783"><ele>153.0</ele><time>2026-03-15T17:39:23.998Z</time></trkpt><trkpt lat="45.55142248690603" lon="10.05565062964035"><ele>153.0</ele><time>2026-03-15T17:39:24.998Z</time></trkpt><trkpt lat="45.55163880571672" lon="10.055734037981027"><ele>153.0</ele><time>2026-03-15T17:39:25.998Z</time></trkpt><trkpt lat="45.551853952210706" lon="10.055826486969805"><ele>153.0</ele><time>2026-03-15T17:39:26.998Z</time></trkpt><trkpt lat="45.552069371016735" lon="10.055926773426268"><ele>153.0</ele><time>2026-03-15T17:39:27.998Z</time></trkpt><trkpt lat="45.552278959997174" lon="10.056028560765734"><ele>153.0</ele><time>2026-03-15T17:39:28.998Z</time></trkpt><trkpt lat="45.55248985586998" lon="10.056130553201209"><ele>153.0</ele><time>2026-03-15T17:39:29.998Z</time></trkpt><trkpt lat="45.55270240128873" lon="10.056234303694678"><ele>154.0</ele><time>2026-03-15T17:39:30.998Z</time></trkpt><trkpt lat="45.5529099721068" lon="10.056341586142791"><ele>155.0</ele><time>2026-03-15T17:39:31.998Z</time></trkpt><trkpt lat="45.55311505454632" lon="10.056453829380741"><ele>156.0</ele><time>2026-03-15T17:39:32.998Z</time></trkpt><trkpt lat="45.553320875572894" lon="10.056572716655449"><ele>156.0</ele><time>2026-03-15T17:39:33.998Z</time></trkpt><trkpt lat="45.55352712603648" lon="10.05669515611144"><ele>156.0</ele><time>2026-03-15T17:39:34.998Z</time></trkpt><trkpt lat="45.55372945433815" lon="10.056818422850423"><ele>156.0</ele><time>2026-03-15T17:39:35.998Z</time></trkpt><trkpt lat="45.553933594848196" lon="10.056950492595343"><ele>156.33333333333334</ele><time>2026-03-15T17:39:36.998Z</time></trkpt><trkpt lat="45.55413590222146" lon="10.057089006321528"><ele>156.66666666666669</ele><time>2026-03-15T17:39:37.998Z</time></trkpt><trkpt lat="45.55433554579724" lon="10.057227965909023"><ele>157.0</ele><time>2026-03-15T17:39:38.998Z</time></trkpt><trkpt lat="45.55453847342188" lon="10.05736782608195"><ele>157.33333333333334</ele><time>2026-03-15T17:39:39.998Z</time></trkpt><trkpt lat="45.55474153526114" lon="10.057504567969149"><ele>157.66666666666666</ele><time>2026-03-15T17:39:40.998Z</time></trkpt><trkpt lat="45.55493993630787" lon="10.057639747347405"><ele>158.0</ele><time>2026-03-15T17:39:41.998Z</time></trkpt><trkpt lat="45.55513808877625" lon="10.05778017089871"><ele>158.0</ele><time>2026-03-15T17:39:42.998Z</time></trkpt><trkpt lat="45.55533976127987" lon="10.057926328398299"><ele>158.0</ele><time>2026-03-15T17:39:43.998Z</time></trkpt><trkpt lat="45.555540107143955" lon="10.05806839334495"><ele>158.5</ele><time>2026-03-15T17:39:44.998Z</time></trkpt><trkpt lat="45.55574324883368" lon="10.058210932337044"><ele>159.0</ele><time>2026-03-15T17:39:45.998Z</time></trkpt><trkpt lat="45.55594482334009" lon="10.058348858612385"><ele>159.0</ele><time>2026-03-15T17:39:46.998Z</time></trkpt><trkpt lat="45.55615147556416" lon="10.05849058368156"><ele>159.0</ele><time>2026-03-15T17:39:47.998Z</time></trkpt><trkpt lat="45.55635879024594" lon="10.058631579967654"><ele>159.0</ele><time>2026-03-15T17:39:48.998Z</time></trkpt><trkpt lat="45.556565456605775" lon="10.058774755102704"><ele>159.0</ele><time>2026-03-15T17:39:49.998Z</time></trkpt><trkpt lat="45.55677265963844" lon="10.05892041328194"><ele>159.0</ele><time>2026-03-15T17:39:50.998Z</time></trkpt><trkpt lat="45.556977135420475" lon="10.05906197711139"><ele>159.0</ele><time>2026-03-15T17:39:51.998Z</time></trkpt><trkpt lat="45.55718327882505" lon="10.059202196163548"><ele>159.0</ele><time>2026-03-15T17:39:52.998Z</time></trkpt><trkpt lat="45.55738907819231" lon="10.0593434581029"><ele>159.0</ele><time>2026-03-15T17:39:53.998Z</time></trkpt><trkpt lat="45.557591988799395" lon="10.059484422629302"><ele>159.0</ele><time>2026-03-15T17:39:54.997Z</time></trkpt><trkpt lat="45.55779739749927" lon="10.059628053142472"><ele>159.0</ele><time>2026-03-15T17:39:55.997Z</time></trkpt><trkpt lat="45.55800427950037" lon="10.059776737201863"><ele>158.5</ele><time>2026-03-15T17:39:56.997Z</time></trkpt><trkpt lat="45.5582102767511" lon="10.059925733254097"><ele>158.0</ele><time>2026-03-15T17:39:57.997Z</time></trkpt><trkpt lat="45.55841899983519" lon="10.060073806427955"><ele>159.0</ele><time>2026-03-15T17:39:58.997Z</time></trkpt><trkpt lat="45.5586319929064" lon="10.060221989082375"><ele>160.0</ele><time>2026-03-15T17:39:59.997Z</time></trkpt><trkpt lat="45.558842394177034" lon="10.060366183959477"><ele>160.0</ele><time>2026-03-15T17:40:00.997Z</time></trkpt><trkpt lat="45.55905698511683" lon="10.060515384394119"><ele>160.0</ele><time>2026-03-15T17:40:01.997Z</time></trkpt><trkpt lat="45.559267911024975" lon="10.060662576648689"><ele>160.0</ele><time>2026-03-15T17:40:02.997Z</time></trkpt><trkpt lat="45.55947866347074" lon="10.060809768117183"><ele>160.0</ele><time>2026-03-15T17:40:03.997Z</time></trkpt><trkpt lat="45.559691200638994" lon="10.060958073479924"><ele>160.0</ele><time>2026-03-15T17:40:04.997Z</time></trkpt><trkpt lat="45.559905293349274" lon="10.061111163583776"><ele>160.0</ele><time>2026-03-15T17:40:05.997Z</time></trkpt><trkpt lat="45.56011956113424" lon="10.061263685941839"><ele>160.0</ele><time>2026-03-15T17:40:06.997Z</time></trkpt><trkpt lat="45.56033426164759" lon="10.061414319692478"><ele>160.0</ele><time>2026-03-15T17:40:07.997Z</time></trkpt><trkpt lat="45.560545808169344" lon="10.061560482204975"><ele>159.0</ele><time>2026-03-15T17:40:08.997Z</time></trkpt><trkpt lat="45.56076431729453" lon="10.06170870164596"><ele>158.0</ele><time>2026-03-15T17:40:10Z</time></trkpt><trkpt lat="45.560979184600946" lon="10.061857013596386"><ele>158.0</ele><time>2026-03-15T17:40:11Z</time></trkpt><trkpt lat="45.561192045787465" lon="10.06200644708338"><ele>158.0</ele><time>2026-03-15T17:40:12Z</time></trkpt><trkpt lat="45.561408031432734" lon="10.062154821419398"><ele>159.0</ele><time>2026-03-15T17:40:13Z</time></trkpt><trkpt lat="45.56162450812332" lon="10.06230364448989"><ele>160.0</ele><time>2026-03-15T17:40:14Z</time></trkpt><trkpt lat="45.561840053836455" lon="10.062449708516686"><ele>160.0</ele><time>2026-03-15T17:40:15Z</time></trkpt><trkpt lat="45.56205413564245" lon="10.062598448767408"><ele>160.0</ele><time>2026-03-15T17:40:16Z</time></trkpt><trkpt lat="45.56226668943159" lon="10.062748702772735"><ele>160.0</ele><time>2026-03-15T17:40:17Z</time></trkpt><trkpt lat="45.562480981882814" lon="10.062898984576279"><ele>160.0</ele><time>2026-03-15T17:40:18Z</time></trkpt><trkpt lat="45.56269331636908" lon="10.063046705816447"><ele>160.5</ele><time>2026-03-15T17:40:19Z</time></trkpt><trkpt lat="45.562903742383895" lon="10.063191602597044"><ele>161.0</ele><time>2026-03-15T17:40:20Z</time></trkpt><trkpt lat="45.5631110408818" lon="10.06333532939569"><ele>161.0</ele><time>2026-03-15T17:40:21Z</time></trkpt><trkpt lat="45.56331992056477" lon="10.06348088828348"><ele>161.0</ele><time>2026-03-15T17:40:22Z</time></trkpt><trkpt lat="45.5635219540807" lon="10.063622045925563"><ele>162.0</ele><time>2026-03-15T17:40:23Z</time></trkpt><trkpt lat="45.56372699141351" lon="10.063763755267495"><ele>163.0</ele><time>2026-03-15T17:40:24Z</time></trkpt><trkpt lat="45.56392922879626" lon="10.063903787969272"><ele>163.0</ele><time>2026-03-15T17:40:25Z</time></trkpt><trkpt lat="45.56412773035563" lon="10.064044834090497"><ele>163.0</ele><time>2026-03-15T17:40:26Z</time></trkpt><trkpt lat="45.56432734178658" lon="10.064187278550957"><ele>163.0</ele><time>2026-03-15T17:40:27Z</time></trkpt><trkpt lat="45.564527202568364" lon="10.064326098232822"><ele>163.66666666666669</ele><time>2026-03-15T17:40:28Z</time></trkpt><trkpt lat="45.564727783767566" lon="10.064464357343672"><ele>164.33333333333334</ele><time>2026-03-15T17:40:29Z</time></trkpt><trkpt lat="45.56492545889708" lon="10.064599909959627"><ele>165.0</ele><time>2026-03-15T17:40:30Z</time></trkpt><trkpt lat="45.56512556636614" lon="10.064737836726094"><ele>165.0</ele><time>2026-03-15T17:40:31Z</time></trkpt><trkpt lat="45.56532594159562" lon="10.064871379914708"><ele>165.0</ele><time>2026-03-15T17:40:32Z</time></trkpt><trkpt lat="45.5655258257119" lon="10.065002313826144"><ele>165.0</ele><time>2026-03-15T17:40:33Z</time></trkpt><trkpt lat="45.5657261711514" lon="10.065134479746566"><ele>165.0</ele><time>2026-03-15T17:40:34Z</time></trkpt><trkpt lat="45.56592545683404" lon="10.065266969121915"><ele>165.0</ele><time>2026-03-15T17:40:35Z</time></trkpt><trkpt lat="45.566126007432736" lon="10.065406816864357"><ele>165.0</ele><time>2026-03-15T17:40:36Z</time></trkpt><trkpt lat="45.56632089954917" lon="10.06554467115825"><ele>165.33333333333334</ele><time>2026-03-15T17:40:37Z</time></trkpt><trkpt lat="45.56651725270541" lon="10.06568318892304"><ele>165.66666666666669</ele><time>2026-03-15T17:40:38Z</time></trkpt><trkpt lat="45.56671300995673" lon="10.065822152392732"><ele>166.0</ele><time>2026-03-15T17:40:39Z</time></trkpt><trkpt lat="45.566908839051486" lon="10.065960051663907"><ele>165.66666666666669</ele><time>2026-03-15T17:40:40Z</time></trkpt><trkpt lat="45.56710212507207" lon="10.066094605274264"><ele>165.33333333333334</ele><time>2026-03-15T17:40:41Z</time></trkpt><trkpt lat="45.567298163096225" lon="10.066229333092732"><ele>165.0</ele><time>2026-03-15T17:40:42Z</time></trkpt><trkpt lat="45.56749703088222" lon="10.066365907716389"><ele>165.0</ele><time>2026-03-15T17:40:43Z</time></trkpt><trkpt lat="45.56769125852087" lon="10.066497741071089"><ele>165.0</ele><time>2026-03-15T17:40:44Z</time></trkpt><trkpt lat="45.5678874147556" lon="10.066634920523802"><ele>165.0</ele><time>2026-03-15T17:40:45Z</time></trkpt><trkpt lat="45.56808486960457" lon="10.066780180820743"><ele>165.0</ele><time>2026-03-15T17:40:46Z</time></trkpt><trkpt lat="45.568279191739066" lon="10.066922924397083"><ele>165.0</ele><time>2026-03-15T17:40:47Z</time></trkpt><trkpt lat="45.568477190091826" lon="10.067065550305461"><ele>165.0</ele><time>2026-03-15T17:40:48Z</time></trkpt><trkpt lat="45.56867760484529" lon="10.067207386956854"><ele>165.33333333333334</ele><time>2026-03-15T17:40:48.999Z</time></trkpt><trkpt lat="45.56887846406998" lon="10.067346279142543"><ele>165.66666666666669</ele><time>2026-03-15T17:40:49.999Z</time></trkpt><trkpt lat="45.569077828434274" lon="10.067482005997501"><ele>166.0</ele><time>2026-03-15T17:40:50.999Z</time></trkpt><trkpt lat="45.56927932128943" lon="10.067625575321694"><ele>166.0</ele><time>2026-03-15T17:40:51.999Z</time></trkpt><trkpt lat="45.56947952518664" lon="10.067770450115061"><ele>166.0</ele><time>2026-03-15T17:40:52.999Z</time></trkpt><trkpt lat="45.569677165946" lon="10.067915656132099"><ele>166.0</ele><time>2026-03-15T17:40:53.999Z</time></trkpt><trkpt lat="45.56987604246049" lon="10.068057137896359"><ele>166.33333333333334</ele><time>2026-03-15T17:40:54.999Z</time></trkpt><trkpt lat="45.5700723797713" lon="10.068192322193044"><ele>166.66666666666666</ele><time>2026-03-15T17:40:55.999Z</time></trkpt><trkpt lat="45.57025159949068" lon="10.068319974676667"><ele>167.0</ele><time>2026-03-15T17:40:56.999Z</time></trkpt><trkpt lat="45.57042065830903" lon="10.068443229339342"><ele>166.33333333333331</ele><time>2026-03-15T17:40:57.999Z</time></trkpt><trkpt lat="45.570573601106645" lon="10.068560444128037"><ele>165.66666666666666</ele><time>2026-03-15T17:40:58.999Z</time></trkpt><trkpt lat="45.570706244209795" lon="10.068667127949839"><ele>165.0</ele><time>2026-03-15T17:40:59.999Z</time></trkpt><trkpt lat="45.57083830920925" lon="10.068762804654146"><ele>165.0</ele><time>2026-03-15T17:41:00.999Z</time></trkpt><trkpt lat="45.570965536229174" lon="10.06884834454658"><ele>165.0</ele><time>2026-03-15T17:41:01.999Z</time></trkpt><trkpt lat="45.57108771586547" lon="10.06891552901779"><ele>165.0</ele><time>2026-03-15T17:41:02.999Z</time></trkpt><trkpt lat="45.571187784671004" lon="10.068986401144201"><ele>165.0</ele><time>2026-03-15T17:41:03.999Z</time></trkpt><trkpt lat="45.57127368513003" lon="10.069047238811184"><ele>165.0</ele><time>2026-03-15T17:41:04.999Z</time></trkpt><trkpt lat="45.57125189788004" lon="10.069364466997298"><ele>165.0</ele><time>2026-03-15T17:41:05.999Z</time></trkpt><trkpt lat="45.57123590653981" lon="10.069527879205658"><ele>165.0</ele><time>2026-03-15T17:41:06.999Z</time></trkpt><trkpt lat="45.57117861523567" lon="10.069681361008582"><ele>165.0</ele><time>2026-03-15T17:41:07.999Z</time></trkpt><trkpt lat="45.57108055989591" lon="10.069807399328763"><ele>165.0</ele><time>2026-03-15T17:41:08.999Z</time></trkpt><trkpt lat="45.57098447489793" lon="10.069924956414004"><ele>165.0</ele><time>2026-03-15T17:41:09.999Z</time></trkpt><trkpt lat="45.570774727511534" lon="10.069934497732854"><ele>165.0</ele><time>2026-03-15T17:41:10.999Z</time></trkpt><trkpt lat="45.5705750036411" lon="10.069959694115912"><ele>165.0</ele><time>2026-03-15T17:41:11.999Z</time></trkpt><trkpt lat="45.570358979484865" lon="10.069991578186754"><ele>165.0</ele><time>2026-03-15T17:41:12.999Z</time></trkpt><trkpt lat="45.570136951188076" lon="10.070041195357804"><ele>165.5</ele><time>2026-03-15T17:41:13.999Z</time></trkpt><trkpt lat="45.569914201011905" lon="10.070093440378734"><ele>166.0</ele><time>2026-03-15T17:41:14.999Z</time></trkpt><trkpt lat="45.56969138382178" lon="10.070141069321535"><ele>165.33333333333334</ele><time>2026-03-15T17:41:15.999Z</time></trkpt><trkpt lat="45.56949065753799" lon="10.070180735666026"><ele>164.66666666666666</ele><time>2026-03-15T17:41:16.999Z</time></trkpt><trkpt lat="45.569306185134614" lon="10.070220144314774"><ele>164.0</ele><time>2026-03-15T17:41:17.999Z</time></trkpt><trkpt lat="45.56914298148687" lon="10.07025375396201"><ele>164.0</ele><time>2026-03-15T17:41:18.999Z</time></trkpt><trkpt lat="45.56899222180898" lon="10.07028530614086"><ele>164.0</ele><time>2026-03-15T17:41:19.999Z</time></trkpt><trkpt lat="45.56885758245663" lon="10.070313193802"><ele>164.0</ele><time>2026-03-15T17:41:20.999Z</time></trkpt><trkpt lat="45.56873513693533" lon="10.070320040285415"><ele>164.0</ele><time>2026-03-15T17:41:21.999Z</time></trkpt><trkpt lat="45.56862164445392" lon="10.070297441077058"><ele>164.0</ele><time>2026-03-15T17:41:22.999Z</time></trkpt><trkpt lat="45.56851965342411" lon="10.07025552329452"><ele>164.0</ele><time>2026-03-15T17:41:23.999Z</time></trkpt><trkpt lat="45.568420144164655" lon="10.070214850085907"><ele>164.0</ele><time>2026-03-15T17:41:24.999Z</time></trkpt><trkpt lat="45.56831051442877" lon="10.070187340166148"><ele>164.0</ele><time>2026-03-15T17:41:25.999Z</time></trkpt><trkpt lat="45.56820590881232" lon="10.070189998651653"><ele>164.0</ele><time>2026-03-15T17:41:26.999Z</time></trkpt><trkpt lat="45.568117306259225" lon="10.070236893818148"><ele>164.0</ele><time>2026-03-15T17:41:27.999Z</time></trkpt><trkpt lat="45.56802048331875" lon="10.070296515769444"><ele>164.0</ele><time>2026-03-15T17:41:28.999Z</time></trkpt><trkpt lat="45.5679099119483" lon="10.070343044030922"><ele>164.0</ele><time>2026-03-15T17:41:29.999Z</time></trkpt><trkpt lat="45.56780701508566" lon="10.070407377151609"><ele>164.0</ele><time>2026-03-15T17:41:30.999Z</time></trkpt><trkpt lat="45.56772880519677" lon="10.070473364619103"><ele>164.0</ele><time>2026-03-15T17:41:31.999Z</time></trkpt><trkpt lat="45.56761721963831" lon="10.070503805122243"><ele>163.83333333333331</ele><time>2026-03-15T17:41:32.998Z</time></trkpt><trkpt lat="45.56753852944164" lon="10.07051332181153"><ele>163.66666666666666</ele><time>2026-03-15T17:41:33.998Z</time></trkpt><trkpt lat="45.56746710635878" lon="10.070520860487747"><ele>163.5</ele><time>2026-03-15T17:41:34.998Z</time></trkpt><trkpt lat="45.567396964663544" lon="10.07052658345438"><ele>163.33333333333334</ele><time>2026-03-15T17:41:35.998Z</time></trkpt><trkpt lat="45.56729622812527" lon="10.070531050170773"><ele>163.16666666666669</ele><time>2026-03-15T17:41:37.998Z</time></trkpt><trkpt lat="45.56721672580043" lon="10.070530501609912"><ele>163.0</ele><time>2026-03-15T17:41:39.998Z</time></trkpt><trkpt lat="45.56711106341477" lon="10.070529772543107"><ele>163.0</ele><time>2026-03-15T17:41:41.998Z</time></trkpt><trkpt lat="45.56703259466767" lon="10.070516439844793"><ele>163.0</ele><time>2026-03-15T17:41:42.998Z</time></trkpt><trkpt lat="45.566953401667064" lon="10.070502383309927"><ele>163.0</ele><time>2026-03-15T17:41:43.998Z</time></trkpt><trkpt lat="45.566848321677895" lon="10.070482626108744"><ele>163.0</ele><time>2026-03-15T17:41:44.998Z</time></trkpt><trkpt lat="45.56671315457363" lon="10.070449795144203"><ele>163.0</ele><time>2026-03-15T17:41:45.998Z</time></trkpt><trkpt lat="45.56657520328679" lon="10.070409924189287"><ele>162.66666666666669</ele><time>2026-03-15T17:41:46.998Z</time></trkpt><trkpt lat="45.56645856396263" lon="10.070282230293664"><ele>162.33333333333334</ele><time>2026-03-15T17:41:47.998Z</time></trkpt><trkpt lat="45.56632322075086" lon="10.070220367920012"><ele>162.0</ele><time>2026-03-15T17:41:48.998Z</time></trkpt><trkpt lat="45.56617493399389" lon="10.070124884923253"><ele>162.66666666666666</ele><time>2026-03-15T17:41:49.998Z</time></trkpt><trkpt lat="45.56602874355794" lon="10.07000241082273"><ele>163.33333333333331</ele><time>2026-03-15T17:41:50.998Z</time></trkpt><trkpt lat="45.56590860493255" lon="10.069859702254346"><ele>164.0</ele><time>2026-03-15T17:41:51.998Z</time></trkpt><trkpt lat="45.56582610707326" lon="10.0696937053585"><ele>164.0</ele><time>2026-03-15T17:41:52.998Z</time></trkpt><trkpt lat="45.565765725414295" lon="10.069503272269866"><ele>164.0</ele><time>2026-03-15T17:41:53.998Z</time></trkpt><trkpt lat="45.56571911805251" lon="10.069290898356549"><ele>164.0</ele><time>2026-03-15T17:41:54.998Z</time></trkpt><trkpt lat="45.565713939738686" lon="10.0690528216859"><ele>163.66666666666666</ele><time>2026-03-15T17:41:55.998Z</time></trkpt><trkpt lat="45.56574637661389" lon="10.068779516561866"><ele>163.33333333333334</ele><time>2026-03-15T17:41:56.998Z</time></trkpt><trkpt lat="45.56580721143958" lon="10.068475223759314"><ele>163.0</ele><time>2026-03-15T17:41:57.998Z</time></trkpt><trkpt lat="45.56585564391759" lon="10.068155772020068"><ele>163.0</ele><time>2026-03-15T17:41:58.998Z</time></trkpt><trkpt lat="45.56591307557537" lon="10.067843890308914"><ele>163.0</ele><time>2026-03-15T17:41:59.998Z</time></trkpt><trkpt lat="45.565984013099175" lon="10.067529331748052"><ele>162.5</ele><time>2026-03-15T17:42:00.998Z</time></trkpt><trkpt lat="45.56603517311931" lon="10.067196737825162"><ele>162.0</ele><time>2026-03-15T17:42:01.998Z</time></trkpt><trkpt lat="45.56608166130422" lon="10.066875404082385"><ele>163.5</ele><time>2026-03-15T17:42:02.998Z</time></trkpt><trkpt lat="45.56612870464017" lon="10.06656535672172"><ele>165.0</ele><time>2026-03-15T17:42:03.998Z</time></trkpt><trkpt lat="45.56618347305628" lon="10.066237653390393"><ele>165.5</ele><time>2026-03-15T17:42:04.998Z</time></trkpt><trkpt lat="45.56624505046883" lon="10.06589585170248"><ele>166.0</ele><time>2026-03-15T17:42:05.998Z</time></trkpt><trkpt lat="45.56630954537027" lon="10.065550290909753"><ele>166.0</ele><time>2026-03-15T17:42:06.998Z</time></trkpt><trkpt lat="45.56637626022173" lon="10.06519428505057"><ele>166.0</ele><time>2026-03-15T17:42:07.998Z</time></trkpt><trkpt lat="45.5664310616835" lon="10.064852488292493"><ele>165.0</ele><time>2026-03-15T17:42:08.998Z</time></trkpt><trkpt lat="45.566499709057744" lon="10.064509290630674"><ele>164.0</ele><time>2026-03-15T17:42:09.998Z</time></trkpt><trkpt lat="45.56656173143158" lon="10.06417664193904"><ele>164.0</ele><time>2026-03-15T17:42:10.998Z</time></trkpt><trkpt lat="45.56662444750563" lon="10.063836689036165"><ele>164.0</ele><time>2026-03-15T17:42:11.998Z</time></trkpt><trkpt lat="45.56669120533658" lon="10.063489102100704"><ele>164.0</ele><time>2026-03-15T17:42:12.998Z</time></trkpt><trkpt lat="45.566757390658175" lon="10.063136857952948"><ele>164.0</ele><time>2026-03-15T17:42:13.998Z</time></trkpt><trkpt lat="45.56682388854766" lon="10.06277941362212"><ele>164.5</ele><time>2026-03-15T17:42:15Z</time></trkpt><trkpt lat="45.56688749205274" lon="10.062423459197769"><ele>165.0</ele><time>2026-03-15T17:42:16Z</time></trkpt><trkpt lat="45.56695237614157" lon="10.062062881120546"><ele>165.0</ele><time>2026-03-15T17:42:17Z</time></trkpt><trkpt lat="45.567017164091595" lon="10.061704210002437"><ele>165.0</ele><time>2026-03-15T17:42:18Z</time></trkpt><trkpt lat="45.56708290374522" lon="10.06134286562442"><ele>165.5</ele><time>2026-03-15T17:42:19Z</time></trkpt><trkpt lat="45.567150467799536" lon="10.060985134790325"><ele>166.0</ele><time>2026-03-15T17:42:20Z</time></trkpt><trkpt lat="45.567218891840334" lon="10.060619932197397"><ele>166.0</ele><time>2026-03-15T17:42:21Z</time></trkpt><trkpt lat="45.56728709861293" lon="10.060263417247441"><ele>166.0</ele><time>2026-03-15T17:42:22Z</time></trkpt><trkpt lat="45.56735555785328" lon="10.059901899034061"><ele>165.5</ele><time>2026-03-15T17:42:23Z</time></trkpt><trkpt lat="45.56742416551389" lon="10.059543388042341"><ele>165.0</ele><time>2026-03-15T17:42:24Z</time></trkpt><trkpt lat="45.56749100306999" lon="10.059184176246093"><ele>166.5</ele><time>2026-03-15T17:42:25Z</time></trkpt><trkpt lat="45.567557929632265" lon="10.058822692013578"><ele>168.0</ele><time>2026-03-15T17:42:26Z</time></trkpt><trkpt lat="45.56762288592017" lon="10.058462111579827"><ele>167.5</ele><time>2026-03-15T17:42:27Z</time></trkpt><trkpt lat="45.56768862614514" lon="10.058102676628723"><ele>167.0</ele><time>2026-03-15T17:42:28Z</time></trkpt><trkpt lat="45.567754794297585" lon="10.057737186673423"><ele>166.5</ele><time>2026-03-15T17:42:29Z</time></trkpt><trkpt lat="45.56782079671399" lon="10.057378295836578"><ele>166.0</ele><time>2026-03-15T17:42:30Z</time></trkpt><trkpt lat="45.56788664025294" lon="10.057012269125583"><ele>166.5</ele><time>2026-03-15T17:42:31Z</time></trkpt><trkpt lat="45.56795261608083" lon="10.056662262550677"><ele>167.0</ele><time>2026-03-15T17:42:32Z</time></trkpt><trkpt lat="45.56801491837601" lon="10.05631547107674"><ele>167.0</ele><time>2026-03-15T17:42:33Z</time></trkpt><trkpt lat="45.568077675449175" lon="10.055971687417971"><ele>167.0</ele><time>2026-03-15T17:42:34Z</time></trkpt><trkpt lat="45.56814043237979" lon="10.055635670541388"><ele>168.5</ele><time>2026-03-15T17:42:35Z</time></trkpt><trkpt lat="45.56819846359064" lon="10.055306570700758"><ele>170.0</ele><time>2026-03-15T17:42:36Z</time></trkpt><trkpt lat="45.5682594844876" lon="10.054967812742102"><ele>169.5</ele><time>2026-03-15T17:42:37Z</time></trkpt><trkpt lat="45.56832191353904" lon="10.05462642299873"><ele>169.0</ele><time>2026-03-15T17:42:38Z</time></trkpt><trkpt lat="45.5683837702083" lon="10.054287287195281"><ele>169.0</ele><time>2026-03-15T17:42:39Z</time></trkpt><trkpt lat="45.56844409617782" lon="10.053951654509431"><ele>169.0</ele><time>2026-03-15T17:42:40Z</time></trkpt><trkpt lat="45.56850493548142" lon="10.053610989360797"><ele>169.5</ele><time>2026-03-15T17:42:41Z</time></trkpt><trkpt lat="45.56856893613851" lon="10.053265382020424"><ele>170.0</ele><time>2026-03-15T17:42:42Z</time></trkpt><trkpt lat="45.56863453188981" lon="10.052918017074186"><ele>171.0</ele><time>2026-03-15T17:42:43Z</time></trkpt><trkpt lat="45.56870116051474" lon="10.052561688247675"><ele>172.0</ele><time>2026-03-15T17:42:44Z</time></trkpt><trkpt lat="45.568769199520645" lon="10.05220433051841"><ele>172.0</ele><time>2026-03-15T17:42:45Z</time></trkpt><trkpt lat="45.568835116560095" lon="10.051843699657839"><ele>172.0</ele><time>2026-03-15T17:42:46Z</time></trkpt><trkpt lat="45.56890297409952" lon="10.051476436764457"><ele>171.5</ele><time>2026-03-15T17:42:47Z</time></trkpt><trkpt lat="45.568971516796005" lon="10.051109975106066"><ele>171.0</ele><time>2026-03-15T17:42:48Z</time></trkpt><trkpt lat="45.56904027723074" lon="10.050745628830345"><ele>171.0</ele><time>2026-03-15T17:42:49Z</time></trkpt><trkpt lat="45.56911015266281" lon="10.050379737537162"><ele>171.0</ele><time>2026-03-15T17:42:50Z</time></trkpt><trkpt lat="45.569178774735" lon="10.050012877867509"><ele>171.0</ele><time>2026-03-15T17:42:51Z</time></trkpt><trkpt lat="45.56924444602266" lon="10.04964797345104"><ele>171.0</ele><time>2026-03-15T17:42:52Z</time></trkpt><trkpt lat="45.56930975187357" lon="10.049283004025186"><ele>171.5</ele><time>2026-03-15T17:42:53Z</time></trkpt><trkpt lat="45.5693752827056" lon="10.04892491429026"><ele>172.0</ele><time>2026-03-15T17:42:54Z</time></trkpt><trkpt lat="45.56944118745446" lon="10.04855967867097"><ele>172.0</ele><time>2026-03-15T17:42:55Z</time></trkpt><trkpt lat="45.56950785486685" lon="10.048199796911465"><ele>172.0</ele><time>2026-03-15T17:42:56Z</time></trkpt><trkpt lat="45.56957311983771" lon="10.047840836646449"><ele>172.5</ele><time>2026-03-15T17:42:57Z</time></trkpt><trkpt lat="45.56963862797228" lon="10.047481603584277"><ele>173.0</ele><time>2026-03-15T17:42:58Z</time></trkpt><trkpt lat="45.569703982693994" lon="10.047122179090245"><ele>173.5</ele><time>2026-03-15T17:42:58.999Z</time></trkpt><trkpt lat="45.56977024415947" lon="10.046764859282638"><ele>174.0</ele><time>2026-03-15T17:42:59.999Z</time></trkpt><trkpt lat="45.56983659468324" lon="10.046405937393345"><ele>173.0</ele><time>2026-03-15T17:43:00.999Z</time></trkpt><trkpt lat="45.56990327376755" lon="10.046048607970697"><ele>172.0</ele><time>2026-03-15T17:43:01.999Z</time></trkpt><trkpt lat="45.569971295309045" lon="10.045692530901446"><ele>172.0</ele><time>2026-03-15T17:43:02.999Z</time></trkpt><trkpt lat="45.57003898264972" lon="10.045334359063366"><ele>172.0</ele><time>2026-03-15T17:43:03.999Z</time></trkpt><trkpt lat="45.570105094243324" lon="10.044974777584613"><ele>172.5</ele><time>2026-03-15T17:43:04.999Z</time></trkpt><trkpt lat="45.57017084443128" lon="10.044616943584792"><ele>173.0</ele><time>2026-03-15T17:43:05.998Z</time></trkpt><trkpt lat="45.57023594706519" lon="10.044255117444008"><ele>172.5</ele><time>2026-03-15T17:43:06.998Z</time></trkpt><trkpt lat="45.57030028010248" lon="10.043900308257568"><ele>172.0</ele><time>2026-03-15T17:43:07.998Z</time></trkpt><trkpt lat="45.57036469149179" lon="10.043535706692957"><ele>173.5</ele><time>2026-03-15T17:43:08.998Z</time></trkpt><trkpt lat="45.57043380531754" lon="10.043173565479407"><ele>175.0</ele><time>2026-03-15T17:43:09.998Z</time></trkpt><trkpt lat="45.570502160627164" lon="10.042814104584926"><ele>174.0</ele><time>2026-03-15T17:43:10.998Z</time></trkpt><trkpt lat="45.570567774583935" lon="10.042453374616215"><ele>173.0</ele><time>2026-03-15T17:43:11.998Z</time></trkpt><trkpt lat="45.57063252073755" lon="10.042091901836887"><ele>173.0</ele><time>2026-03-15T17:43:12.998Z</time></trkpt><trkpt lat="45.57069849769491" lon="10.041734988524079"><ele>173.0</ele><time>2026-03-15T17:43:13.998Z</time></trkpt><trkpt lat="45.57076459436332" lon="10.04137179179449"><ele>174.0</ele><time>2026-03-15T17:43:14.998Z</time></trkpt><trkpt lat="45.570830127370606" lon="10.041009582310384"><ele>175.0</ele><time>2026-03-15T17:43:15.998Z</time></trkpt><trkpt lat="45.57089586772702" lon="10.04065128579127"><ele>175.5</ele><time>2026-03-15T17:43:16.998Z</time></trkpt><trkpt lat="45.57096246374055" lon="10.04028914705765"><ele>176.0</ele><time>2026-03-15T17:43:17.998Z</time></trkpt><trkpt lat="45.571029817661525" lon="10.039927815069712"><ele>176.0</ele><time>2026-03-15T17:43:18.998Z</time></trkpt><trkpt lat="45.57109876115998" lon="10.039564846946897"><ele>176.0</ele><time>2026-03-15T17:43:19.998Z</time></trkpt><trkpt lat="45.57116693559159" lon="10.039210071956218"><ele>176.0</ele><time>2026-03-15T17:43:20.998Z</time></trkpt><trkpt lat="45.571229252398346" lon="10.038881606296368"><ele>176.0</ele><time>2026-03-15T17:43:21.998Z</time></trkpt><trkpt lat="45.571287876182446" lon="10.038566808200972"><ele>176.0</ele><time>2026-03-15T17:43:22.998Z</time></trkpt><trkpt lat="45.57134511692422" lon="10.038252607019148"><ele>176.0</ele><time>2026-03-15T17:43:23.998Z</time></trkpt><trkpt lat="45.57140330475577" lon="10.037924955798806"><ele>176.0</ele><time>2026-03-15T17:43:24.998Z</time></trkpt><trkpt lat="45.57146268245094" lon="10.037592108866972"><ele>176.0</ele><time>2026-03-15T17:43:25.998Z</time></trkpt><trkpt lat="45.57152630341406" lon="10.037252348468996"><ele>176.0</ele><time>2026-03-15T17:43:26.998Z</time></trkpt><trkpt lat="45.571590822403536" lon="10.036908560521047"><ele>176.0</ele><time>2026-03-15T17:43:27.998Z</time></trkpt><trkpt lat="45.57165572848871" lon="10.036559511289521"><ele>174.5</ele><time>2026-03-15T17:43:28.998Z</time></trkpt><trkpt lat="45.57171915326849" lon="10.036206997971677"><ele>173.0</ele><time>2026-03-15T17:43:29.998Z</time></trkpt><trkpt lat="45.57178159463994" lon="10.035852607134354"><ele>173.5</ele><time>2026-03-15T17:43:30.998Z</time></trkpt><trkpt lat="45.571843946307396" lon="10.035496944488164"><ele>174.0</ele><time>2026-03-15T17:43:31.998Z</time></trkpt><trkpt lat="45.571909839575476" lon="10.035140996720322"><ele>174.5</ele><time>2026-03-15T17:43:32.998Z</time></trkpt><trkpt lat="45.571978472558435" lon="10.034780142659459"><ele>175.0</ele><time>2026-03-15T17:43:33.998Z</time></trkpt><trkpt lat="45.57204496882935" lon="10.034422389299467"><ele>175.5</ele><time>2026-03-15T17:43:34.998Z</time></trkpt><trkpt lat="45.572114502564375" lon="10.034057728542663"><ele>176.0</ele><time>2026-03-15T17:43:35.998Z</time></trkpt><trkpt lat="45.57218365190194" lon="10.033695822572394"><ele>176.0</ele><time>2026-03-15T17:43:36.998Z</time></trkpt><trkpt lat="45.572249421026804" lon="10.033333026805805"><ele>176.0</ele><time>2026-03-15T17:43:37.998Z</time></trkpt><trkpt lat="45.572314212544875" lon="10.03297157949652"><ele>176.0</ele><time>2026-03-15T17:43:38.998Z</time></trkpt><trkpt lat="45.572379818833724" lon="10.032606549485282"><ele>176.0</ele><time>2026-03-15T17:43:39.998Z</time></trkpt><trkpt lat="45.57244650410971" lon="10.032240798960377"><ele>176.0</ele><time>2026-03-15T17:43:40.998Z</time></trkpt><trkpt lat="45.57251398565117" lon="10.031875717720776"><ele>176.0</ele><time>2026-03-15T17:43:41.998Z</time></trkpt><trkpt lat="45.57258094922362" lon="10.031513845004772"><ele>177.0</ele><time>2026-03-15T17:43:42.998Z</time></trkpt><trkpt lat="45.57264586288583" lon="10.031155834584645"><ele>178.0</ele><time>2026-03-15T17:43:43.998Z</time></trkpt><trkpt lat="45.57271315940357" lon="10.03079107354901"><ele>178.5</ele><time>2026-03-15T17:43:44.998Z</time></trkpt><trkpt lat="45.57277877293701" lon="10.03043429282496"><ele>179.0</ele><time>2026-03-15T17:43:45.998Z</time></trkpt><trkpt lat="45.572848814691575" lon="10.030072221740756"><ele>178.0</ele><time>2026-03-15T17:43:46.998Z</time></trkpt><trkpt lat="45.57291633530552" lon="10.029715323639495"><ele>177.0</ele><time>2026-03-15T17:43:47.998Z</time></trkpt><trkpt lat="45.572983445840315" lon="10.029356722278397"><ele>177.0</ele><time>2026-03-15T17:43:48.997Z</time></trkpt><trkpt lat="45.57304905324006" lon="10.028995444375315"><ele>177.0</ele><time>2026-03-15T17:43:49.997Z</time></trkpt><trkpt lat="45.573114945037084" lon="10.028634784878646"><ele>177.0</ele><time>2026-03-15T17:43:50.997Z</time></trkpt><trkpt lat="45.573182546242066" lon="10.028271719832368"><ele>177.0</ele><time>2026-03-15T17:43:51.997Z</time></trkpt><trkpt lat="45.57324903641966" lon="10.027915127553225"><ele>177.0</ele><time>2026-03-15T17:43:52.997Z</time></trkpt><trkpt lat="45.57331165353301" lon="10.027555903634891"><ele>177.0</ele><time>2026-03-15T17:43:53.997Z</time></trkpt><trkpt lat="45.5733749147009" lon="10.027194844605962"><ele>177.5</ele><time>2026-03-15T17:43:54.997Z</time></trkpt><trkpt lat="45.57343530011945" lon="10.026841644315047"><ele>178.0</ele><time>2026-03-15T17:43:55.997Z</time></trkpt><trkpt lat="45.57350051293449" lon="10.026480240692493"><ele>178.0</ele><time>2026-03-15T17:43:56.997Z</time></trkpt><trkpt lat="45.57356472309459" lon="10.026122523697401"><ele>178.0</ele><time>2026-03-15T17:43:57.997Z</time></trkpt><trkpt lat="45.57362923376701" lon="10.025767798140405"><ele>179.5</ele><time>2026-03-15T17:43:58.997Z</time></trkpt><trkpt lat="45.57369772756931" lon="10.02540252615295"><ele>181.0</ele><time>2026-03-15T17:43:59.997Z</time></trkpt><trkpt lat="45.57376350440772" lon="10.025046752451303"><ele>180.0</ele><time>2026-03-15T17:44:00.997Z</time></trkpt><trkpt lat="45.57382763705031" lon="10.02468417199993"><ele>179.0</ele><time>2026-03-15T17:44:01.997Z</time></trkpt><trkpt lat="45.57388887777652" lon="10.024336444726483"><ele>179.0</ele><time>2026-03-15T17:44:02.997Z</time></trkpt><trkpt lat="45.57394869991412" lon="10.024011582203745"><ele>179.0</ele><time>2026-03-15T17:44:03.997Z</time></trkpt><trkpt lat="45.57400386377915" lon="10.023714836622094"><ele>179.0</ele><time>2026-03-15T17:44:04.997Z</time></trkpt><trkpt lat="45.57405493495455" lon="10.023426717078747"><ele>179.0</ele><time>2026-03-15T17:44:05.997Z</time></trkpt><trkpt lat="45.574107199936805" lon="10.023142813156324"><ele>179.0</ele><time>2026-03-15T17:44:06.997Z</time></trkpt><trkpt lat="45.574168215858116" lon="10.022835810564239"><ele>178.5</ele><time>2026-03-15T17:44:07.997Z</time></trkpt><trkpt lat="45.57423158401383" lon="10.022520668544013"><ele>178.0</ele><time>2026-03-15T17:44:08.997Z</time></trkpt><trkpt lat="45.574294886594224" lon="10.022199625753254"><ele>178.0</ele><time>2026-03-15T17:44:09.997Z</time></trkpt><trkpt lat="45.57435570722119" lon="10.02187326123591"><ele>178.0</ele><time>2026-03-15T17:44:10.997Z</time></trkpt><trkpt lat="45.574417283023344" lon="10.021544116588197"><ele>178.5</ele><time>2026-03-15T17:44:11.997Z</time></trkpt><trkpt lat="45.574481203576276" lon="10.021208437162011"><ele>179.0</ele><time>2026-03-15T17:44:12.997Z</time></trkpt><trkpt lat="45.57454753024378" lon="10.020870099780655"><ele>180.0</ele><time>2026-03-15T17:44:13.997Z</time></trkpt><trkpt lat="45.57461334555011" lon="10.020538153395922"><ele>181.0</ele><time>2026-03-15T17:44:14.997Z</time></trkpt><trkpt lat="45.574677041545556" lon="10.020228624312567"><ele>180.0</ele><time>2026-03-15T17:44:15.997Z</time></trkpt><trkpt lat="45.574747063627925" lon="10.0199147706062"><ele>179.0</ele><time>2026-03-15T17:44:16.997Z</time></trkpt><trkpt lat="45.574818808876344" lon="10.019597888582936"><ele>179.0</ele><time>2026-03-15T17:44:17.997Z</time></trkpt><trkpt lat="45.5748912420221" lon="10.019257897363078"><ele>179.0</ele><time>2026-03-15T17:44:18.997Z</time></trkpt><trkpt lat="45.57495915646585" lon="10.018923317447006"><ele>179.0</ele><time>2026-03-15T17:44:19.997Z</time></trkpt><trkpt lat="45.57502967828973" lon="10.018580938193708"><ele>179.0</ele><time>2026-03-15T17:44:21Z</time></trkpt><trkpt lat="45.57510209720145" lon="10.018238851608574"><ele>179.0</ele><time>2026-03-15T17:44:22Z</time></trkpt><trkpt lat="45.57517518565684" lon="10.01789687782115"><ele>179.0</ele><time>2026-03-15T17:44:23Z</time></trkpt><trkpt lat="45.57524858941836" lon="10.017554418426842"><ele>179.5</ele><time>2026-03-15T17:44:24Z</time></trkpt><trkpt lat="45.57532176887794" lon="10.017210579313527"><ele>180.0</ele><time>2026-03-15T17:44:25Z</time></trkpt><trkpt lat="45.575389271231316" lon="10.016877799788912"><ele>180.5</ele><time>2026-03-15T17:44:26Z</time></trkpt><trkpt lat="45.575453501197394" lon="10.016551730272433"><ele>181.0</ele><time>2026-03-15T17:44:27Z</time></trkpt><trkpt lat="45.5755148966724" lon="10.016200626279073"><ele>181.0</ele><time>2026-03-15T17:44:28Z</time></trkpt><trkpt lat="45.5755723439675" lon="10.015841684406272"><ele>181.0</ele><time>2026-03-15T17:44:29Z</time></trkpt><trkpt lat="45.57563465878634" lon="10.015477177027273"><ele>181.0</ele><time>2026-03-15T17:44:30Z</time></trkpt><trkpt lat="45.57569539299463" lon="10.015128644884348"><ele>181.0</ele><time>2026-03-15T17:44:31Z</time></trkpt><trkpt lat="45.57575662900431" lon="10.014777197956944"><ele>180.5</ele><time>2026-03-15T17:44:32Z</time></trkpt><trkpt lat="45.57582032456292" lon="10.014426586132679"><ele>180.0</ele><time>2026-03-15T17:44:33Z</time></trkpt><trkpt lat="45.57588804388014" lon="10.014064443985122"><ele>179.5</ele><time>2026-03-15T17:44:34Z</time></trkpt><trkpt lat="45.57596128950844" lon="10.013705294504046"><ele>179.0</ele><time>2026-03-15T17:44:35Z</time></trkpt><trkpt lat="45.576039133648464" lon="10.01334659867351"><ele>179.5</ele><time>2026-03-15T17:44:36Z</time></trkpt><trkpt lat="45.57611797139919" lon="10.012986601707414"><ele>180.0</ele><time>2026-03-15T17:44:37Z</time></trkpt><trkpt lat="45.576193401004275" lon="10.012623252058106"><ele>180.5</ele><time>2026-03-15T17:44:38Z</time></trkpt><trkpt lat="45.57626209618243" lon="10.012258087844161"><ele>181.0</ele><time>2026-03-15T17:44:39Z</time></trkpt><trkpt lat="45.57632782476732" lon="10.011891748400354"><ele>182.0</ele><time>2026-03-15T17:44:40Z</time></trkpt><trkpt lat="45.576389094686256" lon="10.01155345637662"><ele>183.0</ele><time>2026-03-15T17:44:41Z</time></trkpt><trkpt lat="45.576451727509756" lon="10.011224490211427"><ele>183.0</ele><time>2026-03-15T17:44:41.999Z</time></trkpt><trkpt lat="45.576512995961515" lon="10.010892606740079"><ele>183.0</ele><time>2026-03-15T17:44:42.999Z</time></trkpt><trkpt lat="45.5765766615645" lon="10.010553758913085"><ele>183.5</ele><time>2026-03-15T17:44:43.999Z</time></trkpt><trkpt lat="45.57664092082931" lon="10.010211362396067"><ele>184.0</ele><time>2026-03-15T17:44:44.999Z</time></trkpt><trkpt lat="45.57670825321968" lon="10.009863862149437"><ele>184.0</ele><time>2026-03-15T17:44:45.999Z</time></trkpt><trkpt lat="45.57677295750838" lon="10.009516443147033"><ele>184.0</ele><time>2026-03-15T17:44:46.999Z</time></trkpt><trkpt lat="45.57683781447898" lon="10.009163840588137"><ele>183.5</ele><time>2026-03-15T17:44:47.999Z</time></trkpt><trkpt lat="45.57690358045611" lon="10.008808468857817"><ele>183.0</ele><time>2026-03-15T17:44:48.999Z</time></trkpt><trkpt lat="45.5769669648048" lon="10.008455664809627"><ele>184.0</ele><time>2026-03-15T17:44:49.999Z</time></trkpt><trkpt lat="45.577031559230015" lon="10.008093460276"><ele>185.0</ele><time>2026-03-15T17:44:50.999Z</time></trkpt><trkpt lat="45.577098798004805" lon="10.007734685232974"><ele>185.0</ele><time>2026-03-15T17:44:51.999Z</time></trkpt><trkpt lat="45.57716022723799" lon="10.007373161059993"><ele>185.0</ele><time>2026-03-15T17:44:52.999Z</time></trkpt><trkpt lat="45.57722867292281" lon="10.007012082819577"><ele>184.5</ele><time>2026-03-15T17:44:53.999Z</time></trkpt><trkpt lat="45.577295738998586" lon="10.006654339706479"><ele>184.0</ele><time>2026-03-15T17:44:54.999Z</time></trkpt><trkpt lat="45.57736058640734" lon="10.006291838357988"><ele>184.0</ele><time>2026-03-15T17:44:55.999Z</time></trkpt><trkpt lat="45.577426332915984" lon="10.005930420430383"><ele>184.0</ele><time>2026-03-15T17:44:56.999Z</time></trkpt><trkpt lat="45.57749334901075" lon="10.00556281599895"><ele>184.5</ele><time>2026-03-15T17:44:57.999Z</time></trkpt><trkpt lat="45.57756023900471" lon="10.005200166706096"><ele>185.0</ele><time>2026-03-15T17:44:58.999Z</time></trkpt><trkpt lat="45.577626406882786" lon="10.004840595189211"><ele>185.5</ele><time>2026-03-15T17:44:59.999Z</time></trkpt><trkpt lat="45.577692719116484" lon="10.004476546533212"><ele>186.0</ele><time>2026-03-15T17:45:00.999Z</time></trkpt><trkpt lat="45.577758884076836" lon="10.004121798418891"><ele>186.0</ele><time>2026-03-15T17:45:01.999Z</time></trkpt><trkpt lat="45.57782555584406" lon="10.003756319227154"><ele>186.0</ele><time>2026-03-15T17:45:02.999Z</time></trkpt><trkpt lat="45.57789226849654" lon="10.00339696483352"><ele>187.0</ele><time>2026-03-15T17:45:03.999Z</time></trkpt><trkpt lat="45.57796054826026" lon="10.003035505035625"><ele>188.0</ele><time>2026-03-15T17:45:04.999Z</time></trkpt><trkpt lat="45.57802814470235" lon="10.002681643637391"><ele>188.5</ele><time>2026-03-15T17:45:05.999Z</time></trkpt><trkpt lat="45.578099751580964" lon="10.002325485991378"><ele>189.0</ele><time>2026-03-15T17:45:06.999Z</time></trkpt><trkpt lat="45.57817020408825" lon="10.0019708973873"><ele>189.0</ele><time>2026-03-15T17:45:07.999Z</time></trkpt><trkpt lat="45.57823083470376" lon="10.001637267322565"><ele>189.0</ele><time>2026-03-15T17:45:08.999Z</time></trkpt><trkpt lat="45.57828914592129" lon="10.001315919759568"><ele>189.0</ele><time>2026-03-15T17:45:09.999Z</time></trkpt><trkpt lat="45.57834817949563" lon="10.000993782945113"><ele>189.0</ele><time>2026-03-15T17:45:10.999Z</time></trkpt><trkpt lat="45.57840957074142" lon="10.00066080371061"><ele>189.5</ele><time>2026-03-15T17:45:11.999Z</time></trkpt><trkpt lat="45.57847040156095" lon="10.000332932278631"><ele>190.0</ele><time>2026-03-15T17:45:12.999Z</time></trkpt><trkpt lat="45.5785288561447" lon="10.000005975532543"><ele>190.0</ele><time>2026-03-15T17:45:13.999Z</time></trkpt><trkpt lat="45.57858762574229" lon="9.999678536154809"><ele>190.0</ele><time>2026-03-15T17:45:14.999Z</time></trkpt><trkpt lat="45.578643663525725" lon="9.999364919824526"><ele>190.66666666666669</ele><time>2026-03-15T17:45:15.999Z</time></trkpt><trkpt lat="45.57869991144041" lon="9.999055592858829"><ele>191.33333333333334</ele><time>2026-03-15T17:45:16.999Z</time></trkpt><trkpt lat="45.578754533220646" lon="9.998754467776877"><ele>192.0</ele><time>2026-03-15T17:45:17.999Z</time></trkpt><trkpt lat="45.57881158683603" lon="9.998449618422761"><ele>192.33333333333331</ele><time>2026-03-15T17:45:18.999Z</time></trkpt><trkpt lat="45.57886949248756" lon="9.998145670992319"><ele>192.66666666666666</ele><time>2026-03-15T17:45:19.999Z</time></trkpt><trkpt lat="45.57892785039324" lon="9.997836654470486"><ele>193.0</ele><time>2026-03-15T17:45:20.999Z</time></trkpt><trkpt lat="45.57898547986555" lon="9.997522663735511"><ele>193.5</ele><time>2026-03-15T17:45:21.999Z</time></trkpt><trkpt lat="45.57904067273636" lon="9.997208719733049"><ele>194.0</ele><time>2026-03-15T17:45:22.999Z</time></trkpt><trkpt lat="45.57909372912396" lon="9.996879374614034"><ele>194.0</ele><time>2026-03-15T17:45:23.999Z</time></trkpt><trkpt lat="45.579145019158894" lon="9.996542452537804"><ele>194.0</ele><time>2026-03-15T17:45:24.999Z</time></trkpt><trkpt lat="45.57920059809712" lon="9.996202591150334"><ele>194.0</ele><time>2026-03-15T17:45:25.999Z</time></trkpt><trkpt lat="45.57926229908544" lon="9.995855421884075"><ele>194.0</ele><time>2026-03-15T17:45:26.998Z</time></trkpt><trkpt lat="45.57932567526789" lon="9.995515007835447"><ele>194.5</ele><time>2026-03-15T17:45:27.998Z</time></trkpt><trkpt lat="45.57939008810085" lon="9.995162466796135"><ele>195.0</ele><time>2026-03-15T17:45:28.998Z</time></trkpt><trkpt lat="45.57945521821104" lon="9.994815417326729"><ele>196.5</ele><time>2026-03-15T17:45:29.998Z</time></trkpt><trkpt lat="45.57952153406691" lon="9.994461559120724"><ele>198.0</ele><time>2026-03-15T17:45:30.998Z</time></trkpt><trkpt lat="45.579588391006844" lon="9.99410788196234"><ele>200.0</ele><time>2026-03-15T17:45:31.998Z</time></trkpt><trkpt lat="45.57965709211518" lon="9.993754224890369"><ele>202.0</ele><time>2026-03-15T17:45:32.998Z</time></trkpt><trkpt lat="45.579727439958646" lon="9.9933980235126"><ele>200.0</ele><time>2026-03-15T17:45:33.998Z</time></trkpt><trkpt lat="45.57980165851326" lon="9.993045066855117"><ele>198.0</ele><time>2026-03-15T17:45:34.998Z</time></trkpt><trkpt lat="45.57988190689637" lon="9.99268818861477"><ele>198.0</ele><time>2026-03-15T17:45:35.998Z</time></trkpt><trkpt lat="45.57996703779077" lon="9.99233954198731"><ele>198.0</ele><time>2026-03-15T17:45:36.998Z</time></trkpt><trkpt lat="45.58005776413756" lon="9.991988825604592"><ele>198.5</ele><time>2026-03-15T17:45:37.998Z</time></trkpt><trkpt lat="45.580151352915315" lon="9.991641648589129"><ele>199.0</ele><time>2026-03-15T17:45:38.998Z</time></trkpt><trkpt lat="45.58024406450989" lon="9.99129760199358"><ele>199.0</ele><time>2026-03-15T17:45:39.998Z</time></trkpt><trkpt lat="45.58034035540557" lon="9.99095026646881"><ele>199.0</ele><time>2026-03-15T17:45:40.998Z</time></trkpt><trkpt lat="45.580440938873814" lon="9.990609634921977"><ele>199.5</ele><time>2026-03-15T17:45:41.998Z</time></trkpt><trkpt lat="45.58054546355937" lon="9.99027500032356"><ele>200.0</ele><time>2026-03-15T17:45:42.998Z</time></trkpt><trkpt lat="45.58065488981662" lon="9.989938319719599"><ele>200.5</ele><time>2026-03-15T17:45:43.998Z</time></trkpt><trkpt lat="45.58076750718814" lon="9.98960040987129"><ele>201.0</ele><time>2026-03-15T17:45:44.998Z</time></trkpt><trkpt lat="45.58088369176538" lon="9.989264771904114"><ele>202.5</ele><time>2026-03-15T17:45:45.998Z</time></trkpt><trkpt lat="45.581002791992226" lon="9.988933792918072"><ele>204.0</ele><time>2026-03-15T17:45:46.998Z</time></trkpt><trkpt lat="45.581126124744586" lon="9.988604250511369"><ele>205.5</ele><time>2026-03-15T17:45:47.998Z</time></trkpt><trkpt lat="45.58125140341041" lon="9.988271661105927"><ele>207.0</ele><time>2026-03-15T17:45:48.998Z</time></trkpt><trkpt lat="45.58137849711813" lon="9.987946972250189"><ele>207.0</ele><time>2026-03-15T17:45:49.998Z</time></trkpt><trkpt lat="45.581511233654446" lon="9.987623198374148"><ele>207.0</ele><time>2026-03-15T17:45:50.998Z</time></trkpt><trkpt lat="45.581647153186594" lon="9.987304118717336"><ele>205.5</ele><time>2026-03-15T17:45:51.998Z</time></trkpt><trkpt lat="45.58178977470975" lon="9.98698787931667"><ele>204.0</ele><time>2026-03-15T17:45:52.998Z</time></trkpt><trkpt lat="45.581936262299045" lon="9.986680088865436"><ele>204.0</ele><time>2026-03-15T17:45:53.998Z</time></trkpt><trkpt lat="45.582087022043424" lon="9.986377469559732"><ele>204.0</ele><time>2026-03-15T17:45:54.998Z</time></trkpt><trkpt lat="45.58223679435488" lon="9.986076211439054"><ele>202.5</ele><time>2026-03-15T17:45:55.998Z</time></trkpt><trkpt lat="45.5823907545944" lon="9.985769564593706"><ele>201.0</ele><time>2026-03-15T17:45:56.998Z</time></trkpt><trkpt lat="45.58254389846196" lon="9.985463929845013"><ele>201.0</ele><time>2026-03-15T17:45:57.998Z</time></trkpt><trkpt lat="45.582698779383676" lon="9.985168507585636"><ele>201.0</ele><time>2026-03-15T17:45:58.998Z</time></trkpt><trkpt lat="45.582859954156014" lon="9.984878725343705"><ele>201.0</ele><time>2026-03-15T17:45:59.998Z</time></trkpt><trkpt lat="45.583026636924394" lon="9.984592116356113"><ele>201.0</ele><time>2026-03-15T17:46:00.998Z</time></trkpt><trkpt lat="45.58319751675359" lon="9.984316074757473"><ele>201.0</ele><time>2026-03-15T17:46:01.998Z</time></trkpt><trkpt lat="45.58337342435974" lon="9.984040165403863"><ele>201.0</ele><time>2026-03-15T17:46:02.998Z</time></trkpt><trkpt lat="45.58354218184715" lon="9.983760391502301"><ele>202.0</ele><time>2026-03-15T17:46:03.998Z</time></trkpt><trkpt lat="45.58370549882591" lon="9.983474690650928"><ele>203.0</ele><time>2026-03-15T17:46:04.998Z</time></trkpt><trkpt lat="45.58387173483282" lon="9.98318374725165"><ele>203.0</ele><time>2026-03-15T17:46:05.998Z</time></trkpt><trkpt lat="45.58403846527078" lon="9.98290083475336"><ele>203.0</ele><time>2026-03-15T17:46:06.998Z</time></trkpt><trkpt lat="45.584208258154185" lon="9.98260860484268"><ele>202.5</ele><time>2026-03-15T17:46:07.998Z</time></trkpt><trkpt lat="45.584375321255706" lon="9.982321942920247"><ele>202.0</ele><time>2026-03-15T17:46:08.998Z</time></trkpt><trkpt lat="45.5845414376114" lon="9.98203287648275"><ele>202.5</ele><time>2026-03-15T17:46:09.997Z</time></trkpt><trkpt lat="45.58470766940515" lon="9.981744040835983"><ele>203.0</ele><time>2026-03-15T17:46:10.997Z</time></trkpt><trkpt lat="45.584875363750385" lon="9.981458781013396"><ele>203.0</ele><time>2026-03-15T17:46:11.997Z</time></trkpt><trkpt lat="45.58504423822944" lon="9.981167740867008"><ele>203.0</ele><time>2026-03-15T17:46:12.997Z</time></trkpt><trkpt lat="45.585210763272784" lon="9.980877670995127"><ele>204.0</ele><time>2026-03-15T17:46:13.997Z</time></trkpt><trkpt lat="45.5853761694043" lon="9.980587986459154"><ele>205.0</ele><time>2026-03-15T17:46:14.997Z</time></trkpt><trkpt lat="45.58554017982426" lon="9.980302166982137"><ele>205.5</ele><time>2026-03-15T17:46:15.997Z</time></trkpt><trkpt lat="45.58570478549133" lon="9.980009851355742"><ele>206.0</ele><time>2026-03-15T17:46:16.997Z</time></trkpt><trkpt lat="45.585869665266486" lon="9.979722842981316"><ele>206.0</ele><time>2026-03-15T17:46:17.997Z</time></trkpt><trkpt lat="45.5860371384731" lon="9.979431782540987"><ele>206.0</ele><time>2026-03-15T17:46:18.997Z</time></trkpt><trkpt lat="45.586204343913714" lon="9.979144115024193"><ele>206.5</ele><time>2026-03-15T17:46:19.997Z</time></trkpt><trkpt lat="45.586372425926186" lon="9.978857888395934"><ele>207.0</ele><time>2026-03-15T17:46:20.997Z</time></trkpt><trkpt lat="45.5865412469929" lon="9.978572478915119"><ele>207.5</ele><time>2026-03-15T17:46:21.997Z</time></trkpt><trkpt lat="45.58670879538395" lon="9.978282365994625"><ele>208.0</ele><time>2026-03-15T17:46:22.997Z</time></trkpt><trkpt lat="45.58687556981336" lon="9.977991973681242"><ele>207.5</ele><time>2026-03-15T17:46:23.997Z</time></trkpt><trkpt lat="45.58703902028224" lon="9.977706038814611"><ele>207.0</ele><time>2026-03-15T17:46:24.997Z</time></trkpt><trkpt lat="45.58720341793402" lon="9.977414686006362"><ele>207.0</ele><time>2026-03-15T17:46:25.997Z</time></trkpt><trkpt lat="45.587368812848666" lon="9.977124226767316"><ele>207.0</ele><time>2026-03-15T17:46:27Z</time></trkpt><trkpt lat="45.587533733248954" lon="9.976841187659835"><ele>207.0</ele><time>2026-03-15T17:46:28Z</time></trkpt><trkpt lat="45.587700645107475" lon="9.976552707276166"><ele>207.0</ele><time>2026-03-15T17:46:29Z</time></trkpt><trkpt lat="45.587866690896874" lon="9.976268396026803"><ele>208.5</ele><time>2026-03-15T17:46:30Z</time></trkpt><trkpt lat="45.588032950589366" lon="9.975980746912143"><ele>210.0</ele><time>2026-03-15T17:46:31Z</time></trkpt><trkpt lat="45.58820018472557" lon="9.975691113955484"><ele>210.0</ele><time>2026-03-15T17:46:32Z</time></trkpt><trkpt lat="45.58836759329174" lon="9.975403980642412"><ele>210.0</ele><time>2026-03-15T17:46:33Z</time></trkpt><trkpt lat="45.5885349616037" lon="9.97511665335266"><ele>210.5</ele><time>2026-03-15T17:46:34Z</time></trkpt><trkpt lat="45.588701065168365" lon="9.974833359006867"><ele>211.0</ele><time>2026-03-15T17:46:35Z</time></trkpt><trkpt lat="45.5888684913387" lon="9.974540988007618"><ele>211.0</ele><time>2026-03-15T17:46:36Z</time></trkpt><trkpt lat="45.589035145947975" lon="9.974249807895763"><ele>211.0</ele><time>2026-03-15T17:46:37Z</time></trkpt><trkpt lat="45.58920067271968" lon="9.97395934802433"><ele>210.5</ele><time>2026-03-15T17:46:38Z</time></trkpt><trkpt lat="45.5893677725465" lon="9.973670278434259"><ele>210.0</ele><time>2026-03-15T17:46:39Z</time></trkpt><trkpt lat="45.58953380208916" lon="9.973385251216929"><ele>211.0</ele><time>2026-03-15T17:46:40Z</time></trkpt><trkpt lat="45.589701516176355" lon="9.973096827587728"><ele>212.0</ele><time>2026-03-15T17:46:41Z</time></trkpt><trkpt lat="45.58986991804387" lon="9.97280737393981"><ele>212.5</ele><time>2026-03-15T17:46:42Z</time></trkpt><trkpt lat="45.590037858151724" lon="9.972521424656621"><ele>213.0</ele><time>2026-03-15T17:46:43Z</time></trkpt><trkpt lat="45.59020160809127" lon="9.972236525712454"><ele>213.0</ele><time>2026-03-15T17:46:44Z</time></trkpt><trkpt lat="45.59036662107026" lon="9.97194172708816"><ele>213.0</ele><time>2026-03-15T17:46:45Z</time></trkpt><trkpt lat="45.59053152374332" lon="9.971652756152467"><ele>212.5</ele><time>2026-03-15T17:46:46Z</time></trkpt><trkpt lat="45.59069799637786" lon="9.9713632561282"><ele>212.0</ele><time>2026-03-15T17:46:47Z</time></trkpt><trkpt lat="45.590861750964415" lon="9.971075519005108"><ele>211.5</ele><time>2026-03-15T17:46:48Z</time></trkpt><trkpt lat="45.591027260591446" lon="9.97078548777701"><ele>211.0</ele><time>2026-03-15T17:46:49Z</time></trkpt><trkpt lat="45.591192667155646" lon="9.970500259825055"><ele>211.5</ele><time>2026-03-15T17:46:50Z</time></trkpt><trkpt lat="45.59135939379591" lon="9.970213843315005"><ele>212.0</ele><time>2026-03-15T17:46:51Z</time></trkpt><trkpt lat="45.591526483164216" lon="9.969925880600362"><ele>212.0</ele><time>2026-03-15T17:46:52Z</time></trkpt><trkpt lat="45.59169295583606" lon="9.969637972875107"><ele>212.0</ele><time>2026-03-15T17:46:53Z</time></trkpt><trkpt lat="45.59185835684362" lon="9.969349748231785"><ele>213.0</ele><time>2026-03-15T17:46:54Z</time></trkpt><trkpt lat="45.592025019176944" lon="9.969068142385643"><ele>214.0</ele><time>2026-03-15T17:46:55Z</time></trkpt><trkpt lat="45.592195218934485" lon="9.968777694346706"><ele>214.0</ele><time>2026-03-15T17:46:56Z</time></trkpt><trkpt lat="45.59236383347257" lon="9.968491283453572"><ele>214.0</ele><time>2026-03-15T17:46:57Z</time></trkpt><trkpt lat="45.5925327194263" lon="9.968198801804155"><ele>213.5</ele><time>2026-03-15T17:46:58Z</time></trkpt><trkpt lat="45.59269936424524" lon="9.967909589044528"><ele>213.0</ele><time>2026-03-15T17:46:59Z</time></trkpt><trkpt lat="45.59286341624391" lon="9.967618146370326"><ele>213.0</ele><time>2026-03-15T17:47:00Z</time></trkpt><trkpt lat="45.59302861707122" lon="9.967324799816579"><ele>213.0</ele><time>2026-03-15T17:47:01Z</time></trkpt><trkpt lat="45.59319412175103" lon="9.967035781320618"><ele>213.0</ele><time>2026-03-15T17:47:02Z</time></trkpt><trkpt lat="45.593359671244485" lon="9.96674704315612"><ele>213.0</ele><time>2026-03-15T17:47:03Z</time></trkpt><trkpt lat="45.593524228347164" lon="9.9664571150679"><ele>213.5</ele><time>2026-03-15T17:47:04Z</time></trkpt><trkpt lat="45.593689350691555" lon="9.966172567063316"><ele>214.0</ele><time>2026-03-15T17:47:04.999Z</time></trkpt><trkpt lat="45.59385598771809" lon="9.965885775606521"><ele>214.5</ele><time>2026-03-15T17:47:05.999Z</time></trkpt><trkpt lat="45.594021562676694" lon="9.965603116493662"><ele>215.0</ele><time>2026-03-15T17:47:06.999Z</time></trkpt><trkpt lat="45.59418850825314" lon="9.965314584099081"><ele>215.0</ele><time>2026-03-15T17:47:07.999Z</time></trkpt><trkpt lat="45.594352949069965" lon="9.965026347695893"><ele>215.0</ele><time>2026-03-15T17:47:08.999Z</time></trkpt><trkpt lat="45.594514549337966" lon="9.964739846509872"><ele>215.0</ele><time>2026-03-15T17:47:09.999Z</time></trkpt><trkpt lat="45.59468310579286" lon="9.96444945250327"><ele>215.0</ele><time>2026-03-15T17:47:10.999Z</time></trkpt><trkpt lat="45.59484744488237" lon="9.964159141085046"><ele>215.0</ele><time>2026-03-15T17:47:11.999Z</time></trkpt><trkpt lat="45.59501393304" lon="9.963876451284689"><ele>215.0</ele><time>2026-03-15T17:47:12.999Z</time></trkpt><trkpt lat="45.59518239604588" lon="9.963591801943153"><ele>214.5</ele><time>2026-03-15T17:47:13.999Z</time></trkpt><trkpt lat="45.59534942761125" lon="9.963307237300715"><ele>214.0</ele><time>2026-03-15T17:47:14.999Z</time></trkpt><trkpt lat="45.59551496936555" lon="9.963019624580527"><ele>214.0</ele><time>2026-03-15T17:47:15.999Z</time></trkpt><trkpt lat="45.595679154436205" lon="9.962728993809828"><ele>214.0</ele><time>2026-03-15T17:47:16.999Z</time></trkpt><trkpt lat="45.59584324856007" lon="9.962442580484293"><ele>213.5</ele><time>2026-03-15T17:47:17.999Z</time></trkpt><trkpt lat="45.59600621621995" lon="9.962148953510845"><ele>213.0</ele><time>2026-03-15T17:47:18.999Z</time></trkpt><trkpt lat="45.59617134767598" lon="9.961863615207585"><ele>213.5</ele><time>2026-03-15T17:47:19.999Z</time></trkpt><trkpt lat="45.596338272031375" lon="9.961575521589065"><ele>214.0</ele><time>2026-03-15T17:47:20.999Z</time></trkpt><trkpt lat="45.596505892857124" lon="9.961287640688504"><ele>214.0</ele><time>2026-03-15T17:47:21.999Z</time></trkpt><trkpt lat="45.59667290922337" lon="9.960998617762339"><ele>214.0</ele><time>2026-03-15T17:47:22.999Z</time></trkpt><trkpt lat="45.59683931336114" lon="9.960710871963729"><ele>213.5</ele><time>2026-03-15T17:47:23.999Z</time></trkpt><trkpt lat="45.59700423575054" lon="9.960420970656903"><ele>213.0</ele><time>2026-03-15T17:47:24.999Z</time></trkpt><trkpt lat="45.59716771682273" lon="9.960133999466512"><ele>212.5</ele><time>2026-03-15T17:47:25.999Z</time></trkpt><trkpt lat="45.59733294433796" lon="9.959843299925012"><ele>212.0</ele><time>2026-03-15T17:47:26.999Z</time></trkpt><trkpt lat="45.59749963449224" lon="9.95955877726399"><ele>212.0</ele><time>2026-03-15T17:47:27.999Z</time></trkpt><trkpt lat="45.59766732012691" lon="9.959272466353076"><ele>212.0</ele><time>2026-03-15T17:47:28.999Z</time></trkpt><trkpt lat="45.59783279980954" lon="9.95898421770826"><ele>211.0</ele><time>2026-03-15T17:47:29.999Z</time></trkpt><trkpt lat="45.59799872404275" lon="9.958691375035867"><ele>210.0</ele><time>2026-03-15T17:47:30.999Z</time></trkpt><trkpt lat="45.59816489431702" lon="9.958400961011948"><ele>210.5</ele><time>2026-03-15T17:47:31.999Z</time></trkpt><trkpt lat="45.59833125146902" lon="9.95811257693085"><ele>211.0</ele><time>2026-03-15T17:47:32.999Z</time></trkpt><trkpt lat="45.598498137718686" lon="9.957826456895866"><ele>211.0</ele><time>2026-03-15T17:47:33.999Z</time></trkpt><trkpt lat="45.59866659851077" lon="9.957538950600556"><ele>211.0</ele><time>2026-03-15T17:47:34.999Z</time></trkpt><trkpt lat="45.59883434159576" lon="9.957250958427107"><ele>210.0</ele><time>2026-03-15T17:47:35.999Z</time></trkpt><trkpt lat="45.59900056024016" lon="9.95696012343213"><ele>209.0</ele><time>2026-03-15T17:47:36.999Z</time></trkpt><trkpt lat="45.5991660407972" lon="9.956665719052396"><ele>208.5</ele><time>2026-03-15T17:47:37.999Z</time></trkpt><trkpt lat="45.59933041029359" lon="9.956374398620733"><ele>208.0</ele><time>2026-03-15T17:47:38.999Z</time></trkpt><trkpt lat="45.59949631715863" lon="9.956081844985295"><ele>208.5</ele><time>2026-03-15T17:47:39.999Z</time></trkpt><trkpt lat="45.59966214672014" lon="9.955796970571164"><ele>209.0</ele><time>2026-03-15T17:47:40.999Z</time></trkpt><trkpt lat="45.599828874350216" lon="9.955506626783475"><ele>209.0</ele><time>2026-03-15T17:47:41.999Z</time></trkpt><trkpt lat="45.59999513878858" lon="9.955220008700312"><ele>209.0</ele><time>2026-03-15T17:47:42.999Z</time></trkpt><trkpt lat="45.60016347359371" lon="9.954929558152742"><ele>209.0</ele><time>2026-03-15T17:47:43.999Z</time></trkpt><trkpt lat="45.600330643342986" lon="9.954641271810045"><ele>209.0</ele><time>2026-03-15T17:47:44.999Z</time></trkpt><trkpt lat="45.60049655175548" lon="9.954355712853639"><ele>208.5</ele><time>2026-03-15T17:47:45.999Z</time></trkpt><trkpt lat="45.6006635107836" lon="9.954066229335229"><ele>208.0</ele><time>2026-03-15T17:47:46.999Z</time></trkpt><trkpt lat="45.600828734356526" lon="9.953778993309204"><ele>208.0</ele><time>2026-03-15T17:47:47.999Z</time></trkpt><trkpt lat="45.600992864624665" lon="9.95348993277948"><ele>208.0</ele><time>2026-03-15T17:47:48.998Z</time></trkpt><trkpt lat="45.601159629398865" lon="9.953197701829929"><ele>209.5</ele><time>2026-03-15T17:47:49.998Z</time></trkpt><trkpt lat="45.60132463167227" lon="9.952910395586043"><ele>211.0</ele><time>2026-03-15T17:47:50.998Z</time></trkpt><trkpt lat="45.60149309136245" lon="9.952616334065354"><ele>210.0</ele><time>2026-03-15T17:47:51.998Z</time></trkpt><trkpt lat="45.60165839137293" lon="9.952334223918138"><ele>209.0</ele><time>2026-03-15T17:47:52.998Z</time></trkpt><trkpt lat="45.601826721457435" lon="9.952047284682516"><ele>209.0</ele><time>2026-03-15T17:47:53.998Z</time></trkpt><trkpt lat="45.601994597345666" lon="9.951761469491247"><ele>209.0</ele><time>2026-03-15T17:47:54.998Z</time></trkpt><trkpt lat="45.60216390681394" lon="9.951469655971595"><ele>210.0</ele><time>2026-03-15T17:47:55.998Z</time></trkpt><trkpt lat="45.602329343489636" lon="9.951180116057385"><ele>211.0</ele><time>2026-03-15T17:47:56.998Z</time></trkpt><trkpt lat="45.60249498868807" lon="9.950889791583885"><ele>211.0</ele><time>2026-03-15T17:47:57.998Z</time></trkpt><trkpt lat="45.602660978119104" lon="9.950597773590498"><ele>211.0</ele><time>2026-03-15T17:47:58.998Z</time></trkpt><trkpt lat="45.60282716350713" lon="9.950308117676991"><ele>212.0</ele><time>2026-03-15T17:47:59.998Z</time></trkpt><trkpt lat="45.60299219333117" lon="9.950022204512665"><ele>213.0</ele><time>2026-03-15T17:48:00.998Z</time></trkpt><trkpt lat="45.60315666224612" lon="9.94973879364753"><ele>213.0</ele><time>2026-03-15T17:48:01.998Z</time></trkpt><trkpt lat="45.60332239317682" lon="9.94945024063947"><ele>213.0</ele><time>2026-03-15T17:48:02.998Z</time></trkpt><trkpt lat="45.603487907940114" lon="9.949162235928089"><ele>213.0</ele><time>2026-03-15T17:48:03.998Z</time></trkpt><trkpt lat="45.603653363498054" lon="9.948872887819514"><ele>213.0</ele><time>2026-03-15T17:48:04.998Z</time></trkpt><trkpt lat="45.603818967829284" lon="9.948587703482763"><ele>211.5</ele><time>2026-03-15T17:48:05.998Z</time></trkpt><trkpt lat="45.60398501989496" lon="9.948304148688042"><ele>210.0</ele><time>2026-03-15T17:48:06.998Z</time></trkpt><trkpt lat="45.60415142642294" lon="9.948013746900802"><ele>210.0</ele><time>2026-03-15T17:48:07.998Z</time></trkpt><trkpt lat="45.60431633123356" lon="9.947725630274228"><ele>210.0</ele><time>2026-03-15T17:48:08.998Z</time></trkpt><trkpt lat="45.604483637518555" lon="9.94743815090491"><ele>208.0</ele><time>2026-03-15T17:48:09.998Z</time></trkpt><trkpt lat="45.60464905538089" lon="9.947150401218801"><ele>206.0</ele><time>2026-03-15T17:48:10.998Z</time></trkpt><trkpt lat="45.60481491662972" lon="9.946858530441322"><ele>205.0</ele><time>2026-03-15T17:48:11.998Z</time></trkpt><trkpt lat="45.60498233228343" lon="9.946571160452798"><ele>204.0</ele><time>2026-03-15T17:48:12.998Z</time></trkpt><trkpt lat="45.60515039682587" lon="9.94628723550467"><ele>204.0</ele><time>2026-03-15T17:48:13.998Z</time></trkpt><trkpt lat="45.605316930857235" lon="9.9459977610222"><ele>204.0</ele><time>2026-03-15T17:48:14.998Z</time></trkpt><trkpt lat="45.605480832679355" lon="9.945710045933744"><ele>205.0</ele><time>2026-03-15T17:48:15.998Z</time></trkpt><trkpt lat="45.605644186459315" lon="9.94542270151048"><ele>206.0</ele><time>2026-03-15T17:48:16.998Z</time></trkpt><trkpt lat="45.60580812387449" lon="9.945128686346441"><ele>206.0</ele><time>2026-03-15T17:48:17.998Z</time></trkpt><trkpt lat="45.60597422042171" lon="9.944844525595204"><ele>206.0</ele><time>2026-03-15T17:48:18.998Z</time></trkpt><trkpt lat="45.606140610240686" lon="9.944559800561771"><ele>206.0</ele><time>2026-03-15T17:48:19.998Z</time></trkpt><trkpt lat="45.60630763531822" lon="9.944268895240695"><ele>206.0</ele><time>2026-03-15T17:48:20.998Z</time></trkpt><trkpt lat="45.60647210091218" lon="9.943987025938524"><ele>206.5</ele><time>2026-03-15T17:48:21.998Z</time></trkpt><trkpt lat="45.606640404105406" lon="9.943699121284688"><ele>207.0</ele><time>2026-03-15T17:48:22.998Z</time></trkpt><trkpt lat="45.60680184022449" lon="9.94341040529392"><ele>207.0</ele><time>2026-03-15T17:48:23.998Z</time></trkpt><trkpt lat="45.60696701971679" lon="9.943114113954577"><ele>207.0</ele><time>2026-03-15T17:48:24.998Z</time></trkpt><trkpt lat="45.60713146289869" lon="9.942825374036005"><ele>206.0</ele><time>2026-03-15T17:48:25.998Z</time></trkpt><trkpt lat="45.60729763218732" lon="9.942539647221102"><ele>205.0</ele><time>2026-03-15T17:48:26.998Z</time></trkpt><trkpt lat="45.6074640782346" lon="9.942249150624018"><ele>205.0</ele><time>2026-03-15T17:48:27.998Z</time></trkpt><trkpt lat="45.60763025754402" lon="9.941965320480938"><ele>205.0</ele><time>2026-03-15T17:48:28.998Z</time></trkpt><trkpt lat="45.607796517321376" lon="9.941675472086784"><ele>205.5</ele><time>2026-03-15T17:48:29.998Z</time></trkpt><trkpt lat="45.60796302654394" lon="9.94138604400602"><ele>206.0</ele><time>2026-03-15T17:48:30.998Z</time></trkpt><trkpt lat="45.60812788873342" lon="9.941096614064497"><ele>205.0</ele><time>2026-03-15T17:48:31.998Z</time></trkpt><trkpt lat="45.60829260372573" lon="9.940805581756385"><ele>204.0</ele><time>2026-03-15T17:48:33Z</time></trkpt><trkpt lat="45.60845830017211" lon="9.940518433706835"><ele>204.0</ele><time>2026-03-15T17:48:34Z</time></trkpt><trkpt lat="45.608622260267246" lon="9.940233698346065"><ele>204.0</ele><time>2026-03-15T17:48:35Z</time></trkpt><trkpt lat="45.608788210035435" lon="9.939947608817373"><ele>204.0</ele><time>2026-03-15T17:48:36Z</time></trkpt><trkpt lat="45.6089544518333" lon="9.93965907992099"><ele>204.0</ele><time>2026-03-15T17:48:37Z</time></trkpt><trkpt lat="45.60912027506487" lon="9.939374459630733"><ele>204.0</ele><time>2026-03-15T17:48:38Z</time></trkpt><trkpt lat="45.60928447191999" lon="9.939083778994325"><ele>204.0</ele><time>2026-03-15T17:48:39Z</time></trkpt><trkpt lat="45.60944920542796" lon="9.938793865581289"><ele>204.0</ele><time>2026-03-15T17:48:40Z</time></trkpt><trkpt lat="45.60961482015902" lon="9.938505249682919"><ele>204.0</ele><time>2026-03-15T17:48:41Z</time></trkpt><trkpt lat="45.60978096438871" lon="9.938219326628344"><ele>204.0</ele><time>2026-03-15T17:48:42Z</time></trkpt><trkpt lat="45.609948197064355" lon="9.93793379968434"><ele>204.0</ele><time>2026-03-15T17:48:43Z</time></trkpt><trkpt lat="45.610115045264045" lon="9.937645637628522"><ele>203.5</ele><time>2026-03-15T17:48:44Z</time></trkpt><trkpt lat="45.610281422524025" lon="9.937356524123874"><ele>203.0</ele><time>2026-03-15T17:48:45Z</time></trkpt><trkpt lat="45.61044851951516" lon="9.93706818416685"><ele>203.0</ele><time>2026-03-15T17:48:46Z</time></trkpt><trkpt lat="45.61061568410485" lon="9.936785497212572"><ele>203.0</ele><time>2026-03-15T17:48:47Z</time></trkpt><trkpt lat="45.61078220877763" lon="9.936495720878213"><ele>202.0</ele><time>2026-03-15T17:48:48Z</time></trkpt><trkpt lat="45.61094678972884" lon="9.936205983847556"><ele>201.0</ele><time>2026-03-15T17:48:49Z</time></trkpt><trkpt lat="45.61111014444126" lon="9.935915277489784"><ele>202.0</ele><time>2026-03-15T17:48:50Z</time></trkpt><trkpt lat="45.611275473638045" lon="9.935630493512088"><ele>203.0</ele><time>2026-03-15T17:48:51Z</time></trkpt><trkpt lat="45.61144153839727" lon="9.935343587057503"><ele>203.0</ele><time>2026-03-15T17:48:52Z</time></trkpt><trkpt lat="45.61160810244752" lon="9.93505576858218"><ele>203.0</ele><time>2026-03-15T17:48:53Z</time></trkpt><trkpt lat="45.61177604833056" lon="9.93476804826789"><ele>203.0</ele><time>2026-03-15T17:48:54Z</time></trkpt><trkpt lat="45.61194068868673" lon="9.934481174288285"><ele>203.0</ele><time>2026-03-15T17:48:55Z</time></trkpt><trkpt lat="45.61210630033408" lon="9.934191310256342"><ele>203.0</ele><time>2026-03-15T17:48:56Z</time></trkpt><trkpt lat="45.61227153563432" lon="9.933897938889805"><ele>203.0</ele><time>2026-03-15T17:48:57Z</time></trkpt><trkpt lat="45.61243823299533" lon="9.933604825704036"><ele>202.5</ele><time>2026-03-15T17:48:58Z</time></trkpt><trkpt lat="45.61260537938396" lon="9.93331788722877"><ele>202.0</ele><time>2026-03-15T17:48:59Z</time></trkpt><trkpt lat="45.61277423415044" lon="9.933034754055392"><ele>202.5</ele><time>2026-03-15T17:49:00Z</time></trkpt><trkpt lat="45.612945181404335" lon="9.932741649722765"><ele>203.0</ele><time>2026-03-15T17:49:01Z</time></trkpt><trkpt lat="45.61311278457719" lon="9.932454707406624"><ele>203.0</ele><time>2026-03-15T17:49:02Z</time></trkpt><trkpt lat="45.61328011119513" lon="9.932166021962674"><ele>203.0</ele><time>2026-03-15T17:49:03Z</time></trkpt><trkpt lat="45.61344621413291" lon="9.931882566876975"><ele>201.0</ele><time>2026-03-15T17:49:04Z</time></trkpt><trkpt lat="45.613612903702" lon="9.93158895819653"><ele>199.0</ele><time>2026-03-15T17:49:05Z</time></trkpt><trkpt lat="45.613776572664186" lon="9.931299624129664"><ele>199.0</ele><time>2026-03-15T17:49:06Z</time></trkpt><trkpt lat="45.613942556267425" lon="9.931012825277113"><ele>199.0</ele><time>2026-03-15T17:49:07Z</time></trkpt><trkpt lat="45.614107943784205" lon="9.930723860055082"><ele>199.0</ele><time>2026-03-15T17:49:08Z</time></trkpt><trkpt lat="45.614273617694884" lon="9.930435092784935"><ele>199.0</ele><time>2026-03-15T17:49:09Z</time></trkpt><trkpt lat="45.61443994963" lon="9.930148341763568"><ele>198.0</ele><time>2026-03-15T17:49:10Z</time></trkpt><trkpt lat="45.6146054092765" lon="9.929860282087196"><ele>197.0</ele><time>2026-03-15T17:49:11Z</time></trkpt><trkpt lat="45.614772655528775" lon="9.929571233403284"><ele>197.0</ele><time>2026-03-15T17:49:12Z</time></trkpt><trkpt lat="45.614937203875236" lon="9.929281668919215"><ele>197.0</ele><time>2026-03-15T17:49:13Z</time></trkpt><trkpt lat="45.615103064902534" lon="9.928992301276795"><ele>197.5</ele><time>2026-03-15T17:49:14Z</time></trkpt><trkpt lat="45.615269478384555" lon="9.92870417280816"><ele>198.0</ele><time>2026-03-15T17:49:15Z</time></trkpt><trkpt lat="45.615435234769556" lon="9.928413999676819"><ele>197.0</ele><time>2026-03-15T17:49:16Z</time></trkpt><trkpt lat="45.615598945561224" lon="9.928123901490002"><ele>196.0</ele><time>2026-03-15T17:49:17Z</time></trkpt><trkpt lat="45.61576082299005" lon="9.927833562030106"><ele>196.5</ele><time>2026-03-15T17:49:18Z</time></trkpt><trkpt lat="45.61592108535304" lon="9.927540856933565"><ele>197.0</ele><time>2026-03-15T17:49:19Z</time></trkpt><trkpt lat="45.61607671995113" lon="9.927239026421372"><ele>196.5</ele><time>2026-03-15T17:49:20Z</time></trkpt><trkpt lat="45.61622931047446" lon="9.926936112198995"><ele>196.0</ele><time>2026-03-15T17:49:21Z</time></trkpt><trkpt lat="45.6163769167937" lon="9.926627704155505"><ele>196.0</ele><time>2026-03-15T17:49:22Z</time></trkpt><trkpt lat="45.616521832454005" lon="9.926316892573078"><ele>196.0</ele><time>2026-03-15T17:49:23Z</time></trkpt><trkpt lat="45.616666795098425" lon="9.925998484090691"><ele>196.5</ele><time>2026-03-15T17:49:24Z</time></trkpt><trkpt lat="45.61680800462338" lon="9.925685311051677"><ele>197.0</ele><time>2026-03-15T17:49:25Z</time></trkpt><trkpt lat="45.6169503092058" lon="9.925372014438162"><ele>197.5</ele><time>2026-03-15T17:49:26Z</time></trkpt><trkpt lat="45.617089885699734" lon="9.925054858540298"><ele>198.0</ele><time>2026-03-15T17:49:26.999Z</time></trkpt><trkpt lat="45.6172281792223" lon="9.924738213588128"><ele>198.0</ele><time>2026-03-15T17:49:27.999Z</time></trkpt><trkpt lat="45.61736535938324" lon="9.924416320969494"><ele>198.0</ele><time>2026-03-15T17:49:28.999Z</time></trkpt><trkpt lat="45.61749886385327" lon="9.924098865562653"><ele>197.5</ele><time>2026-03-15T17:49:29.999Z</time></trkpt><trkpt lat="45.61762855111804" lon="9.92377477827181"><ele>197.0</ele><time>2026-03-15T17:49:30.999Z</time></trkpt><trkpt lat="45.61775532213994" lon="9.9234448420279"><ele>197.5</ele><time>2026-03-15T17:49:31.999Z</time></trkpt><trkpt lat="45.617873037997455" lon="9.923118205305073"><ele>198.0</ele><time>2026-03-15T17:49:32.999Z</time></trkpt><trkpt lat="45.61799215033394" lon="9.922780684100733"><ele>198.0</ele><time>2026-03-15T17:49:33.999Z</time></trkpt><trkpt lat="45.61810738477297" lon="9.922449956563424"><ele>198.0</ele><time>2026-03-15T17:49:34.999Z</time></trkpt><trkpt lat="45.618220814490456" lon="9.922113324570251"><ele>198.0</ele><time>2026-03-15T17:49:35.999Z</time></trkpt><trkpt lat="45.61833179288626" lon="9.921779504866244"><ele>198.0</ele><time>2026-03-15T17:49:36.998Z</time></trkpt><trkpt lat="45.61843750961301" lon="9.921441691062132"><ele>197.0</ele><time>2026-03-15T17:49:37.998Z</time></trkpt><trkpt lat="45.61854233071299" lon="9.92110273668636"><ele>196.0</ele><time>2026-03-15T17:49:38.998Z</time></trkpt><trkpt lat="45.61864540422204" lon="9.920760583005142"><ele>195.5</ele><time>2026-03-15T17:49:39.998Z</time></trkpt><trkpt lat="45.61874650892746" lon="9.920418821515078"><ele>195.0</ele><time>2026-03-15T17:49:40.998Z</time></trkpt><trkpt lat="45.61884660060436" lon="9.920077345522673"><ele>196.0</ele><time>2026-03-15T17:49:41.998Z</time></trkpt><trkpt lat="45.618941145313435" lon="9.91972868165856"><ele>197.0</ele><time>2026-03-15T17:49:42.998Z</time></trkpt><trkpt lat="45.61902368428701" lon="9.919374101175102"><ele>197.5</ele><time>2026-03-15T17:49:43.998Z</time></trkpt><trkpt lat="45.61909923305774" lon="9.919019279927063"><ele>198.0</ele><time>2026-03-15T17:49:44.998Z</time></trkpt><trkpt lat="45.61917289475715" lon="9.918656476630478"><ele>198.0</ele><time>2026-03-15T17:49:45.998Z</time></trkpt><trkpt lat="45.61925200712087" lon="9.918303568253705"><ele>198.0</ele><time>2026-03-15T17:49:46.998Z</time></trkpt><trkpt lat="45.619335693203546" lon="9.917945925235907"><ele>198.0</ele><time>2026-03-15T17:49:47.998Z</time></trkpt><trkpt lat="45.61941669884391" lon="9.917594944509059"><ele>198.0</ele><time>2026-03-15T17:49:48.998Z</time></trkpt><trkpt lat="45.61949616053776" lon="9.917237217475908"><ele>198.0</ele><time>2026-03-15T17:49:49.998Z</time></trkpt><trkpt lat="45.61957193399893" lon="9.916881341299176"><ele>198.0</ele><time>2026-03-15T17:49:50.998Z</time></trkpt><trkpt lat="45.61964297517967" lon="9.916549164467163"><ele>198.5</ele><time>2026-03-15T17:49:51.998Z</time></trkpt><trkpt lat="45.61971224294584" lon="9.916234122513202"><ele>199.0</ele><time>2026-03-15T17:49:52.998Z</time></trkpt><trkpt lat="45.61978280392322" lon="9.915921007662837"><ele>198.5</ele><time>2026-03-15T17:49:53.998Z</time></trkpt><trkpt lat="45.61985639805971" lon="9.915594350715194"><ele>198.0</ele><time>2026-03-15T17:49:54.998Z</time></trkpt><trkpt lat="45.61992936897892" lon="9.91526533776589"><ele>198.0</ele><time>2026-03-15T17:49:55.998Z</time></trkpt><trkpt lat="45.620006907803656" lon="9.91492840242682"><ele>198.0</ele><time>2026-03-15T17:49:56.998Z</time></trkpt><trkpt lat="45.62007756711773" lon="9.914594398087845"><ele>198.0</ele><time>2026-03-15T17:49:57.998Z</time></trkpt><trkpt lat="45.620147740577956" lon="9.914271441579634"><ele>198.0</ele><time>2026-03-15T17:49:58.998Z</time></trkpt><trkpt lat="45.620217516753165" lon="9.913940822395427"><ele>199.0</ele><time>2026-03-15T17:49:59.998Z</time></trkpt><trkpt lat="45.62028852486986" lon="9.913605395317902"><ele>200.0</ele><time>2026-03-15T17:50:00.998Z</time></trkpt><trkpt lat="45.62036209060827" lon="9.9132658864079"><ele>200.0</ele><time>2026-03-15T17:50:01.998Z</time></trkpt><trkpt lat="45.620435706565694" lon="9.912928912753758"><ele>200.0</ele><time>2026-03-15T17:50:02.998Z</time></trkpt><trkpt lat="45.62050981547175" lon="9.912584745617488"><ele>199.5</ele><time>2026-03-15T17:50:03.998Z</time></trkpt><trkpt lat="45.62058353836962" lon="9.912231861125631"><ele>199.0</ele><time>2026-03-15T17:50:04.998Z</time></trkpt><trkpt lat="45.62065455880764" lon="9.911880554595752"><ele>197.5</ele><time>2026-03-15T17:50:05.998Z</time></trkpt><trkpt lat="45.620724935807615" lon="9.911525856666794"><ele>196.0</ele><time>2026-03-15T17:50:06.998Z</time></trkpt><trkpt lat="45.620792351086216" lon="9.911174210208417"><ele>193.5</ele><time>2026-03-15T17:50:07.998Z</time></trkpt><trkpt lat="45.62086108715098" lon="9.910814475304369"><ele>191.0</ele><time>2026-03-15T17:50:08.998Z</time></trkpt><trkpt lat="45.62092887735077" lon="9.910458944212696"><ele>191.0</ele><time>2026-03-15T17:50:09.998Z</time></trkpt><trkpt lat="45.621000273358256" lon="9.910095077772871"><ele>191.0</ele><time>2026-03-15T17:50:10.997Z</time></trkpt><trkpt lat="45.621068839789544" lon="9.909735541446105"><ele>191.0</ele><time>2026-03-15T17:50:11.997Z</time></trkpt><trkpt lat="45.62113797239754" lon="9.909374107045796"><ele>191.0</ele><time>2026-03-15T17:50:12.997Z</time></trkpt><trkpt lat="45.62120983472709" lon="9.909011888246743"><ele>191.0</ele><time>2026-03-15T17:50:13.997Z</time></trkpt><trkpt lat="45.621281881175044" lon="9.908649520985009"><ele>191.0</ele><time>2026-03-15T17:50:14.997Z</time></trkpt><trkpt lat="45.621358313307105" lon="9.908285094152436"><ele>191.0</ele><time>2026-03-15T17:50:15.997Z</time></trkpt><trkpt lat="45.62143319067618" lon="9.907926714675146"><ele>191.0</ele><time>2026-03-15T17:50:16.997Z</time></trkpt><trkpt lat="45.62151153028657" lon="9.907566418932035"><ele>191.5</ele><time>2026-03-15T17:50:17.997Z</time></trkpt><trkpt lat="45.621591073719536" lon="9.90720958328718"><ele>192.0</ele><time>2026-03-15T17:50:18.997Z</time></trkpt><trkpt lat="45.621669053235316" lon="9.906855022393767"><ele>191.5</ele><time>2026-03-15T17:50:19.997Z</time></trkpt><trkpt lat="45.621748003765354" lon="9.906500643830412"><ele>191.0</ele><time>2026-03-15T17:50:20.997Z</time></trkpt><trkpt lat="45.62182479583318" lon="9.906144632456428"><ele>191.0</ele><time>2026-03-15T17:50:21.997Z</time></trkpt><trkpt lat="45.62190050138049" lon="9.905786789450609"><ele>191.0</ele><time>2026-03-15T17:50:22.997Z</time></trkpt><trkpt lat="45.62197624833793" lon="9.905429235722004"><ele>191.0</ele><time>2026-03-15T17:50:23.997Z</time></trkpt><trkpt lat="45.622052238484166" lon="9.905075690989188"><ele>191.0</ele><time>2026-03-15T17:50:24.997Z</time></trkpt><trkpt lat="45.62212604476157" lon="9.904719869190263"><ele>191.0</ele><time>2026-03-15T17:50:25.997Z</time></trkpt><trkpt lat="45.622200075714794" lon="9.904363393961864"><ele>191.0</ele><time>2026-03-15T17:50:26.997Z</time></trkpt><trkpt lat="45.62227424779354" lon="9.904009899341254"><ele>190.5</ele><time>2026-03-15T17:50:27.997Z</time></trkpt><trkpt lat="45.62235371859108" lon="9.90365687747602"><ele>190.0</ele><time>2026-03-15T17:50:28.997Z</time></trkpt><trkpt lat="45.622431001504694" lon="9.903307319033296"><ele>182.5</ele><time>2026-03-15T17:50:29.997Z</time></trkpt><trkpt lat="45.622507271936946" lon="9.902952515439301"><ele>175.0</ele><time>2026-03-15T17:50:30.997Z</time></trkpt><trkpt lat="45.622584463795306" lon="9.902601515541107"><ele>164.5</ele><time>2026-03-15T17:50:31.997Z</time></trkpt><trkpt lat="45.622663358827104" lon="9.902241488056724"><ele>154.0</ele><time>2026-03-15T17:50:32.997Z</time></trkpt><trkpt lat="45.62274285809354" lon="9.9018864946269"><ele>155.0</ele><time>2026-03-15T17:50:33.997Z</time></trkpt><trkpt lat="45.62282563301432" lon="9.90153143097085"><ele>156.0</ele><time>2026-03-15T17:50:34.997Z</time></trkpt><trkpt lat="45.62290713054939" lon="9.901173884097133"><ele>168.0</ele><time>2026-03-15T17:50:35.997Z</time></trkpt><trkpt lat="45.622986903504305" lon="9.900816930163781"><ele>180.0</ele><time>2026-03-15T17:50:36.997Z</time></trkpt><trkpt lat="45.62306325600584" lon="9.900459921707718"><ele>180.0</ele><time>2026-03-15T17:50:38Z</time></trkpt><trkpt lat="45.62314120170894" lon="9.900101099445944"><ele>180.0</ele><time>2026-03-15T17:50:39Z</time></trkpt><trkpt lat="45.6232202909669" lon="9.899746750657753"><ele>188.0</ele><time>2026-03-15T17:50:40Z</time></trkpt><trkpt lat="45.62329998781275" lon="9.89939123319072"><ele>196.0</ele><time>2026-03-15T17:50:41Z</time></trkpt><trkpt lat="45.62338121258213" lon="9.899036888766133"><ele>198.5</ele><time>2026-03-15T17:50:42Z</time></trkpt><trkpt lat="45.62346206330333" lon="9.898684862545691"><ele>201.0</ele><time>2026-03-15T17:50:43Z</time></trkpt><trkpt lat="45.623538306230415" lon="9.898334061749384"><ele>201.0</ele><time>2026-03-15T17:50:44Z</time></trkpt><trkpt lat="45.62361553409287" lon="9.897977891757584"><ele>201.0</ele><time>2026-03-15T17:50:45Z</time></trkpt><trkpt lat="45.62369230349174" lon="9.897625954612742"><ele>201.5</ele><time>2026-03-15T17:50:46Z</time></trkpt><trkpt lat="45.62377153827341" lon="9.897273267216951"><ele>202.0</ele><time>2026-03-15T17:50:47Z</time></trkpt><trkpt lat="45.623851487567265" lon="9.896921052519074"><ele>201.0</ele><time>2026-03-15T17:50:48Z</time></trkpt><trkpt lat="45.62393125388263" lon="9.89656681457806"><ele>200.0</ele><time>2026-03-15T17:50:49Z</time></trkpt><trkpt lat="45.62401197104295" lon="9.896215735416673"><ele>200.5</ele><time>2026-03-15T17:50:50Z</time></trkpt><trkpt lat="45.624094679261376" lon="9.895858343683708"><ele>201.0</ele><time>2026-03-15T17:50:51Z</time></trkpt><trkpt lat="45.62417572130275" lon="9.895505231090011"><ele>201.0</ele><time>2026-03-15T17:50:52Z</time></trkpt><trkpt lat="45.62425511787616" lon="9.895151730349559"><ele>201.0</ele><time>2026-03-15T17:50:53Z</time></trkpt><trkpt lat="45.62433606117131" lon="9.894795219468854"><ele>201.5</ele><time>2026-03-15T17:50:54Z</time></trkpt><trkpt lat="45.624419236169814" lon="9.894445556053824"><ele>202.0</ele><time>2026-03-15T17:50:55Z</time></trkpt><trkpt lat="45.62450689521152" lon="9.894091978152284"><ele>204.0</ele><time>2026-03-15T17:50:56Z</time></trkpt><trkpt lat="45.62459392741624" lon="9.89374113571351"><ele>206.0</ele><time>2026-03-15T17:50:57Z</time></trkpt><trkpt lat="45.62467934603106" lon="9.893389495576884"><ele>207.5</ele><time>2026-03-15T17:50:58Z</time></trkpt><trkpt lat="45.62476526785435" lon="9.893034929716624"><ele>209.0</ele><time>2026-03-15T17:50:59Z</time></trkpt><trkpt lat="45.62485277444321" lon="9.892681294220367"><ele>208.5</ele><time>2026-03-15T17:51:00Z</time></trkpt><trkpt lat="45.62494513566572" lon="9.89232765081603"><ele>208.0</ele><time>2026-03-15T17:51:00.999Z</time></trkpt><trkpt lat="45.625043561382824" lon="9.891983609312053"><ele>208.0</ele><time>2026-03-15T17:51:01.999Z</time></trkpt><trkpt lat="45.62514136755274" lon="9.89163458401724"><ele>208.0</ele><time>2026-03-15T17:51:02.999Z</time></trkpt><trkpt lat="45.625234315998895" lon="9.891283862143213"><ele>208.0</ele><time>2026-03-15T17:51:03.999Z</time></trkpt><trkpt lat="45.62531745805295" lon="9.890933430976954"><ele>208.0</ele><time>2026-03-15T17:51:04.999Z</time></trkpt><trkpt lat="45.6253971961709" lon="9.890574128065094"><ele>208.0</ele><time>2026-03-15T17:51:05.999Z</time></trkpt><trkpt lat="45.625476299875025" lon="9.890214337930345"><ele>208.0</ele><time>2026-03-15T17:51:06.999Z</time></trkpt><trkpt lat="45.62555723092314" lon="9.889859813732912"><ele>207.5</ele><time>2026-03-15T17:51:07.999Z</time></trkpt><trkpt lat="45.62563962705788" lon="9.889501882254018"><ele>207.0</ele><time>2026-03-15T17:51:08.999Z</time></trkpt><trkpt lat="45.62572099369106" lon="9.889146672071558"><ele>207.0</ele><time>2026-03-15T17:51:09.999Z</time></trkpt><trkpt lat="45.62580083715775" lon="9.888789832671618"><ele>207.0</ele><time>2026-03-15T17:51:10.999Z</time></trkpt><trkpt lat="45.625881956962" lon="9.888437327467209"><ele>207.0</ele><time>2026-03-15T17:51:11.999Z</time></trkpt><trkpt lat="45.62595863337397" lon="9.88808276021101"><ele>207.0</ele><time>2026-03-15T17:51:12.999Z</time></trkpt><trkpt lat="45.62603724391629" lon="9.887731175135404"><ele>206.5</ele><time>2026-03-15T17:51:13.999Z</time></trkpt><trkpt lat="45.62611440575806" lon="9.887373346483969"><ele>206.0</ele><time>2026-03-15T17:51:14.999Z</time></trkpt><trkpt lat="45.62619093584872" lon="9.887015301717943"><ele>207.0</ele><time>2026-03-15T17:51:15.999Z</time></trkpt><trkpt lat="45.626266301821666" lon="9.886661892444332"><ele>208.0</ele><time>2026-03-15T17:51:16.999Z</time></trkpt><trkpt lat="45.626344448312935" lon="9.886305847624278"><ele>208.0</ele><time>2026-03-15T17:51:17.999Z</time></trkpt><trkpt lat="45.6264232960667" lon="9.88594866765293"><ele>208.0</ele><time>2026-03-15T17:51:18.999Z</time></trkpt><trkpt lat="45.62650249246958" lon="9.885591240844755"><ele>208.0</ele><time>2026-03-15T17:51:19.999Z</time></trkpt><trkpt lat="45.626581170720975" lon="9.885237228453267"><ele>208.0</ele><time>2026-03-15T17:51:20.999Z</time></trkpt><trkpt lat="45.62666112046195" lon="9.884878587318802"><ele>208.5</ele><time>2026-03-15T17:51:21.999Z</time></trkpt><trkpt lat="45.62674114673157" lon="9.884521989323087"><ele>209.0</ele><time>2026-03-15T17:51:22.999Z</time></trkpt><trkpt lat="45.626818543169655" lon="9.88416642216392"><ele>207.5</ele><time>2026-03-15T17:51:23.999Z</time></trkpt><trkpt lat="45.626896256549244" lon="9.88381158019611"><ele>206.0</ele><time>2026-03-15T17:51:24.999Z</time></trkpt><trkpt lat="45.626972102789" lon="9.883454427586623"><ele>207.0</ele><time>2026-03-15T17:51:25.999Z</time></trkpt><trkpt lat="45.627049148536955" lon="9.883097632961347"><ele>208.0</ele><time>2026-03-15T17:51:26.999Z</time></trkpt><trkpt lat="45.62712742117738" lon="9.88274138172059"><ele>207.5</ele><time>2026-03-15T17:51:27.999Z</time></trkpt><trkpt lat="45.627206084807966" lon="9.88238394485015"><ele>207.0</ele><time>2026-03-15T17:51:28.999Z</time></trkpt><trkpt lat="45.62728283486624" lon="9.882026393138528"><ele>207.5</ele><time>2026-03-15T17:51:29.999Z</time></trkpt><trkpt lat="45.62736131250698" lon="9.881670129102538"><ele>208.0</ele><time>2026-03-15T17:51:30.999Z</time></trkpt><trkpt lat="45.62744026828268" lon="9.881313312256282"><ele>208.0</ele><time>2026-03-15T17:51:31.999Z</time></trkpt><trkpt lat="45.62751870348941" lon="9.880956286931095"><ele>208.0</ele><time>2026-03-15T17:51:32.999Z</time></trkpt><trkpt lat="45.62759706530894" lon="9.880596286035683"><ele>207.0</ele><time>2026-03-15T17:51:33.999Z</time></trkpt><trkpt lat="45.627675806627664" lon="9.880240958000865"><ele>206.0</ele><time>2026-03-15T17:51:34.999Z</time></trkpt><trkpt lat="45.62775387294871" lon="9.879887286981608"><ele>206.0</ele><time>2026-03-15T17:51:35.999Z</time></trkpt><trkpt lat="45.62783393053461" lon="9.879525080541208"><ele>206.0</ele><time>2026-03-15T17:51:36.999Z</time></trkpt><trkpt lat="45.627910943570384" lon="9.879173409117284"><ele>205.0</ele><time>2026-03-15T17:51:37.999Z</time></trkpt><trkpt lat="45.62798685957619" lon="9.878816489053193"><ele>204.0</ele><time>2026-03-15T17:51:38.999Z</time></trkpt><trkpt lat="45.628060523533506" lon="9.878458983602993"><ele>203.5</ele><time>2026-03-15T17:51:39.999Z</time></trkpt><trkpt lat="45.62813535031783" lon="9.878104522520092"><ele>203.0</ele><time>2026-03-15T17:51:40.999Z</time></trkpt><trkpt lat="45.62821215405306" lon="9.877753186024322"><ele>202.0</ele><time>2026-03-15T17:51:41.999Z</time></trkpt><trkpt lat="45.628290271298866" lon="9.87740143686327"><ele>201.0</ele><time>2026-03-15T17:51:42.999Z</time></trkpt><trkpt lat="45.628370025178754" lon="9.87704818385499"><ele>202.0</ele><time>2026-03-15T17:51:43.999Z</time></trkpt><trkpt lat="45.62844974961012" lon="9.876694397009398"><ele>203.0</ele><time>2026-03-15T17:51:44.999Z</time></trkpt><trkpt lat="45.62852776833077" lon="9.87633864472779"><ele>203.0</ele><time>2026-03-15T17:51:45.998Z</time></trkpt><trkpt lat="45.62860715372475" lon="9.875983428763572"><ele>203.0</ele><time>2026-03-15T17:51:46.998Z</time></trkpt><trkpt lat="45.62868582940001" lon="9.875628081698446"><ele>203.0</ele><time>2026-03-15T17:51:47.998Z</time></trkpt><trkpt lat="45.628762618838394" lon="9.875271441480102"><ele>203.0</ele><time>2026-03-15T17:51:48.998Z</time></trkpt><trkpt lat="45.628842364839265" lon="9.874916580781306"><ele>202.5</ele><time>2026-03-15T17:51:49.998Z</time></trkpt><trkpt lat="45.62892044106124" lon="9.874557961955729"><ele>202.0</ele><time>2026-03-15T17:51:50.998Z</time></trkpt><trkpt lat="45.628999441973164" lon="9.874201332370758"><ele>201.5</ele><time>2026-03-15T17:51:51.998Z</time></trkpt><trkpt lat="45.62907860281363" lon="9.8738447286975"><ele>201.0</ele><time>2026-03-15T17:51:52.998Z</time></trkpt><trkpt lat="45.62915495353478" lon="9.873486769809272"><ele>201.0</ele><time>2026-03-15T17:51:53.998Z</time></trkpt><trkpt lat="45.62923512487155" lon="9.873131519001417"><ele>201.0</ele><time>2026-03-15T17:51:54.998Z</time></trkpt><trkpt lat="45.62931454754852" lon="9.872774626929509"><ele>200.0</ele><time>2026-03-15T17:51:55.998Z</time></trkpt><trkpt lat="45.62938837049639" lon="9.872414080302029"><ele>199.0</ele><time>2026-03-15T17:51:56.998Z</time></trkpt><trkpt lat="45.62946541767251" lon="9.872056190779366"><ele>200.0</ele><time>2026-03-15T17:51:57.998Z</time></trkpt><trkpt lat="45.62954453548706" lon="9.871702071992887"><ele>201.0</ele><time>2026-03-15T17:51:58.998Z</time></trkpt><trkpt lat="45.629619828239214" lon="9.871340459326532"><ele>201.0</ele><time>2026-03-15T17:51:59.998Z</time></trkpt><trkpt lat="45.62969821317646" lon="9.870983737517976"><ele>201.0</ele><time>2026-03-15T17:52:00.998Z</time></trkpt><trkpt lat="45.62977681414416" lon="9.870627363705058"><ele>200.5</ele><time>2026-03-15T17:52:01.998Z</time></trkpt><trkpt lat="45.62985683051715" lon="9.87027208238835"><ele>200.0</ele><time>2026-03-15T17:52:02.998Z</time></trkpt><trkpt lat="45.62993571866252" lon="9.869918863678599"><ele>200.5</ele><time>2026-03-15T17:52:03.998Z</time></trkpt><trkpt lat="45.63001390208867" lon="9.86956717591764"><ele>201.0</ele><time>2026-03-15T17:52:04.998Z</time></trkpt><trkpt lat="45.630090211009886" lon="9.869214723921043"><ele>201.0</ele><time>2026-03-15T17:52:05.998Z</time></trkpt><trkpt lat="45.63016863847075" lon="9.868866312991612"><ele>201.0</ele><time>2026-03-15T17:52:06.998Z</time></trkpt><trkpt lat="45.63025059968372" lon="9.868518382512338"><ele>202.0</ele><time>2026-03-15T17:52:07.998Z</time></trkpt><trkpt lat="45.63033082871593" lon="9.868167451611738"><ele>203.0</ele><time>2026-03-15T17:52:08.998Z</time></trkpt><trkpt lat="45.63040683424307" lon="9.867814046127108"><ele>203.0</ele><time>2026-03-15T17:52:09.998Z</time></trkpt><trkpt lat="45.63048346195459" lon="9.867461964492106"><ele>203.0</ele><time>2026-03-15T17:52:10.998Z</time></trkpt><trkpt lat="45.63055790513863" lon="9.867105686015053"><ele>202.5</ele><time>2026-03-15T17:52:11.998Z</time></trkpt><trkpt lat="45.6306359295204" lon="9.866750598602893"><ele>202.0</ele><time>2026-03-15T17:52:12.998Z</time></trkpt><trkpt lat="45.63071390784033" lon="9.86639579028081"><ele>202.0</ele><time>2026-03-15T17:52:13.998Z</time></trkpt><trkpt lat="45.63079550245889" lon="9.866039764632825"><ele>202.0</ele><time>2026-03-15T17:52:14.998Z</time></trkpt><trkpt lat="45.63087281948729" lon="9.86567663154433"><ele>202.0</ele><time>2026-03-15T17:52:15.998Z</time></trkpt><trkpt lat="45.630953748607524" lon="9.865318049110055"><ele>202.0</ele><time>2026-03-15T17:52:16.998Z</time></trkpt><trkpt lat="45.63103468483877" lon="9.864961546852884"><ele>202.0</ele><time>2026-03-15T17:52:17.998Z</time></trkpt><trkpt lat="45.63111386330929" lon="9.864603264179276"><ele>202.0</ele><time>2026-03-15T17:52:18.998Z</time></trkpt><trkpt lat="45.63119395200195" lon="9.864241848609954"><ele>201.0</ele><time>2026-03-15T17:52:19.998Z</time></trkpt><trkpt lat="45.631273956420614" lon="9.863880757083377"><ele>200.0</ele><time>2026-03-15T17:52:20.998Z</time></trkpt><trkpt lat="45.63135557708471" lon="9.863521245320428"><ele>200.0</ele><time>2026-03-15T17:52:21.998Z</time></trkpt><trkpt lat="45.63143905325948" lon="9.86316213787076"><ele>200.0</ele><time>2026-03-15T17:52:22.998Z</time></trkpt><trkpt lat="45.63152237262756" lon="9.862802775796188"><ele>199.0</ele><time>2026-03-15T17:52:23.998Z</time></trkpt><trkpt lat="45.631605664899986" lon="9.862442922819294"><ele>198.0</ele><time>2026-03-15T17:52:24.998Z</time></trkpt><trkpt lat="45.63168935913753" lon="9.862085981379105"><ele>198.0</ele><time>2026-03-15T17:52:25.998Z</time></trkpt><trkpt lat="45.63177401846602" lon="9.86173396473234"><ele>198.0</ele><time>2026-03-15T17:52:26.998Z</time></trkpt><trkpt lat="45.63185619245883" lon="9.861377412908732"><ele>198.0</ele><time>2026-03-15T17:52:27.998Z</time></trkpt><trkpt lat="45.63193643776884" lon="9.861018590804443"><ele>198.0</ele><time>2026-03-15T17:52:28.998Z</time></trkpt><trkpt lat="45.63201844807344" lon="9.860666144253134"><ele>198.0</ele><time>2026-03-15T17:52:29.997Z</time></trkpt><trkpt lat="45.632097506980635" lon="9.860311378983265"><ele>198.0</ele><time>2026-03-15T17:52:30.997Z</time></trkpt><trkpt lat="45.63217404294157" lon="9.859957508354338"><ele>198.0</ele><time>2026-03-15T17:52:31.997Z</time></trkpt><trkpt lat="45.632249362427665" lon="9.859600876012328"><ele>198.0</ele><time>2026-03-15T17:52:32.997Z</time></trkpt><trkpt lat="45.63232322301834" lon="9.859243014907456"><ele>197.5</ele><time>2026-03-15T17:52:33.997Z</time></trkpt><trkpt lat="45.632400322245175" lon="9.858891480191224"><ele>197.0</ele><time>2026-03-15T17:52:34.997Z</time></trkpt><trkpt lat="45.632476685957556" lon="9.858537551911544"><ele>197.0</ele><time>2026-03-15T17:52:35.997Z</time></trkpt><trkpt lat="45.63254837999569" lon="9.858178840926112"><ele>197.0</ele><time>2026-03-15T17:52:36.997Z</time></trkpt><trkpt lat="45.63261939028619" lon="9.857819642455373"><ele>195.5</ele><time>2026-03-15T17:52:37.997Z</time></trkpt><trkpt lat="45.63269610607666" lon="9.857464354006947"><ele>194.0</ele><time>2026-03-15T17:52:38.997Z</time></trkpt><trkpt lat="45.632771424863755" lon="9.857105644863642"><ele>194.5</ele><time>2026-03-15T17:52:39.997Z</time></trkpt><trkpt lat="45.632849412750105" lon="9.856750199168546"><ele>195.0</ele><time>2026-03-15T17:52:40.997Z</time></trkpt><trkpt lat="45.63292634838145" lon="9.856395826621531"><ele>195.0</ele><time>2026-03-15T17:52:41.997Z</time></trkpt><trkpt lat="45.63300253506912" lon="9.856039174199822"><ele>195.0</ele><time>2026-03-15T17:52:42.997Z</time></trkpt><trkpt lat="45.633076802247594" lon="9.855681813454927"><ele>195.5</ele><time>2026-03-15T17:52:44Z</time></trkpt><trkpt lat="45.63315618153875" lon="9.855333357983678"><ele>196.0</ele><time>2026-03-15T17:52:45Z</time></trkpt><trkpt lat="45.633231514980025" lon="9.854977622960446"><ele>196.0</ele><time>2026-03-15T17:52:46Z</time></trkpt><trkpt lat="45.6333084112671" lon="9.854625448153554"><ele>196.0</ele><time>2026-03-15T17:52:47Z</time></trkpt><trkpt lat="45.63338580833398" lon="9.854274678604877"><ele>195.5</ele><time>2026-03-15T17:52:48Z</time></trkpt><trkpt lat="45.63345866792586" lon="9.853918849286853"><ele>195.0</ele><time>2026-03-15T17:52:49Z</time></trkpt><trkpt lat="45.63353613425211" lon="9.85356511703832"><ele>194.5</ele><time>2026-03-15T17:52:50Z</time></trkpt><trkpt lat="45.63361454882348" lon="9.853213376758442"><ele>194.0</ele><time>2026-03-15T17:52:51Z</time></trkpt><trkpt lat="45.63369276041959" lon="9.8528609625933"><ele>193.5</ele><time>2026-03-15T17:52:52Z</time></trkpt><trkpt lat="45.63377019305784" lon="9.85250793121496"><ele>193.0</ele><time>2026-03-15T17:52:53Z</time></trkpt><trkpt lat="45.63384726406105" lon="9.852152810189471"><ele>193.0</ele><time>2026-03-15T17:52:54Z</time></trkpt><trkpt lat="45.633925209689565" lon="9.851798235319205"><ele>193.0</ele><time>2026-03-15T17:52:55Z</time></trkpt><trkpt lat="45.634002477334626" lon="9.851440467368931"><ele>193.0</ele><time>2026-03-15T17:52:56Z</time></trkpt><trkpt lat="45.63408289372015" lon="9.851084677518443"><ele>193.0</ele><time>2026-03-15T17:52:57Z</time></trkpt><trkpt lat="45.63416237400035" lon="9.850728398022735"><ele>194.0</ele><time>2026-03-15T17:52:58Z</time></trkpt><trkpt lat="45.634241134063224" lon="9.8503719255792"><ele>195.0</ele><time>2026-03-15T17:52:59Z</time></trkpt><trkpt lat="45.63431621141749" lon="9.850010249684827"><ele>195.0</ele><time>2026-03-15T17:53:00Z</time></trkpt><trkpt lat="45.63439334076396" lon="9.849653396380779"><ele>195.0</ele><time>2026-03-15T17:53:01Z</time></trkpt><trkpt lat="45.63447429514408" lon="9.849300968534548"><ele>195.0</ele><time>2026-03-15T17:53:02Z</time></trkpt><trkpt lat="45.63455147281473" lon="9.848941763671656"><ele>195.0</ele><time>2026-03-15T17:53:03Z</time></trkpt><trkpt lat="45.63462882432232" lon="9.848585138195302"><ele>194.5</ele><time>2026-03-15T17:53:04Z</time></trkpt><trkpt lat="45.63470767633118" lon="9.84822925344645"><ele>194.0</ele><time>2026-03-15T17:53:05Z</time></trkpt><trkpt lat="45.63478718973017" lon="9.84787370146678"><ele>195.0</ele><time>2026-03-15T17:53:06Z</time></trkpt><trkpt lat="45.6348645969449" lon="9.847516153382697"><ele>196.0</ele><time>2026-03-15T17:53:07Z</time></trkpt><trkpt lat="45.634941324712734" lon="9.847158323637213"><ele>196.0</ele><time>2026-03-15T17:53:08Z</time></trkpt><trkpt lat="45.63502027951307" lon="9.846801596023544"><ele>196.0</ele><time>2026-03-15T17:53:09Z</time></trkpt><trkpt lat="45.6351013220093" lon="9.846444998640996"><ele>196.5</ele><time>2026-03-15T17:53:10Z</time></trkpt><trkpt lat="45.63517579390941" lon="9.846083977350995"><ele>197.0</ele><time>2026-03-15T17:53:11Z</time></trkpt><trkpt lat="45.6352565783731" lon="9.845728707076596"><ele>197.0</ele><time>2026-03-15T17:53:12Z</time></trkpt><trkpt lat="45.63533470678179" lon="9.845373755287696"><ele>197.0</ele><time>2026-03-15T17:53:13Z</time></trkpt><trkpt lat="45.63540937900685" lon="9.84501737151792"><ele>197.0</ele><time>2026-03-15T17:53:14Z</time></trkpt><trkpt lat="45.63548747357538" lon="9.844664608267399"><ele>197.0</ele><time>2026-03-15T17:53:15Z</time></trkpt><trkpt lat="45.63556445119516" lon="9.84431196240648"><ele>197.0</ele><time>2026-03-15T17:53:16Z</time></trkpt><trkpt lat="45.635639312282905" lon="9.843960480017502"><ele>197.0</ele><time>2026-03-15T17:53:17Z</time></trkpt><trkpt lat="45.635714594589" lon="9.843607246470349"><ele>196.0</ele><time>2026-03-15T17:53:18Z</time></trkpt><trkpt lat="45.635792196388515" lon="9.84325265839266"><ele>195.0</ele><time>2026-03-15T17:53:19Z</time></trkpt><trkpt lat="45.63587045106877" lon="9.842897741131875"><ele>195.5</ele><time>2026-03-15T17:53:20Z</time></trkpt><trkpt lat="45.63594833787119" lon="9.842541567364515"><ele>196.0</ele><time>2026-03-15T17:53:21Z</time></trkpt><trkpt lat="45.63602871331912" lon="9.842188796824045"><ele>196.0</ele><time>2026-03-15T17:53:21.999Z</time></trkpt><trkpt lat="45.63610583647192" lon="9.841831994049468"><ele>196.0</ele><time>2026-03-15T17:53:22.999Z</time></trkpt><trkpt lat="45.63618396092526" lon="9.841475911918645"><ele>198.0</ele><time>2026-03-15T17:53:23.999Z</time></trkpt><trkpt lat="45.63626291590006" lon="9.841119062472883"><ele>200.0</ele><time>2026-03-15T17:53:24.999Z</time></trkpt><trkpt lat="45.6363403500403" lon="9.840758785446218"><ele>200.0</ele><time>2026-03-15T17:53:25.999Z</time></trkpt><trkpt lat="45.63641911477846" lon="9.840403067572842"><ele>200.0</ele><time>2026-03-15T17:53:26.999Z</time></trkpt><trkpt lat="45.63649868202497" lon="9.840044455258838"><ele>199.5</ele><time>2026-03-15T17:53:27.999Z</time></trkpt><trkpt lat="45.636577483916234" lon="9.839684838836458"><ele>199.0</ele><time>2026-03-15T17:53:28.999Z</time></trkpt><trkpt lat="45.63665519562595" lon="9.839324757884272"><ele>198.5</ele><time>2026-03-15T17:53:29.999Z</time></trkpt><trkpt lat="45.63673091100968" lon="9.83896617601824"><ele>198.0</ele><time>2026-03-15T17:53:30.999Z</time></trkpt><trkpt lat="45.63681100553611" lon="9.838613653412537"><ele>197.5</ele><time>2026-03-15T17:53:31.999Z</time></trkpt><trkpt lat="45.63688989017929" lon="9.838258006295906"><ele>197.0</ele><time>2026-03-15T17:53:32.999Z</time></trkpt><trkpt lat="45.63696629935682" lon="9.83790126066181"><ele>198.0</ele><time>2026-03-15T17:53:33.999Z</time></trkpt><trkpt lat="45.63704316828942" lon="9.837544991995323"><ele>199.0</ele><time>2026-03-15T17:53:34.999Z</time></trkpt><trkpt lat="45.63711856015354" lon="9.837189190383711"><ele>199.0</ele><time>2026-03-15T17:53:35.999Z</time></trkpt><trkpt lat="45.63719599832987" lon="9.836833113411291"><ele>199.0</ele><time>2026-03-15T17:53:36.999Z</time></trkpt><trkpt lat="45.63727347782496" lon="9.836477106448875"><ele>199.5</ele><time>2026-03-15T17:53:37.999Z</time></trkpt><trkpt lat="45.63735329564266" lon="9.836121571032102"><ele>200.0</ele><time>2026-03-15T17:53:38.999Z</time></trkpt><trkpt lat="45.63743263574862" lon="9.835765137166469"><ele>200.5</ele><time>2026-03-15T17:53:39.999Z</time></trkpt><trkpt lat="45.637510824213045" lon="9.835411733255702"><ele>201.0</ele><time>2026-03-15T17:53:40.999Z</time></trkpt><trkpt lat="45.63759037679158" lon="9.835055473949838"><ele>199.5</ele><time>2026-03-15T17:53:41.999Z</time></trkpt><trkpt lat="45.63766805930171" lon="9.834700524364905"><ele>198.0</ele><time>2026-03-15T17:53:42.999Z</time></trkpt><trkpt lat="45.63774458087562" lon="9.834343621641041"><ele>198.5</ele><time>2026-03-15T17:53:43.999Z</time></trkpt><trkpt lat="45.63782422930593" lon="9.833986402785026"><ele>199.0</ele><time>2026-03-15T17:53:44.999Z</time></trkpt><trkpt lat="45.63790433781745" lon="9.833630928424219"><ele>200.0</ele><time>2026-03-15T17:53:45.999Z</time></trkpt><trkpt lat="45.63798244157847" lon="9.833273854153978"><ele>201.0</ele><time>2026-03-15T17:53:46.999Z</time></trkpt><trkpt lat="45.638057258359964" lon="9.832915294640554"><ele>200.5</ele><time>2026-03-15T17:53:47.999Z</time></trkpt><trkpt lat="45.63813445660393" lon="9.83255786045626"><ele>200.0</ele><time>2026-03-15T17:53:48.999Z</time></trkpt><trkpt lat="45.638210414603876" lon="9.832198311164854"><ele>200.0</ele><time>2026-03-15T17:53:49.999Z</time></trkpt><trkpt lat="45.63828864450542" lon="9.831841044549565"><ele>200.0</ele><time>2026-03-15T17:53:50.999Z</time></trkpt><trkpt lat="45.63836823777269" lon="9.831482715947617"><ele>200.0</ele><time>2026-03-15T17:53:51.999Z</time></trkpt><trkpt lat="45.63844535674297" lon="9.831123792577943"><ele>200.0</ele><time>2026-03-15T17:53:52.999Z</time></trkpt><trkpt lat="45.638525536471725" lon="9.830766911927698"><ele>200.0</ele><time>2026-03-15T17:53:53.999Z</time></trkpt><trkpt lat="45.638602687362365" lon="9.830408001876522"><ele>200.0</ele><time>2026-03-15T17:53:54.999Z</time></trkpt><trkpt lat="45.63868368271153" lon="9.830054329840783"><ele>201.0</ele><time>2026-03-15T17:53:55.999Z</time></trkpt><trkpt lat="45.63876177403131" lon="9.82969622185573"><ele>202.0</ele><time>2026-03-15T17:53:56.999Z</time></trkpt><trkpt lat="45.63883732155535" lon="9.829338870627154"><ele>203.0</ele><time>2026-03-15T17:53:57.999Z</time></trkpt><trkpt lat="45.63891542996477" lon="9.828980807868843"><ele>204.0</ele><time>2026-03-15T17:53:58.999Z</time></trkpt><trkpt lat="45.63899701802411" lon="9.828628562957991"><ele>204.0</ele><time>2026-03-15T17:53:59.999Z</time></trkpt><trkpt lat="45.63907601543658" lon="9.82827149390429"><ele>204.0</ele><time>2026-03-15T17:54:00.999Z</time></trkpt><trkpt lat="45.639155341517494" lon="9.8279153008845"><ele>204.0</ele><time>2026-03-15T17:54:01.999Z</time></trkpt><trkpt lat="45.639234298318094" lon="9.827559828367498"><ele>204.0</ele><time>2026-03-15T17:54:02.999Z</time></trkpt><trkpt lat="45.63931201167946" lon="9.82720282018452"><ele>204.0</ele><time>2026-03-15T17:54:03.999Z</time></trkpt><trkpt lat="45.639387020003404" lon="9.826843671593599"><ele>204.0</ele><time>2026-03-15T17:54:04.999Z</time></trkpt><trkpt lat="45.6394665156874" lon="9.826489942721713"><ele>204.0</ele><time>2026-03-15T17:54:05.998Z</time></trkpt><trkpt lat="45.63954548710234" lon="9.82613369304761"><ele>204.0</ele><time>2026-03-15T17:54:06.998Z</time></trkpt><trkpt lat="45.63962478824909" lon="9.825776086258076"><ele>204.0</ele><time>2026-03-15T17:54:07.998Z</time></trkpt><trkpt lat="45.63970222334284" lon="9.825423362552918"><ele>204.0</ele><time>2026-03-15T17:54:08.998Z</time></trkpt><trkpt lat="45.6397794873858" lon="9.825065827644627"><ele>204.0</ele><time>2026-03-15T17:54:09.998Z</time></trkpt><trkpt lat="45.6398555624676" lon="9.824708973001123"><ele>204.0</ele><time>2026-03-15T17:54:10.998Z</time></trkpt><trkpt lat="45.63993363370493" lon="9.824351378469066"><ele>203.0</ele><time>2026-03-15T17:54:11.998Z</time></trkpt><trkpt lat="45.64000845050202" lon="9.823998281027514"><ele>202.0</ele><time>2026-03-15T17:54:12.998Z</time></trkpt><trkpt lat="45.640089785168996" lon="9.823640881156456"><ele>201.5</ele><time>2026-03-15T17:54:13.998Z</time></trkpt><trkpt lat="45.64016803441046" lon="9.82328790712991"><ele>201.0</ele><time>2026-03-15T17:54:14.998Z</time></trkpt><trkpt lat="45.64024858885221" lon="9.822934319411745"><ele>202.5</ele><time>2026-03-15T17:54:15.998Z</time></trkpt><trkpt lat="45.640327862931734" lon="9.82258007403072"><ele>204.0</ele><time>2026-03-15T17:54:16.998Z</time></trkpt><trkpt lat="45.64040381024392" lon="9.822224080521991"><ele>204.0</ele><time>2026-03-15T17:54:17.998Z</time></trkpt><trkpt lat="45.640484043963184" lon="9.82186931414435"><ele>204.0</ele><time>2026-03-15T17:54:18.998Z</time></trkpt><trkpt lat="45.64055725044333" lon="9.821509886356244"><ele>203.5</ele><time>2026-03-15T17:54:19.998Z</time></trkpt><trkpt lat="45.640635882502686" lon="9.821152659475464"><ele>203.0</ele><time>2026-03-15T17:54:20.998Z</time></trkpt><trkpt lat="45.64070874911783" lon="9.820794683015505"><ele>202.5</ele><time>2026-03-15T17:54:21.998Z</time></trkpt><trkpt lat="45.640789530937305" lon="9.820438732974813"><ele>202.0</ele><time>2026-03-15T17:54:22.998Z</time></trkpt><trkpt lat="45.64086687729213" lon="9.820082725776565"><ele>202.0</ele><time>2026-03-15T17:54:23.998Z</time></trkpt><trkpt lat="45.64094667255126" lon="9.819723056031318"><ele>202.0</ele><time>2026-03-15T17:54:24.998Z</time></trkpt><trkpt lat="45.64102118786843" lon="9.819363853096725"><ele>202.0</ele><time>2026-03-15T17:54:25.998Z</time></trkpt><trkpt lat="45.6411025883755" lon="9.819008536363757"><ele>202.0</ele><time>2026-03-15T17:54:26.998Z</time></trkpt><trkpt lat="45.64117967473081" lon="9.818651278507263"><ele>202.0</ele><time>2026-03-15T17:54:27.998Z</time></trkpt><trkpt lat="45.64125999290787" lon="9.818293199162236"><ele>202.0</ele><time>2026-03-15T17:54:28.998Z</time></trkpt><trkpt lat="45.64133927965732" lon="9.81793837636849"><ele>203.0</ele><time>2026-03-15T17:54:29.998Z</time></trkpt><trkpt lat="45.64141404774376" lon="9.817584682729569"><ele>204.0</ele><time>2026-03-15T17:54:30.998Z</time></trkpt><trkpt lat="45.64149396074535" lon="9.817229475959596"><ele>204.0</ele><time>2026-03-15T17:54:31.998Z</time></trkpt><trkpt lat="45.641568839115116" lon="9.816870706522856"><ele>204.0</ele><time>2026-03-15T17:54:32.998Z</time></trkpt><trkpt lat="45.641647774452835" lon="9.816515164397872"><ele>204.0</ele><time>2026-03-15T17:54:33.998Z</time></trkpt><trkpt lat="45.64172795736369" lon="9.816158992283189"><ele>204.0</ele><time>2026-03-15T17:54:34.998Z</time></trkpt><trkpt lat="45.6418071092291" lon="9.815801318731205"><ele>204.0</ele><time>2026-03-15T17:54:35.998Z</time></trkpt><trkpt lat="45.64188476263706" lon="9.81544256958714"><ele>204.0</ele><time>2026-03-15T17:54:36.998Z</time></trkpt><trkpt lat="45.6419644896323" lon="9.81508702238534"><ele>204.0</ele><time>2026-03-15T17:54:37.998Z</time></trkpt><trkpt lat="45.64204214818843" lon="9.814729071028863"><ele>204.0</ele><time>2026-03-15T17:54:38.998Z</time></trkpt><trkpt lat="45.64211922004564" lon="9.814370190849097"><ele>203.0</ele><time>2026-03-15T17:54:39.998Z</time></trkpt><trkpt lat="45.64220017074444" lon="9.814014060475508"><ele>202.0</ele><time>2026-03-15T17:54:40.998Z</time></trkpt><trkpt lat="45.64228089214727" lon="9.813654338023413"><ele>202.0</ele><time>2026-03-15T17:54:41.998Z</time></trkpt><trkpt lat="45.6423589230476" lon="9.813296862351752"><ele>202.0</ele><time>2026-03-15T17:54:42.998Z</time></trkpt><trkpt lat="45.642436091510355" lon="9.812941163530645"><ele>201.5</ele><time>2026-03-15T17:54:43.998Z</time></trkpt><trkpt lat="45.64250807549932" lon="9.812583873843346"><ele>201.0</ele><time>2026-03-15T17:54:44.998Z</time></trkpt><trkpt lat="45.642581661768276" lon="9.81222602777711"><ele>201.0</ele><time>2026-03-15T17:54:45.998Z</time></trkpt><trkpt lat="45.64265645249792" lon="9.811871805302086"><ele>201.0</ele><time>2026-03-15T17:54:46.998Z</time></trkpt><trkpt lat="45.642740090268525" lon="9.811523284950733"><ele>202.0</ele><time>2026-03-15T17:54:47.998Z</time></trkpt><trkpt lat="45.64282623461275" lon="9.811172997326953"><ele>203.0</ele><time>2026-03-15T17:54:48.998Z</time></trkpt><trkpt lat="45.64290696545807" lon="9.810817325977784"><ele>204.0</ele><time>2026-03-15T17:54:50Z</time></trkpt><trkpt lat="45.64298568441489" lon="9.810461039522492"><ele>205.0</ele><time>2026-03-15T17:54:51Z</time></trkpt><trkpt lat="45.643058808744435" lon="9.810102136094512"><ele>205.5</ele><time>2026-03-15T17:54:52Z</time></trkpt><trkpt lat="45.64313623451693" lon="9.809748074682402"><ele>206.0</ele><time>2026-03-15T17:54:53Z</time></trkpt><trkpt lat="45.643213844181496" lon="9.809391596002452"><ele>206.5</ele><time>2026-03-15T17:54:54Z</time></trkpt><trkpt lat="45.64329431671997" lon="9.809037627674023"><ele>207.0</ele><time>2026-03-15T17:54:55Z</time></trkpt><trkpt lat="45.6433712039563" lon="9.808679653646884"><ele>206.5</ele><time>2026-03-15T17:54:56Z</time></trkpt><trkpt lat="45.643447740845566" lon="9.808323451523288"><ele>206.0</ele><time>2026-03-15T17:54:57Z</time></trkpt><trkpt lat="45.64352385895241" lon="9.807966593315426"><ele>206.5</ele><time>2026-03-15T17:54:58Z</time></trkpt><trkpt lat="45.64359985882374" lon="9.80760862756683"><ele>207.0</ele><time>2026-03-15T17:54:59Z</time></trkpt><trkpt lat="45.64367681726262" lon="9.807251647264973"><ele>207.5</ele><time>2026-03-15T17:55:00Z</time></trkpt><trkpt lat="45.643758853373164" lon="9.806895398587733"><ele>208.0</ele><time>2026-03-15T17:55:01Z</time></trkpt><trkpt lat="45.64384159318174" lon="9.806540523826284"><ele>208.0</ele><time>2026-03-15T17:55:02Z</time></trkpt><trkpt lat="45.64392360470971" lon="9.806185569005157"><ele>208.0</ele><time>2026-03-15T17:55:03Z</time></trkpt><trkpt lat="45.64400128693373" lon="9.805829587063029"><ele>206.5</ele><time>2026-03-15T17:55:04Z</time></trkpt><trkpt lat="45.644076594689004" lon="9.805474044996412"><ele>205.0</ele><time>2026-03-15T17:55:05Z</time></trkpt><trkpt lat="45.644153281824366" lon="9.805122474145136"><ele>205.0</ele><time>2026-03-15T17:55:06Z</time></trkpt><trkpt lat="45.64422952524527" lon="9.80476398733816"><ele>205.0</ele><time>2026-03-15T17:55:07Z</time></trkpt><trkpt lat="45.64430705760513" lon="9.804410416680438"><ele>204.5</ele><time>2026-03-15T17:55:08Z</time></trkpt><trkpt lat="45.64438307892976" lon="9.804055729622467"><ele>204.0</ele><time>2026-03-15T17:55:09Z</time></trkpt><trkpt lat="45.6444607388166" lon="9.803701024191096"><ele>205.0</ele><time>2026-03-15T17:55:10Z</time></trkpt><trkpt lat="45.64453716347381" lon="9.803344614809513"><ele>206.0</ele><time>2026-03-15T17:55:11Z</time></trkpt><trkpt lat="45.64461628289359" lon="9.802991744825748"><ele>206.0</ele><time>2026-03-15T17:55:12Z</time></trkpt><trkpt lat="45.64469031384144" lon="9.80263137198603"><ele>206.0</ele><time>2026-03-15T17:55:13Z</time></trkpt><trkpt lat="45.644767531520635" lon="9.802273560662961"><ele>206.0</ele><time>2026-03-15T17:55:14Z</time></trkpt><trkpt lat="45.64484642080449" lon="9.801919662132237"><ele>206.0</ele><time>2026-03-15T17:55:15Z</time></trkpt><trkpt lat="45.64492616859318" lon="9.801562589809173"><ele>206.0</ele><time>2026-03-15T17:55:16Z</time></trkpt><trkpt lat="45.64500498370003" lon="9.80120368227435"><ele>206.0</ele><time>2026-03-15T17:55:17Z</time></trkpt><trkpt lat="45.645085722668206" lon="9.800846777983356"><ele>206.0</ele><time>2026-03-15T17:55:18Z</time></trkpt><trkpt lat="45.64516756728555" lon="9.800491354124711"><ele>206.0</ele><time>2026-03-15T17:55:19Z</time></trkpt><trkpt lat="45.64524606990501" lon="9.800134958253956"><ele>207.5</ele><time>2026-03-15T17:55:20Z</time></trkpt><trkpt lat="45.64532363025981" lon="9.79977846921885"><ele>209.0</ele><time>2026-03-15T17:55:21Z</time></trkpt><trkpt lat="45.64539886496981" lon="9.799419885512455"><ele>208.0</ele><time>2026-03-15T17:55:22Z</time></trkpt><trkpt lat="45.64547425182107" lon="9.799063580298348"><ele>207.0</ele><time>2026-03-15T17:55:23Z</time></trkpt><trkpt lat="45.64554606362918" lon="9.798708805741335"><ele>207.0</ele><time>2026-03-15T17:55:24Z</time></trkpt><trkpt lat="45.645613753752244" lon="9.79834968359394"><ele>207.0</ele><time>2026-03-15T17:55:25Z</time></trkpt><trkpt lat="45.64568017604361" lon="9.7979886190556"><ele>206.5</ele><time>2026-03-15T17:55:26Z</time></trkpt><trkpt lat="45.64574865885118" lon="9.7976295171047"><ele>206.0</ele><time>2026-03-15T17:55:27Z</time></trkpt><trkpt lat="45.645823108898135" lon="9.7972696128381"><ele>206.0</ele><time>2026-03-15T17:55:28Z</time></trkpt><trkpt lat="45.64590245191748" lon="9.796917049635926"><ele>206.0</ele><time>2026-03-15T17:55:29Z</time></trkpt><trkpt lat="45.64598581691919" lon="9.796566035328006"><ele>206.0</ele><time>2026-03-15T17:55:30Z</time></trkpt><trkpt lat="45.64606395944393" lon="9.796208581490317"><ele>206.0</ele><time>2026-03-15T17:55:31Z</time></trkpt><trkpt lat="45.64614306537963" lon="9.795850997724694"><ele>207.0</ele><time>2026-03-15T17:55:32Z</time></trkpt><trkpt lat="45.64622038950722" lon="9.795492796325762"><ele>208.0</ele><time>2026-03-15T17:55:33Z</time></trkpt><trkpt lat="45.64629791663205" lon="9.795133716764427"><ele>208.0</ele><time>2026-03-15T17:55:34Z</time></trkpt><trkpt lat="45.6463786150675" lon="9.794775032042454"><ele>208.0</ele><time>2026-03-15T17:55:35Z</time></trkpt><trkpt lat="45.64645580523962" lon="9.794413992256843"><ele>208.0</ele><time>2026-03-15T17:55:36Z</time></trkpt><trkpt lat="45.64653820231432" lon="9.794056684506828"><ele>208.0</ele><time>2026-03-15T17:55:37Z</time></trkpt><trkpt lat="45.64661772346748" lon="9.793694322333124"><ele>208.5</ele><time>2026-03-15T17:55:38Z</time></trkpt><trkpt lat="45.64669519882587" lon="9.793336818467754"><ele>209.0</ele><time>2026-03-15T17:55:39Z</time></trkpt><trkpt lat="45.64677225993675" lon="9.792979118957199"><ele>208.0</ele><time>2026-03-15T17:55:40Z</time></trkpt><trkpt lat="45.64684984575355" lon="9.792622173002128"><ele>207.0</ele><time>2026-03-15T17:55:41Z</time></trkpt><trkpt lat="45.64692854997264" lon="9.79226519769473"><ele>207.0</ele><time>2026-03-15T17:55:41.999Z</time></trkpt><trkpt lat="45.64700771925344" lon="9.791907519123848"><ele>207.0</ele><time>2026-03-15T17:55:42.999Z</time></trkpt><trkpt lat="45.64708389976834" lon="9.791557088480255"><ele>207.0</ele><time>2026-03-15T17:55:43.999Z</time></trkpt><trkpt lat="45.64716020731793" lon="9.791200818495321"><ele>207.0</ele><time>2026-03-15T17:55:44.999Z</time></trkpt><trkpt lat="45.64723732726209" lon="9.79084424456714"><ele>206.5</ele><time>2026-03-15T17:55:45.999Z</time></trkpt><trkpt lat="45.647314829790176" lon="9.790491210227566"><ele>206.0</ele><time>2026-03-15T17:55:46.999Z</time></trkpt><trkpt lat="45.6473940589568" lon="9.790139812337923"><ele>205.5</ele><time>2026-03-15T17:55:47.999Z</time></trkpt><trkpt lat="45.64747212305885" lon="9.789786263199687"><ele>205.0</ele><time>2026-03-15T17:55:48.999Z</time></trkpt><trkpt lat="45.647550275658574" lon="9.789429491426658"><ele>205.5</ele><time>2026-03-15T17:55:49.999Z</time></trkpt><trkpt lat="45.64763018596409" lon="9.789082375092955"><ele>206.0</ele><time>2026-03-15T17:55:50.999Z</time></trkpt><trkpt lat="45.647707933827185" lon="9.78872996689651"><ele>206.0</ele><time>2026-03-15T17:55:51.999Z</time></trkpt><trkpt lat="45.64778445448295" lon="9.788377710503875"><ele>206.0</ele><time>2026-03-15T17:55:52.999Z</time></trkpt><trkpt lat="45.647861585568286" lon="9.788025760760467"><ele>206.0</ele><time>2026-03-15T17:55:53.999Z</time></trkpt><trkpt lat="45.64793824884481" lon="9.787669435751017"><ele>206.0</ele><time>2026-03-15T17:55:54.999Z</time></trkpt><trkpt lat="45.64801714410767" lon="9.78731246962532"><ele>206.0</ele><time>2026-03-15T17:55:55.999Z</time></trkpt><trkpt lat="45.64809546923499" lon="9.786955589324524"><ele>206.0</ele><time>2026-03-15T17:55:56.999Z</time></trkpt><trkpt lat="45.64817451360177" lon="9.786597096826654"><ele>206.0</ele><time>2026-03-15T17:55:57.999Z</time></trkpt><trkpt lat="45.648253228540725" lon="9.7862383718152"><ele>206.0</ele><time>2026-03-15T17:55:58.999Z</time></trkpt><trkpt lat="45.64833060265093" lon="9.785877346203524"><ele>206.0</ele><time>2026-03-15T17:55:59.999Z</time></trkpt><trkpt lat="45.64841111764047" lon="9.785522859783562"><ele>206.0</ele><time>2026-03-15T17:56:00.999Z</time></trkpt><trkpt lat="45.648486439998095" lon="9.785160770378832"><ele>206.5</ele><time>2026-03-15T17:56:01.999Z</time></trkpt><trkpt lat="45.64856570493875" lon="9.784804622301278"><ele>207.0</ele><time>2026-03-15T17:56:02.999Z</time></trkpt><trkpt lat="45.64864242342333" lon="9.784448789729034"><ele>208.0</ele><time>2026-03-15T17:56:03.999Z</time></trkpt><trkpt lat="45.64872101558955" lon="9.784097826203388"><ele>209.0</ele><time>2026-03-15T17:56:04.999Z</time></trkpt><trkpt lat="45.64879562071919" lon="9.783739037072328"><ele>209.5</ele><time>2026-03-15T17:56:05.999Z</time></trkpt><trkpt lat="45.64887100865766" lon="9.783380221701194"><ele>210.0</ele><time>2026-03-15T17:56:06.999Z</time></trkpt><trkpt lat="45.648949634849764" lon="9.783028345304704"><ele>210.0</ele><time>2026-03-15T17:56:07.999Z</time></trkpt><trkpt lat="45.64902691588467" lon="9.782674679961136"><ele>210.0</ele><time>2026-03-15T17:56:08.999Z</time></trkpt><trkpt lat="45.649105538576855" lon="9.782319761715927"><ele>210.0</ele><time>2026-03-15T17:56:09.999Z</time></trkpt><trkpt lat="45.649181787245034" lon="9.781962107656112"><ele>210.0</ele><time>2026-03-15T17:56:10.999Z</time></trkpt><trkpt lat="45.649259688681035" lon="9.781606550097825"><ele>209.0</ele><time>2026-03-15T17:56:11.999Z</time></trkpt><trkpt lat="45.649337138369134" lon="9.781249054184821"><ele>208.0</ele><time>2026-03-15T17:56:12.999Z</time></trkpt><trkpt lat="45.649416817001075" lon="9.780893638314891"><ele>208.5</ele><time>2026-03-15T17:56:13.998Z</time></trkpt><trkpt lat="45.649494995806265" lon="9.780534599704946"><ele>209.0</ele><time>2026-03-15T17:56:14.998Z</time></trkpt><trkpt lat="45.64957407695226" lon="9.78018106501554"><ele>209.0</ele><time>2026-03-15T17:56:15.998Z</time></trkpt><trkpt lat="45.64965073815131" lon="9.77982175248014"><ele>209.0</ele><time>2026-03-15T17:56:16.998Z</time></trkpt><trkpt lat="45.64972797446043" lon="9.77946667895711"><ele>209.0</ele><time>2026-03-15T17:56:17.998Z</time></trkpt><trkpt lat="45.64980340909826" lon="9.779110554967039"><ele>209.0</ele><time>2026-03-15T17:56:18.998Z</time></trkpt><trkpt lat="45.64988153307935" lon="9.77875492848559"><ele>208.5</ele><time>2026-03-15T17:56:19.998Z</time></trkpt><trkpt lat="45.64996025175389" lon="9.778402341515173"><ele>208.0</ele><time>2026-03-15T17:56:20.998Z</time></trkpt><trkpt lat="45.65003629026002" lon="9.778046601363977"><ele>208.0</ele><time>2026-03-15T17:56:21.998Z</time></trkpt><trkpt lat="45.65011334583851" lon="9.777690313885818"><ele>208.0</ele><time>2026-03-15T17:56:22.998Z</time></trkpt><trkpt lat="45.65019182418189" lon="9.777335551201201"><ele>209.5</ele><time>2026-03-15T17:56:23.998Z</time></trkpt><trkpt lat="45.65027190131444" lon="9.77698221982788"><ele>211.0</ele><time>2026-03-15T17:56:24.998Z</time></trkpt><trkpt lat="45.65034954359527" lon="9.77662431289749"><ele>211.0</ele><time>2026-03-15T17:56:25.997Z</time></trkpt><trkpt lat="45.65042774192665" lon="9.776266267138459"><ele>211.0</ele><time>2026-03-15T17:56:26.997Z</time></trkpt><trkpt lat="45.65050462691885" lon="9.775904894575774"><ele>211.0</ele><time>2026-03-15T17:56:27.997Z</time></trkpt><trkpt lat="45.65058523745394" lon="9.775551650299434"><ele>211.0</ele><time>2026-03-15T17:56:28.997Z</time></trkpt><trkpt lat="45.65066308586077" lon="9.775193424788458"><ele>211.5</ele><time>2026-03-15T17:56:29.997Z</time></trkpt><trkpt lat="45.65074042871076" lon="9.774836402758938"><ele>212.0</ele><time>2026-03-15T17:56:30.997Z</time></trkpt><trkpt lat="45.650817339875886" lon="9.77447852361285"><ele>211.5</ele><time>2026-03-15T17:56:31.997Z</time></trkpt><trkpt lat="45.6508949659978" lon="9.774122186696632"><ele>211.0</ele><time>2026-03-15T17:56:32.997Z</time></trkpt><trkpt lat="45.65097166205092" lon="9.773762206325895"><ele>211.5</ele><time>2026-03-15T17:56:33.997Z</time></trkpt><trkpt lat="45.65105174870528" lon="9.773407934202687"><ele>212.0</ele><time>2026-03-15T17:56:34.997Z</time></trkpt><trkpt lat="45.65113402516437" lon="9.77305274210133"><ele>212.5</ele><time>2026-03-15T17:56:35.997Z</time></trkpt><trkpt lat="45.65122182169577" lon="9.772701013479221"><ele>213.0</ele><time>2026-03-15T17:56:36.997Z</time></trkpt><trkpt lat="45.65130841701717" lon="9.77234881488897"><ele>213.0</ele><time>2026-03-15T17:56:37.997Z</time></trkpt><trkpt lat="45.6513914998585" lon="9.771996393923576"><ele>213.0</ele><time>2026-03-15T17:56:38.997Z</time></trkpt><trkpt lat="45.65146698213084" lon="9.771635887361558"><ele>213.0</ele><time>2026-03-15T17:56:39.997Z</time></trkpt><trkpt lat="45.65154027869151" lon="9.771284127227021"><ele>213.0</ele><time>2026-03-15T17:56:40.997Z</time></trkpt><trkpt lat="45.651610902545954" lon="9.770923328706273"><ele>213.0</ele><time>2026-03-15T17:56:41.997Z</time></trkpt><trkpt lat="45.651681393471144" lon="9.770564166461606"><ele>213.0</ele><time>2026-03-15T17:56:42.997Z</time></trkpt><trkpt lat="45.65175273690648" lon="9.77020996511299"><ele>213.5</ele><time>2026-03-15T17:56:43.997Z</time></trkpt><trkpt lat="45.65182506435829" lon="9.769851811094723"><ele>214.0</ele><time>2026-03-15T17:56:44.997Z</time></trkpt><trkpt lat="45.651895355271535" lon="9.769493984655258"><ele>214.0</ele><time>2026-03-15T17:56:45.997Z</time></trkpt><trkpt lat="45.65196790745112" lon="9.769139756110153"><ele>214.0</ele><time>2026-03-15T17:56:46.997Z</time></trkpt><trkpt lat="45.65203609266719" lon="9.76877520043111"><ele>214.5</ele><time>2026-03-15T17:56:47.997Z</time></trkpt><trkpt lat="45.652105800059324" lon="9.768421554896598"><ele>215.0</ele><time>2026-03-15T17:56:48.997Z</time></trkpt><trkpt lat="45.65216949815282" lon="9.768057411044364"><ele>215.0</ele><time>2026-03-15T17:56:49.997Z</time></trkpt><trkpt lat="45.652235838668425" lon="9.767697188495301"><ele>215.0</ele><time>2026-03-15T17:56:50.997Z</time></trkpt><trkpt lat="45.65230314083129" lon="9.767340349465066"><ele>215.0</ele><time>2026-03-15T17:56:51.997Z</time></trkpt><trkpt lat="45.65235926909234" lon="9.767004027506974"><ele>215.0</ele><time>2026-03-15T17:56:52.997Z</time></trkpt><trkpt lat="45.652419463499335" lon="9.766659372606643"><ele>215.0</ele><time>2026-03-15T17:56:53.997Z</time></trkpt><trkpt lat="45.65248120107265" lon="9.766294919633074"><ele>215.0</ele><time>2026-03-15T17:56:55Z</time></trkpt><trkpt lat="45.65254306264172" lon="9.765928652269306"><ele>216.0</ele><time>2026-03-15T17:56:56Z</time></trkpt><trkpt lat="45.65260320539163" lon="9.765566459455528"><ele>217.0</ele><time>2026-03-15T17:56:57Z</time></trkpt><trkpt lat="45.65266456975333" lon="9.765201568613369"><ele>216.5</ele><time>2026-03-15T17:56:58Z</time></trkpt><trkpt lat="45.652723259899915" lon="9.76483501117202"><ele>216.0</ele><time>2026-03-15T17:56:59Z</time></trkpt><trkpt lat="45.65278376873711" lon="9.764472468454239"><ele>216.5</ele><time>2026-03-15T17:57:00Z</time></trkpt><trkpt lat="45.65284453061237" lon="9.7641094798121"><ele>217.0</ele><time>2026-03-15T17:57:01Z</time></trkpt><trkpt lat="45.6529055792802" lon="9.763747899588521"><ele>217.5</ele><time>2026-03-15T17:57:02Z</time></trkpt><trkpt lat="45.65296502531248" lon="9.763388247779515"><ele>218.0</ele><time>2026-03-15T17:57:03Z</time></trkpt><trkpt lat="45.6530270083687" lon="9.763028977253642"><ele>218.5</ele><time>2026-03-15T17:57:04Z</time></trkpt><trkpt lat="45.65308925518496" lon="9.762666114418447"><ele>219.0</ele><time>2026-03-15T17:57:05Z</time></trkpt><trkpt lat="45.653148725699666" lon="9.762306780949043"><ele>219.0</ele><time>2026-03-15T17:57:06Z</time></trkpt><trkpt lat="45.65321044906824" lon="9.761946705563563"><ele>219.0</ele><time>2026-03-15T17:57:07Z</time></trkpt><trkpt lat="45.653272899673745" lon="9.761587640254882"><ele>219.0</ele><time>2026-03-15T17:57:08Z</time></trkpt><trkpt lat="45.653333166288775" lon="9.76122621884539"><ele>219.0</ele><time>2026-03-15T17:57:09Z</time></trkpt><trkpt lat="45.65339377195037" lon="9.760862842605249"><ele>219.0</ele><time>2026-03-15T17:57:10Z</time></trkpt><trkpt lat="45.653454175104436" lon="9.760499303335516"><ele>219.0</ele><time>2026-03-15T17:57:11Z</time></trkpt><trkpt lat="45.65351549271388" lon="9.760135581624592"><ele>218.5</ele><time>2026-03-15T17:57:12Z</time></trkpt><trkpt lat="45.65357652921971" lon="9.759771579458967"><ele>218.0</ele><time>2026-03-15T17:57:13Z</time></trkpt><trkpt lat="45.65363906932899" lon="9.759407870870483"><ele>219.0</ele><time>2026-03-15T17:57:14Z</time></trkpt><trkpt lat="45.65369829270289" lon="9.759045211959133"><ele>220.0</ele><time>2026-03-15T17:57:14.999Z</time></trkpt><trkpt lat="45.65375910625835" lon="9.758681064354013"><ele>220.5</ele><time>2026-03-15T17:57:15.999Z</time></trkpt><trkpt lat="45.65382027942695" lon="9.758317506182458"><ele>221.0</ele><time>2026-03-15T17:57:16.999Z</time></trkpt><trkpt lat="45.6538821254581" lon="9.75795633568447"><ele>220.0</ele><time>2026-03-15T17:57:17.999Z</time></trkpt><trkpt lat="45.653944829387186" lon="9.75759216783867"><ele>219.0</ele><time>2026-03-15T17:57:18.999Z</time></trkpt><trkpt lat="45.654008809124036" lon="9.75722808844893"><ele>219.5</ele><time>2026-03-15T17:57:19.999Z</time></trkpt><trkpt lat="45.65406946978633" lon="9.756867517872902"><ele>220.0</ele><time>2026-03-15T17:57:20.999Z</time></trkpt><trkpt lat="45.65413072833485" lon="9.756503997763517"><ele>220.0</ele><time>2026-03-15T17:57:21.999Z</time></trkpt><trkpt lat="45.654192537300766" lon="9.756136980856052"><ele>220.0</ele><time>2026-03-15T17:57:22.999Z</time></trkpt><trkpt lat="45.654252666189635" lon="9.755776051020897"><ele>220.0</ele><time>2026-03-15T17:57:23.999Z</time></trkpt><trkpt lat="45.654313849065964" lon="9.755410221729795"><ele>220.0</ele><time>2026-03-15T17:57:24.999Z</time></trkpt><trkpt lat="45.65437529283245" lon="9.75504739270785"><ele>220.0</ele><time>2026-03-15T17:57:25.999Z</time></trkpt><trkpt lat="45.65443591591144" lon="9.75468703247707"><ele>220.0</ele><time>2026-03-15T17:57:26.999Z</time></trkpt><trkpt lat="45.65449135782896" lon="9.754321651059032"><ele>220.0</ele><time>2026-03-15T17:57:27.999Z</time></trkpt><trkpt lat="45.654542643652064" lon="9.753956019911287"><ele>220.0</ele><time>2026-03-15T17:57:28.999Z</time></trkpt><trkpt lat="45.654594568700304" lon="9.753587252695258"><ele>220.0</ele><time>2026-03-15T17:57:29.999Z</time></trkpt><trkpt lat="45.65465093014272" lon="9.753220978794793"><ele>220.0</ele><time>2026-03-15T17:57:30.999Z</time></trkpt><trkpt lat="45.65470967883817" lon="9.752857004175999"><ele>220.5</ele><time>2026-03-15T17:57:31.999Z</time></trkpt><trkpt lat="45.65477050238675" lon="9.752496387796302"><ele>221.0</ele><time>2026-03-15T17:57:32.999Z</time></trkpt><trkpt lat="45.65483227749759" lon="9.752128563263762"><ele>221.5</ele><time>2026-03-15T17:57:33.999Z</time></trkpt><trkpt lat="45.654894313187235" lon="9.751765660126859"><ele>222.0</ele><time>2026-03-15T17:57:34.999Z</time></trkpt><trkpt lat="45.654955418136204" lon="9.751399689329226"><ele>222.5</ele><time>2026-03-15T17:57:35.999Z</time></trkpt><trkpt lat="45.65501710024472" lon="9.751037678887654"><ele>223.0</ele><time>2026-03-15T17:57:36.999Z</time></trkpt><trkpt lat="45.65508022597992" lon="9.75067416329616"><ele>223.0</ele><time>2026-03-15T17:57:37.999Z</time></trkpt><trkpt lat="45.65514335641923" lon="9.75031137681092"><ele>223.0</ele><time>2026-03-15T17:57:38.999Z</time></trkpt><trkpt lat="45.65520497562276" lon="9.749945455582065"><ele>223.0</ele><time>2026-03-15T17:57:39.999Z</time></trkpt><trkpt lat="45.65526520091251" lon="9.749582424254946"><ele>223.0</ele><time>2026-03-15T17:57:40.999Z</time></trkpt><trkpt lat="45.655326296079224" lon="9.749216383648024"><ele>223.5</ele><time>2026-03-15T17:57:41.999Z</time></trkpt><trkpt lat="45.655390182342856" lon="9.748850363355833"><ele>224.0</ele><time>2026-03-15T17:57:42.999Z</time></trkpt><trkpt lat="45.65545173986999" lon="9.748485901703345"><ele>224.0</ele><time>2026-03-15T17:57:43.999Z</time></trkpt><trkpt lat="45.65551863147995" lon="9.748118681998564"><ele>224.0</ele><time>2026-03-15T17:57:44.999Z</time></trkpt><trkpt lat="45.655586963494954" lon="9.747757339628546"><ele>224.5</ele><time>2026-03-15T17:57:45.999Z</time></trkpt><trkpt lat="45.6556548055734" lon="9.747391071511144"><ele>225.0</ele><time>2026-03-15T17:57:46.999Z</time></trkpt><trkpt lat="45.65572185137795" lon="9.747027012368653"><ele>225.0</ele><time>2026-03-15T17:57:47.999Z</time></trkpt><trkpt lat="45.65578969496101" lon="9.7466664190884"><ele>225.0</ele><time>2026-03-15T17:57:48.999Z</time></trkpt><trkpt lat="45.65585715247479" lon="9.746307977342413"><ele>225.5</ele><time>2026-03-15T17:57:49.999Z</time></trkpt><trkpt lat="45.655925277522286" lon="9.745947970957788"><ele>226.0</ele><time>2026-03-15T17:57:50.999Z</time></trkpt><trkpt lat="45.65599204298187" lon="9.745585541460887"><ele>226.0</ele><time>2026-03-15T17:57:51.999Z</time></trkpt><trkpt lat="45.65605883234578" lon="9.745227508586723"><ele>226.0</ele><time>2026-03-15T17:57:52.999Z</time></trkpt><trkpt lat="45.65612893085715" lon="9.744873213508525"><ele>226.0</ele><time>2026-03-15T17:57:53.999Z</time></trkpt><trkpt lat="45.65619797088909" lon="9.744509019526"><ele>226.0</ele><time>2026-03-15T17:57:54.999Z</time></trkpt><trkpt lat="45.656270290245885" lon="9.744147065740336"><ele>225.5</ele><time>2026-03-15T17:57:55.999Z</time></trkpt><trkpt lat="45.65634468560808" lon="9.743792817332242"><ele>225.0</ele><time>2026-03-15T17:57:56.999Z</time></trkpt><trkpt lat="45.6564080211441" lon="9.74343891991652"><ele>223.5</ele><time>2026-03-15T17:57:57.999Z</time></trkpt><trkpt lat="45.656461727265906" lon="9.743077197315147"><ele>222.0</ele><time>2026-03-15T17:57:58.999Z</time></trkpt><trkpt lat="45.656533790006165" lon="9.742719772934661"><ele>220.5</ele><time>2026-03-15T17:57:59.999Z</time></trkpt><trkpt lat="45.65660371291824" lon="9.742368957631985"><ele>219.0</ele><time>2026-03-15T17:58:00.998Z</time></trkpt><trkpt lat="45.65667248022397" lon="9.742014924633704"><ele>218.5</ele><time>2026-03-15T17:58:01.998Z</time></trkpt><trkpt lat="45.65673682739229" lon="9.741655756708404"><ele>218.0</ele><time>2026-03-15T17:58:02.998Z</time></trkpt><trkpt lat="45.65680679656612" lon="9.741300142814996"><ele>218.0</ele><time>2026-03-15T17:58:03.998Z</time></trkpt><trkpt lat="45.656873239645236" lon="9.74094454346417"><ele>218.0</ele><time>2026-03-15T17:58:04.998Z</time></trkpt><trkpt lat="45.65692976872702" lon="9.740576523936937"><ele>218.0</ele><time>2026-03-15T17:58:05.998Z</time></trkpt><trkpt lat="45.656996325407775" lon="9.740216945841619"><ele>218.0</ele><time>2026-03-15T17:58:06.998Z</time></trkpt><trkpt lat="45.657067248103935" lon="9.739857989268073"><ele>218.5</ele><time>2026-03-15T17:58:07.998Z</time></trkpt><trkpt lat="45.65713197836812" lon="9.739498957994806"><ele>219.0</ele><time>2026-03-15T17:58:08.998Z</time></trkpt><trkpt lat="45.657198607807956" lon="9.739135475053935"><ele>219.0</ele><time>2026-03-15T17:58:09.998Z</time></trkpt><trkpt lat="45.657267182072765" lon="9.73877433804106"><ele>219.0</ele><time>2026-03-15T17:58:10.998Z</time></trkpt><trkpt lat="45.657336139826334" lon="9.73841321787606"><ele>219.5</ele><time>2026-03-15T17:58:11.998Z</time></trkpt><trkpt lat="45.657400491059214" lon="9.738048931692978"><ele>220.0</ele><time>2026-03-15T17:58:12.998Z</time></trkpt><trkpt lat="45.65746672854998" lon="9.737687236093159"><ele>220.0</ele><time>2026-03-15T17:58:13.998Z</time></trkpt><trkpt lat="45.657532165810025" lon="9.737325840844825"><ele>220.0</ele><time>2026-03-15T17:58:14.998Z</time></trkpt><trkpt lat="45.65759754550181" lon="9.736961753083515"><ele>219.5</ele><time>2026-03-15T17:58:15.998Z</time></trkpt><trkpt lat="45.657663650643265" lon="9.736602438866521"><ele>219.0</ele><time>2026-03-15T17:58:16.998Z</time></trkpt><trkpt lat="45.657729792739595" lon="9.73624284747121"><ele>220.0</ele><time>2026-03-15T17:58:17.998Z</time></trkpt><trkpt lat="45.657798102068405" lon="9.735882574406583"><ele>221.0</ele><time>2026-03-15T17:58:18.998Z</time></trkpt><trkpt lat="45.657863480121634" lon="9.735519483695557"><ele>221.5</ele><time>2026-03-15T17:58:19.998Z</time></trkpt><trkpt lat="45.65793122620803" lon="9.735161439263148"><ele>222.0</ele><time>2026-03-15T17:58:20.998Z</time></trkpt><trkpt lat="45.65799741831713" lon="9.734801093498088"><ele>222.0</ele><time>2026-03-15T17:58:21.998Z</time></trkpt><trkpt lat="45.65806585484982" lon="9.734440522708123"><ele>222.0</ele><time>2026-03-15T17:58:22.998Z</time></trkpt><trkpt lat="45.65813397568207" lon="9.734082202058662"><ele>222.0</ele><time>2026-03-15T17:58:23.998Z</time></trkpt><trkpt lat="45.658203776750234" lon="9.733726079008699"><ele>222.0</ele><time>2026-03-15T17:58:24.998Z</time></trkpt><trkpt lat="45.65827106930627" lon="9.733365792312624"><ele>221.0</ele><time>2026-03-15T17:58:25.998Z</time></trkpt><trkpt lat="45.65833431998986" lon="9.733008899508434"><ele>220.0</ele><time>2026-03-15T17:58:26.998Z</time></trkpt><trkpt lat="45.65840144830935" lon="9.732647856648226"><ele>219.0</ele><time>2026-03-15T17:58:27.998Z</time></trkpt><trkpt lat="45.65847121541688" lon="9.732288506352068"><ele>218.0</ele><time>2026-03-15T17:58:28.998Z</time></trkpt><trkpt lat="45.65854455198888" lon="9.731926315025696"><ele>218.5</ele><time>2026-03-15T17:58:29.998Z</time></trkpt><trkpt lat="45.65862188426941" lon="9.731567727409834"><ele>219.0</ele><time>2026-03-15T17:58:30.998Z</time></trkpt><trkpt lat="45.65869828203319" lon="9.731208031382122"><ele>220.0</ele><time>2026-03-15T17:58:31.998Z</time></trkpt><trkpt lat="45.65876833868343" lon="9.730841609026175"><ele>221.0</ele><time>2026-03-15T17:58:32.998Z</time></trkpt><trkpt lat="45.65883642524317" lon="9.730477994625545"><ele>222.0</ele><time>2026-03-15T17:58:33.998Z</time></trkpt><trkpt lat="45.65890532631861" lon="9.730113729138653"><ele>223.0</ele><time>2026-03-15T17:58:34.998Z</time></trkpt><trkpt lat="45.65897472865722" lon="9.729753326463007"><ele>222.5</ele><time>2026-03-15T17:58:35.998Z</time></trkpt><trkpt lat="45.6590414027143" lon="9.729387323163628"><ele>222.0</ele><time>2026-03-15T17:58:36.998Z</time></trkpt><trkpt lat="45.659108406983265" lon="9.729022813171172"><ele>222.0</ele><time>2026-03-15T17:58:37.998Z</time></trkpt><trkpt lat="45.659177599778" lon="9.728663925024568"><ele>222.0</ele><time>2026-03-15T17:58:38.998Z</time></trkpt><trkpt lat="45.659246676283615" lon="9.72830345471287"><ele>222.0</ele><time>2026-03-15T17:58:39.998Z</time></trkpt><trkpt lat="45.65931404477956" lon="9.727941671378542"><ele>222.0</ele><time>2026-03-15T17:58:40.998Z</time></trkpt><trkpt lat="45.65938419327886" lon="9.727585192302026"><ele>222.0</ele><time>2026-03-15T17:58:41.998Z</time></trkpt><trkpt lat="45.65944999421802" lon="9.727223908119838"><ele>222.0</ele><time>2026-03-15T17:58:42.998Z</time></trkpt><trkpt lat="45.6595177197028" lon="9.72686441163558"><ele>222.5</ele><time>2026-03-15T17:58:43.998Z</time></trkpt><trkpt lat="45.65958503803514" lon="9.726503371449981"><ele>223.0</ele><time>2026-03-15T17:58:44.997Z</time></trkpt><trkpt lat="45.65965055414958" lon="9.726141093679102"><ele>222.5</ele><time>2026-03-15T17:58:45.997Z</time></trkpt><trkpt lat="45.65971777817552" lon="9.725780086770348"><ele>222.0</ele><time>2026-03-15T17:58:46.997Z</time></trkpt><trkpt lat="45.6597845891822" lon="9.725418703310437"><ele>223.5</ele><time>2026-03-15T17:58:47.997Z</time></trkpt><trkpt lat="45.659849819191145" lon="9.725052339216317"><ele>225.0</ele><time>2026-03-15T17:58:48.997Z</time></trkpt><trkpt lat="45.6599159369534" lon="9.724692246577115"><ele>225.5</ele><time>2026-03-15T17:58:49.997Z</time></trkpt><trkpt lat="45.65998409472435" lon="9.724331449976019"><ele>226.0</ele><time>2026-03-15T17:58:50.997Z</time></trkpt><trkpt lat="45.6600505664469" lon="9.723969063686466"><ele>226.0</ele><time>2026-03-15T17:58:51.997Z</time></trkpt><trkpt lat="45.660121931817386" lon="9.723609355604403"><ele>226.0</ele><time>2026-03-15T17:58:52.997Z</time></trkpt><trkpt lat="45.6601885065677" lon="9.72324711076178"><ele>226.5</ele><time>2026-03-15T17:58:53.997Z</time></trkpt><trkpt lat="45.660258073817886" lon="9.722883870872648"><ele>227.0</ele><time>2026-03-15T17:58:54.997Z</time></trkpt><trkpt lat="45.6603297186265" lon="9.722523955765196"><ele>227.0</ele><time>2026-03-15T17:58:55.997Z</time></trkpt><trkpt lat="45.660395352287075" lon="9.722161014534393"><ele>227.0</ele><time>2026-03-15T17:58:56.997Z</time></trkpt><trkpt lat="45.66046396332606" lon="9.721799259977972"><ele>227.0</ele><time>2026-03-15T17:58:57.997Z</time></trkpt><trkpt lat="45.66052672492411" lon="9.721432389740295"><ele>227.0</ele><time>2026-03-15T17:58:58.997Z</time></trkpt><trkpt lat="45.66059044687394" lon="9.721070720810642"><ele>227.0</ele><time>2026-03-15T17:58:59.997Z</time></trkpt><trkpt lat="45.660659040093606" lon="9.72071134904881"><ele>227.0</ele><time>2026-03-15T17:59:01Z</time></trkpt><trkpt lat="45.66072733992107" lon="9.72035182383695"><ele>226.5</ele><time>2026-03-15T17:59:02Z</time></trkpt><trkpt lat="45.660798062574564" lon="9.719991415481214"><ele>226.0</ele><time>2026-03-15T17:59:03Z</time></trkpt><trkpt lat="45.66086405058228" lon="9.719630696743886"><ele>226.0</ele><time>2026-03-15T17:59:04Z</time></trkpt><trkpt lat="45.66093179833884" lon="9.719270494022926"><ele>226.0</ele><time>2026-03-15T17:59:05Z</time></trkpt><trkpt lat="45.66099606400102" lon="9.718907154596405"><ele>226.0</ele><time>2026-03-15T17:59:06Z</time></trkpt><trkpt lat="45.66105929517345" lon="9.718544359034643"><ele>226.0</ele><time>2026-03-15T17:59:07Z</time></trkpt><trkpt lat="45.661126181308" lon="9.718180886383852"><ele>228.0</ele><time>2026-03-15T17:59:08Z</time></trkpt><trkpt lat="45.66118902442964" lon="9.717824667469799"><ele>230.0</ele><time>2026-03-15T17:59:09Z</time></trkpt><trkpt lat="45.66125775829718" lon="9.717459243822125"><ele>230.0</ele><time>2026-03-15T17:59:10Z</time></trkpt><trkpt lat="45.661328057701176" lon="9.717099466732243"><ele>230.0</ele><time>2026-03-15T17:59:11Z</time></trkpt><trkpt lat="45.66139783578429" lon="9.716738925728931"><ele>229.0</ele><time>2026-03-15T17:59:12Z</time></trkpt><trkpt lat="45.661463374171944" lon="9.716378138844739"><ele>228.0</ele><time>2026-03-15T17:59:13Z</time></trkpt><trkpt lat="45.66153685529203" lon="9.716018452448775"><ele>228.0</ele><time>2026-03-15T17:59:14Z</time></trkpt><trkpt lat="45.661605044494785" lon="9.715662203735368"><ele>228.0</ele><time>2026-03-15T17:59:15Z</time></trkpt><trkpt lat="45.66166129589487" lon="9.71529948175385"><ele>228.0</ele><time>2026-03-15T17:59:16Z</time></trkpt><trkpt lat="45.6617177226129" lon="9.71493775801177"><ele>228.0</ele><time>2026-03-15T17:59:17Z</time></trkpt><trkpt lat="45.661774790539546" lon="9.714581422485669"><ele>228.0</ele><time>2026-03-15T17:59:18Z</time></trkpt><trkpt lat="45.661842108611054" lon="9.714228494416464"><ele>228.0</ele><time>2026-03-15T17:59:19Z</time></trkpt><trkpt lat="45.661908871119564" lon="9.71387277437555"><ele>228.0</ele><time>2026-03-15T17:59:20Z</time></trkpt><trkpt lat="45.66197723438238" lon="9.713515075521839"><ele>228.0</ele><time>2026-03-15T17:59:21Z</time></trkpt><trkpt lat="45.66204226933672" lon="9.71315604281408"><ele>228.0</ele><time>2026-03-15T17:59:22Z</time></trkpt><trkpt lat="45.662106260608454" lon="9.712795553050753"><ele>228.0</ele><time>2026-03-15T17:59:23Z</time></trkpt><trkpt lat="45.662170520686" lon="9.712434780797233"><ele>228.5</ele><time>2026-03-15T17:59:24Z</time></trkpt><trkpt lat="45.6622317567999" lon="9.71207110158501"><ele>229.0</ele><time>2026-03-15T17:59:25Z</time></trkpt><trkpt lat="45.662298499598045" lon="9.711710747593763"><ele>230.0</ele><time>2026-03-15T17:59:26Z</time></trkpt><trkpt lat="45.66237094752312" lon="9.711351456785222"><ele>231.0</ele><time>2026-03-15T17:59:27Z</time></trkpt><trkpt lat="45.66243716955126" lon="9.71098824603692"><ele>231.0</ele><time>2026-03-15T17:59:28Z</time></trkpt><trkpt lat="45.66250743650912" lon="9.71062614939396"><ele>231.0</ele><time>2026-03-15T17:59:29Z</time></trkpt><trkpt lat="45.66257454288627" lon="9.710264507807043"><ele>232.0</ele><time>2026-03-15T17:59:30Z</time></trkpt><trkpt lat="45.66264287205313" lon="9.709903648198306"><ele>233.0</ele><time>2026-03-15T17:59:31Z</time></trkpt><trkpt lat="45.662709257172274" lon="9.709542471987715"><ele>233.0</ele><time>2026-03-15T17:59:32Z</time></trkpt><trkpt lat="45.66277528097873" lon="9.709179546812186"><ele>233.0</ele><time>2026-03-15T17:59:32.999Z</time></trkpt><trkpt lat="45.66284001442756" lon="9.708816489944477"><ele>233.5</ele><time>2026-03-15T17:59:33.999Z</time></trkpt><trkpt lat="45.66290643369196" lon="9.708452744956315"><ele>234.0</ele><time>2026-03-15T17:59:34.999Z</time></trkpt><trkpt lat="45.66297424449166" lon="9.708089333592543"><ele>233.5</ele><time>2026-03-15T17:59:35.999Z</time></trkpt><trkpt lat="45.66304313911879" lon="9.707724388991146"><ele>233.0</ele><time>2026-03-15T17:59:36.999Z</time></trkpt><trkpt lat="45.66311356086277" lon="9.70736099996328"><ele>233.0</ele><time>2026-03-15T17:59:37.999Z</time></trkpt><trkpt lat="45.663183845029266" lon="9.706998828415774"><ele>233.0</ele><time>2026-03-15T17:59:38.999Z</time></trkpt><trkpt lat="45.66325155437237" lon="9.706634957552273"><ele>233.5</ele><time>2026-03-15T17:59:39.999Z</time></trkpt><trkpt lat="45.663317012883496" lon="9.706272470497954"><ele>234.0</ele><time>2026-03-15T17:59:40.999Z</time></trkpt><trkpt lat="45.66338343596282" lon="9.705908162651633"><ele>234.0</ele><time>2026-03-15T17:59:41.999Z</time></trkpt><trkpt lat="45.66344996594772" lon="9.705549682322253"><ele>234.0</ele><time>2026-03-15T17:59:42.999Z</time></trkpt><trkpt lat="45.66351918145705" lon="9.705194144730836"><ele>233.5</ele><time>2026-03-15T17:59:43.999Z</time></trkpt><trkpt lat="45.6635847176822" lon="9.704831426663597"><ele>233.0</ele><time>2026-03-15T17:59:44.999Z</time></trkpt><trkpt lat="45.66364840176799" lon="9.704473390684745"><ele>233.5</ele><time>2026-03-15T17:59:45.999Z</time></trkpt><trkpt lat="45.66371955350011" lon="9.704116090233848"><ele>234.0</ele><time>2026-03-15T17:59:46.999Z</time></trkpt><trkpt lat="45.663786438552904" lon="9.703756192523889"><ele>233.5</ele><time>2026-03-15T17:59:47.999Z</time></trkpt><trkpt lat="45.6638509133238" lon="9.703394317098157"><ele>233.0</ele><time>2026-03-15T17:59:48.999Z</time></trkpt><trkpt lat="45.66392095556964" lon="9.703035602318003"><ele>233.5</ele><time>2026-03-15T17:59:49.999Z</time></trkpt><trkpt lat="45.663986431314" lon="9.702679207474178"><ele>234.0</ele><time>2026-03-15T17:59:50.999Z</time></trkpt><trkpt lat="45.66405138181405" lon="9.702317806293076"><ele>234.0</ele><time>2026-03-15T17:59:51.999Z</time></trkpt><trkpt lat="45.66412165087504" lon="9.701960126144902"><ele>234.0</ele><time>2026-03-15T17:59:52.999Z</time></trkpt><trkpt lat="45.66420167999332" lon="9.701602523622304"><ele>233.5</ele><time>2026-03-15T17:59:53.999Z</time></trkpt><trkpt lat="45.66428215548411" lon="9.70124645561164"><ele>233.0</ele><time>2026-03-15T17:59:54.999Z</time></trkpt><trkpt lat="45.664356209331736" lon="9.700891957325107"><ele>233.0</ele><time>2026-03-15T17:59:55.999Z</time></trkpt><trkpt lat="45.664420347836895" lon="9.700529645355754"><ele>233.0</ele><time>2026-03-15T17:59:56.999Z</time></trkpt><trkpt lat="45.66448571822033" lon="9.700167975840579"><ele>234.5</ele><time>2026-03-15T17:59:57.999Z</time></trkpt><trkpt lat="45.66455566219791" lon="9.699807562681062"><ele>236.0</ele><time>2026-03-15T17:59:58.999Z</time></trkpt><trkpt lat="45.664623823136196" lon="9.699448110918844"><ele>235.5</ele><time>2026-03-15T17:59:59.999Z</time></trkpt><trkpt lat="45.66469228087754" lon="9.699086528047914"><ele>235.0</ele><time>2026-03-15T18:00:00.999Z</time></trkpt><trkpt lat="45.6647613326868" lon="9.698721165552701"><ele>234.0</ele><time>2026-03-15T18:00:01.999Z</time></trkpt><trkpt lat="45.66482735406009" lon="9.698363782002227"><ele>233.0</ele><time>2026-03-15T18:00:02.999Z</time></trkpt><trkpt lat="45.66489447672714" lon="9.697999105647117"><ele>232.0</ele><time>2026-03-15T18:00:03.999Z</time></trkpt><trkpt lat="45.66496005975883" lon="9.697639023701797"><ele>231.0</ele><time>2026-03-15T18:00:04.999Z</time></trkpt><trkpt lat="45.6650279467069" lon="9.697280065284698"><ele>231.5</ele><time>2026-03-15T18:00:05.999Z</time></trkpt><trkpt lat="45.665102299208705" lon="9.696914649355781"><ele>232.0</ele><time>2026-03-15T18:00:06.999Z</time></trkpt><trkpt lat="45.66516890370481" lon="9.696557575210283"><ele>232.0</ele><time>2026-03-15T18:00:07.999Z</time></trkpt><trkpt lat="45.66524254846815" lon="9.696194776607205"><ele>232.0</ele><time>2026-03-15T18:00:08.999Z</time></trkpt><trkpt lat="45.665307396181504" lon="9.695837141508484"><ele>232.5</ele><time>2026-03-15T18:00:09.999Z</time></trkpt><trkpt lat="45.66537107666119" lon="9.695472218840864"><ele>233.0</ele><time>2026-03-15T18:00:10.999Z</time></trkpt><trkpt lat="45.66543593655454" lon="9.695109596735099"><ele>233.0</ele><time>2026-03-15T18:00:11.999Z</time></trkpt><trkpt lat="45.66550024899117" lon="9.694747281962702"><ele>233.0</ele><time>2026-03-15T18:00:12.999Z</time></trkpt><trkpt lat="45.66556943895196" lon="9.694384733578612"><ele>232.5</ele><time>2026-03-15T18:00:13.999Z</time></trkpt><trkpt lat="45.66563806482912" lon="9.694024866918788"><ele>232.0</ele><time>2026-03-15T18:00:14.999Z</time></trkpt><trkpt lat="45.66571077580794" lon="9.693662611949318"><ele>232.0</ele><time>2026-03-15T18:00:15.999Z</time></trkpt><trkpt lat="45.665779157985085" lon="9.693305705488621"><ele>232.0</ele><time>2026-03-15T18:00:16.998Z</time></trkpt><trkpt lat="45.66584892671585" lon="9.692940436625571"><ele>232.5</ele><time>2026-03-15T18:00:17.998Z</time></trkpt><trkpt lat="45.66591341424043" lon="9.692580548045127"><ele>233.0</ele><time>2026-03-15T18:00:18.998Z</time></trkpt><trkpt lat="45.66597795067205" lon="9.69221379305668"><ele>233.0</ele><time>2026-03-15T18:00:19.998Z</time></trkpt><trkpt lat="45.6660406501814" lon="9.691856963413445"><ele>233.0</ele><time>2026-03-15T18:00:20.998Z</time></trkpt><trkpt lat="45.6661063647511" lon="9.691494801188153"><ele>232.5</ele><time>2026-03-15T18:00:21.998Z</time></trkpt><trkpt lat="45.666174663926284" lon="9.691134630382486"><ele>232.0</ele><time>2026-03-15T18:00:22.998Z</time></trkpt><trkpt lat="45.6662407745514" lon="9.690773117493285"><ele>232.0</ele><time>2026-03-15T18:00:23.998Z</time></trkpt><trkpt lat="45.66630898866386" lon="9.690411317372245"><ele>232.0</ele><time>2026-03-15T18:00:24.998Z</time></trkpt><trkpt lat="45.66637795652532" lon="9.690049691878109"><ele>232.0</ele><time>2026-03-15T18:00:25.998Z</time></trkpt><trkpt lat="45.66644580641092" lon="9.689688670335116"><ele>232.0</ele><time>2026-03-15T18:00:26.998Z</time></trkpt><trkpt lat="45.666511912847405" lon="9.689327743026386"><ele>232.5</ele><time>2026-03-15T18:00:27.998Z</time></trkpt><trkpt lat="45.66657637007894" lon="9.688966652076845"><ele>233.0</ele><time>2026-03-15T18:00:28.998Z</time></trkpt><trkpt lat="45.66663692420493" lon="9.68860380452367"><ele>232.5</ele><time>2026-03-15T18:00:29.998Z</time></trkpt><trkpt lat="45.6667046128047" lon="9.688243034982571"><ele>232.0</ele><time>2026-03-15T18:00:30.998Z</time></trkpt><trkpt lat="45.66677479460101" lon="9.687887118061548"><ele>231.5</ele><time>2026-03-15T18:00:31.998Z</time></trkpt><trkpt lat="45.666839613886836" lon="9.687524344347269"><ele>231.0</ele><time>2026-03-15T18:00:32.998Z</time></trkpt><trkpt lat="45.66690700582457" lon="9.687164730339482"><ele>232.5</ele><time>2026-03-15T18:00:33.998Z</time></trkpt><trkpt lat="45.66697294962216" lon="9.686800097753112"><ele>234.0</ele><time>2026-03-15T18:00:34.998Z</time></trkpt><trkpt lat="45.66704209118309" lon="9.686438978724931"><ele>234.0</ele><time>2026-03-15T18:00:35.998Z</time></trkpt><trkpt lat="45.66710903136199" lon="9.686078663416538"><ele>234.0</ele><time>2026-03-15T18:00:36.998Z</time></trkpt><trkpt lat="45.66717367641436" lon="9.685714438946103"><ele>234.0</ele><time>2026-03-15T18:00:37.998Z</time></trkpt><trkpt lat="45.667242138451925" lon="9.685353633986994"><ele>234.0</ele><time>2026-03-15T18:00:38.998Z</time></trkpt><trkpt lat="45.667305787507246" lon="9.684991375392896"><ele>234.5</ele><time>2026-03-15T18:00:39.998Z</time></trkpt><trkpt lat="45.66737413329595" lon="9.684629133791045"><ele>235.0</ele><time>2026-03-15T18:00:40.998Z</time></trkpt><trkpt lat="45.66744342660956" lon="9.684270310558441"><ele>234.5</ele><time>2026-03-15T18:00:41.998Z</time></trkpt><trkpt lat="45.6675116064748" lon="9.683909345378208"><ele>234.0</ele><time>2026-03-15T18:00:42.998Z</time></trkpt><trkpt lat="45.66757671750613" lon="9.683548514468846"><ele>234.0</ele><time>2026-03-15T18:00:43.998Z</time></trkpt><trkpt lat="45.66764250834086" lon="9.68318704451285"><ele>234.0</ele><time>2026-03-15T18:00:44.998Z</time></trkpt><trkpt lat="45.66771510153897" lon="9.682832697799121"><ele>233.0</ele><time>2026-03-15T18:00:45.998Z</time></trkpt><trkpt lat="45.667780019293666" lon="9.682472064371604"><ele>232.0</ele><time>2026-03-15T18:00:46.998Z</time></trkpt><trkpt lat="45.66784747952366" lon="9.682112602769712"><ele>234.5</ele><time>2026-03-15T18:00:47.998Z</time></trkpt><trkpt lat="45.66791496658943" lon="9.68175008673876"><ele>237.0</ele><time>2026-03-15T18:00:48.998Z</time></trkpt><trkpt lat="45.66798647586523" lon="9.681391398584518"><ele>235.5</ele><time>2026-03-15T18:00:49.998Z</time></trkpt><trkpt lat="45.668049872715855" lon="9.681031563106522"><ele>234.0</ele><time>2026-03-15T18:00:50.998Z</time></trkpt><trkpt lat="45.668113559686255" lon="9.680669815421306"><ele>234.0</ele><time>2026-03-15T18:00:51.998Z</time></trkpt><trkpt lat="45.668174289208814" lon="9.680320507964462"><ele>234.0</ele><time>2026-03-15T18:00:52.998Z</time></trkpt><trkpt lat="45.6682395143543" lon="9.679998059012227"><ele>233.5</ele><time>2026-03-15T18:00:53.998Z</time></trkpt><trkpt lat="45.668290243693896" lon="9.67966054882869"><ele>233.0</ele><time>2026-03-15T18:00:54.998Z</time></trkpt><trkpt lat="45.66834173114573" lon="9.679308922924164"><ele>233.0</ele><time>2026-03-15T18:00:55.998Z</time></trkpt><trkpt lat="45.66840385614991" lon="9.678945351372114"><ele>233.0</ele><time>2026-03-15T18:00:56.998Z</time></trkpt><trkpt lat="45.66846639504566" lon="9.678610040112693"><ele>233.5</ele><time>2026-03-15T18:00:57.998Z</time></trkpt><trkpt lat="45.66853220759037" lon="9.678270581522572"><ele>234.0</ele><time>2026-03-15T18:00:58.998Z</time></trkpt><trkpt lat="45.66859808486443" lon="9.677922619264981"><ele>234.0</ele><time>2026-03-15T18:00:59.998Z</time></trkpt><trkpt lat="45.66866252333218" lon="9.677571046510382"><ele>234.0</ele><time>2026-03-15T18:01:00.998Z</time></trkpt><trkpt lat="45.668726734396685" lon="9.677218523906843"><ele>234.0</ele><time>2026-03-15T18:01:01.997Z</time></trkpt><trkpt lat="45.66878989821513" lon="9.676855433918382"><ele>234.0</ele><time>2026-03-15T18:01:02.997Z</time></trkpt><trkpt lat="45.66885594057504" lon="9.676491750649328"><ele>234.0</ele><time>2026-03-15T18:01:03.997Z</time></trkpt><trkpt lat="45.66892089797462" lon="9.676147165734934"><ele>234.0</ele><time>2026-03-15T18:01:04.997Z</time></trkpt><trkpt lat="45.668981289725025" lon="9.675816980933623"><ele>234.0</ele><time>2026-03-15T18:01:06Z</time></trkpt><trkpt lat="45.66904701181484" lon="9.675480997366853"><ele>234.0</ele><time>2026-03-15T18:01:07Z</time></trkpt><trkpt lat="45.669110042344336" lon="9.67513746647916"><ele>232.5</ele><time>2026-03-15T18:01:08Z</time></trkpt><trkpt lat="45.669172852084536" lon="9.674789878718146"><ele>231.0</ele><time>2026-03-15T18:01:09Z</time></trkpt><trkpt lat="45.66923511832417" lon="9.67444319582218"><ele>229.5</ele><time>2026-03-15T18:01:10Z</time></trkpt><trkpt lat="45.66930068015251" lon="9.674093203523935"><ele>228.0</ele><time>2026-03-15T18:01:11Z</time></trkpt><trkpt lat="45.669365961446125" lon="9.673741525592"><ele>227.5</ele><time>2026-03-15T18:01:12Z</time></trkpt><trkpt lat="45.669431392521204" lon="9.673388380961363"><ele>227.0</ele><time>2026-03-15T18:01:13Z</time></trkpt><trkpt lat="45.669495504289166" lon="9.673039387580728"><ele>229.0</ele><time>2026-03-15T18:01:14Z</time></trkpt><trkpt lat="45.66955978420369" lon="9.672690975937243"><ele>231.0</ele><time>2026-03-15T18:01:15Z</time></trkpt><trkpt lat="45.669622898422546" lon="9.672345837206723"><ele>231.0</ele><time>2026-03-15T18:01:16Z</time></trkpt><trkpt lat="45.669686264283165" lon="9.672006273902987"><ele>231.0</ele><time>2026-03-15T18:01:17Z</time></trkpt><trkpt lat="45.66975141355527" lon="9.67165458773296"><ele>231.0</ele><time>2026-03-15T18:01:18Z</time></trkpt><trkpt lat="45.66981708295326" lon="9.671299904814209"><ele>231.0</ele><time>2026-03-15T18:01:19Z</time></trkpt><trkpt lat="45.669882967894964" lon="9.670948230370707"><ele>231.0</ele><time>2026-03-15T18:01:20Z</time></trkpt><trkpt lat="45.66994260603706" lon="9.670593685749044"><ele>231.0</ele><time>2026-03-15T18:01:21Z</time></trkpt><trkpt lat="45.669984031597075" lon="9.670223655031256"><ele>230.0</ele><time>2026-03-15T18:01:22Z</time></trkpt><trkpt lat="45.67000305200262" lon="9.669855156986442"><ele>229.0</ele><time>2026-03-15T18:01:23Z</time></trkpt><trkpt lat="45.67000438738631" lon="9.669478604869822"><ele>228.0</ele><time>2026-03-15T18:01:24Z</time></trkpt><trkpt lat="45.669990015571166" lon="9.669102539397905"><ele>227.0</ele><time>2026-03-15T18:01:25Z</time></trkpt><trkpt lat="45.66996184848107" lon="9.668730414458436"><ele>228.0</ele><time>2026-03-15T18:01:26Z</time></trkpt><trkpt lat="45.669921364920825" lon="9.668353978331286"><ele>229.0</ele><time>2026-03-15T18:01:27Z</time></trkpt><trkpt lat="45.66987174708162" lon="9.667983316400933"><ele>229.5</ele><time>2026-03-15T18:01:28Z</time></trkpt><trkpt lat="45.669809817566836" lon="9.667613785136641"><ele>230.0</ele><time>2026-03-15T18:01:29Z</time></trkpt><trkpt lat="45.66972899924939" lon="9.667255539429634"><ele>229.0</ele><time>2026-03-15T18:01:30Z</time></trkpt><trkpt lat="45.669629852046995" lon="9.666905829354402"><ele>228.0</ele><time>2026-03-15T18:01:31Z</time></trkpt><trkpt lat="45.6695248289985" lon="9.666579967835673"><ele>227.5</ele><time>2026-03-15T18:01:32Z</time></trkpt><trkpt lat="45.669408692965995" lon="9.666272010485251"><ele>227.0</ele><time>2026-03-15T18:01:33Z</time></trkpt><trkpt lat="45.66927801453627" lon="9.665978902225929"><ele>227.0</ele><time>2026-03-15T18:01:34Z</time></trkpt><trkpt lat="45.669137639753544" lon="9.665703195165236"><ele>227.0</ele><time>2026-03-15T18:01:35Z</time></trkpt><trkpt lat="45.66898700347519" lon="9.66542579928294"><ele>227.5</ele><time>2026-03-15T18:01:36Z</time></trkpt><trkpt lat="45.6688291543838" lon="9.665137476534618"><ele>228.0</ele><time>2026-03-15T18:01:37Z</time></trkpt><trkpt lat="45.668667942264605" lon="9.664850608221451"><ele>226.5</ele><time>2026-03-15T18:01:38Z</time></trkpt><trkpt lat="45.66850488378077" lon="9.664563095785429"><ele>225.0</ele><time>2026-03-15T18:01:39Z</time></trkpt><trkpt lat="45.66834433667057" lon="9.664274480578758"><ele>224.5</ele><time>2026-03-15T18:01:40Z</time></trkpt><trkpt lat="45.66818239997297" lon="9.663978215063052"><ele>224.0</ele><time>2026-03-15T18:01:41Z</time></trkpt><trkpt lat="45.66802037402077" lon="9.663676444669116"><ele>224.0</ele><time>2026-03-15T18:01:42Z</time></trkpt><trkpt lat="45.66785916155934" lon="9.663373190957898"><ele>224.0</ele><time>2026-03-15T18:01:43Z</time></trkpt><trkpt lat="45.667696689886824" lon="9.663070703839725"><ele>224.5</ele><time>2026-03-15T18:01:44Z</time></trkpt><trkpt lat="45.66753344864195" lon="9.662771669679344"><ele>225.0</ele><time>2026-03-15T18:01:45Z</time></trkpt><trkpt lat="45.667366444739095" lon="9.662470766596448"><ele>225.0</ele><time>2026-03-15T18:01:46Z</time></trkpt><trkpt lat="45.66720099664286" lon="9.662172439525055"><ele>225.0</ele><time>2026-03-15T18:01:47Z</time></trkpt><trkpt lat="45.667039419823126" lon="9.661880226880264"><ele>225.0</ele><time>2026-03-15T18:01:48Z</time></trkpt><trkpt lat="45.66687583955273" lon="9.661583163774512"><ele>225.0</ele><time>2026-03-15T18:01:49Z</time></trkpt><trkpt lat="45.66671369045527" lon="9.661289841669943"><ele>223.5</ele><time>2026-03-15T18:01:50Z</time></trkpt><trkpt lat="45.666550079078306" lon="9.660995179984399"><ele>222.0</ele><time>2026-03-15T18:01:51Z</time></trkpt><trkpt lat="45.666390708443814" lon="9.660702047999592"><ele>222.0</ele><time>2026-03-15T18:01:52Z</time></trkpt><trkpt lat="45.666231559648736" lon="9.66041059099535"><ele>222.0</ele><time>2026-03-15T18:01:53Z</time></trkpt><trkpt lat="45.66607333359909" lon="9.660122589285077"><ele>221.5</ele><time>2026-03-15T18:01:54Z</time></trkpt><trkpt lat="45.66591357035013" lon="9.659827027447651"><ele>221.0</ele><time>2026-03-15T18:01:54.999Z</time></trkpt><trkpt lat="45.66575203501629" lon="9.65953447102299"><ele>221.5</ele><time>2026-03-15T18:01:55.999Z</time></trkpt><trkpt lat="45.66558991173065" lon="9.659245936767267"><ele>222.0</ele><time>2026-03-15T18:01:56.999Z</time></trkpt><trkpt lat="45.66542890489957" lon="9.65895476902224"><ele>222.0</ele><time>2026-03-15T18:01:57.999Z</time></trkpt><trkpt lat="45.66527810418321" lon="9.65868135649045"><ele>222.0</ele><time>2026-03-15T18:01:58.999Z</time></trkpt><trkpt lat="45.665123027779416" lon="9.6584011916271"><ele>222.0</ele><time>2026-03-15T18:01:59.999Z</time></trkpt><trkpt lat="45.664969658648005" lon="9.658125277575913"><ele>222.0</ele><time>2026-03-15T18:02:00.999Z</time></trkpt><trkpt lat="45.664812435620334" lon="9.657842568702373"><ele>220.5</ele><time>2026-03-15T18:02:01.999Z</time></trkpt><trkpt lat="45.6646521646371" lon="9.657556806960566"><ele>219.0</ele><time>2026-03-15T18:02:02.999Z</time></trkpt><trkpt lat="45.66448860642998" lon="9.657262626025108"><ele>218.5</ele><time>2026-03-15T18:02:03.999Z</time></trkpt><trkpt lat="45.6643261632105" lon="9.656964046424338"><ele>218.0</ele><time>2026-03-15T18:02:04.999Z</time></trkpt><trkpt lat="45.66416203749996" lon="9.656662657134993"><ele>218.0</ele><time>2026-03-15T18:02:05.999Z</time></trkpt><trkpt lat="45.66399799241059" lon="9.656362635898889"><ele>218.0</ele><time>2026-03-15T18:02:06.999Z</time></trkpt><trkpt lat="45.66383202572164" lon="9.656060166676761"><ele>218.0</ele><time>2026-03-15T18:02:07.999Z</time></trkpt><trkpt lat="45.66366720548407" lon="9.655763481081518"><ele>218.0</ele><time>2026-03-15T18:02:08.999Z</time></trkpt><trkpt lat="45.663501039958525" lon="9.655465996570898"><ele>216.5</ele><time>2026-03-15T18:02:09.999Z</time></trkpt><trkpt lat="45.66333042041033" lon="9.655158959581202"><ele>215.0</ele><time>2026-03-15T18:02:10.999Z</time></trkpt><trkpt lat="45.663160735526645" lon="9.654848428602774"><ele>215.0</ele><time>2026-03-15T18:02:11.999Z</time></trkpt><trkpt lat="45.66299063401069" lon="9.654536900356193"><ele>215.0</ele><time>2026-03-15T18:02:12.999Z</time></trkpt><trkpt lat="45.66281590240002" lon="9.654218423907867"><ele>215.0</ele><time>2026-03-15T18:02:13.999Z</time></trkpt><trkpt lat="45.662637860807834" lon="9.653894963425286"><ele>215.0</ele><time>2026-03-15T18:02:14.999Z</time></trkpt><trkpt lat="45.662455952716" lon="9.653564055628419"><ele>215.0</ele><time>2026-03-15T18:02:15.999Z</time></trkpt><trkpt lat="45.66227933979564" lon="9.653242854812941"><ele>215.0</ele><time>2026-03-15T18:02:16.999Z</time></trkpt><trkpt lat="45.662106944220035" lon="9.652934253030551"><ele>215.5</ele><time>2026-03-15T18:02:17.999Z</time></trkpt><trkpt lat="45.66193972691309" lon="9.652636019291874"><ele>216.0</ele><time>2026-03-15T18:02:18.999Z</time></trkpt><trkpt lat="45.66177366158584" lon="9.652336609797832"><ele>216.0</ele><time>2026-03-15T18:02:19.999Z</time></trkpt><trkpt lat="45.66160313618361" lon="9.652027317499147"><ele>216.0</ele><time>2026-03-15T18:02:20.999Z</time></trkpt><trkpt lat="45.66143073274573" lon="9.651713014570905"><ele>216.0</ele><time>2026-03-15T18:02:21.999Z</time></trkpt><trkpt lat="45.66125750098715" lon="9.651397448728623"><ele>216.0</ele><time>2026-03-15T18:02:22.999Z</time></trkpt><trkpt lat="45.66108329511356" lon="9.651082331246807"><ele>216.0</ele><time>2026-03-15T18:02:23.999Z</time></trkpt><trkpt lat="45.660909270285146" lon="9.650766831195527"><ele>216.0</ele><time>2026-03-15T18:02:24.999Z</time></trkpt><trkpt lat="45.66073363771175" lon="9.650445840276829"><ele>215.5</ele><time>2026-03-15T18:02:25.999Z</time></trkpt><trkpt lat="45.66055759887122" lon="9.650122933840771"><ele>215.0</ele><time>2026-03-15T18:02:26.999Z</time></trkpt><trkpt lat="45.660383052035456" lon="9.64980021590098"><ele>212.5</ele><time>2026-03-15T18:02:27.999Z</time></trkpt><trkpt lat="45.6602105553415" lon="9.649470306397008"><ele>210.0</ele><time>2026-03-15T18:02:28.999Z</time></trkpt><trkpt lat="45.660044327249075" lon="9.64914659436382"><ele>209.0</ele><time>2026-03-15T18:02:29.999Z</time></trkpt><trkpt lat="45.659872676199434" lon="9.6488282835429"><ele>208.0</ele><time>2026-03-15T18:02:30.999Z</time></trkpt><trkpt lat="45.659705711579704" lon="9.648523000187293"><ele>207.5</ele><time>2026-03-15T18:02:31.999Z</time></trkpt><trkpt lat="45.65954366557485" lon="9.6482285841574"><ele>207.0</ele><time>2026-03-15T18:02:32.999Z</time></trkpt><trkpt lat="45.65938600237944" lon="9.647943968278126"><ele>207.5</ele><time>2026-03-15T18:02:33.999Z</time></trkpt><trkpt lat="45.659227774185034" lon="9.647656497601659"><ele>208.0</ele><time>2026-03-15T18:02:34.999Z</time></trkpt><trkpt lat="45.65906761029682" lon="9.64736454104402"><ele>208.0</ele><time>2026-03-15T18:02:35.999Z</time></trkpt><trkpt lat="45.65890426332091" lon="9.647067412893104"><ele>208.0</ele><time>2026-03-15T18:02:36.999Z</time></trkpt><trkpt lat="45.658738321662725" lon="9.646768405893672"><ele>207.5</ele><time>2026-03-15T18:02:37.999Z</time></trkpt><trkpt lat="45.65857162025447" lon="9.646466512816264"><ele>207.0</ele><time>2026-03-15T18:02:38.999Z</time></trkpt><trkpt lat="45.658406321319895" lon="9.646166773051599"><ele>207.5</ele><time>2026-03-15T18:02:39.998Z</time></trkpt><trkpt lat="45.65824007682086" lon="9.645865121808932"><ele>208.0</ele><time>2026-03-15T18:02:40.998Z</time></trkpt><trkpt lat="45.65807637936805" lon="9.645571162659504"><ele>208.5</ele><time>2026-03-15T18:02:41.998Z</time></trkpt><trkpt lat="45.65791151753114" lon="9.645276912146418"><ele>209.0</ele><time>2026-03-15T18:02:42.998Z</time></trkpt><trkpt lat="45.6577484395375" lon="9.644981103185707"><ele>209.0</ele><time>2026-03-15T18:02:43.998Z</time></trkpt><trkpt lat="45.65758920468027" lon="9.64468598169965"><ele>209.0</ele><time>2026-03-15T18:02:44.998Z</time></trkpt><trkpt lat="45.65742717770535" lon="9.644396024326683"><ele>208.5</ele><time>2026-03-15T18:02:45.998Z</time></trkpt><trkpt lat="45.65726966124442" lon="9.644110972928717"><ele>208.0</ele><time>2026-03-15T18:02:46.998Z</time></trkpt><trkpt lat="45.65711369325188" lon="9.643826627267524"><ele>207.5</ele><time>2026-03-15T18:02:47.998Z</time></trkpt><trkpt lat="45.6569586636716" lon="9.643535633869831"><ele>207.0</ele><time>2026-03-15T18:02:48.998Z</time></trkpt><trkpt lat="45.65679741317028" lon="9.643247794822793"><ele>207.5</ele><time>2026-03-15T18:02:49.997Z</time></trkpt><trkpt lat="45.65664219860885" lon="9.642972887654754"><ele>208.0</ele><time>2026-03-15T18:02:50.997Z</time></trkpt><trkpt lat="45.65647818903539" lon="9.64268051427873"><ele>208.0</ele><time>2026-03-15T18:02:51.997Z</time></trkpt><trkpt lat="45.65631598613194" lon="9.64239207885027"><ele>208.0</ele><time>2026-03-15T18:02:52.997Z</time></trkpt><trkpt lat="45.656153983356134" lon="9.64209972020849"><ele>208.0</ele><time>2026-03-15T18:02:53.997Z</time></trkpt><trkpt lat="45.65598989618534" lon="9.641807657756495"><ele>208.0</ele><time>2026-03-15T18:02:54.997Z</time></trkpt><trkpt lat="45.65582832740749" lon="9.641513577393377"><ele>208.0</ele><time>2026-03-15T18:02:55.997Z</time></trkpt><trkpt lat="45.65566261253651" lon="9.641218004407794"><ele>208.0</ele><time>2026-03-15T18:02:56.997Z</time></trkpt><trkpt lat="45.65550313181806" lon="9.64092289166441"><ele>208.0</ele><time>2026-03-15T18:02:57.997Z</time></trkpt><trkpt lat="45.65534089975131" lon="9.640627652241074"><ele>208.0</ele><time>2026-03-15T18:02:58.997Z</time></trkpt><trkpt lat="45.65518590323154" lon="9.640326606489692"><ele>206.5</ele><time>2026-03-15T18:02:59.997Z</time></trkpt><trkpt lat="45.65503455971598" lon="9.640023466002445"><ele>205.0</ele><time>2026-03-15T18:03:00.997Z</time></trkpt><trkpt lat="45.654871208578115" lon="9.639723803273736"><ele>205.0</ele><time>2026-03-15T18:03:01.997Z</time></trkpt><trkpt lat="45.654707584050996" lon="9.639431793381165"><ele>205.0</ele><time>2026-03-15T18:03:02.997Z</time></trkpt><trkpt lat="45.65454734530945" lon="9.639141190008127"><ele>205.0</ele><time>2026-03-15T18:03:03.997Z</time></trkpt><trkpt lat="45.65438573486054" lon="9.638846901184934"><ele>205.0</ele><time>2026-03-15T18:03:04.997Z</time></trkpt><trkpt lat="45.65422387099336" lon="9.638551574628769"><ele>204.0</ele><time>2026-03-15T18:03:05.997Z</time></trkpt><trkpt lat="45.65406190098139" lon="9.63825809540237"><ele>203.0</ele><time>2026-03-15T18:03:06.997Z</time></trkpt><trkpt lat="45.65389789229216" lon="9.637964231509113"><ele>202.5</ele><time>2026-03-15T18:03:07.997Z</time></trkpt><trkpt lat="45.65373515738189" lon="9.637673423136542"><ele>202.0</ele><time>2026-03-15T18:03:08.997Z</time></trkpt><trkpt lat="45.65357246879748" lon="9.63738189225594"><ele>202.0</ele><time>2026-03-15T18:03:09.997Z</time></trkpt><trkpt lat="45.653407442925214" lon="9.637091038389576"><ele>202.0</ele><time>2026-03-15T18:03:10.997Z</time></trkpt><trkpt lat="45.65324485621981" lon="9.636799964056323"><ele>202.5</ele><time>2026-03-15T18:03:12Z</time></trkpt><trkpt lat="45.65308096226564" lon="9.636507820640954"><ele>203.0</ele><time>2026-03-15T18:03:13Z</time></trkpt><trkpt lat="45.65292214926238" lon="9.636215940673866"><ele>203.0</ele><time>2026-03-15T18:03:14Z</time></trkpt><trkpt lat="45.65275736336871" lon="9.63592260851533"><ele>203.0</ele><time>2026-03-15T18:03:15Z</time></trkpt><trkpt lat="45.652594270375815" lon="9.635631056797717"><ele>203.0</ele><time>2026-03-15T18:03:16Z</time></trkpt><trkpt lat="45.65242845216354" lon="9.63533819633373"><ele>203.0</ele><time>2026-03-15T18:03:17Z</time></trkpt><trkpt lat="45.65227095707621" lon="9.635050292446707"><ele>203.5</ele><time>2026-03-15T18:03:18Z</time></trkpt><trkpt lat="45.65212108721453" lon="9.634785833482772"><ele>204.0</ele><time>2026-03-15T18:03:19Z</time></trkpt><trkpt lat="45.65198090349946" lon="9.634533947826995"><ele>203.33333333333331</ele><time>2026-03-15T18:03:20Z</time></trkpt><trkpt lat="45.651843196942075" lon="9.634283601067791"><ele>202.66666666666666</ele><time>2026-03-15T18:03:21Z</time></trkpt><trkpt lat="45.651702618656174" lon="9.634032446576759"><ele>202.0</ele><time>2026-03-15T18:03:22Z</time></trkpt><trkpt lat="45.65155279725609" lon="9.633779010356236"><ele>202.33333333333331</ele><time>2026-03-15T18:03:23Z</time></trkpt><trkpt lat="45.65140770218197" lon="9.633535757763957"><ele>202.66666666666669</ele><time>2026-03-15T18:03:24Z</time></trkpt><trkpt lat="45.65127528766004" lon="9.633304715004115"><ele>203.0</ele><time>2026-03-15T18:03:25Z</time></trkpt><trkpt lat="45.6511431342572" lon="9.633073729028334"><ele>202.0</ele><time>2026-03-15T18:03:26Z</time></trkpt><trkpt lat="45.65100417750854" lon="9.632827058472827"><ele>201.0</ele><time>2026-03-15T18:03:27Z</time></trkpt><trkpt lat="45.650863606013814" lon="9.632575453294441"><ele>200.0</ele><time>2026-03-15T18:03:28Z</time></trkpt><trkpt lat="45.65071827001855" lon="9.632317350116669"><ele>200.0</ele><time>2026-03-15T18:03:29Z</time></trkpt><trkpt lat="45.65057459230276" lon="9.632061902606779"><ele>200.0</ele><time>2026-03-15T18:03:29.999Z</time></trkpt><trkpt lat="45.65043266653433" lon="9.631809175206092"><ele>200.0</ele><time>2026-03-15T18:03:30.999Z</time></trkpt><trkpt lat="45.6502946044787" lon="9.63156337879385"><ele>200.0</ele><time>2026-03-15T18:03:31.999Z</time></trkpt><trkpt lat="45.65014896104241" lon="9.63131680648988"><ele>200.0</ele><time>2026-03-15T18:03:32.999Z</time></trkpt><trkpt lat="45.64998346471842" lon="9.631045776998956"><ele>199.5</ele><time>2026-03-15T18:03:33.999Z</time></trkpt><trkpt lat="45.64980548164328" lon="9.630741950039623"><ele>199.0</ele><time>2026-03-15T18:03:34.999Z</time></trkpt><trkpt lat="45.6496391698719" lon="9.630445017229485"><ele>199.5</ele><time>2026-03-15T18:03:35.999Z</time></trkpt><trkpt lat="45.64947153187011" lon="9.6301413311128"><ele>200.0</ele><time>2026-03-15T18:03:36.999Z</time></trkpt><trkpt lat="45.64929887961304" lon="9.629830475453316"><ele>200.0</ele><time>2026-03-15T18:03:37.999Z</time></trkpt><trkpt lat="45.649124469623004" lon="9.629515452243657"><ele>200.0</ele><time>2026-03-15T18:03:38.999Z</time></trkpt><trkpt lat="45.64895385093678" lon="9.629200537606037"><ele>200.0</ele><time>2026-03-15T18:03:39.999Z</time></trkpt><trkpt lat="45.6487877984198" lon="9.628875827094756"><ele>200.0</ele><time>2026-03-15T18:03:40.999Z</time></trkpt><trkpt lat="45.648608609347235" lon="9.628524598824594"><ele>200.0</ele><time>2026-03-15T18:03:41.999Z</time></trkpt><trkpt lat="45.64841892999815" lon="9.628187741129466"><ele>200.0</ele><time>2026-03-15T18:03:42.999Z</time></trkpt><trkpt lat="45.64820185222664" lon="9.627833479477387"><ele>200.0</ele><time>2026-03-15T18:03:43.999Z</time></trkpt><trkpt lat="45.64797072450316" lon="9.62745072575342"><ele>200.0</ele><time>2026-03-15T18:03:44.999Z</time></trkpt><trkpt lat="45.64776044878041" lon="9.627066170074398"><ele>199.0</ele><time>2026-03-15T18:03:45.999Z</time></trkpt><trkpt lat="45.6475822606942" lon="9.626707909785576"><ele>198.0</ele><time>2026-03-15T18:03:46.999Z</time></trkpt><trkpt lat="45.64741462895652" lon="9.626379029955974"><ele>198.0</ele><time>2026-03-15T18:03:47.999Z</time></trkpt><trkpt lat="45.647246946328345" lon="9.626066083626075"><ele>198.0</ele><time>2026-03-15T18:03:48.999Z</time></trkpt><trkpt lat="45.647073700588585" lon="9.625760075299771"><ele>198.0</ele><time>2026-03-15T18:03:49.999Z</time></trkpt><trkpt lat="45.64690415488365" lon="9.625471790588744"><ele>198.0</ele><time>2026-03-15T18:03:50.999Z</time></trkpt><trkpt lat="45.646753837200585" lon="9.625188773803353"><ele>198.0</ele><time>2026-03-15T18:03:51.999Z</time></trkpt><trkpt lat="45.64659503434285" lon="9.624902735045438"><ele>198.0</ele><time>2026-03-15T18:03:52.999Z</time></trkpt><trkpt lat="45.64643436397084" lon="9.624613995331808"><ele>198.0</ele><time>2026-03-15T18:03:53.999Z</time></trkpt><trkpt lat="45.6462690494507" lon="9.624318447957924"><ele>198.0</ele><time>2026-03-15T18:03:54.999Z</time></trkpt><trkpt lat="45.64610645634288" lon="9.62402559860766"><ele>198.0</ele><time>2026-03-15T18:03:55.999Z</time></trkpt><trkpt lat="45.645943278833386" lon="9.623732793550472"><ele>198.0</ele><time>2026-03-15T18:03:56.999Z</time></trkpt><trkpt lat="45.64578005754672" lon="9.623438843623799"><ele>199.0</ele><time>2026-03-15T18:03:57.999Z</time></trkpt><trkpt lat="45.64561604797288" lon="9.623143190518258"><ele>200.0</ele><time>2026-03-15T18:03:58.999Z</time></trkpt><trkpt lat="45.64545278681259" lon="9.622849745582943"><ele>199.5</ele><time>2026-03-15T18:03:59.999Z</time></trkpt><trkpt lat="45.64528784669798" lon="9.62255552849466"><ele>199.0</ele><time>2026-03-15T18:04:00.999Z</time></trkpt><trkpt lat="45.645123491878245" lon="9.622262206021047"><ele>198.5</ele><time>2026-03-15T18:04:01.999Z</time></trkpt><trkpt lat="45.644959837384086" lon="9.621971422640366"><ele>198.0</ele><time>2026-03-15T18:04:02.999Z</time></trkpt><trkpt lat="45.64479673091381" lon="9.621678859458402"><ele>198.0</ele><time>2026-03-15T18:04:03.999Z</time></trkpt><trkpt lat="45.64463558737969" lon="9.621386580973338"><ele>198.0</ele><time>2026-03-15T18:04:04.999Z</time></trkpt><trkpt lat="45.644474948701706" lon="9.621095986693145"><ele>197.5</ele><time>2026-03-15T18:04:05.999Z</time></trkpt><trkpt lat="45.64431289585451" lon="9.620803952140623"><ele>197.0</ele><time>2026-03-15T18:04:06.999Z</time></trkpt><trkpt lat="45.64415408441982" lon="9.620511258072039"><ele>198.0</ele><time>2026-03-15T18:04:07.999Z</time></trkpt><trkpt lat="45.644001753252184" lon="9.62021709524354"><ele>199.0</ele><time>2026-03-15T18:04:08.999Z</time></trkpt><trkpt lat="45.64384549590502" lon="9.61991543558851"><ele>199.0</ele><time>2026-03-15T18:04:09.999Z</time></trkpt><trkpt lat="45.64369123448879" lon="9.61961623947322"><ele>199.0</ele><time>2026-03-15T18:04:10.999Z</time></trkpt><trkpt lat="45.64353305764187" lon="9.619324587422186"><ele>198.0</ele><time>2026-03-15T18:04:11.999Z</time></trkpt><trkpt lat="45.643371722305304" lon="9.619034948632896"><ele>197.0</ele><time>2026-03-15T18:04:12.999Z</time></trkpt><trkpt lat="45.6432091683096" lon="9.618743393369668"><ele>197.5</ele><time>2026-03-15T18:04:13.998Z</time></trkpt><trkpt lat="45.643049328213706" lon="9.618448785378343"><ele>198.0</ele><time>2026-03-15T18:04:14.998Z</time></trkpt><trkpt lat="45.64289031461055" lon="9.618155734259258"><ele>197.5</ele><time>2026-03-15T18:04:15.998Z</time></trkpt><trkpt lat="45.642729095753126" lon="9.617861380338201"><ele>197.0</ele><time>2026-03-15T18:04:16.998Z</time></trkpt><trkpt lat="45.64256620715653" lon="9.617567070038069"><ele>198.0</ele><time>2026-03-15T18:04:17.998Z</time></trkpt><trkpt lat="45.64240493976898" lon="9.617273368197045"><ele>199.0</ele><time>2026-03-15T18:04:18.998Z</time></trkpt><trkpt lat="45.642241264947295" lon="9.61698028693991"><ele>199.0</ele><time>2026-03-15T18:04:19.998Z</time></trkpt><trkpt lat="45.64208167315059" lon="9.616696897489659"><ele>199.0</ele><time>2026-03-15T18:04:20.998Z</time></trkpt><trkpt lat="45.641941462001974" lon="9.616449598760239"><ele>199.33333333333331</ele><time>2026-03-15T18:04:21.998Z</time></trkpt><trkpt lat="45.641814058959795" lon="9.61621938211053"><ele>199.66666666666669</ele><time>2026-03-15T18:04:22.998Z</time></trkpt><trkpt lat="45.64169276981997" lon="9.61599810115545"><ele>200.0</ele><time>2026-03-15T18:04:23.998Z</time></trkpt><trkpt lat="45.641566954407615" lon="9.615776814186432"><ele>200.0</ele><time>2026-03-15T18:04:24.998Z</time></trkpt><trkpt lat="45.641431737948366" lon="9.615535715069745"><ele>200.0</ele><time>2026-03-15T18:04:25.998Z</time></trkpt><trkpt lat="45.641292154581905" lon="9.615284973502986"><ele>200.0</ele><time>2026-03-15T18:04:26.998Z</time></trkpt><trkpt lat="45.641154447738856" lon="9.61503561821317"><ele>198.5</ele><time>2026-03-15T18:04:27.998Z</time></trkpt><trkpt lat="45.64101457914205" lon="9.614782561076387"><ele>197.0</ele><time>2026-03-15T18:04:28.998Z</time></trkpt><trkpt lat="45.64087047379977" lon="9.614526383251674"><ele>197.0</ele><time>2026-03-15T18:04:29.998Z</time></trkpt><trkpt lat="45.64072229534753" lon="9.61426227682547"><ele>197.0</ele><time>2026-03-15T18:04:30.998Z</time></trkpt><trkpt lat="45.64057570384222" lon="9.614000479368894"><ele>197.0</ele><time>2026-03-15T18:04:31.998Z</time></trkpt><trkpt lat="45.64042364100607" lon="9.61372720528336"><ele>197.0</ele><time>2026-03-15T18:04:32.998Z</time></trkpt><trkpt lat="45.64026846493712" lon="9.613453493057758"><ele>197.5</ele><time>2026-03-15T18:04:33.998Z</time></trkpt><trkpt lat="45.640111509706536" lon="9.613173443190602"><ele>198.0</ele><time>2026-03-15T18:04:34.998Z</time></trkpt><trkpt lat="45.63995560332067" lon="9.612891582541996"><ele>197.0</ele><time>2026-03-15T18:04:35.998Z</time></trkpt><trkpt lat="45.63979672532805" lon="9.612598307413023"><ele>196.0</ele><time>2026-03-15T18:04:36.998Z</time></trkpt><trkpt lat="45.6396394434097" lon="9.612304707052965"><ele>196.0</ele><time>2026-03-15T18:04:37.998Z</time></trkpt><trkpt lat="45.63948807028457" lon="9.612021125216142"><ele>196.0</ele><time>2026-03-15T18:04:38.998Z</time></trkpt><trkpt lat="45.639345007264765" lon="9.611769501933601"><ele>197.0</ele><time>2026-03-15T18:04:39.998Z</time></trkpt><trkpt lat="45.639202532871266" lon="9.61151981276643"><ele>198.0</ele><time>2026-03-15T18:04:40.998Z</time></trkpt><trkpt lat="45.63905805691343" lon="9.611262623823327"><ele>197.5</ele><time>2026-03-15T18:04:41.998Z</time></trkpt><trkpt lat="45.638913937304366" lon="9.611001389478954"><ele>197.0</ele><time>2026-03-15T18:04:42.998Z</time></trkpt><trkpt lat="45.63877063922203" lon="9.61074150070972"><ele>197.5</ele><time>2026-03-15T18:04:43.998Z</time></trkpt><trkpt lat="45.63863085113726" lon="9.61048900585347"><ele>198.0</ele><time>2026-03-15T18:04:44.998Z</time></trkpt><trkpt lat="45.63848927009237" lon="9.610235249353673"><ele>198.0</ele><time>2026-03-15T18:04:45.998Z</time></trkpt><trkpt lat="45.638344822194675" lon="9.609975252839437"><ele>198.0</ele><time>2026-03-15T18:04:46.998Z</time></trkpt><trkpt lat="45.638206960693864" lon="9.609726461105595"><ele>197.5</ele><time>2026-03-15T18:04:47.998Z</time></trkpt><trkpt lat="45.638063076119515" lon="9.609468151216616"><ele>197.0</ele><time>2026-03-15T18:04:48.998Z</time></trkpt><trkpt lat="45.63791998509506" lon="9.609212397274852"><ele>196.0</ele><time>2026-03-15T18:04:49.998Z</time></trkpt><trkpt lat="45.63777329200097" lon="9.608949178677046"><ele>195.0</ele><time>2026-03-15T18:04:50.998Z</time></trkpt><trkpt lat="45.63762961760404" lon="9.608687901015973"><ele>195.0</ele><time>2026-03-15T18:04:51.998Z</time></trkpt><trkpt lat="45.63748292374128" lon="9.608422595436359"><ele>195.0</ele><time>2026-03-15T18:04:52.998Z</time></trkpt><trkpt lat="45.637336457899096" lon="9.608156384988794"><ele>195.0</ele><time>2026-03-15T18:04:53.998Z</time></trkpt><trkpt lat="45.637186083805155" lon="9.607887609738508"><ele>195.0</ele><time>2026-03-15T18:04:54.998Z</time></trkpt><trkpt lat="45.6370317783069" lon="9.607614907344674"><ele>197.0</ele><time>2026-03-15T18:04:55.998Z</time></trkpt><trkpt lat="45.6368768974077" lon="9.607340125266738"><ele>199.0</ele><time>2026-03-15T18:04:56.998Z</time></trkpt><trkpt lat="45.6367241430886" lon="9.607065365343987"><ele>201.0</ele><time>2026-03-15T18:04:57.998Z</time></trkpt><trkpt lat="45.636572570435426" lon="9.60678753822085"><ele>203.0</ele><time>2026-03-15T18:04:58.998Z</time></trkpt><trkpt lat="45.63642073190071" lon="9.606510785059335"><ele>203.0</ele><time>2026-03-15T18:04:59.997Z</time></trkpt><trkpt lat="45.636266116461215" lon="9.606228443309185"><ele>203.0</ele><time>2026-03-15T18:05:00.997Z</time></trkpt><trkpt lat="45.636113334379544" lon="9.605949499003714"><ele>198.5</ele><time>2026-03-15T18:05:01.997Z</time></trkpt><trkpt lat="45.635959158422054" lon="9.605669348586455"><ele>194.0</ele><time>2026-03-15T18:05:02.997Z</time></trkpt><trkpt lat="45.6358040220394" lon="9.60539071955595"><ele>195.5</ele><time>2026-03-15T18:05:03.997Z</time></trkpt><trkpt lat="45.63565030802075" lon="9.605116064743031"><ele>197.0</ele><time>2026-03-15T18:05:04.997Z</time></trkpt><trkpt lat="45.6354977494829" lon="9.604843125374794"><ele>197.0</ele><time>2026-03-15T18:05:05.997Z</time></trkpt><trkpt lat="45.63534722926196" lon="9.60457263893171"><ele>197.0</ele><time>2026-03-15T18:05:06.997Z</time></trkpt><trkpt lat="45.63520343196935" lon="9.604303054774844"><ele>197.33333333333334</ele><time>2026-03-15T18:05:07.997Z</time></trkpt><trkpt lat="45.63507283414542" lon="9.604041293717797"><ele>197.66666666666669</ele><time>2026-03-15T18:05:08.997Z</time></trkpt><trkpt lat="45.63495259228161" lon="9.603801615592836"><ele>198.0</ele><time>2026-03-15T18:05:09.997Z</time></trkpt><trkpt lat="45.63483731168236" lon="9.603582429346348"><ele>198.66666666666669</ele><time>2026-03-15T18:05:10.997Z</time></trkpt><trkpt lat="45.63471748517968" lon="9.603363074709575"><ele>199.33333333333334</ele><time>2026-03-15T18:05:11.997Z</time></trkpt><trkpt lat="45.63459136216561" lon="9.603133059912418"><ele>200.0</ele><time>2026-03-15T18:05:12.997Z</time></trkpt><trkpt lat="45.634465410142944" lon="9.602909215586026"><ele>197.33333333333334</ele><time>2026-03-15T18:05:13.997Z</time></trkpt><trkpt lat="45.63433688212405" lon="9.602679387877707"><ele>194.66666666666669</ele><time>2026-03-15T18:05:14.997Z</time></trkpt><trkpt lat="45.634212693311255" lon="9.602453630999044"><ele>192.0</ele><time>2026-03-15T18:05:15.997Z</time></trkpt><trkpt lat="45.634099249611474" lon="9.602246015334917"><ele>192.0</ele><time>2026-03-15T18:05:16.997Z</time></trkpt><trkpt lat="45.634000717948275" lon="9.602055766155488"><ele>192.0</ele><time>2026-03-15T18:05:18Z</time></trkpt><trkpt lat="45.63391768589843" lon="9.601884485543362"><ele>192.0</ele><time>2026-03-15T18:05:19Z</time></trkpt><trkpt lat="45.63384864584888" lon="9.60171924749408"><ele>192.0</ele><time>2026-03-15T18:05:20Z</time></trkpt><trkpt lat="45.633793249617874" lon="9.60156178559505"><ele>191.5</ele><time>2026-03-15T18:05:21Z</time></trkpt><trkpt lat="45.63374732026082" lon="9.601417513940113"><ele>191.0</ele><time>2026-03-15T18:05:22Z</time></trkpt><trkpt lat="45.63370260604113" lon="9.601267525392656"><ele>190.5</ele><time>2026-03-15T18:05:23Z</time></trkpt><trkpt lat="45.63365071839116" lon="9.601077225798319"><ele>190.0</ele><time>2026-03-15T18:05:24Z</time></trkpt><trkpt lat="45.633591219344304" lon="9.600859924924205"><ele>189.5</ele><time>2026-03-15T18:05:25Z</time></trkpt><trkpt lat="45.63354237581868" lon="9.600684901397598"><ele>189.0</ele><time>2026-03-15T18:05:26Z</time></trkpt><trkpt lat="45.633490834761" lon="9.600539767354693"><ele>188.5</ele><time>2026-03-15T18:05:27Z</time></trkpt><trkpt lat="45.63344632925192" lon="9.600408477723628"><ele>188.0</ele><time>2026-03-15T18:05:28Z</time></trkpt><trkpt lat="45.63340055845248" lon="9.600271149440077"><ele>187.2</ele><time>2026-03-15T18:05:29Z</time></trkpt><trkpt lat="45.63335167404302" lon="9.600121204512835"><ele>186.4</ele><time>2026-03-15T18:05:30Z</time></trkpt><trkpt lat="45.63330052963978" lon="9.599968561900274"><ele>185.6</ele><time>2026-03-15T18:05:31Z</time></trkpt><trkpt lat="45.6332569572994" lon="9.599830753097832"><ele>184.79999999999998</ele><time>2026-03-15T18:05:32Z</time></trkpt><trkpt lat="45.633220513837536" lon="9.599721021602562"><ele>184.0</ele><time>2026-03-15T18:05:33Z</time></trkpt><trkpt lat="45.63318772499762" lon="9.599622776583923"><ele>184.0</ele><time>2026-03-15T18:05:34Z</time></trkpt><trkpt lat="45.63315782459385" lon="9.599540021234523"><ele>184.0</ele><time>2026-03-15T18:05:35Z</time></trkpt><trkpt lat="45.63312540441211" lon="9.599453116202794"><ele>184.0</ele><time>2026-03-15T18:05:36Z</time></trkpt><trkpt lat="45.6330935474607" lon="9.599368363225723"><ele>184.0</ele><time>2026-03-15T18:05:37Z</time></trkpt><trkpt lat="45.63304301137677" lon="9.599226832398037"><ele>184.0</ele><time>2026-03-15T18:05:39Z</time></trkpt><trkpt lat="45.63301094565837" lon="9.599145957683662"><ele>184.0</ele><time>2026-03-15T18:05:40Z</time></trkpt><trkpt lat="45.63294971362255" lon="9.599000571062366"><ele>184.0</ele><time>2026-03-15T18:05:42Z</time></trkpt><trkpt lat="45.63289442781479" lon="9.598893204937296"><ele>184.0</ele><time>2026-03-15T18:05:44Z</time></trkpt><trkpt lat="45.63285863286152" lon="9.598816673988736"><ele>184.0</ele><time>2026-03-15T18:05:45Z</time></trkpt><trkpt lat="45.632812131268594" lon="9.598740584274815"><ele>184.0</ele><time>2026-03-15T18:05:46Z</time></trkpt><trkpt lat="45.63273710886148" lon="9.598653954189567"><ele>184.0</ele><time>2026-03-15T18:05:48Z</time></trkpt><trkpt lat="45.63269640756982" lon="9.5985329234539"><ele>184.0</ele><time>2026-03-15T18:09:20.998Z</time></trkpt><trkpt lat="45.632656768952636" lon="9.598456336387748"><ele>185.0</ele><time>2026-03-15T18:09:21.998Z</time></trkpt><trkpt lat="45.632580679227026" lon="9.598336198600787"><ele>186.0</ele><time>2026-03-15T18:09:23.998Z</time></trkpt><trkpt lat="45.63250004888236" lon="9.598256894805708"><ele>187.0</ele><time>2026-03-15T18:09:25.998Z</time></trkpt><trkpt lat="45.632436110224546" lon="9.598198252779445"><ele>188.0</ele><time>2026-03-15T18:09:26.997Z</time></trkpt><trkpt lat="45.6323758147523" lon="9.598143614862472"><ele>189.0</ele><time>2026-03-15T18:09:27.997Z</time></trkpt><trkpt lat="45.632287436482066" lon="9.598064909392875"><ele>189.0</ele><time>2026-03-15T18:09:30Z</time></trkpt><trkpt lat="45.63215557480465" lon="9.598012255708866"><ele>189.0</ele><time>2026-03-15T18:09:32Z</time></trkpt><trkpt lat="45.63207324634907" lon="9.597968237967725"><ele>189.0</ele><time>2026-03-15T18:09:33Z</time></trkpt><trkpt lat="45.631989922237594" lon="9.597957827338485"><ele>189.0</ele><time>2026-03-15T18:09:34Z</time></trkpt><trkpt lat="45.631910397746886" lon="9.597912740973616"><ele>189.0</ele><time>2026-03-15T18:09:35Z</time></trkpt><trkpt lat="45.631827124364804" lon="9.59785008639085"><ele>188.79999999999998</ele><time>2026-03-15T18:09:36Z</time></trkpt><trkpt lat="45.631757305875524" lon="9.597767329227523"><ele>188.6</ele><time>2026-03-15T18:09:37Z</time></trkpt><trkpt lat="45.631696635422344" lon="9.597654151818416"><ele>188.4</ele><time>2026-03-15T18:09:38Z</time></trkpt><trkpt lat="45.63163933128408" lon="9.597558367629672"><ele>188.2</ele><time>2026-03-15T18:09:39Z</time></trkpt><trkpt lat="45.63158361000437" lon="9.597477138783011"><ele>188.0</ele><time>2026-03-15T18:09:40Z</time></trkpt><trkpt lat="45.631502482822185" lon="9.597389483531142"><ele>188.0</ele><time>2026-03-15T18:09:41Z</time></trkpt><trkpt lat="45.6314071304283" lon="9.597297013536028"><ele>188.0</ele><time>2026-03-15T18:09:42Z</time></trkpt><trkpt lat="45.631308796236105" lon="9.597183617065005"><ele>188.0</ele><time>2026-03-15T18:09:43Z</time></trkpt><trkpt lat="45.63118884594671" lon="9.597065806416419"><ele>188.0</ele><time>2026-03-15T18:09:44Z</time></trkpt><trkpt lat="45.63110640553938" lon="9.596876674541576"><ele>189.0</ele><time>2026-03-15T18:09:45Z</time></trkpt><trkpt lat="45.631009641436044" lon="9.596707876646175"><ele>190.0</ele><time>2026-03-15T18:09:46Z</time></trkpt><trkpt lat="45.630900994666334" lon="9.596521174316795"><ele>191.0</ele><time>2026-03-15T18:09:47Z</time></trkpt><trkpt lat="45.63077678960328" lon="9.596310807590227"><ele>190.5</ele><time>2026-03-15T18:09:48Z</time></trkpt><trkpt lat="45.63061729988832" lon="9.596063654324563"><ele>190.0</ele><time>2026-03-15T18:09:49Z</time></trkpt><trkpt lat="45.6304616620572" lon="9.595819368913858"><ele>190.0</ele><time>2026-03-15T18:09:49.999Z</time></trkpt><trkpt lat="45.630314209187475" lon="9.595582062460732"><ele>190.0</ele><time>2026-03-15T18:09:50.999Z</time></trkpt><trkpt lat="45.630170918365685" lon="9.595341932285553"><ele>190.0</ele><time>2026-03-15T18:09:51.999Z</time></trkpt><trkpt lat="45.630009530571044" lon="9.595066920788625"><ele>191.0</ele><time>2026-03-15T18:09:52.999Z</time></trkpt><trkpt lat="45.62984847215011" lon="9.594789796560553"><ele>192.0</ele><time>2026-03-15T18:09:53.999Z</time></trkpt><trkpt lat="45.62968338154088" lon="9.594503988147443"><ele>192.0</ele><time>2026-03-15T18:09:54.999Z</time></trkpt><trkpt lat="45.62952782559132" lon="9.594220833958838"><ele>192.0</ele><time>2026-03-15T18:09:55.999Z</time></trkpt><trkpt lat="45.629379910431446" lon="9.593939505336081"><ele>191.5</ele><time>2026-03-15T18:09:56.999Z</time></trkpt><trkpt lat="45.629237482421814" lon="9.593669703669368"><ele>191.0</ele><time>2026-03-15T18:09:57.999Z</time></trkpt><trkpt lat="45.629097290024596" lon="9.593407294690152"><ele>191.0</ele><time>2026-03-15T18:09:58.999Z</time></trkpt><trkpt lat="45.62895285570461" lon="9.593139669036228"><ele>191.0</ele><time>2026-03-15T18:09:59.999Z</time></trkpt><trkpt lat="45.62879990378461" lon="9.592861800602929"><ele>191.0</ele><time>2026-03-15T18:10:00.999Z</time></trkpt><trkpt lat="45.62864453451638" lon="9.592584192949209"><ele>191.0</ele><time>2026-03-15T18:10:01.999Z</time></trkpt><trkpt lat="45.62849195249302" lon="9.592319075307373"><ele>190.0</ele><time>2026-03-15T18:10:02.999Z</time></trkpt><trkpt lat="45.62833838231984" lon="9.592048385194028"><ele>189.0</ele><time>2026-03-15T18:10:03.999Z</time></trkpt><trkpt lat="45.62818212996204" lon="9.591772361919928"><ele>188.5</ele><time>2026-03-15T18:10:04.999Z</time></trkpt><trkpt lat="45.62802513185282" lon="9.591491348523189"><ele>188.0</ele><time>2026-03-15T18:10:05.999Z</time></trkpt><trkpt lat="45.627870326416975" lon="9.591212805759037"><ele>188.0</ele><time>2026-03-15T18:10:06.999Z</time></trkpt><trkpt lat="45.627712016708294" lon="9.590924991039369"><ele>188.0</ele><time>2026-03-15T18:10:07.999Z</time></trkpt><trkpt lat="45.62754492774332" lon="9.590620428730725"><ele>188.5</ele><time>2026-03-15T18:10:08.999Z</time></trkpt><trkpt lat="45.62737706356276" lon="9.590314083648051"><ele>189.0</ele><time>2026-03-15T18:10:09.999Z</time></trkpt><trkpt lat="45.62720918648181" lon="9.590000953249293"><ele>189.0</ele><time>2026-03-15T18:10:10.999Z</time></trkpt><trkpt lat="45.6270401892706" lon="9.589695035014817"><ele>189.0</ele><time>2026-03-15T18:10:11.999Z</time></trkpt><trkpt lat="45.62686967789326" lon="9.589388150137928"><ele>187.5</ele><time>2026-03-15T18:10:12.999Z</time></trkpt><trkpt lat="45.6267015240857" lon="9.589082537062088"><ele>186.0</ele><time>2026-03-15T18:10:13.999Z</time></trkpt><trkpt lat="45.6265357517709" lon="9.5887768397735"><ele>186.5</ele><time>2026-03-15T18:10:14.999Z</time></trkpt><trkpt lat="45.626369387362395" lon="9.588477177172475"><ele>187.0</ele><time>2026-03-15T18:10:15.999Z</time></trkpt><trkpt lat="45.626201192071434" lon="9.588176726033568"><ele>187.0</ele><time>2026-03-15T18:10:16.999Z</time></trkpt><trkpt lat="45.62603551698027" lon="9.587879960132408"><ele>187.0</ele><time>2026-03-15T18:10:17.999Z</time></trkpt><trkpt lat="45.62587611082378" lon="9.587591465393679"><ele>187.0</ele><time>2026-03-15T18:10:18.999Z</time></trkpt><trkpt lat="45.625721062690495" lon="9.587310707040558"><ele>187.0</ele><time>2026-03-15T18:10:19.999Z</time></trkpt><trkpt lat="45.625571869312225" lon="9.587043848172298"><ele>186.5</ele><time>2026-03-15T18:10:20.999Z</time></trkpt><trkpt lat="45.625426612026104" lon="9.586784895717543"><ele>186.0</ele><time>2026-03-15T18:10:21.999Z</time></trkpt><trkpt lat="45.62528300323985" lon="9.5865269478067"><ele>186.0</ele><time>2026-03-15T18:10:22.999Z</time></trkpt><trkpt lat="45.625147828370515" lon="9.586279220450871"><ele>186.0</ele><time>2026-03-15T18:10:23.999Z</time></trkpt><trkpt lat="45.62501667188714" lon="9.586036587678336"><ele>186.0</ele><time>2026-03-15T18:10:24.999Z</time></trkpt><trkpt lat="45.624888253594776" lon="9.585797908165095"><ele>186.66666666666666</ele><time>2026-03-15T18:10:25.999Z</time></trkpt><trkpt lat="45.62476566171276" lon="9.585562508687639"><ele>187.33333333333331</ele><time>2026-03-15T18:10:26.999Z</time></trkpt><trkpt lat="45.62464819278697" lon="9.585332723156242"><ele>188.0</ele><time>2026-03-15T18:10:27.999Z</time></trkpt><trkpt lat="45.624532040540714" lon="9.585107096705345"><ele>188.0</ele><time>2026-03-15T18:10:28.999Z</time></trkpt><trkpt lat="45.62441932196351" lon="9.584890873244682"><ele>188.0</ele><time>2026-03-15T18:10:29.999Z</time></trkpt><trkpt lat="45.62430951625612" lon="9.584675138569647"><ele>188.0</ele><time>2026-03-15T18:10:30.999Z</time></trkpt><trkpt lat="45.62420180005902" lon="9.58445749997759"><ele>188.0</ele><time>2026-03-15T18:10:31.999Z</time></trkpt><trkpt lat="45.62407227948676" lon="9.58419230298066"><ele>188.0</ele><time>2026-03-15T18:10:32.999Z</time></trkpt><trkpt lat="45.623929534734344" lon="9.583880656766134"><ele>187.5</ele><time>2026-03-15T18:10:33.998Z</time></trkpt><trkpt lat="45.62378325365952" lon="9.583555142522359"><ele>187.0</ele><time>2026-03-15T18:10:34.998Z</time></trkpt><trkpt lat="45.62363493601943" lon="9.583210332257442"><ele>186.0</ele><time>2026-03-15T18:10:35.998Z</time></trkpt><trkpt lat="45.62349316522519" lon="9.582876805792342"><ele>185.0</ele><time>2026-03-15T18:10:36.998Z</time></trkpt><trkpt lat="45.623360603778195" lon="9.582556915220232"><ele>184.5</ele><time>2026-03-15T18:10:37.998Z</time></trkpt><trkpt lat="45.62324354357403" lon="9.582266000165227"><ele>184.0</ele><time>2026-03-15T18:10:38.998Z</time></trkpt><trkpt lat="45.623129828016836" lon="9.581982310628636"><ele>184.0</ele><time>2026-03-15T18:10:39.998Z</time></trkpt><trkpt lat="45.62303558058226" lon="9.581731616642294"><ele>184.0</ele><time>2026-03-15T18:10:40.998Z</time></trkpt><trkpt lat="45.622945488874265" lon="9.58147696657734"><ele>184.0</ele><time>2026-03-15T18:10:41.998Z</time></trkpt><trkpt lat="45.62285529151692" lon="9.581225128507102"><ele>184.33333333333334</ele><time>2026-03-15T18:10:42.998Z</time></trkpt><trkpt lat="45.62277414467647" lon="9.58099736062696"><ele>184.66666666666666</ele><time>2026-03-15T18:10:43.998Z</time></trkpt><trkpt lat="45.62269644283796" lon="9.580781755069298"><ele>185.0</ele><time>2026-03-15T18:10:44.998Z</time></trkpt><trkpt lat="45.62262243411109" lon="9.58057667766546"><ele>185.0</ele><time>2026-03-15T18:10:45.998Z</time></trkpt><trkpt lat="45.62255393162836" lon="9.580386780922202"><ele>185.0</ele><time>2026-03-15T18:10:46.998Z</time></trkpt><trkpt lat="45.622488278218704" lon="9.580205238743753"><ele>185.0</ele><time>2026-03-15T18:10:47.998Z</time></trkpt><trkpt lat="45.62240556471581" lon="9.579974374164932"><ele>185.0</ele><time>2026-03-15T18:10:48.998Z</time></trkpt><trkpt lat="45.622309066985295" lon="9.579693211896267"><ele>185.0</ele><time>2026-03-15T18:10:49.998Z</time></trkpt><trkpt lat="45.62220246539368" lon="9.579356751482207"><ele>184.0</ele><time>2026-03-15T18:10:50.998Z</time></trkpt><trkpt lat="45.6220882931793" lon="9.578995948212434"><ele>183.0</ele><time>2026-03-15T18:10:51.998Z</time></trkpt><trkpt lat="45.621958166663" lon="9.578599094927363"><ele>183.0</ele><time>2026-03-15T18:10:52.998Z</time></trkpt><trkpt lat="45.62181942552589" lon="9.578190042463898"><ele>183.0</ele><time>2026-03-15T18:10:53.998Z</time></trkpt><trkpt lat="45.62168867407832" lon="9.57781421300524"><ele>182.0</ele><time>2026-03-15T18:10:54.998Z</time></trkpt><trkpt lat="45.62156496249763" lon="9.577453808430308"><ele>181.0</ele><time>2026-03-15T18:10:55.998Z</time></trkpt><trkpt lat="45.6214451244113" lon="9.577098336791774"><ele>182.0</ele><time>2026-03-15T18:10:56.998Z</time></trkpt><trkpt lat="45.62133668483175" lon="9.576764863213809"><ele>183.0</ele><time>2026-03-15T18:10:57.998Z</time></trkpt><trkpt lat="45.621235766704665" lon="9.576457799209136"><ele>183.0</ele><time>2026-03-15T18:10:58.998Z</time></trkpt><trkpt lat="45.62113866093054" lon="9.57616790705607"><ele>183.0</ele><time>2026-03-15T18:10:59.998Z</time></trkpt><trkpt lat="45.62105101760609" lon="9.575903144058989"><ele>183.0</ele><time>2026-03-15T18:11:00.998Z</time></trkpt><trkpt lat="45.6209718339151" lon="9.57566287525044"><ele>183.0</ele><time>2026-03-15T18:11:01.998Z</time></trkpt><trkpt lat="45.620898512092" lon="9.57543713377066"><ele>183.0</ele><time>2026-03-15T18:11:02.998Z</time></trkpt><trkpt lat="45.62084006922837" lon="9.575234509604124"><ele>183.0</ele><time>2026-03-15T18:11:03.998Z</time></trkpt><trkpt lat="45.620796170869575" lon="9.575068115662223"><ele>183.16666666666666</ele><time>2026-03-15T18:11:04.998Z</time></trkpt><trkpt lat="45.620746511390486" lon="9.574947363030597"><ele>183.33333333333334</ele><time>2026-03-15T18:11:05.998Z</time></trkpt><trkpt lat="45.62071550644996" lon="9.574855965099381"><ele>183.5</ele><time>2026-03-15T18:11:06.998Z</time></trkpt><trkpt lat="45.62068803172011" lon="9.574774973710843"><ele>183.66666666666669</ele><time>2026-03-15T18:11:07.998Z</time></trkpt><trkpt lat="45.6206362961515" lon="9.574622464967808"><ele>183.83333333333334</ele><time>2026-03-15T18:11:09.998Z</time></trkpt><trkpt lat="45.62060225285617" lon="9.574522110417075"><ele>184.0</ele><time>2026-03-15T18:11:34.997Z</time></trkpt><trkpt lat="45.62056949983455" lon="9.574401437700768"><ele>184.0</ele><time>2026-03-15T18:11:39Z</time></trkpt><trkpt lat="45.620509805358694" lon="9.5742770819843"><ele>184.0</ele><time>2026-03-15T18:11:40Z</time></trkpt><trkpt lat="45.62043644212117" lon="9.574074111604013"><ele>184.0</ele><time>2026-03-15T18:11:41Z</time></trkpt><trkpt lat="45.620357951655734" lon="9.573842093530159"><ele>184.0</ele><time>2026-03-15T18:11:42Z</time></trkpt><trkpt lat="45.62026976140786" lon="9.573589504603653"><ele>183.5</ele><time>2026-03-15T18:11:43Z</time></trkpt><trkpt lat="45.62016844399379" lon="9.573298370716449"><ele>183.0</ele><time>2026-03-15T18:11:44Z</time></trkpt><trkpt lat="45.62005451955375" lon="9.572983916097204"><ele>182.5</ele><time>2026-03-15T18:11:45Z</time></trkpt><trkpt lat="45.61993593173356" lon="9.572657288558837"><ele>182.0</ele><time>2026-03-15T18:11:46Z</time></trkpt><trkpt lat="45.61982351608161" lon="9.572349821642925"><ele>182.0</ele><time>2026-03-15T18:11:47Z</time></trkpt><trkpt lat="45.61971092123449" lon="9.572038964240217"><ele>182.0</ele><time>2026-03-15T18:11:48Z</time></trkpt><trkpt lat="45.61959953574409" lon="9.571727219011363"><ele>181.0</ele><time>2026-03-15T18:11:49Z</time></trkpt><trkpt lat="45.61949193892612" lon="9.571426331315905"><ele>180.0</ele><time>2026-03-15T18:11:50Z</time></trkpt><trkpt lat="45.619377548764575" lon="9.57112659340306"><ele>180.0</ele><time>2026-03-15T18:11:51Z</time></trkpt><trkpt lat="45.61925423086315" lon="9.570791970486823"><ele>180.0</ele><time>2026-03-15T18:11:52Z</time></trkpt><trkpt lat="45.6191229934598" lon="9.57044646613476"><ele>180.5</ele><time>2026-03-15T18:11:53Z</time></trkpt><trkpt lat="45.618994096368446" lon="9.570082803505533"><ele>181.0</ele><time>2026-03-15T18:11:54Z</time></trkpt><trkpt lat="45.618878958964864" lon="9.56973411208747"><ele>184.0</ele><time>2026-03-15T18:11:55Z</time></trkpt><trkpt lat="45.6187754884939" lon="9.56939985603224"><ele>187.0</ele><time>2026-03-15T18:11:56Z</time></trkpt><trkpt lat="45.618673429005895" lon="9.5690592827175"><ele>183.5</ele><time>2026-03-15T18:11:57Z</time></trkpt><trkpt lat="45.61857058711264" lon="9.56872649683415"><ele>180.0</ele><time>2026-03-15T18:11:58Z</time></trkpt><trkpt lat="45.61846520760828" lon="9.568404638382514"><ele>180.0</ele><time>2026-03-15T18:11:59Z</time></trkpt><trkpt lat="45.61836669630626" lon="9.56811473905552"><ele>180.0</ele><time>2026-03-15T18:12:00Z</time></trkpt><trkpt lat="45.61827173516503" lon="9.56784323261046"><ele>180.0</ele><time>2026-03-15T18:12:01Z</time></trkpt><trkpt lat="45.61817590298949" lon="9.567562816146058"><ele>179.66666666666666</ele><time>2026-03-15T18:12:02Z</time></trkpt><trkpt lat="45.61807915624684" lon="9.567280603599512"><ele>179.33333333333331</ele><time>2026-03-15T18:12:03Z</time></trkpt><trkpt lat="45.61800025741748" lon="9.567037567654886"><ele>179.0</ele><time>2026-03-15T18:12:04Z</time></trkpt><trkpt lat="45.61793815374794" lon="9.566849771233564"><ele>178.75</ele><time>2026-03-15T18:12:05Z</time></trkpt><trkpt lat="45.61788153851622" lon="9.566677460544742"><ele>178.5</ele><time>2026-03-15T18:12:05.999Z</time></trkpt><trkpt lat="45.617824864505536" lon="9.566499547087142"><ele>178.25</ele><time>2026-03-15T18:12:06.999Z</time></trkpt><trkpt lat="45.617773221925596" lon="9.566328685142862"><ele>178.0</ele><time>2026-03-15T18:12:07.999Z</time></trkpt><trkpt lat="45.61772645984689" lon="9.566166837543792"><ele>178.0</ele><time>2026-03-15T18:12:08.999Z</time></trkpt><trkpt lat="45.61767273956798" lon="9.56600111078683"><ele>178.0</ele><time>2026-03-15T18:12:09.999Z</time></trkpt><trkpt lat="45.61761574470892" lon="9.565843713157511"><ele>178.0</ele><time>2026-03-15T18:12:10.999Z</time></trkpt><trkpt lat="45.61755085138911" lon="9.565676434790603"><ele>178.0</ele><time>2026-03-15T18:12:11.999Z</time></trkpt><trkpt lat="45.617481947862984" lon="9.56549243675986"><ele>178.0</ele><time>2026-03-15T18:12:12.999Z</time></trkpt><trkpt lat="45.6174035513625" lon="9.565276226453348"><ele>178.0</ele><time>2026-03-15T18:12:13.999Z</time></trkpt><trkpt lat="45.617324434402725" lon="9.56504632253597"><ele>178.0</ele><time>2026-03-15T18:12:14.999Z</time></trkpt><trkpt lat="45.61725177781446" lon="9.564821787046908"><ele>178.0</ele><time>2026-03-15T18:12:15.999Z</time></trkpt><trkpt lat="45.61717650836605" lon="9.564602515706504"><ele>178.0</ele><time>2026-03-15T18:12:16.999Z</time></trkpt><trkpt lat="45.61709583306974" lon="9.56436625033796"><ele>178.0</ele><time>2026-03-15T18:12:17.999Z</time></trkpt><trkpt lat="45.61700868288518" lon="9.564117042956369"><ele>177.33333333333334</ele><time>2026-03-15T18:12:18.999Z</time></trkpt><trkpt lat="45.61691621938549" lon="9.563858059459935"><ele>176.66666666666666</ele><time>2026-03-15T18:12:19.999Z</time></trkpt><trkpt lat="45.61681727252136" lon="9.563587303653193"><ele>176.0</ele><time>2026-03-15T18:12:20.999Z</time></trkpt><trkpt lat="45.61670242961303" lon="9.56327494307502"><ele>176.0</ele><time>2026-03-15T18:12:21.999Z</time></trkpt><trkpt lat="45.61656841937551" lon="9.562899146834727"><ele>176.0</ele><time>2026-03-15T18:12:22.999Z</time></trkpt><trkpt lat="45.61642427997532" lon="9.562473654993731"><ele>175.5</ele><time>2026-03-15T18:12:23.999Z</time></trkpt><trkpt lat="45.61627826995097" lon="9.562015889871194"><ele>175.0</ele><time>2026-03-15T18:12:24.999Z</time></trkpt><trkpt lat="45.616124649790684" lon="9.56154833227186"><ele>174.0</ele><time>2026-03-15T18:12:25.999Z</time></trkpt><trkpt lat="45.61594848159803" lon="9.56106461138675"><ele>173.0</ele><time>2026-03-15T18:12:26.999Z</time></trkpt><trkpt lat="45.61576046868128" lon="9.560575232789505"><ele>172.0</ele><time>2026-03-15T18:12:27.999Z</time></trkpt><trkpt lat="45.615594245176105" lon="9.560111644625191"><ele>171.0</ele><time>2026-03-15T18:12:28.999Z</time></trkpt><trkpt lat="45.6154504851121" lon="9.559692799603928"><ele>167.5</ele><time>2026-03-15T18:12:29.999Z</time></trkpt><trkpt lat="45.61531597469996" lon="9.559293093673352"><ele>164.0</ele><time>2026-03-15T18:12:30.999Z</time></trkpt><trkpt lat="45.61518619814158" lon="9.558899603727777"><ele>169.5</ele><time>2026-03-15T18:12:31.999Z</time></trkpt><trkpt lat="45.61506293157501" lon="9.558506070073278"><ele>175.0</ele><time>2026-03-15T18:12:32.999Z</time></trkpt><trkpt lat="45.61494818515242" lon="9.558127493532917"><ele>177.0</ele><time>2026-03-15T18:12:33.999Z</time></trkpt><trkpt lat="45.61484214847375" lon="9.557779734966758"><ele>179.0</ele><time>2026-03-15T18:12:34.999Z</time></trkpt><trkpt lat="45.61473707024276" lon="9.55744796982734"><ele>179.0</ele><time>2026-03-15T18:12:35.999Z</time></trkpt><trkpt lat="45.614634484849645" lon="9.557122906839002"><ele>179.0</ele><time>2026-03-15T18:12:36.999Z</time></trkpt><trkpt lat="45.614532221539996" lon="9.556789352313897"><ele>178.0</ele><time>2026-03-15T18:12:37.999Z</time></trkpt><trkpt lat="45.61442868727419" lon="9.556452465889983"><ele>177.0</ele><time>2026-03-15T18:12:38.999Z</time></trkpt><trkpt lat="45.61432643137762" lon="9.556115819958793"><ele>177.0</ele><time>2026-03-15T18:12:39.999Z</time></trkpt><trkpt lat="45.614220418753085" lon="9.555775139389562"><ele>177.0</ele><time>2026-03-15T18:12:40.999Z</time></trkpt><trkpt lat="45.614114659178114" lon="9.555441002157929"><ele>179.5</ele><time>2026-03-15T18:12:41.999Z</time></trkpt><trkpt lat="45.61400699582599" lon="9.555102161381397"><ele>182.0</ele><time>2026-03-15T18:12:42.999Z</time></trkpt><trkpt lat="45.61389833396557" lon="9.554760805646795"><ele>183.0</ele><time>2026-03-15T18:12:43.999Z</time></trkpt><trkpt lat="45.61379002801648" lon="9.554421713878652"><ele>184.0</ele><time>2026-03-15T18:12:44.999Z</time></trkpt><trkpt lat="45.61367880749017" lon="9.554076482675121"><ele>181.5</ele><time>2026-03-15T18:12:45.999Z</time></trkpt><trkpt lat="45.613569046164834" lon="9.553739954660296"><ele>179.0</ele><time>2026-03-15T18:12:46.999Z</time></trkpt><trkpt lat="45.61345645110292" lon="9.55339490802398"><ele>179.0</ele><time>2026-03-15T18:12:47.999Z</time></trkpt><trkpt lat="45.6133455270503" lon="9.553058833502577"><ele>179.0</ele><time>2026-03-15T18:12:48.998Z</time></trkpt><trkpt lat="45.613232729066844" lon="9.552720028944446"><ele>179.5</ele><time>2026-03-15T18:12:49.998Z</time></trkpt><trkpt lat="45.613119820135516" lon="9.552385475876282"><ele>180.0</ele><time>2026-03-15T18:12:50.998Z</time></trkpt><trkpt lat="45.613005660172306" lon="9.552048764036323"><ele>180.5</ele><time>2026-03-15T18:12:51.998Z</time></trkpt><trkpt lat="45.61289397384299" lon="9.551712723793809"><ele>181.0</ele><time>2026-03-15T18:12:52.998Z</time></trkpt><trkpt lat="45.612782437471594" lon="9.551377656302863"><ele>180.5</ele><time>2026-03-15T18:12:53.998Z</time></trkpt><trkpt lat="45.61266696421044" lon="9.551041157679176"><ele>180.0</ele><time>2026-03-15T18:12:54.998Z</time></trkpt><trkpt lat="45.612553662702595" lon="9.550705835277164"><ele>178.5</ele><time>2026-03-15T18:12:55.998Z</time></trkpt><trkpt lat="45.6124475789046" lon="9.55037131725238"><ele>177.0</ele><time>2026-03-15T18:12:56.998Z</time></trkpt><trkpt lat="45.61232372626147" lon="9.550034067666214"><ele>177.0</ele><time>2026-03-15T18:12:57.998Z</time></trkpt><trkpt lat="45.6122132245201" lon="9.549696707171913"><ele>177.0</ele><time>2026-03-15T18:12:58.998Z</time></trkpt><trkpt lat="45.61210311211072" lon="9.54936392822231"><ele>177.5</ele><time>2026-03-15T18:12:59.998Z</time></trkpt><trkpt lat="45.611990998973496" lon="9.54902641483241"><ele>178.0</ele><time>2026-03-15T18:13:00.998Z</time></trkpt><trkpt lat="45.611878123172744" lon="9.548687574383518"><ele>179.0</ele><time>2026-03-15T18:13:01.998Z</time></trkpt><trkpt lat="45.61176690593271" lon="9.548355750565356"><ele>180.0</ele><time>2026-03-15T18:13:02.998Z</time></trkpt><trkpt lat="45.61164776759467" lon="9.54801482995942"><ele>179.5</ele><time>2026-03-15T18:13:03.998Z</time></trkpt><trkpt lat="45.61153494641718" lon="9.547680619853915"><ele>179.0</ele><time>2026-03-15T18:13:04.998Z</time></trkpt><trkpt lat="45.611424882160605" lon="9.547348458417632"><ele>179.5</ele><time>2026-03-15T18:13:05.998Z</time></trkpt><trkpt lat="45.61130972285864" lon="9.547005310440994"><ele>180.0</ele><time>2026-03-15T18:13:06.998Z</time></trkpt><trkpt lat="45.61119446651443" lon="9.5466691309692"><ele>179.5</ele><time>2026-03-15T18:13:07.998Z</time></trkpt><trkpt lat="45.61108432864197" lon="9.54633426835263"><ele>179.0</ele><time>2026-03-15T18:13:08.998Z</time></trkpt><trkpt lat="45.6109723432634" lon="9.545994462840426"><ele>178.5</ele><time>2026-03-15T18:13:09.998Z</time></trkpt><trkpt lat="45.61086041153133" lon="9.545657171401174"><ele>178.0</ele><time>2026-03-15T18:13:10.998Z</time></trkpt><trkpt lat="45.61074691179893" lon="9.54531891643645"><ele>178.0</ele><time>2026-03-15T18:13:11.998Z</time></trkpt><trkpt lat="45.61063273710578" lon="9.54498206638601"><ele>178.0</ele><time>2026-03-15T18:13:12.998Z</time></trkpt><trkpt lat="45.61051967947503" lon="9.544646334257633"><ele>179.0</ele><time>2026-03-15T18:13:13.998Z</time></trkpt><trkpt lat="45.6104051018466" lon="9.544310649652315"><ele>180.0</ele><time>2026-03-15T18:13:14.998Z</time></trkpt><trkpt lat="45.61029095466589" lon="9.543974779313041"><ele>180.5</ele><time>2026-03-15T18:13:15.998Z</time></trkpt><trkpt lat="45.61018170593525" lon="9.543641440449047"><ele>181.0</ele><time>2026-03-15T18:13:16.998Z</time></trkpt><trkpt lat="45.610065943698224" lon="9.543307919840158"><ele>181.0</ele><time>2026-03-15T18:13:17.998Z</time></trkpt><trkpt lat="45.60995359957017" lon="9.542968450471914"><ele>181.0</ele><time>2026-03-15T18:13:18.998Z</time></trkpt><trkpt lat="45.609841445007376" lon="9.54263430067308"><ele>181.5</ele><time>2026-03-15T18:13:19.998Z</time></trkpt><trkpt lat="45.60972891765029" lon="9.542298072927368"><ele>182.0</ele><time>2026-03-15T18:13:20.998Z</time></trkpt><trkpt lat="45.60961634293481" lon="9.541962061307622"><ele>182.5</ele><time>2026-03-15T18:13:21.998Z</time></trkpt><trkpt lat="45.60950755898022" lon="9.541623337428064"><ele>183.0</ele><time>2026-03-15T18:13:22.998Z</time></trkpt><trkpt lat="45.60939556769663" lon="9.541287604722271"><ele>182.5</ele><time>2026-03-15T18:13:23.998Z</time></trkpt><trkpt lat="45.60927840831755" lon="9.540948827860653"><ele>182.0</ele><time>2026-03-15T18:13:24.998Z</time></trkpt><trkpt lat="45.609165511508216" lon="9.540613197588575"><ele>182.0</ele><time>2026-03-15T18:13:25.998Z</time></trkpt><trkpt lat="45.60905098479745" lon="9.540277950004137"><ele>182.0</ele><time>2026-03-15T18:13:26.998Z</time></trkpt><trkpt lat="45.60893300047726" lon="9.53993788923111"><ele>182.0</ele><time>2026-03-15T18:13:27.998Z</time></trkpt><trkpt lat="45.60882231199921" lon="9.539600582800519"><ele>182.0</ele><time>2026-03-15T18:13:28.998Z</time></trkpt><trkpt lat="45.60871013800257" lon="9.539264103524035"><ele>182.0</ele><time>2026-03-15T18:13:29.998Z</time></trkpt><trkpt lat="45.608598407669604" lon="9.53892678116981"><ele>182.0</ele><time>2026-03-15T18:13:30.998Z</time></trkpt><trkpt lat="45.60848269604979" lon="9.538590616984536"><ele>183.0</ele><time>2026-03-15T18:13:31.998Z</time></trkpt><trkpt lat="45.608378549111734" lon="9.538249773094082"><ele>184.0</ele><time>2026-03-15T18:13:32.998Z</time></trkpt><trkpt lat="45.60826575155019" lon="9.5379105773274"><ele>184.5</ele><time>2026-03-15T18:13:33.997Z</time></trkpt><trkpt lat="45.60815162009208" lon="9.537577105302233"><ele>185.0</ele><time>2026-03-15T18:13:34.997Z</time></trkpt><trkpt lat="45.608037101134684" lon="9.537241514188167"><ele>184.5</ele><time>2026-03-15T18:13:35.997Z</time></trkpt><trkpt lat="45.60792421285542" lon="9.536907874062152"><ele>184.0</ele><time>2026-03-15T18:13:36.997Z</time></trkpt><trkpt lat="45.60780936986615" lon="9.536574879469146"><ele>184.0</ele><time>2026-03-15T18:13:37.997Z</time></trkpt><trkpt lat="45.607691878356626" lon="9.536237391984175"><ele>184.0</ele><time>2026-03-15T18:13:38.997Z</time></trkpt><trkpt lat="45.607577288426455" lon="9.535902391411161"><ele>184.0</ele><time>2026-03-15T18:13:39.997Z</time></trkpt><trkpt lat="45.60746251718216" lon="9.535567552479987"><ele>184.0</ele><time>2026-03-15T18:13:41Z</time></trkpt><trkpt lat="45.60735095186112" lon="9.535235181153267"><ele>184.0</ele><time>2026-03-15T18:13:42Z</time></trkpt><trkpt lat="45.60723787398887" lon="9.534898626034463"><ele>184.0</ele><time>2026-03-15T18:13:43Z</time></trkpt><trkpt lat="45.60712313046687" lon="9.534560167753321"><ele>184.5</ele><time>2026-03-15T18:13:44Z</time></trkpt><trkpt lat="45.60700876287166" lon="9.534224081703039"><ele>185.0</ele><time>2026-03-15T18:13:45Z</time></trkpt><trkpt lat="45.606893522963766" lon="9.533891855751493"><ele>185.0</ele><time>2026-03-15T18:13:46Z</time></trkpt><trkpt lat="45.60677498011191" lon="9.533559418467744"><ele>185.0</ele><time>2026-03-15T18:13:47Z</time></trkpt><trkpt lat="45.606654791881354" lon="9.533226893968752"><ele>185.0</ele><time>2026-03-15T18:13:48Z</time></trkpt><trkpt lat="45.60653613982397" lon="9.532893847755746"><ele>185.0</ele><time>2026-03-15T18:13:49Z</time></trkpt><trkpt lat="45.60641876378698" lon="9.532562875242682"><ele>185.0</ele><time>2026-03-15T18:13:50Z</time></trkpt><trkpt lat="45.60629863854615" lon="9.532227823270572"><ele>185.0</ele><time>2026-03-15T18:13:51Z</time></trkpt><trkpt lat="45.60618374899493" lon="9.5318925338855"><ele>183.5</ele><time>2026-03-15T18:13:52Z</time></trkpt><trkpt lat="45.606069571796944" lon="9.531560178168277"><ele>182.0</ele><time>2026-03-15T18:13:53Z</time></trkpt><trkpt lat="45.605951625339685" lon="9.531223851518128"><ele>181.5</ele><time>2026-03-15T18:13:54Z</time></trkpt><trkpt lat="45.60583640474101" lon="9.530888674064359"><ele>181.0</ele><time>2026-03-15T18:13:55Z</time></trkpt><trkpt lat="45.6057223470682" lon="9.530554548025885"><ele>182.0</ele><time>2026-03-15T18:13:56Z</time></trkpt><trkpt lat="45.60560867219872" lon="9.53022001652367"><ele>183.0</ele><time>2026-03-15T18:13:57Z</time></trkpt><trkpt lat="45.605493793765994" lon="9.529884202047608"><ele>178.5</ele><time>2026-03-15T18:13:58Z</time></trkpt><trkpt lat="45.605379354570616" lon="9.529550367021196"><ele>174.0</ele><time>2026-03-15T18:13:59Z</time></trkpt><trkpt lat="45.60526472941278" lon="9.52921304506614"><ele>166.5</ele><time>2026-03-15T18:14:00Z</time></trkpt><trkpt lat="45.605150660772175" lon="9.528878872158979"><ele>159.0</ele><time>2026-03-15T18:14:01Z</time></trkpt><trkpt lat="45.605038697090684" lon="9.52854401250445"><ele>161.0</ele><time>2026-03-15T18:14:02Z</time></trkpt><trkpt lat="45.60492899276478" lon="9.528214050998358"><ele>163.0</ele><time>2026-03-15T18:14:03Z</time></trkpt><trkpt lat="45.6048161626743" lon="9.527879661979652"><ele>163.0</ele><time>2026-03-15T18:14:04Z</time></trkpt><trkpt lat="45.604705619815626" lon="9.52754680834296"><ele>163.0</ele><time>2026-03-15T18:14:05Z</time></trkpt><trkpt lat="45.60459645226718" lon="9.527213732604379"><ele>171.0</ele><time>2026-03-15T18:14:06Z</time></trkpt><trkpt lat="45.60448697401169" lon="9.526878759812742"><ele>179.0</ele><time>2026-03-15T18:14:07Z</time></trkpt><trkpt lat="45.604376523567055" lon="9.526540526004833"><ele>179.0</ele><time>2026-03-15T18:14:08Z</time></trkpt><trkpt lat="45.604264956249025" lon="9.526203326117455"><ele>179.0</ele><time>2026-03-15T18:14:09Z</time></trkpt><trkpt lat="45.60415310624326" lon="9.525865744904179"><ele>179.0</ele><time>2026-03-15T18:14:10Z</time></trkpt><trkpt lat="45.60403957519601" lon="9.525532006786356"><ele>179.0</ele><time>2026-03-15T18:14:11Z</time></trkpt><trkpt lat="45.6039229830467" lon="9.525190227810718"><ele>179.0</ele><time>2026-03-15T18:14:12Z</time></trkpt><trkpt lat="45.60380911143184" lon="9.524854586357304"><ele>179.0</ele><time>2026-03-15T18:14:13Z</time></trkpt><trkpt lat="45.603693230016866" lon="9.524518463714683"><ele>179.0</ele><time>2026-03-15T18:14:14Z</time></trkpt><trkpt lat="45.60358097022095" lon="9.524180771785527"><ele>179.0</ele><time>2026-03-15T18:14:15Z</time></trkpt><trkpt lat="45.60347035907086" lon="9.52384585577722"><ele>179.0</ele><time>2026-03-15T18:14:16Z</time></trkpt><trkpt lat="45.603358184065186" lon="9.523505275398206"><ele>179.0</ele><time>2026-03-15T18:14:17Z</time></trkpt><trkpt lat="45.60324836803377" lon="9.523168607074675"><ele>179.5</ele><time>2026-03-15T18:14:18Z</time></trkpt><trkpt lat="45.6031352899001" lon="9.522829341260083"><ele>180.0</ele><time>2026-03-15T18:14:19Z</time></trkpt><trkpt lat="45.60302403753829" lon="9.5224930708879"><ele>180.0</ele><time>2026-03-15T18:14:20Z</time></trkpt><trkpt lat="45.60290924095009" lon="9.522155302413376"><ele>180.0</ele><time>2026-03-15T18:14:21Z</time></trkpt><trkpt lat="45.60279814968077" lon="9.521820803950897"><ele>180.5</ele><time>2026-03-15T18:14:22Z</time></trkpt><trkpt lat="45.60268018128313" lon="9.521484651732134"><ele>181.0</ele><time>2026-03-15T18:14:23Z</time></trkpt><trkpt lat="45.60256990633428" lon="9.521146745519088"><ele>179.0</ele><time>2026-03-15T18:14:24Z</time></trkpt><trkpt lat="45.60245613364108" lon="9.520814512927057"><ele>177.0</ele><time>2026-03-15T18:14:25Z</time></trkpt><trkpt lat="45.60234295535412" lon="9.520471102988214"><ele>178.5</ele><time>2026-03-15T18:14:26Z</time></trkpt><trkpt lat="45.60223005941457" lon="9.52013245873667"><ele>180.0</ele><time>2026-03-15T18:14:26.999Z</time></trkpt><trkpt lat="45.602113480303395" lon="9.519794600020996"><ele>180.5</ele><time>2026-03-15T18:14:27.999Z</time></trkpt><trkpt lat="45.602003212678945" lon="9.519466191811945"><ele>181.0</ele><time>2026-03-15T18:14:28.999Z</time></trkpt><trkpt lat="45.60189265982177" lon="9.51912720765104"><ele>180.0</ele><time>2026-03-15T18:14:29.999Z</time></trkpt><trkpt lat="45.60178428948505" lon="9.518788047099928"><ele>179.0</ele><time>2026-03-15T18:14:30.999Z</time></trkpt><trkpt lat="45.60167880396853" lon="9.518448754321838"><ele>179.0</ele><time>2026-03-15T18:14:31.999Z</time></trkpt><trkpt lat="45.60157292789146" lon="9.518108200848644"><ele>179.0</ele><time>2026-03-15T18:14:32.999Z</time></trkpt><trkpt lat="45.6014674345701" lon="9.517772026741586"><ele>179.0</ele><time>2026-03-15T18:14:33.999Z</time></trkpt><trkpt lat="45.60135651462118" lon="9.517431473702805"><ele>179.0</ele><time>2026-03-15T18:14:34.999Z</time></trkpt><trkpt lat="45.60124857518562" lon="9.517095751067"><ele>179.5</ele><time>2026-03-15T18:14:35.999Z</time></trkpt><trkpt lat="45.60113658532804" lon="9.516753897821529"><ele>180.0</ele><time>2026-03-15T18:14:36.999Z</time></trkpt><trkpt lat="45.60103014734634" lon="9.516417444636701"><ele>180.0</ele><time>2026-03-15T18:14:37.999Z</time></trkpt><trkpt lat="45.60091837704502" lon="9.516071853385547"><ele>180.0</ele><time>2026-03-15T18:14:38.999Z</time></trkpt><trkpt lat="45.60081129816807" lon="9.51573868461214"><ele>180.0</ele><time>2026-03-15T18:14:39.999Z</time></trkpt><trkpt lat="45.60069550325248" lon="9.51539760095776"><ele>180.0</ele><time>2026-03-15T18:14:40.999Z</time></trkpt><trkpt lat="45.60058344996815" lon="9.515060876752997"><ele>180.0</ele><time>2026-03-15T18:14:41.999Z</time></trkpt><trkpt lat="45.600471228691234" lon="9.514725147664501"><ele>180.0</ele><time>2026-03-15T18:14:42.999Z</time></trkpt><trkpt lat="45.60035611703054" lon="9.514389132001398"><ele>179.0</ele><time>2026-03-15T18:14:43.999Z</time></trkpt><trkpt lat="45.60023730554088" lon="9.514052045242313"><ele>178.0</ele><time>2026-03-15T18:14:44.999Z</time></trkpt><trkpt lat="45.6001222531229" lon="9.513718424568776"><ele>178.0</ele><time>2026-03-15T18:14:45.999Z</time></trkpt><trkpt lat="45.60000888862471" lon="9.51338151468436"><ele>178.0</ele><time>2026-03-15T18:14:46.999Z</time></trkpt><trkpt lat="45.59989985513663" lon="9.513049044261727"><ele>180.0</ele><time>2026-03-15T18:14:47.999Z</time></trkpt><trkpt lat="45.59978454027782" lon="9.512708408975694"><ele>182.0</ele><time>2026-03-15T18:14:48.999Z</time></trkpt><trkpt lat="45.599672424569235" lon="9.512371612158667"><ele>181.0</ele><time>2026-03-15T18:14:49.999Z</time></trkpt><trkpt lat="45.59956036800371" lon="9.512035966009842"><ele>180.0</ele><time>2026-03-15T18:14:50.999Z</time></trkpt><trkpt lat="45.59944390867829" lon="9.511701447787575"><ele>180.0</ele><time>2026-03-15T18:14:51.999Z</time></trkpt><trkpt lat="45.59932685925332" lon="9.511364269555083"><ele>180.0</ele><time>2026-03-15T18:14:52.999Z</time></trkpt><trkpt lat="45.59921562908033" lon="9.511032701187629"><ele>180.0</ele><time>2026-03-15T18:14:53.999Z</time></trkpt><trkpt lat="45.599100039494985" lon="9.510692454673684"><ele>180.0</ele><time>2026-03-15T18:14:54.999Z</time></trkpt><trkpt lat="45.59898394620826" lon="9.510356172245919"><ele>179.5</ele><time>2026-03-15T18:14:55.999Z</time></trkpt><trkpt lat="45.59887284451237" lon="9.51002150263729"><ele>179.0</ele><time>2026-03-15T18:14:56.999Z</time></trkpt><trkpt lat="45.59875809499116" lon="9.5096828668454"><ele>178.0</ele><time>2026-03-15T18:14:57.999Z</time></trkpt><trkpt lat="45.59864316429836" lon="9.509345953469566"><ele>177.0</ele><time>2026-03-15T18:14:58.999Z</time></trkpt><trkpt lat="45.59853140238539" lon="9.509012820801802"><ele>178.5</ele><time>2026-03-15T18:14:59.999Z</time></trkpt><trkpt lat="45.59841483528573" lon="9.508676015240896"><ele>180.0</ele><time>2026-03-15T18:15:00.999Z</time></trkpt><trkpt lat="45.59830042662684" lon="9.508339292821306"><ele>180.0</ele><time>2026-03-15T18:15:01.999Z</time></trkpt><trkpt lat="45.59818590033796" lon="9.508007622492087"><ele>180.0</ele><time>2026-03-15T18:15:02.999Z</time></trkpt><trkpt lat="45.59806407215496" lon="9.507675025647277"><ele>180.0</ele><time>2026-03-15T18:15:03.999Z</time></trkpt><trkpt lat="45.59794473203286" lon="9.507343542761028"><ele>180.0</ele><time>2026-03-15T18:15:04.999Z</time></trkpt><trkpt lat="45.59782619058336" lon="9.50701399292837"><ele>180.0</ele><time>2026-03-15T18:15:05.999Z</time></trkpt><trkpt lat="45.59771227372594" lon="9.506682081377567"><ele>180.0</ele><time>2026-03-15T18:15:06.999Z</time></trkpt><trkpt lat="45.59759511858249" lon="9.50634568072711"><ele>179.5</ele><time>2026-03-15T18:15:07.999Z</time></trkpt><trkpt lat="45.59748921002915" lon="9.506021914580359"><ele>179.0</ele><time>2026-03-15T18:15:08.999Z</time></trkpt><trkpt lat="45.597387141178736" lon="9.505725135423457"><ele>179.0</ele><time>2026-03-15T18:15:09.999Z</time></trkpt><trkpt lat="45.59728385591901" lon="9.505422232729671"><ele>179.0</ele><time>2026-03-15T18:15:10.999Z</time></trkpt><trkpt lat="45.59717916890686" lon="9.505116001756523"><ele>179.5</ele><time>2026-03-15T18:15:11.998Z</time></trkpt><trkpt lat="45.59707377726387" lon="9.504807920636273"><ele>180.0</ele><time>2026-03-15T18:15:12.998Z</time></trkpt><trkpt lat="45.596963813341084" lon="9.504491885755945"><ele>179.0</ele><time>2026-03-15T18:15:13.998Z</time></trkpt><trkpt lat="45.59685204134762" lon="9.504169406171709"><ele>178.0</ele><time>2026-03-15T18:15:14.998Z</time></trkpt><trkpt lat="45.59674124996485" lon="9.503848670485139"><ele>178.0</ele><time>2026-03-15T18:15:15.998Z</time></trkpt><trkpt lat="45.59663079089042" lon="9.503526198377115"><ele>178.0</ele><time>2026-03-15T18:15:16.998Z</time></trkpt><trkpt lat="45.596521184621835" lon="9.503200996792753"><ele>178.0</ele><time>2026-03-15T18:15:17.998Z</time></trkpt><trkpt lat="45.59641272693742" lon="9.502877833469068"><ele>178.0</ele><time>2026-03-15T18:15:18.998Z</time></trkpt><trkpt lat="45.59630559721053" lon="9.502555182038535"><ele>178.0</ele><time>2026-03-15T18:15:19.998Z</time></trkpt><trkpt lat="45.596194032867025" lon="9.502227709516196"><ele>178.0</ele><time>2026-03-15T18:15:20.998Z</time></trkpt><trkpt lat="45.596083741710764" lon="9.50190435140588"><ele>178.0</ele><time>2026-03-15T18:15:21.998Z</time></trkpt><trkpt lat="45.595971596366326" lon="9.501572441745004"><ele>178.0</ele><time>2026-03-15T18:15:22.998Z</time></trkpt><trkpt lat="45.59586014736371" lon="9.501242136030012"><ele>178.0</ele><time>2026-03-15T18:15:23.998Z</time></trkpt><trkpt lat="45.59574915809568" lon="9.500905599145872"><ele>178.0</ele><time>2026-03-15T18:15:24.998Z</time></trkpt><trkpt lat="45.59564466748324" lon="9.500566078931968"><ele>179.0</ele><time>2026-03-15T18:15:25.998Z</time></trkpt><trkpt lat="45.595537360017836" lon="9.5002251740817"><ele>180.0</ele><time>2026-03-15T18:15:26.998Z</time></trkpt><trkpt lat="45.595433667792896" lon="9.499889737276016"><ele>180.5</ele><time>2026-03-15T18:15:27.998Z</time></trkpt><trkpt lat="45.5953320780114" lon="9.499534130006317"><ele>181.0</ele><time>2026-03-15T18:15:28.998Z</time></trkpt><trkpt lat="45.59523324845085" lon="9.4991826034043"><ele>181.0</ele><time>2026-03-15T18:15:29.998Z</time></trkpt><trkpt lat="45.59514034831582" lon="9.498834829146286"><ele>181.0</ele><time>2026-03-15T18:15:30.998Z</time></trkpt><trkpt lat="45.595050740950654" lon="9.498484923445112"><ele>180.5</ele><time>2026-03-15T18:15:31.998Z</time></trkpt><trkpt lat="45.59496630052968" lon="9.49813254097357"><ele>180.0</ele><time>2026-03-15T18:15:32.998Z</time></trkpt><trkpt lat="45.594885203742216" lon="9.497780467203894"><ele>179.5</ele><time>2026-03-15T18:15:33.998Z</time></trkpt><trkpt lat="45.594805466879684" lon="9.497426207366818"><ele>179.0</ele><time>2026-03-15T18:15:34.998Z</time></trkpt><trkpt lat="45.594727526362206" lon="9.497070600374492"><ele>180.5</ele><time>2026-03-15T18:15:35.998Z</time></trkpt><trkpt lat="45.594653224333896" lon="9.49670749072182"><ele>182.0</ele><time>2026-03-15T18:15:36.998Z</time></trkpt><trkpt lat="45.59458379798779" lon="9.496346061112988"><ele>181.5</ele><time>2026-03-15T18:15:37.998Z</time></trkpt><trkpt lat="45.59451513192489" lon="9.495983756645959"><ele>181.0</ele><time>2026-03-15T18:15:38.998Z</time></trkpt><trkpt lat="45.59444993591484" lon="9.495627218675983"><ele>181.0</ele><time>2026-03-15T18:15:39.998Z</time></trkpt><trkpt lat="45.594384225931606" lon="9.495273443826353"><ele>181.0</ele><time>2026-03-15T18:15:40.998Z</time></trkpt><trkpt lat="45.594315819855524" lon="9.494920701735976"><ele>181.5</ele><time>2026-03-15T18:15:41.998Z</time></trkpt><trkpt lat="45.59424445976306" lon="9.494558600133091"><ele>182.0</ele><time>2026-03-15T18:15:42.998Z</time></trkpt><trkpt lat="45.59417459917871" lon="9.494200366997504"><ele>182.0</ele><time>2026-03-15T18:15:43.998Z</time></trkpt><trkpt lat="45.594107014158105" lon="9.493847134611267"><ele>182.0</ele><time>2026-03-15T18:15:44.998Z</time></trkpt><trkpt lat="45.59404065502854" lon="9.493490607001426"><ele>181.0</ele><time>2026-03-15T18:15:45.998Z</time></trkpt><trkpt lat="45.593973049444195" lon="9.493128927061736"><ele>180.0</ele><time>2026-03-15T18:15:47Z</time></trkpt><trkpt lat="45.5939064737106" lon="9.492774238428902"><ele>180.0</ele><time>2026-03-15T18:15:48Z</time></trkpt><trkpt lat="45.593839044042646" lon="9.492418232933879"><ele>180.0</ele><time>2026-03-15T18:15:49Z</time></trkpt><trkpt lat="45.59377036809329" lon="9.49206024667501"><ele>179.5</ele><time>2026-03-15T18:15:50Z</time></trkpt><trkpt lat="45.59369824429479" lon="9.491702848779452"><ele>179.0</ele><time>2026-03-15T18:15:51Z</time></trkpt><trkpt lat="45.593628704281045" lon="9.49135013366586"><ele>180.0</ele><time>2026-03-15T18:15:52Z</time></trkpt><trkpt lat="45.59355964001218" lon="9.49099712181002"><ele>181.0</ele><time>2026-03-15T18:15:53Z</time></trkpt><trkpt lat="45.5934903560992" lon="9.490639624560798"><ele>180.5</ele><time>2026-03-15T18:15:54Z</time></trkpt><trkpt lat="45.59342295043188" lon="9.49027994915545"><ele>180.0</ele><time>2026-03-15T18:15:55Z</time></trkpt><trkpt lat="45.59335680273826" lon="9.48992274165736"><ele>180.0</ele><time>2026-03-15T18:15:56Z</time></trkpt><trkpt lat="45.59328662869518" lon="9.489558908099559"><ele>180.0</ele><time>2026-03-15T18:15:57Z</time></trkpt><trkpt lat="45.593219379513584" lon="9.489197734453205"><ele>180.0</ele><time>2026-03-15T18:15:58Z</time></trkpt><trkpt lat="45.59315106731743" lon="9.488833322715982"><ele>180.0</ele><time>2026-03-15T18:15:59Z</time></trkpt><trkpt lat="45.59308250909187" lon="9.488468393013237"><ele>180.0</ele><time>2026-03-15T18:16:00.001Z</time></trkpt><trkpt lat="45.5930128436383" lon="9.488104950380244"><ele>180.0</ele><time>2026-03-15T18:16:01Z</time></trkpt><trkpt lat="45.59294337659472" lon="9.487742163750742"><ele>180.5</ele><time>2026-03-15T18:16:02Z</time></trkpt><trkpt lat="45.592874553003256" lon="9.487378193944028"><ele>181.0</ele><time>2026-03-15T18:16:03Z</time></trkpt><trkpt lat="45.59280502522834" lon="9.487018755143866"><ele>180.0</ele><time>2026-03-15T18:16:03.999Z</time></trkpt><trkpt lat="45.592735040273716" lon="9.486661444866762"><ele>179.0</ele><time>2026-03-15T18:16:04.999Z</time></trkpt><trkpt lat="45.59266567393558" lon="9.486304241990064"><ele>179.0</ele><time>2026-03-15T18:16:05.999Z</time></trkpt><trkpt lat="45.59259709512982" lon="9.485947529218242"><ele>179.0</ele><time>2026-03-15T18:16:06.999Z</time></trkpt><trkpt lat="45.5925289096152" lon="9.485588057090757"><ele>179.0</ele><time>2026-03-15T18:16:07.999Z</time></trkpt><trkpt lat="45.59245976039289" lon="9.485231987061344"><ele>179.0</ele><time>2026-03-15T18:16:08.999Z</time></trkpt><trkpt lat="45.59239067107793" lon="9.48487117758655"><ele>180.0</ele><time>2026-03-15T18:16:09.999Z</time></trkpt><trkpt lat="45.592323684136254" lon="9.48451180030352"><ele>181.0</ele><time>2026-03-15T18:16:10.999Z</time></trkpt><trkpt lat="45.59225432573106" lon="9.484151162254747"><ele>181.0</ele><time>2026-03-15T18:16:11.999Z</time></trkpt><trkpt lat="45.59218542579725" lon="9.483789951975291"><ele>181.0</ele><time>2026-03-15T18:16:12.999Z</time></trkpt><trkpt lat="45.59212091599152" lon="9.483433624894813"><ele>182.0</ele><time>2026-03-15T18:16:13.999Z</time></trkpt><trkpt lat="45.59205731797629" lon="9.483071072196864"><ele>183.0</ele><time>2026-03-15T18:16:14.999Z</time></trkpt><trkpt lat="45.59200198801306" lon="9.48271069185478"><ele>183.0</ele><time>2026-03-15T18:16:15.999Z</time></trkpt><trkpt lat="45.59194350144944" lon="9.48234489515563"><ele>183.0</ele><time>2026-03-15T18:16:16.999Z</time></trkpt><trkpt lat="45.59187891853465" lon="9.481985547412043"><ele>182.5</ele><time>2026-03-15T18:16:17.999Z</time></trkpt><trkpt lat="45.59181028881177" lon="9.481632834002848"><ele>182.0</ele><time>2026-03-15T18:16:18.999Z</time></trkpt><trkpt lat="45.59173977270742" lon="9.481283575896171"><ele>182.0</ele><time>2026-03-15T18:16:19.999Z</time></trkpt><trkpt lat="45.59166833306737" lon="9.480919797005877"><ele>182.0</ele><time>2026-03-15T18:16:20.999Z</time></trkpt><trkpt lat="45.5915978481575" lon="9.480569572171234"><ele>182.5</ele><time>2026-03-15T18:16:21.999Z</time></trkpt><trkpt lat="45.59152647587051" lon="9.480204411094538"><ele>183.0</ele><time>2026-03-15T18:16:22.999Z</time></trkpt><trkpt lat="45.59146343698698" lon="9.479844540013646"><ele>180.5</ele><time>2026-03-15T18:16:23.999Z</time></trkpt><trkpt lat="45.59139507019211" lon="9.479482928664938"><ele>178.0</ele><time>2026-03-15T18:16:24.999Z</time></trkpt><trkpt lat="45.59132910689738" lon="9.479125855634317"><ele>179.0</ele><time>2026-03-15T18:16:25.999Z</time></trkpt><trkpt lat="45.59125976550153" lon="9.478755131533116"><ele>180.0</ele><time>2026-03-15T18:16:26.999Z</time></trkpt><trkpt lat="45.59119034513625" lon="9.478390773859308"><ele>179.0</ele><time>2026-03-15T18:16:27.999Z</time></trkpt><trkpt lat="45.5911201620131" lon="9.478031115685132"><ele>178.0</ele><time>2026-03-15T18:16:28.999Z</time></trkpt><trkpt lat="45.591049490025895" lon="9.477666633548417"><ele>178.0</ele><time>2026-03-15T18:16:29.999Z</time></trkpt><trkpt lat="45.59098114730792" lon="9.477307745715434"><ele>178.0</ele><time>2026-03-15T18:16:30.999Z</time></trkpt><trkpt lat="45.59091378229314" lon="9.476949840511464"><ele>179.0</ele><time>2026-03-15T18:16:31.999Z</time></trkpt><trkpt lat="45.59084578858188" lon="9.476593236163403"><ele>180.0</ele><time>2026-03-15T18:16:32.999Z</time></trkpt><trkpt lat="45.59077752833481" lon="9.476232429833926"><ele>181.5</ele><time>2026-03-15T18:16:33.999Z</time></trkpt><trkpt lat="45.59071153865748" lon="9.475873284768136"><ele>183.0</ele><time>2026-03-15T18:16:34.999Z</time></trkpt><trkpt lat="45.59064124276567" lon="9.475511538459111"><ele>182.0</ele><time>2026-03-15T18:16:35.999Z</time></trkpt><trkpt lat="45.590571949630714" lon="9.475154425138168"><ele>181.0</ele><time>2026-03-15T18:16:36.999Z</time></trkpt><trkpt lat="45.59050082920173" lon="9.474793257548292"><ele>180.5</ele><time>2026-03-15T18:16:37.999Z</time></trkpt><trkpt lat="45.59043219114293" lon="9.474433838252796"><ele>180.0</ele><time>2026-03-15T18:16:38.999Z</time></trkpt><trkpt lat="45.59036280156065" lon="9.474071442916093"><ele>180.5</ele><time>2026-03-15T18:16:39.999Z</time></trkpt><trkpt lat="45.59029446689354" lon="9.47371248386744"><ele>181.0</ele><time>2026-03-15T18:16:40.999Z</time></trkpt><trkpt lat="45.59022545175945" lon="9.473353559230233"><ele>181.0</ele><time>2026-03-15T18:16:41.999Z</time></trkpt><trkpt lat="45.5901602654283" lon="9.47299855316463"><ele>181.0</ele><time>2026-03-15T18:16:42.999Z</time></trkpt><trkpt lat="45.59009445342525" lon="9.472641247162295"><ele>180.0</ele><time>2026-03-15T18:16:43.999Z</time></trkpt><trkpt lat="45.59002793099046" lon="9.472288448516325"><ele>179.0</ele><time>2026-03-15T18:16:44.998Z</time></trkpt><trkpt lat="45.58995653599156" lon="9.471931369631422"><ele>179.0</ele><time>2026-03-15T18:16:45.998Z</time></trkpt><trkpt lat="45.58988723688163" lon="9.47158245048331"><ele>179.0</ele><time>2026-03-15T18:16:46.998Z</time></trkpt><trkpt lat="45.58981890640607" lon="9.471231888120299"><ele>179.0</ele><time>2026-03-15T18:16:47.998Z</time></trkpt><trkpt lat="45.58974859441771" lon="9.470875782318215"><ele>179.0</ele><time>2026-03-15T18:16:48.998Z</time></trkpt><trkpt lat="45.58967884027117" lon="9.47051762858229"><ele>179.0</ele><time>2026-03-15T18:16:49.998Z</time></trkpt><trkpt lat="45.589612949872794" lon="9.47016505198615"><ele>179.0</ele><time>2026-03-15T18:16:50.998Z</time></trkpt><trkpt lat="45.58954576171416" lon="9.469808112648165"><ele>179.5</ele><time>2026-03-15T18:16:51.998Z</time></trkpt><trkpt lat="45.589476959511174" lon="9.4694528662558"><ele>180.0</ele><time>2026-03-15T18:16:52.998Z</time></trkpt><trkpt lat="45.58940972506449" lon="9.469097889406504"><ele>181.0</ele><time>2026-03-15T18:16:53.998Z</time></trkpt><trkpt lat="45.58934153382851" lon="9.468740703369456"><ele>182.0</ele><time>2026-03-15T18:16:54.998Z</time></trkpt><trkpt lat="45.58927533187067" lon="9.468388384284394"><ele>182.0</ele><time>2026-03-15T18:16:55.998Z</time></trkpt><trkpt lat="45.589205151781606" lon="9.468030560849712"><ele>182.0</ele><time>2026-03-15T18:16:56.998Z</time></trkpt><trkpt lat="45.58913719956745" lon="9.467672506233534"><ele>182.0</ele><time>2026-03-15T18:16:57.998Z</time></trkpt><trkpt lat="45.589072089342714" lon="9.46731599463429"><ele>182.0</ele><time>2026-03-15T18:16:58.998Z</time></trkpt><trkpt lat="45.589002778651164" lon="9.46695864159047"><ele>182.0</ele><time>2026-03-15T18:16:59.998Z</time></trkpt><trkpt lat="45.58893148716795" lon="9.466599098845473"><ele>182.0</ele><time>2026-03-15T18:17:00.998Z</time></trkpt><trkpt lat="45.58886214768292" lon="9.466242536845836"><ele>180.5</ele><time>2026-03-15T18:17:01.998Z</time></trkpt><trkpt lat="45.588794525342195" lon="9.465887004584864"><ele>179.0</ele><time>2026-03-15T18:17:02.998Z</time></trkpt><trkpt lat="45.58872774304691" lon="9.465527563319549"><ele>178.0</ele><time>2026-03-15T18:17:03.998Z</time></trkpt><trkpt lat="45.58866072709132" lon="9.46516893684223"><ele>177.0</ele><time>2026-03-15T18:17:04.998Z</time></trkpt><trkpt lat="45.588593507587326" lon="9.46481243231574"><ele>177.5</ele><time>2026-03-15T18:17:05.998Z</time></trkpt><trkpt lat="45.58852352760136" lon="9.46445370670941"><ele>178.0</ele><time>2026-03-15T18:17:06.998Z</time></trkpt><trkpt lat="45.588452499299436" lon="9.464097720015335"><ele>178.5</ele><time>2026-03-15T18:17:07.998Z</time></trkpt><trkpt lat="45.588381263317935" lon="9.463741761170036"><ele>179.0</ele><time>2026-03-15T18:17:08.998Z</time></trkpt><trkpt lat="45.58831553383151" lon="9.463387630274763"><ele>179.0</ele><time>2026-03-15T18:17:09.998Z</time></trkpt><trkpt lat="45.58824868938474" lon="9.463032298146087"><ele>179.0</ele><time>2026-03-15T18:17:10.998Z</time></trkpt><trkpt lat="45.58818133592046" lon="9.462675520837806"><ele>179.5</ele><time>2026-03-15T18:17:11.998Z</time></trkpt><trkpt lat="45.58811113752042" lon="9.46231843701697"><ele>180.0</ele><time>2026-03-15T18:17:12.998Z</time></trkpt><trkpt lat="45.58803998591933" lon="9.461961151546737"><ele>180.0</ele><time>2026-03-15T18:17:13.998Z</time></trkpt><trkpt lat="45.587971265842974" lon="9.461606828732833"><ele>180.0</ele><time>2026-03-15T18:17:14.998Z</time></trkpt><trkpt lat="45.5879057828438" lon="9.461251044252323"><ele>179.0</ele><time>2026-03-15T18:17:15.998Z</time></trkpt><trkpt lat="45.587839211522585" lon="9.460890708630263"><ele>178.0</ele><time>2026-03-15T18:17:16.998Z</time></trkpt><trkpt lat="45.587773479944744" lon="9.46053511177736"><ele>178.5</ele><time>2026-03-15T18:17:17.998Z</time></trkpt><trkpt lat="45.58770637042039" lon="9.46018196245738"><ele>179.0</ele><time>2026-03-15T18:17:18.998Z</time></trkpt><trkpt lat="45.58763711152633" lon="9.459827813423127"><ele>177.5</ele><time>2026-03-15T18:17:19.998Z</time></trkpt><trkpt lat="45.587570552756496" lon="9.459475569268058"><ele>176.0</ele><time>2026-03-15T18:17:20.998Z</time></trkpt><trkpt lat="45.58749922560166" lon="9.459120059187054"><ele>176.0</ele><time>2026-03-15T18:17:21.998Z</time></trkpt><trkpt lat="45.5874284644269" lon="9.458763384674697"><ele>176.0</ele><time>2026-03-15T18:17:22.998Z</time></trkpt><trkpt lat="45.58736061620498" lon="9.45840448835997"><ele>176.0</ele><time>2026-03-15T18:17:23.998Z</time></trkpt><trkpt lat="45.5872967436577" lon="9.458048588759636"><ele>176.0</ele><time>2026-03-15T18:17:24.998Z</time></trkpt><trkpt lat="45.58723341001805" lon="9.457692774678613"><ele>176.5</ele><time>2026-03-15T18:17:25.998Z</time></trkpt><trkpt lat="45.58716588863893" lon="9.457338985758698"><ele>177.0</ele><time>2026-03-15T18:17:26.998Z</time></trkpt><trkpt lat="45.58709768595712" lon="9.456984077221533"><ele>177.0</ele><time>2026-03-15T18:17:27.998Z</time></trkpt><trkpt lat="45.58702699156679" lon="9.456629429087453"><ele>177.0</ele><time>2026-03-15T18:17:28.998Z</time></trkpt><trkpt lat="45.586953883543686" lon="9.45627100872019"><ele>177.0</ele><time>2026-03-15T18:17:29.997Z</time></trkpt><trkpt lat="45.58688514841684" lon="9.455918134755121"><ele>177.0</ele><time>2026-03-15T18:17:30.997Z</time></trkpt><trkpt lat="45.58681556740747" lon="9.455564533793044"><ele>176.5</ele><time>2026-03-15T18:17:31.997Z</time></trkpt><trkpt lat="45.58674417078537" lon="9.455207415850845"><ele>176.0</ele><time>2026-03-15T18:17:32.997Z</time></trkpt><trkpt lat="45.586676116916195" lon="9.45485355156525"><ele>175.5</ele><time>2026-03-15T18:17:33.997Z</time></trkpt><trkpt lat="45.58660701158918" lon="9.454492501803054"><ele>175.0</ele><time>2026-03-15T18:17:34.997Z</time></trkpt><trkpt lat="45.586540667812635" lon="9.45413789025079"><ele>176.0</ele><time>2026-03-15T18:17:35.997Z</time></trkpt><trkpt lat="45.58647141521746" lon="9.45378191105286"><ele>177.0</ele><time>2026-03-15T18:17:36.997Z</time></trkpt><trkpt lat="45.58640353274438" lon="9.453429119216839"><ele>177.0</ele><time>2026-03-15T18:17:37.997Z</time></trkpt><trkpt lat="45.58633180842854" lon="9.453072461740808"><ele>177.0</ele><time>2026-03-15T18:17:38.997Z</time></trkpt><trkpt lat="45.586263313639336" lon="9.45271815911919"><ele>177.0</ele><time>2026-03-15T18:17:39.997Z</time></trkpt><trkpt lat="45.586195123419216" lon="9.45236206318097"><ele>177.0</ele><time>2026-03-15T18:17:40.997Z</time></trkpt><trkpt lat="45.5861217662517" lon="9.452002098699008"><ele>175.5</ele><time>2026-03-15T18:17:41.997Z</time></trkpt><trkpt lat="45.58605353005148" lon="9.451644832300481"><ele>174.0</ele><time>2026-03-15T18:17:42.997Z</time></trkpt><trkpt lat="45.58598287209385" lon="9.451286664111002"><ele>174.0</ele><time>2026-03-15T18:17:43.997Z</time></trkpt><trkpt lat="45.58591782331314" lon="9.45092904092062"><ele>174.0</ele><time>2026-03-15T18:17:44.997Z</time></trkpt><trkpt lat="45.5858549343173" lon="9.4505750441406"><ele>174.0</ele><time>2026-03-15T18:17:45.997Z</time></trkpt><trkpt lat="45.585786989252384" lon="9.450214641836576"><ele>174.0</ele><time>2026-03-15T18:17:46.997Z</time></trkpt><trkpt lat="45.585719135174514" lon="9.4498569097972"><ele>175.0</ele><time>2026-03-15T18:17:47.997Z</time></trkpt><trkpt lat="45.5856491762625" lon="9.44949647207397"><ele>176.0</ele><time>2026-03-15T18:17:48.997Z</time></trkpt><trkpt lat="45.585583002656925" lon="9.449139749554034"><ele>175.0</ele><time>2026-03-15T18:17:49.997Z</time></trkpt><trkpt lat="45.585516697613535" lon="9.448783963049975"><ele>174.0</ele><time>2026-03-15T18:17:50.997Z</time></trkpt><trkpt lat="45.58544884594225" lon="9.448426136761015"><ele>174.0</ele><time>2026-03-15T18:17:51.997Z</time></trkpt><trkpt lat="45.585380359038346" lon="9.448068539248577"><ele>174.0</ele><time>2026-03-15T18:17:53Z</time></trkpt><trkpt lat="45.5853079151278" lon="9.447709976440976"><ele>174.0</ele><time>2026-03-15T18:17:54Z</time></trkpt><trkpt lat="45.58523539061564" lon="9.447354338569403"><ele>174.0</ele><time>2026-03-15T18:17:55Z</time></trkpt><trkpt lat="45.58516405413577" lon="9.44699972852391"><ele>174.0</ele><time>2026-03-15T18:17:56Z</time></trkpt><trkpt lat="45.58509624660912" lon="9.446645140510569"><ele>174.0</ele><time>2026-03-15T18:17:57Z</time></trkpt><trkpt lat="45.58503216241707" lon="9.446291752078592"><ele>175.0</ele><time>2026-03-15T18:17:58Z</time></trkpt><trkpt lat="45.58496475761938" lon="9.445935201203929"><ele>176.0</ele><time>2026-03-15T18:17:59Z</time></trkpt><trkpt lat="45.58489460639234" lon="9.445576590357152"><ele>177.5</ele><time>2026-03-15T18:18:00Z</time></trkpt><trkpt lat="45.58482968149107" lon="9.445226729720055"><ele>179.0</ele><time>2026-03-15T18:18:01Z</time></trkpt><trkpt lat="45.584759907754794" lon="9.444869307329009"><ele>178.5</ele><time>2026-03-15T18:18:02Z</time></trkpt><trkpt lat="45.58469294809346" lon="9.444515947224456"><ele>178.0</ele><time>2026-03-15T18:18:03Z</time></trkpt><trkpt lat="45.58462807334015" lon="9.444170603704583"><ele>178.0</ele><time>2026-03-15T18:18:04Z</time></trkpt><trkpt lat="45.58455710286181" lon="9.443808389658228"><ele>178.0</ele><time>2026-03-15T18:18:05Z</time></trkpt><trkpt lat="45.584489043733974" lon="9.44345218594534"><ele>175.5</ele><time>2026-03-15T18:18:06Z</time></trkpt><trkpt lat="45.58441945925845" lon="9.44309683118307"><ele>173.0</ele><time>2026-03-15T18:18:07Z</time></trkpt><trkpt lat="45.584350691369906" lon="9.442740895933417"><ele>173.0</ele><time>2026-03-15T18:18:08Z</time></trkpt><trkpt lat="45.584279933104234" lon="9.442385842237652"><ele>173.0</ele><time>2026-03-15T18:18:09Z</time></trkpt><trkpt lat="45.584210427011506" lon="9.442031693774702"><ele>173.0</ele><time>2026-03-15T18:18:10Z</time></trkpt><trkpt lat="45.584144144386286" lon="9.441673931892783"><ele>173.0</ele><time>2026-03-15T18:18:11Z</time></trkpt><trkpt lat="45.58407241829663" lon="9.441315597134544"><ele>173.0</ele><time>2026-03-15T18:18:12Z</time></trkpt><trkpt lat="45.584010545641796" lon="9.440955792897737"><ele>173.0</ele><time>2026-03-15T18:18:13Z</time></trkpt><trkpt lat="45.58394161732695" lon="9.440598770490432"><ele>174.0</ele><time>2026-03-15T18:18:14Z</time></trkpt><trkpt lat="45.58387252441616" lon="9.44024118054009"><ele>175.0</ele><time>2026-03-15T18:18:15Z</time></trkpt><trkpt lat="45.58380424988736" lon="9.439884679862915"><ele>175.0</ele><time>2026-03-15T18:18:16Z</time></trkpt><trkpt lat="45.58373533845721" lon="9.439529330993075"><ele>175.0</ele><time>2026-03-15T18:18:17Z</time></trkpt><trkpt lat="45.58367058797665" lon="9.439175599385386"><ele>173.5</ele><time>2026-03-15T18:18:18Z</time></trkpt><trkpt lat="45.58359986777809" lon="9.43881843027807"><ele>172.0</ele><time>2026-03-15T18:18:18.999Z</time></trkpt><trkpt lat="45.58353386220846" lon="9.438463798992993"><ele>171.5</ele><time>2026-03-15T18:18:19.999Z</time></trkpt><trkpt lat="45.583460508186" lon="9.438107861907111"><ele>171.0</ele><time>2026-03-15T18:18:20.999Z</time></trkpt><trkpt lat="45.58339050653865" lon="9.437753881824849"><ele>172.0</ele><time>2026-03-15T18:18:21.999Z</time></trkpt><trkpt lat="45.58332388656085" lon="9.437397994402604"><ele>173.0</ele><time>2026-03-15T18:18:22.999Z</time></trkpt><trkpt lat="45.58325435107092" lon="9.43703962538671"><ele>173.0</ele><time>2026-03-15T18:18:23.999Z</time></trkpt><trkpt lat="45.58319236108387" lon="9.436684207458086"><ele>173.0</ele><time>2026-03-15T18:18:24.999Z</time></trkpt><trkpt lat="45.58312592664167" lon="9.436334719174795"><ele>173.5</ele><time>2026-03-15T18:18:25.999Z</time></trkpt><trkpt lat="45.58306443063433" lon="9.436018385478583"><ele>174.0</ele><time>2026-03-15T18:18:26.999Z</time></trkpt><trkpt lat="45.58299772852218" lon="9.435698174213245"><ele>174.0</ele><time>2026-03-15T18:18:27.999Z</time></trkpt><trkpt lat="45.582935459837564" lon="9.435366494871127"><ele>174.0</ele><time>2026-03-15T18:18:28.999Z</time></trkpt><trkpt lat="45.58287016392419" lon="9.435025562557247"><ele>172.0</ele><time>2026-03-15T18:18:29.999Z</time></trkpt><trkpt lat="45.58280420188515" lon="9.434683045144391"><ele>170.0</ele><time>2026-03-15T18:18:30.999Z</time></trkpt><trkpt lat="45.58273810394532" lon="9.43434172036326"><ele>170.0</ele><time>2026-03-15T18:18:31.999Z</time></trkpt><trkpt lat="45.58267176617544" lon="9.433990437317494"><ele>170.0</ele><time>2026-03-15T18:18:32.999Z</time></trkpt><trkpt lat="45.58260679017198" lon="9.433635408423871"><ele>170.5</ele><time>2026-03-15T18:18:33.999Z</time></trkpt><trkpt lat="45.5825409092979" lon="9.433279248230068"><ele>171.0</ele><time>2026-03-15T18:18:34.999Z</time></trkpt><trkpt lat="45.58247213937875" lon="9.432918360903786"><ele>171.0</ele><time>2026-03-15T18:18:35.999Z</time></trkpt><trkpt lat="45.582401705313046" lon="9.432555366590107"><ele>171.0</ele><time>2026-03-15T18:18:36.999Z</time></trkpt><trkpt lat="45.582331343297675" lon="9.43219125193049"><ele>169.5</ele><time>2026-03-15T18:18:37.999Z</time></trkpt><trkpt lat="45.58226193148252" lon="9.431830507944888"><ele>168.0</ele><time>2026-03-15T18:18:38.999Z</time></trkpt><trkpt lat="45.58218996199909" lon="9.431464630826724"><ele>170.0</ele><time>2026-03-15T18:18:39.999Z</time></trkpt><trkpt lat="45.582118206943555" lon="9.43110134329192"><ele>172.0</ele><time>2026-03-15T18:18:40.999Z</time></trkpt><trkpt lat="45.58204878124806" lon="9.43074575683471"><ele>169.5</ele><time>2026-03-15T18:18:41.999Z</time></trkpt><trkpt lat="45.58197948874232" lon="9.43038435004478"><ele>167.0</ele><time>2026-03-15T18:18:42.999Z</time></trkpt><trkpt lat="45.58191085070235" lon="9.430024575334784"><ele>167.0</ele><time>2026-03-15T18:18:43.999Z</time></trkpt><trkpt lat="45.58184386928957" lon="9.429669698437316"><ele>167.0</ele><time>2026-03-15T18:18:44.999Z</time></trkpt><trkpt lat="45.581776040920126" lon="9.42931190463824"><ele>168.0</ele><time>2026-03-15T18:18:45.999Z</time></trkpt><trkpt lat="45.58170839662166" lon="9.428961270195567"><ele>169.0</ele><time>2026-03-15T18:18:46.999Z</time></trkpt><trkpt lat="45.581640519566676" lon="9.428609222694563"><ele>169.5</ele><time>2026-03-15T18:18:47.999Z</time></trkpt><trkpt lat="45.58157483648268" lon="9.428259292825286"><ele>170.0</ele><time>2026-03-15T18:18:48.999Z</time></trkpt><trkpt lat="45.581509273688624" lon="9.427906876115989"><ele>170.0</ele><time>2026-03-15T18:18:49.999Z</time></trkpt><trkpt lat="45.58144068621619" lon="9.427548766024376"><ele>170.0</ele><time>2026-03-15T18:18:50.999Z</time></trkpt><trkpt lat="45.58137010631322" lon="9.427200093626205"><ele>171.0</ele><time>2026-03-15T18:18:51.999Z</time></trkpt><trkpt lat="45.581299959067984" lon="9.426851888765922"><ele>172.0</ele><time>2026-03-15T18:18:52.999Z</time></trkpt><trkpt lat="45.581227716901616" lon="9.426490833968332"><ele>171.0</ele><time>2026-03-15T18:18:53.999Z</time></trkpt><trkpt lat="45.581157848917854" lon="9.426136604179815"><ele>170.0</ele><time>2026-03-15T18:18:54.999Z</time></trkpt><trkpt lat="45.581090701918434" lon="9.425779233276655"><ele>170.0</ele><time>2026-03-15T18:18:55.999Z</time></trkpt><trkpt lat="45.58102897147678" lon="9.425426950982638"><ele>170.0</ele><time>2026-03-15T18:18:56.999Z</time></trkpt><trkpt lat="45.58096428066935" lon="9.425065759012947"><ele>170.0</ele><time>2026-03-15T18:18:57.999Z</time></trkpt><trkpt lat="45.58090034401879" lon="9.424706451373122"><ele>170.0</ele><time>2026-03-15T18:18:58.999Z</time></trkpt><trkpt lat="45.58083427325601" lon="9.424349284455056"><ele>169.5</ele><time>2026-03-15T18:18:59.999Z</time></trkpt><trkpt lat="45.580763584971585" lon="9.423990096571538"><ele>169.0</ele><time>2026-03-15T18:19:00.999Z</time></trkpt><trkpt lat="45.580690952390334" lon="9.42363553126533"><ele>168.0</ele><time>2026-03-15T18:19:01.999Z</time></trkpt><trkpt lat="45.58061780851707" lon="9.423281037948568"><ele>167.0</ele><time>2026-03-15T18:19:02.999Z</time></trkpt><trkpt lat="45.58054631996858" lon="9.422931817227465"><ele>167.0</ele><time>2026-03-15T18:19:03.999Z</time></trkpt><trkpt lat="45.580474554013264" lon="9.42257136393662"><ele>167.0</ele><time>2026-03-15T18:19:04.998Z</time></trkpt><trkpt lat="45.58040078496351" lon="9.422211989904337"><ele>167.0</ele><time>2026-03-15T18:19:05.998Z</time></trkpt><trkpt lat="45.58032654317728" lon="9.421862080334867"><ele>167.0</ele><time>2026-03-15T18:19:06.998Z</time></trkpt><trkpt lat="45.5802541770987" lon="9.421503785222232"><ele>167.5</ele><time>2026-03-15T18:19:07.998Z</time></trkpt><trkpt lat="45.580182736176326" lon="9.42114631582977"><ele>168.0</ele><time>2026-03-15T18:19:08.998Z</time></trkpt><trkpt lat="45.58010942229815" lon="9.420788882617334"><ele>168.5</ele><time>2026-03-15T18:19:09.998Z</time></trkpt><trkpt lat="45.58003640458098" lon="9.420435495628977"><ele>169.0</ele><time>2026-03-15T18:19:10.998Z</time></trkpt><trkpt lat="45.579962972819125" lon="9.420082733051654"><ele>169.0</ele><time>2026-03-15T18:19:11.998Z</time></trkpt><trkpt lat="45.579888430608754" lon="9.419727142739667"><ele>169.0</ele><time>2026-03-15T18:19:12.998Z</time></trkpt><trkpt lat="45.57981468305108" lon="9.41937267973431"><ele>169.0</ele><time>2026-03-15T18:19:13.998Z</time></trkpt><trkpt lat="45.57974217616433" lon="9.41901634653109"><ele>169.0</ele><time>2026-03-15T18:19:14.998Z</time></trkpt><trkpt lat="45.57966958663594" lon="9.4186721513507"><ele>168.5</ele><time>2026-03-15T18:19:15.998Z</time></trkpt><trkpt lat="45.579608801580434" lon="9.418349110138449"><ele>168.0</ele><time>2026-03-15T18:19:16.998Z</time></trkpt><trkpt lat="45.579551204353805" lon="9.418032252587244"><ele>167.0</ele><time>2026-03-15T18:19:17.998Z</time></trkpt><trkpt lat="45.57949106820455" lon="9.417724064801211"><ele>166.0</ele><time>2026-03-15T18:19:18.998Z</time></trkpt><trkpt lat="45.57942945986393" lon="9.41740323580525"><ele>165.5</ele><time>2026-03-15T18:19:19.998Z</time></trkpt><trkpt lat="45.579369630444724" lon="9.417087023252911"><ele>165.0</ele><time>2026-03-15T18:19:20.998Z</time></trkpt><trkpt lat="45.5793089339532" lon="9.416763475849605"><ele>165.0</ele><time>2026-03-15T18:19:21.998Z</time></trkpt><trkpt lat="45.579247755217146" lon="9.416447418179667"><ele>165.0</ele><time>2026-03-15T18:19:22.998Z</time></trkpt><trkpt lat="45.57917615075719" lon="9.416116516174185"><ele>166.0</ele><time>2026-03-15T18:19:23.998Z</time></trkpt><trkpt lat="45.579097280379266" lon="9.415767043869032"><ele>167.0</ele><time>2026-03-15T18:19:24.998Z</time></trkpt><trkpt lat="45.579014397850536" lon="9.415397394074343"><ele>168.0</ele><time>2026-03-15T18:19:25.998Z</time></trkpt><trkpt lat="45.578939505500855" lon="9.415024241245499"><ele>169.0</ele><time>2026-03-15T18:19:26.998Z</time></trkpt><trkpt lat="45.57887030411583" lon="9.414654631906583"><ele>169.0</ele><time>2026-03-15T18:19:27.998Z</time></trkpt><trkpt lat="45.578798465949326" lon="9.414266431519522"><ele>169.0</ele><time>2026-03-15T18:19:28.998Z</time></trkpt><trkpt lat="45.5787297287046" lon="9.413895860837599"><ele>167.5</ele><time>2026-03-15T18:19:29.998Z</time></trkpt><trkpt lat="45.57866290977112" lon="9.413535816731839"><ele>166.0</ele><time>2026-03-15T18:19:30.998Z</time></trkpt><trkpt lat="45.57859350562389" lon="9.413158195861563"><ele>166.5</ele><time>2026-03-15T18:19:31.998Z</time></trkpt><trkpt lat="45.57852644919157" lon="9.412766762125285"><ele>167.0</ele><time>2026-03-15T18:19:32.998Z</time></trkpt><trkpt lat="45.57845756898524" lon="9.412362169564517"><ele>167.0</ele><time>2026-03-15T18:19:33.998Z</time></trkpt><trkpt lat="45.57838554755098" lon="9.411961842982139"><ele>167.0</ele><time>2026-03-15T18:19:34.998Z</time></trkpt><trkpt lat="45.57831132388486" lon="9.41155318668434"><ele>167.0</ele><time>2026-03-15T18:19:35.998Z</time></trkpt><trkpt lat="45.578236844611425" lon="9.411149505147744"><ele>167.0</ele><time>2026-03-15T18:19:36.998Z</time></trkpt><trkpt lat="45.57816307878298" lon="9.410749607906439"><ele>167.0</ele><time>2026-03-15T18:19:37.998Z</time></trkpt><trkpt lat="45.57809491399726" lon="9.410368128893877"><ele>167.0</ele><time>2026-03-15T18:19:38.998Z</time></trkpt><trkpt lat="45.578028216709555" lon="9.409994522028137"><ele>167.5</ele><time>2026-03-15T18:19:39.998Z</time></trkpt><trkpt lat="45.577957819157405" lon="9.409617127751718"><ele>168.0</ele><time>2026-03-15T18:19:40.998Z</time></trkpt><trkpt lat="45.57788539893749" lon="9.409242634577812"><ele>166.5</ele><time>2026-03-15T18:19:41.998Z</time></trkpt><trkpt lat="45.57781314491683" lon="9.408868150218726"><ele>165.0</ele><time>2026-03-15T18:19:42.998Z</time></trkpt><trkpt lat="45.57774658514555" lon="9.40850675734151"><ele>164.5</ele><time>2026-03-15T18:19:43.998Z</time></trkpt><trkpt lat="45.577680617416355" lon="9.408166027711156"><ele>164.0</ele><time>2026-03-15T18:19:44.998Z</time></trkpt><trkpt lat="45.57761168317796" lon="9.407802815175053"><ele>164.0</ele><time>2026-03-15T18:19:45.998Z</time></trkpt><trkpt lat="45.57754833491961" lon="9.40744822518024"><ele>164.0</ele><time>2026-03-15T18:19:46.998Z</time></trkpt><trkpt lat="45.57748878653323" lon="9.407081711979037"><ele>165.5</ele><time>2026-03-15T18:19:47.998Z</time></trkpt><trkpt lat="45.57742928585394" lon="9.4067228851178"><ele>167.0</ele><time>2026-03-15T18:19:48.998Z</time></trkpt><trkpt lat="45.577362821484485" lon="9.406365323417655"><ele>166.0</ele><time>2026-03-15T18:19:49.997Z</time></trkpt><trkpt lat="45.57729242369615" lon="9.406007331617612"><ele>165.0</ele><time>2026-03-15T18:19:50.997Z</time></trkpt><trkpt lat="45.57722241107599" lon="9.40565201314816"><ele>165.0</ele><time>2026-03-15T18:19:51.997Z</time></trkpt><trkpt lat="45.57715294222784" lon="9.405299922192322"><ele>165.0</ele><time>2026-03-15T18:19:52.997Z</time></trkpt><trkpt lat="45.57708616402062" lon="9.404944467710793"><ele>165.0</ele><time>2026-03-15T18:19:53.997Z</time></trkpt><trkpt lat="45.57702043568342" lon="9.404590506978124"><ele>165.0</ele><time>2026-03-15T18:19:54.997Z</time></trkpt><trkpt lat="45.576954067801495" lon="9.404235295364677"><ele>165.0</ele><time>2026-03-15T18:19:55.997Z</time></trkpt><trkpt lat="45.57688463980118" lon="9.403880754826965"><ele>165.0</ele><time>2026-03-15T18:19:56.997Z</time></trkpt><trkpt lat="45.57681643145825" lon="9.40352975875346"><ele>165.0</ele><time>2026-03-15T18:19:57.997Z</time></trkpt><trkpt lat="45.57675041902797" lon="9.403173384594977"><ele>165.0</ele><time>2026-03-15T18:19:59Z</time></trkpt><trkpt lat="45.57668392101868" lon="9.402820998773292"><ele>165.5</ele><time>2026-03-15T18:20:00Z</time></trkpt><trkpt lat="45.57661623645498" lon="9.402460688205458"><ele>166.0</ele><time>2026-03-15T18:20:01Z</time></trkpt><trkpt lat="45.576548253263596" lon="9.40210847183465"><ele>166.0</ele><time>2026-03-15T18:20:02Z</time></trkpt><trkpt lat="45.5764770413605" lon="9.401750956971323"><ele>166.0</ele><time>2026-03-15T18:20:03Z</time></trkpt><trkpt lat="45.57640684218059" lon="9.401397013704042"><ele>166.0</ele><time>2026-03-15T18:20:04Z</time></trkpt><trkpt lat="45.57633550343838" lon="9.401039916048223"><ele>166.0</ele><time>2026-03-15T18:20:05Z</time></trkpt><trkpt lat="45.57626566920202" lon="9.40068585935166"><ele>166.0</ele><time>2026-03-15T18:20:06Z</time></trkpt><trkpt lat="45.57619224709592" lon="9.40033163358269"><ele>166.0</ele><time>2026-03-15T18:20:07Z</time></trkpt><trkpt lat="45.57611501103809" lon="9.399979836106224"><ele>166.5</ele><time>2026-03-15T18:20:08Z</time></trkpt><trkpt lat="45.57603561942732" lon="9.399616858540696"><ele>167.0</ele><time>2026-03-15T18:20:09Z</time></trkpt><trkpt lat="45.57596026716536" lon="9.399241264231629"><ele>167.0</ele><time>2026-03-15T18:20:10Z</time></trkpt><trkpt lat="45.57588610286096" lon="9.398860436508484"><ele>167.0</ele><time>2026-03-15T18:20:11Z</time></trkpt><trkpt lat="45.57581380354622" lon="9.39847836414552"><ele>165.5</ele><time>2026-03-15T18:20:12Z</time></trkpt><trkpt lat="45.57573833667573" lon="9.398100339566074"><ele>164.0</ele><time>2026-03-15T18:20:13Z</time></trkpt><trkpt lat="45.57566399637385" lon="9.397721551578597"><ele>164.0</ele><time>2026-03-15T18:20:14Z</time></trkpt><trkpt lat="45.575593213430935" lon="9.397349966695133"><ele>164.0</ele><time>2026-03-15T18:20:15Z</time></trkpt><trkpt lat="45.5755199451711" lon="9.396981140497637"><ele>163.5</ele><time>2026-03-15T18:20:16Z</time></trkpt><trkpt lat="45.57544894006071" lon="9.396618438780692"><ele>163.0</ele><time>2026-03-15T18:20:17Z</time></trkpt><trkpt lat="45.5753775074823" lon="9.396252346583633"><ele>163.5</ele><time>2026-03-15T18:20:18Z</time></trkpt><trkpt lat="45.57530873902272" lon="9.395889887904962"><ele>164.0</ele><time>2026-03-15T18:20:19Z</time></trkpt><trkpt lat="45.57524097029666" lon="9.395530537270599"><ele>163.5</ele><time>2026-03-15T18:20:20Z</time></trkpt><trkpt lat="45.57517293971222" lon="9.39517146605846"><ele>163.0</ele><time>2026-03-15T18:20:21Z</time></trkpt><trkpt lat="45.575107439922895" lon="9.394816391435068"><ele>163.0</ele><time>2026-03-15T18:20:22Z</time></trkpt><trkpt lat="45.575043262469755" lon="9.394471297758697"><ele>163.0</ele><time>2026-03-15T18:20:23Z</time></trkpt><trkpt lat="45.57497712365304" lon="9.39412516890623"><ele>162.5</ele><time>2026-03-15T18:20:24Z</time></trkpt><trkpt lat="45.57491063347667" lon="9.393779167435198"><ele>162.0</ele><time>2026-03-15T18:20:25Z</time></trkpt><trkpt lat="45.57484347964473" lon="9.39343128653843"><ele>162.0</ele><time>2026-03-15T18:20:26Z</time></trkpt><trkpt lat="45.574776257063874" lon="9.39308442644376"><ele>162.0</ele><time>2026-03-15T18:20:27Z</time></trkpt><trkpt lat="45.574709499356366" lon="9.392737354516074"><ele>162.0</ele><time>2026-03-15T18:20:28Z</time></trkpt><trkpt lat="45.574639698014664" lon="9.392382365223488"><ele>162.0</ele><time>2026-03-15T18:20:29Z</time></trkpt><trkpt lat="45.57457260598237" lon="9.392027851540957"><ele>162.5</ele><time>2026-03-15T18:20:30Z</time></trkpt><trkpt lat="45.57450615682424" lon="9.391672751109628"><ele>163.0</ele><time>2026-03-15T18:20:31Z</time></trkpt><trkpt lat="45.5744413033766" lon="9.391314109426435"><ele>163.0</ele><time>2026-03-15T18:20:32Z</time></trkpt><trkpt lat="45.574376438833056" lon="9.390953240358721"><ele>163.0</ele><time>2026-03-15T18:20:33Z</time></trkpt><trkpt lat="45.57431951795696" lon="9.390590588199148"><ele>163.0</ele><time>2026-03-15T18:20:34Z</time></trkpt><trkpt lat="45.57426623384454" lon="9.390229134901249"><ele>163.0</ele><time>2026-03-15T18:20:35Z</time></trkpt><trkpt lat="45.574213466514095" lon="9.389864864271235"><ele>163.5</ele><time>2026-03-15T18:20:36Z</time></trkpt><trkpt lat="45.574162983248385" lon="9.389500696255697"><ele>164.0</ele><time>2026-03-15T18:20:37Z</time></trkpt><trkpt lat="45.57411056284679" lon="9.389136645925698"><ele>163.0</ele><time>2026-03-15T18:20:38Z</time></trkpt><trkpt lat="45.5740584553009" lon="9.388771010066147"><ele>162.0</ele><time>2026-03-15T18:20:39Z</time></trkpt><trkpt lat="45.5740089626852" lon="9.388410558097679"><ele>162.0</ele><time>2026-03-15T18:20:39.999Z</time></trkpt><trkpt lat="45.57395634093351" lon="9.388049669124513"><ele>162.0</ele><time>2026-03-15T18:20:40.999Z</time></trkpt><trkpt lat="45.57390136931819" lon="9.387688520585474"><ele>162.0</ele><time>2026-03-15T18:20:41.999Z</time></trkpt><trkpt lat="45.57384941476767" lon="9.387329181626585"><ele>162.0</ele><time>2026-03-15T18:20:42.999Z</time></trkpt><trkpt lat="45.57379547801097" lon="9.386966939702699"><ele>161.5</ele><time>2026-03-15T18:20:43.999Z</time></trkpt><trkpt lat="45.57374387739685" lon="9.386605109553171"><ele>161.0</ele><time>2026-03-15T18:20:44.999Z</time></trkpt><trkpt lat="45.57369535878046" lon="9.386242238824309"><ele>161.0</ele><time>2026-03-15T18:20:45.999Z</time></trkpt><trkpt lat="45.573646395271524" lon="9.385878171731987"><ele>161.0</ele><time>2026-03-15T18:20:46.999Z</time></trkpt><trkpt lat="45.57359682562686" lon="9.385513359464612"><ele>162.5</ele><time>2026-03-15T18:20:47.999Z</time></trkpt><trkpt lat="45.57354263543778" lon="9.385148059713652"><ele>164.0</ele><time>2026-03-15T18:20:48.999Z</time></trkpt><trkpt lat="45.57348889684216" lon="9.38478625651985"><ele>164.0</ele><time>2026-03-15T18:20:49.999Z</time></trkpt><trkpt lat="45.57343089999751" lon="9.384423591234796"><ele>164.0</ele><time>2026-03-15T18:20:50.999Z</time></trkpt><trkpt lat="45.57337380436501" lon="9.384060458505733"><ele>162.0</ele><time>2026-03-15T18:20:51.999Z</time></trkpt><trkpt lat="45.573317289477885" lon="9.383698120167134"><ele>160.0</ele><time>2026-03-15T18:20:52.999Z</time></trkpt><trkpt lat="45.573261288212315" lon="9.383336154832143"><ele>160.5</ele><time>2026-03-15T18:20:53.999Z</time></trkpt><trkpt lat="45.573210384485996" lon="9.38297570728373"><ele>161.0</ele><time>2026-03-15T18:20:54.999Z</time></trkpt><trkpt lat="45.573157912839235" lon="9.38261586501389"><ele>161.0</ele><time>2026-03-15T18:20:55.999Z</time></trkpt><trkpt lat="45.57310641337908" lon="9.382256785428016"><ele>161.0</ele><time>2026-03-15T18:20:56.999Z</time></trkpt><trkpt lat="45.57305558200103" lon="9.38189658481994"><ele>162.5</ele><time>2026-03-15T18:20:57.999Z</time></trkpt><trkpt lat="45.5730030378198" lon="9.381535383521626"><ele>164.0</ele><time>2026-03-15T18:20:58.999Z</time></trkpt><trkpt lat="45.57294931321369" lon="9.381175313606667"><ele>164.5</ele><time>2026-03-15T18:20:59.999Z</time></trkpt><trkpt lat="45.57289656207452" lon="9.380814726549358"><ele>165.0</ele><time>2026-03-15T18:21:00.999Z</time></trkpt><trkpt lat="45.57284267414624" lon="9.380456243219749"><ele>163.5</ele><time>2026-03-15T18:21:01.999Z</time></trkpt><trkpt lat="45.572787397910716" lon="9.380093044030847"><ele>162.0</ele><time>2026-03-15T18:21:02.999Z</time></trkpt><trkpt lat="45.572746722517465" lon="9.379731293533021"><ele>161.0</ele><time>2026-03-15T18:21:03.999Z</time></trkpt><trkpt lat="45.572687540098585" lon="9.37936946470292"><ele>160.0</ele><time>2026-03-15T18:21:04.999Z</time></trkpt><trkpt lat="45.57263605382434" lon="9.379009681046348"><ele>161.0</ele><time>2026-03-15T18:21:05.999Z</time></trkpt><trkpt lat="45.57258360205775" lon="9.378649357620175"><ele>162.0</ele><time>2026-03-15T18:21:06.999Z</time></trkpt><trkpt lat="45.57253023340101" lon="9.378289309021419"><ele>161.5</ele><time>2026-03-15T18:21:07.999Z</time></trkpt><trkpt lat="45.57247620501839" lon="9.377929377516871"><ele>161.0</ele><time>2026-03-15T18:21:08.999Z</time></trkpt><trkpt lat="45.57241996032175" lon="9.377569528156227"><ele>161.0</ele><time>2026-03-15T18:21:09.999Z</time></trkpt><trkpt lat="45.57236853939392" lon="9.37721250049217"><ele>161.0</ele><time>2026-03-15T18:21:10.999Z</time></trkpt><trkpt lat="45.572315156368205" lon="9.37685089497994"><ele>161.5</ele><time>2026-03-15T18:21:11.999Z</time></trkpt><trkpt lat="45.57226380338144" lon="9.376490024429808"><ele>162.0</ele><time>2026-03-15T18:21:12.999Z</time></trkpt><trkpt lat="45.572208667815666" lon="9.37612875810714"><ele>162.5</ele><time>2026-03-15T18:21:13.999Z</time></trkpt><trkpt lat="45.57215334800153" lon="9.375767872880417"><ele>163.0</ele><time>2026-03-15T18:21:14.999Z</time></trkpt><trkpt lat="45.57209765224136" lon="9.375406642799355"><ele>163.5</ele><time>2026-03-15T18:21:15.999Z</time></trkpt><trkpt lat="45.57204123265507" lon="9.375041322198593"><ele>164.0</ele><time>2026-03-15T18:21:16.999Z</time></trkpt><trkpt lat="45.57198690403662" lon="9.374681871183025"><ele>162.5</ele><time>2026-03-15T18:21:17.999Z</time></trkpt><trkpt lat="45.57193271250105" lon="9.37431713575262"><ele>161.0</ele><time>2026-03-15T18:21:18.999Z</time></trkpt><trkpt lat="45.571881958363" lon="9.373955761585568"><ele>162.0</ele><time>2026-03-15T18:21:19.999Z</time></trkpt><trkpt lat="45.571828730052154" lon="9.373591685663053"><ele>163.0</ele><time>2026-03-15T18:21:20.999Z</time></trkpt><trkpt lat="45.571775021557585" lon="9.373229314468803"><ele>163.5</ele><time>2026-03-15T18:21:21.999Z</time></trkpt><trkpt lat="45.57172097762948" lon="9.372864971780158"><ele>164.0</ele><time>2026-03-15T18:21:22.999Z</time></trkpt><trkpt lat="45.57166741685275" lon="9.37249945020013"><ele>163.5</ele><time>2026-03-15T18:21:23.999Z</time></trkpt><trkpt lat="45.57161420354346" lon="9.37214006881571"><ele>163.0</ele><time>2026-03-15T18:21:24.998Z</time></trkpt><trkpt lat="45.57155742548949" lon="9.371775666613436"><ele>163.0</ele><time>2026-03-15T18:21:25.998Z</time></trkpt><trkpt lat="45.5715034575873" lon="9.37144940400655"><ele>163.0</ele><time>2026-03-15T18:21:26.998Z</time></trkpt><trkpt lat="45.57144778681326" lon="9.37112856188596"><ele>163.5</ele><time>2026-03-15T18:21:27.998Z</time></trkpt><trkpt lat="45.57138976875123" lon="9.37079878747241"><ele>164.0</ele><time>2026-03-15T18:21:28.998Z</time></trkpt><trkpt lat="45.571329537001624" lon="9.37045117166188"><ele>164.0</ele><time>2026-03-15T18:21:29.998Z</time></trkpt><trkpt lat="45.57127147441878" lon="9.370099148217756"><ele>164.0</ele><time>2026-03-15T18:21:30.998Z</time></trkpt><trkpt lat="45.571213267766744" lon="9.369745136947728"><ele>164.0</ele><time>2026-03-15T18:21:31.998Z</time></trkpt><trkpt lat="45.57115406885866" lon="9.36938897196523"><ele>164.0</ele><time>2026-03-15T18:21:32.998Z</time></trkpt><trkpt lat="45.57109363645539" lon="9.369022226606694"><ele>163.5</ele><time>2026-03-15T18:21:33.998Z</time></trkpt><trkpt lat="45.57103478907578" lon="9.368658180888756"><ele>163.0</ele><time>2026-03-15T18:21:34.998Z</time></trkpt><trkpt lat="45.57097697870883" lon="9.368289227056328"><ele>163.5</ele><time>2026-03-15T18:21:35.998Z</time></trkpt><trkpt lat="45.57092170912686" lon="9.367921887924824"><ele>164.0</ele><time>2026-03-15T18:21:36.998Z</time></trkpt><trkpt lat="45.57086755060012" lon="9.36755254710333"><ele>164.5</ele><time>2026-03-15T18:21:37.998Z</time></trkpt><trkpt lat="45.57081440750389" lon="9.367186288924678"><ele>165.0</ele><time>2026-03-15T18:21:38.998Z</time></trkpt><trkpt lat="45.57076099647565" lon="9.366818968500771"><ele>165.0</ele><time>2026-03-15T18:21:39.998Z</time></trkpt><trkpt lat="45.57070788376577" lon="9.366455109435538"><ele>165.0</ele><time>2026-03-15T18:21:40.998Z</time></trkpt><trkpt lat="45.5706572404481" lon="9.366089627534636"><ele>165.5</ele><time>2026-03-15T18:21:41.998Z</time></trkpt><trkpt lat="45.57061393663166" lon="9.365725969014767"><ele>166.0</ele><time>2026-03-15T18:21:42.998Z</time></trkpt><trkpt lat="45.57057244633486" lon="9.365360789068536"><ele>165.0</ele><time>2026-03-15T18:21:43.998Z</time></trkpt><trkpt lat="45.57052660049742" lon="9.36499499037084"><ele>164.0</ele><time>2026-03-15T18:21:44.998Z</time></trkpt><trkpt lat="45.57047425287466" lon="9.364635158790417"><ele>164.0</ele><time>2026-03-15T18:21:45.998Z</time></trkpt><trkpt lat="45.570421163224985" lon="9.364273891283558"><ele>164.0</ele><time>2026-03-15T18:21:46.998Z</time></trkpt><trkpt lat="45.570365465402624" lon="9.363909942174315"><ele>163.0</ele><time>2026-03-15T18:21:47.998Z</time></trkpt><trkpt lat="45.570309037608716" lon="9.363547863582577"><ele>162.0</ele><time>2026-03-15T18:21:48.998Z</time></trkpt><trkpt lat="45.570253040967295" lon="9.36318262963694"><ele>162.0</ele><time>2026-03-15T18:21:49.998Z</time></trkpt><trkpt lat="45.57019863861757" lon="9.362819674585124"><ele>162.0</ele><time>2026-03-15T18:21:50.998Z</time></trkpt><trkpt lat="45.570144590750715" lon="9.362457736160241"><ele>161.0</ele><time>2026-03-15T18:21:51.998Z</time></trkpt><trkpt lat="45.570091080275155" lon="9.362090086859094"><ele>160.0</ele><time>2026-03-15T18:21:52.998Z</time></trkpt><trkpt lat="45.570038523115485" lon="9.361728648802627"><ele>160.0</ele><time>2026-03-15T18:21:53.998Z</time></trkpt><trkpt lat="45.56998740729585" lon="9.361365654614085"><ele>160.0</ele><time>2026-03-15T18:21:54.998Z</time></trkpt><trkpt lat="45.56993584248063" lon="9.361004892902939"><ele>160.0</ele><time>2026-03-15T18:21:55.998Z</time></trkpt><trkpt lat="45.56988289476658" lon="9.360640973819105"><ele>160.0</ele><time>2026-03-15T18:21:56.998Z</time></trkpt><trkpt lat="45.56982872860004" lon="9.360270760212272"><ele>160.5</ele><time>2026-03-15T18:21:57.998Z</time></trkpt><trkpt lat="45.569775148956104" lon="9.359907087425663"><ele>161.0</ele><time>2026-03-15T18:21:58.998Z</time></trkpt><trkpt lat="45.56971981740077" lon="9.359539823656858"><ele>161.0</ele><time>2026-03-15T18:21:59.998Z</time></trkpt><trkpt lat="45.56966415866743" lon="9.359171420642237"><ele>161.0</ele><time>2026-03-15T18:22:00.998Z</time></trkpt><trkpt lat="45.56961010506706" lon="9.358810295826833"><ele>161.0</ele><time>2026-03-15T18:22:01.998Z</time></trkpt><trkpt lat="45.56955759590613" lon="9.358452156464637"><ele>161.0</ele><time>2026-03-15T18:22:02.998Z</time></trkpt><trkpt lat="45.56950419308513" lon="9.358084296904373"><ele>159.5</ele><time>2026-03-15T18:22:03.998Z</time></trkpt><trkpt lat="45.569449357898236" lon="9.357715582563264"><ele>158.0</ele><time>2026-03-15T18:22:05Z</time></trkpt><trkpt lat="45.56939731790226" lon="9.357352691687773"><ele>158.5</ele><time>2026-03-15T18:22:06Z</time></trkpt><trkpt lat="45.56934321117005" lon="9.356989397754022"><ele>159.0</ele><time>2026-03-15T18:22:07Z</time></trkpt><trkpt lat="45.569288691968495" lon="9.356623582337852"><ele>159.5</ele><time>2026-03-15T18:22:08Z</time></trkpt><trkpt lat="45.5692327467463" lon="9.356259897090819"><ele>160.0</ele><time>2026-03-15T18:22:09Z</time></trkpt><trkpt lat="45.56917933806134" lon="9.355895616683545"><ele>160.5</ele><time>2026-03-15T18:22:10Z</time></trkpt><trkpt lat="45.56912509528361" lon="9.355528245844077"><ele>161.0</ele><time>2026-03-15T18:22:11Z</time></trkpt><trkpt lat="45.569071557431734" lon="9.355162675645484"><ele>161.0</ele><time>2026-03-15T18:22:12Z</time></trkpt><trkpt lat="45.5690209021573" lon="9.354798309420003"><ele>161.0</ele><time>2026-03-15T18:22:13Z</time></trkpt><trkpt lat="45.568965988466296" lon="9.35442423565051"><ele>161.5</ele><time>2026-03-15T18:22:14Z</time></trkpt><trkpt lat="45.568913258686436" lon="9.354061391108667"><ele>162.0</ele><time>2026-03-15T18:22:15Z</time></trkpt><trkpt lat="45.56885646943307" lon="9.353692583940258"><ele>162.0</ele><time>2026-03-15T18:22:16Z</time></trkpt><trkpt lat="45.56879483524838" lon="9.35333118240501"><ele>162.0</ele><time>2026-03-15T18:22:17Z</time></trkpt><trkpt lat="45.5687325715828" lon="9.352967626770038"><ele>160.5</ele><time>2026-03-15T18:22:18Z</time></trkpt><trkpt lat="45.568673180662124" lon="9.35260699299454"><ele>159.0</ele><time>2026-03-15T18:22:19Z</time></trkpt><trkpt lat="45.56861683001075" lon="9.35224261461658"><ele>159.5</ele><time>2026-03-15T18:22:20Z</time></trkpt><trkpt lat="45.56855862453457" lon="9.351876117153022"><ele>160.0</ele><time>2026-03-15T18:22:21Z</time></trkpt><trkpt lat="45.56850375587174" lon="9.35151141513384"><ele>160.5</ele><time>2026-03-15T18:22:22Z</time></trkpt><trkpt lat="45.56845116885017" lon="9.351147712656976"><ele>161.0</ele><time>2026-03-15T18:22:23Z</time></trkpt><trkpt lat="45.56839857282062" lon="9.350785270734844"><ele>161.5</ele><time>2026-03-15T18:22:24Z</time></trkpt><trkpt lat="45.56834655718234" lon="9.35041842768335"><ele>162.0</ele><time>2026-03-15T18:22:25Z</time></trkpt><trkpt lat="45.568296954611654" lon="9.350051713977814"><ele>161.0</ele><time>2026-03-15T18:22:26Z</time></trkpt><trkpt lat="45.568246972926595" lon="9.349682926504736"><ele>160.0</ele><time>2026-03-15T18:22:27Z</time></trkpt><trkpt lat="45.56820437888794" lon="9.349320731723301"><ele>160.0</ele><time>2026-03-15T18:22:28Z</time></trkpt><trkpt lat="45.568158740611864" lon="9.348951891193844"><ele>160.0</ele><time>2026-03-15T18:22:29Z</time></trkpt><trkpt lat="45.56811224347176" lon="9.348583693118368"><ele>160.0</ele><time>2026-03-15T18:22:30Z</time></trkpt><trkpt lat="45.56806849837361" lon="9.348218194424222"><ele>160.0</ele><time>2026-03-15T18:22:31Z</time></trkpt><trkpt lat="45.56802126340829" lon="9.3478523792499"><ele>160.0</ele><time>2026-03-15T18:22:32Z</time></trkpt><trkpt lat="45.56797598425373" lon="9.34748591291393"><ele>160.0</ele><time>2026-03-15T18:22:33Z</time></trkpt><trkpt lat="45.5679279615788" lon="9.347124052867594"><ele>160.0</ele><time>2026-03-15T18:22:34Z</time></trkpt><trkpt lat="45.56788213638411" lon="9.34675759744452"><ele>160.0</ele><time>2026-03-15T18:22:35Z</time></trkpt><trkpt lat="45.56783893291601" lon="9.346402359753261"><ele>159.0</ele><time>2026-03-15T18:22:36Z</time></trkpt><trkpt lat="45.567779562853005" lon="9.346027666458667"><ele>158.0</ele><time>2026-03-15T18:22:37Z</time></trkpt><trkpt lat="45.56772333999829" lon="9.345664393193667"><ele>157.5</ele><time>2026-03-15T18:22:37.999Z</time></trkpt><trkpt lat="45.56767104598185" lon="9.345304218047406"><ele>157.0</ele><time>2026-03-15T18:22:38.999Z</time></trkpt><trkpt lat="45.56761306725757" lon="9.344936383190936"><ele>156.5</ele><time>2026-03-15T18:22:39.999Z</time></trkpt><trkpt lat="45.567557181106174" lon="9.344570228189728"><ele>156.0</ele><time>2026-03-15T18:22:40.999Z</time></trkpt><trkpt lat="45.5675016484924" lon="9.344208302059114"><ele>156.0</ele><time>2026-03-15T18:22:41.999Z</time></trkpt><trkpt lat="45.56744609357163" lon="9.343845907699682"><ele>156.0</ele><time>2026-03-15T18:22:42.999Z</time></trkpt><trkpt lat="45.56739232570189" lon="9.343486740133192"><ele>156.0</ele><time>2026-03-15T18:22:43.999Z</time></trkpt><trkpt lat="45.56733689939865" lon="9.343120203582465"><ele>156.0</ele><time>2026-03-15T18:22:44.999Z</time></trkpt><trkpt lat="45.56728076553834" lon="9.34276753938249"><ele>156.0</ele><time>2026-03-15T18:22:45.999Z</time></trkpt><trkpt lat="45.56721752083524" lon="9.342405662147172"><ele>156.0</ele><time>2026-03-15T18:22:46.999Z</time></trkpt><trkpt lat="45.56715679194974" lon="9.342045555720192"><ele>156.0</ele><time>2026-03-15T18:22:47.999Z</time></trkpt><trkpt lat="45.56710104214552" lon="9.341687457947467"><ele>156.0</ele><time>2026-03-15T18:22:48.999Z</time></trkpt><trkpt lat="45.567049051069475" lon="9.341320678251565"><ele>157.0</ele><time>2026-03-15T18:22:49.999Z</time></trkpt><trkpt lat="45.566991729031024" lon="9.340954634438871"><ele>158.0</ele><time>2026-03-15T18:22:50.999Z</time></trkpt><trkpt lat="45.56693716602063" lon="9.340589649484457"><ele>158.0</ele><time>2026-03-15T18:22:51.999Z</time></trkpt><trkpt lat="45.566884876721424" lon="9.340220188777822"><ele>158.0</ele><time>2026-03-15T18:22:52.999Z</time></trkpt><trkpt lat="45.56683490954806" lon="9.339849917051215"><ele>157.5</ele><time>2026-03-15T18:22:53.999Z</time></trkpt><trkpt lat="45.56679059131556" lon="9.339484294836604"><ele>157.0</ele><time>2026-03-15T18:22:54.999Z</time></trkpt><trkpt lat="45.56674909917002" lon="9.339118661401201"><ele>157.0</ele><time>2026-03-15T18:22:55.999Z</time></trkpt><trkpt lat="45.566702128286764" lon="9.338751628113792"><ele>157.0</ele><time>2026-03-15T18:22:56.999Z</time></trkpt><trkpt lat="45.566648115765524" lon="9.338387838263458"><ele>157.5</ele><time>2026-03-15T18:22:57.999Z</time></trkpt><trkpt lat="45.5665900871304" lon="9.338020164458152"><ele>158.0</ele><time>2026-03-15T18:22:58.999Z</time></trkpt><trkpt lat="45.566535871452956" lon="9.337655282761505"><ele>158.0</ele><time>2026-03-15T18:22:59.999Z</time></trkpt><trkpt lat="45.56648148861994" lon="9.337285907495069"><ele>158.0</ele><time>2026-03-15T18:23:00.999Z</time></trkpt><trkpt lat="45.56642563239358" lon="9.336923254087313"><ele>158.0</ele><time>2026-03-15T18:23:01.998Z</time></trkpt><trkpt lat="45.56637071270808" lon="9.336555287038177"><ele>158.0</ele><time>2026-03-15T18:23:02.998Z</time></trkpt><trkpt lat="45.566319456097126" lon="9.336188718220214"><ele>158.0</ele><time>2026-03-15T18:23:03.998Z</time></trkpt><trkpt lat="45.566261386835244" lon="9.335814447182548"><ele>158.0</ele><time>2026-03-15T18:23:04.998Z</time></trkpt><trkpt lat="45.56620820664958" lon="9.335456313893904"><ele>158.5</ele><time>2026-03-15T18:23:05.998Z</time></trkpt><trkpt lat="45.56616368996844" lon="9.335093177076612"><ele>159.0</ele><time>2026-03-15T18:23:06.998Z</time></trkpt><trkpt lat="45.566104789206655" lon="9.334728056075837"><ele>159.0</ele><time>2026-03-15T18:23:07.998Z</time></trkpt><trkpt lat="45.56605091402292" lon="9.33436343872525"><ele>159.0</ele><time>2026-03-15T18:23:08.998Z</time></trkpt><trkpt lat="45.56599814049827" lon="9.333995411360284"><ele>157.5</ele><time>2026-03-15T18:23:09.998Z</time></trkpt><trkpt lat="45.56594606038519" lon="9.333631342525726"><ele>156.0</ele><time>2026-03-15T18:23:10.998Z</time></trkpt><trkpt lat="45.565892459364306" lon="9.333270057079256"><ele>156.0</ele><time>2026-03-15T18:23:11.998Z</time></trkpt><trkpt lat="45.56584014007673" lon="9.332904436820426"><ele>156.0</ele><time>2026-03-15T18:23:12.998Z</time></trkpt><trkpt lat="45.565787324049246" lon="9.332545253019445"><ele>156.5</ele><time>2026-03-15T18:23:13.998Z</time></trkpt><trkpt lat="45.56573370161003" lon="9.332177622307693"><ele>157.0</ele><time>2026-03-15T18:23:14.998Z</time></trkpt><trkpt lat="45.56567881056794" lon="9.331816865921482"><ele>157.0</ele><time>2026-03-15T18:23:15.998Z</time></trkpt><trkpt lat="45.565624792153145" lon="9.33145558706653"><ele>157.0</ele><time>2026-03-15T18:23:16.998Z</time></trkpt><trkpt lat="45.565572877653025" lon="9.331097579028567"><ele>155.5</ele><time>2026-03-15T18:23:17.998Z</time></trkpt><trkpt lat="45.56551833407969" lon="9.330725929565396"><ele>154.0</ele><time>2026-03-15T18:23:18.998Z</time></trkpt><trkpt lat="45.56546439942084" lon="9.330363953044738"><ele>154.0</ele><time>2026-03-15T18:23:19.998Z</time></trkpt><trkpt lat="45.56540852448546" lon="9.329996345452278"><ele>154.0</ele><time>2026-03-15T18:23:20.998Z</time></trkpt><trkpt lat="45.565353896571466" lon="9.329633045790754"><ele>153.5</ele><time>2026-03-15T18:23:21.998Z</time></trkpt><trkpt lat="45.565299677815204" lon="9.329269082455838"><ele>153.0</ele><time>2026-03-15T18:23:22.998Z</time></trkpt><trkpt lat="45.56524607332032" lon="9.328902330008583"><ele>153.0</ele><time>2026-03-15T18:23:23.998Z</time></trkpt><trkpt lat="45.565191974450514" lon="9.328535430736913"><ele>153.0</ele><time>2026-03-15T18:23:24.998Z</time></trkpt><trkpt lat="45.56513729395704" lon="9.328168439621296"><ele>154.0</ele><time>2026-03-15T18:23:25.998Z</time></trkpt><trkpt lat="45.56508654899219" lon="9.327803869082114"><ele>155.0</ele><time>2026-03-15T18:23:26.998Z</time></trkpt><trkpt lat="45.565031823582885" lon="9.327434755128287"><ele>154.0</ele><time>2026-03-15T18:23:27.998Z</time></trkpt><trkpt lat="45.56497657312732" lon="9.32707352450187"><ele>153.0</ele><time>2026-03-15T18:23:28.998Z</time></trkpt><trkpt lat="45.56492095558568" lon="9.32670831114455"><ele>153.5</ele><time>2026-03-15T18:23:29.998Z</time></trkpt><trkpt lat="45.564868151276755" lon="9.326342929164941"><ele>154.0</ele><time>2026-03-15T18:23:30.998Z</time></trkpt><trkpt lat="45.56481409173741" lon="9.32597698971996"><ele>154.0</ele><time>2026-03-15T18:23:31.998Z</time></trkpt><trkpt lat="45.564758945214535" lon="9.325609139151021"><ele>154.0</ele><time>2026-03-15T18:23:32.998Z</time></trkpt><trkpt lat="45.56470487098947" lon="9.325244693720062"><ele>154.5</ele><time>2026-03-15T18:23:33.998Z</time></trkpt><trkpt lat="45.56464822532069" lon="9.324877344674452"><ele>155.0</ele><time>2026-03-15T18:23:34.998Z</time></trkpt><trkpt lat="45.56459520600003" lon="9.324515905926859"><ele>154.0</ele><time>2026-03-15T18:23:35.998Z</time></trkpt><trkpt lat="45.56454123741422" lon="9.324150353187598"><ele>153.0</ele><time>2026-03-15T18:23:36.998Z</time></trkpt><trkpt lat="45.56448820552648" lon="9.323786388554723"><ele>153.0</ele><time>2026-03-15T18:23:37.998Z</time></trkpt><trkpt lat="45.56443248808434" lon="9.323419980373066"><ele>153.0</ele><time>2026-03-15T18:23:38.998Z</time></trkpt><trkpt lat="45.56437828222505" lon="9.323057602297332"><ele>153.0</ele><time>2026-03-15T18:23:39.998Z</time></trkpt><trkpt lat="45.56432066026506" lon="9.32269470487588"><ele>153.0</ele><time>2026-03-15T18:23:40.998Z</time></trkpt><trkpt lat="45.564269147124165" lon="9.322332483636334"><ele>152.5</ele><time>2026-03-15T18:23:41.998Z</time></trkpt><trkpt lat="45.56420901618745" lon="9.321968391674842"><ele>152.0</ele><time>2026-03-15T18:23:42.998Z</time></trkpt><trkpt lat="45.56415589636932" lon="9.32160214182273"><ele>152.5</ele><time>2026-03-15T18:23:43.998Z</time></trkpt><trkpt lat="45.56410289024324" lon="9.32123412544283"><ele>153.0</ele><time>2026-03-15T18:23:44.998Z</time></trkpt><trkpt lat="45.564053241969106" lon="9.320871013504675"><ele>153.0</ele><time>2026-03-15T18:23:45.998Z</time></trkpt><trkpt lat="45.563999321156366" lon="9.320503400520481"><ele>153.0</ele><time>2026-03-15T18:23:46.997Z</time></trkpt><trkpt lat="45.56394819737601" lon="9.320141536901575"><ele>153.0</ele><time>2026-03-15T18:23:47.997Z</time></trkpt><trkpt lat="45.56389196176647" lon="9.319773777712344"><ele>153.0</ele><time>2026-03-15T18:23:48.997Z</time></trkpt><trkpt lat="45.56383970247491" lon="9.319413108751116"><ele>153.0</ele><time>2026-03-15T18:23:49.997Z</time></trkpt><trkpt lat="45.56378278264903" lon="9.319045675395158"><ele>153.0</ele><time>2026-03-15T18:23:50.997Z</time></trkpt><trkpt lat="45.56373025671231" lon="9.318680444546812"><ele>153.0</ele><time>2026-03-15T18:23:51.997Z</time></trkpt><trkpt lat="45.5636758762139" lon="9.318317329488634"><ele>153.0</ele><time>2026-03-15T18:23:52.997Z</time></trkpt><trkpt lat="45.56362274024512" lon="9.317954449099327"><ele>152.5</ele><time>2026-03-15T18:23:53.997Z</time></trkpt><trkpt lat="45.563567356569315" lon="9.317589583033751"><ele>152.0</ele><time>2026-03-15T18:23:54.997Z</time></trkpt><trkpt lat="45.56351571770363" lon="9.317228351350048"><ele>151.0</ele><time>2026-03-15T18:23:55.997Z</time></trkpt><trkpt lat="45.56346035767121" lon="9.316865310989824"><ele>150.0</ele><time>2026-03-15T18:23:56.997Z</time></trkpt><trkpt lat="45.563403654594595" lon="9.316501108820319"><ele>151.0</ele><time>2026-03-15T18:23:57.997Z</time></trkpt><trkpt lat="45.56335180017636" lon="9.316137034653105"><ele>152.0</ele><time>2026-03-15T18:23:58.997Z</time></trkpt><trkpt lat="45.56329744722293" lon="9.315775059366198"><ele>151.0</ele><time>2026-03-15T18:23:59.997Z</time></trkpt><trkpt lat="45.56324181695343" lon="9.3154085345316"><ele>150.0</ele><time>2026-03-15T18:24:00.997Z</time></trkpt><trkpt lat="45.56318715386041" lon="9.315041843572352"><ele>149.5</ele><time>2026-03-15T18:24:01.997Z</time></trkpt><trkpt lat="45.56313298599898" lon="9.314673611777481"><ele>149.0</ele><time>2026-03-15T18:24:02.997Z</time></trkpt><trkpt lat="45.56308215796392" lon="9.31430531382978"><ele>149.0</ele><time>2026-03-15T18:24:03.997Z</time></trkpt><trkpt lat="45.563033024416704" lon="9.313938385417904"><ele>149.0</ele><time>2026-03-15T18:24:04.997Z</time></trkpt><trkpt lat="45.562980912889785" lon="9.313570140100394"><ele>149.5</ele><time>2026-03-15T18:24:05.997Z</time></trkpt><trkpt lat="45.562928043411915" lon="9.313200895188968"><ele>150.0</ele><time>2026-03-15T18:24:06.997Z</time></trkpt><trkpt lat="45.56287528381379" lon="9.312838419343242"><ele>151.5</ele><time>2026-03-15T18:24:07.997Z</time></trkpt><trkpt lat="45.562820144425174" lon="9.31247072520593"><ele>153.0</ele><time>2026-03-15T18:24:08.997Z</time></trkpt><trkpt lat="45.56276663967682" lon="9.312103894761963"><ele>153.0</ele><time>2026-03-15T18:24:10Z</time></trkpt><trkpt lat="45.56271710880905" lon="9.311743311006406"><ele>153.0</ele><time>2026-03-15T18:24:11Z</time></trkpt><trkpt lat="45.562662702897015" lon="9.31137921955259"><ele>152.5</ele><time>2026-03-15T18:24:12Z</time></trkpt><trkpt lat="45.56260875600137" lon="9.311017788448732"><ele>152.0</ele><time>2026-03-15T18:24:13Z</time></trkpt><trkpt lat="45.56255004737467" lon="9.310657874288509"><ele>151.0</ele><time>2026-03-15T18:24:14Z</time></trkpt><trkpt lat="45.562488016739366" lon="9.310299227168754"><ele>150.0</ele><time>2026-03-15T18:24:15Z</time></trkpt><trkpt lat="45.56242613497155" lon="9.30994365671337"><ele>150.5</ele><time>2026-03-15T18:24:16Z</time></trkpt><trkpt lat="45.562374668727706" lon="9.30958955438709"><ele>151.0</ele><time>2026-03-15T18:24:17Z</time></trkpt><trkpt lat="45.56232215627906" lon="9.309260547603728"><ele>151.0</ele><time>2026-03-15T18:24:18Z</time></trkpt><trkpt lat="45.56226967879372" lon="9.308926245746706"><ele>151.0</ele><time>2026-03-15T18:24:19Z</time></trkpt><trkpt lat="45.562218191898296" lon="9.30858445805607"><ele>151.5</ele><time>2026-03-15T18:24:20Z</time></trkpt><trkpt lat="45.562163301785674" lon="9.30823757063886"><ele>152.0</ele><time>2026-03-15T18:24:21Z</time></trkpt><trkpt lat="45.56211278850437" lon="9.307891132320838"><ele>151.66666666666666</ele><time>2026-03-15T18:24:22Z</time></trkpt><trkpt lat="45.56206770007041" lon="9.307569699380151"><ele>151.33333333333334</ele><time>2026-03-15T18:24:23Z</time></trkpt><trkpt lat="45.562022465865375" lon="9.307263938273845"><ele>151.0</ele><time>2026-03-15T18:24:24Z</time></trkpt><trkpt lat="45.561975936093134" lon="9.306958560495264"><ele>150.66666666666669</ele><time>2026-03-15T18:24:25Z</time></trkpt><trkpt lat="45.561928279344095" lon="9.306644512757215"><ele>150.33333333333334</ele><time>2026-03-15T18:24:26Z</time></trkpt><trkpt lat="45.561884250630555" lon="9.306351876489725"><ele>150.0</ele><time>2026-03-15T18:24:27Z</time></trkpt><trkpt lat="45.561841374881304" lon="9.306062077204999"><ele>150.0</ele><time>2026-03-15T18:24:28Z</time></trkpt><trkpt lat="45.561798365679934" lon="9.305761477529247"><ele>150.0</ele><time>2026-03-15T18:24:29Z</time></trkpt><trkpt lat="45.56175425645202" lon="9.305455402324348"><ele>150.0</ele><time>2026-03-15T18:24:30Z</time></trkpt><trkpt lat="45.56170812440966" lon="9.305147260071921"><ele>150.5</ele><time>2026-03-15T18:24:31Z</time></trkpt><trkpt lat="45.56165631126763" lon="9.304823356543961"><ele>151.0</ele><time>2026-03-15T18:24:32Z</time></trkpt><trkpt lat="45.56158944048656" lon="9.304452801584663"><ele>151.5</ele><time>2026-03-15T18:24:33Z</time></trkpt><trkpt lat="45.561523349322755" lon="9.304075058220064"><ele>152.0</ele><time>2026-03-15T18:24:34Z</time></trkpt><trkpt lat="45.56147188941158" lon="9.303735384461255"><ele>152.5</ele><time>2026-03-15T18:24:35Z</time></trkpt><trkpt lat="45.561424390186914" lon="9.303407371612256"><ele>153.0</ele><time>2026-03-15T18:24:36Z</time></trkpt><trkpt lat="45.56137756656718" lon="9.303088089382886"><ele>152.5</ele><time>2026-03-15T18:24:36.999Z</time></trkpt><trkpt lat="45.56132655837207" lon="9.302770096030468"><ele>152.0</ele><time>2026-03-15T18:24:37.999Z</time></trkpt><trkpt lat="45.56127023873745" lon="9.302434649509513"><ele>150.0</ele><time>2026-03-15T18:24:38.999Z</time></trkpt><trkpt lat="45.56120913157044" lon="9.302066420222488"><ele>148.0</ele><time>2026-03-15T18:24:39.999Z</time></trkpt><trkpt lat="45.56114594575002" lon="9.301661249648253"><ele>148.5</ele><time>2026-03-15T18:24:40.999Z</time></trkpt><trkpt lat="45.561088028220446" lon="9.301240217521013"><ele>149.0</ele><time>2026-03-15T18:24:41.999Z</time></trkpt><trkpt lat="45.56103404531656" lon="9.30081713141449"><ele>149.0</ele><time>2026-03-15T18:24:42.999Z</time></trkpt><trkpt lat="45.560978581016904" lon="9.30039863626788"><ele>149.0</ele><time>2026-03-15T18:24:43.999Z</time></trkpt><trkpt lat="45.56091972290851" lon="9.299981507505217"><ele>150.5</ele><time>2026-03-15T18:24:44.999Z</time></trkpt><trkpt lat="45.5608614152388" lon="9.299600174296929"><ele>152.0</ele><time>2026-03-15T18:24:45.999Z</time></trkpt><trkpt lat="45.5608037478542" lon="9.299233955608766"><ele>152.5</ele><time>2026-03-15T18:24:46.999Z</time></trkpt><trkpt lat="45.560745679809074" lon="9.298879683929767"><ele>153.0</ele><time>2026-03-15T18:24:47.999Z</time></trkpt><trkpt lat="45.560687542004665" lon="9.29852235007575"><ele>153.0</ele><time>2026-03-15T18:24:48.999Z</time></trkpt><trkpt lat="45.56063258665933" lon="9.298168143037401"><ele>153.0</ele><time>2026-03-15T18:24:49.999Z</time></trkpt><trkpt lat="45.56058000129173" lon="9.297808154447312"><ele>152.0</ele><time>2026-03-15T18:24:50.999Z</time></trkpt><trkpt lat="45.56052839267817" lon="9.297453142377941"><ele>151.0</ele><time>2026-03-15T18:24:51.999Z</time></trkpt><trkpt lat="45.5604748276263" lon="9.297094454326146"><ele>151.0</ele><time>2026-03-15T18:24:52.999Z</time></trkpt><trkpt lat="45.56042107417694" lon="9.296744353101552"><ele>151.0</ele><time>2026-03-15T18:24:53.999Z</time></trkpt><trkpt lat="45.56036705591462" lon="9.296393217323969"><ele>150.0</ele><time>2026-03-15T18:24:54.999Z</time></trkpt><trkpt lat="45.560312934607325" lon="9.296034284150409"><ele>149.0</ele><time>2026-03-15T18:24:55.999Z</time></trkpt><trkpt lat="45.56025992849307" lon="9.295678319945466"><ele>148.0</ele><time>2026-03-15T18:24:56.999Z</time></trkpt><trkpt lat="45.56020974035955" lon="9.295320081349791"><ele>147.0</ele><time>2026-03-15T18:24:57.999Z</time></trkpt><trkpt lat="45.56016139455163" lon="9.294957622195078"><ele>147.0</ele><time>2026-03-15T18:24:58.999Z</time></trkpt><trkpt lat="45.56011594940033" lon="9.294597074847381"><ele>147.0</ele><time>2026-03-15T18:24:59.999Z</time></trkpt><trkpt lat="45.560065909761356" lon="9.294235619185098"><ele>147.0</ele><time>2026-03-15T18:25:00.999Z</time></trkpt><trkpt lat="45.56001345882387" lon="9.29387777889374"><ele>147.0</ele><time>2026-03-15T18:25:01.999Z</time></trkpt><trkpt lat="45.559956417255336" lon="9.293517558717863"><ele>147.0</ele><time>2026-03-15T18:25:02.999Z</time></trkpt><trkpt lat="45.55989828866416" lon="9.293149273573787"><ele>147.0</ele><time>2026-03-15T18:25:03.999Z</time></trkpt><trkpt lat="45.5598421700772" lon="9.292785371353862"><ele>146.5</ele><time>2026-03-15T18:25:04.999Z</time></trkpt><trkpt lat="45.559789611071196" lon="9.292425402100909"><ele>146.0</ele><time>2026-03-15T18:25:05.999Z</time></trkpt><trkpt lat="45.55973935389119" lon="9.292066400142529"><ele>147.5</ele><time>2026-03-15T18:25:06.999Z</time></trkpt><trkpt lat="45.55968768428515" lon="9.291705154315258"><ele>149.0</ele><time>2026-03-15T18:25:07.999Z</time></trkpt><trkpt lat="45.55963672634922" lon="9.291340374129788"><ele>149.5</ele><time>2026-03-15T18:25:08.999Z</time></trkpt><trkpt lat="45.559584372625665" lon="9.290981620006253"><ele>150.0</ele><time>2026-03-15T18:25:09.999Z</time></trkpt><trkpt lat="45.559529322341646" lon="9.29061877278391"><ele>150.0</ele><time>2026-03-15T18:25:10.999Z</time></trkpt><trkpt lat="45.55947700078758" lon="9.29026073836366"><ele>150.0</ele><time>2026-03-15T18:25:11.999Z</time></trkpt><trkpt lat="45.559420638689474" lon="9.289899919392894"><ele>148.0</ele><time>2026-03-15T18:25:12.999Z</time></trkpt><trkpt lat="45.5593660457369" lon="9.289538017136412"><ele>146.0</ele><time>2026-03-15T18:25:13.999Z</time></trkpt><trkpt lat="45.559313378687484" lon="9.289174797071174"><ele>145.5</ele><time>2026-03-15T18:25:14.999Z</time></trkpt><trkpt lat="45.55926160331921" lon="9.288815076541862"><ele>145.0</ele><time>2026-03-15T18:25:15.999Z</time></trkpt><trkpt lat="45.55920517493177" lon="9.288451908798631"><ele>146.0</ele><time>2026-03-15T18:25:16.999Z</time></trkpt><trkpt lat="45.55915045136362" lon="9.288091915009565"><ele>147.0</ele><time>2026-03-15T18:25:17.999Z</time></trkpt><trkpt lat="45.55909756814084" lon="9.287732444352185"><ele>147.0</ele><time>2026-03-15T18:25:18.999Z</time></trkpt><trkpt lat="45.55904494902164" lon="9.287372312854274"><ele>147.0</ele><time>2026-03-15T18:25:19.999Z</time></trkpt><trkpt lat="45.55899325272414" lon="9.287010336802497"><ele>148.0</ele><time>2026-03-15T18:25:20.999Z</time></trkpt><trkpt lat="45.55894281490947" lon="9.2866474541844"><ele>149.0</ele><time>2026-03-15T18:25:21.998Z</time></trkpt><trkpt lat="45.558890335256955" lon="9.286284219394133"><ele>149.5</ele><time>2026-03-15T18:25:22.998Z</time></trkpt><trkpt lat="45.5588340724623" lon="9.285920072988997"><ele>150.0</ele><time>2026-03-15T18:25:23.998Z</time></trkpt><trkpt lat="45.558780492843" lon="9.285561374548537"><ele>149.5</ele><time>2026-03-15T18:25:24.998Z</time></trkpt><trkpt lat="45.558725433350155" lon="9.285199515836926"><ele>149.0</ele><time>2026-03-15T18:25:25.998Z</time></trkpt><trkpt lat="45.55867289963287" lon="9.284836996967003"><ele>148.5</ele><time>2026-03-15T18:25:26.998Z</time></trkpt><trkpt lat="45.558620881784535" lon="9.284472905210627"><ele>148.0</ele><time>2026-03-15T18:25:27.998Z</time></trkpt><trkpt lat="45.55857005716762" lon="9.284111000062984"><ele>147.5</ele><time>2026-03-15T18:25:28.998Z</time></trkpt><trkpt lat="45.55851873834375" lon="9.28375012216851"><ele>147.0</ele><time>2026-03-15T18:25:29.998Z</time></trkpt><trkpt lat="45.558464720447375" lon="9.283387983881383"><ele>146.5</ele><time>2026-03-15T18:25:30.998Z</time></trkpt><trkpt lat="45.55841245797513" lon="9.283029188372216"><ele>146.0</ele><time>2026-03-15T18:25:31.998Z</time></trkpt><trkpt lat="45.55835629072228" lon="9.282665772110986"><ele>146.0</ele><time>2026-03-15T18:25:32.998Z</time></trkpt><trkpt lat="45.558300993337085" lon="9.282308776570927"><ele>146.0</ele><time>2026-03-15T18:25:33.998Z</time></trkpt><trkpt lat="45.558250576877334" lon="9.281945577590797"><ele>146.0</ele><time>2026-03-15T18:25:34.998Z</time></trkpt><trkpt lat="45.55819339201441" lon="9.28157961968869"><ele>146.0</ele><time>2026-03-15T18:25:35.998Z</time></trkpt><trkpt lat="45.558139016238144" lon="9.281220992678698"><ele>145.5</ele><time>2026-03-15T18:25:36.998Z</time></trkpt><trkpt lat="45.55808571545" lon="9.280861940925353"><ele>145.0</ele><time>2026-03-15T18:25:37.998Z</time></trkpt><trkpt lat="45.55803012611568" lon="9.280497752003189"><ele>145.0</ele><time>2026-03-15T18:25:38.998Z</time></trkpt><trkpt lat="45.55797868396254" lon="9.28014187288618"><ele>145.0</ele><time>2026-03-15T18:25:39.998Z</time></trkpt><trkpt lat="45.55792271068956" lon="9.279779142303672"><ele>145.0</ele><time>2026-03-15T18:25:40.998Z</time></trkpt><trkpt lat="45.55786813932032" lon="9.279422727831665"><ele>145.0</ele><time>2026-03-15T18:25:41.998Z</time></trkpt><trkpt lat="45.55781214743137" lon="9.279058438993015"><ele>145.0</ele><time>2026-03-15T18:25:42.998Z</time></trkpt><trkpt lat="45.55775988487973" lon="9.278709455033097"><ele>145.0</ele><time>2026-03-15T18:25:43.998Z</time></trkpt><trkpt lat="45.55771024299838" lon="9.278387272432488"><ele>145.5</ele><time>2026-03-15T18:25:44.998Z</time></trkpt><trkpt lat="45.557668373090245" lon="9.278076287724852"><ele>146.0</ele><time>2026-03-15T18:25:45.998Z</time></trkpt><trkpt lat="45.557620517870376" lon="9.277757864549262"><ele>146.0</ele><time>2026-03-15T18:25:46.998Z</time></trkpt><trkpt lat="45.55757514976852" lon="9.277451412522838"><ele>146.0</ele><time>2026-03-15T18:25:47.998Z</time></trkpt><trkpt lat="45.55752382139101" lon="9.27713887191049"><ele>146.0</ele><time>2026-03-15T18:25:48.998Z</time></trkpt><trkpt lat="45.55747499913356" lon="9.276833781304337"><ele>146.0</ele><time>2026-03-15T18:25:49.998Z</time></trkpt><trkpt lat="45.557425051038486" lon="9.2765210339294"><ele>146.0</ele><time>2026-03-15T18:25:50.998Z</time></trkpt><trkpt lat="45.55738192789482" lon="9.276219076587045"><ele>146.0</ele><time>2026-03-15T18:25:51.998Z</time></trkpt><trkpt lat="45.55733965160532" lon="9.275910405063295"><ele>146.0</ele><time>2026-03-15T18:25:52.998Z</time></trkpt><trkpt lat="45.55729881651476" lon="9.275626078584915"><ele>146.0</ele><time>2026-03-15T18:25:53.998Z</time></trkpt><trkpt lat="45.55725291532251" lon="9.275333319567673"><ele>146.0</ele><time>2026-03-15T18:25:54.998Z</time></trkpt><trkpt lat="45.557208195801316" lon="9.275036693081695"><ele>147.0</ele><time>2026-03-15T18:25:55.998Z</time></trkpt><trkpt lat="45.55716529660017" lon="9.27473825321074"><ele>148.0</ele><time>2026-03-15T18:25:56.998Z</time></trkpt><trkpt lat="45.557121324273886" lon="9.274427401827404"><ele>149.0</ele><time>2026-03-15T18:25:57.998Z</time></trkpt><trkpt lat="45.55707962456737" lon="9.274127590663142"><ele>148.66666666666666</ele><time>2026-03-15T18:25:58.998Z</time></trkpt><trkpt lat="45.55703833302435" lon="9.273823183301618"><ele>148.33333333333334</ele><time>2026-03-15T18:25:59.998Z</time></trkpt><trkpt lat="45.55699525587141" lon="9.273509538458486"><ele>148.0</ele><time>2026-03-15T18:26:00.998Z</time></trkpt><trkpt lat="45.55695346135169" lon="9.27321713887766"><ele>146.66666666666669</ele><time>2026-03-15T18:26:01.998Z</time></trkpt><trkpt lat="45.556911569983605" lon="9.272940118938877"><ele>145.33333333333334</ele><time>2026-03-15T18:26:02.998Z</time></trkpt><trkpt lat="45.55687011336784" lon="9.27266858166559"><ele>144.0</ele><time>2026-03-15T18:26:03.998Z</time></trkpt><trkpt lat="45.556829223769114" lon="9.272398565730173"><ele>144.0</ele><time>2026-03-15T18:26:04.998Z</time></trkpt><trkpt lat="45.5567891169189" lon="9.272133348034556"><ele>144.0</ele><time>2026-03-15T18:26:05.998Z</time></trkpt><trkpt lat="45.55675146484809" lon="9.27188461333746"><ele>144.0</ele><time>2026-03-15T18:26:06.997Z</time></trkpt><trkpt lat="45.556717791789765" lon="9.271657850233042"><ele>143.66666666666666</ele><time>2026-03-15T18:26:07.997Z</time></trkpt><trkpt lat="45.55668961622175" lon="9.271426019472443"><ele>143.33333333333331</ele><time>2026-03-15T18:26:08.997Z</time></trkpt><trkpt lat="45.55667594622125" lon="9.271182916308332"><ele>143.0</ele><time>2026-03-15T18:26:09.997Z</time></trkpt><trkpt lat="45.55667789001245" lon="9.270922969765568"><ele>143.0</ele><time>2026-03-15T18:26:10.997Z</time></trkpt><trkpt lat="45.55669182449803" lon="9.270667007395552"><ele>143.0</ele><time>2026-03-15T18:26:11.997Z</time></trkpt><trkpt lat="45.556717980188644" lon="9.270409499142952"><ele>143.0</ele><time>2026-03-15T18:26:12.997Z</time></trkpt><trkpt lat="45.556749948645326" lon="9.270179290499716"><ele>144.0</ele><time>2026-03-15T18:26:13.997Z</time></trkpt><trkpt lat="45.55678179050087" lon="9.269973776336595"><ele>145.0</ele><time>2026-03-15T18:26:14.997Z</time></trkpt><trkpt lat="45.556812167589456" lon="9.269787571236172"><ele>146.0</ele><time>2026-03-15T18:26:16Z</time></trkpt><trkpt lat="45.55696504531785" lon="9.269661891941528"><ele>146.25</ele><time>2026-03-15T18:26:17Z</time></trkpt><trkpt lat="45.556994079036315" lon="9.269503019433687"><ele>146.5</ele><time>2026-03-15T18:26:18Z</time></trkpt><trkpt lat="45.55702753128866" lon="9.269336737798962"><ele>146.75</ele><time>2026-03-15T18:26:19Z</time></trkpt><trkpt lat="45.55704855945733" lon="9.269131862939972"><ele>147.0</ele><time>2026-03-15T18:26:20Z</time></trkpt><trkpt lat="45.55702552194405" lon="9.268927224268642"><ele>146.66666666666666</ele><time>2026-03-15T18:26:21Z</time></trkpt><trkpt lat="45.5570077107666" lon="9.268795145711945"><ele>146.33333333333334</ele><time>2026-03-15T18:26:22Z</time></trkpt><trkpt lat="45.55699131177481" lon="9.268684585525687"><ele>146.0</ele><time>2026-03-15T18:26:23Z</time></trkpt><trkpt lat="45.55697486609308" lon="9.26858664808613"><ele>145.66666666666669</ele><time>2026-03-15T18:26:24Z</time></trkpt><trkpt lat="45.55694835082441" lon="9.268438689207077"><ele>145.33333333333334</ele><time>2026-03-15T18:26:26Z</time></trkpt><trkpt lat="45.55693114862966" lon="9.268347694417203"><ele>145.0</ele><time>2026-03-15T18:26:27Z</time></trkpt><trkpt lat="45.55691359519878" lon="9.268254841685966"><ele>145.0</ele><time>2026-03-15T18:26:28Z</time></trkpt><trkpt lat="45.55689215011788" lon="9.268141403340865"><ele>145.0</ele><time>2026-03-15T18:26:29Z</time></trkpt><trkpt lat="45.55686250682281" lon="9.267993494199294"><ele>145.0</ele><time>2026-03-15T18:26:30Z</time></trkpt><trkpt lat="45.55682904505136" lon="9.267838766264537"><ele>145.0</ele><time>2026-03-15T18:26:31Z</time></trkpt><trkpt lat="45.55676174571261" lon="9.26765149520677"><ele>145.0</ele><time>2026-03-15T18:26:32Z</time></trkpt><trkpt lat="45.556652394192106" lon="9.267501262283725"><ele>145.0</ele><time>2026-03-15T18:26:33Z</time></trkpt><trkpt lat="45.55653487157678" lon="9.267380360563187"><ele>145.0</ele><time>2026-03-15T18:26:34Z</time></trkpt><trkpt lat="45.55640380283951" lon="9.267299368819357"><ele>145.0</ele><time>2026-03-15T18:26:35Z</time></trkpt><trkpt lat="45.556286963308914" lon="9.267158926689074"><ele>146.0</ele><time>2026-03-15T18:26:36Z</time></trkpt><trkpt lat="45.55615048327202" lon="9.266973301806496"><ele>147.0</ele><time>2026-03-15T18:26:37Z</time></trkpt><trkpt lat="45.55607477498384" lon="9.266741549431593"><ele>148.0</ele><time>2026-03-15T18:26:38Z</time></trkpt><trkpt lat="45.55600275919022" lon="9.26649838648784"><ele>147.33333333333334</ele><time>2026-03-15T18:26:39Z</time></trkpt><trkpt lat="45.55592900390053" lon="9.266245289522871"><ele>146.66666666666666</ele><time>2026-03-15T18:26:40Z</time></trkpt><trkpt lat="45.555852779877455" lon="9.266000357197697"><ele>146.0</ele><time>2026-03-15T18:26:41Z</time></trkpt><trkpt lat="45.55578844250522" lon="9.265729722687972"><ele>145.66666666666666</ele><time>2026-03-15T18:26:42Z</time></trkpt><trkpt lat="45.555729256661756" lon="9.26547167350618"><ele>145.33333333333334</ele><time>2026-03-15T18:26:43Z</time></trkpt><trkpt lat="45.555684502254245" lon="9.265257316271763"><ele>145.0</ele><time>2026-03-15T18:26:44Z</time></trkpt><trkpt lat="45.55564520157042" lon="9.265004825846013"><ele>144.33333333333334</ele><time>2026-03-15T18:26:45Z</time></trkpt><trkpt lat="45.555599383510916" lon="9.264746312202623"><ele>143.66666666666666</ele><time>2026-03-15T18:26:46Z</time></trkpt><trkpt lat="45.55554137975413" lon="9.264445340943503"><ele>143.0</ele><time>2026-03-15T18:26:47Z</time></trkpt><trkpt lat="45.5554695699246" lon="9.264082246675075"><ele>143.0</ele><time>2026-03-15T18:26:48Z</time></trkpt><trkpt lat="45.55541381785837" lon="9.263762687549981"><ele>143.0</ele><time>2026-03-15T18:26:49Z</time></trkpt><trkpt lat="45.55537565635007" lon="9.263485629443432"><ele>143.0</ele><time>2026-03-15T18:26:50Z</time></trkpt><trkpt lat="45.55533367751924" lon="9.263233810562092"><ele>143.33333333333331</ele><time>2026-03-15T18:26:51Z</time></trkpt><trkpt lat="45.55528002589929" lon="9.262958036720066"><ele>143.66666666666666</ele><time>2026-03-15T18:26:52Z</time></trkpt><trkpt lat="45.555232536893364" lon="9.262697589968726"><ele>144.0</ele><time>2026-03-15T18:26:53Z</time></trkpt><trkpt lat="45.55519891574172" lon="9.262458247918877"><ele>144.33333333333334</ele><time>2026-03-15T18:26:54Z</time></trkpt><trkpt lat="45.555172205540735" lon="9.262205486870549"><ele>144.66666666666669</ele><time>2026-03-15T18:26:55Z</time></trkpt><trkpt lat="45.55513181672413" lon="9.261927879724906"><ele>145.0</ele><time>2026-03-15T18:26:56Z</time></trkpt><trkpt lat="45.55508417525696" lon="9.261651599170767"><ele>146.0</ele><time>2026-03-15T18:26:57Z</time></trkpt><trkpt lat="45.55504962095284" lon="9.261399645933036"><ele>147.0</ele><time>2026-03-15T18:26:58Z</time></trkpt><trkpt lat="45.555004504272944" lon="9.261137022833736"><ele>148.0</ele><time>2026-03-15T18:26:58.999Z</time></trkpt><trkpt lat="45.55497361129492" lon="9.260871302757225"><ele>148.0</ele><time>2026-03-15T18:26:59.999Z</time></trkpt><trkpt lat="45.55493071715693" lon="9.260599382784232"><ele>148.0</ele><time>2026-03-15T18:27:00.999Z</time></trkpt><trkpt lat="45.5548887609716" lon="9.2603204359516"><ele>148.0</ele><time>2026-03-15T18:27:01.999Z</time></trkpt><trkpt lat="45.55484128006151" lon="9.260033422970565"><ele>148.0</ele><time>2026-03-15T18:27:02.999Z</time></trkpt><trkpt lat="45.55480122939658" lon="9.25974104556831"><ele>148.0</ele><time>2026-03-15T18:27:03.999Z</time></trkpt><trkpt lat="45.554754614987075" lon="9.259445057917347"><ele>148.0</ele><time>2026-03-15T18:27:04.999Z</time></trkpt><trkpt lat="45.55470858584187" lon="9.259152026186882"><ele>148.0</ele><time>2026-03-15T18:27:05.999Z</time></trkpt><trkpt lat="45.55466566602243" lon="9.25884066951646"><ele>148.0</ele><time>2026-03-15T18:27:06.999Z</time></trkpt><trkpt lat="45.55461268935412" lon="9.258503947819722"><ele>148.0</ele><time>2026-03-15T18:27:07.999Z</time></trkpt><trkpt lat="45.55456599621133" lon="9.258160937315173"><ele>148.0</ele><time>2026-03-15T18:27:08.999Z</time></trkpt><trkpt lat="45.55452447599913" lon="9.257827348337408"><ele>147.5</ele><time>2026-03-15T18:27:09.999Z</time></trkpt><trkpt lat="45.55448634948647" lon="9.257506306076618"><ele>147.0</ele><time>2026-03-15T18:27:10.999Z</time></trkpt><trkpt lat="45.55443963524389" lon="9.257187756732508"><ele>147.0</ele><time>2026-03-15T18:27:11.999Z</time></trkpt><trkpt lat="45.554396408631185" lon="9.256879277901081"><ele>147.0</ele><time>2026-03-15T18:27:12.999Z</time></trkpt><trkpt lat="45.554355688688105" lon="9.256595373908263"><ele>147.0</ele><time>2026-03-15T18:27:13.999Z</time></trkpt><trkpt lat="45.55431652705701" lon="9.256334699773582"><ele>147.33333333333334</ele><time>2026-03-15T18:27:14.999Z</time></trkpt><trkpt lat="45.55427567818171" lon="9.256075937194447"><ele>147.66666666666669</ele><time>2026-03-15T18:27:15.999Z</time></trkpt><trkpt lat="45.554235859975044" lon="9.255821944528199"><ele>148.0</ele><time>2026-03-15T18:27:16.999Z</time></trkpt><trkpt lat="45.554196239734516" lon="9.255562572745893"><ele>148.0</ele><time>2026-03-15T18:27:17.999Z</time></trkpt><trkpt lat="45.554158271211556" lon="9.255302193677165"><ele>148.0</ele><time>2026-03-15T18:27:18.999Z</time></trkpt><trkpt lat="45.55412040383845" lon="9.255034005921237"><ele>148.0</ele><time>2026-03-15T18:27:19.999Z</time></trkpt><trkpt lat="45.55408397422545" lon="9.25477258153553"><ele>148.33333333333334</ele><time>2026-03-15T18:27:20.999Z</time></trkpt><trkpt lat="45.55404546447884" lon="9.254516561099786"><ele>148.66666666666666</ele><time>2026-03-15T18:27:21.999Z</time></trkpt><trkpt lat="45.5540049349256" lon="9.254261582227612"><ele>149.0</ele><time>2026-03-15T18:27:22.999Z</time></trkpt><trkpt lat="45.55396650083001" lon="9.254011105428363"><ele>148.66666666666666</ele><time>2026-03-15T18:27:23.999Z</time></trkpt><trkpt lat="45.55392994982084" lon="9.253753918586273"><ele>148.33333333333334</ele><time>2026-03-15T18:27:24.999Z</time></trkpt><trkpt lat="45.553891707091424" lon="9.253496219928332"><ele>148.0</ele><time>2026-03-15T18:27:25.999Z</time></trkpt><trkpt lat="45.55385857572256" lon="9.253249145012504"><ele>148.66666666666669</ele><time>2026-03-15T18:27:26.999Z</time></trkpt><trkpt lat="45.553820830362845" lon="9.252999917475618"><ele>149.33333333333334</ele><time>2026-03-15T18:27:27.999Z</time></trkpt><trkpt lat="45.55378333767867" lon="9.25274701391572"><ele>150.0</ele><time>2026-03-15T18:27:28.999Z</time></trkpt><trkpt lat="45.553747077914196" lon="9.252500905267544"><ele>150.0</ele><time>2026-03-15T18:27:29.999Z</time></trkpt><trkpt lat="45.553710498197354" lon="9.25225584562395"><ele>150.0</ele><time>2026-03-15T18:27:30.999Z</time></trkpt><trkpt lat="45.55367274227135" lon="9.252006796282222"><ele>150.0</ele><time>2026-03-15T18:27:31.999Z</time></trkpt><trkpt lat="45.55363793268315" lon="9.251760519632091"><ele>150.0</ele><time>2026-03-15T18:27:32.999Z</time></trkpt><trkpt lat="45.55359990895287" lon="9.251509415934263"><ele>150.0</ele><time>2026-03-15T18:27:33.999Z</time></trkpt><trkpt lat="45.55356128099568" lon="9.251271042815162"><ele>150.0</ele><time>2026-03-15T18:27:34.999Z</time></trkpt><trkpt lat="45.55352353521111" lon="9.251022629521303"><ele>150.33333333333334</ele><time>2026-03-15T18:27:35.999Z</time></trkpt><trkpt lat="45.553487776938006" lon="9.250782621916487"><ele>150.66666666666669</ele><time>2026-03-15T18:27:36.999Z</time></trkpt><trkpt lat="45.55344812782659" lon="9.250484105775628"><ele>151.0</ele><time>2026-03-15T18:27:37.999Z</time></trkpt><trkpt lat="45.55341172260851" lon="9.25016364902837"><ele>151.33333333333334</ele><time>2026-03-15T18:27:38.999Z</time></trkpt><trkpt lat="45.55337718794055" lon="9.249864346418937"><ele>151.66666666666666</ele><time>2026-03-15T18:27:39.999Z</time></trkpt><trkpt lat="45.553342357920386" lon="9.249590751998939"><ele>152.0</ele><time>2026-03-15T18:27:40.999Z</time></trkpt><trkpt lat="45.553300979080596" lon="9.24931163901113"><ele>152.0</ele><time>2026-03-15T18:27:41.999Z</time></trkpt><trkpt lat="45.55325593758969" lon="9.2490288523287"><ele>152.0</ele><time>2026-03-15T18:27:42.999Z</time></trkpt><trkpt lat="45.553207315017914" lon="9.248737778224433"><ele>152.0</ele><time>2026-03-15T18:27:43.998Z</time></trkpt><trkpt lat="45.55315647330959" lon="9.248425307602972"><ele>152.5</ele><time>2026-03-15T18:27:44.998Z</time></trkpt><trkpt lat="45.553104956000254" lon="9.248094268288432"><ele>153.0</ele><time>2026-03-15T18:27:45.998Z</time></trkpt><trkpt lat="45.55305306664326" lon="9.247764949934973"><ele>153.0</ele><time>2026-03-15T18:27:46.998Z</time></trkpt><trkpt lat="45.553005339603246" lon="9.247460389252248"><ele>153.0</ele><time>2026-03-15T18:27:47.998Z</time></trkpt><trkpt lat="45.5529605991319" lon="9.247162796896573"><ele>153.0</ele><time>2026-03-15T18:27:48.998Z</time></trkpt><trkpt lat="45.55291495604966" lon="9.246862486137555"><ele>152.0</ele><time>2026-03-15T18:27:49.998Z</time></trkpt><trkpt lat="45.552868358256006" lon="9.246558844170698"><ele>151.0</ele><time>2026-03-15T18:27:50.998Z</time></trkpt><trkpt lat="45.55282067173246" lon="9.246254985826504"><ele>150.0</ele><time>2026-03-15T18:27:51.998Z</time></trkpt><trkpt lat="45.5527749068157" lon="9.245952598012959"><ele>150.0</ele><time>2026-03-15T18:27:52.998Z</time></trkpt><trkpt lat="45.552728586241656" lon="9.245648339555707"><ele>150.0</ele><time>2026-03-15T18:27:53.998Z</time></trkpt><trkpt lat="45.552682554647475" lon="9.245341836288254"><ele>150.0</ele><time>2026-03-15T18:27:54.998Z</time></trkpt><trkpt lat="45.55263718679144" lon="9.24502932117285"><ele>151.0</ele><time>2026-03-15T18:27:55.998Z</time></trkpt><trkpt lat="45.55258815714835" lon="9.244711585733896"><ele>152.0</ele><time>2026-03-15T18:27:56.998Z</time></trkpt><trkpt lat="45.55254096687684" lon="9.244395674594916"><ele>152.0</ele><time>2026-03-15T18:27:57.998Z</time></trkpt><trkpt lat="45.55249429259383" lon="9.244072927541588"><ele>152.0</ele><time>2026-03-15T18:27:58.998Z</time></trkpt><trkpt lat="45.552447862662966" lon="9.243748994464003"><ele>152.0</ele><time>2026-03-15T18:27:59.998Z</time></trkpt><trkpt lat="45.55239881304823" lon="9.243420721270605"><ele>152.0</ele><time>2026-03-15T18:28:00.998Z</time></trkpt><trkpt lat="45.55234991615789" lon="9.243098036390073"><ele>151.5</ele><time>2026-03-15T18:28:01.998Z</time></trkpt><trkpt lat="45.552298441865744" lon="9.242769920046921"><ele>151.0</ele><time>2026-03-15T18:28:02.998Z</time></trkpt><trkpt lat="45.55224774465616" lon="9.242443435217417"><ele>151.0</ele><time>2026-03-15T18:28:03.998Z</time></trkpt><trkpt lat="45.55220017336566" lon="9.24211896726402"><ele>151.0</ele><time>2026-03-15T18:28:04.998Z</time></trkpt><trkpt lat="45.552154111123706" lon="9.241791534025866"><ele>151.0</ele><time>2026-03-15T18:28:05.998Z</time></trkpt><trkpt lat="45.55210964350788" lon="9.241469490861897"><ele>151.0</ele><time>2026-03-15T18:28:06.998Z</time></trkpt><trkpt lat="45.55205956593683" lon="9.24114069127925"><ele>151.0</ele><time>2026-03-15T18:28:07.998Z</time></trkpt><trkpt lat="45.55201015657819" lon="9.24081941538666"><ele>151.0</ele><time>2026-03-15T18:28:08.998Z</time></trkpt><trkpt lat="45.55195804536253" lon="9.240493385810911"><ele>151.0</ele><time>2026-03-15T18:28:09.998Z</time></trkpt><trkpt lat="45.55190926372294" lon="9.240167256778223"><ele>151.0</ele><time>2026-03-15T18:28:10.998Z</time></trkpt><trkpt lat="45.551860149768146" lon="9.23983390172807"><ele>151.5</ele><time>2026-03-15T18:28:11.998Z</time></trkpt><trkpt lat="45.55181293392708" lon="9.23950751425649"><ele>152.0</ele><time>2026-03-15T18:28:12.998Z</time></trkpt><trkpt lat="45.551763997303965" lon="9.239176690452485"><ele>151.5</ele><time>2026-03-15T18:28:13.998Z</time></trkpt><trkpt lat="45.55171547232097" lon="9.238852331979958"><ele>151.0</ele><time>2026-03-15T18:28:14.998Z</time></trkpt><trkpt lat="45.55166348798973" lon="9.23852310528246"><ele>151.0</ele><time>2026-03-15T18:28:15.998Z</time></trkpt><trkpt lat="45.551614193261365" lon="9.23819568921811"><ele>151.0</ele><time>2026-03-15T18:28:16.998Z</time></trkpt><trkpt lat="45.55157559323666" lon="9.237876102014685"><ele>150.0</ele><time>2026-03-15T18:28:17.998Z</time></trkpt><trkpt lat="45.55153641258103" lon="9.237555881545665"><ele>149.0</ele><time>2026-03-15T18:28:18.998Z</time></trkpt><trkpt lat="45.55146901471889" lon="9.23721911831284"><ele>148.5</ele><time>2026-03-15T18:28:19.998Z</time></trkpt><trkpt lat="45.551422506419605" lon="9.236896467014429"><ele>148.0</ele><time>2026-03-15T18:28:20.998Z</time></trkpt><trkpt lat="45.55137501349453" lon="9.236572009344243"><ele>149.5</ele><time>2026-03-15T18:28:22.001Z</time></trkpt><trkpt lat="45.55132518186535" lon="9.236245244488895"><ele>151.0</ele><time>2026-03-15T18:28:23.001Z</time></trkpt><trkpt lat="45.55128079272701" lon="9.235924020820965"><ele>152.0</ele><time>2026-03-15T18:28:24Z</time></trkpt><trkpt lat="45.551235044640556" lon="9.235593633171511"><ele>153.0</ele><time>2026-03-15T18:28:25.001Z</time></trkpt><trkpt lat="45.55119535081508" lon="9.235269503470857"><ele>153.0</ele><time>2026-03-15T18:28:26.001Z</time></trkpt><trkpt lat="45.551157746150174" lon="9.234954580571056"><ele>153.0</ele><time>2026-03-15T18:28:27.001Z</time></trkpt><trkpt lat="45.55111547502647" lon="9.234643501749773"><ele>153.0</ele><time>2026-03-15T18:28:28.001Z</time></trkpt><trkpt lat="45.551076591873525" lon="9.23433697008911"><ele>153.5</ele><time>2026-03-15T18:28:29.001Z</time></trkpt><trkpt lat="45.55103795111966" lon="9.233999897139382"><ele>154.0</ele><time>2026-03-15T18:28:30Z</time></trkpt><trkpt lat="45.55100398284905" lon="9.233676357798272"><ele>153.0</ele><time>2026-03-15T18:28:31Z</time></trkpt><trkpt lat="45.55096600922592" lon="9.233348941374327"><ele>152.0</ele><time>2026-03-15T18:28:32.001Z</time></trkpt><trkpt lat="45.55092506412331" lon="9.233003883346115"><ele>152.0</ele><time>2026-03-15T18:28:33.076Z</time></trkpt><trkpt lat="45.550887574000235" lon="9.23268503240363"><ele>152.0</ele><time>2026-03-15T18:28:34.075Z</time></trkpt><trkpt lat="45.55085085947229" lon="9.232379170228386"><ele>152.0</ele><time>2026-03-15T18:28:35.048Z</time></trkpt><trkpt lat="45.55081308857921" lon="9.232062907690862"><ele>152.0</ele><time>2026-03-15T18:28:36.032Z</time></trkpt><trkpt lat="45.550776455562556" lon="9.231744220409231"><ele>152.0</ele><time>2026-03-15T18:28:37.032Z</time></trkpt><trkpt lat="45.55047553487557" lon="9.229901499387667"><ele>151.66666666666666</ele><time>2026-03-15T18:28:43Z</time></trkpt><trkpt lat="45.550432570550555" lon="9.22959369048093"><ele>151.33333333333334</ele><time>2026-03-15T18:28:44Z</time></trkpt><trkpt lat="45.5503928085079" lon="9.229299389323554"><ele>151.0</ele><time>2026-03-15T18:28:45Z</time></trkpt><trkpt lat="45.55034581006428" lon="9.228992658325554"><ele>150.0</ele><time>2026-03-15T18:28:46Z</time></trkpt><trkpt lat="45.55029955168882" lon="9.228692163466656"><ele>149.0</ele><time>2026-03-15T18:28:47Z</time></trkpt><trkpt lat="45.55024644832949" lon="9.228400817880761"><ele>148.0</ele><time>2026-03-15T18:28:48Z</time></trkpt><trkpt lat="45.55019140807267" lon="9.228098849852744"><ele>147.66666666666669</ele><time>2026-03-15T18:28:49Z</time></trkpt><trkpt lat="45.55014030803231" lon="9.227801380205571"><ele>147.33333333333334</ele><time>2026-03-15T18:28:50Z</time></trkpt><trkpt lat="45.550090873398595" lon="9.227499807999328"><ele>147.0</ele><time>2026-03-15T18:28:51Z</time></trkpt><trkpt lat="45.55004412118913" lon="9.227205364235068"><ele>148.0</ele><time>2026-03-15T18:28:52Z</time></trkpt><trkpt lat="45.549991474132135" lon="9.226895811377204"><ele>149.0</ele><time>2026-03-15T18:28:53Z</time></trkpt><trkpt lat="45.54994342444738" lon="9.22659830191398"><ele>150.0</ele><time>2026-03-15T18:28:54Z</time></trkpt><trkpt lat="45.54989102887471" lon="9.226292930635584"><ele>150.0</ele><time>2026-03-15T18:28:55Z</time></trkpt><trkpt lat="45.54984182861183" lon="9.225991777866877"><ele>150.0</ele><time>2026-03-15T18:28:56Z</time></trkpt><trkpt lat="45.549791269207645" lon="9.225688709736103"><ele>150.0</ele><time>2026-03-15T18:28:57Z</time></trkpt><trkpt lat="45.5497417441873" lon="9.225387438837515"><ele>149.66666666666666</ele><time>2026-03-15T18:28:58Z</time></trkpt><trkpt lat="45.549692858291905" lon="9.225087701923497"><ele>149.33333333333331</ele><time>2026-03-15T18:28:59Z</time></trkpt><trkpt lat="45.54964532851454" lon="9.224785458667245"><ele>149.0</ele><time>2026-03-15T18:29:00Z</time></trkpt><trkpt lat="45.549598770759616" lon="9.224478010554403"><ele>148.66666666666666</ele><time>2026-03-15T18:29:01Z</time></trkpt><trkpt lat="45.54955636469379" lon="9.22417825298095"><ele>148.33333333333334</ele><time>2026-03-15T18:29:02Z</time></trkpt><trkpt lat="45.54951345157336" lon="9.223871365644227"><ele>148.0</ele><time>2026-03-15T18:29:03Z</time></trkpt><trkpt lat="45.54947038886422" lon="9.223568671114728"><ele>148.0</ele><time>2026-03-15T18:29:04Z</time></trkpt><trkpt lat="45.54942977077925" lon="9.223266733057672"><ele>148.0</ele><time>2026-03-15T18:29:05Z</time></trkpt><trkpt lat="45.549383474549614" lon="9.222962919040253"><ele>148.0</ele><time>2026-03-15T18:29:06Z</time></trkpt><trkpt lat="45.54933498318378" lon="9.22265694755978"><ele>148.33333333333334</ele><time>2026-03-15T18:29:07Z</time></trkpt><trkpt lat="45.54928635589501" lon="9.222357351565735"><ele>148.66666666666666</ele><time>2026-03-15T18:29:08Z</time></trkpt><trkpt lat="45.54923627316514" lon="9.222049199204333"><ele>149.0</ele><time>2026-03-15T18:29:09Z</time></trkpt><trkpt lat="45.5491876775856" lon="9.221740542450236"><ele>149.0</ele><time>2026-03-15T18:29:10Z</time></trkpt><trkpt lat="45.549143064128224" lon="9.221431136821634"><ele>149.0</ele><time>2026-03-15T18:29:11Z</time></trkpt><trkpt lat="45.54910290984137" lon="9.221120329329029"><ele>149.0</ele><time>2026-03-15T18:29:12Z</time></trkpt><trkpt lat="45.549063499720795" lon="9.220809501277218"><ele>149.66666666666666</ele><time>2026-03-15T18:29:13Z</time></trkpt><trkpt lat="45.54902866763181" lon="9.220497537615598"><ele>150.33333333333334</ele><time>2026-03-15T18:29:14Z</time></trkpt><trkpt lat="45.548993474658864" lon="9.22018767060752"><ele>151.0</ele><time>2026-03-15T18:29:15Z</time></trkpt><trkpt lat="45.54895946844302" lon="9.219875287674773"><ele>151.33333333333334</ele><time>2026-03-15T18:29:15.999Z</time></trkpt><trkpt lat="45.54893503547689" lon="9.219566665689994"><ele>151.66666666666666</ele><time>2026-03-15T18:29:16.999Z</time></trkpt><trkpt lat="45.54890903591778" lon="9.21926126994376"><ele>152.0</ele><time>2026-03-15T18:29:17.999Z</time></trkpt><trkpt lat="45.54888892605041" lon="9.218949366359087"><ele>151.66666666666666</ele><time>2026-03-15T18:29:18.999Z</time></trkpt><trkpt lat="45.548870024778516" lon="9.218640507136033"><ele>151.33333333333334</ele><time>2026-03-15T18:29:19.998Z</time></trkpt><trkpt lat="45.548851621347005" lon="9.218328007032937"><ele>151.0</ele><time>2026-03-15T18:29:20.998Z</time></trkpt><trkpt lat="45.548834396021284" lon="9.21802177724166"><ele>151.0</ele><time>2026-03-15T18:29:21.998Z</time></trkpt><trkpt lat="45.548818839338985" lon="9.217705859095451"><ele>151.0</ele><time>2026-03-15T18:29:22.998Z</time></trkpt><trkpt lat="45.548807060090326" lon="9.217395550371313"><ele>151.0</ele><time>2026-03-15T18:29:23.998Z</time></trkpt><trkpt lat="45.54879606166291" lon="9.217086971647701"><ele>150.66666666666669</ele><time>2026-03-15T18:29:24.998Z</time></trkpt><trkpt lat="45.548785064874366" lon="9.216767965286781"><ele>150.33333333333334</ele><time>2026-03-15T18:29:25.998Z</time></trkpt><trkpt lat="45.54877244713505" lon="9.216457201922516"><ele>150.0</ele><time>2026-03-15T18:29:26.998Z</time></trkpt><trkpt lat="45.54876199010434" lon="9.21614404920134"><ele>150.0</ele><time>2026-03-15T18:29:27.998Z</time></trkpt><trkpt lat="45.548752864875354" lon="9.215832832120672"><ele>150.0</ele><time>2026-03-15T18:29:28.998Z</time></trkpt><trkpt lat="45.5487430962361" lon="9.21552002156934"><ele>150.0</ele><time>2026-03-15T18:29:29.998Z</time></trkpt><trkpt lat="45.548734788543904" lon="9.215209122567767"><ele>149.33333333333334</ele><time>2026-03-15T18:29:30.998Z</time></trkpt><trkpt lat="45.54872479332066" lon="9.21489636641635"><ele>148.66666666666669</ele><time>2026-03-15T18:29:31.998Z</time></trkpt><trkpt lat="45.54871455175219" lon="9.214583959794412"><ele>148.0</ele><time>2026-03-15T18:29:32.998Z</time></trkpt><trkpt lat="45.548704481389606" lon="9.214274051197368"><ele>147.33333333333334</ele><time>2026-03-15T18:29:33.998Z</time></trkpt><trkpt lat="45.54869198489362" lon="9.213963767774823"><ele>146.66666666666666</ele><time>2026-03-15T18:29:34.998Z</time></trkpt><trkpt lat="45.54868178940908" lon="9.213656324655823"><ele>146.0</ele><time>2026-03-15T18:29:35.998Z</time></trkpt><trkpt lat="45.54867408981986" lon="9.213346484097807"><ele>147.0</ele><time>2026-03-15T18:29:36.998Z</time></trkpt><trkpt lat="45.54866803354988" lon="9.213038774208067"><ele>148.0</ele><time>2026-03-15T18:29:37.998Z</time></trkpt><trkpt lat="45.54866081438143" lon="9.212729065583384"><ele>149.0</ele><time>2026-03-15T18:29:38.998Z</time></trkpt><trkpt lat="45.548651191299335" lon="9.212419940980814"><ele>148.66666666666666</ele><time>2026-03-15T18:29:39.998Z</time></trkpt><trkpt lat="45.54864364201437" lon="9.212110750947366"><ele>148.33333333333334</ele><time>2026-03-15T18:29:40.998Z</time></trkpt><trkpt lat="45.54863430361955" lon="9.211802602446944"><ele>148.0</ele><time>2026-03-15T18:29:41.998Z</time></trkpt><trkpt lat="45.548623648123964" lon="9.21149264135409"><ele>148.33333333333334</ele><time>2026-03-15T18:29:42.998Z</time></trkpt><trkpt lat="45.54861398835233" lon="9.211182274043638"><ele>148.66666666666666</ele><time>2026-03-15T18:29:43.998Z</time></trkpt><trkpt lat="45.54860349502504" lon="9.210870657988558"><ele>149.0</ele><time>2026-03-15T18:29:44.998Z</time></trkpt><trkpt lat="45.54859592043053" lon="9.210559697637834"><ele>149.0</ele><time>2026-03-15T18:29:45.998Z</time></trkpt><trkpt lat="45.54858582440006" lon="9.210246067121817"><ele>149.0</ele><time>2026-03-15T18:29:46.998Z</time></trkpt><trkpt lat="45.5485758057712" lon="9.209931818367728"><ele>149.0</ele><time>2026-03-15T18:29:47.998Z</time></trkpt><trkpt lat="45.54856749845079" lon="9.209617955068012"><ele>149.0</ele><time>2026-03-15T18:29:48.998Z</time></trkpt><trkpt lat="45.54855867961857" lon="9.209306119298747"><ele>149.0</ele><time>2026-03-15T18:29:49.998Z</time></trkpt><trkpt lat="45.548547696581664" lon="9.208988484869467"><ele>149.0</ele><time>2026-03-15T18:29:50.998Z</time></trkpt><trkpt lat="45.548538014948775" lon="9.208679222578512"><ele>149.0</ele><time>2026-03-15T18:29:51.998Z</time></trkpt><trkpt lat="45.54852783416696" lon="9.20837057929724"><ele>149.0</ele><time>2026-03-15T18:29:52.998Z</time></trkpt><trkpt lat="45.54851333283491" lon="9.208054895246388"><ele>149.0</ele><time>2026-03-15T18:29:53.998Z</time></trkpt><trkpt lat="45.548501470492255" lon="9.207744390407633"><ele>149.0</ele><time>2026-03-15T18:29:54.998Z</time></trkpt><trkpt lat="45.548492588139275" lon="9.207436937730195"><ele>149.0</ele><time>2026-03-15T18:29:55.998Z</time></trkpt><trkpt lat="45.548484283094126" lon="9.207124749710333"><ele>149.0</ele><time>2026-03-15T18:29:56.998Z</time></trkpt><trkpt lat="45.54847561955984" lon="9.206814873447112"><ele>149.0</ele><time>2026-03-15T18:29:57.998Z</time></trkpt><trkpt lat="45.548466915240226" lon="9.20649812131686"><ele>149.0</ele><time>2026-03-15T18:29:58.998Z</time></trkpt><trkpt lat="45.54845956250785" lon="9.206186544417916"><ele>149.0</ele><time>2026-03-15T18:29:59.998Z</time></trkpt><trkpt lat="45.54845315574497" lon="9.20587375906842"><ele>149.0</ele><time>2026-03-15T18:30:00.998Z</time></trkpt><trkpt lat="45.54844565367408" lon="9.205565976142305"><ele>149.0</ele><time>2026-03-15T18:30:01.998Z</time></trkpt><trkpt lat="45.54843149426293" lon="9.205252036661847"><ele>149.0</ele><time>2026-03-15T18:30:02.998Z</time></trkpt><trkpt lat="45.548418695614316" lon="9.20494043274209"><ele>149.0</ele><time>2026-03-15T18:30:03.997Z</time></trkpt><trkpt lat="45.54840892018186" lon="9.20463405661282"><ele>149.0</ele><time>2026-03-15T18:30:04.997Z</time></trkpt><trkpt lat="45.548397127139644" lon="9.204320654367452"><ele>149.0</ele><time>2026-03-15T18:30:05.997Z</time></trkpt><trkpt lat="45.54838432621037" lon="9.204008905830506"><ele>148.66666666666666</ele><time>2026-03-15T18:30:06.997Z</time></trkpt><trkpt lat="45.548368206092285" lon="9.203694937979517"><ele>148.33333333333334</ele><time>2026-03-15T18:30:07.997Z</time></trkpt><trkpt lat="45.54835238123134" lon="9.203388103007914"><ele>148.0</ele><time>2026-03-15T18:30:08.997Z</time></trkpt><trkpt lat="45.54832851941162" lon="9.203072456683373"><ele>147.66666666666669</ele><time>2026-03-15T18:30:09.997Z</time></trkpt><trkpt lat="45.548307893047316" lon="9.20276256717787"><ele>147.33333333333334</ele><time>2026-03-15T18:30:10.997Z</time></trkpt><trkpt lat="45.54827989287857" lon="9.202452730206579"><ele>147.0</ele><time>2026-03-15T18:30:11.997Z</time></trkpt><trkpt lat="45.548245401377365" lon="9.202141196823819"><ele>147.66666666666666</ele><time>2026-03-15T18:30:12.997Z</time></trkpt><trkpt lat="45.548206958596886" lon="9.201830950762933"><ele>148.33333333333331</ele><time>2026-03-15T18:30:13.997Z</time></trkpt><trkpt lat="45.548164376610195" lon="9.201526517677507"><ele>149.0</ele><time>2026-03-15T18:30:14.997Z</time></trkpt><trkpt lat="45.5481185768225" lon="9.201219292208135"><ele>149.0</ele><time>2026-03-15T18:30:15.997Z</time></trkpt><trkpt lat="45.54807176982468" lon="9.200916540420215"><ele>149.0</ele><time>2026-03-15T18:30:16.997Z</time></trkpt><trkpt lat="45.54802237260893" lon="9.200612976688946"><ele>149.0</ele><time>2026-03-15T18:30:17.997Z</time></trkpt><trkpt lat="45.54797015250047" lon="9.200310496189001"><ele>148.66666666666666</ele><time>2026-03-15T18:30:18.997Z</time></trkpt><trkpt lat="45.547915421114894" lon="9.200010637267901"><ele>148.33333333333334</ele><time>2026-03-15T18:30:19.997Z</time></trkpt><trkpt lat="45.54785568489641" lon="9.19970826016616"><ele>148.0</ele><time>2026-03-15T18:30:20.997Z</time></trkpt><trkpt lat="45.54779116333166" lon="9.199406522761697"><ele>148.0</ele><time>2026-03-15T18:30:21.997Z</time></trkpt><trkpt lat="45.54772420034652" lon="9.199115999403125"><ele>148.0</ele><time>2026-03-15T18:30:22.997Z</time></trkpt><trkpt lat="45.54765067016007" lon="9.198818555850087"><ele>148.0</ele><time>2026-03-15T18:30:23.997Z</time></trkpt><trkpt lat="45.547576679859" lon="9.198527997615257"><ele>147.66666666666669</ele><time>2026-03-15T18:30:24.997Z</time></trkpt><trkpt lat="45.54750089041113" lon="9.198229717524741"><ele>147.33333333333334</ele><time>2026-03-15T18:30:25.997Z</time></trkpt><trkpt lat="45.54742671702822" lon="9.197936942458492"><ele>147.0</ele><time>2026-03-15T18:30:26.997Z</time></trkpt><trkpt lat="45.54735070038562" lon="9.197645209138571"><ele>147.66666666666666</ele><time>2026-03-15T18:30:28Z</time></trkpt><trkpt lat="45.547274099025586" lon="9.197354951940572"><ele>148.33333333333331</ele><time>2026-03-15T18:30:29Z</time></trkpt><trkpt lat="45.547197176028156" lon="9.197061482378187"><ele>149.0</ele><time>2026-03-15T18:30:30Z</time></trkpt><trkpt lat="45.54711921450469" lon="9.196770718842602"><ele>148.66666666666666</ele><time>2026-03-15T18:30:31Z</time></trkpt><trkpt lat="45.547045623895364" lon="9.196474067630911"><ele>148.33333333333334</ele><time>2026-03-15T18:30:32Z</time></trkpt><trkpt lat="45.54697040456823" lon="9.196182956410185"><ele>148.0</ele><time>2026-03-15T18:30:33Z</time></trkpt><trkpt lat="45.54689473598554" lon="9.195888605216162"><ele>148.33333333333334</ele><time>2026-03-15T18:30:34Z</time></trkpt><trkpt lat="45.546819538779225" lon="9.195596513639085"><ele>148.66666666666666</ele><time>2026-03-15T18:30:35Z</time></trkpt><trkpt lat="45.54674351270457" lon="9.195306096369869"><ele>149.0</ele><time>2026-03-15T18:30:36Z</time></trkpt><trkpt lat="45.546667402511396" lon="9.195011689911214"><ele>149.33333333333331</ele><time>2026-03-15T18:30:37Z</time></trkpt><trkpt lat="45.54659302185087" lon="9.194716413297908"><ele>149.66666666666666</ele><time>2026-03-15T18:30:38Z</time></trkpt><trkpt lat="45.546516350828576" lon="9.19442306440589"><ele>150.0</ele><time>2026-03-15T18:30:39Z</time></trkpt><trkpt lat="45.546440207757485" lon="9.194131217805735"><ele>150.0</ele><time>2026-03-15T18:30:40Z</time></trkpt><trkpt lat="45.54636438069875" lon="9.193840891825783"><ele>150.0</ele><time>2026-03-15T18:30:41Z</time></trkpt><trkpt lat="45.54628732579284" lon="9.193545780965263"><ele>150.0</ele><time>2026-03-15T18:30:42Z</time></trkpt><trkpt lat="45.546211565923656" lon="9.193255271541442"><ele>150.0</ele><time>2026-03-15T18:30:43Z</time></trkpt><trkpt lat="45.546137851116775" lon="9.192973731211447"><ele>150.0</ele><time>2026-03-15T18:30:44Z</time></trkpt><trkpt lat="45.54606722404246" lon="9.192711170867119"><ele>150.0</ele><time>2026-03-15T18:30:45Z</time></trkpt><trkpt lat="45.54600289606097" lon="9.192460011909082"><ele>150.0</ele><time>2026-03-15T18:30:46Z</time></trkpt><trkpt lat="45.54593929274095" lon="9.192210690236104"><ele>150.0</ele><time>2026-03-15T18:30:47Z</time></trkpt><trkpt lat="45.54586920513599" lon="9.191941623155342"><ele>150.0</ele><time>2026-03-15T18:30:48Z</time></trkpt><trkpt lat="45.545798289883614" lon="9.191666954981999"><ele>151.0</ele><time>2026-03-15T18:30:49Z</time></trkpt><trkpt lat="45.54572606678155" lon="9.191387157981158"><ele>152.0</ele><time>2026-03-15T18:30:50Z</time></trkpt><trkpt lat="45.54565323748311" lon="9.191106946597186"><ele>153.0</ele><time>2026-03-15T18:30:51Z</time></trkpt><trkpt lat="45.545579756712804" lon="9.190825139301259"><ele>153.0</ele><time>2026-03-15T18:30:52Z</time></trkpt><trkpt lat="45.54550661098412" lon="9.190542192545177"><ele>153.0</ele><time>2026-03-15T18:30:53Z</time></trkpt><trkpt lat="45.54543114050755" lon="9.190253539964132"><ele>153.0</ele><time>2026-03-15T18:30:54Z</time></trkpt><trkpt lat="45.54535615647759" lon="9.189963289501796"><ele>152.33333333333334</ele><time>2026-03-15T18:30:54.999Z</time></trkpt><trkpt lat="45.54528198926555" lon="9.18967432085414"><ele>151.66666666666669</ele><time>2026-03-15T18:30:55.999Z</time></trkpt><trkpt lat="45.54520825880496" lon="9.189379994426234"><ele>151.0</ele><time>2026-03-15T18:30:56.999Z</time></trkpt><trkpt lat="45.54513279711298" lon="9.18908822803125"><ele>151.0</ele><time>2026-03-15T18:30:57.999Z</time></trkpt><trkpt lat="45.54505646257787" lon="9.188791662814772"><ele>151.0</ele><time>2026-03-15T18:30:58.999Z</time></trkpt><trkpt lat="45.544983059705814" lon="9.188498197151766"><ele>151.0</ele><time>2026-03-15T18:30:59.999Z</time></trkpt><trkpt lat="45.54490756025237" lon="9.188201704611311"><ele>150.66666666666669</ele><time>2026-03-15T18:31:00.999Z</time></trkpt><trkpt lat="45.54482939883029" lon="9.18791294437795"><ele>150.33333333333334</ele><time>2026-03-15T18:31:01.999Z</time></trkpt><trkpt lat="45.54475290235817" lon="9.187622839769697"><ele>150.0</ele><time>2026-03-15T18:31:02.999Z</time></trkpt><trkpt lat="45.54467595515079" lon="9.187331329977537"><ele>150.0</ele><time>2026-03-15T18:31:03.999Z</time></trkpt><trkpt lat="45.544600325491366" lon="9.187041031576497"><ele>150.0</ele><time>2026-03-15T18:31:04.999Z</time></trkpt><trkpt lat="45.54452526721212" lon="9.186748562046715"><ele>150.0</ele><time>2026-03-15T18:31:05.999Z</time></trkpt><trkpt lat="45.54445066113554" lon="9.1864584012213"><ele>150.33333333333334</ele><time>2026-03-15T18:31:06.999Z</time></trkpt><trkpt lat="45.54437493269545" lon="9.186162757676371"><ele>150.66666666666669</ele><time>2026-03-15T18:31:07.999Z</time></trkpt><trkpt lat="45.54430089233342" lon="9.185872586595377"><ele>151.0</ele><time>2026-03-15T18:31:08.999Z</time></trkpt><trkpt lat="45.54422428654329" lon="9.185573539449853"><ele>150.33333333333334</ele><time>2026-03-15T18:31:09.999Z</time></trkpt><trkpt lat="45.544148525390675" lon="9.185281309880706"><ele>149.66666666666666</ele><time>2026-03-15T18:31:10.999Z</time></trkpt><trkpt lat="45.54407141104645" lon="9.184986656540806"><ele>149.0</ele><time>2026-03-15T18:31:11.999Z</time></trkpt><trkpt lat="45.54399486243082" lon="9.18468948632482"><ele>148.66666666666666</ele><time>2026-03-15T18:31:12.999Z</time></trkpt><trkpt lat="45.543920141995955" lon="9.184398363921623"><ele>148.33333333333334</ele><time>2026-03-15T18:31:13.999Z</time></trkpt><trkpt lat="45.54384664889308" lon="9.18410333540286"><ele>148.0</ele><time>2026-03-15T18:31:14.999Z</time></trkpt><trkpt lat="45.54377489864663" lon="9.183807895529526"><ele>148.0</ele><time>2026-03-15T18:31:15.999Z</time></trkpt><trkpt lat="45.54370332845064" lon="9.183510681411885"><ele>148.0</ele><time>2026-03-15T18:31:16.999Z</time></trkpt><trkpt lat="45.54362830758196" lon="9.183217752334913"><ele>148.0</ele><time>2026-03-15T18:31:17.999Z</time></trkpt><trkpt lat="45.54355105654174" lon="9.182927946415314"><ele>148.0</ele><time>2026-03-15T18:31:18.999Z</time></trkpt><trkpt lat="45.54347062450595" lon="9.18263470283673"><ele>148.0</ele><time>2026-03-15T18:31:19.999Z</time></trkpt><trkpt lat="45.54339350355787" lon="9.182345848641955"><ele>148.0</ele><time>2026-03-15T18:31:20.999Z</time></trkpt><trkpt lat="45.54331640462488" lon="9.182055994602628"><ele>147.66666666666669</ele><time>2026-03-15T18:31:21.999Z</time></trkpt><trkpt lat="45.543238440727016" lon="9.181766702400074"><ele>147.33333333333334</ele><time>2026-03-15T18:31:22.999Z</time></trkpt><trkpt lat="45.543161319810125" lon="9.181475818746799"><ele>147.0</ele><time>2026-03-15T18:31:23.999Z</time></trkpt><trkpt lat="45.543085037682474" lon="9.181187356857956"><ele>147.0</ele><time>2026-03-15T18:31:24.999Z</time></trkpt><trkpt lat="45.5430081180181" lon="9.180899541169307"><ele>147.0</ele><time>2026-03-15T18:31:25.999Z</time></trkpt><trkpt lat="45.54292894413736" lon="9.180614814666379"><ele>147.0</ele><time>2026-03-15T18:31:26.999Z</time></trkpt><trkpt lat="45.54284891016038" lon="9.180323670149898"><ele>148.0</ele><time>2026-03-15T18:31:27.999Z</time></trkpt><trkpt lat="45.54277167634994" lon="9.180036341198528"><ele>149.0</ele><time>2026-03-15T18:31:28.999Z</time></trkpt><trkpt lat="45.54269236138746" lon="9.179747631612075"><ele>150.0</ele><time>2026-03-15T18:31:29.999Z</time></trkpt><trkpt lat="45.54261228711403" lon="9.17946024038928"><ele>150.0</ele><time>2026-03-15T18:31:30.999Z</time></trkpt><trkpt lat="45.54253056348861" lon="9.179170937729861"><ele>150.0</ele><time>2026-03-15T18:31:31.999Z</time></trkpt><trkpt lat="45.54244691585822" lon="9.178884010728533"><ele>150.0</ele><time>2026-03-15T18:31:32.999Z</time></trkpt><trkpt lat="45.542363492988876" lon="9.178594763436218"><ele>150.0</ele><time>2026-03-15T18:31:33.999Z</time></trkpt><trkpt lat="45.54227969124476" lon="9.17830427686438"><ele>150.0</ele><time>2026-03-15T18:31:34.999Z</time></trkpt><trkpt lat="45.54219828021151" lon="9.178016367804785"><ele>150.0</ele><time>2026-03-15T18:31:35.999Z</time></trkpt><trkpt lat="45.54211301990634" lon="9.177726447310523"><ele>149.66666666666666</ele><time>2026-03-15T18:31:36.998Z</time></trkpt><trkpt lat="45.5420291938948" lon="9.17744046337164"><ele>149.33333333333331</ele><time>2026-03-15T18:31:37.998Z</time></trkpt><trkpt lat="45.54194581590465" lon="9.177151558089315"><ele>149.0</ele><time>2026-03-15T18:31:38.998Z</time></trkpt><trkpt lat="45.54186674661393" lon="9.176864506709437"><ele>149.0</ele><time>2026-03-15T18:31:39.998Z</time></trkpt><trkpt lat="45.54178764877527" lon="9.176578194724609"><ele>149.0</ele><time>2026-03-15T18:31:40.998Z</time></trkpt><trkpt lat="45.541708896079896" lon="9.17629239924014"><ele>149.0</ele><time>2026-03-15T18:31:41.998Z</time></trkpt><trkpt lat="45.54162827391728" lon="9.176003920017031"><ele>149.0</ele><time>2026-03-15T18:31:42.998Z</time></trkpt><trkpt lat="45.541548070243905" lon="9.175717877233192"><ele>149.0</ele><time>2026-03-15T18:31:43.998Z</time></trkpt><trkpt lat="45.5414640819122" lon="9.175431595738955"><ele>149.0</ele><time>2026-03-15T18:31:44.998Z</time></trkpt><trkpt lat="45.54138112590852" lon="9.175145660161713"><ele>149.0</ele><time>2026-03-15T18:31:45.998Z</time></trkpt><trkpt lat="45.54129685729632" lon="9.174860741192226"><ele>149.0</ele><time>2026-03-15T18:31:46.998Z</time></trkpt><trkpt lat="45.541208368826396" lon="9.174571503183621"><ele>149.0</ele><time>2026-03-15T18:31:47.998Z</time></trkpt><trkpt lat="45.54112043382134" lon="9.17428610117179"><ele>149.33333333333331</ele><time>2026-03-15T18:31:48.998Z</time></trkpt><trkpt lat="45.54103040540794" lon="9.173998406660358"><ele>149.66666666666666</ele><time>2026-03-15T18:31:49.998Z</time></trkpt><trkpt lat="45.540938585388716" lon="9.173710029944681"><ele>150.0</ele><time>2026-03-15T18:31:50.998Z</time></trkpt><trkpt lat="45.54084530454539" lon="9.173426547020354"><ele>149.66666666666666</ele><time>2026-03-15T18:31:51.998Z</time></trkpt><trkpt lat="45.54074768030607" lon="9.173140667742695"><ele>149.33333333333331</ele><time>2026-03-15T18:31:52.998Z</time></trkpt><trkpt lat="45.54065217297504" lon="9.17285519995597"><ele>149.0</ele><time>2026-03-15T18:31:53.998Z</time></trkpt><trkpt lat="45.5405546097707" lon="9.172569259413118"><ele>149.0</ele><time>2026-03-15T18:31:54.998Z</time></trkpt><trkpt lat="45.540455380251935" lon="9.172283674098257"><ele>149.0</ele><time>2026-03-15T18:31:55.998Z</time></trkpt><trkpt lat="45.54035636373727" lon="9.171998320782006"><ele>149.0</ele><time>2026-03-15T18:31:56.998Z</time></trkpt><trkpt lat="45.540254643027225" lon="9.171715496170334"><ele>149.0</ele><time>2026-03-15T18:31:57.998Z</time></trkpt><trkpt lat="45.54015483653686" lon="9.17143592646124"><ele>149.0</ele><time>2026-03-15T18:31:58.998Z</time></trkpt><trkpt lat="45.540051816229315" lon="9.171157955763757"><ele>149.0</ele><time>2026-03-15T18:31:59.998Z</time></trkpt><trkpt lat="45.539951099426695" lon="9.17088101664662"><ele>149.33333333333331</ele><time>2026-03-15T18:32:00.998Z</time></trkpt><trkpt lat="45.53984983642976" lon="9.17060529046683"><ele>149.66666666666666</ele><time>2026-03-15T18:32:01.998Z</time></trkpt><trkpt lat="45.53974870819458" lon="9.17033152822801"><ele>150.0</ele><time>2026-03-15T18:32:02.998Z</time></trkpt><trkpt lat="45.5396368683152" lon="9.170062766759923"><ele>149.33333333333334</ele><time>2026-03-15T18:32:03.998Z</time></trkpt><trkpt lat="45.5395271910055" lon="9.169794025532925"><ele>148.66666666666669</ele><time>2026-03-15T18:32:04.998Z</time></trkpt><trkpt lat="45.53941819656825" lon="9.169526295402855"><ele>148.0</ele><time>2026-03-15T18:32:05.998Z</time></trkpt><trkpt lat="45.5393090013178" lon="9.169258872747346"><ele>148.66666666666669</ele><time>2026-03-15T18:32:06.998Z</time></trkpt><trkpt lat="45.539197825049506" lon="9.168992868238009"><ele>149.33333333333334</ele><time>2026-03-15T18:32:07.998Z</time></trkpt><trkpt lat="45.5390862826078" lon="9.16872438504015"><ele>150.0</ele><time>2026-03-15T18:32:08.998Z</time></trkpt><trkpt lat="45.538975203788866" lon="9.168457282178247"><ele>150.33333333333334</ele><time>2026-03-15T18:32:09.998Z</time></trkpt><trkpt lat="45.53886156438964" lon="9.168191762500427"><ele>150.66666666666669</ele><time>2026-03-15T18:32:10.998Z</time></trkpt><trkpt lat="45.53874182421656" lon="9.167930395504902"><ele>151.0</ele><time>2026-03-15T18:32:11.998Z</time></trkpt><trkpt lat="45.53862389967329" lon="9.167673818381493"><ele>151.0</ele><time>2026-03-15T18:32:12.998Z</time></trkpt><trkpt lat="45.53850573555136" lon="9.167416285268246"><ele>151.0</ele><time>2026-03-15T18:32:13.998Z</time></trkpt><trkpt lat="45.538384656360975" lon="9.16715692344311"><ele>151.0</ele><time>2026-03-15T18:32:14.998Z</time></trkpt><trkpt lat="45.53824838039113" lon="9.166862087686294"><ele>150.5</ele><time>2026-03-15T18:32:15.998Z</time></trkpt><trkpt lat="45.53811499126069" lon="9.166577924526633"><ele>150.0</ele><time>2026-03-15T18:32:16.998Z</time></trkpt><trkpt lat="45.53798917923646" lon="9.166323522343585"><ele>149.0</ele><time>2026-03-15T18:32:17.998Z</time></trkpt><trkpt lat="45.53787054151463" lon="9.166076280498567"><ele>148.0</ele><time>2026-03-15T18:32:18.998Z</time></trkpt><trkpt lat="45.53774777614434" lon="9.165822330510673"><ele>147.0</ele><time>2026-03-15T18:32:19.998Z</time></trkpt><trkpt lat="45.537623156754" lon="9.165560583448135"><ele>147.0</ele><time>2026-03-15T18:32:20.997Z</time></trkpt><trkpt lat="45.53749291186164" lon="9.16529558148153"><ele>147.0</ele><time>2026-03-15T18:32:21.997Z</time></trkpt><trkpt lat="45.53736427512029" lon="9.165025888010911"><ele>146.66666666666666</ele><time>2026-03-15T18:32:22.997Z</time></trkpt><trkpt lat="45.537240668677356" lon="9.164764474814117"><ele>146.33333333333331</ele><time>2026-03-15T18:32:23.997Z</time></trkpt><trkpt lat="45.537123832115434" lon="9.164513854287906"><ele>146.0</ele><time>2026-03-15T18:32:24.997Z</time></trkpt><trkpt lat="45.53700561565256" lon="9.164264809027875"><ele>146.33333333333331</ele><time>2026-03-15T18:32:25.997Z</time></trkpt><trkpt lat="45.536888419978155" lon="9.163995590934613"><ele>146.66666666666666</ele><time>2026-03-15T18:32:26.997Z</time></trkpt><trkpt lat="45.536770636535515" lon="9.163755450681906"><ele>147.0</ele><time>2026-03-15T18:32:27.997Z</time></trkpt><trkpt lat="45.53665180562332" lon="9.16350445040966"><ele>147.0</ele><time>2026-03-15T18:32:28.997Z</time></trkpt><trkpt lat="45.536533284949456" lon="9.1632557456156"><ele>147.0</ele><time>2026-03-15T18:32:29.997Z</time></trkpt><trkpt lat="45.536413756635596" lon="9.163006180905711"><ele>147.0</ele><time>2026-03-15T18:32:30.997Z</time></trkpt><trkpt lat="45.53629316164598" lon="9.162756375985577"><ele>147.33333333333334</ele><time>2026-03-15T18:32:31.997Z</time></trkpt><trkpt lat="45.53617179533726" lon="9.162502835879225"><ele>147.66666666666669</ele><time>2026-03-15T18:32:32.997Z</time></trkpt><trkpt lat="45.53604887910323" lon="9.162248104554799"><ele>148.0</ele><time>2026-03-15T18:32:34Z</time></trkpt><trkpt lat="45.53592587753165" lon="9.161992841042501"><ele>147.33333333333334</ele><time>2026-03-15T18:32:35Z</time></trkpt><trkpt lat="45.5357993071469" lon="9.161733490385458"><ele>146.66666666666666</ele><time>2026-03-15T18:32:36Z</time></trkpt><trkpt lat="45.53567295938962" lon="9.161475103446623"><ele>146.0</ele><time>2026-03-15T18:32:37Z</time></trkpt><trkpt lat="45.53554614404077" lon="9.161214498079179"><ele>146.0</ele><time>2026-03-15T18:32:38Z</time></trkpt><trkpt lat="45.53541993163164" lon="9.160949413889071"><ele>146.0</ele><time>2026-03-15T18:32:39Z</time></trkpt><trkpt lat="45.53529505234839" lon="9.160686204397406"><ele>146.0</ele><time>2026-03-15T18:32:40Z</time></trkpt><trkpt lat="45.53516887436849" lon="9.160430148388755"><ele>146.66666666666666</ele><time>2026-03-15T18:32:41Z</time></trkpt><trkpt lat="45.535041876239156" lon="9.16016542375918"><ele>147.33333333333334</ele><time>2026-03-15T18:32:42Z</time></trkpt><trkpt lat="45.53491586216222" lon="9.15990180452443"><ele>148.0</ele><time>2026-03-15T18:32:43Z</time></trkpt><trkpt lat="45.53479307881216" lon="9.159641971399052"><ele>148.0</ele><time>2026-03-15T18:32:44Z</time></trkpt><trkpt lat="45.53466800372906" lon="9.159381961190082"><ele>148.0</ele><time>2026-03-15T18:32:45Z</time></trkpt><trkpt lat="45.53454359497706" lon="9.159120888822327"><ele>148.0</ele><time>2026-03-15T18:32:46Z</time></trkpt><trkpt lat="45.53442094195684" lon="9.158868804292627"><ele>148.0</ele><time>2026-03-15T18:32:47Z</time></trkpt><trkpt lat="45.53429559469783" lon="9.15861288773891"><ele>148.0</ele><time>2026-03-15T18:32:48Z</time></trkpt><trkpt lat="45.534171166247354" lon="9.158353753236355"><ele>148.0</ele><time>2026-03-15T18:32:49Z</time></trkpt><trkpt lat="45.534046466316475" lon="9.158100347538019"><ele>148.0</ele><time>2026-03-15T18:32:50Z</time></trkpt><trkpt lat="45.53391781378756" lon="9.157842020253446"><ele>148.0</ele><time>2026-03-15T18:32:51Z</time></trkpt><trkpt lat="45.5337919426196" lon="9.157586855206585"><ele>148.0</ele><time>2026-03-15T18:32:52Z</time></trkpt><trkpt lat="45.533668140902535" lon="9.157326839819355"><ele>147.0</ele><time>2026-03-15T18:32:53Z</time></trkpt><trkpt lat="45.53355195560697" lon="9.157067044813626"><ele>146.0</ele><time>2026-03-15T18:32:54Z</time></trkpt><trkpt lat="45.53342889119413" lon="9.156805455030307"><ele>145.0</ele><time>2026-03-15T18:32:55Z</time></trkpt><trkpt lat="45.533304605681884" lon="9.156548713512406"><ele>145.66666666666669</ele><time>2026-03-15T18:32:56Z</time></trkpt><trkpt lat="45.53318007496718" lon="9.156292207876607"><ele>146.33333333333334</ele><time>2026-03-15T18:32:57Z</time></trkpt><trkpt lat="45.533058867110114" lon="9.156035321173363"><ele>147.0</ele><time>2026-03-15T18:32:58Z</time></trkpt><trkpt lat="45.53293205516186" lon="9.155777315067668"><ele>147.33333333333334</ele><time>2026-03-15T18:32:59Z</time></trkpt><trkpt lat="45.53280995052129" lon="9.155520424542317"><ele>147.66666666666669</ele><time>2026-03-15T18:33:00Z</time></trkpt><trkpt lat="45.53268543600616" lon="9.155260297975651"><ele>148.0</ele><time>2026-03-15T18:33:01Z</time></trkpt><trkpt lat="45.532562736763694" lon="9.155005042055432"><ele>147.66666666666669</ele><time>2026-03-15T18:33:02Z</time></trkpt><trkpt lat="45.53243992841501" lon="9.154752139081323"><ele>147.33333333333334</ele><time>2026-03-15T18:33:03Z</time></trkpt><trkpt lat="45.532316038579886" lon="9.154485775589297"><ele>147.0</ele><time>2026-03-15T18:33:04Z</time></trkpt><trkpt lat="45.53219255018392" lon="9.154232087042082"><ele>146.33333333333334</ele><time>2026-03-15T18:33:05Z</time></trkpt><trkpt lat="45.532074357534285" lon="9.15397999884606"><ele>145.66666666666669</ele><time>2026-03-15T18:33:06Z</time></trkpt><trkpt lat="45.5319546849074" lon="9.153720866878189"><ele>145.0</ele><time>2026-03-15T18:33:07Z</time></trkpt><trkpt lat="45.53183278249025" lon="9.153461245164829"><ele>145.0</ele><time>2026-03-15T18:33:08Z</time></trkpt><trkpt lat="45.53171150462389" lon="9.153207110959972"><ele>145.0</ele><time>2026-03-15T18:33:09Z</time></trkpt><trkpt lat="45.531588680818466" lon="9.152952647534654"><ele>145.0</ele><time>2026-03-15T18:33:10Z</time></trkpt><trkpt lat="45.531463941522695" lon="9.152695183581896"><ele>145.0</ele><time>2026-03-15T18:33:11Z</time></trkpt><trkpt lat="45.5313380810132" lon="9.152438683820252"><ele>145.0</ele><time>2026-03-15T18:33:12Z</time></trkpt><trkpt lat="45.531213643628625" lon="9.152183971367426"><ele>145.0</ele><time>2026-03-15T18:33:13Z</time></trkpt><trkpt lat="45.53108727136171" lon="9.151925868124474"><ele>145.0</ele><time>2026-03-15T18:33:13.999Z</time></trkpt><trkpt lat="45.530962995047624" lon="9.151668414415626"><ele>145.0</ele><time>2026-03-15T18:33:14.999Z</time></trkpt><trkpt lat="45.530838939149156" lon="9.151413105878056"><ele>145.0</ele><time>2026-03-15T18:33:15.999Z</time></trkpt><trkpt lat="45.530713681975854" lon="9.15115764244193"><ele>145.0</ele><time>2026-03-15T18:33:16.999Z</time></trkpt><trkpt lat="45.53058518053112" lon="9.150900436219022"><ele>145.0</ele><time>2026-03-15T18:33:17.999Z</time></trkpt><trkpt lat="45.53045916963904" lon="9.150650441325531"><ele>145.0</ele><time>2026-03-15T18:33:18.999Z</time></trkpt><trkpt lat="45.53032918211227" lon="9.150397522336135"><ele>144.66666666666669</ele><time>2026-03-15T18:33:19.999Z</time></trkpt><trkpt lat="45.5302043545093" lon="9.150142073180879"><ele>144.33333333333334</ele><time>2026-03-15T18:33:20.999Z</time></trkpt><trkpt lat="45.530082413928874" lon="9.14988377372081"><ele>144.0</ele><time>2026-03-15T18:33:21.999Z</time></trkpt><trkpt lat="45.529960035699105" lon="9.14962515181344"><ele>144.0</ele><time>2026-03-15T18:33:22.999Z</time></trkpt><trkpt lat="45.52983547240923" lon="9.14937004239226"><ele>144.0</ele><time>2026-03-15T18:33:23.999Z</time></trkpt><trkpt lat="45.52970782051065" lon="9.149114055895197"><ele>144.0</ele><time>2026-03-15T18:33:24.999Z</time></trkpt><trkpt lat="45.52958119396574" lon="9.14885911272572"><ele>143.66666666666666</ele><time>2026-03-15T18:33:25.999Z</time></trkpt><trkpt lat="45.52945332170453" lon="9.148605035255345"><ele>143.33333333333331</ele><time>2026-03-15T18:33:26.999Z</time></trkpt><trkpt lat="45.52932743967593" lon="9.148356167751771"><ele>143.0</ele><time>2026-03-15T18:33:27.999Z</time></trkpt><trkpt lat="45.52919646950121" lon="9.148102556863535"><ele>143.0</ele><time>2026-03-15T18:33:28.999Z</time></trkpt><trkpt lat="45.52906732283555" lon="9.147848678950856"><ele>143.0</ele><time>2026-03-15T18:33:29.999Z</time></trkpt><trkpt lat="45.52894110032944" lon="9.147593759513578"><ele>143.0</ele><time>2026-03-15T18:33:30.999Z</time></trkpt><trkpt lat="45.52881920602317" lon="9.147337403965615"><ele>143.0</ele><time>2026-03-15T18:33:31.999Z</time></trkpt><trkpt lat="45.52869742681351" lon="9.14708030896594"><ele>143.0</ele><time>2026-03-15T18:33:32.999Z</time></trkpt><trkpt lat="45.528577761796285" lon="9.14683333571053"><ele>143.0</ele><time>2026-03-15T18:33:33.999Z</time></trkpt><trkpt lat="45.528457333991206" lon="9.146565739410752"><ele>143.0</ele><time>2026-03-15T18:33:34.999Z</time></trkpt><trkpt lat="45.52833249996849" lon="9.146304933485625"><ele>143.0</ele><time>2026-03-15T18:33:35.999Z</time></trkpt><trkpt lat="45.528208671870736" lon="9.146046571583737"><ele>143.0</ele><time>2026-03-15T18:33:36.999Z</time></trkpt><trkpt lat="45.52808757292572" lon="9.145787046532107"><ele>143.33333333333331</ele><time>2026-03-15T18:33:37.999Z</time></trkpt><trkpt lat="45.527963576376266" lon="9.145524821120043"><ele>143.66666666666666</ele><time>2026-03-15T18:33:38.999Z</time></trkpt><trkpt lat="45.52784134952329" lon="9.145264374980979"><ele>144.0</ele><time>2026-03-15T18:33:39.999Z</time></trkpt><trkpt lat="45.52771953927224" lon="9.145005398234966"><ele>143.66666666666666</ele><time>2026-03-15T18:33:40.999Z</time></trkpt><trkpt lat="45.527596581457445" lon="9.144747222067101"><ele>143.33333333333331</ele><time>2026-03-15T18:33:41.999Z</time></trkpt><trkpt lat="45.527471784431775" lon="9.144491290734603"><ele>143.0</ele><time>2026-03-15T18:33:42.999Z</time></trkpt><trkpt lat="45.52734851091613" lon="9.14423415228851"><ele>143.0</ele><time>2026-03-15T18:33:43.999Z</time></trkpt><trkpt lat="45.52722576140137" lon="9.143978178227457"><ele>143.0</ele><time>2026-03-15T18:33:44.999Z</time></trkpt><trkpt lat="45.527102110213505" lon="9.143725495403249"><ele>143.0</ele><time>2026-03-15T18:33:45.999Z</time></trkpt><trkpt lat="45.526980029950046" lon="9.143472605167029"><ele>142.66666666666666</ele><time>2026-03-15T18:33:46.999Z</time></trkpt><trkpt lat="45.526859256708576" lon="9.143218902514242"><ele>142.33333333333334</ele><time>2026-03-15T18:33:47.999Z</time></trkpt><trkpt lat="45.52673790906407" lon="9.142965903500048"><ele>142.0</ele><time>2026-03-15T18:33:48.999Z</time></trkpt><trkpt lat="45.526617331256624" lon="9.142716337591681"><ele>142.66666666666669</ele><time>2026-03-15T18:33:49.999Z</time></trkpt><trkpt lat="45.526495800998184" lon="9.142460174271744"><ele>143.33333333333334</ele><time>2026-03-15T18:33:50.999Z</time></trkpt><trkpt lat="45.5263762603936" lon="9.14220388628355"><ele>144.0</ele><time>2026-03-15T18:33:51.999Z</time></trkpt><trkpt lat="45.52625246526315" lon="9.141948648130423"><ele>143.66666666666666</ele><time>2026-03-15T18:33:52.999Z</time></trkpt><trkpt lat="45.52612827318113" lon="9.141695533965235"><ele>143.33333333333331</ele><time>2026-03-15T18:33:53.999Z</time></trkpt><trkpt lat="45.52600528028273" lon="9.141440347232521"><ele>143.0</ele><time>2026-03-15T18:33:54.999Z</time></trkpt><trkpt lat="45.525879681422595" lon="9.141182797299917"><ele>143.66666666666666</ele><time>2026-03-15T18:33:55.999Z</time></trkpt><trkpt lat="45.5257572451287" lon="9.14092308785186"><ele>144.33333333333334</ele><time>2026-03-15T18:33:56.999Z</time></trkpt><trkpt lat="45.52563209044817" lon="9.140663874722184"><ele>145.0</ele><time>2026-03-15T18:33:57.998Z</time></trkpt><trkpt lat="45.52550662795079" lon="9.140403091099195"><ele>144.66666666666669</ele><time>2026-03-15T18:33:58.998Z</time></trkpt><trkpt lat="45.52537892010988" lon="9.140140653823778"><ele>144.33333333333334</ele><time>2026-03-15T18:33:59.998Z</time></trkpt><trkpt lat="45.525251509662525" lon="9.13987845701069"><ele>144.0</ele><time>2026-03-15T18:34:00.998Z</time></trkpt><trkpt lat="45.52512723138695" lon="9.139613291622613"><ele>143.5</ele><time>2026-03-15T18:34:01.998Z</time></trkpt><trkpt lat="45.524999410691386" lon="9.139346572232794"><ele>143.0</ele><time>2026-03-15T18:34:02.998Z</time></trkpt><trkpt lat="45.52487197077106" lon="9.13908377634797"><ele>143.0</ele><time>2026-03-15T18:34:03.998Z</time></trkpt><trkpt lat="45.52474122543471" lon="9.138822871023974"><ele>143.0</ele><time>2026-03-15T18:34:04.998Z</time></trkpt><trkpt lat="45.52461736474367" lon="9.138565272040685"><ele>143.0</ele><time>2026-03-15T18:34:05.998Z</time></trkpt><trkpt lat="45.52449380196081" lon="9.138308562683157"><ele>142.66666666666666</ele><time>2026-03-15T18:34:06.998Z</time></trkpt><trkpt lat="45.52436591036439" lon="9.138052329273396"><ele>142.33333333333334</ele><time>2026-03-15T18:34:07.998Z</time></trkpt><trkpt lat="45.52424331222419" lon="9.137795263386131"><ele>142.0</ele><time>2026-03-15T18:34:08.998Z</time></trkpt><trkpt lat="45.52411932195304" lon="9.137539036180915"><ele>143.0</ele><time>2026-03-15T18:34:09.998Z</time></trkpt><trkpt lat="45.52399647999263" lon="9.137283410135165"><ele>144.0</ele><time>2026-03-15T18:34:10.998Z</time></trkpt><trkpt lat="45.52387385275927" lon="9.1370267349413"><ele>145.0</ele><time>2026-03-15T18:34:11.998Z</time></trkpt><trkpt lat="45.5237515952086" lon="9.136767656103045"><ele>144.0</ele><time>2026-03-15T18:34:12.998Z</time></trkpt><trkpt lat="45.523629050888275" lon="9.13651088100809"><ele>143.0</ele><time>2026-03-15T18:34:13.998Z</time></trkpt><trkpt lat="45.52350926298766" lon="9.136253460584557"><ele>142.0</ele><time>2026-03-15T18:34:14.998Z</time></trkpt><trkpt lat="45.52339156479453" lon="9.13599366024615"><ele>142.0</ele><time>2026-03-15T18:34:15.998Z</time></trkpt><trkpt lat="45.52326825097774" lon="9.135733385979735"><ele>142.0</ele><time>2026-03-15T18:34:16.998Z</time></trkpt><trkpt lat="45.52314313166355" lon="9.135476716496324"><ele>142.0</ele><time>2026-03-15T18:34:17.998Z</time></trkpt><trkpt lat="45.5230233592439" lon="9.135220720586958"><ele>142.33333333333334</ele><time>2026-03-15T18:34:18.998Z</time></trkpt><trkpt lat="45.52290226197129" lon="9.134967948634243"><ele>142.66666666666666</ele><time>2026-03-15T18:34:19.998Z</time></trkpt><trkpt lat="45.52277660001816" lon="9.134712504601225"><ele>143.0</ele><time>2026-03-15T18:34:20.998Z</time></trkpt><trkpt lat="45.52265106593219" lon="9.134460361049651"><ele>143.0</ele><time>2026-03-15T18:34:21.998Z</time></trkpt><trkpt lat="45.52252651771151" lon="9.134206687639923"><ele>143.0</ele><time>2026-03-15T18:34:22.998Z</time></trkpt><trkpt lat="45.52240330572582" lon="9.133967777073886"><ele>143.0</ele><time>2026-03-15T18:34:23.998Z</time></trkpt><trkpt lat="45.5222869672939" lon="9.133699409103338"><ele>142.0</ele><time>2026-03-15T18:34:24.998Z</time></trkpt><trkpt lat="45.522179377039016" lon="9.133456004679081"><ele>141.0</ele><time>2026-03-15T18:34:25.998Z</time></trkpt><trkpt lat="45.52207708331328" lon="9.133234819764642"><ele>140.0</ele><time>2026-03-15T18:34:26.998Z</time></trkpt><trkpt lat="45.52196824234566" lon="9.133014130996035"><ele>140.0</ele><time>2026-03-15T18:34:27.998Z</time></trkpt><trkpt lat="45.52185865725636" lon="9.132801023463758"><ele>140.0</ele><time>2026-03-15T18:34:28.998Z</time></trkpt><trkpt lat="45.521750027282735" lon="9.132576461688068"><ele>140.0</ele><time>2026-03-15T18:34:29.998Z</time></trkpt><trkpt lat="45.5216415720534" lon="9.132350167381542"><ele>140.0</ele><time>2026-03-15T18:34:30.998Z</time></trkpt><trkpt lat="45.521533171144696" lon="9.132122792632616"><ele>140.0</ele><time>2026-03-15T18:34:31.998Z</time></trkpt><trkpt lat="45.52141856574731" lon="9.131882516199717"><ele>140.0</ele><time>2026-03-15T18:34:32.998Z</time></trkpt><trkpt lat="45.52130543281106" lon="9.131643665979308"><ele>140.66666666666666</ele><time>2026-03-15T18:34:33.998Z</time></trkpt><trkpt lat="45.52119223456164" lon="9.131406518383686"><ele>141.33333333333334</ele><time>2026-03-15T18:34:34.998Z</time></trkpt><trkpt lat="45.521074896339066" lon="9.131167943280204"><ele>142.0</ele><time>2026-03-15T18:34:35.998Z</time></trkpt><trkpt lat="45.52095100534751" lon="9.130922058129753"><ele>141.66666666666669</ele><time>2026-03-15T18:34:36.998Z</time></trkpt><trkpt lat="45.52082987580188" lon="9.130667071285492"><ele>141.33333333333334</ele><time>2026-03-15T18:34:37.998Z</time></trkpt><trkpt lat="45.52070719138315" lon="9.130411085331376"><ele>141.0</ele><time>2026-03-15T18:34:38.998Z</time></trkpt><trkpt lat="45.52058552800559" lon="9.130146345657112"><ele>140.66666666666666</ele><time>2026-03-15T18:34:40Z</time></trkpt><trkpt lat="45.52046502328713" lon="9.129883109939348"><ele>140.33333333333331</ele><time>2026-03-15T18:34:41Z</time></trkpt><trkpt lat="45.52034848314339" lon="9.129625731902207"><ele>140.0</ele><time>2026-03-15T18:34:42Z</time></trkpt><trkpt lat="45.520232035166806" lon="9.12936298999925"><ele>140.0</ele><time>2026-03-15T18:34:43Z</time></trkpt><trkpt lat="45.52011148419566" lon="9.129092739970055"><ele>140.0</ele><time>2026-03-15T18:34:44Z</time></trkpt><trkpt lat="45.51998797982224" lon="9.128827653431642"><ele>140.0</ele><time>2026-03-15T18:34:45Z</time></trkpt><trkpt lat="45.51986436253828" lon="9.128564545062048"><ele>139.66666666666666</ele><time>2026-03-15T18:34:46Z</time></trkpt><trkpt lat="45.5197377876077" lon="9.12830367367662"><ele>139.33333333333334</ele><time>2026-03-15T18:34:47Z</time></trkpt><trkpt lat="45.519616765683054" lon="9.12804923538419"><ele>139.0</ele><time>2026-03-15T18:34:48Z</time></trkpt><trkpt lat="45.519507414670095" lon="9.127815065219545"><ele>139.66666666666669</ele><time>2026-03-15T18:34:49Z</time></trkpt><trkpt lat="45.519403008394484" lon="9.127595174997515"><ele>140.33333333333334</ele><time>2026-03-15T18:34:50Z</time></trkpt><trkpt lat="45.51930452815745" lon="9.127381586235506"><ele>141.0</ele><time>2026-03-15T18:34:51Z</time></trkpt><trkpt lat="45.519206774586884" lon="9.127168094371626"><ele>141.0</ele><time>2026-03-15T18:34:52Z</time></trkpt><trkpt lat="45.519110669175966" lon="9.12696304706584"><ele>141.0</ele><time>2026-03-15T18:34:53Z</time></trkpt><trkpt lat="45.519011074553525" lon="9.126749572675195"><ele>141.0</ele><time>2026-03-15T18:34:54Z</time></trkpt><trkpt lat="45.51891600141476" lon="9.126547283115015"><ele>141.0</ele><time>2026-03-15T18:34:55Z</time></trkpt><trkpt lat="45.51881708918311" lon="9.126347700358222"><ele>141.0</ele><time>2026-03-15T18:34:56Z</time></trkpt><trkpt lat="45.51871665593184" lon="9.126146417591716"><ele>141.0</ele><time>2026-03-15T18:34:57Z</time></trkpt><trkpt lat="45.518624269640554" lon="9.125968458740653"><ele>141.0</ele><time>2026-03-15T18:34:58Z</time></trkpt><trkpt lat="45.518530317746546" lon="9.1257906750182"><ele>141.0</ele><time>2026-03-15T18:34:59Z</time></trkpt><trkpt lat="45.51844220361511" lon="9.125625369238884"><ele>141.0</ele><time>2026-03-15T18:35:00Z</time></trkpt><trkpt lat="45.5183613875237" lon="9.12546980913449"><ele>141.0</ele><time>2026-03-15T18:35:01Z</time></trkpt><trkpt lat="45.518281788781245" lon="9.125311300148322"><ele>141.25</ele><time>2026-03-15T18:35:02Z</time></trkpt><trkpt lat="45.51820226594122" lon="9.125155596445591"><ele>141.5</ele><time>2026-03-15T18:35:03Z</time></trkpt><trkpt lat="45.51812615541089" lon="9.124996787115139"><ele>141.75</ele><time>2026-03-15T18:35:04Z</time></trkpt><trkpt lat="45.518053116401504" lon="9.124839272957276"><ele>142.0</ele><time>2026-03-15T18:35:05Z</time></trkpt><trkpt lat="45.517973836068734" lon="9.12467071304332"><ele>141.75</ele><time>2026-03-15T18:35:06Z</time></trkpt><trkpt lat="45.51789020851663" lon="9.124507312730692"><ele>141.5</ele><time>2026-03-15T18:35:07Z</time></trkpt><trkpt lat="45.51780163685392" lon="9.12435486468453"><ele>141.25</ele><time>2026-03-15T18:35:08Z</time></trkpt><trkpt lat="45.51769678315443" lon="9.124209061378597"><ele>141.0</ele><time>2026-03-15T18:35:09Z</time></trkpt><trkpt lat="45.5175551364859" lon="9.124042815601268"><ele>141.0</ele><time>2026-03-15T18:35:10Z</time></trkpt><trkpt lat="45.517404310593044" lon="9.123890170118651"><ele>141.0</ele><time>2026-03-15T18:35:11Z</time></trkpt><trkpt lat="45.51726362543456" lon="9.123773406172138"><ele>141.0</ele><time>2026-03-15T18:35:12Z</time></trkpt><trkpt lat="45.51713302819398" lon="9.123692362735419"><ele>140.25</ele><time>2026-03-15T18:35:13Z</time></trkpt><trkpt lat="45.51700189780843" lon="9.123630793178284"><ele>139.5</ele><time>2026-03-15T18:35:14Z</time></trkpt><trkpt lat="45.51686953317022" lon="9.123586022232395"><ele>138.75</ele><time>2026-03-15T18:35:15Z</time></trkpt><trkpt lat="45.516727233096795" lon="9.123542680499371"><ele>138.0</ele><time>2026-03-15T18:35:16Z</time></trkpt><trkpt lat="45.51658525803985" lon="9.123497261362237"><ele>138.0</ele><time>2026-03-15T18:35:17Z</time></trkpt><trkpt lat="45.516444878270846" lon="9.123451048937447"><ele>138.0</ele><time>2026-03-15T18:35:18Z</time></trkpt><trkpt lat="45.516297141198216" lon="9.12340087004749"><ele>138.0</ele><time>2026-03-15T18:35:19Z</time></trkpt><trkpt lat="45.51613766671266" lon="9.12335050322727"><ele>138.33333333333334</ele><time>2026-03-15T18:35:20Z</time></trkpt><trkpt lat="45.51597083905707" lon="9.123299404823937"><ele>138.66666666666669</ele><time>2026-03-15T18:35:21Z</time></trkpt><trkpt lat="45.51581889840781" lon="9.12325514683906"><ele>139.0</ele><time>2026-03-15T18:35:22Z</time></trkpt><trkpt lat="45.51566586672243" lon="9.123209717940085"><ele>139.33333333333334</ele><time>2026-03-15T18:35:23Z</time></trkpt><trkpt lat="45.51549905717314" lon="9.123160046001024"><ele>139.66666666666666</ele><time>2026-03-15T18:35:24Z</time></trkpt><trkpt lat="45.515328706544935" lon="9.123110410433853"><ele>140.0</ele><time>2026-03-15T18:35:25Z</time></trkpt><trkpt lat="45.51515445704609" lon="9.12305559397565"><ele>140.75</ele><time>2026-03-15T18:35:26Z</time></trkpt><trkpt lat="45.515000279498615" lon="9.123015389417807"><ele>141.5</ele><time>2026-03-15T18:35:27Z</time></trkpt><trkpt lat="45.51485947631825" lon="9.12297396632787"><ele>142.25</ele><time>2026-03-15T18:35:28Z</time></trkpt><trkpt lat="45.51471963413025" lon="9.1229444711862"><ele>143.0</ele><time>2026-03-15T18:35:29Z</time></trkpt><trkpt lat="45.514583433881924" lon="9.122952920873903"><ele>142.25</ele><time>2026-03-15T18:35:30Z</time></trkpt><trkpt lat="45.514442321847405" lon="9.122988161210895"><ele>141.5</ele><time>2026-03-15T18:35:31Z</time></trkpt><trkpt lat="45.51430470039594" lon="9.123042407706988"><ele>140.75</ele><time>2026-03-15T18:35:32Z</time></trkpt><trkpt lat="45.51417284238798" lon="9.12313800988679"><ele>140.0</ele><time>2026-03-15T18:35:33Z</time></trkpt><trkpt lat="45.5140508162925" lon="9.123254092751637"><ele>140.0</ele><time>2026-03-15T18:35:33.999Z</time></trkpt><trkpt lat="45.51393644697216" lon="9.123392702121045"><ele>140.0</ele><time>2026-03-15T18:35:34.999Z</time></trkpt><trkpt lat="45.513830606915654" lon="9.123553561827444"><ele>140.0</ele><time>2026-03-15T18:35:35.999Z</time></trkpt><trkpt lat="45.5137314426654" lon="9.123730527120282"><ele>139.66666666666666</ele><time>2026-03-15T18:35:36.999Z</time></trkpt><trkpt lat="45.513633573172754" lon="9.123899335785085"><ele>139.33333333333334</ele><time>2026-03-15T18:35:37.999Z</time></trkpt><trkpt lat="45.513530216614505" lon="9.124071189758768"><ele>139.0</ele><time>2026-03-15T18:35:38.999Z</time></trkpt><trkpt lat="45.51341831103307" lon="9.124253764698413"><ele>139.0</ele><time>2026-03-15T18:35:39.999Z</time></trkpt><trkpt lat="45.513303093595255" lon="9.124435556224865"><ele>139.0</ele><time>2026-03-15T18:35:40.999Z</time></trkpt><trkpt lat="45.51319026454533" lon="9.124623508247225"><ele>139.0</ele><time>2026-03-15T18:35:41.999Z</time></trkpt><trkpt lat="45.51308032986338" lon="9.124797530078776"><ele>138.66666666666669</ele><time>2026-03-15T18:35:42.999Z</time></trkpt><trkpt lat="45.512954113528245" lon="9.12496383145256"><ele>138.33333333333334</ele><time>2026-03-15T18:35:43.999Z</time></trkpt><trkpt lat="45.5128438123391" lon="9.125170006489947"><ele>138.0</ele><time>2026-03-15T18:35:44.999Z</time></trkpt><trkpt lat="45.51272088399154" lon="9.12536814137935"><ele>138.0</ele><time>2026-03-15T18:35:45.999Z</time></trkpt><trkpt lat="45.512594711376046" lon="9.125574003989145"><ele>138.0</ele><time>2026-03-15T18:35:46.999Z</time></trkpt><trkpt lat="45.512476663497814" lon="9.12577158576406"><ele>138.0</ele><time>2026-03-15T18:35:47.999Z</time></trkpt><trkpt lat="45.51235628874732" lon="9.125970526608423"><ele>138.0</ele><time>2026-03-15T18:35:48.999Z</time></trkpt><trkpt lat="45.51222978622987" lon="9.126182276396525"><ele>138.0</ele><time>2026-03-15T18:35:49.999Z</time></trkpt><trkpt lat="45.51209725708756" lon="9.126394082693887"><ele>138.0</ele><time>2026-03-15T18:35:50.999Z</time></trkpt><trkpt lat="45.5119589273925" lon="9.126603209079397"><ele>137.66666666666666</ele><time>2026-03-15T18:35:51.999Z</time></trkpt><trkpt lat="45.51182069125659" lon="9.126807573022372"><ele>137.33333333333331</ele><time>2026-03-15T18:35:52.999Z</time></trkpt><trkpt lat="45.51165774710802" lon="9.127049147519376"><ele>137.0</ele><time>2026-03-15T18:35:53.999Z</time></trkpt><trkpt lat="45.51146288887088" lon="9.127338193588557"><ele>137.5</ele><time>2026-03-15T18:35:54.999Z</time></trkpt><trkpt lat="45.51124364212578" lon="9.127667292300645"><ele>138.0</ele><time>2026-03-15T18:35:55.999Z</time></trkpt><trkpt lat="45.51101191091536" lon="9.128019818970282"><ele>136.5</ele><time>2026-03-15T18:35:56.998Z</time></trkpt><trkpt lat="45.51078170601598" lon="9.128369126134007"><ele>135.0</ele><time>2026-03-15T18:35:57.998Z</time></trkpt><trkpt lat="45.510571974831024" lon="9.128672346079327"><ele>136.5</ele><time>2026-03-15T18:35:58.998Z</time></trkpt><trkpt lat="45.51035914267693" lon="9.12893552662512"><ele>138.0</ele><time>2026-03-15T18:35:59.998Z</time></trkpt><trkpt lat="45.51012962983646" lon="9.129168388284384"><ele>138.0</ele><time>2026-03-15T18:36:00.998Z</time></trkpt><trkpt lat="45.50988881885088" lon="9.129367040781972"><ele>138.0</ele><time>2026-03-15T18:36:01.998Z</time></trkpt><trkpt lat="45.50963582860296" lon="9.129538835548932"><ele>137.0</ele><time>2026-03-15T18:36:02.998Z</time></trkpt><trkpt lat="45.5093780502689" lon="9.129682482731809"><ele>136.0</ele><time>2026-03-15T18:36:03.998Z</time></trkpt><trkpt lat="45.50911629533837" lon="9.129793481198508"><ele>136.0</ele><time>2026-03-15T18:36:04.998Z</time></trkpt><trkpt lat="45.508847594059645" lon="9.129872782761959"><ele>136.0</ele><time>2026-03-15T18:36:05.998Z</time></trkpt><trkpt lat="45.508568224524254" lon="9.1299366854416"><ele>139.0</ele><time>2026-03-15T18:36:06.998Z</time></trkpt><trkpt lat="45.508303196427626" lon="9.129988605512874"><ele>142.0</ele><time>2026-03-15T18:36:07.998Z</time></trkpt><trkpt lat="45.50806458788446" lon="9.130043687736435"><ele>141.0</ele><time>2026-03-15T18:36:08.998Z</time></trkpt><trkpt lat="45.50784487159355" lon="9.130098685787818"><ele>140.0</ele><time>2026-03-15T18:36:09.998Z</time></trkpt><trkpt lat="45.507633643030566" lon="9.130147048419062"><ele>139.0</ele><time>2026-03-15T18:36:10.998Z</time></trkpt><trkpt lat="45.50741244953338" lon="9.130197616460055"><ele>139.0</ele><time>2026-03-15T18:36:11.998Z</time></trkpt><trkpt lat="45.50717943657106" lon="9.130252798313764"><ele>139.0</ele><time>2026-03-15T18:36:12.998Z</time></trkpt><trkpt lat="45.506932438736236" lon="9.130308697428033"><ele>138.0</ele><time>2026-03-15T18:36:13.998Z</time></trkpt><trkpt lat="45.50666976933376" lon="9.130369050651264"><ele>137.0</ele><time>2026-03-15T18:36:14.998Z</time></trkpt><trkpt lat="45.506418769216864" lon="9.130420092958882"><ele>137.5</ele><time>2026-03-15T18:36:15.998Z</time></trkpt><trkpt lat="45.50617766970292" lon="9.130463225183693"><ele>138.0</ele><time>2026-03-15T18:36:16.997Z</time></trkpt><trkpt lat="45.505931700743076" lon="9.130497763761747"><ele>138.0</ele><time>2026-03-15T18:36:17.997Z</time></trkpt><trkpt lat="45.50568041415517" lon="9.130525358060337"><ele>138.0</ele><time>2026-03-15T18:36:18.997Z</time></trkpt><trkpt lat="45.5054354841776" lon="9.130549540644127"><ele>137.5</ele><time>2026-03-15T18:36:19.997Z</time></trkpt><trkpt lat="45.50520346094986" lon="9.130571342478811"><ele>137.0</ele><time>2026-03-15T18:36:20.997Z</time></trkpt><trkpt lat="45.50497956926683" lon="9.130585958905584"><ele>137.0</ele><time>2026-03-15T18:36:21.997Z</time></trkpt><trkpt lat="45.50475589203376" lon="9.130595362555898"><ele>137.0</ele><time>2026-03-15T18:36:22.997Z</time></trkpt><trkpt lat="45.50454428326204" lon="9.130599334632135"><ele>137.0</ele><time>2026-03-15T18:36:23.997Z</time></trkpt><trkpt lat="45.50435133009921" lon="9.130599836584295"><ele>136.0</ele><time>2026-03-15T18:36:24.997Z</time></trkpt><trkpt lat="45.50416417153051" lon="9.130604865766403"><ele>135.0</ele><time>2026-03-15T18:36:25.997Z</time></trkpt><trkpt lat="45.50398045600021" lon="9.13061612228782"><ele>134.0</ele><time>2026-03-15T18:36:26.997Z</time></trkpt><trkpt lat="45.50379322063439" lon="9.130616688333474"><ele>133.66666666666666</ele><time>2026-03-15T18:36:27.997Z</time></trkpt><trkpt lat="45.5036142560134" lon="9.130604733971113"><ele>133.33333333333334</ele><time>2026-03-15T18:36:28.997Z</time></trkpt><trkpt lat="45.50343872811921" lon="9.130587962447828"><ele>133.0</ele><time>2026-03-15T18:36:29.997Z</time></trkpt><trkpt lat="45.50326463589633" lon="9.13057033568595"><ele>133.0</ele><time>2026-03-15T18:36:30.997Z</time></trkpt><trkpt lat="45.50309299633309" lon="9.130554169100563"><ele>133.0</ele><time>2026-03-15T18:36:31.997Z</time></trkpt><trkpt lat="45.50291497388443" lon="9.130534368642483"><ele>133.0</ele><time>2026-03-15T18:36:32.997Z</time></trkpt><trkpt lat="45.5027331008734" lon="9.130510045785458"><ele>133.66666666666669</ele><time>2026-03-15T18:36:33.997Z</time></trkpt><trkpt lat="45.50255540074244" lon="9.130486266852069"><ele>134.33333333333334</ele><time>2026-03-15T18:36:34.997Z</time></trkpt><trkpt lat="45.50238267100198" lon="9.130458290186713"><ele>135.0</ele><time>2026-03-15T18:36:35.997Z</time></trkpt><trkpt lat="45.502195183922105" lon="9.130419239383922"><ele>134.5</ele><time>2026-03-15T18:36:36.997Z</time></trkpt><trkpt lat="45.5019862405285" lon="9.130382944817672"><ele>134.0</ele><time>2026-03-15T18:36:37.997Z</time></trkpt><trkpt lat="45.501744755731494" lon="9.130356729747673"><ele>134.0</ele><time>2026-03-15T18:36:38.997Z</time></trkpt><trkpt lat="45.50152309082076" lon="9.130345969888875"><ele>134.0</ele><time>2026-03-15T18:36:39.997Z</time></trkpt><trkpt lat="45.50132587883312" lon="9.130343110288894"><ele>134.0</ele><time>2026-03-15T18:36:40.997Z</time></trkpt><trkpt lat="45.50115383867533" lon="9.130341286471726"><ele>135.33333333333331</ele><time>2026-03-15T18:36:41.997Z</time></trkpt><trkpt lat="45.50099369031323" lon="9.13034185004352"><ele>136.66666666666666</ele><time>2026-03-15T18:36:42.997Z</time></trkpt><trkpt lat="45.500832956676085" lon="9.130346433481375"><ele>138.0</ele><time>2026-03-15T18:36:43.997Z</time></trkpt><trkpt lat="45.50066495669543" lon="9.130355184714222"><ele>138.0</ele><time>2026-03-15T18:36:45Z</time></trkpt><trkpt lat="45.50049822707433" lon="9.130363867396337"><ele>138.0</ele><time>2026-03-15T18:36:46Z</time></trkpt><trkpt lat="45.500325963505226" lon="9.13037502096432"><ele>138.0</ele><time>2026-03-15T18:36:47Z</time></trkpt><trkpt lat="45.50015192199194" lon="9.130389929341709"><ele>138.0</ele><time>2026-03-15T18:36:48Z</time></trkpt><trkpt lat="45.49998223485709" lon="9.13040090194062"><ele>138.0</ele><time>2026-03-15T18:36:49Z</time></trkpt><trkpt lat="45.49981919516698" lon="9.130405592871229"><ele>138.0</ele><time>2026-03-15T18:36:50Z</time></trkpt><trkpt lat="45.49964962915015" lon="9.130406527326274"><ele>137.0</ele><time>2026-03-15T18:36:51Z</time></trkpt><trkpt lat="45.49948423741582" lon="9.130409579504073"><ele>136.0</ele><time>2026-03-15T18:36:52Z</time></trkpt><trkpt lat="45.4993151630711" lon="9.13041446352457"><ele>135.0</ele><time>2026-03-15T18:36:53Z</time></trkpt><trkpt lat="45.49913611180811" lon="9.1304199419261"><ele>135.0</ele><time>2026-03-15T18:36:54Z</time></trkpt><trkpt lat="45.498967736767526" lon="9.130426788251098"><ele>135.0</ele><time>2026-03-15T18:36:55Z</time></trkpt><trkpt lat="45.49879066817063" lon="9.13043209828891"><ele>135.0</ele><time>2026-03-15T18:36:56Z</time></trkpt><trkpt lat="45.498619682853715" lon="9.130432609856237"><ele>135.33333333333334</ele><time>2026-03-15T18:36:57Z</time></trkpt><trkpt lat="45.49844839383197" lon="9.13042535617157"><ele>135.66666666666669</ele><time>2026-03-15T18:36:58Z</time></trkpt><trkpt lat="45.49827404620731" lon="9.130417697161054"><ele>136.0</ele><time>2026-03-15T18:36:59Z</time></trkpt><trkpt lat="45.49810863077955" lon="9.130414906507802"><ele>136.0</ele><time>2026-03-15T18:37:00Z</time></trkpt><trkpt lat="45.49793795524362" lon="9.130414974277555"><ele>136.0</ele><time>2026-03-15T18:37:01Z</time></trkpt><trkpt lat="45.49776833813494" lon="9.130410511519129"><ele>136.0</ele><time>2026-03-15T18:37:02Z</time></trkpt><trkpt lat="45.49761631515158" lon="9.130401591891994"><ele>135.75</ele><time>2026-03-15T18:37:03Z</time></trkpt><trkpt lat="45.49747958574084" lon="9.130393885417702"><ele>135.5</ele><time>2026-03-15T18:37:04Z</time></trkpt><trkpt lat="45.49735313397116" lon="9.130382932774959"><ele>135.25</ele><time>2026-03-15T18:37:05Z</time></trkpt><trkpt lat="45.49720862421501" lon="9.130373208827194"><ele>135.0</ele><time>2026-03-15T18:37:06Z</time></trkpt><trkpt lat="45.497066194325186" lon="9.13036076489722"><ele>135.0</ele><time>2026-03-15T18:37:06.999Z</time></trkpt><trkpt lat="45.49692633582665" lon="9.130350856071002"><ele>135.0</ele><time>2026-03-15T18:37:07.999Z</time></trkpt><trkpt lat="45.49677791044806" lon="9.130337374144494"><ele>135.0</ele><time>2026-03-15T18:37:08.999Z</time></trkpt><trkpt lat="45.496623560608185" lon="9.130321832371564"><ele>135.0</ele><time>2026-03-15T18:37:09.999Z</time></trkpt><trkpt lat="45.4964653173835" lon="9.130309569303858"><ele>135.0</ele><time>2026-03-15T18:37:10.999Z</time></trkpt><trkpt lat="45.49630528175533" lon="9.130299053064745"><ele>135.0</ele><time>2026-03-15T18:37:11.999Z</time></trkpt><trkpt lat="45.49614720954308" lon="9.130289008787196"><ele>135.0</ele><time>2026-03-15T18:37:12.999Z</time></trkpt><trkpt lat="45.49600008677881" lon="9.130285622617313"><ele>134.5</ele><time>2026-03-15T18:37:13.999Z</time></trkpt><trkpt lat="45.49586024405441" lon="9.130286046391507"><ele>134.0</ele><time>2026-03-15T18:37:14.999Z</time></trkpt><trkpt lat="45.495720436764735" lon="9.130299598514597"><ele>133.5</ele><time>2026-03-15T18:37:15.999Z</time></trkpt><trkpt lat="45.49558313797673" lon="9.130331759231442"><ele>133.0</ele><time>2026-03-15T18:37:16.999Z</time></trkpt><trkpt lat="45.49544678296247" lon="9.130383208086878"><ele>133.25</ele><time>2026-03-15T18:37:17.999Z</time></trkpt><trkpt lat="45.495311322731666" lon="9.130457130725537"><ele>133.5</ele><time>2026-03-15T18:37:18.999Z</time></trkpt><trkpt lat="45.49517756681605" lon="9.130549376833853"><ele>133.75</ele><time>2026-03-15T18:37:19.999Z</time></trkpt><trkpt lat="45.495053632529775" lon="9.130660737934338"><ele>134.0</ele><time>2026-03-15T18:37:20.999Z</time></trkpt><trkpt lat="45.49493665785084" lon="9.130787162140717"><ele>134.0</ele><time>2026-03-15T18:37:21.999Z</time></trkpt><trkpt lat="45.49482737442042" lon="9.13092821406018"><ele>134.0</ele><time>2026-03-15T18:37:22.999Z</time></trkpt><trkpt lat="45.49472411830342" lon="9.131093948226383"><ele>134.0</ele><time>2026-03-15T18:37:23.999Z</time></trkpt><trkpt lat="45.49463354245147" lon="9.131272809391309"><ele>134.0</ele><time>2026-03-15T18:37:24.999Z</time></trkpt><trkpt lat="45.494546564840356" lon="9.131471454776205"><ele>134.0</ele><time>2026-03-15T18:37:25.999Z</time></trkpt><trkpt lat="45.49446274448517" lon="9.13168034916627"><ele>134.0</ele><time>2026-03-15T18:37:26.999Z</time></trkpt><trkpt lat="45.4943736182262" lon="9.131898786019617"><ele>134.0</ele><time>2026-03-15T18:37:27.999Z</time></trkpt><trkpt lat="45.49428057244828" lon="9.132125851814017"><ele>134.0</ele><time>2026-03-15T18:37:28.999Z</time></trkpt><trkpt lat="45.49419391369927" lon="9.13234628022156"><ele>134.0</ele><time>2026-03-15T18:37:29.999Z</time></trkpt><trkpt lat="45.4941090557606" lon="9.132553560190129"><ele>134.0</ele><time>2026-03-15T18:37:30.999Z</time></trkpt><trkpt lat="45.494021739528954" lon="9.132762419707063"><ele>134.0</ele><time>2026-03-15T18:37:31.999Z</time></trkpt><trkpt lat="45.49392585119601" lon="9.132988231719278"><ele>134.0</ele><time>2026-03-15T18:37:32.999Z</time></trkpt><trkpt lat="45.493828355598254" lon="9.133216110655155"><ele>135.0</ele><time>2026-03-15T18:37:33.999Z</time></trkpt><trkpt lat="45.493737873556746" lon="9.133418213984687"><ele>136.0</ele><time>2026-03-15T18:37:34.999Z</time></trkpt><trkpt lat="45.49364627001154" lon="9.133603179729455"><ele>137.0</ele><time>2026-03-15T18:37:35.999Z</time></trkpt><trkpt lat="45.49353541497755" lon="9.133802012262166"><ele>137.0</ele><time>2026-03-15T18:37:36.999Z</time></trkpt><trkpt lat="45.493404860139236" lon="9.134051841807528"><ele>137.0</ele><time>2026-03-15T18:37:37.999Z</time></trkpt><trkpt lat="45.493280076751965" lon="9.134346517867641"><ele>136.5</ele><time>2026-03-15T18:37:38.999Z</time></trkpt><trkpt lat="45.49317033576078" lon="9.134671281307021"><ele>136.0</ele><time>2026-03-15T18:37:39.999Z</time></trkpt><trkpt lat="45.493043649541846" lon="9.135014201091435"><ele>137.5</ele><time>2026-03-15T18:37:40.999Z</time></trkpt><trkpt lat="45.492892360745465" lon="9.135337015050649"><ele>139.0</ele><time>2026-03-15T18:37:41.999Z</time></trkpt><trkpt lat="45.492760650361404" lon="9.135625396911104"><ele>137.33333333333334</ele><time>2026-03-15T18:37:42.999Z</time></trkpt><trkpt lat="45.49264352541765" lon="9.135896707918075"><ele>135.66666666666666</ele><time>2026-03-15T18:37:43.999Z</time></trkpt><trkpt lat="45.4925265741159" lon="9.136129402472706"><ele>134.0</ele><time>2026-03-15T18:37:44.999Z</time></trkpt><trkpt lat="45.49239944744901" lon="9.136340022267857"><ele>134.0</ele><time>2026-03-15T18:37:45.999Z</time></trkpt><trkpt lat="45.492254140906546" lon="9.13653936354245"><ele>134.0</ele><time>2026-03-15T18:37:46.999Z</time></trkpt><trkpt lat="45.49209201985312" lon="9.136730252322927"><ele>134.0</ele><time>2026-03-15T18:37:47.999Z</time></trkpt><trkpt lat="45.491922799837354" lon="9.136899724597084"><ele>134.33333333333331</ele><time>2026-03-15T18:37:48.999Z</time></trkpt><trkpt lat="45.49176664513752" lon="9.137054855906129"><ele>134.66666666666666</ele><time>2026-03-15T18:37:49.999Z</time></trkpt><trkpt lat="45.49161102693058" lon="9.137221486176221"><ele>135.0</ele><time>2026-03-15T18:37:50.998Z</time></trkpt><trkpt lat="45.49144937274426" lon="9.137397987728447"><ele>131.5</ele><time>2026-03-15T18:37:51.998Z</time></trkpt><trkpt lat="45.49126899873314" lon="9.137592228612998"><ele>128.0</ele><time>2026-03-15T18:37:52.998Z</time></trkpt><trkpt lat="45.491071465141445" lon="9.137799380976691"><ele>128.0</ele><time>2026-03-15T18:37:53.998Z</time></trkpt><trkpt lat="45.49086333033604" lon="9.138022741400727"><ele>128.0</ele><time>2026-03-15T18:37:54.998Z</time></trkpt><trkpt lat="45.490650469602635" lon="9.138259144952247"><ele>128.0</ele><time>2026-03-15T18:37:55.998Z</time></trkpt><trkpt lat="45.490435177332564" lon="9.13851345611134"><ele>128.0</ele><time>2026-03-15T18:37:56.998Z</time></trkpt><trkpt lat="45.490220546070276" lon="9.138777897721047"><ele>127.0</ele><time>2026-03-15T18:37:57.998Z</time></trkpt><trkpt lat="45.490010195968885" lon="9.139046092655544"><ele>126.0</ele><time>2026-03-15T18:37:58.998Z</time></trkpt><trkpt lat="45.489800542680015" lon="9.139317370794807"><ele>125.0</ele><time>2026-03-15T18:37:59.998Z</time></trkpt><trkpt lat="45.48959059521851" lon="9.139588236912578"><ele>124.0</ele><time>2026-03-15T18:38:00.998Z</time></trkpt><trkpt lat="45.48938525870375" lon="9.13985577639637"><ele>124.0</ele><time>2026-03-15T18:38:01.998Z</time></trkpt><trkpt lat="45.4891853473812" lon="9.14011474608855"><ele>124.0</ele><time>2026-03-15T18:38:02.998Z</time></trkpt><trkpt lat="45.48899118623208" lon="9.140369022746468"><ele>124.0</ele><time>2026-03-15T18:38:03.998Z</time></trkpt><trkpt lat="45.488810641904415" lon="9.140606446316305"><ele>124.0</ele><time>2026-03-15T18:38:04.998Z</time></trkpt><trkpt lat="45.488644408361544" lon="9.140826646193844"><ele>125.0</ele><time>2026-03-15T18:38:05.998Z</time></trkpt><trkpt lat="45.48847872320776" lon="9.141043082572992"><ele>126.0</ele><time>2026-03-15T18:38:06.998Z</time></trkpt><trkpt lat="45.48831264650939" lon="9.141260400252422"><ele>126.0</ele><time>2026-03-15T18:38:07.998Z</time></trkpt><trkpt lat="45.48814762850872" lon="9.141477224212338"><ele>126.0</ele><time>2026-03-15T18:38:08.998Z</time></trkpt><trkpt lat="45.487984756089645" lon="9.141692877947522"><ele>126.0</ele><time>2026-03-15T18:38:09.998Z</time></trkpt><trkpt lat="45.487815025419735" lon="9.14192222496126"><ele>127.0</ele><time>2026-03-15T18:38:10.998Z</time></trkpt><trkpt lat="45.48765580157801" lon="9.142134082859553"><ele>128.0</ele><time>2026-03-15T18:38:11.998Z</time></trkpt><trkpt lat="45.48750119280051" lon="9.142336379521169"><ele>129.0</ele><time>2026-03-15T18:38:12.998Z</time></trkpt><trkpt lat="45.48734808069534" lon="9.142535256007745"><ele>129.33333333333334</ele><time>2026-03-15T18:38:13.998Z</time></trkpt><trkpt lat="45.48720955542947" lon="9.142720100433204"><ele>129.66666666666669</ele><time>2026-03-15T18:38:14.998Z</time></trkpt><trkpt lat="45.487081987261945" lon="9.142893824511082"><ele>130.0</ele><time>2026-03-15T18:38:15.998Z</time></trkpt><trkpt lat="45.48694242588649" lon="9.143080604501911"><ele>129.66666666666669</ele><time>2026-03-15T18:38:16.998Z</time></trkpt><trkpt lat="45.48680132553226" lon="9.143261474639885"><ele>129.33333333333334</ele><time>2026-03-15T18:38:17.998Z</time></trkpt><trkpt lat="45.48664160558787" lon="9.143450331988516"><ele>129.0</ele><time>2026-03-15T18:38:18.998Z</time></trkpt><trkpt lat="45.486461387820036" lon="9.143670830720886"><ele>129.0</ele><time>2026-03-15T18:38:19.998Z</time></trkpt><trkpt lat="45.48627200120603" lon="9.143936148923835"><ele>129.0</ele><time>2026-03-15T18:38:20.998Z</time></trkpt><trkpt lat="45.48608259649349" lon="9.144213811442498"><ele>128.5</ele><time>2026-03-15T18:38:21.998Z</time></trkpt><trkpt lat="45.485889827539346" lon="9.144489630954919"><ele>128.0</ele><time>2026-03-15T18:38:22.998Z</time></trkpt><trkpt lat="45.48570693820655" lon="9.144730881554052"><ele>127.0</ele><time>2026-03-15T18:38:23.998Z</time></trkpt><trkpt lat="45.48554130231597" lon="9.144953317261734"><ele>126.0</ele><time>2026-03-15T18:38:24.998Z</time></trkpt><trkpt lat="45.48537633648362" lon="9.145185673695002"><ele>126.33333333333334</ele><time>2026-03-15T18:38:25.998Z</time></trkpt><trkpt lat="45.48522147831123" lon="9.145353076633766"><ele>126.66666666666667</ele><time>2026-03-15T18:38:26.998Z</time></trkpt><trkpt lat="45.4850827858118" lon="9.145553499040487"><ele>127.0</ele><time>2026-03-15T18:38:27.998Z</time></trkpt><trkpt lat="45.4849544303919" lon="9.145723769056067"><ele>127.0</ele><time>2026-03-15T18:38:28.998Z</time></trkpt><trkpt lat="45.48483076580987" lon="9.14588630155519"><ele>127.0</ele><time>2026-03-15T18:38:29.998Z</time></trkpt><trkpt lat="45.48468657404541" lon="9.14607067027373"><ele>127.0</ele><time>2026-03-15T18:38:30.998Z</time></trkpt><trkpt lat="45.48452209672422" lon="9.146286002889388"><ele>127.5</ele><time>2026-03-15T18:38:31.998Z</time></trkpt><trkpt lat="45.484346485539106" lon="9.146512223830388"><ele>128.0</ele><time>2026-03-15T18:38:32.998Z</time></trkpt><trkpt lat="45.4841644542038" lon="9.146745799089446"><ele>128.0</ele><time>2026-03-15T18:38:33.998Z</time></trkpt><trkpt lat="45.483999434999305" lon="9.146950243027721"><ele>128.0</ele><time>2026-03-15T18:38:34.997Z</time></trkpt><trkpt lat="45.48384987342865" lon="9.147141358604875"><ele>128.0</ele><time>2026-03-15T18:38:35.997Z</time></trkpt><trkpt lat="45.48371079373715" lon="9.14731752230298"><ele>129.66666666666666</ele><time>2026-03-15T18:38:36.997Z</time></trkpt><trkpt lat="45.483582247300475" lon="9.147484302364575"><ele>131.33333333333334</ele><time>2026-03-15T18:38:37.997Z</time></trkpt><trkpt lat="45.48345445837141" lon="9.147646656734185"><ele>133.0</ele><time>2026-03-15T18:38:38.997Z</time></trkpt><trkpt lat="45.48334482563457" lon="9.147798016647632"><ele>133.0</ele><time>2026-03-15T18:38:39.997Z</time></trkpt><trkpt lat="45.48323633793709" lon="9.147953588926908"><ele>133.0</ele><time>2026-03-15T18:38:40.997Z</time></trkpt><trkpt lat="45.48313065340208" lon="9.148105577229275"><ele>133.0</ele><time>2026-03-15T18:38:41.997Z</time></trkpt><trkpt lat="45.48301898221857" lon="9.148249500914888"><ele>131.66666666666669</ele><time>2026-03-15T18:38:42.997Z</time></trkpt><trkpt lat="45.482901247782344" lon="9.148404026006476"><ele>130.33333333333334</ele><time>2026-03-15T18:38:43.997Z</time></trkpt><trkpt lat="45.48278266556976" lon="9.14855415869487"><ele>129.0</ele><time>2026-03-15T18:38:44.997Z</time></trkpt><trkpt lat="45.482651857373014" lon="9.148675189552886"><ele>129.0</ele><time>2026-03-15T18:38:45.997Z</time></trkpt><trkpt lat="45.4825603396527" lon="9.148786827995774"><ele>129.0</ele><time>2026-03-15T18:38:46.997Z</time></trkpt><trkpt lat="45.482484565762825" lon="9.148882490654785"><ele>129.0</ele><time>2026-03-15T18:38:47.997Z</time></trkpt><trkpt lat="45.48241005835687" lon="9.148979200808663"><ele>129.0</ele><time>2026-03-15T18:38:48.997Z</time></trkpt><trkpt lat="45.482348282987466" lon="9.149062615794266"><ele>129.0</ele><time>2026-03-15T18:38:50Z</time></trkpt><trkpt lat="45.48231847368526" lon="9.149159216608561"><ele>129.0</ele><time>2026-03-15T18:38:51Z</time></trkpt><trkpt lat="45.48226812094572" lon="9.149229594232247"><ele>129.0</ele><time>2026-03-15T18:38:52Z</time></trkpt><trkpt lat="45.48220807170749" lon="9.14932187621541"><ele>129.0</ele><time>2026-03-15T18:38:53Z</time></trkpt><trkpt lat="45.482130297162904" lon="9.149434773862358"><ele>129.0</ele><time>2026-03-15T18:38:54Z</time></trkpt><trkpt lat="45.4820500342706" lon="9.149544764438902"><ele>129.0</ele><time>2026-03-15T18:38:55Z</time></trkpt><trkpt lat="45.48198167310204" lon="9.14963302141127"><ele>129.0</ele><time>2026-03-15T18:38:56Z</time></trkpt><trkpt lat="45.481918771345676" lon="9.149710590435964"><ele>129.0</ele><time>2026-03-15T18:38:57Z</time></trkpt><trkpt lat="45.48186355581656" lon="9.14977076966548"><ele>129.0</ele><time>2026-03-15T18:38:58Z</time></trkpt><trkpt lat="45.48181114117234" lon="9.149824178768968"><ele>129.0</ele><time>2026-03-15T18:38:59Z</time></trkpt><trkpt lat="45.48175573404507" lon="9.149877184725106"><ele>129.0</ele><time>2026-03-15T18:39:00Z</time></trkpt><trkpt lat="45.48167793154369" lon="9.14997032590735"><ele>129.0</ele><time>2026-03-15T18:39:01Z</time></trkpt><trkpt lat="45.48155423875145" lon="9.150123964140295"><ele>128.8</ele><time>2026-03-15T18:39:02Z</time></trkpt><trkpt lat="45.48144582545857" lon="9.150270353783144"><ele>128.60000000000002</ele><time>2026-03-15T18:39:03Z</time></trkpt><trkpt lat="45.48136423742691" lon="9.15038532283776"><ele>128.4</ele><time>2026-03-15T18:39:04Z</time></trkpt><trkpt lat="45.48129655660507" lon="9.150476786388795"><ele>128.20000000000002</ele><time>2026-03-15T18:39:05Z</time></trkpt><trkpt lat="45.48123327104528" lon="9.15055896970859"><ele>128.0</ele><time>2026-03-15T18:39:06Z</time></trkpt><trkpt lat="45.48118251643131" lon="9.150625481649394"><ele>128.0</ele><time>2026-03-15T18:39:07Z</time></trkpt><trkpt lat="45.4811322590141" lon="9.150692574054396"><ele>128.0</ele><time>2026-03-15T18:39:09Z</time></trkpt><trkpt lat="45.481057088264045" lon="9.150754240574352"><ele>128.0</ele><time>2026-03-15T18:39:15Z</time></trkpt><trkpt lat="45.48100079381442" lon="9.150832039206502"><ele>128.0</ele><time>2026-03-15T18:39:17Z</time></trkpt><trkpt lat="45.480930778568286" lon="9.150956524918607"><ele>128.0</ele><time>2026-03-15T18:40:24.998Z</time></trkpt><trkpt lat="45.48083163635344" lon="9.151080374929982"><ele>128.5</ele><time>2026-03-15T18:40:25.998Z</time></trkpt><trkpt lat="45.480730423823395" lon="9.151223693365656"><ele>129.0</ele><time>2026-03-15T18:40:26.998Z</time></trkpt><trkpt lat="45.48063063418297" lon="9.151360241231993"><ele>129.5</ele><time>2026-03-15T18:40:27.998Z</time></trkpt><trkpt lat="45.480549591993494" lon="9.151469384648124"><ele>130.0</ele><time>2026-03-15T18:40:28.998Z</time></trkpt><trkpt lat="45.48048389150586" lon="9.151548051531549"><ele>129.75</ele><time>2026-03-15T18:40:29.998Z</time></trkpt><trkpt lat="45.480421588343006" lon="9.151600210088562"><ele>129.5</ele><time>2026-03-15T18:40:30.998Z</time></trkpt><trkpt lat="45.48032707323358" lon="9.15162370602337"><ele>129.25</ele><time>2026-03-15T18:40:31.998Z</time></trkpt><trkpt lat="45.48018401044475" lon="9.151620978608136"><ele>129.0</ele><time>2026-03-15T18:40:32.998Z</time></trkpt><trkpt lat="45.479994762214055" lon="9.151621588080145"><ele>129.0</ele><time>2026-03-15T18:40:33.998Z</time></trkpt><trkpt lat="45.47975185518457" lon="9.15159524123254"><ele>129.0</ele><time>2026-03-15T18:40:34.998Z</time></trkpt><trkpt lat="45.47947230531941" lon="9.151571028398106"><ele>128.5</ele><time>2026-03-15T18:40:35.998Z</time></trkpt><trkpt lat="45.479205006541605" lon="9.151551944571557"><ele>128.0</ele><time>2026-03-15T18:40:36.998Z</time></trkpt><trkpt lat="45.47897767244192" lon="9.151540150473444"><ele>127.66666666666666</ele><time>2026-03-15T18:40:37.998Z</time></trkpt><trkpt lat="45.47877239456243" lon="9.151530010448788"><ele>127.33333333333334</ele><time>2026-03-15T18:40:38.998Z</time></trkpt><trkpt lat="45.47858044272257" lon="9.151526435334064"><ele>127.0</ele><time>2026-03-15T18:40:39.998Z</time></trkpt><trkpt lat="45.478412739527535" lon="9.151515533319776"><ele>127.19999999999999</ele><time>2026-03-15T18:40:40.998Z</time></trkpt><trkpt lat="45.47827475433494" lon="9.151496620182566"><ele>127.39999999999999</ele><time>2026-03-15T18:40:41.998Z</time></trkpt><trkpt lat="45.478165536430694" lon="9.15147939637477"><ele>127.60000000000001</ele><time>2026-03-15T18:40:42.998Z</time></trkpt><trkpt lat="45.47807738657289" lon="9.151469711746893"><ele>127.80000000000001</ele><time>2026-03-15T18:40:43.998Z</time></trkpt><trkpt lat="45.47797390191701" lon="9.151469511310502"><ele>128.0</ele><time>2026-03-15T18:40:44.998Z</time></trkpt><trkpt lat="45.477785345424074" lon="9.151479676707533"><ele>128.0</ele><time>2026-03-15T18:40:45.998Z</time></trkpt><trkpt lat="45.47755858359289" lon="9.151479272614676"><ele>128.0</ele><time>2026-03-15T18:40:46.998Z</time></trkpt><trkpt lat="45.47735836655607" lon="9.15147390323333"><ele>128.0</ele><time>2026-03-15T18:40:47.998Z</time></trkpt><trkpt lat="45.477187019339986" lon="9.15146694952023"><ele>129.66666666666666</ele><time>2026-03-15T18:40:48.998Z</time></trkpt><trkpt lat="45.477027014563426" lon="9.151460209890445"><ele>131.33333333333334</ele><time>2026-03-15T18:40:49.998Z</time></trkpt><trkpt lat="45.47687739547312" lon="9.151448887095171"><ele>133.0</ele><time>2026-03-15T18:40:50.998Z</time></trkpt><trkpt lat="45.47673059379796" lon="9.15143686189175"><ele>133.0</ele><time>2026-03-15T18:40:51.997Z</time></trkpt><trkpt lat="45.47654929554638" lon="9.151424123252623"><ele>133.0</ele><time>2026-03-15T18:40:52.997Z</time></trkpt><trkpt lat="45.47636495955987" lon="9.151409548947496"><ele>133.0</ele><time>2026-03-15T18:40:53.997Z</time></trkpt><trkpt lat="45.47621642742008" lon="9.151401899175184"><ele>132.5</ele><time>2026-03-15T18:40:54.997Z</time></trkpt><trkpt lat="45.476088226866594" lon="9.151401009111492"><ele>132.0</ele><time>2026-03-15T18:40:56Z</time></trkpt><trkpt lat="45.475957730121266" lon="9.151390417280375"><ele>131.5</ele><time>2026-03-15T18:40:57Z</time></trkpt><trkpt lat="45.475827923324786" lon="9.151381895957517"><ele>131.0</ele><time>2026-03-15T18:40:58Z</time></trkpt><trkpt lat="45.475713682975396" lon="9.151391469674365"><ele>131.0</ele><time>2026-03-15T18:40:59Z</time></trkpt><trkpt lat="45.47563991342842" lon="9.151394981646597"><ele>131.0</ele><time>2026-03-15T18:41:01Z</time></trkpt><trkpt lat="45.475505337515976" lon="9.151396004098068"><ele>131.0</ele><time>2026-03-15T18:41:16Z</time></trkpt><trkpt lat="45.47539358221996" lon="9.151387556354893"><ele>131.0</ele><time>2026-03-15T18:41:17Z</time></trkpt><trkpt lat="45.475264295157345" lon="9.15137514999228"><ele>130.0</ele><time>2026-03-15T18:41:18Z</time></trkpt><trkpt lat="45.47511754364801" lon="9.151360200632324"><ele>129.0</ele><time>2026-03-15T18:41:19Z</time></trkpt><trkpt lat="45.47498627137095" lon="9.151350852245418"><ele>128.0</ele><time>2026-03-15T18:41:20Z</time></trkpt><trkpt lat="45.47487347271375" lon="9.15134168549496"><ele>127.0</ele><time>2026-03-15T18:41:21Z</time></trkpt><trkpt lat="45.474773625403444" lon="9.151330208539504"><ele>127.00000000000001</ele><time>2026-03-15T18:41:22Z</time></trkpt><trkpt lat="45.474681946847795" lon="9.151315538243523"><ele>127.0</ele><time>2026-03-15T18:41:23Z</time></trkpt><trkpt lat="45.47460120723112" lon="9.15130569979942"><ele>127.0</ele><time>2026-03-15T18:41:24Z</time></trkpt><trkpt lat="45.47453684478342" lon="9.151302405944891"><ele>127.0</ele><time>2026-03-15T18:41:25Z</time></trkpt><trkpt lat="45.474461573491595" lon="9.15129146763459"><ele>127.00000000000001</ele><time>2026-03-15T18:41:53.999Z</time></trkpt><trkpt lat="45.474364986632956" lon="9.151282478277171"><ele>127.0</ele><time>2026-03-15T18:41:54.999Z</time></trkpt><trkpt lat="45.47427533685227" lon="9.151299063962279"><ele>126.75</ele><time>2026-03-15T18:41:55.999Z</time></trkpt><trkpt lat="45.47418919630937" lon="9.151347347957259"><ele>126.5</ele><time>2026-03-15T18:41:56.999Z</time></trkpt><trkpt lat="45.47407434994949" lon="9.151433907420698"><ele>126.25</ele><time>2026-03-15T18:41:57.999Z</time></trkpt><trkpt lat="45.473938765602796" lon="9.151542297440072"><ele>126.0</ele><time>2026-03-15T18:41:58.999Z</time></trkpt><trkpt lat="45.47379759115148" lon="9.151669719447085"><ele>125.66666666666666</ele><time>2026-03-15T18:41:59.999Z</time></trkpt><trkpt lat="45.4736949437204" lon="9.151832745259679"><ele>125.33333333333333</ele><time>2026-03-15T18:42:00.999Z</time></trkpt><trkpt lat="45.47361955679262" lon="9.152047332537958"><ele>125.0</ele><time>2026-03-15T18:42:01.999Z</time></trkpt><trkpt lat="45.47357417096" lon="9.152305153522363"><ele>127.0</ele><time>2026-03-15T18:42:02.999Z</time></trkpt><trkpt lat="45.473552324254406" lon="9.152632891929525"><ele>129.0</ele><time>2026-03-15T18:42:03.999Z</time></trkpt><trkpt lat="45.473544814704574" lon="9.153027386107459"><ele>129.0</ele><time>2026-03-15T18:42:04.999Z</time></trkpt><trkpt lat="45.47354960828351" lon="9.153433786717944"><ele>129.0</ele><time>2026-03-15T18:42:05.999Z</time></trkpt><trkpt lat="45.473540925326425" lon="9.153775358188518"><ele>128.66666666666666</ele><time>2026-03-15T18:42:06.999Z</time></trkpt><trkpt lat="45.47352254245025" lon="9.154078475837252"><ele>128.33333333333331</ele><time>2026-03-15T18:42:07.999Z</time></trkpt><trkpt lat="45.47350777965253" lon="9.154361885216993"><ele>128.0</ele><time>2026-03-15T18:42:08.999Z</time></trkpt><trkpt lat="45.47349835124884" lon="9.154631397261014"><ele>128.0</ele><time>2026-03-15T18:42:09.999Z</time></trkpt><trkpt lat="45.473493849877656" lon="9.154855968482602"><ele>128.0</ele><time>2026-03-15T18:42:10.999Z</time></trkpt><trkpt lat="45.47348655254925" lon="9.15502253681904"><ele>128.0</ele><time>2026-03-15T18:42:11.999Z</time></trkpt><trkpt lat="45.47347413066512" lon="9.155130157726425"><ele>128.0</ele><time>2026-03-15T18:42:12.999Z</time></trkpt><trkpt lat="45.4734278340636" lon="9.15520532605658"><ele>128.0</ele><time>2026-03-15T18:42:13.999Z</time></trkpt><trkpt lat="45.47333213630118" lon="9.155299899650243"><ele>128.0</ele><time>2026-03-15T18:42:14.999Z</time></trkpt><trkpt lat="45.47319078166409" lon="9.155419169622203"><ele>128.0</ele><time>2026-03-15T18:42:15.999Z</time></trkpt><trkpt lat="45.47303225116869" lon="9.155487658559663"><ele>128.0</ele><time>2026-03-15T18:42:16.999Z</time></trkpt><trkpt lat="45.47287820785928" lon="9.155497849622595"><ele>128.0</ele><time>2026-03-15T18:42:17.999Z</time></trkpt><trkpt lat="45.47268578269345" lon="9.155480263216722"><ele>128.0</ele><time>2026-03-15T18:42:18.999Z</time></trkpt><trkpt lat="45.472504026257035" lon="9.155457737375267"><ele>128.0</ele><time>2026-03-15T18:42:19.999Z</time></trkpt><trkpt lat="45.47235220883611" lon="9.155442622336984"><ele>128.0</ele><time>2026-03-15T18:42:20.999Z</time></trkpt><trkpt lat="45.472232203586124" lon="9.155440475116462"><ele>128.0</ele><time>2026-03-15T18:42:21.999Z</time></trkpt><trkpt lat="45.47212445806239" lon="9.155445775044383"><ele>128.0</ele><time>2026-03-15T18:42:22.999Z</time></trkpt><trkpt lat="45.472037826319806" lon="9.15544099210767"><ele>128.0</ele><time>2026-03-15T18:42:23.999Z</time></trkpt><trkpt lat="45.47197468577648" lon="9.155439040017463"><ele>128.0</ele><time>2026-03-15T18:42:24.999Z</time></trkpt><trkpt lat="45.471896921382246" lon="9.155430179577012"><ele>128.25</ele><time>2026-03-15T18:42:25.999Z</time></trkpt><trkpt lat="45.471756959634426" lon="9.15541730533086"><ele>128.5</ele><time>2026-03-15T18:42:26.999Z</time></trkpt><trkpt lat="45.4716180939888" lon="9.155383318886583"><ele>128.75</ele><time>2026-03-15T18:42:27.998Z</time></trkpt><trkpt lat="45.471514330450184" lon="9.155369512360101"><ele>129.0</ele><time>2026-03-15T18:42:28.998Z</time></trkpt><trkpt lat="45.471439951494204" lon="9.155364808250821"><ele>128.99999999999997</ele><time>2026-03-15T18:42:29.998Z</time></trkpt><trkpt lat="45.471365588388785" lon="9.15536192466479"><ele>129.0</ele><time>2026-03-15T18:42:30.998Z</time></trkpt><trkpt lat="45.4712969892135" lon="9.155356112449738"><ele>129.0</ele><time>2026-03-15T18:42:31.998Z</time></trkpt><trkpt lat="45.471219344062895" lon="9.155387181528925"><ele>129.0</ele><time>2026-03-15T18:42:35.997Z</time></trkpt><trkpt lat="45.47114938413154" lon="9.15539943220016"><ele>129.0</ele><time>2026-03-15T18:42:37.997Z</time></trkpt><trkpt lat="45.47109336118585" lon="9.15533020568985"><ele>128.99999999999997</ele><time>2026-03-15T18:42:39.997Z</time></trkpt><trkpt lat="45.471018036328275" lon="9.155306952054657"><ele>129.0</ele><time>2026-03-15T18:42:41.997Z</time></trkpt><trkpt lat="45.47091024365095" lon="9.155324539625287"><ele>129.0</ele><time>2026-03-15T18:42:42.997Z</time></trkpt><trkpt lat="45.470831436376464" lon="9.155319530670141"><ele>129.0</ele><time>2026-03-15T18:42:43.997Z</time></trkpt><trkpt lat="45.470760074759674" lon="9.155293526450254"><ele>129.0</ele><time>2026-03-15T18:42:45.997Z</time></trkpt><trkpt lat="45.47066968350405" lon="9.155290886311645"><ele>129.0</ele><time>2026-03-15T18:42:47.997Z</time></trkpt><trkpt lat="45.470557663765" lon="9.155165367645198"><ele>129.0</ele><time>2026-03-15T18:42:49.997Z</time></trkpt><trkpt lat="45.470477609834894" lon="9.155104221322125"><ele>128.83333333333334</ele><time>2026-03-15T18:42:50.997Z</time></trkpt><trkpt lat="45.47040493909885" lon="9.155112606786478"><ele>128.66666666666666</ele><time>2026-03-15T18:42:51.997Z</time></trkpt><trkpt lat="45.47034146049886" lon="9.155139960751463"><ele>128.5</ele><time>2026-03-15T18:42:52.997Z</time></trkpt><trkpt lat="45.47026811275793" lon="9.155171623391087"><ele>128.33333333333331</ele><time>2026-03-15T18:42:53.997Z</time></trkpt><trkpt lat="45.470191408565526" lon="9.155212475441438"><ele>128.16666666666666</ele><time>2026-03-15T18:42:54.997Z</time></trkpt><trkpt lat="45.47011659139201" lon="9.15526789108928"><ele>128.0</ele><time>2026-03-15T18:42:55.997Z</time></trkpt><trkpt lat="45.47005270697275" lon="9.155371556932673"><ele>128.0</ele><time>2026-03-15T18:42:56.997Z</time></trkpt><trkpt lat="45.469923940106774" lon="9.155362303326044"><ele>128.0</ele><time>2026-03-15T18:42:57.997Z</time></trkpt><trkpt lat="45.469790956400416" lon="9.155338139209864"><ele>128.0</ele><time>2026-03-15T18:42:58.997Z</time></trkpt><trkpt lat="45.46959760360826" lon="9.155346015877095"><ele>128.0</ele><time>2026-03-15T18:42:59.997Z</time></trkpt><trkpt lat="45.46938628818724" lon="9.155324877920867"><ele>128.0</ele><time>2026-03-15T18:43:00.997Z</time></trkpt><trkpt lat="45.469202579958456" lon="9.155317650582118"><ele>128.0</ele><time>2026-03-15T18:43:02Z</time></trkpt><trkpt lat="45.46904172585414" lon="9.155312112251705"><ele>128.0</ele><time>2026-03-15T18:43:03Z</time></trkpt><trkpt lat="45.468897018528246" lon="9.155307939347336"><ele>128.0</ele><time>2026-03-15T18:43:04Z</time></trkpt><trkpt lat="45.46876030985846" lon="9.155296793105043"><ele>128.0</ele><time>2026-03-15T18:43:05Z</time></trkpt><trkpt lat="45.468628064583406" lon="9.155288515921573"><ele>128.0</ele><time>2026-03-15T18:43:06Z</time></trkpt><trkpt lat="45.468506170148736" lon="9.155287452804915"><ele>127.80000000000001</ele><time>2026-03-15T18:43:07Z</time></trkpt><trkpt lat="45.46841255641522" lon="9.155279649431959"><ele>127.60000000000001</ele><time>2026-03-15T18:43:08Z</time></trkpt><trkpt lat="45.468344553878204" lon="9.155282642561653"><ele>127.39999999999999</ele><time>2026-03-15T18:43:09Z</time></trkpt><trkpt lat="45.46826350811499" lon="9.155256371270802"><ele>127.19999999999999</ele><time>2026-03-15T18:43:11Z</time></trkpt><trkpt lat="45.468153096895854" lon="9.155250471869886"><ele>127.0</ele><time>2026-03-15T18:43:13Z</time></trkpt><trkpt lat="45.468055920069986" lon="9.155267693611265"><ele>127.0</ele><time>2026-03-15T18:43:14Z</time></trkpt><trkpt lat="45.467979936004525" lon="9.155227582634987"><ele>126.99999999999999</ele><time>2026-03-15T18:43:16Z</time></trkpt><trkpt lat="45.46789724021434" lon="9.15521417388573"><ele>126.99999999999999</ele><time>2026-03-15T18:43:25.999Z</time></trkpt><trkpt lat="45.46775952415374" lon="9.155201617625254"><ele>127.0</ele><time>2026-03-15T18:43:26.999Z</time></trkpt><trkpt lat="45.467620725315754" lon="9.15518486575997"><ele>127.0</ele><time>2026-03-15T18:43:27.999Z</time></trkpt><trkpt lat="45.46746858561096" lon="9.155187650090795"><ele>126.75</ele><time>2026-03-15T18:43:28.999Z</time></trkpt><trkpt lat="45.46731386000627" lon="9.155179727627534"><ele>126.5</ele><time>2026-03-15T18:43:29.999Z</time></trkpt><trkpt lat="45.467174193637284" lon="9.155185667328983"><ele>126.25</ele><time>2026-03-15T18:43:30.999Z</time></trkpt><trkpt lat="45.46705308759325" lon="9.155172267533455"><ele>126.0</ele><time>2026-03-15T18:43:31.999Z</time></trkpt><trkpt lat="45.46693437544537" lon="9.155141255891943"><ele>125.0</ele><time>2026-03-15T18:43:32.999Z</time></trkpt><trkpt lat="45.466789547830594" lon="9.15509158256117"><ele>124.0</ele><time>2026-03-15T18:43:33.999Z</time></trkpt><trkpt lat="45.46662784300659" lon="9.155038778738263"><ele>123.0</ele><time>2026-03-15T18:43:34.999Z</time></trkpt><trkpt lat="45.466490746854035" lon="9.15500552392719"><ele>123.0</ele><time>2026-03-15T18:43:35.999Z</time></trkpt><trkpt lat="45.466370805455824" lon="9.155018399805735"><ele>123.0</ele><time>2026-03-15T18:43:36.999Z</time></trkpt><trkpt lat="45.466215402899614" lon="9.155082226331526"><ele>123.0</ele><time>2026-03-15T18:43:37.999Z</time></trkpt><trkpt lat="45.46605531820537" lon="9.155132672710465"><ele>123.0</ele><time>2026-03-15T18:43:38.999Z</time></trkpt><trkpt lat="45.4659146994383" lon="9.155147529416142"><ele>124.25</ele><time>2026-03-15T18:43:39.999Z</time></trkpt><trkpt lat="45.46579003192393" lon="9.155145683887625"><ele>125.5</ele><time>2026-03-15T18:43:40.999Z</time></trkpt><trkpt lat="45.4656475353866" lon="9.15512099172406"><ele>126.75</ele><time>2026-03-15T18:43:41.999Z</time></trkpt><trkpt lat="45.4654851748195" lon="9.155112342551961"><ele>128.0</ele><time>2026-03-15T18:43:42.999Z</time></trkpt><trkpt lat="45.465290319337875" lon="9.155101906829227"><ele>128.33333333333331</ele><time>2026-03-15T18:43:43.999Z</time></trkpt><trkpt lat="45.46507623296996" lon="9.15508997455875"><ele>128.66666666666666</ele><time>2026-03-15T18:43:44.999Z</time></trkpt><trkpt lat="45.46485327314156" lon="9.155077547739165"><ele>129.0</ele><time>2026-03-15T18:43:45.999Z</time></trkpt><trkpt lat="45.464661180060304" lon="9.155072003063182"><ele>128.33333333333334</ele><time>2026-03-15T18:43:46.999Z</time></trkpt><trkpt lat="45.46447278986492" lon="9.155047347432717"><ele>127.66666666666667</ele><time>2026-03-15T18:43:47.999Z</time></trkpt><trkpt lat="45.46427050457866" lon="9.155038605585426"><ele>127.0</ele><time>2026-03-15T18:43:48.999Z</time></trkpt><trkpt lat="45.464043372422985" lon="9.155039349126145"><ele>127.0</ele><time>2026-03-15T18:43:49.999Z</time></trkpt><trkpt lat="45.46380942544172" lon="9.155031775739934"><ele>127.0</ele><time>2026-03-15T18:43:50.999Z</time></trkpt><trkpt lat="45.46360444423298" lon="9.155015428404672"><ele>127.0</ele><time>2026-03-15T18:43:51.999Z</time></trkpt><trkpt lat="45.46343299621782" lon="9.154998010163844"><ele>126.0</ele><time>2026-03-15T18:43:52.999Z</time></trkpt><trkpt lat="45.46328587748363" lon="9.154982368679502"><ele>125.0</ele><time>2026-03-15T18:43:53.999Z</time></trkpt><trkpt lat="45.463134956883984" lon="9.154967856505676"><ele>124.0</ele><time>2026-03-15T18:43:54.999Z</time></trkpt><trkpt lat="45.462951706224125" lon="9.154954655907645"><ele>123.66666666666667</ele><time>2026-03-15T18:43:55.999Z</time></trkpt><trkpt lat="45.462743994872866" lon="9.154947169259723"><ele>123.33333333333334</ele><time>2026-03-15T18:43:56.999Z</time></trkpt><trkpt lat="45.4625473778101" lon="9.15494055113624"><ele>123.0</ele><time>2026-03-15T18:43:57.999Z</time></trkpt><trkpt lat="45.46237984283188" lon="9.154937981664595"><ele>123.0</ele><time>2026-03-15T18:43:58.999Z</time></trkpt><trkpt lat="45.46222409908431" lon="9.154935524128504"><ele>123.0</ele><time>2026-03-15T18:43:59.999Z</time></trkpt><trkpt lat="45.46208078837734" lon="9.154928304425166"><ele>123.0</ele><time>2026-03-15T18:44:00.999Z</time></trkpt><trkpt lat="45.46195229040614" lon="9.15491403445933"><ele>123.0</ele><time>2026-03-15T18:44:01.999Z</time></trkpt><trkpt lat="45.461832923148236" lon="9.154896464586889"><ele>123.33333333333334</ele><time>2026-03-15T18:44:02.998Z</time></trkpt><trkpt lat="45.461707147113145" lon="9.154872318205797"><ele>123.66666666666667</ele><time>2026-03-15T18:44:03.998Z</time></trkpt><trkpt lat="45.461551532383965" lon="9.15484966641001"><ele>124.0</ele><time>2026-03-15T18:44:04.998Z</time></trkpt><trkpt lat="45.46134845164186" lon="9.154829615587206"><ele>125.33333333333334</ele><time>2026-03-15T18:44:05.998Z</time></trkpt><trkpt lat="45.46111971545488" lon="9.154828297506002"><ele>126.66666666666666</ele><time>2026-03-15T18:44:06.998Z</time></trkpt><trkpt lat="45.46090891744991" lon="9.154828076164678"><ele>128.0</ele><time>2026-03-15T18:44:07.998Z</time></trkpt><trkpt lat="45.4607447053899" lon="9.154823143361146"><ele>128.0</ele><time>2026-03-15T18:44:08.998Z</time></trkpt><trkpt lat="45.46060370127901" lon="9.154809460439294"><ele>128.0</ele><time>2026-03-15T18:44:09.998Z</time></trkpt><trkpt lat="45.460459845210956" lon="9.154802158374302"><ele>128.0</ele><time>2026-03-15T18:44:10.998Z</time></trkpt><trkpt lat="45.46030986741895" lon="9.154799283080541"><ele>128.0</ele><time>2026-03-15T18:44:11.998Z</time></trkpt><trkpt lat="45.46017823308245" lon="9.154797204066973"><ele>128.8</ele><time>2026-03-15T18:44:12.998Z</time></trkpt><trkpt lat="45.46006555148268" lon="9.154791321009306"><ele>129.60000000000002</ele><time>2026-03-15T18:44:13.998Z</time></trkpt><trkpt lat="45.459991003749806" lon="9.154785636218476"><ele>130.39999999999998</ele><time>2026-03-15T18:44:14.998Z</time></trkpt><trkpt lat="45.45991976662946" lon="9.154778292045007"><ele>131.2</ele><time>2026-03-15T18:44:15.998Z</time></trkpt><trkpt lat="45.45981923345309" lon="9.15477190558827"><ele>132.0</ele><time>2026-03-15T18:44:16.998Z</time></trkpt><trkpt lat="45.4597078484916" lon="9.154771134497969"><ele>131.2</ele><time>2026-03-15T18:44:17.998Z</time></trkpt><trkpt lat="45.45959931803082" lon="9.154774991334005"><ele>130.39999999999998</ele><time>2026-03-15T18:44:18.998Z</time></trkpt><trkpt lat="45.45950971279075" lon="9.154783755273167"><ele>129.60000000000002</ele><time>2026-03-15T18:44:19.998Z</time></trkpt><trkpt lat="45.459432108233344" lon="9.15478128435087"><ele>128.8</ele><time>2026-03-15T18:44:20.998Z</time></trkpt><trkpt lat="45.45936083144626" lon="9.154776888236285"><ele>128.0</ele><time>2026-03-15T18:44:21.998Z</time></trkpt><trkpt lat="45.459240257845956" lon="9.15476655286729"><ele>128.0</ele><time>2026-03-15T18:44:23.998Z</time></trkpt><trkpt lat="45.459173336153526" lon="9.154761693453091"><ele>127.99999999999999</ele><time>2026-03-15T18:44:24.998Z</time></trkpt><trkpt lat="45.45910264820582" lon="9.154757947054145"><ele>128.0</ele><time>2026-03-15T18:44:25.998Z</time></trkpt><trkpt lat="45.45902734393376" lon="9.1547579850586"><ele>128.0</ele><time>2026-03-15T18:44:26.998Z</time></trkpt><trkpt lat="45.45895819275448" lon="9.154753126050265"><ele>127.99999999999999</ele><time>2026-03-15T18:44:27.998Z</time></trkpt><trkpt lat="45.45887763857847" lon="9.154743156828205"><ele>128.0</ele><time>2026-03-15T18:44:28.998Z</time></trkpt><trkpt lat="45.45880593322262" lon="9.15473476513253"><ele>128.0</ele><time>2026-03-15T18:44:29.998Z</time></trkpt><trkpt lat="45.45873209186147" lon="9.154730019743917"><ele>128.20000000000002</ele><time>2026-03-15T18:44:30.998Z</time></trkpt><trkpt lat="45.458609216929425" lon="9.15472336245402"><ele>128.4</ele><time>2026-03-15T18:44:32.998Z</time></trkpt><trkpt lat="45.45848280973639" lon="9.154713963749067"><ele>128.60000000000002</ele><time>2026-03-15T18:44:34.998Z</time></trkpt><trkpt lat="45.45841047922289" lon="9.154709010696088"><ele>128.8</ele><time>2026-03-15T18:44:35.998Z</time></trkpt><trkpt lat="45.45834216658993" lon="9.154704551714627"><ele>129.0</ele><time>2026-03-15T18:44:36.998Z</time></trkpt><trkpt lat="45.45823495203127" lon="9.15469854529724"><ele>129.0</ele><time>2026-03-15T18:44:38.998Z</time></trkpt><trkpt lat="45.45812957761055" lon="9.154693749177031"><ele>129.0</ele><time>2026-03-15T18:44:40.998Z</time></trkpt><trkpt lat="45.45801422011211" lon="9.154687789343953"><ele>129.0</ele><time>2026-03-15T18:44:42.998Z</time></trkpt><trkpt lat="45.45788639266295" lon="9.154683258746426"><ele>129.0</ele><time>2026-03-15T18:44:44.998Z</time></trkpt><trkpt lat="45.45779047954965" lon="9.154677482946946"><ele>129.0</ele><time>2026-03-15T18:44:46.997Z</time></trkpt><trkpt lat="45.45771097968726" lon="9.154671251842652"><ele>129.2</ele><time>2026-03-15T18:44:48.997Z</time></trkpt><trkpt lat="45.45762645091229" lon="9.154662771428063"><ele>129.4</ele><time>2026-03-15T18:44:50.997Z</time></trkpt><trkpt lat="45.45752786081242" lon="9.154656520126586"><ele>129.6</ele><time>2026-03-15T18:44:52.997Z</time></trkpt><trkpt lat="45.4574233061907" lon="9.154651015484822"><ele>129.8</ele><time>2026-03-15T18:44:54.997Z</time></trkpt><trkpt lat="45.45732778116244" lon="9.154646454812486"><ele>130.0</ele><time>2026-03-15T18:44:56.997Z</time></trkpt><trkpt lat="45.45722967012833" lon="9.154633186954223"><ele>129.83333333333334</ele><time>2026-03-15T18:44:58.997Z</time></trkpt><trkpt lat="45.45710516160471" lon="9.154619738597182"><ele>129.66666666666669</ele><time>2026-03-15T18:45:00.997Z</time></trkpt><trkpt lat="45.45703354345853" lon="9.154613176161291"><ele>129.5</ele><time>2026-03-15T18:45:01.997Z</time></trkpt><trkpt lat="45.45695545074725" lon="9.154609145316188"><ele>129.33333333333334</ele><time>2026-03-15T18:45:02.997Z</time></trkpt><trkpt lat="45.45688115050631" lon="9.154602798321003"><ele>129.16666666666666</ele><time>2026-03-15T18:45:03.997Z</time></trkpt><trkpt lat="45.456811855798" lon="9.154598146800325"><ele>129.0</ele><time>2026-03-15T18:45:04.997Z</time></trkpt><trkpt lat="45.45673421848395" lon="9.15459447339086"><ele>129.0</ele><time>2026-03-15T18:45:05.997Z</time></trkpt><trkpt lat="45.4566597300697" lon="9.154588128192673"><ele>129.0</ele><time>2026-03-15T18:45:07Z</time></trkpt><trkpt lat="45.456586327359254" lon="9.154590617337629"><ele>129.0</ele><time>2026-03-15T18:45:08Z</time></trkpt><trkpt lat="45.45652085940249" lon="9.154588501521472"><ele>129.0</ele><time>2026-03-15T18:45:09Z</time></trkpt><trkpt lat="45.4564168354137" lon="9.154588891478788"><ele>129.0</ele><time>2026-03-15T18:45:11Z</time></trkpt><trkpt lat="45.456300330651814" lon="9.154592222110342"><ele>129.0</ele><time>2026-03-15T18:45:13Z</time></trkpt><trkpt lat="45.4562217130896" lon="9.154592758654086"><ele>128.5</ele><time>2026-03-15T18:45:15Z</time></trkpt><trkpt lat="45.45612963583036" lon="9.154585897294155"><ele>128.0</ele><time>2026-03-15T18:45:22Z</time></trkpt><trkpt lat="45.45606312110502" lon="9.15458194315031"><ele>127.5</ele><time>2026-03-15T18:45:25Z</time></trkpt><trkpt lat="45.45599914612027" lon="9.154579147001925"><ele>127.0</ele><time>2026-03-15T18:45:35Z</time></trkpt><trkpt lat="45.455927346231334" lon="9.154574433653032"><ele>126.5</ele><time>2026-03-15T18:45:36Z</time></trkpt><trkpt lat="45.455844855053265" lon="9.154568098985875"><ele>126.0</ele><time>2026-03-15T18:45:36.999Z</time></trkpt><trkpt lat="45.45576417016066" lon="9.15456100547163"><ele>126.0</ele><time>2026-03-15T18:45:37.999Z</time></trkpt><trkpt lat="45.45568152839502" lon="9.154554335657789"><ele>126.0</ele><time>2026-03-15T18:45:38.999Z</time></trkpt><trkpt lat="45.45560688360825" lon="9.154552035221611"><ele>126.0</ele><time>2026-03-15T18:45:39.999Z</time></trkpt><trkpt lat="45.455543666256396" lon="9.154549840219005"><ele>126.0</ele><time>2026-03-15T18:45:40.999Z</time></trkpt><trkpt lat="45.45546692451674" lon="9.154546883351571"><ele>126.0</ele><time>2026-03-15T18:45:41.999Z</time></trkpt><trkpt lat="45.45538986816779" lon="9.154538286300305"><ele>126.0</ele><time>2026-03-15T18:45:42.999Z</time></trkpt><trkpt lat="45.455315011572004" lon="9.154534873220895"><ele>125.66666666666667</ele><time>2026-03-15T18:45:43.999Z</time></trkpt><trkpt lat="45.45524279863108" lon="9.154530351950703"><ele>125.33333333333334</ele><time>2026-03-15T18:45:44.999Z</time></trkpt><trkpt lat="45.45517510694332" lon="9.154525376222885"><ele>125.0</ele><time>2026-03-15T18:45:45.999Z</time></trkpt><trkpt lat="45.4550482146683" lon="9.154518855869776"><ele>124.66666666666667</ele><time>2026-03-15T18:45:47.999Z</time></trkpt><trkpt lat="45.454973981379425" lon="9.154518695508095"><ele>124.33333333333334</ele><time>2026-03-15T18:45:48.999Z</time></trkpt><trkpt lat="45.45489799176669" lon="9.154513006049337"><ele>124.0</ele><time>2026-03-15T18:45:49.999Z</time></trkpt><trkpt lat="45.45483246607558" lon="9.154509076885873"><ele>124.0</ele><time>2026-03-15T18:45:50.999Z</time></trkpt><trkpt lat="45.45471355245604" lon="9.15449884696995"><ele>124.0</ele><time>2026-03-15T18:45:52.999Z</time></trkpt><trkpt lat="45.45461615392684" lon="9.154488916012113"><ele>124.0</ele><time>2026-03-15T18:45:54.999Z</time></trkpt><trkpt lat="45.454516324503764" lon="9.154458366226212"><ele>124.0</ele><time>2026-03-15T18:45:56.999Z</time></trkpt><trkpt lat="45.454447994245065" lon="9.154412013041366"><ele>124.0</ele><time>2026-03-15T18:45:57.999Z</time></trkpt><trkpt lat="45.45438555846446" lon="9.15436659979173"><ele>123.83333333333334</ele><time>2026-03-15T18:45:58.999Z</time></trkpt><trkpt lat="45.45432481867425" lon="9.15433681545169"><ele>123.66666666666667</ele><time>2026-03-15T18:45:59.999Z</time></trkpt><trkpt lat="45.45423302334005" lon="9.154338704845056"><ele>123.5</ele><time>2026-03-15T18:46:01.999Z</time></trkpt><trkpt lat="45.454171816579134" lon="9.154388342358704"><ele>123.33333333333334</ele><time>2026-03-15T18:46:02.999Z</time></trkpt><trkpt lat="45.454117476215636" lon="9.154459940653812"><ele>123.16666666666667</ele><time>2026-03-15T18:46:03.999Z</time></trkpt><trkpt lat="45.45400326825993" lon="9.154525250593803"><ele>123.0</ele><time>2026-03-15T18:46:05.999Z</time></trkpt><trkpt lat="45.45394270407458" lon="9.154556397857235"><ele>123.0</ele><time>2026-03-15T18:46:06.999Z</time></trkpt><trkpt lat="45.45389140128943" lon="9.154612461333087"><ele>123.00000000000001</ele><time>2026-03-15T18:46:07.999Z</time></trkpt><trkpt lat="45.45381930599468" lon="9.154619009354015"><ele>123.00000000000001</ele><time>2026-03-15T18:46:08.999Z</time></trkpt><trkpt lat="45.453721178095726" lon="9.154680396747326"><ele>123.0</ele><time>2026-03-15T18:46:10.999Z</time></trkpt><trkpt lat="45.45359517575722" lon="9.154751906410498"><ele>123.0</ele><time>2026-03-15T18:46:12.999Z</time></trkpt><trkpt lat="45.453527513338905" lon="9.154789885385663"><ele>122.66666666666667</ele><time>2026-03-15T18:46:13.999Z</time></trkpt><trkpt lat="45.45345815297626" lon="9.154829608452145"><ele>122.33333333333334</ele><time>2026-03-15T18:46:14.999Z</time></trkpt><trkpt lat="45.45339267916439" lon="9.154868042171776"><ele>122.0</ele><time>2026-03-15T18:46:15.999Z</time></trkpt><trkpt lat="45.45333343133581" lon="9.154899321877751"><ele>121.66666666666667</ele><time>2026-03-15T18:46:16.999Z</time></trkpt><trkpt lat="45.45321627861529" lon="9.15495011435554"><ele>121.33333333333334</ele><time>2026-03-15T18:46:18.999Z</time></trkpt><trkpt lat="45.45315375053184" lon="9.154977706472813"><ele>121.0</ele><time>2026-03-15T18:46:19.999Z</time></trkpt><trkpt lat="45.45305611673694" lon="9.15502943450555"><ele>120.66666666666667</ele><time>2026-03-15T18:46:21.999Z</time></trkpt><trkpt lat="45.452995202925074" lon="9.15506580941296"><ele>120.33333333333334</ele><time>2026-03-15T18:46:23.998Z</time></trkpt><trkpt lat="45.452919434093" lon="9.155105897031671"><ele>120.0</ele><time>2026-03-15T18:46:26.998Z</time></trkpt><trkpt lat="45.45284565207248" lon="9.155120187843584"><ele>119.66666666666666</ele><time>2026-03-15T18:46:28.998Z</time></trkpt><trkpt lat="45.452790475537405" lon="9.154989598229854"><ele>119.33333333333333</ele><time>2026-03-15T18:46:29.998Z</time></trkpt><trkpt lat="45.45275782405259" lon="9.154871953572155"><ele>119.0</ele><time>2026-03-15T18:46:30.998Z</time></trkpt><trkpt lat="45.45272639411397" lon="9.15476140068779"><ele>119.0</ele><time>2026-03-15T18:46:31.998Z</time></trkpt><trkpt lat="45.45269891445031" lon="9.154674698962465"><ele>119.0</ele><time>2026-03-15T18:46:32.998Z</time></trkpt><trkpt lat="45.4526439407574" lon="9.154526918128452"><ele>119.0</ele><time>2026-03-15T18:46:34.998Z</time></trkpt><trkpt lat="45.45262800308103" lon="9.154422248990533"><ele>119.0</ele><time>2026-03-15T18:47:07.997Z</time></trkpt><trkpt lat="45.45256586086651" lon="9.15426933629386"><ele>119.0</ele><time>2026-03-15T18:47:09.997Z</time></trkpt><trkpt lat="45.45253023470844" lon="9.154180254953237"><ele>118.99999999999999</ele><time>2026-03-15T18:47:10.997Z</time></trkpt><trkpt lat="45.452491106452925" lon="9.154082441041949"><ele>119.0</ele><time>2026-03-15T18:47:11.997Z</time></trkpt><trkpt lat="45.45245008275855" lon="9.153972113322345"><ele>119.0</ele><time>2026-03-15T18:47:13Z</time></trkpt><trkpt lat="45.45240972757979" lon="9.153857176731595"><ele>119.0</ele><time>2026-03-15T18:47:14Z</time></trkpt><trkpt lat="45.45236852488596" lon="9.15373595950632"><ele>118.99999999999999</ele><time>2026-03-15T18:47:15Z</time></trkpt><trkpt lat="45.45233143614478" lon="9.153613878705869"><ele>119.0</ele><time>2026-03-15T18:47:16Z</time></trkpt><trkpt lat="45.45229051236904" lon="9.153465282165616"><ele>119.0</ele><time>2026-03-15T18:47:18Z</time></trkpt><trkpt lat="45.452245925232624" lon="9.153302468986775"><ele>119.0</ele><time>2026-03-15T18:47:20Z</time></trkpt><trkpt lat="45.45221757926327" lon="9.153211876619173"><ele>119.0</ele><time>2026-03-15T18:47:21Z</time></trkpt><trkpt lat="45.45216439792101" lon="9.153055617311463"><ele>119.0</ele><time>2026-03-15T18:47:23Z</time></trkpt><trkpt lat="45.45213450877901" lon="9.152957845170581"><ele>119.0</ele><time>2026-03-15T18:47:24Z</time></trkpt><trkpt lat="45.45210342484215" lon="9.15285503950941"><ele>119.66666666666666</ele><time>2026-03-15T18:47:25Z</time></trkpt><trkpt lat="45.45207804338959" lon="9.152748097906908"><ele>120.33333333333333</ele><time>2026-03-15T18:47:26Z</time></trkpt><trkpt lat="45.45204141582948" lon="9.152643708873823"><ele>121.0</ele><time>2026-03-15T18:47:27Z</time></trkpt><trkpt lat="45.452007301328315" lon="9.152547932911181"><ele>121.66666666666666</ele><time>2026-03-15T18:47:28Z</time></trkpt><trkpt lat="45.451969531487535" lon="9.152450428872172"><ele>122.33333333333333</ele><time>2026-03-15T18:47:29Z</time></trkpt><trkpt lat="45.451933863915606" lon="9.152334199735032"><ele>123.0</ele><time>2026-03-15T18:47:30Z</time></trkpt><trkpt lat="45.45188189912312" lon="9.152204805950676"><ele>123.4</ele><time>2026-03-15T18:47:31Z</time></trkpt><trkpt lat="45.4518399451544" lon="9.152048748205551"><ele>123.80000000000001</ele><time>2026-03-15T18:47:32Z</time></trkpt><trkpt lat="45.4517886606673" lon="9.151888015160573"><ele>124.2</ele><time>2026-03-15T18:47:33Z</time></trkpt><trkpt lat="45.4517424373619" lon="9.151750032749492"><ele>124.6</ele><time>2026-03-15T18:47:34Z</time></trkpt><trkpt lat="45.451707790444395" lon="9.151628201920566"><ele>125.0</ele><time>2026-03-15T18:47:35Z</time></trkpt><trkpt lat="45.45167563212234" lon="9.151521357878629"><ele>124.99999999999999</ele><time>2026-03-15T18:47:36Z</time></trkpt><trkpt lat="45.45164070623345" lon="9.15142062185839"><ele>125.0</ele><time>2026-03-15T18:47:37Z</time></trkpt><trkpt lat="45.4516092783373" lon="9.151331347311606"><ele>125.0</ele><time>2026-03-15T18:47:38Z</time></trkpt><trkpt lat="45.45157554200396" lon="9.151181585868985"><ele>125.0</ele><time>2026-03-15T18:47:40Z</time></trkpt><trkpt lat="45.45153551782579" lon="9.151068909859452"><ele>124.99999999999999</ele><time>2026-03-15T18:47:42Z</time></trkpt><trkpt lat="45.45149881766478" lon="9.150974477783835"><ele>125.0</ele><time>2026-03-15T18:47:46Z</time></trkpt><trkpt lat="45.45145674002892" lon="9.150883988004429"><ele>125.0</ele><time>2026-03-15T18:47:47Z</time></trkpt><trkpt lat="45.45141955338483" lon="9.150792787891806"><ele>125.0</ele><time>2026-03-15T18:47:48Z</time></trkpt><trkpt lat="45.451384138659044" lon="9.150665568150107"><ele>125.0</ele><time>2026-03-15T18:47:50Z</time></trkpt><trkpt lat="45.451344399363954" lon="9.150521959854547"><ele>125.0</ele><time>2026-03-15T18:47:51Z</time></trkpt><trkpt lat="45.451274621828226" lon="9.150320103853067"><ele>125.0</ele><time>2026-03-15T18:47:52Z</time></trkpt><trkpt lat="45.45120199327082" lon="9.150090106961494"><ele>125.0</ele><time>2026-03-15T18:47:53Z</time></trkpt><trkpt lat="45.45112132534932" lon="9.149836668208353"><ele>125.0</ele><time>2026-03-15T18:47:54Z</time></trkpt><trkpt lat="45.45103363511246" lon="9.149569966786814"><ele>125.0</ele><time>2026-03-15T18:47:55Z</time></trkpt><trkpt lat="45.45096055257594" lon="9.14933682197268"><ele>125.0</ele><time>2026-03-15T18:47:56Z</time></trkpt><trkpt lat="45.45089884210647" lon="9.149140679038174"><ele>125.0</ele><time>2026-03-15T18:47:57Z</time></trkpt><trkpt lat="45.45085061702131" lon="9.148987107209704"><ele>125.0</ele><time>2026-03-15T18:47:58Z</time></trkpt><trkpt lat="45.45080658314111" lon="9.148861085120215"><ele>125.0</ele><time>2026-03-15T18:47:59Z</time></trkpt><trkpt lat="45.45076861070354" lon="9.148746862061364"><ele>125.25</ele><time>2026-03-15T18:47:59.999Z</time></trkpt><trkpt lat="45.45073125846606" lon="9.148618283420644"><ele>125.5</ele><time>2026-03-15T18:48:00.999Z</time></trkpt><trkpt lat="45.450666587863815" lon="9.148428954117565"><ele>125.75</ele><time>2026-03-15T18:48:01.999Z</time></trkpt><trkpt lat="45.450608173956944" lon="9.14825747543012"><ele>126.0</ele><time>2026-03-15T18:48:02.999Z</time></trkpt><trkpt lat="45.45057047280955" lon="9.14814985192655"><ele>125.5</ele><time>2026-03-15T18:48:03.999Z</time></trkpt><trkpt lat="45.45054871222473" lon="9.14805959246555"><ele>125.0</ele><time>2026-03-15T18:48:05.999Z</time></trkpt><trkpt lat="45.45050931902459" lon="9.147919071648083"><ele>124.5</ele><time>2026-03-15T18:48:06.999Z</time></trkpt><trkpt lat="45.450431254282144" lon="9.147679338287862"><ele>124.0</ele><time>2026-03-15T18:48:07.999Z</time></trkpt><trkpt lat="45.450347592193815" lon="9.14740513704034"><ele>124.0</ele><time>2026-03-15T18:48:08.999Z</time></trkpt><trkpt lat="45.450258810273496" lon="9.147125503347214"><ele>124.0</ele><time>2026-03-15T18:48:09.999Z</time></trkpt><trkpt lat="45.45017965078491" lon="9.146888542671377"><ele>124.0</ele><time>2026-03-15T18:48:10.999Z</time></trkpt><trkpt lat="45.450114520989295" lon="9.146688468825621"><ele>124.0</ele><time>2026-03-15T18:48:11.999Z</time></trkpt><trkpt lat="45.4500598950299" lon="9.14651664537766"><ele>124.0</ele><time>2026-03-15T18:48:12.999Z</time></trkpt><trkpt lat="45.450010422705525" lon="9.146353407942527"><ele>124.0</ele><time>2026-03-15T18:48:13.999Z</time></trkpt><trkpt lat="45.44994655178603" lon="9.14616198721143"><ele>124.0</ele><time>2026-03-15T18:48:14.999Z</time></trkpt><trkpt lat="45.44987811220427" lon="9.145974930231374"><ele>124.0</ele><time>2026-03-15T18:48:15.999Z</time></trkpt><trkpt lat="45.4498354932302" lon="9.145828494463782"><ele>124.0</ele><time>2026-03-15T18:48:16.999Z</time></trkpt><trkpt lat="45.44981229200591" lon="9.145732526809585"><ele>124.0</ele><time>2026-03-15T18:48:17.999Z</time></trkpt><trkpt lat="45.44978171009389" lon="9.14562383035984"><ele>124.0</ele><time>2026-03-15T18:48:19.999Z</time></trkpt><trkpt lat="45.44973998684116" lon="9.1455335168399"><ele>124.0</ele><time>2026-03-15T18:48:22.999Z</time></trkpt><trkpt lat="45.44968639201762" lon="9.145369590031011"><ele>124.00000000000001</ele><time>2026-03-15T18:48:24.999Z</time></trkpt><trkpt lat="45.449652838972156" lon="9.145264804322657"><ele>124.0</ele><time>2026-03-15T18:48:25.999Z</time></trkpt><trkpt lat="45.449600989865125" lon="9.14512952745202"><ele>124.0</ele><time>2026-03-15T18:48:27.999Z</time></trkpt><trkpt lat="45.44956312434623" lon="9.145054037614685"><ele>124.0</ele><time>2026-03-15T18:48:28.999Z</time></trkpt><trkpt lat="45.449522532135795" lon="9.14494267682842"><ele>124.00000000000001</ele><time>2026-03-15T18:48:29.999Z</time></trkpt><trkpt lat="45.44949114154215" lon="9.144815761699999"><ele>124.0</ele><time>2026-03-15T18:48:30.999Z</time></trkpt><trkpt lat="45.44946523558249" lon="9.144729197002407"><ele>123.4</ele><time>2026-03-15T18:48:31.999Z</time></trkpt><trkpt lat="45.44941833489114" lon="9.144573016407348"><ele>122.80000000000001</ele><time>2026-03-15T18:48:33.999Z</time></trkpt><trkpt lat="45.44938456468969" lon="9.144455260395024"><ele>122.19999999999999</ele><time>2026-03-15T18:48:35.999Z</time></trkpt><trkpt lat="45.44933915526764" lon="9.144329105172442"><ele>121.6</ele><time>2026-03-15T18:48:37.999Z</time></trkpt><trkpt lat="45.4493174191563" lon="9.144235728211282"><ele>121.0</ele><time>2026-03-15T18:48:38.999Z</time></trkpt><trkpt lat="45.449295148375185" lon="9.14410796917066"><ele>121.19999999999999</ele><time>2026-03-15T18:48:39.999Z</time></trkpt><trkpt lat="45.449227704875426" lon="9.143919717008291"><ele>121.39999999999999</ele><time>2026-03-15T18:48:40.999Z</time></trkpt><trkpt lat="45.44919518242103" lon="9.143756524369197"><ele>121.6</ele><time>2026-03-15T18:48:41.999Z</time></trkpt><trkpt lat="45.449156652975184" lon="9.143649250607115"><ele>121.8</ele><time>2026-03-15T18:48:42.999Z</time></trkpt><trkpt lat="45.449130246971265" lon="9.143561113717324"><ele>122.0</ele><time>2026-03-15T18:48:43.998Z</time></trkpt><trkpt lat="45.44906198244966" lon="9.143366907761841"><ele>122.0</ele><time>2026-03-15T18:48:45.998Z</time></trkpt><trkpt lat="45.44900784813998" lon="9.143208387635799"><ele>121.99999999999999</ele><time>2026-03-15T18:48:46.998Z</time></trkpt><trkpt lat="45.44897559538054" lon="9.143089787459967"><ele>121.99999999999999</ele><time>2026-03-15T18:48:47.998Z</time></trkpt><trkpt lat="45.44894315527989" lon="9.143003154797562"><ele>122.0</ele><time>2026-03-15T18:48:48.998Z</time></trkpt><trkpt lat="45.44890037333774" lon="9.142907576651462"><ele>122.0</ele><time>2026-03-15T18:48:49.998Z</time></trkpt><trkpt lat="45.44886766724843" lon="9.142775765537266"><ele>122.0</ele><time>2026-03-15T18:48:50.998Z</time></trkpt><trkpt lat="45.448817063515" lon="9.142631907058627"><ele>121.99999999999999</ele><time>2026-03-15T18:48:51.998Z</time></trkpt><trkpt lat="45.448780099637005" lon="9.142524149050049"><ele>121.99999999999999</ele><time>2026-03-15T18:48:52.998Z</time></trkpt><trkpt lat="45.44874873580682" lon="9.142429214244448"><ele>122.0</ele><time>2026-03-15T18:48:53.998Z</time></trkpt><trkpt lat="45.44871656537535" lon="9.142316615381969"><ele>122.0</ele><time>2026-03-15T18:48:54.998Z</time></trkpt><trkpt lat="45.44867485570248" lon="9.14216918180757"><ele>122.0</ele><time>2026-03-15T18:48:55.998Z</time></trkpt><trkpt lat="45.448611442936695" lon="9.14196439554655"><ele>122.0</ele><time>2026-03-15T18:48:56.998Z</time></trkpt><trkpt lat="45.448550050123835" lon="9.141794613436527"><ele>122.0</ele><time>2026-03-15T18:48:57.998Z</time></trkpt><trkpt lat="45.448505616345315" lon="9.141648618648874"><ele>122.0</ele><time>2026-03-15T18:48:58.998Z</time></trkpt><trkpt lat="45.448457430418664" lon="9.141496272884993"><ele>122.0</ele><time>2026-03-15T18:48:59.998Z</time></trkpt><trkpt lat="45.44839543579178" lon="9.141311907438595"><ele>122.0</ele><time>2026-03-15T18:49:00.998Z</time></trkpt><trkpt lat="45.44834146251378" lon="9.141153239813436"><ele>122.0</ele><time>2026-03-15T18:49:01.998Z</time></trkpt><trkpt lat="45.44829734063932" lon="9.141021927362614"><ele>122.0</ele><time>2026-03-15T18:49:02.998Z</time></trkpt><trkpt lat="45.448259361887914" lon="9.140899584873614"><ele>121.99999999999999</ele><time>2026-03-15T18:49:03.998Z</time></trkpt><trkpt lat="45.44823076752027" lon="9.140802719498092"><ele>122.0</ele><time>2026-03-15T18:49:04.998Z</time></trkpt><trkpt lat="45.44819687358224" lon="9.140709277487272"><ele>122.0</ele><time>2026-03-15T18:49:12.998Z</time></trkpt><trkpt lat="45.44816971877446" lon="9.140618997472876"><ele>122.0</ele><time>2026-03-15T18:49:14.997Z</time></trkpt><trkpt lat="45.44812949272368" lon="9.140546151735224"><ele>121.99999999999999</ele><time>2026-03-15T18:49:15.997Z</time></trkpt><trkpt lat="45.448099072877014" lon="9.140423762751102"><ele>122.0</ele><time>2026-03-15T18:49:16.997Z</time></trkpt><trkpt lat="45.448055440539" lon="9.140279883970729"><ele>122.0</ele><time>2026-03-15T18:49:17.997Z</time></trkpt><trkpt lat="45.44801600040036" lon="9.140167778588767"><ele>122.0</ele><time>2026-03-15T18:49:19Z</time></trkpt><trkpt lat="45.44796770408586" lon="9.140019868973756"><ele>122.0</ele><time>2026-03-15T18:49:21Z</time></trkpt><trkpt lat="45.44791169872381" lon="9.139835694424669"><ele>122.0</ele><time>2026-03-15T18:49:23Z</time></trkpt><trkpt lat="45.44784895778253" lon="9.139648711911228"><ele>120.33333333333333</ele><time>2026-03-15T18:49:24Z</time></trkpt><trkpt lat="45.44775666366414" lon="9.139401962462996"><ele>118.66666666666666</ele><time>2026-03-15T18:49:25Z</time></trkpt><trkpt lat="45.44765451033396" lon="9.139133432454042"><ele>117.0</ele><time>2026-03-15T18:49:26Z</time></trkpt><trkpt lat="45.44756696269577" lon="9.138855960266262"><ele>117.0</ele><time>2026-03-15T18:49:27Z</time></trkpt><trkpt lat="45.44749432615605" lon="9.138631644052372"><ele>117.0</ele><time>2026-03-15T18:49:28Z</time></trkpt><trkpt lat="45.447426666254295" lon="9.138420338790565"><ele>117.0</ele><time>2026-03-15T18:49:29Z</time></trkpt><trkpt lat="45.447368560943424" lon="9.138254222109913"><ele>117.19999999999999</ele><time>2026-03-15T18:49:30Z</time></trkpt><trkpt lat="45.447321184724316" lon="9.138121368725793"><ele>117.39999999999999</ele><time>2026-03-15T18:49:31Z</time></trkpt><trkpt lat="45.44728059894025" lon="9.138005217037565"><ele>117.60000000000001</ele><time>2026-03-15T18:49:32Z</time></trkpt><trkpt lat="45.447240634464315" lon="9.137886724934802"><ele>117.80000000000001</ele><time>2026-03-15T18:49:33Z</time></trkpt><trkpt lat="45.447197125198514" lon="9.13776114556556"><ele>118.0</ele><time>2026-03-15T18:49:34Z</time></trkpt><trkpt lat="45.44714358472922" lon="9.137572970111037"><ele>117.66666666666667</ele><time>2026-03-15T18:49:35Z</time></trkpt><trkpt lat="45.4470743400992" lon="9.137310220641778"><ele>117.33333333333334</ele><time>2026-03-15T18:49:36Z</time></trkpt><trkpt lat="45.44697793308249" lon="9.136997643816017"><ele>117.0</ele><time>2026-03-15T18:49:36.999Z</time></trkpt><trkpt lat="45.44685845578054" lon="9.136644913929498"><ele>117.5</ele><time>2026-03-15T18:49:37.999Z</time></trkpt><trkpt lat="45.446749631885105" lon="9.136315647346315"><ele>118.0</ele><time>2026-03-15T18:49:38.999Z</time></trkpt><trkpt lat="45.44666392532546" lon="9.13604998253703"><ele>118.0</ele><time>2026-03-15T18:49:39.999Z</time></trkpt><trkpt lat="45.446587897390195" lon="9.135809409204725"><ele>118.0</ele><time>2026-03-15T18:49:40.999Z</time></trkpt><trkpt lat="45.44651645522256" lon="9.135590739842884"><ele>118.0</ele><time>2026-03-15T18:49:41.999Z</time></trkpt><trkpt lat="45.44644945657524" lon="9.135395693669814"><ele>118.0</ele><time>2026-03-15T18:49:42.999Z</time></trkpt><trkpt lat="45.44638972716844" lon="9.135215207379915"><ele>118.0</ele><time>2026-03-15T18:49:43.999Z</time></trkpt><trkpt lat="45.44633068437087" lon="9.13503465979531"><ele>118.0</ele><time>2026-03-15T18:49:44.999Z</time></trkpt><trkpt lat="45.44626600387717" lon="9.13483825039302"><ele>118.0</ele><time>2026-03-15T18:49:45.999Z</time></trkpt><trkpt lat="45.446185692446186" lon="9.134592579398289"><ele>119.0</ele><time>2026-03-15T18:49:46.999Z</time></trkpt><trkpt lat="45.44609426496384" lon="9.134301580046351"><ele>120.0</ele><time>2026-03-15T18:49:47.999Z</time></trkpt><trkpt lat="45.44599470465535" lon="9.133994229525683"><ele>120.0</ele><time>2026-03-15T18:49:48.999Z</time></trkpt><trkpt lat="45.445889338088655" lon="9.133664475856085"><ele>120.0</ele><time>2026-03-15T18:49:49.999Z</time></trkpt><trkpt lat="45.445792031623725" lon="9.133359340075378"><ele>120.66666666666666</ele><time>2026-03-15T18:49:50.999Z</time></trkpt><trkpt lat="45.445702598759695" lon="9.133080349003857"><ele>121.33333333333333</ele><time>2026-03-15T18:49:51.999Z</time></trkpt><trkpt lat="45.44562548286512" lon="9.13283659189961"><ele>122.0</ele><time>2026-03-15T18:49:52.999Z</time></trkpt><trkpt lat="45.445553675903334" lon="9.132614113657567"><ele>122.0</ele><time>2026-03-15T18:49:53.999Z</time></trkpt><trkpt lat="45.445492103097656" lon="9.132423613384063"><ele>121.99999999999999</ele><time>2026-03-15T18:49:54.999Z</time></trkpt><trkpt lat="45.4454437299484" lon="9.132274025293343"><ele>121.99999999999999</ele><time>2026-03-15T18:49:55.999Z</time></trkpt><trkpt lat="45.44540495746213" lon="9.132153260942848"><ele>122.0</ele><time>2026-03-15T18:49:56.999Z</time></trkpt><trkpt lat="45.445368800961525" lon="9.132046552656474"><ele>122.0</ele><time>2026-03-15T18:49:57.999Z</time></trkpt><trkpt lat="45.445327978698934" lon="9.131943929025669"><ele>122.19999999999999</ele><time>2026-03-15T18:49:59.999Z</time></trkpt><trkpt lat="45.44525313832707" lon="9.131992692458176"><ele>122.39999999999999</ele><time>2026-03-15T18:50:01.999Z</time></trkpt><trkpt lat="45.44526358707833" lon="9.132203449107145"><ele>122.60000000000001</ele><time>2026-03-15T18:50:08.999Z</time></trkpt><trkpt lat="45.4453270346451" lon="9.132357514264706"><ele>122.80000000000001</ele><time>2026-03-15T18:50:10.999Z</time></trkpt><trkpt lat="45.44535847756787" lon="9.132467199545838"><ele>123.0</ele><time>2026-03-15T18:50:11.999Z</time></trkpt><trkpt lat="45.44538786922696" lon="9.132553341412157"><ele>123.0</ele><time>2026-03-15T18:50:12.999Z</time></trkpt><trkpt lat="45.445441404515776" lon="9.132714060687777"><ele>123.0</ele><time>2026-03-15T18:50:14.999Z</time></trkpt><trkpt lat="45.44546587157569" lon="9.132801764186603"><ele>123.0</ele><time>2026-03-15T18:50:15.999Z</time></trkpt><trkpt lat="45.445492927031985" lon="9.132889156583518"><ele>123.0</ele><time>2026-03-15T18:50:16.999Z</time></trkpt><trkpt lat="45.445527252758886" lon="9.132981064996303"><ele>123.0</ele><time>2026-03-15T18:50:17.999Z</time></trkpt><trkpt lat="45.44556015509983" lon="9.133077784608295"><ele>123.0</ele><time>2026-03-15T18:50:18.999Z</time></trkpt><trkpt lat="45.44559219345279" lon="9.133181641887424"><ele>122.57142857142858</ele><time>2026-03-15T18:50:19.999Z</time></trkpt><trkpt lat="45.44562315293923" lon="9.13328505380097"><ele>122.14285714285714</ele><time>2026-03-15T18:50:20.998Z</time></trkpt><trkpt lat="45.44565484315086" lon="9.133390097228347"><ele>121.71428571428572</ele><time>2026-03-15T18:50:21.998Z</time></trkpt><trkpt lat="45.44568736991869" lon="9.133488447893166"><ele>121.28571428571429</ele><time>2026-03-15T18:50:22.998Z</time></trkpt><trkpt lat="45.44571607227472" lon="9.13357065075819"><ele>120.85714285714286</ele><time>2026-03-15T18:50:23.998Z</time></trkpt><trkpt lat="45.44574737515975" lon="9.133661047167333"><ele>120.42857142857143</ele><time>2026-03-15T18:50:24.998Z</time></trkpt><trkpt lat="45.445778326896225" lon="9.13375446326652"><ele>120.0</ele><time>2026-03-15T18:50:25.998Z</time></trkpt><trkpt lat="45.44580773397918" lon="9.133846997493764"><ele>120.0</ele><time>2026-03-15T18:50:26.998Z</time></trkpt><trkpt lat="45.445837872760684" lon="9.133943255279835"><ele>120.0</ele><time>2026-03-15T18:50:27.998Z</time></trkpt><trkpt lat="45.44588189625098" lon="9.134076331663037"><ele>120.0</ele><time>2026-03-15T18:50:29.998Z</time></trkpt><trkpt lat="45.445925849062796" lon="9.134216154040235"><ele>120.0</ele><time>2026-03-15T18:50:31.998Z</time></trkpt><trkpt lat="45.445978937801854" lon="9.134364627221629"><ele>120.0</ele><time>2026-03-15T18:50:33.998Z</time></trkpt><trkpt lat="45.44602221210274" lon="9.134503278327681"><ele>120.75</ele><time>2026-03-15T18:50:35.998Z</time></trkpt><trkpt lat="45.44603048926882" lon="9.134599709872228"><ele>121.5</ele><time>2026-03-15T18:50:38.998Z</time></trkpt><trkpt lat="45.44581684500254" lon="9.134685098790204"><ele>122.25</ele><time>2026-03-15T18:50:40.998Z</time></trkpt><trkpt lat="45.44574014595403" lon="9.134720855223732"><ele>123.0</ele><time>2026-03-15T18:50:41.998Z</time></trkpt><trkpt lat="45.44566104919929" lon="9.134729066087266"><ele>123.0</ele><time>2026-03-15T18:50:42.998Z</time></trkpt><trkpt lat="45.44557566651902" lon="9.13478645318324"><ele>123.0</ele><time>2026-03-15T18:50:43.998Z</time></trkpt><trkpt lat="45.4454942206147" lon="9.134829743846273"><ele>123.0</ele><time>2026-03-15T18:50:44.998Z</time></trkpt><trkpt lat="45.44543778475844" lon="9.134892732648355"><ele>123.0</ele><time>2026-03-15T18:50:45.998Z</time></trkpt><trkpt lat="45.44538174947875" lon="9.134950713883947"><ele>123.0</ele><time>2026-03-15T18:50:48.998Z</time></trkpt><trkpt lat="45.445319297500184" lon="9.135005015692036"><ele>123.0</ele><time>2026-03-15T18:53:53Z</time></trkpt><trkpt lat="45.44517202172021" lon="9.134880800272859"><ele>122.0</ele><time>2026-03-15T18:53:55Z</time></trkpt><trkpt lat="45.4450965566622" lon="9.134778893124317"><ele>121.00000000000001</ele><time>2026-03-15T18:53:56Z</time></trkpt><trkpt lat="45.44501656344937" lon="9.134814960109816"><ele>120.00000000000001</ele><time>2026-03-15T18:53:57Z</time></trkpt><trkpt lat="45.444918642177164" lon="9.134790842500777"><ele>119.0</ele><time>2026-03-15T18:53:58Z</time></trkpt><trkpt lat="45.44482692419309" lon="9.13472703391481"><ele>118.0</ele><time>2026-03-15T18:53:59Z</time></trkpt><trkpt lat="45.44474540908756" lon="9.134665836683793"><ele>118.0</ele><time>2026-03-15T18:54:00Z</time></trkpt><trkpt lat="45.44463297399928" lon="9.13458296221827"><ele>118.0</ele><time>2026-03-15T18:54:01Z</time></trkpt><trkpt lat="45.44452902413869" lon="9.134505561692594"><ele>118.0</ele><time>2026-03-15T18:54:02Z</time></trkpt><trkpt lat="45.44444345187108" lon="9.13443600966375"><ele>118.0</ele><time>2026-03-15T18:54:03.076Z</time></trkpt><trkpt lat="45.444335060800235" lon="9.13434346640417"><ele>118.0</ele><time>2026-03-15T18:54:04.033Z</time></trkpt><trkpt lat="45.44488366586429" lon="9.134807768991179"><ele>127.0</ele><time>2026-03-15T18:54:05.032Z</time></trkpt><trkpt lat="45.445533038133945" lon="9.134953676971692"><ele>127.0</ele><time>2026-03-15T18:54:20.676Z</time></trkpt><trkpt lat="45.44586297431782" lon="9.134680507455021"><ele>127.0</ele><time>2026-03-15T18:54:41.911Z</time></trkpt><trkpt lat="45.445533038133945" lon="9.134953676971692"><ele>125.66666666666667</ele><time>2026-03-15T18:54:57.799Z</time></trkpt><trkpt lat="45.44576257036526" lon="9.134715932038493"><ele>124.33333333333334</ele><time>2026-03-15T18:55:21.707Z</time></trkpt><trkpt lat="45.44586116527022" lon="9.13473747425696"><ele>123.0</ele><time>2026-03-15T18:55:50.175Z</time></trkpt><trkpt lat="45.446122448191765" lon="9.134745518195949"><ele>123.0</ele><time>2026-03-15T18:55:58.162Z</time></trkpt><trkpt lat="45.445870108256905" lon="9.134660991528435"><ele>123.0</ele><time>2026-03-15T18:56:11.758Z</time></trkpt><trkpt lat="45.445533038133945" lon="9.134953676971692"><ele>123.0</ele><time>2026-03-15T18:56:18.269Z</time></trkpt><trkpt lat="45.4458070123068" lon="9.13465353684152"><ele>123.0</ele><time>2026-03-15T18:56:39.748Z</time></trkpt><trkpt lat="45.445533038133945" lon="9.134953676971692"><ele>123.0</ele><time>2026-03-15T18:57:19.48Z</time></trkpt><trkpt lat="45.445821879689596" lon="9.134609686880381"><ele>123.0</ele><time>2026-03-15T18:57:51.896Z</time></trkpt><trkpt lat="45.44536459605594" lon="9.134926590471656"><ele>122.83333333333333</ele><time>2026-03-15T18:57:54.994Z</time></trkpt><trkpt lat="45.44540275933479" lon="9.135012958355953"><ele>122.66666666666666</ele><time>2026-03-15T19:07:43.998Z</time></trkpt><trkpt lat="45.44533429706524" lon="9.134986463603148"><ele>122.5</ele><time>2026-03-15T19:08:14.998Z</time></trkpt><trkpt lat="45.44527554391283" lon="9.135030631632976"><ele>122.33333333333333</ele><time>2026-03-15T19:08:21.072Z</time></trkpt><trkpt lat="45.445191737302366" lon="9.135118511532971"><ele>122.16666666666666</ele><time>2026-03-15T19:08:22.056Z</time></trkpt><trkpt lat="45.44518030750476" lon="9.135274387341054"><ele>122.0</ele><time>2026-03-15T19:08:25.036Z</time></trkpt><trkpt lat="45.44515650367737" lon="9.135387173058783"><ele>122.0</ele><time>2026-03-15T19:08:26.036Z</time></trkpt><trkpt lat="45.44508866973351" lon="9.135413527827346"><ele>122.0</ele><time>2026-03-15T19:08:27.035Z</time></trkpt><trkpt lat="45.44502332146442" lon="9.135596511931613"><ele>122.0</ele><time>2026-03-15T19:08:38.719Z</time></trkpt><trkpt lat="45.44530377541839" lon="9.135031200451724"><ele>122.0</ele><time>2026-03-15T19:08:47.029Z</time></trkpt><trkpt lat="45.44539252026809" lon="9.135025438330556"><ele>121.99999999999999</ele><time>2026-03-15T19:08:53.997Z</time></trkpt><trkpt lat="45.44540403961628" lon="9.134927472271587"><ele>121.99999999999999</ele><time>2026-03-15T19:08:55.997Z</time></trkpt><trkpt lat="45.445553243063046" lon="9.134867374093366"><ele>122.0</ele><time>2026-03-15T19:08:59Z</time></trkpt><trkpt lat="45.44547496944286" lon="9.134936666683398"><ele>122.0</ele><time>2026-03-15T19:09:20.037Z</time></trkpt><trkpt lat="45.445472493936364" lon="9.134838723716529"><ele>123.25</ele><time>2026-03-15T19:09:23.031Z</time></trkpt><trkpt lat="45.445545963734745" lon="9.13503833950311"><ele>124.5</ele><time>2026-03-15T19:09:30Z</time></trkpt><trkpt lat="45.44555702629106" lon="9.135209398406632"><ele>125.75</ele><time>2026-03-15T19:09:31Z</time></trkpt><trkpt lat="45.4455915479607" lon="9.135304595430792"><ele>127.0</ele><time>2026-03-15T19:09:33Z</time></trkpt><trkpt lat="45.44555863555519" lon="9.135141582172892"><ele>127.0</ele><time>2026-03-15T19:09:34Z</time></trkpt><trkpt lat="45.44552985923701" lon="9.13499790220887"><ele>126.99999999999999</ele><time>2026-03-15T19:11:03.495Z</time></trkpt><trkpt lat="45.445550277757945" lon="9.135138312685495"><ele>126.99999999999999</ele><time>2026-03-15T19:22:26.017Z</time></trkpt><trkpt lat="45.44554306115188" lon="9.135228929969362"><ele>127.0</ele><time>2026-03-15T19:22:29.018Z</time></trkpt><trkpt lat="45.44567772663678" lon="9.135239935622907"><ele>127.0</ele><time>2026-03-15T19:23:17Z</time></trkpt><trkpt lat="45.445736750802475" lon="9.13530655649815"><ele>127.00000000000001</ele><time>2026-03-15T19:23:19Z</time></trkpt><trkpt lat="45.44569496444955" lon="9.135147827804788"><ele>127.0</ele><time>2026-03-15T19:23:23Z</time></trkpt><trkpt lat="45.44562686075668" lon="9.135097394757432"><ele>127.0</ele><time>2026-03-15T19:24:27.997Z</time></trkpt><trkpt lat="45.44558877175147" lon="9.135022773799879"><ele>127.0</ele><time>2026-03-15T19:29:43.999Z</time></trkpt><trkpt lat="45.445584315654116" lon="9.134908867705276"><ele>127.00000000000001</ele><time>2026-03-15T19:30:24.998Z</time></trkpt><trkpt lat="45.44556613929796" lon="9.134767532824169"><ele>127.0</ele><time>2026-03-15T19:30:35.998Z</time></trkpt><trkpt lat="45.44568533302372" lon="9.134786691931186"><ele>127.00000000000001</ele><time>2026-03-15T19:30:56.028Z</time></trkpt><trkpt lat="45.445653064003956" lon="9.134874490362476"><ele>127.0</ele><time>2026-03-15T19:31:16.026Z</time></trkpt><trkpt lat="45.44563245495903" lon="9.134973391939848"><ele>127.0</ele><time>2026-03-15T19:31:28.028Z</time></trkpt><trkpt lat="45.44560712316015" lon="9.135078594878847"><ele>127.0</ele><time>2026-03-15T19:34:51.015Z</time></trkpt><trkpt lat="45.445524493081926" lon="9.135098137528736"><ele>127.00000000000001</ele><time>2026-03-15T19:35:14.015Z</time></trkpt><trkpt lat="45.445590887292745" lon="9.135173114424733"><ele>127.0</ele><time>2026-03-15T19:35:25.013Z</time></trkpt><trkpt lat="45.44561784151187" lon="9.13526636847391"><ele>127.0</ele><time>2026-03-15T19:35:27.012Z</time></trkpt><trkpt lat="45.44564580163059" lon="9.1353744835201"><ele>127.0</ele><time>2026-03-15T19:35:29.012Z</time></trkpt><trkpt lat="45.44566014269107" lon="9.135494027755442"><ele>127.0</ele><time>2026-03-15T19:35:31.012Z</time></trkpt><trkpt lat="45.44555558042941" lon="9.135031788015654"><ele>127.00000000000001</ele><time>2026-03-15T19:35:35.014Z</time></trkpt><trkpt lat="45.445598357412656" lon="9.135131284747597"><ele>127.0</ele><time>2026-03-15T19:35:39.014Z</time></trkpt><trkpt lat="45.44550497254498" lon="9.135072212317597"><ele>127.0</ele><time>2026-03-15T19:36:04.011Z</time></trkpt><trkpt lat="45.445534517599945" lon="9.134986107252733"><ele>127.0</ele><time>2026-03-15T19:37:59.014Z</time></trkpt><trkpt lat="45.44557953525321" lon="9.135053114867501"><ele>127.00000000000001</ele><time>2026-03-15T19:38:04.013Z</time></trkpt><trkpt lat="45.44554599806746" lon="9.135139928075695"><ele>127.0</ele><time>2026-03-15T19:38:12.012Z</time></trkpt><trkpt lat="45.44555286532357" lon="9.134997266965781"><ele>127.0</ele><time>2026-03-15T19:38:36.014Z</time></trkpt><trkpt lat="45.44553264554423" lon="9.134910351131737"><ele>127.0</ele><time>2026-03-15T19:38:49.013Z</time></trkpt><trkpt lat="45.445545148049725" lon="9.135022667803419"><ele>127.0</ele><time>2026-03-15T19:42:37.013Z</time></trkpt><trkpt lat="45.445569610329045" lon="9.135111721955871"><ele>127.0</ele><time>2026-03-15T19:42:38.013Z</time></trkpt><trkpt lat="45.44555678302091" lon="9.135022760863155"><ele>127.0</ele><time>2026-03-15T19:48:09.999Z</time></trkpt><trkpt lat="45.44560283971646" lon="9.134900404715967"><ele>127.0</ele><time>2026-03-15T19:52:56.999Z</time></trkpt><trkpt lat="45.44556599196926" lon="9.134977588269207"><ele>127.0</ele><time>2026-03-15T19:53:08.999Z</time></trkpt><trkpt lat="45.44554511500168" lon="9.135072362970979"><ele>127.0</ele><time>2026-03-15T19:53:15.998Z</time></trkpt><trkpt lat="45.445561048216454" lon="9.135207743083967"><ele>126.99999999999999</ele><time>2026-03-15T19:53:39.998Z</time></trkpt><trkpt lat="45.44556318381933" lon="9.135098200059954"><ele>126.99999999999999</ele><time>2026-03-15T19:53:58.998Z</time></trkpt><trkpt lat="45.44555109415166" lon="9.135216825478352"><ele>127.0</ele><time>2026-03-15T19:54:11Z</time></trkpt><trkpt lat="45.44553313590162" lon="9.135028800219727"><ele>127.0</ele><time>2026-03-15T19:57:27.999Z</time></trkpt><trkpt lat="45.44557616608164" lon="9.135095903049585"><ele>127.0</ele><time>2026-03-15T19:57:35.999Z</time></trkpt><trkpt lat="45.44558249304375" lon="9.135263696173235"><ele>126.99999999999999</ele><time>2026-03-15T19:57:37.999Z</time></trkpt><trkpt lat="45.44558673888385" lon="9.135375787632626"><ele>126.99999999999999</ele><time>2026-03-15T19:57:39.999Z</time></trkpt><trkpt lat="45.44560353640684" lon="9.135512711273291"><ele>127.0</ele><time>2026-03-15T19:57:41.999Z</time></trkpt><trkpt lat="45.44563150054969" lon="9.135730354234482"><ele>127.0</ele><time>2026-03-15T19:57:46.998Z</time></trkpt><trkpt lat="45.44564603839077" lon="9.135829984532593"><ele>127.0</ele><time>2026-03-15T19:57:48.998Z</time></trkpt><trkpt lat="45.44563825260333" lon="9.13573548515353"><ele>127.0</ele><time>2026-03-15T19:57:54.998Z</time></trkpt><trkpt lat="45.445604519148006" lon="9.135551995382782"><ele>127.0</ele><time>2026-03-15T19:57:58.998Z</time></trkpt><trkpt lat="45.44551373366666" lon="9.13507220083047"><ele>127.0</ele><time>2026-03-15T19:58:27.001Z</time></trkpt><trkpt lat="45.44553166177869" lon="9.135193234262466"><ele>126.99999999999999</ele><time>2026-03-15T19:59:03Z</time></trkpt><trkpt lat="45.445477243310506" lon="9.135284834460697"><ele>126.99999999999999</ele><time>2026-03-15T19:59:20.999Z</time></trkpt><trkpt lat="45.44546142182095" lon="9.13540058800948"><ele>127.0</ele><time>2026-03-15T19:59:21.999Z</time></trkpt><trkpt lat="45.44546290980209" lon="9.135562947109763"><ele>127.0</ele><time>2026-03-15T19:59:22.999Z</time></trkpt><trkpt lat="45.44548098074994" lon="9.135701376359489"><ele>127.00000000000001</ele><time>2026-03-15T19:59:24.999Z</time></trkpt><trkpt lat="45.44548482779987" lon="9.135804367863594"><ele>127.0</ele><time>2026-03-15T19:59:26.998Z</time></trkpt><trkpt lat="45.44549991727097" lon="9.135643987256731"><ele>127.0</ele><time>2026-03-15T19:59:27.998Z</time></trkpt><trkpt lat="45.445479218061074" lon="9.135548299143705"><ele>127.0</ele><time>2026-03-15T19:59:35.998Z</time></trkpt><trkpt lat="45.44544533990437" lon="9.135463440662782"><ele>127.00000000000001</ele><time>2026-03-15T19:59:42.998Z</time></trkpt><trkpt lat="45.44542401935083" lon="9.135352274835038"><ele>127.0</ele><time>2026-03-15T19:59:45.998Z</time></trkpt><trkpt lat="45.44544835508292" lon="9.13520924250498"><ele>127.0</ele><time>2026-03-15T19:59:48.998Z</time></trkpt><trkpt lat="45.44549120654652" lon="9.135143211458821"><ele>127.0</ele><time>2026-03-15T19:59:51.998Z</time></trkpt><trkpt lat="45.445447562079046" lon="9.134992588622474"><ele>127.0</ele><time>2026-03-15T19:59:53.998Z</time></trkpt><trkpt lat="45.44550981234661" lon="9.134952970947719"><ele>127.0</ele><time>2026-03-15T20:00:07.997Z</time></trkpt><trkpt lat="45.44571980814914" lon="9.135020303700474"><ele>127.0</ele><time>2026-03-15T20:00:10.997Z</time></trkpt><trkpt lat="45.445783675388974" lon="9.135060452317756"><ele>127.0</ele><time>2026-03-15T20:00:11.997Z</time></trkpt><trkpt lat="45.445833345128946" lon="9.135122523320394"><ele>127.0</ele><time>2026-03-15T20:00:12.997Z</time></trkpt><trkpt lat="45.44572879469097" lon="9.135129386281434"><ele>127.0</ele><time>2026-03-15T20:00:22.997Z</time></trkpt><trkpt lat="45.445664815298144" lon="9.135142987644155"><ele>127.0</ele><time>2026-03-15T20:00:30.999Z</time></trkpt><trkpt lat="45.44561044440895" lon="9.135207617234155"><ele>127.0</ele><time>2026-03-15T20:00:39.999Z</time></trkpt><trkpt lat="45.44555417927107" lon="9.135163563769838"><ele>127.0</ele><time>2026-03-15T20:00:46.999Z</time></trkpt><trkpt lat="45.44552525999119" lon="9.135082740980137"><ele>127.00000000000001</ele><time>2026-03-15T20:00:54.999Z</time></trkpt><trkpt lat="45.445525904171625" lon="9.1349849753168"><ele>127.0</ele><time>2026-03-15T20:01:04.999Z</time></trkpt><trkpt lat="45.44558700027153" lon="9.13492878276505"><ele>127.0</ele><time>2026-03-15T20:01:09.999Z</time></trkpt><trkpt lat="45.445523694079746" lon="9.134951357545203"><ele>127.0</ele><time>2026-03-15T20:02:06.998Z</time></trkpt><trkpt lat="45.445468906725075" lon="9.134905146606624"><ele>127.00000000000001</ele><time>2026-03-15T20:02:24.997Z</time></trkpt><trkpt lat="45.4455270743765" lon="9.134957587922171"><ele>127.0</ele><time>2026-03-15T20:02:28.997Z</time></trkpt><trkpt lat="45.44556982428896" lon="9.135173741733762"><ele>127.0</ele><time>2026-03-15T20:02:47.999Z</time></trkpt><trkpt lat="45.44552315751286" lon="9.13509374175582"><ele>127.0</ele><time>2026-03-15T20:02:59.999Z</time></trkpt><trkpt lat="45.44546676970237" lon="9.135048367526366"><ele>127.0</ele><time>2026-03-15T20:03:19.999Z</time></trkpt><trkpt lat="45.445513773926486" lon="9.13497220368565"><ele>127.0</ele><time>2026-03-15T20:03:23.999Z</time></trkpt><trkpt lat="45.445457156311114" lon="9.13491809461947"><ele>127.0</ele><time>2026-03-15T20:03:32.999Z</time></trkpt><trkpt lat="45.44543512950224" lon="9.134832803640261"><ele>127.0</ele><time>2026-03-15T20:03:46.998Z</time></trkpt><trkpt lat="45.44535751585079" lon="9.134894870560501"><ele>127.0</ele><time>2026-03-15T20:07:50.998Z</time></trkpt><trkpt lat="45.44528741575828" lon="9.134970542757054"><ele>126.0</ele><time>2026-03-15T20:07:59.998Z</time></trkpt><trkpt lat="45.44526227711737" lon="9.135058832335758"><ele>125.0</ele><time>2026-03-15T20:08:40.998Z</time></trkpt><trkpt lat="45.445328375928746" lon="9.135007080590125"><ele>124.0</ele><time>2026-03-15T20:09:13Z</time></trkpt><trkpt lat="45.445439521484545" lon="9.134943507718816"><ele>123.0</ele><time>2026-03-15T20:09:38.999Z</time></trkpt><trkpt lat="45.44561585371824" lon="9.134757101802657"><ele>123.0</ele><time>2026-03-15T20:09:42.999Z</time></trkpt><trkpt lat="45.445726790390246" lon="9.134726977123332"><ele>123.0</ele><time>2026-03-15T20:09:55.999Z</time></trkpt><trkpt lat="45.44564490597056" lon="9.134737591081304"><ele>123.0</ele><time>2026-03-15T20:10:17.998Z</time></trkpt><trkpt lat="45.44557568583615" lon="9.134777231425726"><ele>123.0</ele><time>2026-03-15T20:10:26.998Z</time></trkpt><trkpt lat="45.44550763526631" lon="9.134778251795426"><ele>123.0</ele><time>2026-03-15T20:10:34.998Z</time></trkpt><trkpt lat="45.445470492489854" lon="9.134661229374318"><ele>123.0</ele><time>2026-03-15T20:10:36.998Z</time></trkpt><trkpt lat="45.44542902177484" lon="9.134566215507611"><ele>124.33333333333334</ele><time>2026-03-15T20:10:38.998Z</time></trkpt><trkpt lat="45.44538124166328" lon="9.134464632511923"><ele>125.66666666666667</ele><time>2026-03-15T20:10:40.998Z</time></trkpt><trkpt lat="45.44532699276315" lon="9.134366868714931"><ele>127.0</ele><time>2026-03-15T20:10:42.998Z</time></trkpt><trkpt lat="45.445533038133945" lon="9.134953676971692"><ele>127.0</ele><time>2026-03-15T20:10:43.998Z</time></trkpt><trkpt lat="45.4455361350481" lon="9.134863882459468"><ele>126.99999999999999</ele><time>2026-03-15T20:11:38.029Z</time></trkpt><trkpt lat="45.445469397970676" lon="9.134643022341796"><ele>126.99999999999999</ele><time>2026-03-15T20:11:40.027Z</time></trkpt><trkpt lat="45.44550524363082" lon="9.134755280557169"><ele>127.0</ele><time>2026-03-15T20:11:48.028Z</time></trkpt><trkpt lat="45.445516345205306" lon="9.134844135728942"><ele>127.0</ele><time>2026-03-15T20:12:08.022Z</time></trkpt><trkpt lat="45.44552651612187" lon="9.134948999144827"><ele>127.00000000000001</ele><time>2026-03-15T20:14:30.999Z</time></trkpt><trkpt lat="45.44557350793244" lon="9.135008838205382"><ele>127.0</ele><time>2026-03-15T20:15:09.998Z</time></trkpt><trkpt lat="45.445630514300596" lon="9.134951612572753"><ele>127.0</ele><time>2026-03-15T20:15:39.998Z</time></trkpt><trkpt lat="45.44557496879307" lon="9.134883100284839"><ele>127.0</ele><time>2026-03-15T20:15:59.999Z</time></trkpt><trkpt lat="45.4454953526948" lon="9.13486503672104"><ele>127.00000000000001</ele><time>2026-03-15T20:16:02.999Z</time></trkpt><trkpt lat="45.44545256567467" lon="9.13473780496803"><ele>127.0</ele><time>2026-03-15T20:16:27.999Z</time></trkpt><trkpt lat="45.44538195757855" lon="9.134777504771533"><ele>127.0</ele><time>2026-03-15T20:16:31.999Z</time></trkpt><trkpt lat="45.445578012334416" lon="9.135014019191026"><ele>127.0</ele><time>2026-03-15T20:16:43.999Z</time></trkpt><trkpt lat="45.44566079134677" lon="9.13513842742459"><ele>127.0</ele><time>2026-03-15T20:16:46.037Z</time></trkpt><trkpt lat="45.445731880617586" lon="9.135232273376156"><ele>127.0</ele><time>2026-03-15T20:16:48.036Z</time></trkpt><trkpt lat="45.44579071349225" lon="9.135000978044832"><ele>127.0</ele><time>2026-03-15T20:16:50.034Z</time></trkpt><trkpt lat="45.44571148706883" lon="9.135111146730203"><ele>127.0</ele><time>2026-03-15T20:17:08.027Z</time></trkpt><trkpt lat="45.445533038133945" lon="9.134953676971692"><ele>127.0</ele><time>2026-03-15T20:17:13.246Z</time></trkpt><trkpt lat="45.44560777518121" lon="9.13510245490394"><ele>126.99999999999999</ele><time>2026-03-15T20:17:44.082Z</time></trkpt><trkpt lat="45.44553667755935" lon="9.134909478562456"><ele>126.99999999999999</ele><time>2026-03-15T20:18:09.578Z</time></trkpt><trkpt lat="45.445539796064516" lon="9.135003974684102"><ele>127.0</ele><time>2026-03-15T20:19:01.017Z</time></trkpt><trkpt lat="45.445475643594314" lon="9.13499049817516"><ele>127.0</ele><time>2026-03-15T20:19:10.996Z</time></trkpt><trkpt lat="45.445406428461126" lon="9.134988958935697"><ele>127.0</ele><time>2026-03-15T20:19:15Z</time></trkpt><trkpt lat="45.44536279441262" lon="9.134904298900391"><ele>127.0</ele><time>2026-03-15T20:19:40Z</time></trkpt><trkpt lat="45.4454168673078" lon="9.134997770933074"><ele>127.0</ele><time>2026-03-15T20:21:12.997Z</time></trkpt><trkpt lat="45.44545555984289" lon="9.134921416712007"><ele>127.0</ele><time>2026-03-15T20:21:32.999Z</time></trkpt><trkpt lat="45.44545045411475" lon="9.134823421264096"><ele>127.0</ele><time>2026-03-15T20:21:44.999Z</time></trkpt><trkpt lat="45.445488313512605" lon="9.134906415854546"><ele>127.0</ele><time>2026-03-15T20:21:51.999Z</time></trkpt><trkpt lat="45.44554981167954" lon="9.13494009192664"><ele>127.0</ele><time>2026-03-15T20:22:00.999Z</time></trkpt><trkpt lat="45.44550206330574" lon="9.135025801722042"><ele>127.0</ele><time>2026-03-15T20:22:10.002Z</time></trkpt><trkpt lat="45.445608963153276" lon="9.135257938614926"><ele>127.0</ele><time>2026-03-15T20:22:36.03Z</time></trkpt><trkpt lat="45.44568115213654" lon="9.135298921094583"><ele>127.0</ele><time>2026-03-15T20:22:44.031Z</time></trkpt><trkpt lat="45.445533038133945" lon="9.134953676971692"><ele>127.00000000000001</ele><time>2026-03-15T20:22:57.196Z</time></trkpt><trkpt lat="45.44548635846565" lon="9.135032121153383"><ele>127.0</ele><time>2026-03-15T20:24:00.014Z</time></trkpt><trkpt lat="45.44554212176258" lon="9.134956340098977"><ele>127.0</ele><time>2026-03-15T20:24:06.997Z</time></trkpt><trkpt lat="45.44546493065556" lon="9.134964147034282"><ele>127.0</ele><time>2026-03-15T20:24:08.996Z</time></trkpt><trkpt lat="45.44549985698264" lon="9.134882929910447"><ele>127.00000000000001</ele><time>2026-03-15T20:24:30Z</time></trkpt><trkpt lat="45.445567727400245" lon="9.134829511785073"><ele>127.0</ele><time>2026-03-15T20:24:32Z</time></trkpt><trkpt lat="45.44564383591999" lon="9.13477896224271"><ele>126.33333333333334</ele><time>2026-03-15T20:24:34Z</time></trkpt><trkpt lat="45.445711814341465" lon="9.134742907475559"><ele>125.66666666666667</ele><time>2026-03-15T20:24:36Z</time></trkpt><trkpt lat="45.44578856856642" lon="9.134716576978485"><ele>125.0</ele><time>2026-03-15T20:24:38.999Z</time></trkpt><trkpt lat="45.445728800000005" lon="9.134747299999999"><ele>124.33333333333334</ele><time>2026-03-15T20:24:51.342Z</time></trkpt><trkpt lat="45.445821599999995" lon="9.134712400000002"><ele>123.66666666666667</ele><time>2026-03-15T20:25:09.342Z</time></trkpt><trkpt lat="45.4458969" lon="9.13466"><ele>123.0</ele><time>2026-03-15T20:25:11.339Z</time></trkpt><trkpt lat="45.4459543" lon="9.1346158"><ele>123.0</ele><time>2026-03-15T20:25:20.406Z</time></trkpt><trkpt lat="45.4460334" lon="9.1345733"><ele>123.00000000000001</ele><time>2026-03-15T20:25:31.349Z</time></trkpt><trkpt lat="45.446098" lon="9.134705600000002"><ele>123.00000000000001</ele><time>2026-03-15T20:25:33.413Z</time></trkpt><trkpt lat="45.4461242" lon="9.1348017"><ele>123.0</ele><time>2026-03-15T20:25:34.337Z</time></trkpt><trkpt lat="45.44616182227964" lon="9.134948666303758"><ele>123.0</ele><time>2026-03-15T20:25:36.337Z</time></trkpt><trkpt lat="45.446358399999994" lon="9.134918699999998"><ele>122.4</ele><time>2026-03-15T20:25:41.339Z</time></trkpt><trkpt lat="45.446487399999995" lon="9.1348218"><ele>121.80000000000001</ele><time>2026-03-15T20:25:43.34Z</time></trkpt><trkpt lat="45.446575100000004" lon="9.134766099999998"><ele>121.2</ele><time>2026-03-15T20:25:44.336Z</time></trkpt><trkpt lat="45.4466654" lon="9.1347091"><ele>120.6</ele><time>2026-03-15T20:25:45.335Z</time></trkpt><trkpt lat="45.4467524" lon="9.1346555"><ele>120.0</ele><time>2026-03-15T20:25:46.357Z</time></trkpt><trkpt lat="45.446828700000005" lon="9.1346084"><ele>120.0</ele><time>2026-03-15T20:25:47.349Z</time></trkpt><trkpt lat="45.446896091099894" lon="9.134539150556037"><ele>120.0</ele><time>2026-03-15T20:25:48.363Z</time></trkpt><trkpt lat="45.44698041491198" lon="9.134485100909108"><ele>120.0</ele><time>2026-03-15T20:25:49.339Z</time></trkpt><trkpt lat="45.44707636221808" lon="9.134422696157742"><ele>120.0</ele><time>2026-03-15T20:25:50.386Z</time></trkpt><trkpt lat="45.447178623082515" lon="9.134356185025739"><ele>120.0</ele><time>2026-03-15T20:25:51.358Z</time></trkpt><trkpt lat="45.4474004" lon="9.134240400000001"><ele>120.25</ele><time>2026-03-15T20:25:53.342Z</time></trkpt><trkpt lat="45.447512" lon="9.1341659"><ele>120.5</ele><time>2026-03-15T20:25:54.353Z</time></trkpt><trkpt lat="45.4476275" lon="9.1340904"><ele>120.75</ele><time>2026-03-15T20:25:55.339Z</time></trkpt><trkpt lat="45.4477444" lon="9.134013599999998"><ele>121.0</ele><time>2026-03-15T20:25:56.348Z</time></trkpt><trkpt lat="45.4478619" lon="9.1339352"><ele>120.75</ele><time>2026-03-15T20:25:57.352Z</time></trkpt><trkpt lat="45.4479799" lon="9.1338564"><ele>120.5</ele><time>2026-03-15T20:25:58.398Z</time></trkpt><trkpt lat="45.448096199999995" lon="9.133779299999999"><ele>120.25</ele><time>2026-03-15T20:25:59.337Z</time></trkpt><trkpt lat="45.4482078" lon="9.133705099999998"><ele>120.0</ele><time>2026-03-15T20:26:00.362Z</time></trkpt><trkpt lat="45.448315599999994" lon="9.1336334"><ele>120.0</ele><time>2026-03-15T20:26:01.366Z</time></trkpt><trkpt lat="45.4484194" lon="9.1335665"><ele>120.0</ele><time>2026-03-15T20:26:02.34Z</time></trkpt><trkpt lat="45.4485163" lon="9.133503900000001"><ele>120.0</ele><time>2026-03-15T20:26:03.405Z</time></trkpt><trkpt lat="45.448605" lon="9.1334459"><ele>120.0</ele><time>2026-03-15T20:26:04.334Z</time></trkpt><trkpt lat="45.4486801" lon="9.133396399999999"><ele>120.0</ele><time>2026-03-15T20:26:05.352Z</time></trkpt><trkpt lat="45.4487444" lon="9.1333539"><ele>119.5</ele><time>2026-03-15T20:26:06.382Z</time></trkpt><trkpt lat="45.44881958297322" lon="9.133267657700767"><ele>119.0</ele><time>2026-03-15T20:26:08.43Z</time></trkpt><trkpt lat="45.44888052767489" lon="9.133233280075858"><ele>118.5</ele><time>2026-03-15T20:26:15.341Z</time></trkpt><trkpt lat="45.4489659" lon="9.133436"><ele>118.0</ele><time>2026-03-15T20:26:17.34Z</time></trkpt><trkpt lat="45.44894882157175" lon="9.13361125944556"><ele>118.0</ele><time>2026-03-15T20:26:18.365Z</time></trkpt><trkpt lat="45.44900044583364" lon="9.133775440199349"><ele>118.0</ele><time>2026-03-15T20:26:19.339Z</time></trkpt><trkpt lat="45.44917170000001" lon="9.1341181"><ele>118.0</ele><time>2026-03-15T20:26:21.436Z</time></trkpt><trkpt lat="45.44919959849747" lon="9.134325386240578"><ele>118.25</ele><time>2026-03-15T20:26:22.336Z</time></trkpt><trkpt lat="45.44925996474833" lon="9.134494422787865"><ele>118.5</ele><time>2026-03-15T20:26:23.339Z</time></trkpt><trkpt lat="45.449338000000004" lon="9.1346471"><ele>118.75</ele><time>2026-03-15T20:26:24.336Z</time></trkpt><trkpt lat="45.44938780000001" lon="9.1348045"><ele>119.0</ele><time>2026-03-15T20:26:25.339Z</time></trkpt><trkpt lat="45.44940747589784" lon="9.134958768381997"><ele>119.0</ele><time>2026-03-15T20:26:26.354Z</time></trkpt><trkpt lat="45.44944549223105" lon="9.135078430350326"><ele>119.0</ele><time>2026-03-15T20:26:27.334Z</time></trkpt><trkpt lat="45.4495491" lon="9.1352139"><ele>119.0</ele><time>2026-03-15T20:26:29.338Z</time></trkpt><trkpt lat="45.44951660869365" lon="9.13530525160993"><ele>119.0</ele><time>2026-03-15T20:26:30.34Z</time></trkpt><trkpt lat="45.44954606996479" lon="9.135405296325303"><ele>119.0</ele><time>2026-03-15T20:26:32.347Z</time></trkpt><trkpt lat="45.44961440000001" lon="9.135425"><ele>118.66666666666666</ele><time>2026-03-15T20:27:22.345Z</time></trkpt><trkpt lat="45.4496493" lon="9.1355331"><ele>118.33333333333333</ele><time>2026-03-15T20:27:24.42Z</time></trkpt><trkpt lat="45.4496988" lon="9.135671199999999"><ele>118.0</ele><time>2026-03-15T20:27:26.361Z</time></trkpt><trkpt lat="45.449749999999995" lon="9.1357256"><ele>117.66666666666666</ele><time>2026-03-15T20:27:27.342Z</time></trkpt><trkpt lat="45.449816799999994" lon="9.135749"><ele>117.33333333333333</ele><time>2026-03-15T20:27:28.337Z</time></trkpt><trkpt lat="45.44989569999999" lon="9.1357365"><ele>117.0</ele><time>2026-03-15T20:27:29.429Z</time></trkpt><trkpt lat="45.4499655809588" lon="9.135661102236524"><ele>117.0</ele><time>2026-03-15T20:27:30.335Z</time></trkpt><trkpt lat="45.45003463224295" lon="9.135618794777125"><ele>117.0</ele><time>2026-03-15T20:27:31.335Z</time></trkpt><trkpt lat="45.450107499999994" lon="9.135680800000001"><ele>117.0</ele><time>2026-03-15T20:27:32.4Z</time></trkpt><trkpt lat="45.45017339999999" lon="9.1357345"><ele>117.0</ele><time>2026-03-15T20:27:33.342Z</time></trkpt><trkpt lat="45.4502446" lon="9.1357902"><ele>117.0</ele><time>2026-03-15T20:27:34.339Z</time></trkpt><trkpt lat="45.45030740000001" lon="9.1358523"><ele>117.0</ele><time>2026-03-15T20:27:35.342Z</time></trkpt><trkpt lat="45.4504193" lon="9.135892900000002"><ele>117.83333333333333</ele><time>2026-03-15T20:27:37.415Z</time></trkpt><trkpt lat="45.4504781" lon="9.1358563"><ele>118.66666666666666</ele><time>2026-03-15T20:27:38.359Z</time></trkpt><trkpt lat="45.450548" lon="9.135810300000001"><ele>119.5</ele><time>2026-03-15T20:27:39.335Z</time></trkpt><trkpt lat="45.450627600000004" lon="9.135759700000001"><ele>120.33333333333333</ele><time>2026-03-15T20:27:40.341Z</time></trkpt><trkpt lat="45.450711000000005" lon="9.135703"><ele>121.16666666666666</ele><time>2026-03-15T20:27:41.344Z</time></trkpt><trkpt lat="45.4507924" lon="9.135643700000001"><ele>122.0</ele><time>2026-03-15T20:27:42.332Z</time></trkpt><trkpt lat="45.45086740000001" lon="9.135596399999999"><ele>121.99999999999999</ele><time>2026-03-15T20:27:43.335Z</time></trkpt><trkpt lat="45.450941900000004" lon="9.1355522"><ele>122.0</ele><time>2026-03-15T20:27:44.337Z</time></trkpt><trkpt lat="45.45102860000001" lon="9.1354957"><ele>122.0</ele><time>2026-03-15T20:27:45.353Z</time></trkpt><trkpt lat="45.4511131" lon="9.1354405"><ele>122.0</ele><time>2026-03-15T20:27:46.356Z</time></trkpt><trkpt lat="45.4511858" lon="9.135395500000001"><ele>121.99999999999999</ele><time>2026-03-15T20:27:47.345Z</time></trkpt><trkpt lat="45.451235210182375" lon="9.13533570823703"><ele>122.0</ele><time>2026-03-15T20:27:48.345Z</time></trkpt><trkpt lat="45.4513371" lon="9.135346700000001"><ele>122.0</ele><time>2026-03-15T20:27:50.338Z</time></trkpt><trkpt lat="45.4514088" lon="9.1354942"><ele>122.0</ele><time>2026-03-15T20:27:52.354Z</time></trkpt><trkpt lat="45.45138306991266" lon="9.135649053574426"><ele>122.0</ele><time>2026-03-15T20:27:53.342Z</time></trkpt><trkpt lat="45.45142403406321" lon="9.135778137766538"><ele>122.0</ele><time>2026-03-15T20:27:54.339Z</time></trkpt><trkpt lat="45.45147086492144" lon="9.135925708844088"><ele>122.0</ele><time>2026-03-15T20:27:55.343Z</time></trkpt><trkpt lat="45.45151724287824" lon="9.136071852747238"><ele>122.0</ele><time>2026-03-15T20:27:56.339Z</time></trkpt><trkpt lat="45.45162069999999" lon="9.1362622"><ele>122.0</ele><time>2026-03-15T20:27:58.343Z</time></trkpt><trkpt lat="45.451610802902366" lon="9.136378471469836"><ele>122.0</ele><time>2026-03-15T20:28:00.334Z</time></trkpt><trkpt lat="45.451720599999994" lon="9.1363716"><ele>122.0</ele><time>2026-03-15T20:28:02.341Z</time></trkpt><trkpt lat="45.4517768" lon="9.1363232"><ele>121.99999999999999</ele><time>2026-03-15T20:28:03.338Z</time></trkpt><trkpt lat="45.4518529" lon="9.1362663"><ele>121.99999999999999</ele><time>2026-03-15T20:28:04.35Z</time></trkpt><trkpt lat="45.45194014198919" lon="9.136183210889376"><ele>122.0</ele><time>2026-03-15T20:28:05.343Z</time></trkpt><trkpt lat="45.45203951461857" lon="9.136165462872906"><ele>122.0</ele><time>2026-03-15T20:28:06.34Z</time></trkpt><trkpt lat="45.452257402105" lon="9.13614164709057"><ele>122.0</ele><time>2026-03-15T20:28:08.339Z</time></trkpt><trkpt lat="45.45239181294764" lon="9.136147392211104"><ele>122.0</ele><time>2026-03-15T20:28:09.468Z</time></trkpt><trkpt lat="45.45251702051369" lon="9.136165191239805"><ele>122.0</ele><time>2026-03-15T20:28:10.39Z</time></trkpt><trkpt lat="45.452635533337336" lon="9.136201953909797"><ele>122.0</ele><time>2026-03-15T20:28:11.412Z</time></trkpt><trkpt lat="45.45275125486676" lon="9.136209118851564"><ele>122.0</ele><time>2026-03-15T20:28:12.338Z</time></trkpt><trkpt lat="45.452860556548664" lon="9.136216443939052"><ele>121.99999999999999</ele><time>2026-03-15T20:28:13.339Z</time></trkpt><trkpt lat="45.45295" lon="9.1362368"><ele>121.99999999999999</ele><time>2026-03-15T20:28:14.383Z</time></trkpt><trkpt lat="45.453025499999995" lon="9.1362159"><ele>122.0</ele><time>2026-03-15T20:28:15.335Z</time></trkpt><trkpt lat="45.45312189999999" lon="9.1362208"><ele>122.0</ele><time>2026-03-15T20:28:16.347Z</time></trkpt><trkpt lat="45.4532338" lon="9.1362312"><ele>122.75</ele><time>2026-03-15T20:28:17.34Z</time></trkpt><trkpt lat="45.45336220000001" lon="9.136241100000001"><ele>123.5</ele><time>2026-03-15T20:28:18.337Z</time></trkpt><trkpt lat="45.453498800000006" lon="9.1362513"><ele>124.25</ele><time>2026-03-15T20:28:19.401Z</time></trkpt><trkpt lat="45.45364299999999" lon="9.136262"><ele>125.0</ele><time>2026-03-15T20:28:20.348Z</time></trkpt><trkpt lat="45.4537841" lon="9.1362734"><ele>124.25</ele><time>2026-03-15T20:28:21.347Z</time></trkpt><trkpt lat="45.4539197" lon="9.1362836"><ele>123.5</ele><time>2026-03-15T20:28:22.337Z</time></trkpt><trkpt lat="45.45404400000001" lon="9.136293"><ele>122.75</ele><time>2026-03-15T20:28:23.338Z</time></trkpt><trkpt lat="45.4541514" lon="9.1363021"><ele>122.0</ele><time>2026-03-15T20:28:24.421Z</time></trkpt><trkpt lat="45.454237600000006" lon="9.136303900000001"><ele>121.99999999999999</ele><time>2026-03-15T20:28:25.341Z</time></trkpt><trkpt lat="45.45429540978345" lon="9.136235288443983"><ele>122.0</ele><time>2026-03-15T20:28:26.364Z</time></trkpt><trkpt lat="45.45437027416538" lon="9.136161825393616"><ele>122.0</ele><time>2026-03-15T20:28:27.388Z</time></trkpt><trkpt lat="45.4544535" lon="9.136113700000001"><ele>122.0</ele><time>2026-03-15T20:28:28.338Z</time></trkpt><trkpt lat="45.45452440000001" lon="9.1360331"><ele>121.99999999999999</ele><time>2026-03-15T20:28:30.337Z</time></trkpt><trkpt lat="45.45460629999999" lon="9.135978600000001"><ele>122.0</ele><time>2026-03-15T20:28:34.353Z</time></trkpt><trkpt lat="45.45472199999999" lon="9.1359804"><ele>121.8</ele><time>2026-03-15T20:29:22.377Z</time></trkpt><trkpt lat="45.45479829999999" lon="9.135984500000001"><ele>121.6</ele><time>2026-03-15T20:29:23.339Z</time></trkpt><trkpt lat="45.4548967" lon="9.135984200000001"><ele>121.39999999999999</ele><time>2026-03-15T20:29:24.408Z</time></trkpt><trkpt lat="45.45501505209364" lon="9.136009566609275"><ele>121.19999999999999</ele><time>2026-03-15T20:29:25.339Z</time></trkpt><trkpt lat="45.455141178433124" lon="9.136017073257648"><ele>121.0</ele><time>2026-03-15T20:29:26.34Z</time></trkpt><trkpt lat="45.4552683" lon="9.136004800000002"><ele>121.0</ele><time>2026-03-15T20:29:27.34Z</time></trkpt><trkpt lat="45.455390900000005" lon="9.1360163"><ele>121.0</ele><time>2026-03-15T20:29:28.335Z</time></trkpt><trkpt lat="45.4555076" lon="9.136025400000001"><ele>121.0</ele><time>2026-03-15T20:29:29.336Z</time></trkpt><trkpt lat="45.4556124" lon="9.1360336"><ele>121.0</ele><time>2026-03-15T20:29:30.334Z</time></trkpt><trkpt lat="45.455702699999996" lon="9.1360397"><ele>121.0</ele><time>2026-03-15T20:29:31.336Z</time></trkpt><trkpt lat="45.4557764" lon="9.136045"><ele>121.6</ele><time>2026-03-15T20:29:32.341Z</time></trkpt><trkpt lat="45.4558741" lon="9.136053399999998"><ele>122.19999999999999</ele><time>2026-03-15T20:29:34.342Z</time></trkpt><trkpt lat="45.455961300000006" lon="9.1360628"><ele>122.80000000000001</ele><time>2026-03-15T20:29:36.338Z</time></trkpt><trkpt lat="45.4560808" lon="9.136070499999999"><ele>123.4</ele><time>2026-03-15T20:29:38.344Z</time></trkpt><trkpt lat="45.456157100000006" lon="9.136075300000002"><ele>124.0</ele><time>2026-03-15T20:29:39.34Z</time></trkpt><trkpt lat="45.4562273" lon="9.1360814"><ele>124.0</ele><time>2026-03-15T20:29:40.344Z</time></trkpt><trkpt lat="45.456326000000004" lon="9.1360918"><ele>124.0</ele><time>2026-03-15T20:29:42.337Z</time></trkpt><trkpt lat="45.456392099999995" lon="9.1360982"><ele>124.0</ele><time>2026-03-15T20:29:44.342Z</time></trkpt><trkpt lat="45.45653479999999" lon="9.1361111"><ele>124.0</ele><time>2026-03-15T20:29:46.343Z</time></trkpt><trkpt lat="45.456635999999996" lon="9.1361188"><ele>124.0</ele><time>2026-03-15T20:29:47.34Z</time></trkpt><trkpt lat="45.4567578" lon="9.136127400000001"><ele>124.0</ele><time>2026-03-15T20:29:48.334Z</time></trkpt><trkpt lat="45.4568893" lon="9.136135799999998"><ele>124.0</ele><time>2026-03-15T20:29:49.335Z</time></trkpt><trkpt lat="45.4570215" lon="9.1361432"><ele>124.0</ele><time>2026-03-15T20:29:50.437Z</time></trkpt><trkpt lat="45.457150199999994" lon="9.136152899999999"><ele>124.0</ele><time>2026-03-15T20:29:51.341Z</time></trkpt><trkpt lat="45.45727860000001" lon="9.1361638"><ele>123.5</ele><time>2026-03-15T20:29:52.339Z</time></trkpt><trkpt lat="45.457409899999995" lon="9.1361722"><ele>123.0</ele><time>2026-03-15T20:29:53.344Z</time></trkpt><trkpt lat="45.45754870000001" lon="9.1361811"><ele>122.5</ele><time>2026-03-15T20:29:54.333Z</time></trkpt><trkpt lat="45.4576891" lon="9.136191"><ele>122.0</ele><time>2026-03-15T20:29:55.338Z</time></trkpt><trkpt lat="45.4578303" lon="9.136201400000001"><ele>121.75</ele><time>2026-03-15T20:29:56.347Z</time></trkpt><trkpt lat="45.45797470000001" lon="9.1362113"><ele>121.5</ele><time>2026-03-15T20:29:57.336Z</time></trkpt><trkpt lat="45.45812120000001" lon="9.136222"><ele>121.25</ele><time>2026-03-15T20:29:58.34Z</time></trkpt><trkpt lat="45.458257999999994" lon="9.136233499999998"><ele>121.0</ele><time>2026-03-15T20:29:59.344Z</time></trkpt><trkpt lat="45.45837190000001" lon="9.136242600000001"><ele>121.0</ele><time>2026-03-15T20:30:00.339Z</time></trkpt><trkpt lat="45.4584622" lon="9.136249"><ele>121.0</ele><time>2026-03-15T20:30:01.336Z</time></trkpt><trkpt lat="45.458527800000006" lon="9.1362548"><ele>121.0</ele><time>2026-03-15T20:30:02.342Z</time></trkpt><trkpt lat="45.4586161" lon="9.136319400000001"><ele>121.0</ele><time>2026-03-15T20:30:04.341Z</time></trkpt><trkpt lat="45.45858683120159" lon="9.136512200095327"><ele>121.0</ele><time>2026-03-15T20:30:06.336Z</time></trkpt><trkpt lat="45.458602283088524" lon="9.136639614168779"><ele>121.5</ele><time>2026-03-15T20:30:07.346Z</time></trkpt><trkpt lat="45.458618770318886" lon="9.136775564438771"><ele>122.0</ele><time>2026-03-15T20:30:08.339Z</time></trkpt><trkpt lat="45.458635804619185" lon="9.136922703430624"><ele>122.5</ele><time>2026-03-15T20:30:09.343Z</time></trkpt><trkpt lat="45.45865514926685" lon="9.137092432078001"><ele>123.0</ele><time>2026-03-15T20:30:10.341Z</time></trkpt><trkpt lat="45.45867627061621" lon="9.13727912636612"><ele>123.75</ele><time>2026-03-15T20:30:11.348Z</time></trkpt><trkpt lat="45.458700730225864" lon="9.137473609872504"><ele>124.5</ele><time>2026-03-15T20:30:12.341Z</time></trkpt><trkpt lat="45.45872492813961" lon="9.137668684816553"><ele>125.25</ele><time>2026-03-15T20:30:13.346Z</time></trkpt><trkpt lat="45.45874656032676" lon="9.13784307586552"><ele>126.0</ele><time>2026-03-15T20:30:14.35Z</time></trkpt><trkpt lat="45.458762531124044" lon="9.137982627435061"><ele>126.0</ele><time>2026-03-15T20:30:15.338Z</time></trkpt><trkpt lat="45.45877433693103" lon="9.138092530983407"><ele>126.0</ele><time>2026-03-15T20:30:16.343Z</time></trkpt><trkpt lat="45.458793986459" lon="9.138247593096397"><ele>126.0</ele><time>2026-03-15T20:30:18.336Z</time></trkpt><trkpt lat="45.45881126740247" lon="9.138337253558555"><ele>126.0</ele><time>2026-03-15T20:30:21.343Z</time></trkpt><trkpt lat="45.458853100000006" lon="9.1384658"><ele>126.0</ele><time>2026-03-15T20:30:24.336Z</time></trkpt><trkpt lat="45.458936300000005" lon="9.1385004"><ele>126.0</ele><time>2026-03-15T20:30:26.343Z</time></trkpt><trkpt lat="45.4590044" lon="9.138448"><ele>125.0</ele><time>2026-03-15T20:30:27.343Z</time></trkpt><trkpt lat="45.4590998" lon="9.138386"><ele>124.0</ele><time>2026-03-15T20:30:28.35Z</time></trkpt><trkpt lat="45.4592142" lon="9.1383127"><ele>123.0</ele><time>2026-03-15T20:30:29.348Z</time></trkpt><trkpt lat="45.4593424" lon="9.1382306"><ele>122.0</ele><time>2026-03-15T20:30:30.473Z</time></trkpt><trkpt lat="45.4594772" lon="9.1381434"><ele>122.0</ele><time>2026-03-15T20:30:31.342Z</time></trkpt><trkpt lat="45.459613499999996" lon="9.1380569"><ele>122.0</ele><time>2026-03-15T20:30:32.419Z</time></trkpt><trkpt lat="45.459744500000006" lon="9.1379745"><ele>122.0</ele><time>2026-03-15T20:30:33.334Z</time></trkpt><trkpt lat="45.4598676" lon="9.1378977"><ele>122.0</ele><time>2026-03-15T20:30:34.339Z</time></trkpt><trkpt lat="45.45997640000001" lon="9.1378308"><ele>121.6</ele><time>2026-03-15T20:30:35.392Z</time></trkpt><trkpt lat="45.46007660000001" lon="9.1377705"><ele>121.19999999999999</ele><time>2026-03-15T20:30:36.334Z</time></trkpt><trkpt lat="45.46016760000001" lon="9.1377171"><ele>120.8</ele><time>2026-03-15T20:30:37.438Z</time></trkpt><trkpt lat="45.46025540000001" lon="9.137666"><ele>120.4</ele><time>2026-03-15T20:30:38.34Z</time></trkpt><trkpt lat="45.46034289999999" lon="9.1376144"><ele>120.0</ele><time>2026-03-15T20:30:39.341Z</time></trkpt><trkpt lat="45.46043589999999" lon="9.1375584"><ele>119.8</ele><time>2026-03-15T20:30:40.406Z</time></trkpt><trkpt lat="45.4605356" lon="9.137497699999999"><ele>119.6</ele><time>2026-03-15T20:30:41.344Z</time></trkpt><trkpt lat="45.460639099999995" lon="9.137436600000001"><ele>119.4</ele><time>2026-03-15T20:30:42.353Z</time></trkpt><trkpt lat="45.46074059999999" lon="9.1373814"><ele>119.2</ele><time>2026-03-15T20:30:43.338Z</time></trkpt><trkpt lat="45.46084439999999" lon="9.1373283"><ele>119.0</ele><time>2026-03-15T20:30:44.347Z</time></trkpt><trkpt lat="45.460939700000004" lon="9.1372787"><ele>119.4</ele><time>2026-03-15T20:30:45.424Z</time></trkpt><trkpt lat="45.4610206" lon="9.1372327"><ele>119.80000000000001</ele><time>2026-03-15T20:30:46.341Z</time></trkpt><trkpt lat="45.461093600000005" lon="9.137188899999998"><ele>120.19999999999999</ele><time>2026-03-15T20:30:47.369Z</time></trkpt><trkpt lat="45.4611554" lon="9.1371543"><ele>120.6</ele><time>2026-03-15T20:30:48.339Z</time></trkpt><trkpt lat="45.46125625923552" lon="9.13721666918568"><ele>121.0</ele><time>2026-03-15T20:30:50.338Z</time></trkpt><trkpt lat="45.461340843781734" lon="9.13737374481917"><ele>121.5</ele><time>2026-03-15T20:30:52.389Z</time></trkpt><trkpt lat="45.46135777844191" lon="9.137517916999673"><ele>122.0</ele><time>2026-03-15T20:30:53.342Z</time></trkpt><trkpt lat="45.46136880000001" lon="9.1376818"><ele>122.5</ele><time>2026-03-15T20:30:54.336Z</time></trkpt><trkpt lat="45.46133880000001" lon="9.137856799999998"><ele>123.0</ele><time>2026-03-15T20:30:55.359Z</time></trkpt><trkpt lat="45.4612818" lon="9.1380327"><ele>122.25</ele><time>2026-03-15T20:30:56.34Z</time></trkpt><trkpt lat="45.46119610000001" lon="9.1381968"><ele>121.5</ele><time>2026-03-15T20:30:57.399Z</time></trkpt><trkpt lat="45.4610939" lon="9.1383478"><ele>120.75</ele><time>2026-03-15T20:30:58.339Z</time></trkpt><trkpt lat="45.4609982" lon="9.138507800000001"><ele>120.0</ele><time>2026-03-15T20:30:59.34Z</time></trkpt><trkpt lat="45.46090145324533" lon="9.138669097593583"><ele>120.0</ele><time>2026-03-15T20:31:00.349Z</time></trkpt><trkpt lat="45.4608586" lon="9.1388664"><ele>120.0</ele><time>2026-03-15T20:31:01.341Z</time></trkpt><trkpt lat="45.460812100000005" lon="9.1390678"><ele>120.0</ele><time>2026-03-15T20:31:02.34Z</time></trkpt><trkpt lat="45.460772399999996" lon="9.1392753"><ele>120.0</ele><time>2026-03-15T20:31:03.343Z</time></trkpt><trkpt lat="45.460734" lon="9.1394851"><ele>120.33333333333334</ele><time>2026-03-15T20:31:04.357Z</time></trkpt><trkpt lat="45.46069429999999" lon="9.139702"><ele>120.66666666666667</ele><time>2026-03-15T20:31:05.389Z</time></trkpt><trkpt lat="45.460654899999994" lon="9.1399187"><ele>121.0</ele><time>2026-03-15T20:31:06.34Z</time></trkpt><trkpt lat="45.460615499999996" lon="9.1401367"><ele>121.66666666666667</ele><time>2026-03-15T20:31:07.375Z</time></trkpt><trkpt lat="45.46057630000001" lon="9.140352300000002"><ele>122.33333333333334</ele><time>2026-03-15T20:31:08.359Z</time></trkpt><trkpt lat="45.4605382" lon="9.1405642"><ele>123.0</ele><time>2026-03-15T20:31:09.336Z</time></trkpt><trkpt lat="45.46050279999999" lon="9.140768900000001"><ele>123.0</ele><time>2026-03-15T20:31:10.408Z</time></trkpt><trkpt lat="45.4604695" lon="9.1409647"><ele>123.0</ele><time>2026-03-15T20:31:11.34Z</time></trkpt><trkpt lat="45.46043670000001" lon="9.1411539"><ele>123.0</ele><time>2026-03-15T20:31:12.366Z</time></trkpt><trkpt lat="45.460403899999996" lon="9.141339100000001"><ele>123.0</ele><time>2026-03-15T20:31:13.339Z</time></trkpt><trkpt lat="45.46037079999999" lon="9.141521099999999"><ele>122.5</ele><time>2026-03-15T20:31:14.343Z</time></trkpt><trkpt lat="45.46033649999999" lon="9.1417058"><ele>122.0</ele><time>2026-03-15T20:31:15.446Z</time></trkpt><trkpt lat="45.4603019" lon="9.1418886"><ele>121.5</ele><time>2026-03-15T20:31:16.34Z</time></trkpt><trkpt lat="45.4602668" lon="9.1420735"><ele>121.0</ele><time>2026-03-15T20:31:17.367Z</time></trkpt><trkpt lat="45.460233800000005" lon="9.142259200000002"><ele>120.75</ele><time>2026-03-15T20:31:18.365Z</time></trkpt><trkpt lat="45.4602025" lon="9.1424476"><ele>120.5</ele><time>2026-03-15T20:31:19.339Z</time></trkpt><trkpt lat="45.4601712" lon="9.1426355"><ele>120.25</ele><time>2026-03-15T20:31:20.417Z</time></trkpt><trkpt lat="45.4601407" lon="9.1428072"><ele>120.0</ele><time>2026-03-15T20:31:21.343Z</time></trkpt><trkpt lat="45.4601147" lon="9.142947099999999"><ele>120.0</ele><time>2026-03-15T20:31:22.343Z</time></trkpt><trkpt lat="45.46008140001334" lon="9.143045930012402"><ele>120.0</ele><time>2026-03-15T20:31:23.413Z</time></trkpt><trkpt lat="45.4601056" lon="9.143149300000001"><ele>120.0</ele><time>2026-03-15T20:31:24.336Z</time></trkpt><trkpt lat="45.46016706217212" lon="9.143183285536665"><ele>120.0</ele><time>2026-03-15T20:31:25.34Z</time></trkpt><trkpt lat="45.46024288744258" lon="9.143200524750508"><ele>120.0</ele><time>2026-03-15T20:31:26.343Z</time></trkpt><trkpt lat="45.460337988173244" lon="9.143235972513766"><ele>120.0</ele><time>2026-03-15T20:31:27.333Z</time></trkpt><trkpt lat="45.46043486873922" lon="9.143270208784221"><ele>121.0</ele><time>2026-03-15T20:31:28.431Z</time></trkpt><trkpt lat="45.46051418104051" lon="9.143287634308455"><ele>122.0</ele><time>2026-03-15T20:31:29.339Z</time></trkpt><trkpt lat="45.46059367871224" lon="9.143240489394882"><ele>123.0</ele><time>2026-03-15T20:31:31.34Z</time></trkpt><trkpt lat="45.46064847433006" lon="9.143034741643277"><ele>124.0</ele><time>2026-03-15T20:31:33.346Z</time></trkpt><trkpt lat="45.460682289959166" lon="9.142841041392735"><ele>124.0</ele><time>2026-03-15T20:31:34.336Z</time></trkpt><trkpt lat="45.460718720103834" lon="9.142632364923186"><ele>124.0</ele><time>2026-03-15T20:31:35.34Z</time></trkpt><trkpt lat="45.4607518201299" lon="9.142435863211748"><ele>124.0</ele><time>2026-03-15T20:31:36.341Z</time></trkpt><trkpt lat="45.46078063536787" lon="9.142260305364996"><ele>124.0</ele><time>2026-03-15T20:31:37.345Z</time></trkpt><trkpt lat="45.460807439645826" lon="9.142096999432761"><ele>123.75</ele><time>2026-03-15T20:31:38.364Z</time></trkpt><trkpt lat="45.46083381586884" lon="9.141941070662224"><ele>123.5</ele><time>2026-03-15T20:31:39.333Z</time></trkpt><trkpt lat="45.460880987576644" lon="9.141769782684937"><ele>123.25</ele><time>2026-03-15T20:31:40.337Z</time></trkpt><trkpt lat="45.46096427666072" lon="9.141618762561182"><ele>123.0</ele><time>2026-03-15T20:31:41.339Z</time></trkpt><trkpt lat="45.46101750000514" lon="9.141465794399247"><ele>123.0</ele><time>2026-03-15T20:31:42.337Z</time></trkpt><trkpt lat="45.461034299999994" lon="9.1412907"><ele>123.0</ele><time>2026-03-15T20:31:43.337Z</time></trkpt><trkpt lat="45.4609979540946" lon="9.14110615131589"><ele>123.0</ele><time>2026-03-15T20:31:44.341Z</time></trkpt><trkpt lat="45.46102607385616" lon="9.14093298369256"><ele>123.0</ele><time>2026-03-15T20:31:45.333Z</time></trkpt><trkpt lat="45.461054836811" lon="9.140772417784719"><ele>123.0</ele><time>2026-03-15T20:31:46.336Z</time></trkpt><trkpt lat="45.46108322487445" lon="9.140610819334968"><ele>123.0</ele><time>2026-03-15T20:31:47.342Z</time></trkpt><trkpt lat="45.46111330327429" lon="9.140447734753673"><ele>123.0</ele><time>2026-03-15T20:31:48.4Z</time></trkpt><trkpt lat="45.461143413812785" lon="9.140284059463788"><ele>123.0</ele><time>2026-03-15T20:31:49.341Z</time></trkpt><trkpt lat="45.461175632925126" lon="9.14011648903063"><ele>123.0</ele><time>2026-03-15T20:31:50.345Z</time></trkpt><trkpt lat="45.461207300383045" lon="9.139946223864529"><ele>123.0</ele><time>2026-03-15T20:31:51.335Z</time></trkpt><trkpt lat="45.46123886540088" lon="9.13977280217262"><ele>123.0</ele><time>2026-03-15T20:31:52.336Z</time></trkpt><trkpt lat="45.461269450868734" lon="9.139595985485865"><ele>123.0</ele><time>2026-03-15T20:31:53.337Z</time></trkpt><trkpt lat="45.46130040333984" lon="9.13941714362183"><ele>123.25</ele><time>2026-03-15T20:31:54.334Z</time></trkpt><trkpt lat="45.461332059147075" lon="9.139234237873161"><ele>123.5</ele><time>2026-03-15T20:31:55.363Z</time></trkpt><trkpt lat="45.461364145162435" lon="9.139048846518413"><ele>123.75</ele><time>2026-03-15T20:31:56.39Z</time></trkpt><trkpt lat="45.461398462796396" lon="9.138860444161594"><ele>124.0</ele><time>2026-03-15T20:31:57.341Z</time></trkpt><trkpt lat="45.46143287787971" lon="9.138674373346575"><ele>124.0</ele><time>2026-03-15T20:31:58.439Z</time></trkpt><trkpt lat="45.46145631575898" lon="9.138481227114438"><ele>124.0</ele><time>2026-03-15T20:31:59.338Z</time></trkpt><trkpt lat="45.46147270079572" lon="9.138289488281677"><ele>124.0</ele><time>2026-03-15T20:32:00.368Z</time></trkpt><trkpt lat="45.4615331" lon="9.1381245"><ele>124.0</ele><time>2026-03-15T20:32:01.405Z</time></trkpt><trkpt lat="45.46156460000001" lon="9.137991"><ele>123.83333333333334</ele><time>2026-03-15T20:32:02.343Z</time></trkpt><trkpt lat="45.46160580000001" lon="9.137905599999998"><ele>123.66666666666667</ele><time>2026-03-15T20:32:03.35Z</time></trkpt><trkpt lat="45.461691763239884" lon="9.137900846303728"><ele>123.5</ele><time>2026-03-15T20:32:05.348Z</time></trkpt><trkpt lat="45.461751620362186" lon="9.13793125707178"><ele>123.33333333333334</ele><time>2026-03-15T20:33:17Z</time></trkpt><trkpt lat="45.46181770341774" lon="9.137952350386223"><ele>123.16666666666667</ele><time>2026-03-15T20:33:24Z</time></trkpt><trkpt lat="45.46184243116398" lon="9.137837020646304"><ele>123.0</ele><time>2026-03-15T20:33:34Z</time></trkpt><trkpt lat="45.46191459971271" lon="9.137921261921209"><ele>123.0</ele><time>2026-03-15T20:33:36.999Z</time></trkpt><trkpt lat="45.461976236968766" lon="9.13804378627108"><ele>123.00000000000001</ele><time>2026-03-15T20:33:42.999Z</time></trkpt><trkpt lat="45.46199085925164" lon="9.137919571935614"><ele>123.00000000000001</ele><time>2026-03-15T20:33:47.073Z</time></trkpt><trkpt lat="45.46209828975833" lon="9.137913340326742"><ele>123.0</ele><time>2026-03-15T20:33:49.075Z</time></trkpt><trkpt lat="45.46208179591905" lon="9.1380290533384"><ele>123.0</ele><time>2026-03-15T20:33:54.073Z</time></trkpt><trkpt lat="45.46204432000267" lon="9.138121418704978"><ele>123.0</ele><time>2026-03-15T20:33:58.038Z</time></trkpt><trkpt lat="45.46203556165928" lon="9.137692079395482"><ele>123.0</ele><time>2026-03-15T20:34:26.033Z</time></trkpt><trkpt lat="45.46205466804921" lon="9.137577363551173"><ele>123.0</ele><time>2026-03-15T20:36:26.016Z</time></trkpt><trkpt lat="45.46200398602558" lon="9.137517676043755"><ele>123.0</ele><time>2026-03-15T20:36:36.015Z</time></trkpt><trkpt lat="45.46202051305707" lon="9.137730337034393"><ele>123.0</ele><time>2026-03-15T20:36:54.014Z</time></trkpt><trkpt lat="45.46197047437727" lon="9.137898995404983"><ele>123.0</ele><time>2026-03-15T20:39:07.001Z</time></trkpt><trkpt lat="45.46196901118798" lon="9.138027383704504"><ele>123.0</ele><time>2026-03-15T20:39:16.001Z</time></trkpt><trkpt lat="45.461964883936766" lon="9.137891924737014"><ele>123.0</ele><time>2026-03-15T20:39:18.001Z</time></trkpt><trkpt lat="45.461998789801896" lon="9.137994577951064"><ele>123.0</ele><time>2026-03-15T20:39:27Z</time></trkpt><trkpt lat="45.46206887204036" lon="9.137998253135871"><ele>123.0</ele><time>2026-03-15T20:39:32Z</time></trkpt><trkpt lat="45.46216629502648" lon="9.138031192314953"><ele>123.0</ele><time>2026-03-15T20:39:38Z</time></trkpt><trkpt lat="45.462103497562126" lon="9.137991065118051"><ele>123.0</ele><time>2026-03-15T20:39:40Z</time></trkpt><trkpt lat="45.46203616558051" lon="9.138046036080256"><ele>123.0</ele><time>2026-03-15T20:39:44Z</time></trkpt><trkpt lat="45.4619673122601" lon="9.13797882175035"><ele>123.0</ele><time>2026-03-15T20:39:48Z</time></trkpt><trkpt lat="45.46202490162894" lon="9.137924785753857"><ele>123.0</ele><time>2026-03-15T20:40:07.999Z</time></trkpt><trkpt lat="45.46202051305707" lon="9.137730337034393"><ele>123.0</ele><time>2026-03-15T20:41:10.011Z</time></trkpt><trkpt lat="45.46191105905701" lon="9.137903694084109"><ele>123.0</ele><time>2026-03-15T20:41:26.641Z</time></trkpt><trkpt lat="45.46195194871672" lon="9.138055024943377"><ele>123.0</ele><time>2026-03-15T20:41:30.677Z</time></trkpt><trkpt lat="45.461935960958826" lon="9.137885616256462"><ele>123.0</ele><time>2026-03-15T20:41:36.017Z</time></trkpt><trkpt lat="45.46175287062303" lon="9.13788801123923"><ele>123.0</ele><time>2026-03-15T20:41:41.997Z</time></trkpt><trkpt lat="45.46167939764747" lon="9.137867330757853"><ele>123.0</ele><time>2026-03-15T20:41:50.001Z</time></trkpt><trkpt lat="45.461809499999994" lon="9.1378827"><ele>123.0</ele><time>2026-03-15T20:42:38.366Z</time></trkpt><trkpt lat="45.4618738" lon="9.137844799999998"><ele>123.0</ele><time>2026-03-15T20:42:39.357Z</time></trkpt><trkpt lat="45.4619654" lon="9.137776600000002"><ele>123.0</ele><time>2026-03-15T20:42:41.44Z</time></trkpt><trkpt lat="45.46203080523431" lon="9.137723656824898"><ele>123.0</ele><time>2026-03-15T20:42:43.385Z</time></trkpt><trkpt lat="45.46208669999999" lon="9.1378061"><ele>123.0</ele><time>2026-03-15T20:42:44.366Z</time></trkpt><trkpt lat="45.462139300000004" lon="9.1378962"><ele>123.0</ele><time>2026-03-15T20:42:45.376Z</time></trkpt><trkpt lat="45.46221080000001" lon="9.138017500000002"><ele>124.25</ele><time>2026-03-15T20:42:46.455Z</time></trkpt><trkpt lat="45.462286799999994" lon="9.138153"><ele>125.5</ele><time>2026-03-15T20:42:47.373Z</time></trkpt><trkpt lat="45.46235910000001" lon="9.138283"><ele>126.75</ele><time>2026-03-15T20:42:48.402Z</time></trkpt><trkpt lat="45.4624275" lon="9.1384073"><ele>128.0</ele><time>2026-03-15T20:42:49.359Z</time></trkpt><trkpt lat="45.46249280000001" lon="9.1385261"><ele>127.99999999999999</ele><time>2026-03-15T20:42:50.367Z</time></trkpt><trkpt lat="45.46255769999999" lon="9.1386411"><ele>128.0</ele><time>2026-03-15T20:42:51.371Z</time></trkpt><trkpt lat="45.4626213" lon="9.138752700000001"><ele>128.0</ele><time>2026-03-15T20:42:52.364Z</time></trkpt><trkpt lat="45.46267639999999" lon="9.1388509"><ele>128.0</ele><time>2026-03-15T20:42:53.434Z</time></trkpt><trkpt lat="45.46272269999999" lon="9.138931499999998"><ele>127.99999999999999</ele><time>2026-03-15T20:42:54.355Z</time></trkpt><trkpt lat="45.462773299999995" lon="9.1390157"><ele>128.0</ele><time>2026-03-15T20:42:55.359Z</time></trkpt><trkpt lat="45.462829799999994" lon="9.139109500000002"><ele>128.0</ele><time>2026-03-15T20:42:56.39Z</time></trkpt><trkpt lat="45.46288979999999" lon="9.139218899999998"><ele>128.0</ele><time>2026-03-15T20:42:57.355Z</time></trkpt><trkpt lat="45.4629534" lon="9.1393358"><ele>128.0</ele><time>2026-03-15T20:42:58.437Z</time></trkpt><trkpt lat="45.4630238" lon="9.139455600000002"><ele>128.0</ele><time>2026-03-15T20:42:59.362Z</time></trkpt><trkpt lat="45.46309630000001" lon="9.1395823"><ele>128.0</ele><time>2026-03-15T20:43:00.362Z</time></trkpt><trkpt lat="45.4631703" lon="9.139716499999999"><ele>127.4</ele><time>2026-03-15T20:43:01.407Z</time></trkpt><trkpt lat="45.4632405" lon="9.1398455"><ele>126.80000000000001</ele><time>2026-03-15T20:43:02.365Z</time></trkpt><trkpt lat="45.463301799999996" lon="9.1399556"><ele>126.2</ele><time>2026-03-15T20:43:03.4Z</time></trkpt><trkpt lat="45.4633486" lon="9.1400403"><ele>125.6</ele><time>2026-03-15T20:43:04.361Z</time></trkpt><trkpt lat="45.46341040000001" lon="9.1401423"><ele>125.0</ele><time>2026-03-15T20:43:06.435Z</time></trkpt><trkpt lat="45.4634592" lon="9.1402226"><ele>124.8</ele><time>2026-03-15T20:43:11.442Z</time></trkpt><trkpt lat="45.463515400000006" lon="9.1403516"><ele>124.6</ele><time>2026-03-15T20:43:13.389Z</time></trkpt><trkpt lat="45.4635584" lon="9.140444399999998"><ele>124.4</ele><time>2026-03-15T20:43:14.36Z</time></trkpt><trkpt lat="45.46360979999999" lon="9.1405527"><ele>124.2</ele><time>2026-03-15T20:43:15.36Z</time></trkpt><trkpt lat="45.463663399999994" lon="9.140665599999998"><ele>124.0</ele><time>2026-03-15T20:43:16.46Z</time></trkpt><trkpt lat="45.46372070000001" lon="9.1407747"><ele>124.0</ele><time>2026-03-15T20:43:17.363Z</time></trkpt><trkpt lat="45.4637786" lon="9.140878199999998"><ele>124.0</ele><time>2026-03-15T20:43:18.4Z</time></trkpt><trkpt lat="45.463835599999996" lon="9.140979"><ele>124.0</ele><time>2026-03-15T20:43:19.359Z</time></trkpt><trkpt lat="45.4638905" lon="9.1410769"><ele>124.0</ele><time>2026-03-15T20:43:20.362Z</time></trkpt><trkpt lat="45.46394829999999" lon="9.1411781"><ele>124.0</ele><time>2026-03-15T20:43:21.376Z</time></trkpt><trkpt lat="45.464008299999996" lon="9.1412836"><ele>124.2</ele><time>2026-03-15T20:43:22.359Z</time></trkpt><trkpt lat="45.464069599999995" lon="9.1413932"><ele>124.4</ele><time>2026-03-15T20:43:23.394Z</time></trkpt><trkpt lat="45.464130899999994" lon="9.1415036"><ele>124.6</ele><time>2026-03-15T20:43:24.448Z</time></trkpt><trkpt lat="45.464192100000005" lon="9.141615"><ele>124.8</ele><time>2026-03-15T20:43:25.358Z</time></trkpt><trkpt lat="45.464254200000006" lon="9.1417271"><ele>125.0</ele><time>2026-03-15T20:43:26.393Z</time></trkpt><trkpt lat="45.464316800000006" lon="9.141839"><ele>125.0</ele><time>2026-03-15T20:43:27.356Z</time></trkpt><trkpt lat="45.464381599999996" lon="9.141953200000001"><ele>125.0</ele><time>2026-03-15T20:43:28.377Z</time></trkpt><trkpt lat="45.464448499999996" lon="9.1420669"><ele>125.0</ele><time>2026-03-15T20:43:29.464Z</time></trkpt><trkpt lat="45.464525" lon="9.1421839"><ele>125.0</ele><time>2026-03-15T20:43:30.361Z</time></trkpt><trkpt lat="45.464615599999995" lon="9.1423182"><ele>125.25</ele><time>2026-03-15T20:43:31.41Z</time></trkpt><trkpt lat="45.464708699999996" lon="9.1424807"><ele>125.5</ele><time>2026-03-15T20:43:32.364Z</time></trkpt><trkpt lat="45.464786999999994" lon="9.1426506"><ele>125.75</ele><time>2026-03-15T20:43:33.365Z</time></trkpt><trkpt lat="45.46482485427737" lon="9.142832689752646"><ele>126.0</ele><time>2026-03-15T20:43:34.38Z</time></trkpt><trkpt lat="45.464877121964825" lon="9.143010148871394"><ele>126.0</ele><time>2026-03-15T20:43:35.362Z</time></trkpt><trkpt lat="45.46497420000001" lon="9.1431485"><ele>126.0</ele><time>2026-03-15T20:43:36.435Z</time></trkpt><trkpt lat="45.4650555" lon="9.1433049"><ele>126.0</ele><time>2026-03-15T20:43:37.361Z</time></trkpt><trkpt lat="45.465129800000014" lon="9.1434959"><ele>126.0</ele><time>2026-03-15T20:43:38.364Z</time></trkpt><trkpt lat="45.465198199999996" lon="9.1437138"><ele>125.33333333333334</ele><time>2026-03-15T20:43:39.397Z</time></trkpt><trkpt lat="45.46525171194463" lon="9.143952112230965"><ele>124.66666666666667</ele><time>2026-03-15T20:43:40.358Z</time></trkpt><trkpt lat="45.46532033414863" lon="9.144186124191542"><ele>124.0</ele><time>2026-03-15T20:43:41.434Z</time></trkpt><trkpt lat="45.46538558776388" lon="9.144409599267675"><ele>124.0</ele><time>2026-03-15T20:43:42.359Z</time></trkpt><trkpt lat="45.46544454592539" lon="9.144612909365055"><ele>124.0</ele><time>2026-03-15T20:43:43.362Z</time></trkpt><trkpt lat="45.46550112156695" lon="9.144805378824843"><ele>124.0</ele><time>2026-03-15T20:43:44.415Z</time></trkpt><trkpt lat="45.46555563834787" lon="9.144989931951462"><ele>124.0</ele><time>2026-03-15T20:43:45.359Z</time></trkpt><trkpt lat="45.46560629082259" lon="9.145161022704855"><ele>124.00000000000001</ele><time>2026-03-15T20:43:46.435Z</time></trkpt><trkpt lat="45.465647434118424" lon="9.145300057804846"><ele>124.0</ele><time>2026-03-15T20:43:47.362Z</time></trkpt><trkpt lat="45.465676555369335" lon="9.145398467050471"><ele>124.0</ele><time>2026-03-15T20:43:48.362Z</time></trkpt><trkpt lat="45.4657046220876" lon="9.145493312597822"><ele>124.0</ele><time>2026-03-15T20:43:50.366Z</time></trkpt><trkpt lat="45.46567884709632" lon="9.145406211365628"><ele>124.00000000000001</ele><time>2026-03-15T20:44:04.48Z</time></trkpt><trkpt lat="45.465652271631335" lon="9.145316405280237"><ele>124.0</ele><time>2026-03-15T20:44:06.399Z</time></trkpt><trkpt lat="45.465720141358666" lon="9.145200561657155"><ele>124.0</ele><time>2026-03-15T20:44:19Z</time></trkpt><trkpt lat="45.46562343082484" lon="9.145000396284319"><ele>124.0</ele><time>2026-03-15T20:45:07.998Z</time></trkpt><trkpt lat="45.46558265999636" lon="9.144863581247941"><ele>124.0</ele><time>2026-03-15T20:45:08.998Z</time></trkpt><trkpt lat="45.46554742846974" lon="9.14473512000833"><ele>124.0</ele><time>2026-03-15T20:45:09.998Z</time></trkpt><trkpt lat="45.4655101853632" lon="9.144619269386325"><ele>124.0</ele><time>2026-03-15T20:45:10.998Z</time></trkpt><trkpt lat="45.46547623644413" lon="9.144507542074068"><ele>124.0</ele><time>2026-03-15T20:45:11.998Z</time></trkpt><trkpt lat="45.46541517948389" lon="9.144347464293554"><ele>124.0</ele><time>2026-03-15T20:45:12.998Z</time></trkpt><trkpt lat="45.465378575376555" lon="9.1442151564554"><ele>124.0</ele><time>2026-03-15T20:45:13.998Z</time></trkpt><trkpt lat="45.46533829506986" lon="9.14408677517499"><ele>124.0</ele><time>2026-03-15T20:45:14.998Z</time></trkpt><trkpt lat="45.46530228469307" lon="9.143950959761435"><ele>123.83333333333334</ele><time>2026-03-15T20:45:15.998Z</time></trkpt><trkpt lat="45.46526614900408" lon="9.143827365148146"><ele>123.66666666666667</ele><time>2026-03-15T20:45:16.998Z</time></trkpt><trkpt lat="45.46522002483242" lon="9.143668445845497"><ele>123.5</ele><time>2026-03-15T20:45:18.998Z</time></trkpt><trkpt lat="45.465193729874336" lon="9.143582846271515"><ele>123.33333333333334</ele><time>2026-03-15T20:45:19.998Z</time></trkpt><trkpt lat="45.465179151710444" lon="9.143487369305515"><ele>123.16666666666667</ele><time>2026-03-15T20:45:20.998Z</time></trkpt><trkpt lat="45.465150468843724" lon="9.143377219115402"><ele>123.0</ele><time>2026-03-15T20:45:21.998Z</time></trkpt><trkpt lat="45.46510032704931" lon="9.14326891807436"><ele>123.5</ele><time>2026-03-15T20:45:22.998Z</time></trkpt><trkpt lat="45.46510322034381" lon="9.14316167444092"><ele>124.0</ele><time>2026-03-15T20:45:23.998Z</time></trkpt><trkpt lat="45.465129800000014" lon="9.1429735"><ele>124.5</ele><time>2026-03-15T20:45:25.32Z</time></trkpt><trkpt lat="45.465119099999995" lon="9.142866"><ele>125.0</ele><time>2026-03-15T20:45:26.337Z</time></trkpt><trkpt lat="45.46507390000001" lon="9.142784299999999"><ele>125.5</ele><time>2026-03-15T20:45:27.323Z</time></trkpt><trkpt lat="45.4649976" lon="9.1427594"><ele>126.0</ele><time>2026-03-15T20:45:28.338Z</time></trkpt><trkpt lat="45.46491030000001" lon="9.142819399999999"><ele>126.0</ele><time>2026-03-15T20:45:29.415Z</time></trkpt><trkpt lat="45.46482460000001" lon="9.142931599999999"><ele>126.0</ele><time>2026-03-15T20:45:30.327Z</time></trkpt><trkpt lat="45.46473820656998" lon="9.143065737947918"><ele>126.0</ele><time>2026-03-15T20:45:31.324Z</time></trkpt><trkpt lat="45.46458890000001" lon="9.1431284"><ele>126.0</ele><time>2026-03-15T20:45:32.407Z</time></trkpt><trkpt lat="45.464446" lon="9.143211299999999"><ele>125.0</ele><time>2026-03-15T20:45:33.318Z</time></trkpt><trkpt lat="45.4643005" lon="9.1432975"><ele>124.0</ele><time>2026-03-15T20:45:34.351Z</time></trkpt><trkpt lat="45.464150999999994" lon="9.1433858"><ele>123.0</ele><time>2026-03-15T20:45:35.321Z</time></trkpt><trkpt lat="45.4640017" lon="9.143473299999998"><ele>123.0</ele><time>2026-03-15T20:45:36.328Z</time></trkpt><trkpt lat="45.46385870000001" lon="9.143556900000002"><ele>123.0</ele><time>2026-03-15T20:45:37.422Z</time></trkpt><trkpt lat="45.4637189" lon="9.143639299999998"><ele>123.0</ele><time>2026-03-15T20:45:38.316Z</time></trkpt><trkpt lat="45.46358560000001" lon="9.1437182"><ele>123.75</ele><time>2026-03-15T20:45:39.37Z</time></trkpt><trkpt lat="45.4634552" lon="9.1437932"><ele>124.5</ele><time>2026-03-15T20:45:40.315Z</time></trkpt><trkpt lat="45.463327" lon="9.143866200000001"><ele>125.25</ele><time>2026-03-15T20:45:41.332Z</time></trkpt><trkpt lat="45.4632024" lon="9.1439384"><ele>126.0</ele><time>2026-03-15T20:45:42.33Z</time></trkpt><trkpt lat="45.4630777" lon="9.1440129"><ele>126.0</ele><time>2026-03-15T20:45:43.328Z</time></trkpt><trkpt lat="45.4629498" lon="9.1440887"><ele>126.0</ele><time>2026-03-15T20:45:44.389Z</time></trkpt><trkpt lat="45.4628234" lon="9.144167"><ele>126.0</ele><time>2026-03-15T20:45:45.41Z</time></trkpt><trkpt lat="45.4626925" lon="9.1442456"><ele>126.0</ele><time>2026-03-15T20:45:46.321Z</time></trkpt><trkpt lat="45.462560200000006" lon="9.144321099999999"><ele>126.0</ele><time>2026-03-15T20:45:47.355Z</time></trkpt><trkpt lat="45.46242309999999" lon="9.144399199999999"><ele>126.0</ele><time>2026-03-15T20:45:48.325Z</time></trkpt><trkpt lat="45.46228809999999" lon="9.144478"><ele>126.0</ele><time>2026-03-15T20:45:49.329Z</time></trkpt><trkpt lat="45.462161" lon="9.1445515"><ele>126.0</ele><time>2026-03-15T20:45:50.324Z</time></trkpt><trkpt lat="45.4620346" lon="9.144625"><ele>126.0</ele><time>2026-03-15T20:45:51.324Z</time></trkpt><trkpt lat="45.46190280000001" lon="9.1447034"><ele>126.0</ele><time>2026-03-15T20:45:52.316Z</time></trkpt><trkpt lat="45.46176399999999" lon="9.144786800000002"><ele>126.0</ele><time>2026-03-15T20:45:53.322Z</time></trkpt><trkpt lat="45.4616198" lon="9.144873500000001"><ele>125.0</ele><time>2026-03-15T20:45:54.38Z</time></trkpt><trkpt lat="45.4614697" lon="9.1449643"><ele>124.0</ele><time>2026-03-15T20:45:55.319Z</time></trkpt><trkpt lat="45.461317400000006" lon="9.1450546"><ele>123.0</ele><time>2026-03-15T20:45:56.335Z</time></trkpt><trkpt lat="45.4611646" lon="9.145143099999999"><ele>123.0</ele><time>2026-03-15T20:45:57.326Z</time></trkpt><trkpt lat="45.46101709999999" lon="9.1452265"><ele>123.0</ele><time>2026-03-15T20:45:58.319Z</time></trkpt><trkpt lat="45.4608795" lon="9.1453053"><ele>123.0</ele><time>2026-03-15T20:45:59.327Z</time></trkpt><trkpt lat="45.4607589" lon="9.1453753"><ele>123.0</ele><time>2026-03-15T20:46:00.327Z</time></trkpt><trkpt lat="45.460652399999994" lon="9.1454378"><ele>123.0</ele><time>2026-03-15T20:46:01.322Z</time></trkpt><trkpt lat="45.460560799999996" lon="9.145488700000001"><ele>123.00000000000001</ele><time>2026-03-15T20:46:02.428Z</time></trkpt><trkpt lat="45.4604777" lon="9.145529900000001"><ele>123.00000000000001</ele><time>2026-03-15T20:46:03.324Z</time></trkpt><trkpt lat="45.46039779999999" lon="9.1455698"><ele>123.0</ele><time>2026-03-15T20:46:04.317Z</time></trkpt><trkpt lat="45.46032480000001" lon="9.145608700000002"><ele>123.0</ele><time>2026-03-15T20:46:05.32Z</time></trkpt><trkpt lat="45.4602305" lon="9.1456657"><ele>122.60000000000001</ele><time>2026-03-15T20:46:07.322Z</time></trkpt><trkpt lat="45.46014220000001" lon="9.145716000000002"><ele>122.20000000000002</ele><time>2026-03-15T20:46:18.322Z</time></trkpt><trkpt lat="45.4600624" lon="9.1457611"><ele>121.8</ele><time>2026-03-15T20:46:19.327Z</time></trkpt><trkpt lat="45.4599517" lon="9.145819"><ele>121.4</ele><time>2026-03-15T20:46:20.327Z</time></trkpt><trkpt lat="45.4598197" lon="9.145886199999998"><ele>121.0</ele><time>2026-03-15T20:46:21.324Z</time></trkpt><trkpt lat="45.459670700000004" lon="9.145964999999999"><ele>120.66666666666667</ele><time>2026-03-15T20:46:22.376Z</time></trkpt><trkpt lat="45.459509700000005" lon="9.1460568"><ele>120.33333333333334</ele><time>2026-03-15T20:46:23.317Z</time></trkpt><trkpt lat="45.4593373" lon="9.1461603"><ele>120.0</ele><time>2026-03-15T20:46:24.322Z</time></trkpt><trkpt lat="45.459165399999996" lon="9.1462628"><ele>120.0</ele><time>2026-03-15T20:46:25.344Z</time></trkpt><trkpt lat="45.459001400000005" lon="9.146360199999998"><ele>120.0</ele><time>2026-03-15T20:46:26.319Z</time></trkpt><trkpt lat="45.45884980000001" lon="9.1464508"><ele>120.0</ele><time>2026-03-15T20:46:27.411Z</time></trkpt><trkpt lat="45.45871019999999" lon="9.1465357"><ele>121.0</ele><time>2026-03-15T20:46:28.315Z</time></trkpt><trkpt lat="45.45858450000001" lon="9.1466117"><ele>122.0</ele><time>2026-03-15T20:46:29.319Z</time></trkpt><trkpt lat="45.4584681" lon="9.146681200000002"><ele>123.0</ele><time>2026-03-15T20:46:30.461Z</time></trkpt><trkpt lat="45.4583592" lon="9.146745300000001"><ele>124.0</ele><time>2026-03-15T20:46:31.322Z</time></trkpt><trkpt lat="45.45826" lon="9.146803"><ele>124.00000000000001</ele><time>2026-03-15T20:46:32.379Z</time></trkpt><trkpt lat="45.458177899999995" lon="9.1468498"><ele>124.0</ele><time>2026-03-15T20:46:33.321Z</time></trkpt><trkpt lat="45.458115600000006" lon="9.146885099999999"><ele>124.0</ele><time>2026-03-15T20:46:34.323Z</time></trkpt><trkpt lat="45.4580454" lon="9.1469273"><ele>124.0</ele><time>2026-03-15T20:46:36.32Z</time></trkpt><trkpt lat="45.45798" lon="9.1469668"><ele>124.00000000000001</ele><time>2026-03-15T20:46:49.317Z</time></trkpt><trkpt lat="45.4579093" lon="9.147010000000002"><ele>124.0</ele><time>2026-03-15T20:46:50.333Z</time></trkpt><trkpt lat="45.4578048" lon="9.1470731"><ele>124.0</ele><time>2026-03-15T20:46:51.322Z</time></trkpt><trkpt lat="45.457677399999994" lon="9.1471494"><ele>124.0</ele><time>2026-03-15T20:46:52.354Z</time></trkpt><trkpt lat="45.457531900000006" lon="9.147236600000001"><ele>124.0</ele><time>2026-03-15T20:46:53.323Z</time></trkpt><trkpt lat="45.457371200000004" lon="9.147332500000001"><ele>124.66666666666667</ele><time>2026-03-15T20:46:54.33Z</time></trkpt><trkpt lat="45.4572031" lon="9.1474296"><ele>125.33333333333334</ele><time>2026-03-15T20:46:55.324Z</time></trkpt><trkpt lat="45.457047700000004" lon="9.1475212"><ele>126.0</ele><time>2026-03-15T20:46:56.324Z</time></trkpt><trkpt lat="45.456915200000005" lon="9.147602000000001"><ele>125.0</ele><time>2026-03-15T20:46:57.343Z</time></trkpt><trkpt lat="45.456804399999996" lon="9.147669400000002"><ele>124.0</ele><time>2026-03-15T20:46:58.422Z</time></trkpt><trkpt lat="45.45671049999999" lon="9.1477251"><ele>123.0</ele><time>2026-03-15T20:46:59.32Z</time></trkpt><trkpt lat="45.456624600000005" lon="9.147761000000001"><ele>122.0</ele><time>2026-03-15T20:47:00.326Z</time></trkpt><trkpt lat="45.45652084559594" lon="9.14776800340359"><ele>121.0</ele><time>2026-03-15T20:47:01.323Z</time></trkpt><trkpt lat="45.4564056" lon="9.14788"><ele>120.66666666666667</ele><time>2026-03-15T20:47:02.347Z</time></trkpt><trkpt lat="45.45626420000001" lon="9.1479751"><ele>120.33333333333334</ele><time>2026-03-15T20:47:03.321Z</time></trkpt><trkpt lat="45.45610450000001" lon="9.1480766"><ele>120.0</ele><time>2026-03-15T20:47:04.323Z</time></trkpt><trkpt lat="45.4559298" lon="9.1481852"><ele>120.66666666666666</ele><time>2026-03-15T20:47:05.386Z</time></trkpt><trkpt lat="45.4557395" lon="9.1483019"><ele>121.33333333333333</ele><time>2026-03-15T20:47:06.323Z</time></trkpt><trkpt lat="45.455546999999996" lon="9.1484189"><ele>122.0</ele><time>2026-03-15T20:47:07.323Z</time></trkpt><trkpt lat="45.4553667" lon="9.148528200000001"><ele>122.0</ele><time>2026-03-15T20:47:08.354Z</time></trkpt><trkpt lat="45.455204699999996" lon="9.148625399999998"><ele>122.0</ele><time>2026-03-15T20:47:09.321Z</time></trkpt><trkpt lat="45.455050899999996" lon="9.1487152"><ele>122.0</ele><time>2026-03-15T20:47:10.396Z</time></trkpt><trkpt lat="45.45490110000001" lon="9.1488019"><ele>122.0</ele><time>2026-03-15T20:47:11.322Z</time></trkpt><trkpt lat="45.4547574" lon="9.148887100000001"><ele>122.0</ele><time>2026-03-15T20:47:12.321Z</time></trkpt><trkpt lat="45.4546259" lon="9.1489679"><ele>122.0</ele><time>2026-03-15T20:47:13.371Z</time></trkpt><trkpt lat="45.45451429999999" lon="9.149035600000001"><ele>122.0</ele><time>2026-03-15T20:47:14.323Z</time></trkpt><trkpt lat="45.4544316" lon="9.149081599999999"><ele>122.0</ele><time>2026-03-15T20:47:15.322Z</time></trkpt><trkpt lat="45.45436350265526" lon="9.149078592958492"><ele>122.0</ele><time>2026-03-15T20:47:17.32Z</time></trkpt><trkpt lat="45.454449677762085" lon="9.14897370803221"><ele>122.0</ele><time>2026-03-15T20:47:18.388Z</time></trkpt><trkpt lat="45.45446806476416" lon="9.148850254165499"><ele>122.0</ele><time>2026-03-15T20:47:20.346Z</time></trkpt><trkpt lat="45.454374642669904" lon="9.149104218165807"><ele>122.14285714285712</ele><time>2026-03-15T20:47:32.998Z</time></trkpt><trkpt lat="45.45433935871915" lon="9.14918259671654"><ele>122.28571428571428</ele><time>2026-03-15T20:47:37.998Z</time></trkpt><trkpt lat="45.45427418044476" lon="9.149236418312979"><ele>122.42857142857143</ele><time>2026-03-15T20:47:45.998Z</time></trkpt><trkpt lat="45.454239885598255" lon="9.14932980791801"><ele>122.57142857142857</ele><time>2026-03-15T20:47:51.998Z</time></trkpt><trkpt lat="45.454178514387834" lon="9.14935970055586"><ele>122.71428571428572</ele><time>2026-03-15T20:47:55.998Z</time></trkpt><trkpt lat="45.454115883882224" lon="9.149398378426582"><ele>122.85714285714288</ele><time>2026-03-15T20:48:01Z</time></trkpt><trkpt lat="45.454057112293334" lon="9.149434437918709"><ele>123.00000000000001</ele><time>2026-03-15T20:48:03Z</time></trkpt><trkpt lat="45.45399538274037" lon="9.149472575008888"><ele>123.00000000000001</ele><time>2026-03-15T20:48:08Z</time></trkpt><trkpt lat="45.4540539348101" lon="9.149436449582428"><ele>123.0</ele><time>2026-03-15T20:49:04.999Z</time></trkpt><trkpt lat="45.45411266151621" lon="9.149400355497502"><ele>123.00000000000001</ele><time>2026-03-15T20:49:07.999Z</time></trkpt><trkpt lat="45.45417919703804" lon="9.14935886391443"><ele>123.00000000000001</ele><time>2026-03-15T20:49:20.998Z</time></trkpt><trkpt lat="45.45423516702081" lon="9.149284465936931"><ele>123.0</ele><time>2026-03-15T20:49:32.997Z</time></trkpt><trkpt lat="45.454217289849936" lon="9.14918455173781"><ele>123.00000000000001</ele><time>2026-03-15T20:49:40.997Z</time></trkpt><trkpt lat="45.45426044206485" lon="9.149112514247953"><ele>123.00000000000001</ele><time>2026-03-15T20:49:46.997Z</time></trkpt><trkpt lat="45.45431383780772" lon="9.149049980217866"><ele>123.0</ele><time>2026-03-15T20:49:52.997Z</time></trkpt><trkpt lat="45.454404266521465" lon="9.149030272997969"><ele>123.0</ele><time>2026-03-15T20:50:02.997Z</time></trkpt><trkpt lat="45.45425409999999" lon="9.149169899999999"><ele>123.0</ele><time>2026-03-15T20:50:35.999Z</time></trkpt><trkpt lat="45.4541659" lon="9.149232399999999"><ele>123.0</ele><time>2026-03-15T20:51:11.363Z</time></trkpt><trkpt lat="45.45402569999999" lon="9.149314299999999"><ele>123.0</ele><time>2026-03-15T20:51:13.379Z</time></trkpt><trkpt lat="45.45391760000001" lon="9.149376100000001"><ele>123.0</ele><time>2026-03-15T20:51:14.376Z</time></trkpt><trkpt lat="45.4537923" lon="9.149450899999998"><ele>123.0</ele><time>2026-03-15T20:51:15.35Z</time></trkpt><trkpt lat="45.453654900000004" lon="9.149532500000001"><ele>123.0</ele><time>2026-03-15T20:51:16.36Z</time></trkpt><trkpt lat="45.453514" lon="9.1496167"><ele>124.0</ele><time>2026-03-15T20:51:17.351Z</time></trkpt><trkpt lat="45.4533805" lon="9.1496963"><ele>125.0</ele><time>2026-03-15T20:51:18.357Z</time></trkpt><trkpt lat="45.4532511" lon="9.1497723"><ele>126.0</ele><time>2026-03-15T20:51:19.398Z</time></trkpt><trkpt lat="45.45312619999999" lon="9.1498451"><ele>127.0</ele><time>2026-03-15T20:51:20.347Z</time></trkpt><trkpt lat="45.45300009999999" lon="9.149917799999999"><ele>126.25</ele><time>2026-03-15T20:51:21.44Z</time></trkpt><trkpt lat="45.45287270000001" lon="9.1499931"><ele>125.5</ele><time>2026-03-15T20:51:22.404Z</time></trkpt><trkpt lat="45.452742199999996" lon="9.1500706"><ele>124.75</ele><time>2026-03-15T20:51:23.355Z</time></trkpt><trkpt lat="45.452608399999995" lon="9.15015"><ele>124.0</ele><time>2026-03-15T20:51:24.407Z</time></trkpt><trkpt lat="45.4524634502794" lon="9.15020837681549"><ele>124.0</ele><time>2026-03-15T20:51:25.353Z</time></trkpt><trkpt lat="45.45232159282672" lon="9.150290980575589"><ele>124.0</ele><time>2026-03-15T20:51:26.353Z</time></trkpt><trkpt lat="45.452033725002" lon="9.150459184668144"><ele>123.75</ele><time>2026-03-15T20:51:28.359Z</time></trkpt><trkpt lat="45.45189656067192" lon="9.150539113658306"><ele>123.5</ele><time>2026-03-15T20:51:29.351Z</time></trkpt><trkpt lat="45.45177240729294" lon="9.150611189443108"><ele>123.25</ele><time>2026-03-15T20:51:30.351Z</time></trkpt><trkpt lat="45.45166539649646" lon="9.150673313296165"><ele>123.0</ele><time>2026-03-15T20:51:31.37Z</time></trkpt><trkpt lat="45.451582378710434" lon="9.150721508287244"><ele>123.0</ele><time>2026-03-15T20:51:32.349Z</time></trkpt><trkpt lat="45.45150634408844" lon="9.150765649294023"><ele>123.0</ele><time>2026-03-15T20:51:34.444Z</time></trkpt><trkpt lat="45.4514422" lon="9.1508232"><ele>123.0</ele><time>2026-03-15T20:52:19.397Z</time></trkpt><trkpt lat="45.4513799" lon="9.1507896"><ele>123.0</ele><time>2026-03-15T20:52:21.356Z</time></trkpt><trkpt lat="45.45139772583906" lon="9.150700962038563"><ele>123.0</ele><time>2026-03-15T20:52:22.366Z</time></trkpt><trkpt lat="45.451341595850394" lon="9.150529467345285"><ele>123.0</ele><time>2026-03-15T20:52:24.416Z</time></trkpt><trkpt lat="45.451305519956364" lon="9.150419244197208"><ele>122.80000000000001</ele><time>2026-03-15T20:52:25.355Z</time></trkpt><trkpt lat="45.451266598764256" lon="9.150300327783008"><ele>122.60000000000001</ele><time>2026-03-15T20:52:26.353Z</time></trkpt><trkpt lat="45.451212299999995" lon="9.150179000000001"><ele>122.39999999999999</ele><time>2026-03-15T20:52:27.383Z</time></trkpt><trkpt lat="45.451168499999994" lon="9.150035800000001"><ele>122.19999999999999</ele><time>2026-03-15T20:52:28.351Z</time></trkpt><trkpt lat="45.451122" lon="9.1498842"><ele>122.0</ele><time>2026-03-15T20:52:29.405Z</time></trkpt><trkpt lat="45.451072599999996" lon="9.149726099999999"><ele>122.75</ele><time>2026-03-15T20:52:30.348Z</time></trkpt><trkpt lat="45.451021499999996" lon="9.1495663"><ele>123.5</ele><time>2026-03-15T20:52:31.368Z</time></trkpt><trkpt lat="45.4509691" lon="9.1494084"><ele>124.25</ele><time>2026-03-15T20:52:32.373Z</time></trkpt><trkpt lat="45.4509167" lon="9.1492505"><ele>125.0</ele><time>2026-03-15T20:52:33.355Z</time></trkpt><trkpt lat="45.450863600000005" lon="9.1490893"><ele>125.2</ele><time>2026-03-15T20:52:34.39Z</time></trkpt><trkpt lat="45.4508122" lon="9.148936699999998"><ele>125.4</ele><time>2026-03-15T20:52:35.353Z</time></trkpt><trkpt lat="45.4507657" lon="9.1488004"><ele>125.6</ele><time>2026-03-15T20:52:36.356Z</time></trkpt><trkpt lat="45.45073951510405" lon="9.148669773194191"><ele>125.8</ele><time>2026-03-15T20:52:37.418Z</time></trkpt><trkpt lat="45.4507026245153" lon="9.148554284047348"><ele>126.0</ele><time>2026-03-15T20:52:38.352Z</time></trkpt><trkpt lat="45.45066282884149" lon="9.148430336852774"><ele>126.0</ele><time>2026-03-15T20:52:39.353Z</time></trkpt><trkpt lat="45.450617753560586" lon="9.14828998806855"><ele>126.0</ele><time>2026-03-15T20:52:40.353Z</time></trkpt><trkpt lat="45.450568559012716" lon="9.148136813253968"><ele>126.0</ele><time>2026-03-15T20:52:41.359Z</time></trkpt><trkpt lat="45.450517938383435" lon="9.147979198168509"><ele>126.0</ele><time>2026-03-15T20:52:42.436Z</time></trkpt><trkpt lat="45.450469219949596" lon="9.14782750582123"><ele>125.5</ele><time>2026-03-15T20:52:43.35Z</time></trkpt><trkpt lat="45.45042161062735" lon="9.147679266895919"><ele>125.0</ele><time>2026-03-15T20:52:44.349Z</time></trkpt><trkpt lat="45.45037754571859" lon="9.147542064008626"><ele>124.5</ele><time>2026-03-15T20:52:45.351Z</time></trkpt><trkpt lat="45.450330338043536" lon="9.14739507569235"><ele>124.0</ele><time>2026-03-15T20:52:46.355Z</time></trkpt><trkpt lat="45.45027888008584" lon="9.147235639263497"><ele>124.0</ele><time>2026-03-15T20:52:47.352Z</time></trkpt><trkpt lat="45.45022431177127" lon="9.147067250203374"><ele>124.0</ele><time>2026-03-15T20:52:48.356Z</time></trkpt><trkpt lat="45.45016745301449" lon="9.146891793224075"><ele>124.0</ele><time>2026-03-15T20:52:49.352Z</time></trkpt><trkpt lat="45.45011148686051" lon="9.146719090666764"><ele>124.0</ele><time>2026-03-15T20:52:50.424Z</time></trkpt><trkpt lat="45.45005702750957" lon="9.146551037826066"><ele>124.0</ele><time>2026-03-15T20:52:51.35Z</time></trkpt><trkpt lat="45.45000472790086" lon="9.146389649653894"><ele>124.0</ele><time>2026-03-15T20:52:52.368Z</time></trkpt><trkpt lat="45.4499530844445" lon="9.146230286415483"><ele>124.0</ele><time>2026-03-15T20:52:53.347Z</time></trkpt><trkpt lat="45.44990196191755" lon="9.146071976810308"><ele>124.0</ele><time>2026-03-15T20:52:54.355Z</time></trkpt><trkpt lat="45.449849930913196" lon="9.145910957954452"><ele>124.0</ele><time>2026-03-15T20:52:55.355Z</time></trkpt><trkpt lat="45.449798140097386" lon="9.145750682423609"><ele>124.0</ele><time>2026-03-15T20:52:56.348Z</time></trkpt><trkpt lat="45.44974657674333" lon="9.145591110819478"><ele>124.0</ele><time>2026-03-15T20:52:57.351Z</time></trkpt><trkpt lat="45.449695235031285" lon="9.14543222509827"><ele>124.0</ele><time>2026-03-15T20:52:58.368Z</time></trkpt><trkpt lat="45.44964516744965" lon="9.145277282401803"><ele>124.00000000000001</ele><time>2026-03-15T20:52:59.349Z</time></trkpt><trkpt lat="45.44959877037602" lon="9.145134481320147"><ele>124.0</ele><time>2026-03-15T20:53:00.458Z</time></trkpt><trkpt lat="45.449560018269054" lon="9.145015568160009"><ele>124.0</ele><time>2026-03-15T20:53:01.353Z</time></trkpt><trkpt lat="45.44953324241109" lon="9.144933404839387"><ele>124.0</ele><time>2026-03-15T20:53:02.41Z</time></trkpt><trkpt lat="45.44950376256209" lon="9.144842944144267"><ele>124.00000000000001</ele><time>2026-03-15T20:53:04.371Z</time></trkpt><trkpt lat="45.449474637205704" lon="9.144753571236985"><ele>124.0</ele><time>2026-03-15T20:53:15.406Z</time></trkpt><trkpt lat="45.44943793230636" lon="9.144640940078045"><ele>123.6</ele><time>2026-03-15T20:53:17.416Z</time></trkpt><trkpt lat="45.449386000000004" lon="9.144529700000001"><ele>123.2</ele><time>2026-03-15T20:53:19.349Z</time></trkpt><trkpt lat="45.449331900000004" lon="9.1443499"><ele>122.79999999999998</ele><time>2026-03-15T20:53:21.351Z</time></trkpt><trkpt lat="45.44929780000001" lon="9.1442365"><ele>122.39999999999999</ele><time>2026-03-15T20:53:22.373Z</time></trkpt><trkpt lat="45.4492624" lon="9.1441202"><ele>122.0</ele><time>2026-03-15T20:53:23.349Z</time></trkpt><trkpt lat="45.44922580000001" lon="9.1440022"><ele>122.0</ele><time>2026-03-15T20:53:24.345Z</time></trkpt><trkpt lat="45.4491861" lon="9.143875800000002"><ele>121.99999999999999</ele><time>2026-03-15T20:53:25.445Z</time></trkpt><trkpt lat="45.449145699999995" lon="9.1437484"><ele>121.99999999999999</ele><time>2026-03-15T20:53:26.347Z</time></trkpt><trkpt lat="45.4491043" lon="9.143616399999999"><ele>122.0</ele><time>2026-03-15T20:53:27.393Z</time></trkpt><trkpt lat="45.449063800000005" lon="9.1434878"><ele>122.0</ele><time>2026-03-15T20:53:28.352Z</time></trkpt><trkpt lat="45.4490254" lon="9.1433662"><ele>121.99999999999999</ele><time>2026-03-15T20:53:29.375Z</time></trkpt><trkpt lat="45.44898880000001" lon="9.143251"><ele>122.0</ele><time>2026-03-15T20:53:30.368Z</time></trkpt><trkpt lat="45.44895419999999" lon="9.143141100000001"><ele>122.0</ele><time>2026-03-15T20:53:31.35Z</time></trkpt><trkpt lat="45.4489214" lon="9.143035300000001"><ele>122.0</ele><time>2026-03-15T20:53:32.387Z</time></trkpt><trkpt lat="45.448890399999996" lon="9.1429346"><ele>121.99999999999999</ele><time>2026-03-15T20:53:33.348Z</time></trkpt><trkpt lat="45.4488566" lon="9.1428306"><ele>122.0</ele><time>2026-03-15T20:53:34.355Z</time></trkpt><trkpt lat="45.4488215" lon="9.142723499999999"><ele>121.99999999999999</ele><time>2026-03-15T20:53:35.375Z</time></trkpt><trkpt lat="45.44878480000001" lon="9.1426099"><ele>122.0</ele><time>2026-03-15T20:53:36.371Z</time></trkpt><trkpt lat="45.4487482" lon="9.142495700000001"><ele>122.0</ele><time>2026-03-15T20:53:37.358Z</time></trkpt><trkpt lat="45.4487126" lon="9.142384"><ele>122.0</ele><time>2026-03-15T20:53:38.448Z</time></trkpt><trkpt lat="45.44867680000001" lon="9.142272900000002"><ele>121.99999999999999</ele><time>2026-03-15T20:53:39.352Z</time></trkpt><trkpt lat="45.448638100000004" lon="9.142154399999999"><ele>122.0</ele><time>2026-03-15T20:53:40.396Z</time></trkpt><trkpt lat="45.448598700000005" lon="9.1420336"><ele>121.99999999999999</ele><time>2026-03-15T20:53:41.348Z</time></trkpt><trkpt lat="45.448560799999996" lon="9.141916400000001"><ele>122.0</ele><time>2026-03-15T20:53:42.377Z</time></trkpt><trkpt lat="45.4485242" lon="9.1418032"><ele>122.0</ele><time>2026-03-15T20:53:43.494Z</time></trkpt><trkpt lat="45.44848879999999" lon="9.1416938"><ele>122.0</ele><time>2026-03-15T20:53:44.349Z</time></trkpt><trkpt lat="45.4484547" lon="9.141587500000002"><ele>121.99999999999999</ele><time>2026-03-15T20:53:45.412Z</time></trkpt><trkpt lat="45.44842090000001" lon="9.1414825"><ele>122.0</ele><time>2026-03-15T20:53:46.352Z</time></trkpt><trkpt lat="45.44838609999999" lon="9.1413762"><ele>121.99999999999999</ele><time>2026-03-15T20:53:47.35Z</time></trkpt><trkpt lat="45.4483523" lon="9.1412742"><ele>122.0</ele><time>2026-03-15T20:53:48.381Z</time></trkpt><trkpt lat="45.448320499999994" lon="9.1411768"><ele>122.0</ele><time>2026-03-15T20:53:49.353Z</time></trkpt><trkpt lat="45.448291000000005" lon="9.141087299999999"><ele>122.0</ele><time>2026-03-15T20:53:50.431Z</time></trkpt><trkpt lat="45.448263499999996" lon="9.1410021"><ele>121.99999999999999</ele><time>2026-03-15T20:53:51.35Z</time></trkpt><trkpt lat="45.4482175" lon="9.1408546"><ele>122.0</ele><time>2026-03-15T20:53:53.397Z</time></trkpt><trkpt lat="45.448187700000005" lon="9.140759699999998"><ele>121.99999999999999</ele><time>2026-03-15T20:53:55.424Z</time></trkpt><trkpt lat="45.44815619999999" lon="9.1406575"><ele>122.0</ele><time>2026-03-15T20:54:12.355Z</time></trkpt><trkpt lat="45.448122100000006" lon="9.140537700000001"><ele>122.0</ele><time>2026-03-15T20:54:14.356Z</time></trkpt><trkpt lat="45.448074500000004" lon="9.140372399999999"><ele>122.0</ele><time>2026-03-15T20:54:16.36Z</time></trkpt><trkpt lat="45.44804730000001" lon="9.1402821"><ele>121.99999999999999</ele><time>2026-03-15T20:54:17.351Z</time></trkpt><trkpt lat="45.448019599999995" lon="9.140190100000002"><ele>122.0</ele><time>2026-03-15T20:54:18.385Z</time></trkpt><trkpt lat="45.447991900000005" lon="9.1400965"><ele>121.99999999999999</ele><time>2026-03-15T20:54:19.356Z</time></trkpt><trkpt lat="45.44796240000001" lon="9.139998100000001"><ele>122.0</ele><time>2026-03-15T20:54:20.388Z</time></trkpt><trkpt lat="45.4479316" lon="9.1398971"><ele>122.0</ele><time>2026-03-15T20:54:21.348Z</time></trkpt><trkpt lat="45.4478988" lon="9.1397926"><ele>122.0</ele><time>2026-03-15T20:54:22.351Z</time></trkpt><trkpt lat="45.447864200000005" lon="9.139684500000001"><ele>121.99999999999999</ele><time>2026-03-15T20:54:23.405Z</time></trkpt><trkpt lat="45.4478276" lon="9.1395723"><ele>122.0</ele><time>2026-03-15T20:54:24.352Z</time></trkpt><trkpt lat="45.4477882" lon="9.1394526"><ele>121.0</ele><time>2026-03-15T20:54:25.366Z</time></trkpt><trkpt lat="45.44774829999999" lon="9.139330800000002"><ele>119.99999999999999</ele><time>2026-03-15T20:54:26.376Z</time></trkpt><trkpt lat="45.447707300000005" lon="9.1392051"><ele>118.99999999999999</ele><time>2026-03-15T20:54:27.349Z</time></trkpt><trkpt lat="45.447667100000004" lon="9.1390833"><ele>118.0</ele><time>2026-03-15T20:54:28.418Z</time></trkpt><trkpt lat="45.447628" lon="9.1389666"><ele>117.0</ele><time>2026-03-15T20:54:29.346Z</time></trkpt><trkpt lat="45.4475908" lon="9.1388549"><ele>117.0</ele><time>2026-03-15T20:54:30.366Z</time></trkpt><trkpt lat="45.447556" lon="9.1387484"><ele>117.0</ele><time>2026-03-15T20:54:31.355Z</time></trkpt><trkpt lat="45.4475229" lon="9.1386477"><ele>117.0</ele><time>2026-03-15T20:54:32.358Z</time></trkpt><trkpt lat="45.4474899" lon="9.1385472"><ele>117.0</ele><time>2026-03-15T20:54:33.437Z</time></trkpt><trkpt lat="45.4474583" lon="9.1384506"><ele>117.0</ele><time>2026-03-15T20:54:34.352Z</time></trkpt><trkpt lat="45.44742679999999" lon="9.138353700000001"><ele>117.0</ele><time>2026-03-15T20:54:35.351Z</time></trkpt><trkpt lat="45.4473948" lon="9.138255000000001"><ele>117.16666666666667</ele><time>2026-03-15T20:54:36.406Z</time></trkpt><trkpt lat="45.447363200000005" lon="9.138157300000001"><ele>117.33333333333334</ele><time>2026-03-15T20:54:37.353Z</time></trkpt><trkpt lat="45.447331199999994" lon="9.1380589"><ele>117.5</ele><time>2026-03-15T20:54:38.391Z</time></trkpt><trkpt lat="45.447299099999995" lon="9.1379603"><ele>117.66666666666667</ele><time>2026-03-15T20:54:39.353Z</time></trkpt><trkpt lat="45.4472656" lon="9.137856200000002"><ele>117.83333333333334</ele><time>2026-03-15T20:54:40.405Z</time></trkpt><trkpt lat="45.4472323" lon="9.1377504"><ele>118.0</ele><time>2026-03-15T20:54:41.424Z</time></trkpt><trkpt lat="45.44719870000001" lon="9.1376429"><ele>118.00000000000001</ele><time>2026-03-15T20:54:42.351Z</time></trkpt><trkpt lat="45.4471651" lon="9.1375348"><ele>118.0</ele><time>2026-03-15T20:54:43.396Z</time></trkpt><trkpt lat="45.4471308" lon="9.1374249"><ele>118.0</ele><time>2026-03-15T20:54:44.355Z</time></trkpt><trkpt lat="45.4470949" lon="9.137312"><ele>118.0</ele><time>2026-03-15T20:54:45.362Z</time></trkpt><trkpt lat="45.44705779999999" lon="9.1371976"><ele>118.00000000000001</ele><time>2026-03-15T20:54:46.355Z</time></trkpt><trkpt lat="45.4470191" lon="9.137079600000002"><ele>118.0</ele><time>2026-03-15T20:54:47.352Z</time></trkpt><trkpt lat="45.4469792" lon="9.136959000000001"><ele>118.0</ele><time>2026-03-15T20:54:48.351Z</time></trkpt><trkpt lat="45.446938" lon="9.1368357"><ele>118.00000000000001</ele><time>2026-03-15T20:54:49.352Z</time></trkpt><trkpt lat="45.4468955" lon="9.1367075"><ele>118.00000000000001</ele><time>2026-03-15T20:54:50.353Z</time></trkpt><trkpt lat="45.4468541" lon="9.1365804"><ele>118.0</ele><time>2026-03-15T20:54:51.355Z</time></trkpt><trkpt lat="45.4468132" lon="9.1364532"><ele>118.0</ele><time>2026-03-15T20:54:52.35Z</time></trkpt><trkpt lat="45.446773" lon="9.1363288"><ele>118.0</ele><time>2026-03-15T20:54:53.344Z</time></trkpt><trkpt lat="45.4467328" lon="9.1362055"><ele>118.00000000000001</ele><time>2026-03-15T20:54:54.348Z</time></trkpt><trkpt lat="45.446693599999996" lon="9.1360837"><ele>118.00000000000001</ele><time>2026-03-15T20:54:55.358Z</time></trkpt><trkpt lat="45.446653399999995" lon="9.135960099999998"><ele>118.0</ele><time>2026-03-15T20:54:56.349Z</time></trkpt><trkpt lat="45.446612800000004" lon="9.1358355"><ele>118.0</ele><time>2026-03-15T20:54:57.357Z</time></trkpt><trkpt lat="45.44657260000001" lon="9.1357111"><ele>118.0</ele><time>2026-03-15T20:54:58.356Z</time></trkpt><trkpt lat="45.446532399999995" lon="9.135585"><ele>118.00000000000001</ele><time>2026-03-15T20:54:59.345Z</time></trkpt><trkpt lat="45.446493700000005" lon="9.135462400000002"><ele>118.00000000000001</ele><time>2026-03-15T20:55:00.35Z</time></trkpt><trkpt lat="45.44645529999999" lon="9.1353436"><ele>118.0</ele><time>2026-03-15T20:55:01.355Z</time></trkpt><trkpt lat="45.4464174" lon="9.1352277"><ele>118.0</ele><time>2026-03-15T20:55:02.35Z</time></trkpt><trkpt lat="45.446380299999994" lon="9.1351145"><ele>118.00000000000001</ele><time>2026-03-15T20:55:03.412Z</time></trkpt><trkpt lat="45.446345" lon="9.1350067"><ele>118.0</ele><time>2026-03-15T20:55:04.353Z</time></trkpt><trkpt lat="45.4463111" lon="9.1349021"><ele>118.0</ele><time>2026-03-15T20:55:05.35Z</time></trkpt><trkpt lat="45.4462788" lon="9.1348019"><ele>118.0</ele><time>2026-03-15T20:55:06.412Z</time></trkpt><trkpt lat="45.446245299999994" lon="9.134698900000002"><ele>118.00000000000001</ele><time>2026-03-15T20:55:07.356Z</time></trkpt><trkpt lat="45.44620839999999" lon="9.1345876"><ele>118.0</ele><time>2026-03-15T20:55:08.378Z</time></trkpt><trkpt lat="45.44616949999999" lon="9.134470100000001"><ele>118.4</ele><time>2026-03-15T20:55:09.356Z</time></trkpt><trkpt lat="45.446128" lon="9.134344700000002"><ele>118.80000000000001</ele><time>2026-03-15T20:55:10.353Z</time></trkpt><trkpt lat="45.4460853" lon="9.1342124"><ele>119.2</ele><time>2026-03-15T20:55:11.427Z</time></trkpt><trkpt lat="45.4460398" lon="9.134070999999999"><ele>119.6</ele><time>2026-03-15T20:55:12.353Z</time></trkpt><trkpt lat="45.445992499999996" lon="9.1339284"><ele>120.0</ele><time>2026-03-15T20:55:13.373Z</time></trkpt><trkpt lat="45.44594420000001" lon="9.133781399999998"><ele>120.0</ele><time>2026-03-15T20:55:14.397Z</time></trkpt><trkpt lat="45.4458979" lon="9.1336263"><ele>120.0</ele><time>2026-03-15T20:55:15.358Z</time></trkpt><trkpt lat="45.44585010000001" lon="9.133474399999999"><ele>120.0</ele><time>2026-03-15T20:55:16.445Z</time></trkpt><trkpt lat="45.4458028" lon="9.133325899999999"><ele>120.0</ele><time>2026-03-15T20:55:17.35Z</time></trkpt><trkpt lat="45.4457565" lon="9.1331825"><ele>120.4</ele><time>2026-03-15T20:55:18.373Z</time></trkpt><trkpt lat="45.4457105" lon="9.1330396"><ele>120.8</ele><time>2026-03-15T20:55:19.526Z</time></trkpt><trkpt lat="45.4456657" lon="9.1329002"><ele>121.19999999999999</ele><time>2026-03-15T20:55:20.349Z</time></trkpt><trkpt lat="45.4456219" lon="9.132763099999998"><ele>121.6</ele><time>2026-03-15T20:55:21.365Z</time></trkpt><trkpt lat="45.445578999999995" lon="9.1326281"><ele>122.0</ele><time>2026-03-15T20:55:22.364Z</time></trkpt><trkpt lat="45.445536499999996" lon="9.1324963"><ele>122.19999999999999</ele><time>2026-03-15T20:55:23.363Z</time></trkpt><trkpt lat="45.445494800000006" lon="9.132366600000001"><ele>122.39999999999999</ele><time>2026-03-15T20:55:24.357Z</time></trkpt><trkpt lat="45.44545329999999" lon="9.1322367"><ele>122.60000000000001</ele><time>2026-03-15T20:55:25.361Z</time></trkpt><trkpt lat="45.44541389999999" lon="9.132110500000001"><ele>122.80000000000001</ele><time>2026-03-15T20:55:26.441Z</time></trkpt><trkpt lat="45.445378299999994" lon="9.1319961"><ele>123.0</ele><time>2026-03-15T20:55:27.355Z</time></trkpt><trkpt lat="45.445344199999994" lon="9.131914499999999"><ele>123.0</ele><time>2026-03-15T20:55:28.374Z</time></trkpt><trkpt lat="45.4452585" lon="9.1318934"><ele>123.00000000000001</ele><time>2026-03-15T20:55:30.355Z</time></trkpt><trkpt lat="45.445202800000004" lon="9.131986399999999"><ele>123.00000000000001</ele><time>2026-03-15T20:55:32.358Z</time></trkpt><trkpt lat="45.44524809999999" lon="9.132163199999999"><ele>123.0</ele><time>2026-03-15T20:55:34.365Z</time></trkpt><trkpt lat="45.4452868" lon="9.132276099999999"><ele>123.0</ele><time>2026-03-15T20:55:35.346Z</time></trkpt><trkpt lat="45.445328" lon="9.1324"><ele>123.0</ele><time>2026-03-15T20:55:36.415Z</time></trkpt><trkpt lat="45.44537090000001" lon="9.1325314"><ele>123.0</ele><time>2026-03-15T20:55:37.355Z</time></trkpt><trkpt lat="45.4454167" lon="9.132673300000002"><ele>123.0</ele><time>2026-03-15T20:55:38.353Z</time></trkpt><trkpt lat="45.445465299999995" lon="9.132823899999998"><ele>123.0</ele><time>2026-03-15T20:55:39.384Z</time></trkpt><trkpt lat="45.445516399999995" lon="9.132983099999999"><ele>122.75</ele><time>2026-03-15T20:55:40.354Z</time></trkpt><trkpt lat="45.4455696" lon="9.133148400000001"><ele>122.5</ele><time>2026-03-15T20:55:41.411Z</time></trkpt><trkpt lat="45.445625299999996" lon="9.133322900000001"><ele>122.25</ele><time>2026-03-15T20:55:42.352Z</time></trkpt><trkpt lat="45.4456827" lon="9.1335004"><ele>122.0</ele><time>2026-03-15T20:55:43.356Z</time></trkpt><trkpt lat="45.445741500000004" lon="9.1336819"><ele>122.19999999999999</ele><time>2026-03-15T20:55:44.403Z</time></trkpt><trkpt lat="45.4457977" lon="9.1338534"><ele>122.39999999999999</ele><time>2026-03-15T20:55:45.35Z</time></trkpt><trkpt lat="45.4458493" lon="9.1340082"><ele>122.60000000000001</ele><time>2026-03-15T20:55:46.404Z</time></trkpt><trkpt lat="45.445893" lon="9.1341389"><ele>122.80000000000001</ele><time>2026-03-15T20:55:47.346Z</time></trkpt><trkpt lat="45.445930399999995" lon="9.1342521"><ele>123.0</ele><time>2026-03-15T20:55:48.351Z</time></trkpt><trkpt lat="45.445960899999996" lon="9.1343462"><ele>123.0</ele><time>2026-03-15T20:55:49.349Z</time></trkpt><trkpt lat="45.4460039" lon="9.1344774"><ele>123.00000000000001</ele><time>2026-03-15T20:55:51.372Z</time></trkpt><trkpt lat="45.446032699999996" lon="9.134565700000001"><ele>123.00000000000001</ele><time>2026-03-15T20:55:53.351Z</time></trkpt><trkpt lat="45.445925100000004" lon="9.1347167"><ele>123.0</ele><time>2026-03-15T20:56:06.37Z</time></trkpt><trkpt lat="45.4458246" lon="9.134742400000002"><ele>123.0</ele><time>2026-03-15T20:56:08.351Z</time></trkpt><trkpt lat="45.4457244" lon="9.134762000000002"><ele>123.0</ele><time>2026-03-15T20:56:10.356Z</time></trkpt><trkpt lat="45.445637500000004" lon="9.1348167"><ele>123.0</ele><time>2026-03-15T20:56:12.361Z</time></trkpt><trkpt lat="45.445577199999995" lon="9.1348838"><ele>123.0</ele><time>2026-03-15T20:56:14.404Z</time></trkpt><trkpt lat="45.445513899999995" lon="9.1348602"><ele>123.0</ele><time>2026-03-15T20:56:17.351Z</time></trkpt><trkpt lat="45.445507299999996" lon="9.134957100000001"><ele>123.0</ele><time>2026-03-15T20:56:25.359Z</time></trkpt><trkpt lat="45.4454434" lon="9.1350105"><ele>123.0</ele><time>2026-03-15T20:56:32.425Z</time></trkpt><trkpt lat="45.44577904373974" lon="9.134790266677633"><ele>122.5</ele><time>2026-03-15T21:00:02.817Z</time></trkpt><trkpt lat="45.44539474852722" lon="9.13494440777339"><ele>122.0</ele><time>2026-03-15T21:00:08.023Z</time></trkpt><trkpt lat="45.44535624244274" lon="9.135023331593775"><ele>121.99999999999999</ele><time>2026-03-15T21:00:12.02Z</time></trkpt><trkpt lat="45.445333825385276" lon="9.134928528333777"><ele>122.0</ele><time>2026-03-15T21:00:14.02Z</time></trkpt><trkpt lat="45.44543605626306" lon="9.134908406963975"><ele>122.0</ele><time>2026-03-15T21:00:23.998Z</time></trkpt><trkpt lat="45.445491295291646" lon="9.13502575737964"><ele>122.0</ele><time>2026-03-15T21:00:52Z</time></trkpt><trkpt lat="45.44553160429686" lon="9.134949888848658"><ele>121.99999999999999</ele><time>2026-03-15T21:00:56Z</time></trkpt><trkpt lat="45.445588599533906" lon="9.135007090658139"><ele>122.0</ele><time>2026-03-15T21:00:59Z</time></trkpt><trkpt lat="45.4456493803154" lon="9.135035438059015"><ele>121.19999999999999</ele><time>2026-03-15T21:01:03Z</time></trkpt><trkpt lat="45.44555190313884" lon="9.135170120608766"><ele>120.39999999999999</ele><time>2026-03-15T21:01:05Z</time></trkpt><trkpt lat="45.445607530207226" lon="9.135102107466208"><ele>119.60000000000001</ele><time>2026-03-15T21:02:29.729Z</time></trkpt><trkpt lat="45.445533038133945" lon="9.134953676971692"><ele>118.80000000000001</ele><time>2026-03-15T21:02:33.412Z</time></trkpt><trkpt lat="45.44544230772482" lon="9.134886043887112"><ele>118.0</ele><time>2026-03-15T21:03:21.012Z</time></trkpt><trkpt lat="45.445438261975035" lon="9.13477684310444"><ele>118.00000000000001</ele><time>2026-03-15T21:03:23.016Z</time></trkpt><trkpt lat="45.44550273002766" lon="9.134782971491662"><ele>118.0</ele><time>2026-03-15T21:03:27.015Z</time></trkpt><trkpt lat="45.44556216636257" lon="9.13483960235973"><ele>118.0</ele><time>2026-03-15T21:03:30.997Z</time></trkpt><trkpt lat="45.445579012109974" lon="9.134930664475714"><ele>118.0</ele><time>2026-03-15T21:03:37.996Z</time></trkpt><trkpt lat="45.445585736684095" lon="9.135038444145628"><ele>118.00000000000001</ele><time>2026-03-15T21:10:33Z</time></trkpt><trkpt lat="45.445520400822986" lon="9.134871661990935"><ele>118.0</ele><time>2026-03-15T21:10:45.999Z</time></trkpt><trkpt lat="45.44546169980652" lon="9.134810642034797"><ele>118.83333333333334</ele><time>2026-03-15T21:10:49.999Z</time></trkpt><trkpt lat="45.44552573569958" lon="9.134776829137751"><ele>119.66666666666667</ele><time>2026-03-15T21:10:54.999Z</time></trkpt><trkpt lat="45.4454697104498" lon="9.13471837780762"><ele>120.5</ele><time>2026-03-15T21:11:28.998Z</time></trkpt><trkpt lat="45.44549976785469" lon="9.134818353149816"><ele>121.33333333333334</ele><time>2026-03-15T21:13:16.998Z</time></trkpt><trkpt lat="45.44548210409027" lon="9.134722653071984"><ele>122.16666666666667</ele><time>2026-03-15T21:28:33.998Z</time></trkpt><trkpt lat="45.44552948252367" lon="9.13483020957167"><ele>123.0</ele><time>2026-03-15T21:39:48.022Z</time></trkpt><trkpt lat="45.44556404445546" lon="9.134950390991401"><ele>124.0</ele><time>2026-03-15T21:44:31.024Z</time></trkpt><trkpt lat="45.445598865786906" lon="9.135071060690521"><ele>125.0</ele><time>2026-03-15T21:50:31.568Z</time></trkpt><trkpt lat="45.445533038133945" lon="9.134953676971692"><ele>126.0</ele><time>2026-03-15T22:27:53.589Z</time></trkpt><trkpt lat="45.44560597392244" lon="9.135096304197067"><ele>127.0</ele><time>2026-03-15T22:28:16.007Z</time></trkpt><trkpt lat="45.44570687705391" lon="9.135284749094174"><ele>127.0</ele><time>2026-03-15T22:44:59.834Z</time></trkpt><trkpt lat="45.44569222000888" lon="9.135382123853539"><ele>127.0</ele><time>2026-03-15T22:45:21.009Z</time></trkpt><trkpt lat="45.445690458760154" lon="9.135559783859796"><ele>127.0</ele><time>2026-03-15T22:45:22.2Z</time></trkpt><trkpt lat="45.445533038133945" lon="9.134953676971692"><ele>127.0</ele><time>2026-03-15T22:45:24.935Z</time></trkpt><trkpt lat="45.44560671051503" lon="9.135099577927479"><ele>127.0</ele><time>2026-03-15T22:45:40.228Z</time></trkpt><trkpt lat="45.445533038133945" lon="9.134953676971692"><ele>127.0</ele><time>2026-03-15T22:59:58.539Z</time></trkpt><trkpt lat="45.44560709846337" lon="9.135100130417941"><ele>127.0</ele><time>2026-03-15T23:00:09.519Z</time></trkpt><trkpt lat="45.445533038133945" lon="9.134953676971692"><ele>127.0</ele><time>2026-03-15T23:00:18.848Z</time></trkpt><trkpt lat="45.44560722484132" lon="9.135099907179036"><ele>127.0</ele><time>2026-03-15T23:00:23.987Z</time></trkpt><trkpt lat="45.44552165976002" lon="9.13516397848906"><ele>127.0</ele><time>2026-03-15T23:00:29Z</time></trkpt><trkpt lat="45.44537104339853" lon="9.13497920217302"><ele>127.0</ele><time>2026-03-15T23:00:33Z</time></trkpt><trkpt lat="45.44528472984684" lon="9.134947802951855"><ele>125.75</ele><time>2026-03-15T23:00:34Z</time></trkpt><trkpt lat="45.44516426427182" lon="9.134910632836183"><ele>124.5</ele><time>2026-03-15T23:00:37Z</time></trkpt><trkpt lat="45.44509655631581" lon="9.134890891202488"><ele>123.25</ele><time>2026-03-15T23:00:38Z</time></trkpt><trkpt lat="45.4452315981259" lon="9.13493061198766"><ele>122.0</ele><time>2026-03-15T23:00:47Z</time></trkpt><trkpt lat="45.445361359028745" lon="9.13506168344733"><ele>122.0</ele><time>2026-03-15T23:01:09Z</time></trkpt><trkpt lat="45.44539646915931" lon="9.134974200302233"><ele>122.0</ele><time>2026-03-15T23:01:15.999Z</time></trkpt><trkpt lat="45.445345375589135" lon="9.134878396377134"><ele>122.0</ele><time>2026-03-15T23:01:16.999Z</time></trkpt><trkpt lat="45.445533038133945" lon="9.134953676971692"><ele>122.0</ele><time>2026-03-15T23:02:58.999Z</time></trkpt><trkpt lat="45.44560705428508" lon="9.13509942430999"><ele>120.0</ele><time>2026-03-15T23:03:11.04Z</time></trkpt><trkpt lat="45.44529023483173" lon="9.134726714457901"><ele>118.0</ele><time>2026-03-15T23:03:29.035Z</time></trkpt><trkpt lat="45.44560705428507" lon="9.135099424309988"><ele>118.0</ele><time>2026-03-15T23:03:31.033Z</time></trkpt><trkpt lat="45.445407705445284" lon="9.134573059890975"><ele>118.0</ele><time>2026-03-15T23:04:58.01Z</time></trkpt><trkpt lat="45.445533038133945" lon="9.134953676971692"><ele>120.25</ele><time>2026-03-15T23:05:26.019Z</time></trkpt><trkpt lat="45.44560705428507" lon="9.135099424309992"><ele>122.5</ele><time>2026-03-15T23:05:41.02Z</time></trkpt><trkpt lat="45.445533038133945" lon="9.134953676971692"><ele>124.75</ele><time>2026-03-15T23:27:49.554Z</time></trkpt><trkpt lat="45.44560704773736" lon="9.135099422751363"><ele>127.0</ele><time>2026-03-15T23:28:16.778Z</time></trkpt><trkpt lat="45.445533038133945" lon="9.134953676971692"><ele>127.00000000000001</ele><time>2026-03-15T23:28:53.99Z</time></trkpt><trkpt lat="45.44560714182632" lon="9.135099780134759"><ele>127.0</ele><time>2026-03-15T23:29:21.124Z</time></trkpt><trkpt lat="45.44567869038878" lon="9.135227267296328"><ele>127.0</ele><time>2026-03-15T23:34:23.945Z</time></trkpt><trkpt lat="45.44565388960649" lon="9.135138760917416"><ele>127.0</ele><time>2026-03-15T23:34:30Z</time></trkpt><trkpt lat="45.445622670120954" lon="9.135050620934734"><ele>127.00000000000001</ele><time>2026-03-15T23:34:33Z</time></trkpt><trkpt lat="45.44563730356271" lon="9.134955936372716"><ele>127.0</ele><time>2026-03-15T23:38:13.997Z</time></trkpt><trkpt lat="45.44559995945741" lon="9.134882104950568"><ele>127.00000000000001</ele><time>2026-03-15T23:38:35.997Z</time></trkpt><trkpt lat="45.44563569053443" lon="9.134968072699452"><ele>127.0</ele><time>2026-03-15T23:42:22.998Z</time></trkpt><trkpt lat="45.44566536001054" lon="9.13507797060846"><ele>127.0</ele><time>2026-03-15T23:42:28.998Z</time></trkpt><trkpt lat="45.44568886829979" lon="9.135200682029891"><ele>127.0</ele><time>2026-03-15T23:42:33.998Z</time></trkpt><trkpt lat="45.44572191022036" lon="9.135316048636778"><ele>127.00000000000001</ele><time>2026-03-15T23:42:36.998Z</time></trkpt><trkpt lat="45.44574914887061" lon="9.135415863999384"><ele>127.0</ele><time>2026-03-15T23:42:39.998Z</time></trkpt><trkpt lat="45.44576174012966" lon="9.135543066790335"><ele>127.0</ele><time>2026-03-15T23:42:43.997Z</time></trkpt><trkpt lat="45.44578324587836" lon="9.135646445022218"><ele>127.0</ele><time>2026-03-15T23:42:47.071Z</time></trkpt><trkpt lat="45.445692692671" lon="9.13533897403839"><ele>127.0</ele><time>2026-03-15T23:42:59.067Z</time></trkpt><trkpt lat="45.44564945462298" lon="9.135219684215098"><ele>127.0</ele><time>2026-03-15T23:43:11.024Z</time></trkpt></trkseg><trkseg><trkpt lat="45.182200845126744" lon="9.494561496076512"><ele>67.99999999999999</ele><time>2026-03-22T10:15:29.997Z</time></trkpt><trkpt lat="45.18216332184995" lon="9.494479876072841"><ele>68.0</ele><time>2026-03-22T10:15:46.999Z</time></trkpt><trkpt lat="45.18219078739113" lon="9.494381552412039"><ele>68.0</ele><time>2026-03-22T10:15:51.999Z</time></trkpt><trkpt lat="45.1821659158562" lon="9.49446554503949"><ele>68.0</ele><time>2026-03-22T10:24:09Z</time></trkpt><trkpt lat="45.18215388991329" lon="9.494355277976654"><ele>68.0</ele><time>2026-03-22T10:24:35.999Z</time></trkpt><trkpt lat="45.182111776199385" lon="9.49424395573829"><ele>67.99999999999999</ele><time>2026-03-22T10:24:58.999Z</time></trkpt><trkpt lat="45.182044060316926" lon="9.494253680243393"><ele>68.0</ele><time>2026-03-22T10:25:00.999Z</time></trkpt><trkpt lat="45.181977002586784" lon="9.4943194187738"><ele>68.0</ele><time>2026-03-22T10:25:02.999Z</time></trkpt><trkpt lat="45.1818995207069" lon="9.494384637609851"><ele>68.0</ele><time>2026-03-22T10:25:04.999Z</time></trkpt><trkpt lat="45.18184439938154" lon="9.494428020475508"><ele>68.0</ele><time>2026-03-22T10:25:05.999Z</time></trkpt><trkpt lat="45.181766096070575" lon="9.49449853340028"><ele>68.0</ele><time>2026-03-22T10:25:06.999Z</time></trkpt><trkpt lat="45.18163340389417" lon="9.494612322951877"><ele>68.0</ele><time>2026-03-22T10:25:07.999Z</time></trkpt><trkpt lat="45.18149744709967" lon="9.494733366007624"><ele>68.33333333333334</ele><time>2026-03-22T10:25:08.999Z</time></trkpt><trkpt lat="45.18136232399614" lon="9.494856700964517"><ele>68.66666666666667</ele><time>2026-03-22T10:25:09.999Z</time></trkpt><trkpt lat="45.18122842781093" lon="9.494978859953529"><ele>69.0</ele><time>2026-03-22T10:25:10.998Z</time></trkpt><trkpt lat="45.18109267025691" lon="9.495100540037164"><ele>69.0</ele><time>2026-03-22T10:25:11.998Z</time></trkpt><trkpt lat="45.18096676944795" lon="9.4952149927272"><ele>69.0</ele><time>2026-03-22T10:25:12.998Z</time></trkpt><trkpt lat="45.18085559643789" lon="9.49531838244159"><ele>69.0</ele><time>2026-03-22T10:25:13.998Z</time></trkpt><trkpt lat="45.18075100231078" lon="9.495411292598785"><ele>69.0</ele><time>2026-03-22T10:25:14.998Z</time></trkpt><trkpt lat="45.1806517407024" lon="9.49549313531534"><ele>69.66666666666667</ele><time>2026-03-22T10:25:15.998Z</time></trkpt><trkpt lat="45.180555530247034" lon="9.495571952543264"><ele>70.33333333333334</ele><time>2026-03-22T10:25:16.998Z</time></trkpt><trkpt lat="45.18042478283636" lon="9.495690222600555"><ele>71.0</ele><time>2026-03-22T10:25:17.998Z</time></trkpt><trkpt lat="45.180269539182135" lon="9.495856448071853"><ele>71.0</ele><time>2026-03-22T10:25:18.998Z</time></trkpt><trkpt lat="45.180141703840945" lon="9.496013665828661"><ele>71.0</ele><time>2026-03-22T10:25:19.998Z</time></trkpt><trkpt lat="45.180045952803376" lon="9.496165330773488"><ele>71.0</ele><time>2026-03-22T10:25:20.998Z</time></trkpt><trkpt lat="45.17996589696707" lon="9.496320628122797"><ele>71.0</ele><time>2026-03-22T10:25:21.998Z</time></trkpt><trkpt lat="45.179887307146785" lon="9.496489318020135"><ele>73.33333333333334</ele><time>2026-03-22T10:25:22.998Z</time></trkpt><trkpt lat="45.179807979715555" lon="9.496664708248092"><ele>75.66666666666667</ele><time>2026-03-22T10:25:23.998Z</time></trkpt><trkpt lat="45.17973011003779" lon="9.496843850747862"><ele>78.0</ele><time>2026-03-22T10:25:24.998Z</time></trkpt><trkpt lat="45.17964149135589" lon="9.49703961544916"><ele>76.33333333333333</ele><time>2026-03-22T10:25:25.998Z</time></trkpt><trkpt lat="45.179544442120104" lon="9.497236387497841"><ele>74.66666666666666</ele><time>2026-03-22T10:25:26.998Z</time></trkpt><trkpt lat="45.17943934732328" lon="9.497418182746074"><ele>73.0</ele><time>2026-03-22T10:25:27.998Z</time></trkpt><trkpt lat="45.17933086258869" lon="9.497585431189282"><ele>73.0</ele><time>2026-03-22T10:25:28.998Z</time></trkpt><trkpt lat="45.17921282096104" lon="9.497745757129815"><ele>73.0</ele><time>2026-03-22T10:25:29.998Z</time></trkpt><trkpt lat="45.17907845362693" lon="9.497886916279644"><ele>73.0</ele><time>2026-03-22T10:25:30.998Z</time></trkpt><trkpt lat="45.17892761379726" lon="9.497997052628373"><ele>73.66666666666666</ele><time>2026-03-22T10:25:31.998Z</time></trkpt><trkpt lat="45.17877163777225" lon="9.498081759581124"><ele>74.33333333333333</ele><time>2026-03-22T10:25:32.998Z</time></trkpt><trkpt lat="45.178627881154604" lon="9.49814702112689"><ele>75.0</ele><time>2026-03-22T10:25:33.998Z</time></trkpt><trkpt lat="45.178499275712774" lon="9.498200495818127"><ele>75.0</ele><time>2026-03-22T10:25:34.998Z</time></trkpt><trkpt lat="45.17835549872002" lon="9.498258835826352"><ele>75.0</ele><time>2026-03-22T10:25:35.998Z</time></trkpt><trkpt lat="45.178170912350154" lon="9.498329385271225"><ele>75.0</ele><time>2026-03-22T10:25:36.998Z</time></trkpt><trkpt lat="45.177948899664884" lon="9.49840497791407"><ele>76.0</ele><time>2026-03-22T10:25:37.998Z</time></trkpt><trkpt lat="45.177722035741425" lon="9.498501194368284"><ele>77.0</ele><time>2026-03-22T10:25:38.998Z</time></trkpt><trkpt lat="45.177509254385406" lon="9.498623796611444"><ele>76.0</ele><time>2026-03-22T10:25:39.998Z</time></trkpt><trkpt lat="45.17731369359618" lon="9.498762922683742"><ele>75.0</ele><time>2026-03-22T10:25:40.998Z</time></trkpt><trkpt lat="45.177129521785844" lon="9.498914075052694"><ele>74.0</ele><time>2026-03-22T10:25:41.998Z</time></trkpt><trkpt lat="45.17695023183429" lon="9.499071913065677"><ele>74.0</ele><time>2026-03-22T10:25:42.998Z</time></trkpt><trkpt lat="45.17677558746608" lon="9.499228412102802"><ele>74.0</ele><time>2026-03-22T10:25:43.998Z</time></trkpt><trkpt lat="45.176616449657764" lon="9.499371198505948"><ele>74.0</ele><time>2026-03-22T10:25:44.998Z</time></trkpt><trkpt lat="45.17646612442512" lon="9.499506951240354"><ele>74.0</ele><time>2026-03-22T10:25:45.998Z</time></trkpt><trkpt lat="45.176310217462124" lon="9.499644005211918"><ele>74.0</ele><time>2026-03-22T10:25:46.998Z</time></trkpt><trkpt lat="45.17615408268482" lon="9.499779640689107"><ele>74.0</ele><time>2026-03-22T10:25:47.998Z</time></trkpt><trkpt lat="45.17599862221515" lon="9.499916255732604"><ele>74.0</ele><time>2026-03-22T10:25:48.998Z</time></trkpt><trkpt lat="45.175850753935926" lon="9.500054037388631"><ele>74.0</ele><time>2026-03-22T10:25:49.998Z</time></trkpt><trkpt lat="45.175695171637855" lon="9.500216081026805"><ele>74.0</ele><time>2026-03-22T10:25:50.998Z</time></trkpt><trkpt lat="45.175557684945005" lon="9.500404080618253"><ele>75.33333333333334</ele><time>2026-03-22T10:25:51.998Z</time></trkpt><trkpt lat="45.17542166278499" lon="9.500614293839082"><ele>76.66666666666667</ele><time>2026-03-22T10:25:52.998Z</time></trkpt><trkpt lat="45.17529753162503" lon="9.500807011587087"><ele>78.0</ele><time>2026-03-22T10:25:53.997Z</time></trkpt><trkpt lat="45.17518437015975" lon="9.500976609623836"><ele>78.0</ele><time>2026-03-22T10:25:54.997Z</time></trkpt><trkpt lat="45.17507733704007" lon="9.501138730979015"><ele>78.0</ele><time>2026-03-22T10:25:55.997Z</time></trkpt><trkpt lat="45.1749787714231" lon="9.501286538214742"><ele>78.0</ele><time>2026-03-22T10:25:56.997Z</time></trkpt><trkpt lat="45.17489893094103" lon="9.501409087928101"><ele>78.0</ele><time>2026-03-22T10:25:57.997Z</time></trkpt><trkpt lat="45.17482119832273" lon="9.501490740415035"><ele>77.75</ele><time>2026-03-22T10:25:58.997Z</time></trkpt><trkpt lat="45.1747600047117" lon="9.501571271042717"><ele>77.5</ele><time>2026-03-22T10:25:59.997Z</time></trkpt><trkpt lat="45.174672872725985" lon="9.501664306509424"><ele>77.25</ele><time>2026-03-22T10:26:01Z</time></trkpt><trkpt lat="45.174526727728704" lon="9.501793053689772"><ele>77.0</ele><time>2026-03-22T10:26:02Z</time></trkpt><trkpt lat="45.17431881124545" lon="9.501987488230888"><ele>74.0</ele><time>2026-03-22T10:26:03Z</time></trkpt><trkpt lat="45.17408826519358" lon="9.502178535336167"><ele>71.0</ele><time>2026-03-22T10:26:04Z</time></trkpt><trkpt lat="45.17389951896969" lon="9.50235246106852"><ele>71.0</ele><time>2026-03-22T10:26:05Z</time></trkpt><trkpt lat="45.17373578036975" lon="9.502507028735378"><ele>71.0</ele><time>2026-03-22T10:26:06Z</time></trkpt><trkpt lat="45.173581128142374" lon="9.502650130638026"><ele>71.0</ele><time>2026-03-22T10:26:07Z</time></trkpt><trkpt lat="45.173415223314336" lon="9.502789045259071"><ele>70.0</ele><time>2026-03-22T10:26:08Z</time></trkpt><trkpt lat="45.173233226850584" lon="9.502924308339141"><ele>69.0</ele><time>2026-03-22T10:26:09Z</time></trkpt><trkpt lat="45.17304271448018" lon="9.503042726327612"><ele>68.0</ele><time>2026-03-22T10:26:10Z</time></trkpt><trkpt lat="45.17284182715548" lon="9.503138138762795"><ele>68.0</ele><time>2026-03-22T10:26:11Z</time></trkpt><trkpt lat="45.17263494987692" lon="9.503223773518782"><ele>68.0</ele><time>2026-03-22T10:26:12Z</time></trkpt><trkpt lat="45.17243450824116" lon="9.50334955032023"><ele>68.0</ele><time>2026-03-22T10:26:13Z</time></trkpt><trkpt lat="45.17224580925774" lon="9.503522263109678"><ele>67.5</ele><time>2026-03-22T10:26:14Z</time></trkpt><trkpt lat="45.172058882645125" lon="9.503706896270709"><ele>67.0</ele><time>2026-03-22T10:26:15Z</time></trkpt><trkpt lat="45.171848009919565" lon="9.503818301981168"><ele>67.0</ele><time>2026-03-22T10:26:16Z</time></trkpt><trkpt lat="45.17164566298647" lon="9.503927931783373"><ele>67.0</ele><time>2026-03-22T10:26:17Z</time></trkpt><trkpt lat="45.171434402941834" lon="9.504009679242857"><ele>67.0</ele><time>2026-03-22T10:26:18Z</time></trkpt><trkpt lat="45.17120687711449" lon="9.504026106344178"><ele>69.0</ele><time>2026-03-22T10:26:19Z</time></trkpt><trkpt lat="45.17098383649327" lon="9.504077120948557"><ele>71.0</ele><time>2026-03-22T10:26:20Z</time></trkpt><trkpt lat="45.17076856824052" lon="9.504171855033075"><ele>73.66666666666667</ele><time>2026-03-22T10:26:21Z</time></trkpt><trkpt lat="45.17055934210344" lon="9.504299829677548"><ele>76.33333333333333</ele><time>2026-03-22T10:26:22Z</time></trkpt><trkpt lat="45.17035770420207" lon="9.50440863791324"><ele>79.0</ele><time>2026-03-22T10:26:23Z</time></trkpt><trkpt lat="45.17016652571598" lon="9.50450586831654"><ele>76.66666666666666</ele><time>2026-03-22T10:26:24Z</time></trkpt><trkpt lat="45.16997449637842" lon="9.504599555207827"><ele>74.33333333333333</ele><time>2026-03-22T10:26:25Z</time></trkpt><trkpt lat="45.16978601304721" lon="9.504694480021179"><ele>72.0</ele><time>2026-03-22T10:26:26Z</time></trkpt><trkpt lat="45.169599310456654" lon="9.504810682413346"><ele>72.0</ele><time>2026-03-22T10:26:27Z</time></trkpt><trkpt lat="45.16942648218033" lon="9.504948691111935"><ele>72.0</ele><time>2026-03-22T10:26:28Z</time></trkpt><trkpt lat="45.169257428439806" lon="9.505084221120777"><ele>72.0</ele><time>2026-03-22T10:26:29Z</time></trkpt><trkpt lat="45.169070153086814" lon="9.50516439195676"><ele>72.33333333333333</ele><time>2026-03-22T10:26:30Z</time></trkpt><trkpt lat="45.16888019766674" lon="9.505257928208954"><ele>72.66666666666666</ele><time>2026-03-22T10:26:31Z</time></trkpt><trkpt lat="45.168688239916996" lon="9.505319935901118"><ele>73.0</ele><time>2026-03-22T10:26:32Z</time></trkpt><trkpt lat="45.16850642386046" lon="9.50538446031933"><ele>72.0</ele><time>2026-03-22T10:26:33Z</time></trkpt><trkpt lat="45.16830349237764" lon="9.50544360251373"><ele>71.0</ele><time>2026-03-22T10:26:34Z</time></trkpt><trkpt lat="45.16808991339487" lon="9.505532232933994"><ele>70.0</ele><time>2026-03-22T10:26:35Z</time></trkpt><trkpt lat="45.16785683683789" lon="9.505640040983158"><ele>70.0</ele><time>2026-03-22T10:26:36Z</time></trkpt><trkpt lat="45.16760487425619" lon="9.50577739926364"><ele>70.0</ele><time>2026-03-22T10:26:37Z</time></trkpt><trkpt lat="45.16739098469286" lon="9.505913892167307"><ele>70.66666666666666</ele><time>2026-03-22T10:26:38Z</time></trkpt><trkpt lat="45.16719571299198" lon="9.506012561770863"><ele>71.33333333333333</ele><time>2026-03-22T10:26:39Z</time></trkpt><trkpt lat="45.16699126451503" lon="9.506039427666819"><ele>72.0</ele><time>2026-03-22T10:26:40Z</time></trkpt><trkpt lat="45.166767436431364" lon="9.506028568675099"><ele>71.0</ele><time>2026-03-22T10:26:41Z</time></trkpt><trkpt lat="45.166524548038915" lon="9.505995057467189"><ele>70.0</ele><time>2026-03-22T10:26:42Z</time></trkpt><trkpt lat="45.16628221985499" lon="9.50584281449922"><ele>70.0</ele><time>2026-03-22T10:26:43Z</time></trkpt><trkpt lat="45.16604677820353" lon="9.50567660383021"><ele>70.0</ele><time>2026-03-22T10:26:44Z</time></trkpt><trkpt lat="45.16584407143904" lon="9.505537205882055"><ele>69.33333333333333</ele><time>2026-03-22T10:26:44.999Z</time></trkpt><trkpt lat="45.16567268867493" lon="9.505393943659834"><ele>68.66666666666667</ele><time>2026-03-22T10:26:45.999Z</time></trkpt><trkpt lat="45.16551514415727" lon="9.505241189741085"><ele>68.0</ele><time>2026-03-22T10:26:46.999Z</time></trkpt><trkpt lat="45.165375343165316" lon="9.50503598748389"><ele>68.0</ele><time>2026-03-22T10:26:47.999Z</time></trkpt><trkpt lat="45.165254292277545" lon="9.504789687211447"><ele>68.0</ele><time>2026-03-22T10:26:48.999Z</time></trkpt><trkpt lat="45.165140455974864" lon="9.504526351402722"><ele>68.0</ele><time>2026-03-22T10:26:49.999Z</time></trkpt><trkpt lat="45.1650426006668" lon="9.504247444823209"><ele>68.0</ele><time>2026-03-22T10:26:50.999Z</time></trkpt><trkpt lat="45.16496145919349" lon="9.503942799970197"><ele>68.0</ele><time>2026-03-22T10:26:51.999Z</time></trkpt><trkpt lat="45.16484737956111" lon="9.503613950336327"><ele>68.0</ele><time>2026-03-22T10:26:52.999Z</time></trkpt><trkpt lat="45.16467848270132" lon="9.50331898709843"><ele>68.0</ele><time>2026-03-22T10:26:53.999Z</time></trkpt><trkpt lat="45.16447278266069" lon="9.503079372912351"><ele>68.5</ele><time>2026-03-22T10:26:54.999Z</time></trkpt><trkpt lat="45.16427070161921" lon="9.502882173694656"><ele>69.0</ele><time>2026-03-22T10:26:55.999Z</time></trkpt><trkpt lat="45.16408575742649" lon="9.502708052920495"><ele>68.33333333333333</ele><time>2026-03-22T10:26:56.999Z</time></trkpt><trkpt lat="45.16391899087729" lon="9.502551552362592"><ele>67.66666666666666</ele><time>2026-03-22T10:26:57.999Z</time></trkpt><trkpt lat="45.16376018565526" lon="9.502400434402198"><ele>67.0</ele><time>2026-03-22T10:26:58.999Z</time></trkpt><trkpt lat="45.16361306346842" lon="9.502262952119128"><ele>67.0</ele><time>2026-03-22T10:26:59.999Z</time></trkpt><trkpt lat="45.163481112264364" lon="9.502136467080925"><ele>67.0</ele><time>2026-03-22T10:27:00.999Z</time></trkpt><trkpt lat="45.163366186553105" lon="9.502026803817214"><ele>67.0</ele><time>2026-03-22T10:27:01.999Z</time></trkpt><trkpt lat="45.163257334375736" lon="9.501921023719202"><ele>67.0</ele><time>2026-03-22T10:27:02.999Z</time></trkpt><trkpt lat="45.16316730039785" lon="9.501838170659424"><ele>67.0</ele><time>2026-03-22T10:27:03.999Z</time></trkpt><trkpt lat="45.16309057370881" lon="9.5017737860247"><ele>67.0</ele><time>2026-03-22T10:27:04.999Z</time></trkpt><trkpt lat="45.163026950435686" lon="9.501719434762782"><ele>67.0</ele><time>2026-03-22T10:27:05.999Z</time></trkpt><trkpt lat="45.16297001985572" lon="9.501675008360241"><ele>67.0</ele><time>2026-03-22T10:27:06.999Z</time></trkpt><trkpt lat="45.162904657461624" lon="9.501637214546525"><ele>67.0</ele><time>2026-03-22T10:27:08.999Z</time></trkpt><trkpt lat="45.16283333163916" lon="9.50150154360758"><ele>67.0</ele><time>2026-03-22T10:27:22.999Z</time></trkpt><trkpt lat="45.16282996965031" lon="9.50136264259747"><ele>67.0</ele><time>2026-03-22T10:27:24.999Z</time></trkpt><trkpt lat="45.16282580899542" lon="9.501242575186101"><ele>67.0</ele><time>2026-03-22T10:27:58.998Z</time></trkpt><trkpt lat="45.16281980518179" lon="9.501069318495153"><ele>67.0</ele><time>2026-03-22T10:28:01.998Z</time></trkpt><trkpt lat="45.16281656514877" lon="9.500975818215716"><ele>67.0</ele><time>2026-03-22T10:28:05.998Z</time></trkpt><trkpt lat="45.162819198269084" lon="9.500844721019318"><ele>67.0</ele><time>2026-03-22T10:28:09Z</time></trkpt><trkpt lat="45.16281959667598" lon="9.500690583100301"><ele>67.0</ele><time>2026-03-22T10:28:10Z</time></trkpt><trkpt lat="45.16280468927828" lon="9.500525485693691"><ele>67.0</ele><time>2026-03-22T10:28:11Z</time></trkpt><trkpt lat="45.16279256372617" lon="9.500355870211575"><ele>67.0</ele><time>2026-03-22T10:28:12Z</time></trkpt><trkpt lat="45.162783412024446" lon="9.50020190766443"><ele>67.0</ele><time>2026-03-22T10:28:13Z</time></trkpt><trkpt lat="45.16277326849916" lon="9.500057403281973"><ele>67.0</ele><time>2026-03-22T10:28:14Z</time></trkpt><trkpt lat="45.162760531824624" lon="9.499921242735127"><ele>67.0</ele><time>2026-03-22T10:28:15Z</time></trkpt><trkpt lat="45.162745366513725" lon="9.499786668343678"><ele>67.0</ele><time>2026-03-22T10:28:15.999Z</time></trkpt><trkpt lat="45.162737064267965" lon="9.499672834678277"><ele>67.0</ele><time>2026-03-22T10:28:16.999Z</time></trkpt><trkpt lat="45.162744338486604" lon="9.499573955791375"><ele>67.0</ele><time>2026-03-22T10:28:17.999Z</time></trkpt><trkpt lat="45.1625748012712" lon="9.499506105859457"><ele>67.0</ele><time>2026-03-22T10:28:19.999Z</time></trkpt><trkpt lat="45.16246476374636" lon="9.499521726568625"><ele>66.66666666666666</ele><time>2026-03-22T10:28:20.999Z</time></trkpt><trkpt lat="45.162306231772554" lon="9.499540789417798"><ele>66.33333333333333</ele><time>2026-03-22T10:28:21.999Z</time></trkpt><trkpt lat="45.16213469718487" lon="9.499610074098277"><ele>66.0</ele><time>2026-03-22T10:28:22.999Z</time></trkpt><trkpt lat="45.16194877879198" lon="9.499652564250635"><ele>66.0</ele><time>2026-03-22T10:28:23.999Z</time></trkpt><trkpt lat="45.161769694287294" lon="9.499674071210137"><ele>66.0</ele><time>2026-03-22T10:28:24.999Z</time></trkpt><trkpt lat="45.161603139348436" lon="9.499697678701496"><ele>66.0</ele><time>2026-03-22T10:28:25.999Z</time></trkpt><trkpt lat="45.161452123056044" lon="9.49972483465839"><ele>66.33333333333333</ele><time>2026-03-22T10:28:26.999Z</time></trkpt><trkpt lat="45.16128825292776" lon="9.499749719206743"><ele>66.66666666666666</ele><time>2026-03-22T10:28:27.999Z</time></trkpt><trkpt lat="45.161117633786986" lon="9.499775697003104"><ele>67.0</ele><time>2026-03-22T10:28:28.999Z</time></trkpt><trkpt lat="45.16093882670069" lon="9.499804827052348"><ele>67.0</ele><time>2026-03-22T10:28:29.999Z</time></trkpt><trkpt lat="45.16075833274953" lon="9.499837738340737"><ele>67.0</ele><time>2026-03-22T10:28:30.999Z</time></trkpt><trkpt lat="45.16056960962905" lon="9.499867997576546"><ele>67.0</ele><time>2026-03-22T10:28:31.999Z</time></trkpt><trkpt lat="45.16037868211298" lon="9.499898867351764"><ele>66.66666666666666</ele><time>2026-03-22T10:28:32.999Z</time></trkpt><trkpt lat="45.16018385286734" lon="9.499931110599412"><ele>66.33333333333333</ele><time>2026-03-22T10:28:33.999Z</time></trkpt><trkpt lat="45.15998846105123" lon="9.499966269322192"><ele>66.0</ele><time>2026-03-22T10:28:34.999Z</time></trkpt><trkpt lat="45.159789978577784" lon="9.499996420228136"><ele>65.0</ele><time>2026-03-22T10:28:35.999Z</time></trkpt><trkpt lat="45.15959233371311" lon="9.500025905925401"><ele>64.0</ele><time>2026-03-22T10:28:36.999Z</time></trkpt><trkpt lat="45.15939370069518" lon="9.500055384472873"><ele>63.0</ele><time>2026-03-22T10:28:37.999Z</time></trkpt><trkpt lat="45.15919411793434" lon="9.50008556062307"><ele>63.33333333333333</ele><time>2026-03-22T10:28:38.999Z</time></trkpt><trkpt lat="45.15899306825991" lon="9.500116352196537"><ele>63.666666666666664</ele><time>2026-03-22T10:28:39.999Z</time></trkpt><trkpt lat="45.15878920619671" lon="9.500146900873201"><ele>64.0</ele><time>2026-03-22T10:28:40.999Z</time></trkpt><trkpt lat="45.158583117093826" lon="9.500181424606989"><ele>64.0</ele><time>2026-03-22T10:28:41.999Z</time></trkpt><trkpt lat="45.15838187660218" lon="9.500212410814502"><ele>64.0</ele><time>2026-03-22T10:28:42.999Z</time></trkpt><trkpt lat="45.15817782833126" lon="9.500240378231616"><ele>64.0</ele><time>2026-03-22T10:28:43.999Z</time></trkpt><trkpt lat="45.157979061633036" lon="9.500267784995096"><ele>62.5</ele><time>2026-03-22T10:28:44.999Z</time></trkpt><trkpt lat="45.15776180850034" lon="9.500305695296404"><ele>61.0</ele><time>2026-03-22T10:28:45.999Z</time></trkpt><trkpt lat="45.15751436563618" lon="9.500349498267882"><ele>61.0</ele><time>2026-03-22T10:28:46.999Z</time></trkpt><trkpt lat="45.15724865064374" lon="9.50039399615326"><ele>61.0</ele><time>2026-03-22T10:28:47.999Z</time></trkpt><trkpt lat="45.156997844962916" lon="9.500432592570608"><ele>61.0</ele><time>2026-03-22T10:28:48.999Z</time></trkpt><trkpt lat="45.156776238690824" lon="9.500465180631265"><ele>61.0</ele><time>2026-03-22T10:28:49.999Z</time></trkpt><trkpt lat="45.156559710094115" lon="9.500496797816739"><ele>61.0</ele><time>2026-03-22T10:28:50.999Z</time></trkpt><trkpt lat="45.156350763157654" lon="9.500527785357493"><ele>60.0</ele><time>2026-03-22T10:28:51.999Z</time></trkpt><trkpt lat="45.15614576175578" lon="9.500558929497402"><ele>59.0</ele><time>2026-03-22T10:28:52.999Z</time></trkpt><trkpt lat="45.155939713202955" lon="9.50059195190874"><ele>58.0</ele><time>2026-03-22T10:28:53.999Z</time></trkpt><trkpt lat="45.155734091120934" lon="9.500618729305526"><ele>56.0</ele><time>2026-03-22T10:28:54.999Z</time></trkpt><trkpt lat="45.155519753244356" lon="9.50064459152818"><ele>54.0</ele><time>2026-03-22T10:28:55.999Z</time></trkpt><trkpt lat="45.15530551139388" lon="9.500674501626714"><ele>52.0</ele><time>2026-03-22T10:28:56.998Z</time></trkpt><trkpt lat="45.155086873678705" lon="9.500706431185419"><ele>51.33333333333333</ele><time>2026-03-22T10:28:57.998Z</time></trkpt><trkpt lat="45.154868589968785" lon="9.500738778824605"><ele>50.66666666666667</ele><time>2026-03-22T10:28:58.998Z</time></trkpt><trkpt lat="45.15464712965062" lon="9.50077267793438"><ele>50.0</ele><time>2026-03-22T10:28:59.998Z</time></trkpt><trkpt lat="45.15442483313436" lon="9.500805144405264"><ele>50.0</ele><time>2026-03-22T10:29:00.998Z</time></trkpt><trkpt lat="45.15420743978237" lon="9.500838416145468"><ele>50.0</ele><time>2026-03-22T10:29:01.998Z</time></trkpt><trkpt lat="45.1539845923098" lon="9.5008710921156"><ele>50.0</ele><time>2026-03-22T10:29:02.998Z</time></trkpt><trkpt lat="45.15375654809277" lon="9.500903825001451"><ele>49.66666666666667</ele><time>2026-03-22T10:29:03.998Z</time></trkpt><trkpt lat="45.15353245029512" lon="9.500938216305666"><ele>49.33333333333333</ele><time>2026-03-22T10:29:04.998Z</time></trkpt><trkpt lat="45.153310775597596" lon="9.50097288044549"><ele>49.0</ele><time>2026-03-22T10:29:05.998Z</time></trkpt><trkpt lat="45.15309076492542" lon="9.501010791509483"><ele>48.666666666666664</ele><time>2026-03-22T10:29:06.998Z</time></trkpt><trkpt lat="45.152876316876494" lon="9.501049507885016"><ele>48.33333333333333</ele><time>2026-03-22T10:29:07.998Z</time></trkpt><trkpt lat="45.152658677982224" lon="9.501080795526605"><ele>48.0</ele><time>2026-03-22T10:29:08.998Z</time></trkpt><trkpt lat="45.15243558624892" lon="9.50110401294757"><ele>48.0</ele><time>2026-03-22T10:29:09.998Z</time></trkpt><trkpt lat="45.15221141313732" lon="9.501111175224313"><ele>48.0</ele><time>2026-03-22T10:29:10.998Z</time></trkpt><trkpt lat="45.151992628514456" lon="9.501102003510834"><ele>48.0</ele><time>2026-03-22T10:29:11.998Z</time></trkpt><trkpt lat="45.15176992604217" lon="9.501077488010157"><ele>48.0</ele><time>2026-03-22T10:29:12.998Z</time></trkpt><trkpt lat="45.15155168960315" lon="9.501042991920707"><ele>48.0</ele><time>2026-03-22T10:29:13.998Z</time></trkpt><trkpt lat="45.15133356175683" lon="9.500995303247068"><ele>48.0</ele><time>2026-03-22T10:29:14.998Z</time></trkpt><trkpt lat="45.15111779000433" lon="9.500933671868378"><ele>48.66666666666667</ele><time>2026-03-22T10:29:15.998Z</time></trkpt><trkpt lat="45.150900222537786" lon="9.500865431164152"><ele>49.333333333333336</ele><time>2026-03-22T10:29:16.998Z</time></trkpt><trkpt lat="45.15068766817057" lon="9.500785089037977"><ele>50.0</ele><time>2026-03-22T10:29:17.998Z</time></trkpt><trkpt lat="45.15047746114577" lon="9.500682891642096"><ele>50.0</ele><time>2026-03-22T10:29:18.998Z</time></trkpt><trkpt lat="45.15027334567228" lon="9.500575069061657"><ele>50.0</ele><time>2026-03-22T10:29:19.998Z</time></trkpt><trkpt lat="45.15006922752576" lon="9.500453839634863"><ele>50.0</ele><time>2026-03-22T10:29:20.998Z</time></trkpt><trkpt lat="45.14987340794501" lon="9.500317921739466"><ele>49.0</ele><time>2026-03-22T10:29:21.998Z</time></trkpt><trkpt lat="45.14967376746261" lon="9.500175342477483"><ele>48.0</ele><time>2026-03-22T10:29:22.998Z</time></trkpt><trkpt lat="45.14947025799325" lon="9.500019722895566"><ele>48.0</ele><time>2026-03-22T10:29:23.998Z</time></trkpt><trkpt lat="45.14927814984404" lon="9.499851502139078"><ele>48.0</ele><time>2026-03-22T10:29:24.998Z</time></trkpt><trkpt lat="45.149099227322544" lon="9.499678022086144"><ele>48.0</ele><time>2026-03-22T10:29:25.998Z</time></trkpt><trkpt lat="45.14893049556761" lon="9.4995009516506"><ele>48.0</ele><time>2026-03-22T10:29:26.998Z</time></trkpt><trkpt lat="45.14876064572202" lon="9.499309161909085"><ele>48.0</ele><time>2026-03-22T10:29:27.998Z</time></trkpt><trkpt lat="45.148603687717205" lon="9.499106743658952"><ele>48.0</ele><time>2026-03-22T10:29:28.998Z</time></trkpt><trkpt lat="45.14844771532267" lon="9.498882781920676"><ele>48.33333333333333</ele><time>2026-03-22T10:29:29.998Z</time></trkpt><trkpt lat="45.14830425574843" lon="9.49866476443536"><ele>48.666666666666664</ele><time>2026-03-22T10:29:30.998Z</time></trkpt><trkpt lat="45.14815596834226" lon="9.498435323549819"><ele>49.0</ele><time>2026-03-22T10:29:31.998Z</time></trkpt><trkpt lat="45.14800940632222" lon="9.49820105613493"><ele>49.0</ele><time>2026-03-22T10:29:32.998Z</time></trkpt><trkpt lat="45.14786386138597" lon="9.497965239350124"><ele>49.0</ele><time>2026-03-22T10:29:33.998Z</time></trkpt><trkpt lat="45.14771331517501" lon="9.497722694937275"><ele>49.0</ele><time>2026-03-22T10:29:34.998Z</time></trkpt><trkpt lat="45.14756175135484" lon="9.497480033609936"><ele>49.0</ele><time>2026-03-22T10:29:35.998Z</time></trkpt><trkpt lat="45.14741776357981" lon="9.497247575341591"><ele>49.0</ele><time>2026-03-22T10:29:36.998Z</time></trkpt><trkpt lat="45.147264576104014" lon="9.497003100406948"><ele>49.0</ele><time>2026-03-22T10:29:37.998Z</time></trkpt><trkpt lat="45.14711519502988" lon="9.496766257971421"><ele>49.33333333333333</ele><time>2026-03-22T10:29:38.998Z</time></trkpt><trkpt lat="45.1469671426104" lon="9.496530549634318"><ele>49.66666666666667</ele><time>2026-03-22T10:29:39.998Z</time></trkpt><trkpt lat="45.146818844714815" lon="9.496291385176676"><ele>50.0</ele><time>2026-03-22T10:29:40.998Z</time></trkpt><trkpt lat="45.146672903714126" lon="9.496057649063744"><ele>50.0</ele><time>2026-03-22T10:29:41.997Z</time></trkpt><trkpt lat="45.146529234755874" lon="9.495824494411881"><ele>50.0</ele><time>2026-03-22T10:29:42.997Z</time></trkpt><trkpt lat="45.14638376383947" lon="9.495592652030128"><ele>50.0</ele><time>2026-03-22T10:29:43.997Z</time></trkpt><trkpt lat="45.14623560820038" lon="9.4953556846836"><ele>50.333333333333336</ele><time>2026-03-22T10:29:44.997Z</time></trkpt><trkpt lat="45.14609321298653" lon="9.495121958304436"><ele>50.66666666666667</ele><time>2026-03-22T10:29:45.997Z</time></trkpt><trkpt lat="45.145940473564444" lon="9.494883960311798"><ele>51.0</ele><time>2026-03-22T10:29:46.997Z</time></trkpt><trkpt lat="45.14579580852197" lon="9.494652367873062"><ele>52.33333333333333</ele><time>2026-03-22T10:29:47.997Z</time></trkpt><trkpt lat="45.14564792588706" lon="9.494419427089923"><ele>53.666666666666664</ele><time>2026-03-22T10:29:48.997Z</time></trkpt><trkpt lat="45.145496603086286" lon="9.494183247893055"><ele>55.0</ele><time>2026-03-22T10:29:49.997Z</time></trkpt><trkpt lat="45.14535241940578" lon="9.493948391347288"><ele>53.666666666666664</ele><time>2026-03-22T10:29:50.997Z</time></trkpt><trkpt lat="45.145208451322326" lon="9.493715142442326"><ele>52.33333333333333</ele><time>2026-03-22T10:29:51.997Z</time></trkpt><trkpt lat="45.14506445324546" lon="9.493481225794055"><ele>51.0</ele><time>2026-03-22T10:29:52.997Z</time></trkpt><trkpt lat="45.14492312731274" lon="9.493259141980294"><ele>50.66666666666667</ele><time>2026-03-22T10:29:53.997Z</time></trkpt><trkpt lat="45.14478287932477" lon="9.493047949347124"><ele>50.333333333333336</ele><time>2026-03-22T10:29:54.997Z</time></trkpt><trkpt lat="45.14464362292745" lon="9.492817219498594"><ele>50.0</ele><time>2026-03-22T10:29:55.997Z</time></trkpt><trkpt lat="45.14450027836475" lon="9.492578098626499"><ele>50.0</ele><time>2026-03-22T10:29:56.997Z</time></trkpt><trkpt lat="45.1443548988209" lon="9.492338666379002"><ele>50.0</ele><time>2026-03-22T10:29:57.997Z</time></trkpt><trkpt lat="45.1442043786191" lon="9.492098023949264"><ele>50.5</ele><time>2026-03-22T10:29:58.997Z</time></trkpt><trkpt lat="45.144050674755896" lon="9.491852628037744"><ele>51.0</ele><time>2026-03-22T10:29:59.997Z</time></trkpt><trkpt lat="45.14389883375073" lon="9.49160828284786"><ele>51.0</ele><time>2026-03-22T10:30:00.997Z</time></trkpt><trkpt lat="45.143745469901795" lon="9.491358050435359"><ele>51.0</ele><time>2026-03-22T10:30:01.997Z</time></trkpt><trkpt lat="45.14359220048275" lon="9.491106257120933"><ele>52.5</ele><time>2026-03-22T10:30:02.997Z</time></trkpt><trkpt lat="45.143433628737704" lon="9.490846651427315"><ele>54.0</ele><time>2026-03-22T10:30:03.997Z</time></trkpt><trkpt lat="45.143280397306235" lon="9.490604679304436"><ele>52.0</ele><time>2026-03-22T10:30:04.997Z</time></trkpt><trkpt lat="45.14313369128622" lon="9.490370650512709"><ele>50.0</ele><time>2026-03-22T10:30:05.997Z</time></trkpt><trkpt lat="45.14298310411854" lon="9.490128184403579"><ele>48.0</ele><time>2026-03-22T10:30:06.997Z</time></trkpt><trkpt lat="45.14284048953602" lon="9.48989367745003"><ele>48.0</ele><time>2026-03-22T10:30:07.997Z</time></trkpt><trkpt lat="45.142701324968534" lon="9.48967247329322"><ele>48.0</ele><time>2026-03-22T10:30:08.997Z</time></trkpt><trkpt lat="45.14257152423166" lon="9.489466426793369"><ele>48.0</ele><time>2026-03-22T10:30:09.997Z</time></trkpt><trkpt lat="45.142453471221884" lon="9.489277024316529"><ele>48.0</ele><time>2026-03-22T10:30:10.997Z</time></trkpt><trkpt lat="45.14231967951617" lon="9.48906233978558"><ele>48.0</ele><time>2026-03-22T10:30:11.997Z</time></trkpt><trkpt lat="45.14218830669898" lon="9.48885609951427"><ele>48.0</ele><time>2026-03-22T10:30:12.999Z</time></trkpt><trkpt lat="45.142053161515314" lon="9.488648478655383"><ele>49.0</ele><time>2026-03-22T10:30:13.999Z</time></trkpt><trkpt lat="45.141898294527174" lon="9.488426924635771"><ele>50.0</ele><time>2026-03-22T10:30:14.999Z</time></trkpt><trkpt lat="45.14171881185522" lon="9.488162296171772"><ele>50.0</ele><time>2026-03-22T10:30:15.999Z</time></trkpt><trkpt lat="45.14153580497838" lon="9.487875174388076"><ele>50.0</ele><time>2026-03-22T10:30:17Z</time></trkpt><trkpt lat="45.141357662814826" lon="9.487567645031284"><ele>50.0</ele><time>2026-03-22T10:30:17.999Z</time></trkpt><trkpt lat="45.14118393301369" lon="9.487258745013623"><ele>50.0</ele><time>2026-03-22T10:30:19Z</time></trkpt><trkpt lat="45.14101833989225" lon="9.486971635990592"><ele>50.0</ele><time>2026-03-22T10:30:20Z</time></trkpt><trkpt lat="45.140853687511" lon="9.486700526856906"><ele>50.0</ele><time>2026-03-22T10:30:21Z</time></trkpt><trkpt lat="45.14069061495529" lon="9.486438748643558"><ele>49.0</ele><time>2026-03-22T10:30:22Z</time></trkpt><trkpt lat="45.140531991024474" lon="9.48618448292905"><ele>48.0</ele><time>2026-03-22T10:30:23Z</time></trkpt><trkpt lat="45.14037011931691" lon="9.485925800430943"><ele>48.0</ele><time>2026-03-22T10:30:24Z</time></trkpt><trkpt lat="45.14020753886492" lon="9.485666280020604"><ele>48.0</ele><time>2026-03-22T10:30:25Z</time></trkpt><trkpt lat="45.14004716526008" lon="9.485407819545335"><ele>48.5</ele><time>2026-03-22T10:30:26Z</time></trkpt><trkpt lat="45.13988395641639" lon="9.48514171927393"><ele>49.0</ele><time>2026-03-22T10:30:27Z</time></trkpt><trkpt lat="45.13972682796872" lon="9.48488883773148"><ele>49.0</ele><time>2026-03-22T10:30:28Z</time></trkpt><trkpt lat="45.13956614488281" lon="9.484635128956285"><ele>49.0</ele><time>2026-03-22T10:30:29Z</time></trkpt><trkpt lat="45.13940584170611" lon="9.484378633282882"><ele>49.5</ele><time>2026-03-22T10:30:30Z</time></trkpt><trkpt lat="45.13925274106459" lon="9.484127972896136"><ele>50.0</ele><time>2026-03-22T10:30:31Z</time></trkpt><trkpt lat="45.13908476721517" lon="9.483861163181826"><ele>50.0</ele><time>2026-03-22T10:30:32Z</time></trkpt><trkpt lat="45.13893510299544" lon="9.483616084220836"><ele>50.0</ele><time>2026-03-22T10:30:32.999Z</time></trkpt><trkpt lat="45.13876918977395" lon="9.483356304584559"><ele>50.0</ele><time>2026-03-22T10:30:33.999Z</time></trkpt><trkpt lat="45.1386055941916" lon="9.483095903423068"><ele>50.0</ele><time>2026-03-22T10:30:34.999Z</time></trkpt><trkpt lat="45.138451204850206" lon="9.482841081797561"><ele>50.0</ele><time>2026-03-22T10:30:35.999Z</time></trkpt><trkpt lat="45.138289768794344" lon="9.482582934873783"><ele>50.0</ele><time>2026-03-22T10:30:36.999Z</time></trkpt><trkpt lat="45.1381272688817" lon="9.482322568830996"><ele>50.0</ele><time>2026-03-22T10:30:37.999Z</time></trkpt><trkpt lat="45.137968556894165" lon="9.482070390863644"><ele>50.0</ele><time>2026-03-22T10:30:38.999Z</time></trkpt><trkpt lat="45.137818916882296" lon="9.481824585472495"><ele>50.0</ele><time>2026-03-22T10:30:39.999Z</time></trkpt><trkpt lat="45.13766123769313" lon="9.481574325396597"><ele>50.0</ele><time>2026-03-22T10:30:40.999Z</time></trkpt><trkpt lat="45.13750358046233" lon="9.481324842556445"><ele>49.66666666666667</ele><time>2026-03-22T10:30:41.999Z</time></trkpt><trkpt lat="45.137348257557655" lon="9.48107996906537"><ele>49.33333333333333</ele><time>2026-03-22T10:30:42.999Z</time></trkpt><trkpt lat="45.13720960804802" lon="9.480858159044706"><ele>49.0</ele><time>2026-03-22T10:30:43.999Z</time></trkpt><trkpt lat="45.137085948325435" lon="9.480657968570608"><ele>49.0</ele><time>2026-03-22T10:30:44.999Z</time></trkpt><trkpt lat="45.13697143237573" lon="9.480473759822633"><ele>49.0</ele><time>2026-03-22T10:30:45.999Z</time></trkpt><trkpt lat="45.136857610588926" lon="9.480286061094592"><ele>49.0</ele><time>2026-03-22T10:30:46.999Z</time></trkpt><trkpt lat="45.13671982718556" lon="9.480097813735602"><ele>49.0</ele><time>2026-03-22T10:30:47.999Z</time></trkpt><trkpt lat="45.13661514936657" lon="9.479850665764536"><ele>49.0</ele><time>2026-03-22T10:30:48.999Z</time></trkpt><trkpt lat="45.13649884578122" lon="9.479607050904065"><ele>49.0</ele><time>2026-03-22T10:30:49.999Z</time></trkpt><trkpt lat="45.136384732599936" lon="9.479356989636264"><ele>49.0</ele><time>2026-03-22T10:30:50.999Z</time></trkpt><trkpt lat="45.13624804724143" lon="9.479126279607382"><ele>49.0</ele><time>2026-03-22T10:30:51.999Z</time></trkpt><trkpt lat="45.13605678656679" lon="9.478910396501846"><ele>49.5</ele><time>2026-03-22T10:30:52.999Z</time></trkpt><trkpt lat="45.13581503951153" lon="9.478686955728744"><ele>50.0</ele><time>2026-03-22T10:30:53.999Z</time></trkpt><trkpt lat="45.1355647451978" lon="9.478475899089364"><ele>50.0</ele><time>2026-03-22T10:30:54.999Z</time></trkpt><trkpt lat="45.13534362535603" lon="9.47826452460352"><ele>50.0</ele><time>2026-03-22T10:30:55.999Z</time></trkpt><trkpt lat="45.13515861576698" lon="9.478042375366723"><ele>50.333333333333336</ele><time>2026-03-22T10:30:56.999Z</time></trkpt><trkpt lat="45.134992684911225" lon="9.477826909857717"><ele>50.66666666666667</ele><time>2026-03-22T10:30:57.999Z</time></trkpt><trkpt lat="45.134826463818165" lon="9.477618288866006"><ele>51.0</ele><time>2026-03-22T10:30:58.999Z</time></trkpt><trkpt lat="45.134656434733415" lon="9.477408253824688"><ele>50.5</ele><time>2026-03-22T10:30:59.999Z</time></trkpt><trkpt lat="45.13448716100286" lon="9.47719836939301"><ele>50.0</ele><time>2026-03-22T10:31:00.999Z</time></trkpt><trkpt lat="45.13431196059474" lon="9.476976581125305"><ele>50.0</ele><time>2026-03-22T10:31:01.999Z</time></trkpt><trkpt lat="45.134140137655976" lon="9.476749586310005"><ele>50.0</ele><time>2026-03-22T10:31:02.999Z</time></trkpt><trkpt lat="45.133978226015316" lon="9.476509005401406"><ele>49.0</ele><time>2026-03-22T10:31:03.999Z</time></trkpt><trkpt lat="45.13382112533222" lon="9.476246460748136"><ele>48.0</ele><time>2026-03-22T10:31:04.999Z</time></trkpt><trkpt lat="45.133673650484056" lon="9.475968241989724"><ele>48.0</ele><time>2026-03-22T10:31:05.999Z</time></trkpt><trkpt lat="45.13352850054712" lon="9.475684553179013"><ele>48.0</ele><time>2026-03-22T10:31:06.999Z</time></trkpt><trkpt lat="45.133382367286146" lon="9.475407083532305"><ele>47.5</ele><time>2026-03-22T10:31:07.999Z</time></trkpt><trkpt lat="45.133232811525055" lon="9.475132536403876"><ele>47.0</ele><time>2026-03-22T10:31:08.999Z</time></trkpt><trkpt lat="45.133080979199626" lon="9.474858614117505"><ele>48.0</ele><time>2026-03-22T10:31:09.999Z</time></trkpt><trkpt lat="45.13292717243024" lon="9.474582764509556"><ele>49.0</ele><time>2026-03-22T10:31:10.999Z</time></trkpt><trkpt lat="45.132772321442964" lon="9.474310896440631"><ele>49.0</ele><time>2026-03-22T10:31:11.999Z</time></trkpt><trkpt lat="45.13261486705784" lon="9.47405221507696"><ele>49.0</ele><time>2026-03-22T10:31:12.999Z</time></trkpt><trkpt lat="45.1324501057414" lon="9.473794091976023"><ele>48.0</ele><time>2026-03-22T10:31:13.999Z</time></trkpt><trkpt lat="45.13227952500722" lon="9.4735438699077"><ele>47.0</ele><time>2026-03-22T10:31:14.999Z</time></trkpt><trkpt lat="45.13210935826512" lon="9.473296390541618"><ele>47.0</ele><time>2026-03-22T10:31:15.999Z</time></trkpt><trkpt lat="45.13193923075216" lon="9.47304946585337"><ele>47.0</ele><time>2026-03-22T10:31:16.999Z</time></trkpt><trkpt lat="45.1317700581168" lon="9.472801376746098"><ele>47.5</ele><time>2026-03-22T10:31:17.999Z</time></trkpt><trkpt lat="45.13160281540675" lon="9.472555895904181"><ele>48.0</ele><time>2026-03-22T10:31:18.999Z</time></trkpt><trkpt lat="45.13143141712912" lon="9.472306331763857"><ele>48.0</ele><time>2026-03-22T10:31:19.999Z</time></trkpt><trkpt lat="45.13125890023301" lon="9.472059530242158"><ele>48.0</ele><time>2026-03-22T10:31:20.999Z</time></trkpt><trkpt lat="45.13108873105101" lon="9.471814481653826"><ele>48.0</ele><time>2026-03-22T10:31:21.998Z</time></trkpt><trkpt lat="45.13092088909878" lon="9.471566775334349"><ele>48.0</ele><time>2026-03-22T10:31:22.998Z</time></trkpt><trkpt lat="45.13075643628525" lon="9.471318320835001"><ele>48.5</ele><time>2026-03-22T10:31:23.998Z</time></trkpt><trkpt lat="45.13058796504603" lon="9.471070280509814"><ele>49.0</ele><time>2026-03-22T10:31:24.998Z</time></trkpt><trkpt lat="45.13041933469173" lon="9.470821903369764"><ele>49.0</ele><time>2026-03-22T10:31:25.998Z</time></trkpt><trkpt lat="45.13025105173803" lon="9.470570108533273"><ele>49.0</ele><time>2026-03-22T10:31:26.998Z</time></trkpt><trkpt lat="45.130083692782115" lon="9.470318737013896"><ele>49.0</ele><time>2026-03-22T10:31:27.998Z</time></trkpt><trkpt lat="45.129912775716555" lon="9.47006306442435"><ele>49.0</ele><time>2026-03-22T10:31:28.998Z</time></trkpt><trkpt lat="45.12974698157092" lon="9.469817184405725"><ele>49.5</ele><time>2026-03-22T10:31:29.998Z</time></trkpt><trkpt lat="45.129576727458264" lon="9.469566451132067"><ele>50.0</ele><time>2026-03-22T10:31:30.998Z</time></trkpt><trkpt lat="45.12940760519827" lon="9.469322977407066"><ele>50.0</ele><time>2026-03-22T10:31:31.998Z</time></trkpt><trkpt lat="45.1292326323686" lon="9.469084740972951"><ele>50.0</ele><time>2026-03-22T10:31:32.998Z</time></trkpt><trkpt lat="45.129044612098085" lon="9.468859944928878"><ele>49.0</ele><time>2026-03-22T10:31:33.998Z</time></trkpt><trkpt lat="45.1288456305777" lon="9.468655392545305"><ele>48.0</ele><time>2026-03-22T10:31:34.998Z</time></trkpt><trkpt lat="45.12863973092356" lon="9.468465943832289"><ele>48.0</ele><time>2026-03-22T10:31:35.998Z</time></trkpt><trkpt lat="45.128427537512046" lon="9.468295836953006"><ele>48.0</ele><time>2026-03-22T10:31:36.998Z</time></trkpt><trkpt lat="45.128203663285724" lon="9.46813872096036"><ele>48.5</ele><time>2026-03-22T10:31:37.998Z</time></trkpt><trkpt lat="45.12798168171057" lon="9.467991601550219"><ele>49.0</ele><time>2026-03-22T10:31:38.998Z</time></trkpt><trkpt lat="45.127761511576544" lon="9.467841216602302"><ele>48.0</ele><time>2026-03-22T10:31:39.998Z</time></trkpt><trkpt lat="45.12753920619124" lon="9.467690098471833"><ele>47.0</ele><time>2026-03-22T10:31:40.998Z</time></trkpt><trkpt lat="45.12732020578852" lon="9.467540607910996"><ele>47.0</ele><time>2026-03-22T10:31:41.998Z</time></trkpt><trkpt lat="45.127100882638985" lon="9.467392342076867"><ele>47.0</ele><time>2026-03-22T10:31:42.998Z</time></trkpt><trkpt lat="45.126878662963335" lon="9.467242333272624"><ele>47.0</ele><time>2026-03-22T10:31:43.998Z</time></trkpt><trkpt lat="45.126660070185274" lon="9.46709594157567"><ele>47.0</ele><time>2026-03-22T10:31:44.998Z</time></trkpt><trkpt lat="45.12644107607192" lon="9.466944715517313"><ele>47.5</ele><time>2026-03-22T10:31:45.998Z</time></trkpt><trkpt lat="45.12622102389539" lon="9.46679079803465"><ele>48.0</ele><time>2026-03-22T10:31:46.998Z</time></trkpt><trkpt lat="45.12600126249237" lon="9.466637942645947"><ele>48.0</ele><time>2026-03-22T10:31:47.998Z</time></trkpt><trkpt lat="45.12578256015317" lon="9.466487656907805"><ele>48.0</ele><time>2026-03-22T10:31:48.998Z</time></trkpt><trkpt lat="45.12556142270292" lon="9.46633862260172"><ele>48.5</ele><time>2026-03-22T10:31:49.998Z</time></trkpt><trkpt lat="45.125338080131336" lon="9.466190368132002"><ele>49.0</ele><time>2026-03-22T10:31:50.998Z</time></trkpt><trkpt lat="45.12511682642458" lon="9.466042437744143"><ele>48.5</ele><time>2026-03-22T10:31:51.998Z</time></trkpt><trkpt lat="45.12489218157327" lon="9.46589088635283"><ele>48.0</ele><time>2026-03-22T10:31:52.998Z</time></trkpt><trkpt lat="45.124668916014826" lon="9.465746898594618"><ele>48.0</ele><time>2026-03-22T10:31:53.998Z</time></trkpt><trkpt lat="45.12444119512704" lon="9.465618431733231"><ele>48.0</ele><time>2026-03-22T10:31:54.998Z</time></trkpt><trkpt lat="45.12420677946721" lon="9.465503910215961"><ele>47.5</ele><time>2026-03-22T10:31:55.998Z</time></trkpt><trkpt lat="45.12396493324365" lon="9.465400968653006"><ele>47.0</ele><time>2026-03-22T10:31:56.998Z</time></trkpt><trkpt lat="45.12372749318854" lon="9.465312250075458"><ele>47.0</ele><time>2026-03-22T10:31:57.998Z</time></trkpt><trkpt lat="45.12349176933059" lon="9.465233970800888"><ele>47.0</ele><time>2026-03-22T10:31:58.998Z</time></trkpt><trkpt lat="45.12324730065636" lon="9.465168881978647"><ele>48.5</ele><time>2026-03-22T10:31:59.998Z</time></trkpt><trkpt lat="45.12300313414515" lon="9.46511301266786"><ele>50.0</ele><time>2026-03-22T10:32:00.998Z</time></trkpt><trkpt lat="45.12276079115585" lon="9.465059001480737"><ele>50.0</ele><time>2026-03-22T10:32:01.998Z</time></trkpt><trkpt lat="45.12251973177571" lon="9.465004514885587"><ele>50.0</ele><time>2026-03-22T10:32:02.998Z</time></trkpt><trkpt lat="45.12227614934474" lon="9.464954047667906"><ele>50.0</ele><time>2026-03-22T10:32:03.998Z</time></trkpt><trkpt lat="45.122033941879785" lon="9.464903719783527"><ele>50.0</ele><time>2026-03-22T10:32:04.998Z</time></trkpt><trkpt lat="45.12179414111348" lon="9.464854327596205"><ele>50.0</ele><time>2026-03-22T10:32:05.998Z</time></trkpt><trkpt lat="45.12155707886178" lon="9.464800419795438"><ele>50.0</ele><time>2026-03-22T10:32:06.997Z</time></trkpt><trkpt lat="45.12131615769411" lon="9.464745503587201"><ele>50.0</ele><time>2026-03-22T10:32:07.997Z</time></trkpt><trkpt lat="45.1210782778913" lon="9.464689316971926"><ele>50.0</ele><time>2026-03-22T10:32:08.997Z</time></trkpt><trkpt lat="45.12083343943892" lon="9.464638349297411"><ele>48.5</ele><time>2026-03-22T10:32:09.997Z</time></trkpt><trkpt lat="45.1205884013709" lon="9.464588797435866"><ele>47.0</ele><time>2026-03-22T10:32:10.997Z</time></trkpt><trkpt lat="45.120347780521655" lon="9.464537427849612"><ele>47.0</ele><time>2026-03-22T10:32:11.997Z</time></trkpt><trkpt lat="45.12010744628406" lon="9.46448420397629"><ele>47.0</ele><time>2026-03-22T10:32:12.997Z</time></trkpt><trkpt lat="45.11986375609494" lon="9.464428090012126"><ele>46.5</ele><time>2026-03-22T10:32:13.997Z</time></trkpt><trkpt lat="45.11962533591759" lon="9.464367140563741"><ele>46.0</ele><time>2026-03-22T10:32:14.997Z</time></trkpt><trkpt lat="45.119405511868536" lon="9.464309639523664"><ele>46.0</ele><time>2026-03-22T10:32:15.997Z</time></trkpt><trkpt lat="45.119210203778394" lon="9.464228715036127"><ele>46.0</ele><time>2026-03-22T10:32:16.997Z</time></trkpt><trkpt lat="45.119033394885065" lon="9.464097703298584"><ele>46.0</ele><time>2026-03-22T10:32:18Z</time></trkpt><trkpt lat="45.1188698546402" lon="9.463936962448907"><ele>46.66666666666667</ele><time>2026-03-22T10:32:19Z</time></trkpt><trkpt lat="45.11871696154206" lon="9.463766137923812"><ele>47.333333333333336</ele><time>2026-03-22T10:32:20Z</time></trkpt><trkpt lat="45.118572496326124" lon="9.46358669260583"><ele>48.0</ele><time>2026-03-22T10:32:21Z</time></trkpt><trkpt lat="45.11843519960306" lon="9.463394068337822"><ele>48.0</ele><time>2026-03-22T10:32:22Z</time></trkpt><trkpt lat="45.118310130038736" lon="9.463185404455153"><ele>48.0</ele><time>2026-03-22T10:32:23Z</time></trkpt><trkpt lat="45.11820088527783" lon="9.462959246621356"><ele>48.0</ele><time>2026-03-22T10:32:24Z</time></trkpt><trkpt lat="45.11809727440245" lon="9.462720112629396"><ele>48.0</ele><time>2026-03-22T10:32:25Z</time></trkpt><trkpt lat="45.117990676028306" lon="9.46248826197803"><ele>48.0</ele><time>2026-03-22T10:32:26Z</time></trkpt><trkpt lat="45.11787540740701" lon="9.46225841497433"><ele>48.0</ele><time>2026-03-22T10:32:27Z</time></trkpt><trkpt lat="45.11775777458289" lon="9.46202273150785"><ele>48.0</ele><time>2026-03-22T10:32:28Z</time></trkpt><trkpt lat="45.11763955734064" lon="9.461787042699228"><ele>48.0</ele><time>2026-03-22T10:32:29Z</time></trkpt><trkpt lat="45.11751804547127" lon="9.461553276020197"><ele>48.0</ele><time>2026-03-22T10:32:30Z</time></trkpt><trkpt lat="45.11738845529388" lon="9.461324660075197"><ele>48.33333333333333</ele><time>2026-03-22T10:32:31Z</time></trkpt><trkpt lat="45.11724834053423" lon="9.46109435572235"><ele>48.666666666666664</ele><time>2026-03-22T10:32:32Z</time></trkpt><trkpt lat="45.117098265231405" lon="9.46086211631176"><ele>49.0</ele><time>2026-03-22T10:32:33Z</time></trkpt><trkpt lat="45.11692996734797" lon="9.460607855241218"><ele>49.5</ele><time>2026-03-22T10:32:34Z</time></trkpt><trkpt lat="45.11675743691634" lon="9.460350543691192"><ele>50.0</ele><time>2026-03-22T10:32:35Z</time></trkpt><trkpt lat="45.116589378354284" lon="9.460102974032159"><ele>50.0</ele><time>2026-03-22T10:32:36Z</time></trkpt><trkpt lat="45.11642401983273" lon="9.459858576569076"><ele>50.0</ele><time>2026-03-22T10:32:37Z</time></trkpt><trkpt lat="45.1162569668915" lon="9.459605341721065"><ele>50.0</ele><time>2026-03-22T10:32:38Z</time></trkpt><trkpt lat="45.11609140574644" lon="9.45935216582771"><ele>50.0</ele><time>2026-03-22T10:32:39Z</time></trkpt><trkpt lat="45.11592211856608" lon="9.459094736998784"><ele>50.0</ele><time>2026-03-22T10:32:40Z</time></trkpt><trkpt lat="45.11575665990586" lon="9.458846368057301"><ele>50.0</ele><time>2026-03-22T10:32:41Z</time></trkpt><trkpt lat="45.115588730619955" lon="9.458595226894218"><ele>49.5</ele><time>2026-03-22T10:32:42Z</time></trkpt><trkpt lat="45.11542275332042" lon="9.458344704117112"><ele>49.0</ele><time>2026-03-22T10:32:43Z</time></trkpt><trkpt lat="45.1152601708462" lon="9.458094921196695"><ele>49.0</ele><time>2026-03-22T10:32:44Z</time></trkpt><trkpt lat="45.115094799829734" lon="9.457841808193773"><ele>49.0</ele><time>2026-03-22T10:32:45Z</time></trkpt><trkpt lat="45.1149322327254" lon="9.457596967481768"><ele>49.0</ele><time>2026-03-22T10:32:46Z</time></trkpt><trkpt lat="45.114759856074514" lon="9.457344569301705"><ele>49.0</ele><time>2026-03-22T10:32:47Z</time></trkpt><trkpt lat="45.11459355121135" lon="9.457091805313071"><ele>49.0</ele><time>2026-03-22T10:32:48Z</time></trkpt><trkpt lat="45.114428397197" lon="9.45683125299669"><ele>49.0</ele><time>2026-03-22T10:32:49Z</time></trkpt><trkpt lat="45.114268420272445" lon="9.456569743881957"><ele>49.0</ele><time>2026-03-22T10:32:50Z</time></trkpt><trkpt lat="45.11410931553791" lon="9.456304120863045"><ele>49.0</ele><time>2026-03-22T10:32:51Z</time></trkpt><trkpt lat="45.11396408901647" lon="9.456059066366704"><ele>49.33333333333333</ele><time>2026-03-22T10:32:52Z</time></trkpt><trkpt lat="45.113830943317794" lon="9.455827927015203"><ele>49.66666666666667</ele><time>2026-03-22T10:32:53Z</time></trkpt><trkpt lat="45.11370628128629" lon="9.455615159458349"><ele>50.0</ele><time>2026-03-22T10:32:54Z</time></trkpt><trkpt lat="45.11358491742188" lon="9.455419740327676"><ele>50.0</ele><time>2026-03-22T10:32:55Z</time></trkpt><trkpt lat="45.113463632841764" lon="9.4552292191476"><ele>50.0</ele><time>2026-03-22T10:32:56Z</time></trkpt><trkpt lat="45.11333342844378" lon="9.45503472345408"><ele>50.0</ele><time>2026-03-22T10:32:57Z</time></trkpt><trkpt lat="45.11317380926475" lon="9.454819447013833"><ele>49.5</ele><time>2026-03-22T10:32:58Z</time></trkpt><trkpt lat="45.11299512079664" lon="9.454604909217329"><ele>49.0</ele><time>2026-03-22T10:32:59Z</time></trkpt><trkpt lat="45.11281862456087" lon="9.454406564138186"><ele>49.0</ele><time>2026-03-22T10:33:00Z</time></trkpt><trkpt lat="45.11266378648395" lon="9.454225976028532"><ele>49.0</ele><time>2026-03-22T10:33:00.999Z</time></trkpt><trkpt lat="45.11251944285273" lon="9.454054206042684"><ele>49.0</ele><time>2026-03-22T10:33:01.999Z</time></trkpt><trkpt lat="45.11238159258835" lon="9.453887728325824"><ele>49.0</ele><time>2026-03-22T10:33:02.999Z</time></trkpt><trkpt lat="45.112247410672985" lon="9.453726055549758"><ele>49.0</ele><time>2026-03-22T10:33:03.999Z</time></trkpt><trkpt lat="45.11210888811558" lon="9.453557012118965"><ele>49.0</ele><time>2026-03-22T10:33:04.999Z</time></trkpt><trkpt lat="45.111978191944694" lon="9.453386775472588"><ele>49.0</ele><time>2026-03-22T10:33:05.999Z</time></trkpt><trkpt lat="45.111850707199004" lon="9.45321093564524"><ele>49.0</ele><time>2026-03-22T10:33:06.999Z</time></trkpt><trkpt lat="45.111735683273544" lon="9.45302753821803"><ele>49.0</ele><time>2026-03-22T10:33:07.999Z</time></trkpt><trkpt lat="45.111625766361875" lon="9.452836686648034"><ele>49.0</ele><time>2026-03-22T10:33:08.999Z</time></trkpt><trkpt lat="45.111523427692916" lon="9.45263845176912"><ele>49.0</ele><time>2026-03-22T10:33:09.999Z</time></trkpt><trkpt lat="45.11142998249268" lon="9.452443116771896"><ele>49.0</ele><time>2026-03-22T10:33:10.999Z</time></trkpt><trkpt lat="45.11133500385318" lon="9.452237178810144"><ele>49.33333333333333</ele><time>2026-03-22T10:33:11.999Z</time></trkpt><trkpt lat="45.111248835107496" lon="9.452039400411769"><ele>49.66666666666667</ele><time>2026-03-22T10:33:12.999Z</time></trkpt><trkpt lat="45.11116276927234" lon="9.451834742059166"><ele>50.0</ele><time>2026-03-22T10:33:13.999Z</time></trkpt><trkpt lat="45.111091112217984" lon="9.451643025587094"><ele>50.0</ele><time>2026-03-22T10:33:14.999Z</time></trkpt><trkpt lat="45.11103460870759" lon="9.451461295711296"><ele>50.0</ele><time>2026-03-22T10:33:15.999Z</time></trkpt><trkpt lat="45.11100118589156" lon="9.451291557627433"><ele>50.0</ele><time>2026-03-22T10:33:16.999Z</time></trkpt><trkpt lat="45.1109796615169" lon="9.451137970502668"><ele>50.0</ele><time>2026-03-22T10:33:17.999Z</time></trkpt><trkpt lat="45.11095274280233" lon="9.450995889213761"><ele>50.16666666666667</ele><time>2026-03-22T10:33:18.999Z</time></trkpt><trkpt lat="45.11092084750288" lon="9.450877747982622"><ele>50.333333333333336</ele><time>2026-03-22T10:33:19.999Z</time></trkpt><trkpt lat="45.11089433451792" lon="9.450769630419467"><ele>50.5</ele><time>2026-03-22T10:33:20.999Z</time></trkpt><trkpt lat="45.11088714558345" lon="9.450674363979331"><ele>50.66666666666667</ele><time>2026-03-22T10:33:21.999Z</time></trkpt><trkpt lat="45.1108959479994" lon="9.450568192613682"><ele>50.833333333333336</ele><time>2026-03-22T10:33:22.999Z</time></trkpt><trkpt lat="45.11090901236231" lon="9.45046201107335"><ele>51.0</ele><time>2026-03-22T10:33:23.999Z</time></trkpt><trkpt lat="45.11091068860437" lon="9.450338456555853"><ele>51.166666666666664</ele><time>2026-03-22T10:33:24.999Z</time></trkpt><trkpt lat="45.110884504376074" lon="9.450217992702477"><ele>51.33333333333333</ele><time>2026-03-22T10:33:25.999Z</time></trkpt><trkpt lat="45.110833871609415" lon="9.45012374738469"><ele>51.5</ele><time>2026-03-22T10:33:26.999Z</time></trkpt><trkpt lat="45.11077235838421" lon="9.45005983437351"><ele>51.666666666666664</ele><time>2026-03-22T10:33:27.999Z</time></trkpt><trkpt lat="45.11070152861457" lon="9.45002238824764"><ele>51.83333333333333</ele><time>2026-03-22T10:33:28.999Z</time></trkpt><trkpt lat="45.11062466826131" lon="9.450011667813751"><ele>52.0</ele><time>2026-03-22T10:33:29.999Z</time></trkpt><trkpt lat="45.11054400236871" lon="9.450044067862441"><ele>51.8</ele><time>2026-03-22T10:33:30.999Z</time></trkpt><trkpt lat="45.11047371761468" lon="9.450104791370396"><ele>51.6</ele><time>2026-03-22T10:33:31.999Z</time></trkpt><trkpt lat="45.11041292856082" lon="9.45020360575648"><ele>51.4</ele><time>2026-03-22T10:33:32.999Z</time></trkpt><trkpt lat="45.11038003538813" lon="9.450315462291815"><ele>51.199999999999996</ele><time>2026-03-22T10:33:33.999Z</time></trkpt><trkpt lat="45.11034507467178" lon="9.450420218070994"><ele>51.0</ele><time>2026-03-22T10:33:34.999Z</time></trkpt><trkpt lat="45.110259145648975" lon="9.450536909075847"><ele>51.0</ele><time>2026-03-22T10:33:36.999Z</time></trkpt><trkpt lat="45.11019139732846" lon="9.450586616393162"><ele>51.0</ele><time>2026-03-22T10:33:37.999Z</time></trkpt><trkpt lat="45.11010815845047" lon="9.45061621151706"><ele>51.0</ele><time>2026-03-22T10:33:38.999Z</time></trkpt><trkpt lat="45.110012712845574" lon="9.450620478868224"><ele>51.0</ele><time>2026-03-22T10:33:39.999Z</time></trkpt><trkpt lat="45.10990944909688" lon="9.45060729815534"><ele>51.0</ele><time>2026-03-22T10:33:40.999Z</time></trkpt><trkpt lat="45.10980000148258" lon="9.450580388794311"><ele>50.75</ele><time>2026-03-22T10:33:41.999Z</time></trkpt><trkpt lat="45.10967942275756" lon="9.450555302742712"><ele>50.5</ele><time>2026-03-22T10:33:42.999Z</time></trkpt><trkpt lat="45.10954041205975" lon="9.450535338794586"><ele>50.25</ele><time>2026-03-22T10:33:43.999Z</time></trkpt><trkpt lat="45.10937344473089" lon="9.450478689123464"><ele>50.0</ele><time>2026-03-22T10:33:44.999Z</time></trkpt><trkpt lat="45.109190529005915" lon="9.450461278472565"><ele>50.0</ele><time>2026-03-22T10:33:45.998Z</time></trkpt><trkpt lat="45.10903263030337" lon="9.450427630618385"><ele>50.0</ele><time>2026-03-22T10:33:46.998Z</time></trkpt><trkpt lat="45.10889396351882" lon="9.450407329421239"><ele>50.0</ele><time>2026-03-22T10:33:47.998Z</time></trkpt><trkpt lat="45.10875782928254" lon="9.45040432923046"><ele>50.0</ele><time>2026-03-22T10:33:48.998Z</time></trkpt><trkpt lat="45.108629595291596" lon="9.450405704932772"><ele>50.0</ele><time>2026-03-22T10:33:49.998Z</time></trkpt><trkpt lat="45.10850231248601" lon="9.450383490852051"><ele>50.0</ele><time>2026-03-22T10:33:50.998Z</time></trkpt><trkpt lat="45.10837186227333" lon="9.45038349085156"><ele>50.0</ele><time>2026-03-22T10:33:51.998Z</time></trkpt><trkpt lat="45.10824517854975" lon="9.450405356402683"><ele>50.0</ele><time>2026-03-22T10:33:52.998Z</time></trkpt><trkpt lat="45.108115190998" lon="9.450382415656309"><ele>50.66666666666667</ele><time>2026-03-22T10:33:53.998Z</time></trkpt><trkpt lat="45.10794534262255" lon="9.450423174350677"><ele>51.33333333333333</ele><time>2026-03-22T10:33:54.998Z</time></trkpt><trkpt lat="45.10772515860234" lon="9.45042398637843"><ele>52.0</ele><time>2026-03-22T10:33:55.998Z</time></trkpt><trkpt lat="45.10749169802506" lon="9.450413997882025"><ele>51.0</ele><time>2026-03-22T10:33:56.998Z</time></trkpt><trkpt lat="45.10727445118059" lon="9.450396086761288"><ele>50.0</ele><time>2026-03-22T10:33:57.998Z</time></trkpt><trkpt lat="45.107078402183554" lon="9.450388882361153"><ele>49.0</ele><time>2026-03-22T10:33:58.998Z</time></trkpt><trkpt lat="45.10688448853406" lon="9.450388915649546"><ele>49.0</ele><time>2026-03-22T10:33:59.998Z</time></trkpt><trkpt lat="45.106695696304946" lon="9.450386860803766"><ele>49.0</ele><time>2026-03-22T10:34:00.998Z</time></trkpt><trkpt lat="45.10650357450521" lon="9.450382934270882"><ele>49.0</ele><time>2026-03-22T10:34:01.998Z</time></trkpt><trkpt lat="45.1063055881686" lon="9.45037884813852"><ele>49.33333333333333</ele><time>2026-03-22T10:34:02.998Z</time></trkpt><trkpt lat="45.10609988126422" lon="9.450379433276487"><ele>49.66666666666667</ele><time>2026-03-22T10:34:03.998Z</time></trkpt><trkpt lat="45.105889336035574" lon="9.45038069723676"><ele>50.0</ele><time>2026-03-22T10:34:04.998Z</time></trkpt><trkpt lat="45.10567528103195" lon="9.450382909004913"><ele>50.66666666666667</ele><time>2026-03-22T10:34:05.998Z</time></trkpt><trkpt lat="45.105466798541606" lon="9.450382244078458"><ele>51.33333333333333</ele><time>2026-03-22T10:34:06.998Z</time></trkpt><trkpt lat="45.10527407293777" lon="9.450383654719642"><ele>52.0</ele><time>2026-03-22T10:34:07.998Z</time></trkpt><trkpt lat="45.10509125061613" lon="9.45038345552022"><ele>52.0</ele><time>2026-03-22T10:34:08.998Z</time></trkpt><trkpt lat="45.104914574971865" lon="9.450383223258305"><ele>52.0</ele><time>2026-03-22T10:34:09.998Z</time></trkpt><trkpt lat="45.10475413310409" lon="9.450384000766338"><ele>52.0</ele><time>2026-03-22T10:34:10.998Z</time></trkpt><trkpt lat="45.104597486641396" lon="9.45038294339109"><ele>53.0</ele><time>2026-03-22T10:34:11.998Z</time></trkpt><trkpt lat="45.10443561150092" lon="9.450384265369436"><ele>54.0</ele><time>2026-03-22T10:34:12.998Z</time></trkpt><trkpt lat="45.10427732008688" lon="9.45038353746941"><ele>55.0</ele><time>2026-03-22T10:34:13.998Z</time></trkpt><trkpt lat="45.1041339453339" lon="9.450378916793742"><ele>54.5</ele><time>2026-03-22T10:34:14.998Z</time></trkpt><trkpt lat="45.10400056034539" lon="9.450373913340975"><ele>54.0</ele><time>2026-03-22T10:34:15.998Z</time></trkpt><trkpt lat="45.103872552966514" lon="9.450378505989757"><ele>53.5</ele><time>2026-03-22T10:34:16.998Z</time></trkpt><trkpt lat="45.103760583583586" lon="9.450387533069645"><ele>53.0</ele><time>2026-03-22T10:34:17.998Z</time></trkpt><trkpt lat="45.10365371063703" lon="9.450396739877894"><ele>53.0</ele><time>2026-03-22T10:34:18.998Z</time></trkpt><trkpt lat="45.103536623945125" lon="9.450404369233262"><ele>53.0</ele><time>2026-03-22T10:34:19.998Z</time></trkpt><trkpt lat="45.10341532040787" lon="9.450413422542082"><ele>53.0</ele><time>2026-03-22T10:34:20.998Z</time></trkpt><trkpt lat="45.10329055947419" lon="9.450424741634869"><ele>53.0</ele><time>2026-03-22T10:34:21.998Z</time></trkpt><trkpt lat="45.10315195721006" lon="9.450438802659502"><ele>53.0</ele><time>2026-03-22T10:34:23.001Z</time></trkpt><trkpt lat="45.10299463491353" lon="9.450452707581158"><ele>53.0</ele><time>2026-03-22T10:34:24.001Z</time></trkpt><trkpt lat="45.10282084840425" lon="9.450464516874606"><ele>53.0</ele><time>2026-03-22T10:34:25.001Z</time></trkpt><trkpt lat="45.10265620523599" lon="9.450475314536533"><ele>53.0</ele><time>2026-03-22T10:34:26.001Z</time></trkpt><trkpt lat="45.102495732004506" lon="9.450486792459063"><ele>53.0</ele><time>2026-03-22T10:34:27.001Z</time></trkpt><trkpt lat="45.10234036784669" lon="9.450496858344101"><ele>53.0</ele><time>2026-03-22T10:34:28.001Z</time></trkpt><trkpt lat="45.10218301918075" lon="9.450508550399379"><ele>53.0</ele><time>2026-03-22T10:34:29.001Z</time></trkpt><trkpt lat="45.10203300672547" lon="9.450517290172023"><ele>53.0</ele><time>2026-03-22T10:34:30.001Z</time></trkpt><trkpt lat="45.10189876683736" lon="9.450523341268314"><ele>53.0</ele><time>2026-03-22T10:34:31.001Z</time></trkpt><trkpt lat="45.101771229135785" lon="9.450531784256826"><ele>53.0</ele><time>2026-03-22T10:34:32.001Z</time></trkpt><trkpt lat="45.10165148287406" lon="9.450541900631173"><ele>52.8</ele><time>2026-03-22T10:34:33.001Z</time></trkpt><trkpt lat="45.10154543632919" lon="9.450547952447325"><ele>52.599999999999994</ele><time>2026-03-22T10:34:34.001Z</time></trkpt><trkpt lat="45.10144702375985" lon="9.450558470692693"><ele>52.400000000000006</ele><time>2026-03-22T10:34:35.001Z</time></trkpt><trkpt lat="45.10135212088981" lon="9.450567031359245"><ele>52.2</ele><time>2026-03-22T10:34:36.001Z</time></trkpt><trkpt lat="45.10124319902352" lon="9.450574357779828"><ele>52.0</ele><time>2026-03-22T10:34:37.001Z</time></trkpt><trkpt lat="45.101125657188916" lon="9.450585693432007"><ele>52.0</ele><time>2026-03-22T10:34:38Z</time></trkpt><trkpt lat="45.101005677245745" lon="9.450595131277023"><ele>52.0</ele><time>2026-03-22T10:34:39Z</time></trkpt><trkpt lat="45.100872566603236" lon="9.450606564251686"><ele>52.0</ele><time>2026-03-22T10:34:40Z</time></trkpt><trkpt lat="45.10074321356961" lon="9.450612821173303"><ele>52.0</ele><time>2026-03-22T10:34:41Z</time></trkpt><trkpt lat="45.10059663384326" lon="9.450615658719729"><ele>52.666666666666664</ele><time>2026-03-22T10:34:42Z</time></trkpt><trkpt lat="45.100443789786176" lon="9.450629224377169"><ele>53.33333333333333</ele><time>2026-03-22T10:34:43Z</time></trkpt><trkpt lat="45.10029067899613" lon="9.450644561580201"><ele>54.0</ele><time>2026-03-22T10:34:44Z</time></trkpt><trkpt lat="45.10014498439405" lon="9.450655801166302"><ele>54.0</ele><time>2026-03-22T10:34:45Z</time></trkpt><trkpt lat="45.09999995397764" lon="9.450666347155567"><ele>54.0</ele><time>2026-03-22T10:34:46Z</time></trkpt><trkpt lat="45.09985838120344" lon="9.450675074544005"><ele>54.0</ele><time>2026-03-22T10:34:47Z</time></trkpt><trkpt lat="45.09971400497736" lon="9.450685058724131"><ele>54.0</ele><time>2026-03-22T10:34:48Z</time></trkpt><trkpt lat="45.09957519252942" lon="9.450694458788572"><ele>54.0</ele><time>2026-03-22T10:34:49Z</time></trkpt><trkpt lat="45.099431615881855" lon="9.450704742907966"><ele>54.0</ele><time>2026-03-22T10:34:50Z</time></trkpt><trkpt lat="45.09928563806665" lon="9.450717465202146"><ele>54.0</ele><time>2026-03-22T10:34:51Z</time></trkpt><trkpt lat="45.09914359063511" lon="9.45072695709516"><ele>54.0</ele><time>2026-03-22T10:34:52Z</time></trkpt><trkpt lat="45.09900603861049" lon="9.450734627559047"><ele>54.0</ele><time>2026-03-22T10:34:53Z</time></trkpt><trkpt lat="45.09886623278361" lon="9.45074497933742"><ele>54.0</ele><time>2026-03-22T10:34:54Z</time></trkpt><trkpt lat="45.09872641537399" lon="9.450756975052967"><ele>54.0</ele><time>2026-03-22T10:34:55Z</time></trkpt><trkpt lat="45.09857910554687" lon="9.450767245722917"><ele>54.0</ele><time>2026-03-22T10:34:56Z</time></trkpt><trkpt lat="45.09842294556615" lon="9.450776491835436"><ele>54.0</ele><time>2026-03-22T10:34:57Z</time></trkpt><trkpt lat="45.09826241837196" lon="9.45079100309959"><ele>54.0</ele><time>2026-03-22T10:34:58Z</time></trkpt><trkpt lat="45.098115681744325" lon="9.450804366312301"><ele>54.0</ele><time>2026-03-22T10:34:59Z</time></trkpt><trkpt lat="45.09798200387211" lon="9.45081423963192"><ele>54.0</ele><time>2026-03-22T10:35:00Z</time></trkpt><trkpt lat="45.09783995844572" lon="9.450822582899034"><ele>54.25</ele><time>2026-03-22T10:35:01Z</time></trkpt><trkpt lat="45.09770010058865" lon="9.450832186618927"><ele>54.5</ele><time>2026-03-22T10:35:02Z</time></trkpt><trkpt lat="45.09755784989023" lon="9.450844605404896"><ele>54.75</ele><time>2026-03-22T10:35:03Z</time></trkpt><trkpt lat="45.097424596194564" lon="9.450854449233326"><ele>55.0</ele><time>2026-03-22T10:35:04Z</time></trkpt><trkpt lat="45.09728289213916" lon="9.450864417569889"><ele>55.25</ele><time>2026-03-22T10:35:05Z</time></trkpt><trkpt lat="45.09714695832263" lon="9.45087302681706"><ele>55.5</ele><time>2026-03-22T10:35:06Z</time></trkpt><trkpt lat="45.09702233133469" lon="9.450879716531077"><ele>55.75</ele><time>2026-03-22T10:35:07Z</time></trkpt><trkpt lat="45.096889394240144" lon="9.450889781610087"><ele>56.0</ele><time>2026-03-22T10:35:08Z</time></trkpt><trkpt lat="45.09675431166464" lon="9.450904689300788"><ele>56.0</ele><time>2026-03-22T10:35:09Z</time></trkpt><trkpt lat="45.09663136893677" lon="9.450911961593375"><ele>56.0</ele><time>2026-03-22T10:35:10Z</time></trkpt><trkpt lat="45.09651158979533" lon="9.450919151118454"><ele>56.0</ele><time>2026-03-22T10:35:11Z</time></trkpt><trkpt lat="45.09639191957318" lon="9.450930663735324"><ele>56.0</ele><time>2026-03-22T10:35:12Z</time></trkpt><trkpt lat="45.09626577425753" lon="9.450939137187332"><ele>54.5</ele><time>2026-03-22T10:35:13Z</time></trkpt><trkpt lat="45.096127392621284" lon="9.450952604136667"><ele>53.0</ele><time>2026-03-22T10:35:14Z</time></trkpt><trkpt lat="45.09598341908106" lon="9.450959795830316"><ele>51.5</ele><time>2026-03-22T10:35:15Z</time></trkpt><trkpt lat="45.09582629904214" lon="9.450973629262329"><ele>50.0</ele><time>2026-03-22T10:35:16Z</time></trkpt><trkpt lat="45.09566764458927" lon="9.450983834792627"><ele>48.75</ele><time>2026-03-22T10:35:17Z</time></trkpt><trkpt lat="45.09551612641251" lon="9.450992276079562"><ele>47.5</ele><time>2026-03-22T10:35:17.999Z</time></trkpt><trkpt lat="45.095378986949015" lon="9.451001374420143"><ele>46.25</ele><time>2026-03-22T10:35:18.999Z</time></trkpt><trkpt lat="45.095245616989175" lon="9.45101357414573"><ele>45.0</ele><time>2026-03-22T10:35:19.999Z</time></trkpt><trkpt lat="45.095099388003824" lon="9.451022511780927"><ele>45.0</ele><time>2026-03-22T10:35:20.998Z</time></trkpt><trkpt lat="45.094946542470296" lon="9.451033404160528"><ele>45.0</ele><time>2026-03-22T10:35:21.998Z</time></trkpt><trkpt lat="45.094801087463274" lon="9.451043130419022"><ele>45.0</ele><time>2026-03-22T10:35:22.998Z</time></trkpt><trkpt lat="45.09465160628237" lon="9.451052723534973"><ele>45.0</ele><time>2026-03-22T10:35:23.998Z</time></trkpt><trkpt lat="45.09450749644898" lon="9.45105959763158"><ele>45.0</ele><time>2026-03-22T10:35:24.998Z</time></trkpt><trkpt lat="45.094358514388624" lon="9.451069984983947"><ele>45.0</ele><time>2026-03-22T10:35:25.998Z</time></trkpt><trkpt lat="45.09421487544326" lon="9.451082559791306"><ele>45.0</ele><time>2026-03-22T10:35:26.998Z</time></trkpt><trkpt lat="45.094060939321686" lon="9.451095022795883"><ele>45.0</ele><time>2026-03-22T10:35:27.998Z</time></trkpt><trkpt lat="45.09391163651202" lon="9.451105418297113"><ele>45.0</ele><time>2026-03-22T10:35:28.998Z</time></trkpt><trkpt lat="45.09374879471614" lon="9.4511194152738"><ele>45.0</ele><time>2026-03-22T10:35:29.998Z</time></trkpt><trkpt lat="45.093565815627116" lon="9.451139457528159"><ele>45.0</ele><time>2026-03-22T10:35:30.998Z</time></trkpt><trkpt lat="45.09339897431206" lon="9.45112987803883"><ele>46.25</ele><time>2026-03-22T10:35:31.998Z</time></trkpt><trkpt lat="45.09325154651803" lon="9.451141881172466"><ele>47.5</ele><time>2026-03-22T10:35:32.998Z</time></trkpt><trkpt lat="45.09311351168951" lon="9.451151810579724"><ele>48.75</ele><time>2026-03-22T10:35:33.998Z</time></trkpt><trkpt lat="45.09297545117088" lon="9.451161741865182"><ele>50.0</ele><time>2026-03-22T10:35:34.998Z</time></trkpt><trkpt lat="45.092826439676124" lon="9.451172460882505"><ele>50.0</ele><time>2026-03-22T10:35:35.998Z</time></trkpt><trkpt lat="45.09267582390701" lon="9.45118260626719"><ele>50.0</ele><time>2026-03-22T10:35:36.998Z</time></trkpt><trkpt lat="45.092529890671685" lon="9.45119208061732"><ele>50.0</ele><time>2026-03-22T10:35:37.998Z</time></trkpt><trkpt lat="45.092352983065844" lon="9.451204435837083"><ele>52.0</ele><time>2026-03-22T10:35:38.998Z</time></trkpt><trkpt lat="45.09212233539529" lon="9.451221209504169"><ele>54.0</ele><time>2026-03-22T10:35:39.998Z</time></trkpt><trkpt lat="45.09189253308897" lon="9.451237921676075"><ele>54.0</ele><time>2026-03-22T10:35:40.998Z</time></trkpt><trkpt lat="45.09167688284219" lon="9.451252907422125"><ele>54.0</ele><time>2026-03-22T10:35:41.998Z</time></trkpt><trkpt lat="45.0914586424968" lon="9.451290023299942"><ele>54.0</ele><time>2026-03-22T10:35:42.998Z</time></trkpt><trkpt lat="45.091248543723346" lon="9.451306171687447"><ele>54.33333333333333</ele><time>2026-03-22T10:35:43.998Z</time></trkpt><trkpt lat="45.09104519070617" lon="9.451297473927587"><ele>54.666666666666664</ele><time>2026-03-22T10:35:44.998Z</time></trkpt><trkpt lat="45.09086475780152" lon="9.451310194712994"><ele>55.0</ele><time>2026-03-22T10:35:45.998Z</time></trkpt><trkpt lat="45.09070162313558" lon="9.451321482918832"><ele>54.33333333333333</ele><time>2026-03-22T10:35:46.998Z</time></trkpt><trkpt lat="45.09054681570723" lon="9.451332713920673"><ele>53.66666666666667</ele><time>2026-03-22T10:35:47.998Z</time></trkpt><trkpt lat="45.09039425034377" lon="9.451344497934494"><ele>53.0</ele><time>2026-03-22T10:35:48.998Z</time></trkpt><trkpt lat="45.09023749786862" lon="9.451354845246373"><ele>53.0</ele><time>2026-03-22T10:35:49.998Z</time></trkpt><trkpt lat="45.090080219663264" lon="9.451365493147188"><ele>53.0</ele><time>2026-03-22T10:35:50.998Z</time></trkpt><trkpt lat="45.08992480504714" lon="9.451376743447332"><ele>53.0</ele><time>2026-03-22T10:35:51.998Z</time></trkpt><trkpt lat="45.08977227564649" lon="9.451409684257992"><ele>53.0</ele><time>2026-03-22T10:35:52.998Z</time></trkpt><trkpt lat="45.089615337712864" lon="9.451416059199273"><ele>53.0</ele><time>2026-03-22T10:35:53.998Z</time></trkpt><trkpt lat="45.08945880369124" lon="9.451394798840239"><ele>53.0</ele><time>2026-03-22T10:35:54.998Z</time></trkpt><trkpt lat="45.089297432872385" lon="9.451393035428872"><ele>53.0</ele><time>2026-03-22T10:35:55.998Z</time></trkpt><trkpt lat="45.08913781144979" lon="9.451388440859228"><ele>53.0</ele><time>2026-03-22T10:35:56.998Z</time></trkpt><trkpt lat="45.08897175181585" lon="9.45137376980239"><ele>53.0</ele><time>2026-03-22T10:35:57.998Z</time></trkpt><trkpt lat="45.08881224394778" lon="9.451358095615696"><ele>53.333333333333336</ele><time>2026-03-22T10:35:58.998Z</time></trkpt><trkpt lat="45.088660957028736" lon="9.451343229260557"><ele>53.66666666666667</ele><time>2026-03-22T10:35:59.998Z</time></trkpt><trkpt lat="45.08850691862897" lon="9.451327774443774"><ele>54.0</ele><time>2026-03-22T10:36:00.998Z</time></trkpt><trkpt lat="45.08834511308859" lon="9.451307197997403"><ele>53.33333333333333</ele><time>2026-03-22T10:36:01.998Z</time></trkpt><trkpt lat="45.088179438806215" lon="9.451290373312865"><ele>52.666666666666664</ele><time>2026-03-22T10:36:02.998Z</time></trkpt><trkpt lat="45.08801014623481" lon="9.451273692882612"><ele>52.0</ele><time>2026-03-22T10:36:03.998Z</time></trkpt><trkpt lat="45.08784233929449" lon="9.451255160591865"><ele>52.0</ele><time>2026-03-22T10:36:04.998Z</time></trkpt><trkpt lat="45.08768396818312" lon="9.451236870253185"><ele>52.0</ele><time>2026-03-22T10:36:05.997Z</time></trkpt><trkpt lat="45.08753166446541" lon="9.451219280648873"><ele>52.0</ele><time>2026-03-22T10:36:06.997Z</time></trkpt><trkpt lat="45.0873893699309" lon="9.451202847104684"><ele>52.25</ele><time>2026-03-22T10:36:07.997Z</time></trkpt><trkpt lat="45.08725444430497" lon="9.451184112827827"><ele>52.5</ele><time>2026-03-22T10:36:08.997Z</time></trkpt><trkpt lat="45.08713245932772" lon="9.45116439612265"><ele>52.75</ele><time>2026-03-22T10:36:09.997Z</time></trkpt><trkpt lat="45.0870142174819" lon="9.451142622221731"><ele>53.0</ele><time>2026-03-22T10:36:10.997Z</time></trkpt><trkpt lat="45.08693268568425" lon="9.451126850613381"><ele>52.75</ele><time>2026-03-22T10:36:11.997Z</time></trkpt><trkpt lat="45.086855902188695" lon="9.451304171417405"><ele>52.5</ele><time>2026-03-22T10:36:13.997Z</time></trkpt><trkpt lat="45.086866405303226" lon="9.451423402186618"><ele>52.25</ele><time>2026-03-22T10:36:14.997Z</time></trkpt><trkpt lat="45.086860370842764" lon="9.451585228568744"><ele>52.0</ele><time>2026-03-22T10:36:15.997Z</time></trkpt><trkpt lat="45.08686887994529" lon="9.4517495638204"><ele>52.0</ele><time>2026-03-22T10:36:16.997Z</time></trkpt><trkpt lat="45.08688232076018" lon="9.45190168712921"><ele>52.0</ele><time>2026-03-22T10:36:17.997Z</time></trkpt><trkpt lat="45.086902961097515" lon="9.452076559947317"><ele>52.0</ele><time>2026-03-22T10:36:18.997Z</time></trkpt><trkpt lat="45.08693071389507" lon="9.452266786269002"><ele>52.0</ele><time>2026-03-22T10:36:19.997Z</time></trkpt><trkpt lat="45.0869679678413" lon="9.452500452952707"><ele>52.0</ele><time>2026-03-22T10:36:20.997Z</time></trkpt><trkpt lat="45.08700544279811" lon="9.45272595346268"><ele>52.0</ele><time>2026-03-22T10:36:21.997Z</time></trkpt><trkpt lat="45.087037152437766" lon="9.45291638576403"><ele>52.0</ele><time>2026-03-22T10:36:22.997Z</time></trkpt><trkpt lat="45.087069177823764" lon="9.45310848117972"><ele>52.0</ele><time>2026-03-22T10:36:23.997Z</time></trkpt><trkpt lat="45.08710202016207" lon="9.453305476759272"><ele>52.0</ele><time>2026-03-22T10:36:24.997Z</time></trkpt><trkpt lat="45.08713664491737" lon="9.453513163619721"><ele>52.0</ele><time>2026-03-22T10:36:25.997Z</time></trkpt><trkpt lat="45.08717125324004" lon="9.453720751981788"><ele>52.0</ele><time>2026-03-22T10:36:26.997Z</time></trkpt><trkpt lat="45.087203938360226" lon="9.45392435593648"><ele>52.0</ele><time>2026-03-22T10:36:27.997Z</time></trkpt><trkpt lat="45.08723674337453" lon="9.45413498975863"><ele>52.25</ele><time>2026-03-22T10:36:29Z</time></trkpt><trkpt lat="45.087267042400306" lon="9.454329153953454"><ele>52.5</ele><time>2026-03-22T10:36:30Z</time></trkpt><trkpt lat="45.08729493152949" lon="9.45450774959034"><ele>52.75</ele><time>2026-03-22T10:36:31Z</time></trkpt><trkpt lat="45.08733047637109" lon="9.454672032847244"><ele>53.0</ele><time>2026-03-22T10:36:32Z</time></trkpt><trkpt lat="45.08740040298663" lon="9.454813583642514"><ele>52.5</ele><time>2026-03-22T10:36:33Z</time></trkpt><trkpt lat="45.08749066320369" lon="9.454937639190254"><ele>52.0</ele><time>2026-03-22T10:36:34Z</time></trkpt><trkpt lat="45.087609746473284" lon="9.455036934550728"><ele>51.5</ele><time>2026-03-22T10:36:35Z</time></trkpt><trkpt lat="45.08773891800592" lon="9.455100360083017"><ele>51.0</ele><time>2026-03-22T10:36:36Z</time></trkpt><trkpt lat="45.08787377375402" lon="9.455146092083687"><ele>51.0</ele><time>2026-03-22T10:36:37Z</time></trkpt><trkpt lat="45.088012185107466" lon="9.455191766454044"><ele>51.0</ele><time>2026-03-22T10:36:38Z</time></trkpt><trkpt lat="45.08815418165101" lon="9.455254803247659"><ele>51.0</ele><time>2026-03-22T10:36:39Z</time></trkpt><trkpt lat="45.0882976263881" lon="9.455317300437116"><ele>51.0</ele><time>2026-03-22T10:36:40Z</time></trkpt><trkpt lat="45.08844640061651" lon="9.45538286086496"><ele>51.25</ele><time>2026-03-22T10:36:41Z</time></trkpt><trkpt lat="45.088592573313285" lon="9.4554499396125"><ele>51.5</ele><time>2026-03-22T10:36:42Z</time></trkpt><trkpt lat="45.088735661614166" lon="9.455504667310247"><ele>51.75</ele><time>2026-03-22T10:36:43Z</time></trkpt><trkpt lat="45.088875729756836" lon="9.455566362602676"><ele>52.0</ele><time>2026-03-22T10:36:44Z</time></trkpt><trkpt lat="45.0890312182808" lon="9.455632765374725"><ele>52.25</ele><time>2026-03-22T10:36:45Z</time></trkpt><trkpt lat="45.089179512031976" lon="9.455690060086754"><ele>52.5</ele><time>2026-03-22T10:36:46Z</time></trkpt><trkpt lat="45.089308122956176" lon="9.455745151752287"><ele>52.75</ele><time>2026-03-22T10:36:47Z</time></trkpt><trkpt lat="45.08943178576568" lon="9.455799739355985"><ele>53.0</ele><time>2026-03-22T10:36:48Z</time></trkpt><trkpt lat="45.08954926666794" lon="9.455858425650389"><ele>53.0</ele><time>2026-03-22T10:36:49Z</time></trkpt><trkpt lat="45.08967028640187" lon="9.455940780336222"><ele>53.0</ele><time>2026-03-22T10:36:50Z</time></trkpt><trkpt lat="45.08976875120501" lon="9.456078085335838"><ele>53.0</ele><time>2026-03-22T10:36:51Z</time></trkpt><trkpt lat="45.089786374749444" lon="9.45628210785998"><ele>53.0</ele><time>2026-03-22T10:36:52Z</time></trkpt><trkpt lat="45.089816830829825" lon="9.456472792065712"><ele>53.0</ele><time>2026-03-22T10:36:53Z</time></trkpt><trkpt lat="45.089847083631575" lon="9.456676610659303"><ele>53.0</ele><time>2026-03-22T10:36:54Z</time></trkpt><trkpt lat="45.08987491133756" lon="9.45689417681738"><ele>53.0</ele><time>2026-03-22T10:36:55Z</time></trkpt><trkpt lat="45.089932409275356" lon="9.457103487280389"><ele>52.75</ele><time>2026-03-22T10:36:56Z</time></trkpt><trkpt lat="45.089963159808896" lon="9.45731608934324"><ele>52.5</ele><time>2026-03-22T10:36:57Z</time></trkpt><trkpt lat="45.08998914692656" lon="9.457505041532585"><ele>52.25</ele><time>2026-03-22T10:36:58Z</time></trkpt><trkpt lat="45.09001371618564" lon="9.457676003266286"><ele>52.0</ele><time>2026-03-22T10:36:58.999Z</time></trkpt><trkpt lat="45.09000894201241" lon="9.457836340645825"><ele>52.0</ele><time>2026-03-22T10:36:59.999Z</time></trkpt><trkpt lat="45.09006638950569" lon="9.457996925318158"><ele>52.0</ele><time>2026-03-22T10:37:00.999Z</time></trkpt><trkpt lat="45.09008994244308" lon="9.458187385953368"><ele>52.0</ele><time>2026-03-22T10:37:01.999Z</time></trkpt><trkpt lat="45.09011552618814" lon="9.458408060017192"><ele>52.0</ele><time>2026-03-22T10:37:02.999Z</time></trkpt><trkpt lat="45.09013654609254" lon="9.458634276860153"><ele>51.666666666666664</ele><time>2026-03-22T10:37:03.999Z</time></trkpt><trkpt lat="45.09010829918138" lon="9.458886972771422"><ele>51.33333333333333</ele><time>2026-03-22T10:37:04.999Z</time></trkpt><trkpt lat="45.090116310924714" lon="9.45912510154555"><ele>51.0</ele><time>2026-03-22T10:37:05.999Z</time></trkpt><trkpt lat="45.09012640827254" lon="9.459366388086107"><ele>51.33333333333333</ele><time>2026-03-22T10:37:06.999Z</time></trkpt><trkpt lat="45.090138102143975" lon="9.459620652451235"><ele>51.666666666666664</ele><time>2026-03-22T10:37:07.999Z</time></trkpt><trkpt lat="45.090147563523736" lon="9.459871733042858"><ele>52.0</ele><time>2026-03-22T10:37:08.999Z</time></trkpt><trkpt lat="45.090192325762224" lon="9.460134274376875"><ele>52.0</ele><time>2026-03-22T10:37:09.999Z</time></trkpt><trkpt lat="45.09020500362287" lon="9.46040452584221"><ele>52.0</ele><time>2026-03-22T10:37:10.999Z</time></trkpt><trkpt lat="45.09022144732144" lon="9.460671603559437"><ele>52.0</ele><time>2026-03-22T10:37:11.999Z</time></trkpt><trkpt lat="45.090244476631696" lon="9.460926804097276"><ele>52.0</ele><time>2026-03-22T10:37:12.999Z</time></trkpt><trkpt lat="45.09026814334843" lon="9.461189472073515"><ele>52.0</ele><time>2026-03-22T10:37:13.999Z</time></trkpt><trkpt lat="45.0902918097246" lon="9.461443310682704"><ele>52.0</ele><time>2026-03-22T10:37:14.999Z</time></trkpt><trkpt lat="45.09028622640543" lon="9.461704607961785"><ele>52.0</ele><time>2026-03-22T10:37:15.999Z</time></trkpt><trkpt lat="45.09031017386392" lon="9.461965644662918"><ele>52.0</ele><time>2026-03-22T10:37:16.999Z</time></trkpt><trkpt lat="45.090371583012825" lon="9.46223941235476"><ele>52.0</ele><time>2026-03-22T10:37:17.999Z</time></trkpt><trkpt lat="45.0903990181889" lon="9.462527316834265"><ele>51.33333333333333</ele><time>2026-03-22T10:37:18.999Z</time></trkpt><trkpt lat="45.090427417910625" lon="9.462828506041202"><ele>50.66666666666667</ele><time>2026-03-22T10:37:19.999Z</time></trkpt><trkpt lat="45.09045711689002" lon="9.46313023478555"><ele>50.0</ele><time>2026-03-22T10:37:20.999Z</time></trkpt><trkpt lat="45.09048466798966" lon="9.463414082279254"><ele>50.0</ele><time>2026-03-22T10:37:21.999Z</time></trkpt><trkpt lat="45.090512475788465" lon="9.463679895967307"><ele>50.0</ele><time>2026-03-22T10:37:22.999Z</time></trkpt><trkpt lat="45.090503651300246" lon="9.463952675291214"><ele>50.0</ele><time>2026-03-22T10:37:23.999Z</time></trkpt><trkpt lat="45.090526397173136" lon="9.464188773376542"><ele>50.0</ele><time>2026-03-22T10:37:24.999Z</time></trkpt><trkpt lat="45.09054794985095" lon="9.464412486272524"><ele>50.0</ele><time>2026-03-22T10:37:25.999Z</time></trkpt><trkpt lat="45.09056904043824" lon="9.464631402728159"><ele>50.0</ele><time>2026-03-22T10:37:26.999Z</time></trkpt><trkpt lat="45.09059347924848" lon="9.464885073431887"><ele>50.0</ele><time>2026-03-22T10:37:27.999Z</time></trkpt><trkpt lat="45.09061841501907" lon="9.465146151738443"><ele>50.0</ele><time>2026-03-22T10:37:28.999Z</time></trkpt><trkpt lat="45.090644215985215" lon="9.465417801630776"><ele>50.0</ele><time>2026-03-22T10:37:29.999Z</time></trkpt><trkpt lat="45.09067067612728" lon="9.465698720005696"><ele>49.66666666666667</ele><time>2026-03-22T10:37:30.999Z</time></trkpt><trkpt lat="45.090697151301306" lon="9.465981876703943"><ele>49.33333333333333</ele><time>2026-03-22T10:37:31.999Z</time></trkpt><trkpt lat="45.09072590316125" lon="9.466265171459563"><ele>49.0</ele><time>2026-03-22T10:37:32.999Z</time></trkpt><trkpt lat="45.09075137364964" lon="9.466520746285125"><ele>49.0</ele><time>2026-03-22T10:37:33.999Z</time></trkpt><trkpt lat="45.09080852899742" lon="9.466760811724729"><ele>49.0</ele><time>2026-03-22T10:37:34.999Z</time></trkpt><trkpt lat="45.09083270458621" lon="9.467021111293255"><ele>49.0</ele><time>2026-03-22T10:37:35.999Z</time></trkpt><trkpt lat="45.09085707544427" lon="9.467276010100507"><ele>49.33333333333333</ele><time>2026-03-22T10:37:36.999Z</time></trkpt><trkpt lat="45.09088270010158" lon="9.467548374002392"><ele>49.66666666666667</ele><time>2026-03-22T10:37:37.999Z</time></trkpt><trkpt lat="45.09087614799626" lon="9.467817470264013"><ele>50.0</ele><time>2026-03-22T10:37:38.999Z</time></trkpt><trkpt lat="45.09090248342434" lon="9.468089045073137"><ele>50.333333333333336</ele><time>2026-03-22T10:37:39.999Z</time></trkpt><trkpt lat="45.09092759043622" lon="9.468347952210664"><ele>50.66666666666667</ele><time>2026-03-22T10:37:40.999Z</time></trkpt><trkpt lat="45.09095287972292" lon="9.468608739134028"><ele>51.0</ele><time>2026-03-22T10:37:41.998Z</time></trkpt><trkpt lat="45.090978059253835" lon="9.468868394146543"><ele>51.0</ele><time>2026-03-22T10:37:42.998Z</time></trkpt><trkpt lat="45.0910026358762" lon="9.469121832000516"><ele>51.0</ele><time>2026-03-22T10:37:43.998Z</time></trkpt><trkpt lat="45.09102733505109" lon="9.469376533464231"><ele>51.0</ele><time>2026-03-22T10:37:44.998Z</time></trkpt><trkpt lat="45.091052075129454" lon="9.469631656775995"><ele>51.0</ele><time>2026-03-22T10:37:45.998Z</time></trkpt><trkpt lat="45.0910766146832" lon="9.469895432750786"><ele>51.0</ele><time>2026-03-22T10:37:46.998Z</time></trkpt><trkpt lat="45.091100905854745" lon="9.470153450730896"><ele>51.0</ele><time>2026-03-22T10:37:47.998Z</time></trkpt><trkpt lat="45.09112422568562" lon="9.47039856112145"><ele>51.0</ele><time>2026-03-22T10:37:48.998Z</time></trkpt><trkpt lat="45.09114512025668" lon="9.470617688205012"><ele>51.0</ele><time>2026-03-22T10:37:49.998Z</time></trkpt><trkpt lat="45.09116670179609" lon="9.47084166501631"><ele>51.0</ele><time>2026-03-22T10:37:50.998Z</time></trkpt><trkpt lat="45.09119061069184" lon="9.47108023059002"><ele>50.33333333333333</ele><time>2026-03-22T10:37:51.998Z</time></trkpt><trkpt lat="45.09121580242485" lon="9.471328093206852"><ele>49.666666666666664</ele><time>2026-03-22T10:37:52.998Z</time></trkpt><trkpt lat="45.09124095936131" lon="9.47158485350481"><ele>49.0</ele><time>2026-03-22T10:37:53.998Z</time></trkpt><trkpt lat="45.091265494301915" lon="9.471842864900163"><ele>48.666666666666664</ele><time>2026-03-22T10:37:54.998Z</time></trkpt><trkpt lat="45.09129181247762" lon="9.472119629285139"><ele>48.33333333333333</ele><time>2026-03-22T10:37:55.998Z</time></trkpt><trkpt lat="45.091317136199514" lon="9.472378251453776"><ele>48.0</ele><time>2026-03-22T10:37:56.998Z</time></trkpt><trkpt lat="45.091343889335235" lon="9.472651409625149"><ele>48.0</ele><time>2026-03-22T10:37:57.998Z</time></trkpt><trkpt lat="45.091369688258254" lon="9.472917240452388"><ele>48.0</ele><time>2026-03-22T10:37:58.998Z</time></trkpt><trkpt lat="45.091396954348404" lon="9.473198188807213"><ele>48.0</ele><time>2026-03-22T10:37:59.998Z</time></trkpt><trkpt lat="45.09142395584983" lon="9.47347641110368"><ele>48.66666666666667</ele><time>2026-03-22T10:38:00.998Z</time></trkpt><trkpt lat="45.09145076976162" lon="9.473752700395929"><ele>49.333333333333336</ele><time>2026-03-22T10:38:01.998Z</time></trkpt><trkpt lat="45.09147737269117" lon="9.474025518525494"><ele>50.0</ele><time>2026-03-22T10:38:02.998Z</time></trkpt><trkpt lat="45.09150445190165" lon="9.474299822570615"><ele>50.0</ele><time>2026-03-22T10:38:03.998Z</time></trkpt><trkpt lat="45.09152881595721" lon="9.474554358540546"><ele>50.0</ele><time>2026-03-22T10:38:04.998Z</time></trkpt><trkpt lat="45.09155296896686" lon="9.474806689932247"><ele>50.0</ele><time>2026-03-22T10:38:05.998Z</time></trkpt><trkpt lat="45.09157765081906" lon="9.475060904555404"><ele>50.0</ele><time>2026-03-22T10:38:06.998Z</time></trkpt><trkpt lat="45.09160333950466" lon="9.475324976595372"><ele>50.0</ele><time>2026-03-22T10:38:07.998Z</time></trkpt><trkpt lat="45.09165685071042" lon="9.475587781976724"><ele>50.0</ele><time>2026-03-22T10:38:08.998Z</time></trkpt><trkpt lat="45.09168317379072" lon="9.475850059731494"><ele>50.333333333333336</ele><time>2026-03-22T10:38:09.998Z</time></trkpt><trkpt lat="45.091709541129376" lon="9.476102109904563"><ele>50.66666666666667</ele><time>2026-03-22T10:38:10.998Z</time></trkpt><trkpt lat="45.091739601595876" lon="9.476351912516352"><ele>51.0</ele><time>2026-03-22T10:38:11.998Z</time></trkpt><trkpt lat="45.091724423799995" lon="9.476596011260781"><ele>51.0</ele><time>2026-03-22T10:38:12.998Z</time></trkpt><trkpt lat="45.091748607203904" lon="9.476834587894023"><ele>51.0</ele><time>2026-03-22T10:38:13.998Z</time></trkpt><trkpt lat="45.091771363478806" lon="9.477058807495364"><ele>51.0</ele><time>2026-03-22T10:38:14.998Z</time></trkpt><trkpt lat="45.091790230779075" lon="9.477255203356375"><ele>51.0</ele><time>2026-03-22T10:38:15.998Z</time></trkpt><trkpt lat="45.09180901987831" lon="9.477454705060678"><ele>51.0</ele><time>2026-03-22T10:38:16.998Z</time></trkpt><trkpt lat="45.091826052827244" lon="9.477635559673542"><ele>51.0</ele><time>2026-03-22T10:38:17.998Z</time></trkpt><trkpt lat="45.091843226508274" lon="9.477817909083456"><ele>51.0</ele><time>2026-03-22T10:38:18.998Z</time></trkpt><trkpt lat="45.09186000674186" lon="9.477997622700522"><ele>51.33333333333333</ele><time>2026-03-22T10:38:19.998Z</time></trkpt><trkpt lat="45.0918777665125" lon="9.478188095329443"><ele>51.666666666666664</ele><time>2026-03-22T10:38:20.998Z</time></trkpt><trkpt lat="45.09189691768523" lon="9.478393490754872"><ele>52.0</ele><time>2026-03-22T10:38:21.998Z</time></trkpt><trkpt lat="45.09192218874303" lon="9.478645686674488"><ele>53.0</ele><time>2026-03-22T10:38:22.998Z</time></trkpt><trkpt lat="45.091953448276094" lon="9.478953786901712"><ele>54.0</ele><time>2026-03-22T10:38:23.998Z</time></trkpt><trkpt lat="45.09198557949291" lon="9.479274457988005"><ele>55.0</ele><time>2026-03-22T10:38:24.998Z</time></trkpt><trkpt lat="45.09201049889697" lon="9.47953191815683"><ele>55.0</ele><time>2026-03-22T10:38:25.997Z</time></trkpt><trkpt lat="45.09202886753138" lon="9.479731386787128"><ele>55.0</ele><time>2026-03-22T10:38:26.997Z</time></trkpt><trkpt lat="45.092144834657766" lon="9.479895421420956"><ele>55.0</ele><time>2026-03-22T10:38:27.997Z</time></trkpt><trkpt lat="45.09213568506302" lon="9.48031509558219"><ele>55.666666666666664</ele><time>2026-03-22T10:38:28.997Z</time></trkpt><trkpt lat="45.09216885843095" lon="9.480599447936124"><ele>56.33333333333333</ele><time>2026-03-22T10:38:29.997Z</time></trkpt><trkpt lat="45.09219313494575" lon="9.480857148064453"><ele>57.0</ele><time>2026-03-22T10:38:30.997Z</time></trkpt><trkpt lat="45.09216433752994" lon="9.481124501645718"><ele>56.66666666666667</ele><time>2026-03-22T10:38:31.997Z</time></trkpt><trkpt lat="45.09219020001398" lon="9.48138860625475"><ele>56.333333333333336</ele><time>2026-03-22T10:38:32.997Z</time></trkpt><trkpt lat="45.09221458801973" lon="9.481645365095646"><ele>56.0</ele><time>2026-03-22T10:38:33.997Z</time></trkpt><trkpt lat="45.092238292628466" lon="9.481899094075544"><ele>55.0</ele><time>2026-03-22T10:38:35Z</time></trkpt><trkpt lat="45.092261972235455" lon="9.482149985703337"><ele>54.0</ele><time>2026-03-22T10:38:36Z</time></trkpt><trkpt lat="45.092281159599615" lon="9.482349403298672"><ele>53.0</ele><time>2026-03-22T10:38:37Z</time></trkpt><trkpt lat="45.09230093459418" lon="9.48255817914096"><ele>53.0</ele><time>2026-03-22T10:38:38Z</time></trkpt><trkpt lat="45.09231479223116" lon="9.482719097709909"><ele>53.0</ele><time>2026-03-22T10:38:39Z</time></trkpt><trkpt lat="45.09231857505259" lon="9.48283615118512"><ele>53.0</ele><time>2026-03-22T10:38:40Z</time></trkpt><trkpt lat="45.09231597023417" lon="9.482986810438604"><ele>53.0</ele><time>2026-03-22T10:38:43Z</time></trkpt><trkpt lat="45.09230258108153" lon="9.483111700898634"><ele>53.0</ele><time>2026-03-22T10:38:45Z</time></trkpt><trkpt lat="45.09228079461691" lon="9.483235102822327"><ele>52.833333333333336</ele><time>2026-03-22T10:38:47Z</time></trkpt><trkpt lat="45.092257404293456" lon="9.483332481827885"><ele>52.66666666666667</ele><time>2026-03-22T10:38:48Z</time></trkpt><trkpt lat="45.09223090866344" lon="9.483428359083227"><ele>52.5</ele><time>2026-03-22T10:38:49Z</time></trkpt><trkpt lat="45.092195409588925" lon="9.483543201360357"><ele>52.33333333333333</ele><time>2026-03-22T10:38:50Z</time></trkpt><trkpt lat="45.09215291517406" lon="9.48367461038709"><ele>52.166666666666664</ele><time>2026-03-22T10:38:51Z</time></trkpt><trkpt lat="45.092108531617896" lon="9.483811861734996"><ele>52.0</ele><time>2026-03-22T10:38:52Z</time></trkpt><trkpt lat="45.092065547067456" lon="9.483947521406174"><ele>52.0</ele><time>2026-03-22T10:38:53Z</time></trkpt><trkpt lat="45.09201871896491" lon="9.484097933285273"><ele>52.0</ele><time>2026-03-22T10:38:54Z</time></trkpt><trkpt lat="45.09197125977089" lon="9.484250372359046"><ele>52.0</ele><time>2026-03-22T10:38:55Z</time></trkpt><trkpt lat="45.0919204101912" lon="9.48441370117623"><ele>52.0</ele><time>2026-03-22T10:38:56Z</time></trkpt><trkpt lat="45.091873247752595" lon="9.484565186662858"><ele>52.6</ele><time>2026-03-22T10:38:57Z</time></trkpt><trkpt lat="45.09182988334601" lon="9.484704473345525"><ele>53.2</ele><time>2026-03-22T10:38:58Z</time></trkpt><trkpt lat="45.091784744828296" lon="9.484849458424755"><ele>53.8</ele><time>2026-03-22T10:38:59Z</time></trkpt><trkpt lat="45.09174099207913" lon="9.484989991889801"><ele>54.4</ele><time>2026-03-22T10:39:00Z</time></trkpt><trkpt lat="45.091693950494694" lon="9.485140380151716"><ele>55.0</ele><time>2026-03-22T10:39:01Z</time></trkpt><trkpt lat="45.0916410374084" lon="9.48530840421697"><ele>54.0</ele><time>2026-03-22T10:39:02Z</time></trkpt><trkpt lat="45.091586985575745" lon="9.48547783520114"><ele>53.0</ele><time>2026-03-22T10:39:03Z</time></trkpt><trkpt lat="45.09153182934966" lon="9.485632003228407"><ele>52.0</ele><time>2026-03-22T10:39:04Z</time></trkpt><trkpt lat="45.09146693928876" lon="9.485788967539607"><ele>51.0</ele><time>2026-03-22T10:39:05Z</time></trkpt><trkpt lat="45.09139228096244" lon="9.485946676405984"><ele>51.0</ele><time>2026-03-22T10:39:06Z</time></trkpt><trkpt lat="45.091310471872525" lon="9.486108601486267"><ele>51.0</ele><time>2026-03-22T10:39:07Z</time></trkpt><trkpt lat="45.09123046229819" lon="9.486263462850514"><ele>51.0</ele><time>2026-03-22T10:39:08Z</time></trkpt><trkpt lat="45.0911491304205" lon="9.486419635242086"><ele>51.0</ele><time>2026-03-22T10:39:09Z</time></trkpt><trkpt lat="45.0910650500851" lon="9.486578408504876"><ele>51.0</ele><time>2026-03-22T10:39:10Z</time></trkpt><trkpt lat="45.09097700558519" lon="9.486744962772132"><ele>51.0</ele><time>2026-03-22T10:39:11Z</time></trkpt><trkpt lat="45.09088873838458" lon="9.48691237207028"><ele>51.0</ele><time>2026-03-22T10:39:11.999Z</time></trkpt><trkpt lat="45.09080482990573" lon="9.487071514743596"><ele>51.0</ele><time>2026-03-22T10:39:12.999Z</time></trkpt><trkpt lat="45.09071757596126" lon="9.487237002332298"><ele>51.0</ele><time>2026-03-22T10:39:13.999Z</time></trkpt><trkpt lat="45.090638118105595" lon="9.487387703925583"><ele>51.0</ele><time>2026-03-22T10:39:14.999Z</time></trkpt><trkpt lat="45.090568151196734" lon="9.487520404425819"><ele>51.0</ele><time>2026-03-22T10:39:15.999Z</time></trkpt><trkpt lat="45.09049704958258" lon="9.487655685182785"><ele>51.0</ele><time>2026-03-22T10:39:16.999Z</time></trkpt><trkpt lat="45.09042270027581" lon="9.487797195715672"><ele>50.599999999999994</ele><time>2026-03-22T10:39:17.999Z</time></trkpt><trkpt lat="45.09035408343717" lon="9.48792779547965"><ele>50.2</ele><time>2026-03-22T10:39:18.999Z</time></trkpt><trkpt lat="45.090287927567076" lon="9.488048646265135"><ele>49.8</ele><time>2026-03-22T10:39:19.999Z</time></trkpt><trkpt lat="45.090227419951894" lon="9.4881688764929"><ele>49.400000000000006</ele><time>2026-03-22T10:39:20.999Z</time></trkpt><trkpt lat="45.090186154429574" lon="9.488283991597525"><ele>49.0</ele><time>2026-03-22T10:39:21.999Z</time></trkpt><trkpt lat="45.090144297411214" lon="9.488356534255576"><ele>48.99999999999999</ele><time>2026-03-22T10:39:22.999Z</time></trkpt><trkpt lat="45.090100158287235" lon="9.488433621483683"><ele>49.0</ele><time>2026-03-22T10:39:24.999Z</time></trkpt><trkpt lat="45.090032762954344" lon="9.488483274120782"><ele>49.0</ele><time>2026-03-22T10:39:27.999Z</time></trkpt><trkpt lat="45.08991925930618" lon="9.488387097781178"><ele>49.0</ele><time>2026-03-22T10:39:28.999Z</time></trkpt><trkpt lat="45.08985117030204" lon="9.48833193330539"><ele>48.99999999999999</ele><time>2026-03-22T10:39:29.999Z</time></trkpt><trkpt lat="45.089786766865885" lon="9.4882797088173"><ele>49.0</ele><time>2026-03-22T10:39:30.999Z</time></trkpt><trkpt lat="45.08972164304379" lon="9.488245074319078"><ele>49.0</ele><time>2026-03-22T10:39:31.999Z</time></trkpt><trkpt lat="45.08965387536505" lon="9.488171889532522"><ele>49.0</ele><time>2026-03-22T10:39:32.999Z</time></trkpt><trkpt lat="45.089575120035995" lon="9.488103885557049"><ele>49.0</ele><time>2026-03-22T10:39:33.999Z</time></trkpt><trkpt lat="45.0894622753933" lon="9.488029479681874"><ele>49.0</ele><time>2026-03-22T10:39:34.999Z</time></trkpt><trkpt lat="45.08936133761353" lon="9.48793173188092"><ele>49.0</ele><time>2026-03-22T10:39:35.999Z</time></trkpt><trkpt lat="45.089255679764314" lon="9.48784964411662"><ele>49.0</ele><time>2026-03-22T10:39:36.999Z</time></trkpt><trkpt lat="45.089142966601415" lon="9.487759532855614"><ele>49.0</ele><time>2026-03-22T10:39:37.999Z</time></trkpt><trkpt lat="45.08902728319855" lon="9.487669351135251"><ele>49.0</ele><time>2026-03-22T10:39:38.999Z</time></trkpt><trkpt lat="45.088921116312605" lon="9.487583213948026"><ele>49.0</ele><time>2026-03-22T10:39:39.999Z</time></trkpt><trkpt lat="45.08881619567845" lon="9.487495544875975"><ele>49.25</ele><time>2026-03-22T10:39:40.999Z</time></trkpt><trkpt lat="45.0887024361354" lon="9.487401704230606"><ele>49.5</ele><time>2026-03-22T10:39:41.999Z</time></trkpt><trkpt lat="45.088579835443205" lon="9.48729966176374"><ele>49.75</ele><time>2026-03-22T10:39:42.999Z</time></trkpt><trkpt lat="45.088450940034654" lon="9.487193670456774"><ele>50.0</ele><time>2026-03-22T10:39:43.999Z</time></trkpt><trkpt lat="45.08833002978483" lon="9.487085695591656"><ele>50.66666666666667</ele><time>2026-03-22T10:39:44.999Z</time></trkpt><trkpt lat="45.08819877237172" lon="9.48694484796868"><ele>51.33333333333333</ele><time>2026-03-22T10:39:45.999Z</time></trkpt><trkpt lat="45.088074278616666" lon="9.486770755027928"><ele>52.0</ele><time>2026-03-22T10:39:46.999Z</time></trkpt><trkpt lat="45.0879815949378" lon="9.486623128472335"><ele>52.0</ele><time>2026-03-22T10:39:47.999Z</time></trkpt><trkpt lat="45.08789608054754" lon="9.486499253687462"><ele>52.0</ele><time>2026-03-22T10:39:48.999Z</time></trkpt><trkpt lat="45.08781462736713" lon="9.486378620782501"><ele>52.0</ele><time>2026-03-22T10:39:49.999Z</time></trkpt><trkpt lat="45.08774787203932" lon="9.48627557204307"><ele>52.0</ele><time>2026-03-22T10:39:50.999Z</time></trkpt><trkpt lat="45.087698706621055" lon="9.486192754716125"><ele>52.0</ele><time>2026-03-22T10:39:51.999Z</time></trkpt><trkpt lat="45.087661832607075" lon="9.486109304951931"><ele>51.99999999999999</ele><time>2026-03-22T10:39:52.999Z</time></trkpt><trkpt lat="45.087611376389155" lon="9.485985151467013"><ele>52.0</ele><time>2026-03-22T10:39:54.998Z</time></trkpt><trkpt lat="45.08756026949141" lon="9.485918350672835"><ele>52.0</ele><time>2026-03-22T10:39:57.998Z</time></trkpt><trkpt lat="45.08752083423588" lon="9.485837735652703"><ele>52.0</ele><time>2026-03-22T10:40:03.998Z</time></trkpt><trkpt lat="45.0874766290615" lon="9.485739755125254"><ele>51.99999999999999</ele><time>2026-03-22T10:51:47.999Z</time></trkpt><trkpt lat="45.08742165344955" lon="9.485662385579056"><ele>52.0</ele><time>2026-03-22T10:51:49.999Z</time></trkpt><trkpt lat="45.08736135193299" lon="9.485581197187317"><ele>52.33333333333333</ele><time>2026-03-22T10:51:51.999Z</time></trkpt><trkpt lat="45.08731430321105" lon="9.48552168652638"><ele>52.666666666666664</ele><time>2026-03-22T10:51:52.999Z</time></trkpt><trkpt lat="45.08724963078821" lon="9.485425984271167"><ele>53.0</ele><time>2026-03-22T10:51:54.999Z</time></trkpt><trkpt lat="45.08718115230076" lon="9.485364031730892"><ele>53.33333333333333</ele><time>2026-03-22T10:51:56.999Z</time></trkpt><trkpt lat="45.08710076659674" lon="9.485310020145837"><ele>53.666666666666664</ele><time>2026-03-22T10:51:58.999Z</time></trkpt><trkpt lat="45.08700313855368" lon="9.485251202346834"><ele>54.0</ele><time>2026-03-22T10:52:00.999Z</time></trkpt><trkpt lat="45.0869303779727" lon="9.485214769025717"><ele>54.0</ele><time>2026-03-22T10:52:01.999Z</time></trkpt><trkpt lat="45.086850745107235" lon="9.48518708310104"><ele>54.00000000000001</ele><time>2026-03-22T10:52:02.999Z</time></trkpt><trkpt lat="45.086758948390866" lon="9.485165170001663"><ele>54.00000000000001</ele><time>2026-03-22T10:52:03.999Z</time></trkpt><trkpt lat="45.08662410223087" lon="9.48512653156051"><ele>54.0</ele><time>2026-03-22T10:52:04.999Z</time></trkpt><trkpt lat="45.0864902680988" lon="9.485086084679898"><ele>54.0</ele><time>2026-03-22T10:52:05.999Z</time></trkpt><trkpt lat="45.086353869705455" lon="9.485049342650772"><ele>53.0</ele><time>2026-03-22T10:52:06.999Z</time></trkpt><trkpt lat="45.086182022001566" lon="9.484986652905274"><ele>52.0</ele><time>2026-03-22T10:52:07.999Z</time></trkpt><trkpt lat="45.08597694100612" lon="9.484929938266397"><ele>51.0</ele><time>2026-03-22T10:52:08.999Z</time></trkpt><trkpt lat="45.08574462886182" lon="9.484866857892053"><ele>51.0</ele><time>2026-03-22T10:52:09.999Z</time></trkpt><trkpt lat="45.08553118415086" lon="9.484804599032428"><ele>51.0</ele><time>2026-03-22T10:52:10.999Z</time></trkpt><trkpt lat="45.08532300684162" lon="9.484739532100726"><ele>51.0</ele><time>2026-03-22T10:52:11.999Z</time></trkpt><trkpt lat="45.08513857489953" lon="9.484690170891156"><ele>51.0</ele><time>2026-03-22T10:52:12.999Z</time></trkpt><trkpt lat="45.08494969227242" lon="9.484646971800125"><ele>51.0</ele><time>2026-03-22T10:52:13.999Z</time></trkpt><trkpt lat="45.08475701482125" lon="9.484596382222954"><ele>51.0</ele><time>2026-03-22T10:52:14.999Z</time></trkpt><trkpt lat="45.08459647935166" lon="9.484561489920925"><ele>50.599999999999994</ele><time>2026-03-22T10:52:15.999Z</time></trkpt><trkpt lat="45.084472961957175" lon="9.484498296653392"><ele>50.2</ele><time>2026-03-22T10:52:16.998Z</time></trkpt><trkpt lat="45.08438548042241" lon="9.484472482469338"><ele>49.8</ele><time>2026-03-22T10:52:17.998Z</time></trkpt><trkpt lat="45.084331030057335" lon="9.484371193333129"><ele>49.400000000000006</ele><time>2026-03-22T10:52:18.998Z</time></trkpt><trkpt lat="45.08427149727947" lon="9.48427681407904"><ele>49.0</ele><time>2026-03-22T10:52:19.998Z</time></trkpt><trkpt lat="45.084236809580155" lon="9.484128661612386"><ele>49.0</ele><time>2026-03-22T10:52:20.998Z</time></trkpt><trkpt lat="45.08420228717166" lon="9.483950009574368"><ele>49.0</ele><time>2026-03-22T10:52:21.998Z</time></trkpt><trkpt lat="45.08416968476799" lon="9.483755726732719"><ele>49.0</ele><time>2026-03-22T10:52:22.998Z</time></trkpt><trkpt lat="45.08416067086263" lon="9.483584761562518"><ele>49.0</ele><time>2026-03-22T10:52:23.998Z</time></trkpt><trkpt lat="45.084162542461684" lon="9.483404033360996"><ele>49.0</ele><time>2026-03-22T10:52:24.998Z</time></trkpt><trkpt lat="45.08417821035114" lon="9.483215924859849"><ele>49.0</ele><time>2026-03-22T10:52:25.998Z</time></trkpt><trkpt lat="45.08418758309199" lon="9.483013180161732"><ele>49.0</ele><time>2026-03-22T10:52:26.998Z</time></trkpt><trkpt lat="45.08418681967142" lon="9.4827836408859"><ele>49.0</ele><time>2026-03-22T10:52:27.998Z</time></trkpt><trkpt lat="45.084185245767856" lon="9.4825573995373"><ele>49.0</ele><time>2026-03-22T10:52:28.998Z</time></trkpt><trkpt lat="45.08418437239954" lon="9.48236475007696"><ele>49.0</ele><time>2026-03-22T10:52:29.998Z</time></trkpt><trkpt lat="45.08419629365724" lon="9.482171165029573"><ele>49.0</ele><time>2026-03-22T10:52:30.998Z</time></trkpt><trkpt lat="45.08419701159337" lon="9.481986841355422"><ele>49.0</ele><time>2026-03-22T10:52:31.998Z</time></trkpt><trkpt lat="45.084199043466555" lon="9.481829354753039"><ele>49.166666666666664</ele><time>2026-03-22T10:52:32.998Z</time></trkpt><trkpt lat="45.084199574744055" lon="9.481673876476492"><ele>49.33333333333333</ele><time>2026-03-22T10:52:33.998Z</time></trkpt><trkpt lat="45.08420044063457" lon="9.481570380370869"><ele>49.5</ele><time>2026-03-22T10:52:34.998Z</time></trkpt><trkpt lat="45.08420125569711" lon="9.481479810110494"><ele>49.66666666666667</ele><time>2026-03-22T10:52:35.998Z</time></trkpt><trkpt lat="45.08420634765825" lon="9.48131075679375"><ele>49.833333333333336</ele><time>2026-03-22T10:52:37.998Z</time></trkpt><trkpt lat="45.08420751755888" lon="9.48121130796514"><ele>50.0</ele><time>2026-03-22T10:52:38.998Z</time></trkpt><trkpt lat="45.084209511943" lon="9.481114729416445"><ele>50.0</ele><time>2026-03-22T10:52:39.998Z</time></trkpt><trkpt lat="45.08420744817796" lon="9.481005253376024"><ele>50.0</ele><time>2026-03-22T10:52:40.998Z</time></trkpt><trkpt lat="45.08420045817874" lon="9.480878238720711"><ele>50.0</ele><time>2026-03-22T10:52:41.998Z</time></trkpt><trkpt lat="45.08413341575611" lon="9.480736776189966"><ele>50.0</ele><time>2026-03-22T10:52:43.998Z</time></trkpt><trkpt lat="45.08406137540704" lon="9.480675657356926"><ele>50.0</ele><time>2026-03-22T10:52:44.998Z</time></trkpt><trkpt lat="45.0839752822724" lon="9.480631480569222"><ele>50.0</ele><time>2026-03-22T10:52:45.998Z</time></trkpt><trkpt lat="45.08389108153514" lon="9.480589140303465"><ele>50.0</ele><time>2026-03-22T10:52:46.998Z</time></trkpt><trkpt lat="45.083820053996256" lon="9.48056042007296"><ele>50.0</ele><time>2026-03-22T10:52:47.998Z</time></trkpt><trkpt lat="45.083698055121125" lon="9.480527716709394"><ele>50.0</ele><time>2026-03-22T10:52:49.998Z</time></trkpt><trkpt lat="45.083624907635986" lon="9.480499218786786"><ele>50.0</ele><time>2026-03-22T10:52:50.998Z</time></trkpt><trkpt lat="45.08353890259349" lon="9.480485489727304"><ele>50.0</ele><time>2026-03-22T10:52:52.998Z</time></trkpt><trkpt lat="45.08341287452042" lon="9.480512011810012"><ele>50.0</ele><time>2026-03-22T10:52:54.998Z</time></trkpt><trkpt lat="45.08333010111245" lon="9.480561870597985"><ele>50.0</ele><time>2026-03-22T10:52:55.998Z</time></trkpt><trkpt lat="45.08323327168151" lon="9.480661489865117"><ele>50.0</ele><time>2026-03-22T10:52:56.998Z</time></trkpt><trkpt lat="45.08311257459742" lon="9.480727070798627"><ele>50.0</ele><time>2026-03-22T10:52:57.998Z</time></trkpt><trkpt lat="45.083003838677946" lon="9.480805420104145"><ele>50.0</ele><time>2026-03-22T10:52:58.997Z</time></trkpt><trkpt lat="45.08290814809355" lon="9.480873654432754"><ele>50.0</ele><time>2026-03-22T10:52:59.997Z</time></trkpt><trkpt lat="45.082803658013574" lon="9.480948051815554"><ele>50.0</ele><time>2026-03-22T10:53:00.997Z</time></trkpt><trkpt lat="45.082698669259266" lon="9.481015209299676"><ele>50.0</ele><time>2026-03-22T10:53:01.997Z</time></trkpt><trkpt lat="45.08260253394717" lon="9.481052884490444"><ele>50.0</ele><time>2026-03-22T10:53:02.997Z</time></trkpt><trkpt lat="45.08250922360434" lon="9.481047932740486"><ele>50.0</ele><time>2026-03-22T10:53:03.997Z</time></trkpt><trkpt lat="45.082398213672334" lon="9.481058992748565"><ele>50.0</ele><time>2026-03-22T10:53:04.997Z</time></trkpt><trkpt lat="45.082268137685794" lon="9.481011525534392"><ele>50.0</ele><time>2026-03-22T10:53:05.997Z</time></trkpt><trkpt lat="45.08211168300395" lon="9.480937581521541"><ele>50.0</ele><time>2026-03-22T10:53:06.997Z</time></trkpt><trkpt lat="45.08195352225291" lon="9.480867024556797"><ele>50.0</ele><time>2026-03-22T10:53:07.997Z</time></trkpt><trkpt lat="45.08179886636737" lon="9.48078558730975"><ele>50.0</ele><time>2026-03-22T10:53:08.997Z</time></trkpt><trkpt lat="45.08165444131079" lon="9.480707788330703"><ele>50.333333333333336</ele><time>2026-03-22T10:53:09.997Z</time></trkpt><trkpt lat="45.081511905415645" lon="9.480637010111234"><ele>50.66666666666667</ele><time>2026-03-22T10:53:10.997Z</time></trkpt><trkpt lat="45.08137238321201" lon="9.480562007561003"><ele>51.0</ele><time>2026-03-22T10:53:11.997Z</time></trkpt><trkpt lat="45.08122775880383" lon="9.480482096401635"><ele>50.0</ele><time>2026-03-22T10:53:12.997Z</time></trkpt><trkpt lat="45.081084912482915" lon="9.480410020757974"><ele>49.0</ele><time>2026-03-22T10:53:13.997Z</time></trkpt><trkpt lat="45.08094619215947" lon="9.480332263591508"><ele>48.0</ele><time>2026-03-22T10:53:15Z</time></trkpt><trkpt lat="45.080804382256375" lon="9.480261143556966"><ele>48.33333333333333</ele><time>2026-03-22T10:53:16Z</time></trkpt><trkpt lat="45.080653968107974" lon="9.48017552271541"><ele>48.666666666666664</ele><time>2026-03-22T10:53:17Z</time></trkpt><trkpt lat="45.080491472699016" lon="9.480089923468475"><ele>49.0</ele><time>2026-03-22T10:53:18Z</time></trkpt><trkpt lat="45.08031937092579" lon="9.48000223109815"><ele>49.0</ele><time>2026-03-22T10:53:19Z</time></trkpt><trkpt lat="45.0801612929756" lon="9.479923877278447"><ele>49.0</ele><time>2026-03-22T10:53:20Z</time></trkpt><trkpt lat="45.07998395898043" lon="9.479837739438484"><ele>49.0</ele><time>2026-03-22T10:53:21Z</time></trkpt><trkpt lat="45.07982023403808" lon="9.479746264009606"><ele>49.666666666666664</ele><time>2026-03-22T10:53:22Z</time></trkpt><trkpt lat="45.07967465801508" lon="9.479670050212464"><ele>50.33333333333333</ele><time>2026-03-22T10:53:23Z</time></trkpt><trkpt lat="45.07951984205008" lon="9.479592222430654"><ele>51.0</ele><time>2026-03-22T10:53:24Z</time></trkpt><trkpt lat="45.079348773670304" lon="9.479488566335533"><ele>51.0</ele><time>2026-03-22T10:53:25Z</time></trkpt><trkpt lat="45.079186380588006" lon="9.479397076895767"><ele>51.0</ele><time>2026-03-22T10:53:26Z</time></trkpt><trkpt lat="45.07904003422826" lon="9.479310214995309"><ele>51.0</ele><time>2026-03-22T10:53:27Z</time></trkpt><trkpt lat="45.0789149336563" lon="9.47922558227696"><ele>51.0</ele><time>2026-03-22T10:53:28Z</time></trkpt><trkpt lat="45.0787978682041" lon="9.479142655881791"><ele>51.0</ele><time>2026-03-22T10:53:29Z</time></trkpt><trkpt lat="45.07867226986391" lon="9.479066729244689"><ele>51.0</ele><time>2026-03-22T10:53:30Z</time></trkpt><trkpt lat="45.07855179195043" lon="9.479022743594488"><ele>51.0</ele><time>2026-03-22T10:53:31Z</time></trkpt><trkpt lat="45.07843391295433" lon="9.479017163366318"><ele>51.0</ele><time>2026-03-22T10:53:32Z</time></trkpt><trkpt lat="45.078273179762185" lon="9.47903600431472"><ele>51.0</ele><time>2026-03-22T10:53:33Z</time></trkpt><trkpt lat="45.078087410930344" lon="9.47906922213522"><ele>51.0</ele><time>2026-03-22T10:53:34Z</time></trkpt><trkpt lat="45.077927085429415" lon="9.479116715150509"><ele>50.66666666666667</ele><time>2026-03-22T10:53:35Z</time></trkpt><trkpt lat="45.07779444239018" lon="9.479154036134588"><ele>50.333333333333336</ele><time>2026-03-22T10:53:36Z</time></trkpt><trkpt lat="45.077662281985354" lon="9.479183817856352"><ele>50.0</ele><time>2026-03-22T10:53:37Z</time></trkpt><trkpt lat="45.077464562887556" lon="9.47920270614672"><ele>50.333333333333336</ele><time>2026-03-22T10:53:38Z</time></trkpt><trkpt lat="45.07731325571025" lon="9.479232669677268"><ele>50.66666666666667</ele><time>2026-03-22T10:53:39Z</time></trkpt><trkpt lat="45.07716096580694" lon="9.479262827824044"><ele>51.0</ele><time>2026-03-22T10:53:40Z</time></trkpt><trkpt lat="45.077005906328374" lon="9.479293534421009"><ele>51.0</ele><time>2026-03-22T10:53:41Z</time></trkpt><trkpt lat="45.076849984224474" lon="9.479329064067256"><ele>51.0</ele><time>2026-03-22T10:53:42Z</time></trkpt><trkpt lat="45.07669431719889" lon="9.479367650322978"><ele>51.0</ele><time>2026-03-22T10:53:43Z</time></trkpt><trkpt lat="45.07654205154684" lon="9.47940607500434"><ele>51.33333333333333</ele><time>2026-03-22T10:53:44Z</time></trkpt><trkpt lat="45.07638592509462" lon="9.47944490735737"><ele>51.666666666666664</ele><time>2026-03-22T10:53:45Z</time></trkpt><trkpt lat="45.07622933881915" lon="9.479483330826683"><ele>52.0</ele><time>2026-03-22T10:53:46Z</time></trkpt><trkpt lat="45.076074515324954" lon="9.479521321746445"><ele>52.0</ele><time>2026-03-22T10:53:47Z</time></trkpt><trkpt lat="45.07592018725739" lon="9.479559191093978"><ele>52.0</ele><time>2026-03-22T10:53:48Z</time></trkpt><trkpt lat="45.07576438586676" lon="9.4795947110714"><ele>52.0</ele><time>2026-03-22T10:53:48.999Z</time></trkpt><trkpt lat="45.07560742762428" lon="9.47963066704568"><ele>51.33333333333333</ele><time>2026-03-22T10:53:49.999Z</time></trkpt><trkpt lat="45.0754530876182" lon="9.479667419751435"><ele>50.66666666666667</ele><time>2026-03-22T10:53:50.999Z</time></trkpt><trkpt lat="45.07530000352267" lon="9.479703873409564"><ele>50.0</ele><time>2026-03-22T10:53:51.999Z</time></trkpt><trkpt lat="45.07514283230757" lon="9.479740750120882"><ele>50.0</ele><time>2026-03-22T10:53:52.999Z</time></trkpt><trkpt lat="45.074986357759684" lon="9.479776455890919"><ele>50.0</ele><time>2026-03-22T10:53:53.999Z</time></trkpt><trkpt lat="45.07483206219366" lon="9.479811664426128"><ele>50.0</ele><time>2026-03-22T10:53:54.999Z</time></trkpt><trkpt lat="45.074677780939886" lon="9.47984686971521"><ele>50.333333333333336</ele><time>2026-03-22T10:53:55.999Z</time></trkpt><trkpt lat="45.074521797063575" lon="9.479882811771237"><ele>50.66666666666667</ele><time>2026-03-22T10:53:56.999Z</time></trkpt><trkpt lat="45.07436686477798" lon="9.4799189190937"><ele>51.0</ele><time>2026-03-22T10:53:57.999Z</time></trkpt><trkpt lat="45.074211054012196" lon="9.479955231147063"><ele>51.0</ele><time>2026-03-22T10:53:58.999Z</time></trkpt><trkpt lat="45.07405618498809" lon="9.479991323727102"><ele>51.0</ele><time>2026-03-22T10:53:59.999Z</time></trkpt><trkpt lat="45.07390585602298" lon="9.480023578083312"><ele>51.0</ele><time>2026-03-22T10:54:00.999Z</time></trkpt><trkpt lat="45.07374952676231" lon="9.48005540203994"><ele>51.0</ele><time>2026-03-22T10:54:01.999Z</time></trkpt><trkpt lat="45.07361301876087" lon="9.480096876999417"><ele>51.0</ele><time>2026-03-22T10:54:02.999Z</time></trkpt><trkpt lat="45.073492055846955" lon="9.480155583917487"><ele>51.0</ele><time>2026-03-22T10:54:03.999Z</time></trkpt><trkpt lat="45.073391989246524" lon="9.480296825748278"><ele>51.0</ele><time>2026-03-22T10:54:04.999Z</time></trkpt><trkpt lat="45.07324339182418" lon="9.480424856793986"><ele>51.66666666666667</ele><time>2026-03-22T10:54:05.999Z</time></trkpt><trkpt lat="45.07309457703161" lon="9.480562576082109"><ele>52.333333333333336</ele><time>2026-03-22T10:54:06.999Z</time></trkpt><trkpt lat="45.07294089522907" lon="9.480716295004452"><ele>53.0</ele><time>2026-03-22T10:54:07.999Z</time></trkpt><trkpt lat="45.07279078088047" lon="9.48080706598151"><ele>53.0</ele><time>2026-03-22T10:54:08.999Z</time></trkpt><trkpt lat="45.072653109610876" lon="9.48092201132625"><ele>53.0</ele><time>2026-03-22T10:54:09.999Z</time></trkpt><trkpt lat="45.07251959477572" lon="9.48100124570295"><ele>53.0</ele><time>2026-03-22T10:54:10.999Z</time></trkpt><trkpt lat="45.07240424549428" lon="9.481025318173756"><ele>53.0</ele><time>2026-03-22T10:54:11.999Z</time></trkpt><trkpt lat="45.07227808555826" lon="9.481019292090853"><ele>53.333333333333336</ele><time>2026-03-22T10:54:12.999Z</time></trkpt><trkpt lat="45.07213538029543" lon="9.480991300489428"><ele>53.66666666666667</ele><time>2026-03-22T10:54:13.999Z</time></trkpt><trkpt lat="45.07197969206712" lon="9.480952459024298"><ele>54.0</ele><time>2026-03-22T10:54:14.999Z</time></trkpt><trkpt lat="45.07181420412668" lon="9.480930809314687"><ele>54.0</ele><time>2026-03-22T10:54:15.999Z</time></trkpt><trkpt lat="45.071671047286394" lon="9.480893136388037"><ele>54.0</ele><time>2026-03-22T10:54:16.999Z</time></trkpt><trkpt lat="45.07155794166657" lon="9.480869800807625"><ele>54.0</ele><time>2026-03-22T10:54:17.999Z</time></trkpt><trkpt lat="45.07143281280502" lon="9.48085199231757"><ele>54.0</ele><time>2026-03-22T10:54:18.999Z</time></trkpt><trkpt lat="45.07127840294758" lon="9.48086210064695"><ele>53.66666666666667</ele><time>2026-03-22T10:54:19.999Z</time></trkpt><trkpt lat="45.071109160163346" lon="9.480917849202573"><ele>53.333333333333336</ele><time>2026-03-22T10:54:20.999Z</time></trkpt><trkpt lat="45.07096272411671" lon="9.481012098208469"><ele>53.0</ele><time>2026-03-22T10:54:21.999Z</time></trkpt><trkpt lat="45.07081495762172" lon="9.481076157593789"><ele>52.66666666666667</ele><time>2026-03-22T10:54:22.999Z</time></trkpt><trkpt lat="45.07066373946797" lon="9.481150000411999"><ele>52.33333333333333</ele><time>2026-03-22T10:54:23.999Z</time></trkpt><trkpt lat="45.07052640028749" lon="9.48121757158408"><ele>52.0</ele><time>2026-03-22T10:54:24.999Z</time></trkpt><trkpt lat="45.070386112995735" lon="9.481285705291286"><ele>52.0</ele><time>2026-03-22T10:54:25.999Z</time></trkpt><trkpt lat="45.07022581286206" lon="9.481360449344072"><ele>52.0</ele><time>2026-03-22T10:54:26.999Z</time></trkpt><trkpt lat="45.07006450924604" lon="9.48143273710272"><ele>52.0</ele><time>2026-03-22T10:54:27.999Z</time></trkpt><trkpt lat="45.0699133545531" lon="9.481499765967538"><ele>52.0</ele><time>2026-03-22T10:54:28.999Z</time></trkpt><trkpt lat="45.06976364471667" lon="9.481567229525986"><ele>52.0</ele><time>2026-03-22T10:54:29.999Z</time></trkpt><trkpt lat="45.06959750310256" lon="9.48164302623809"><ele>52.0</ele><time>2026-03-22T10:54:30.999Z</time></trkpt><trkpt lat="45.069415771834414" lon="9.481724685856893"><ele>52.0</ele><time>2026-03-22T10:54:31.998Z</time></trkpt><trkpt lat="45.06923300797247" lon="9.481806808984231"><ele>52.0</ele><time>2026-03-22T10:54:32.998Z</time></trkpt><trkpt lat="45.06906681940694" lon="9.481880869419092"><ele>52.0</ele><time>2026-03-22T10:54:33.998Z</time></trkpt><trkpt lat="45.06891543525291" lon="9.481946475871732"><ele>52.33333333333333</ele><time>2026-03-22T10:54:34.998Z</time></trkpt><trkpt lat="45.06875692875766" lon="9.482016245751407"><ele>52.66666666666667</ele><time>2026-03-22T10:54:35.998Z</time></trkpt><trkpt lat="45.06859535647052" lon="9.482090969289425"><ele>53.0</ele><time>2026-03-22T10:54:36.998Z</time></trkpt><trkpt lat="45.06843357426916" lon="9.48216752707516"><ele>53.333333333333336</ele><time>2026-03-22T10:54:37.998Z</time></trkpt><trkpt lat="45.06826400408522" lon="9.482249695982915"><ele>53.66666666666667</ele><time>2026-03-22T10:54:38.998Z</time></trkpt><trkpt lat="45.06807999982424" lon="9.482338859234975"><ele>54.0</ele><time>2026-03-22T10:54:39.998Z</time></trkpt><trkpt lat="45.06789969691014" lon="9.482426918675435"><ele>54.0</ele><time>2026-03-22T10:54:40.998Z</time></trkpt><trkpt lat="45.067738262709426" lon="9.482507164700287"><ele>54.0</ele><time>2026-03-22T10:54:41.998Z</time></trkpt><trkpt lat="45.067601328109646" lon="9.482575232415044"><ele>54.0</ele><time>2026-03-22T10:54:42.998Z</time></trkpt><trkpt lat="45.06747055407983" lon="9.482639151884799"><ele>54.5</ele><time>2026-03-22T10:54:43.998Z</time></trkpt><trkpt lat="45.06732593323719" lon="9.482707906659968"><ele>55.0</ele><time>2026-03-22T10:54:44.998Z</time></trkpt><trkpt lat="45.067206630386224" lon="9.48278558846822"><ele>55.5</ele><time>2026-03-22T10:54:45.998Z</time></trkpt><trkpt lat="45.067084194887315" lon="9.48283749980706"><ele>56.0</ele><time>2026-03-22T10:54:46.998Z</time></trkpt><trkpt lat="45.066962725287695" lon="9.482892308997371"><ele>55.75</ele><time>2026-03-22T10:54:47.998Z</time></trkpt><trkpt lat="45.0668418441073" lon="9.482947421486095"><ele>55.5</ele><time>2026-03-22T10:54:48.998Z</time></trkpt><trkpt lat="45.06671548916869" lon="9.48299793268498"><ele>55.25</ele><time>2026-03-22T10:54:49.998Z</time></trkpt><trkpt lat="45.06659607065054" lon="9.483051991323611"><ele>55.0</ele><time>2026-03-22T10:54:50.998Z</time></trkpt><trkpt lat="45.06648667660004" lon="9.48310273085903"><ele>55.0</ele><time>2026-03-22T10:54:51.998Z</time></trkpt><trkpt lat="45.06638033544192" lon="9.48314753076125"><ele>55.0</ele><time>2026-03-22T10:54:52.998Z</time></trkpt><trkpt lat="45.06627618833933" lon="9.483179467622211"><ele>55.0</ele><time>2026-03-22T10:54:53.998Z</time></trkpt><trkpt lat="45.06618381301962" lon="9.483188924362883"><ele>55.0</ele><time>2026-03-22T10:54:54.998Z</time></trkpt><trkpt lat="45.0661001962956" lon="9.483156533910035"><ele>55.0</ele><time>2026-03-22T10:54:55.998Z</time></trkpt><trkpt lat="45.066009172504394" lon="9.483082680394515"><ele>55.0</ele><time>2026-03-22T10:54:56.998Z</time></trkpt><trkpt lat="45.06590574067344" lon="9.482975621371764"><ele>55.0</ele><time>2026-03-22T10:54:57.998Z</time></trkpt><trkpt lat="45.06578923936842" lon="9.482858999823973"><ele>55.0</ele><time>2026-03-22T10:54:58.998Z</time></trkpt><trkpt lat="45.06566081707394" lon="9.482752977964768"><ele>55.0</ele><time>2026-03-22T10:54:59.998Z</time></trkpt><trkpt lat="45.0655271410606" lon="9.48266450803517"><ele>55.0</ele><time>2026-03-22T10:55:00.998Z</time></trkpt><trkpt lat="45.065393268943595" lon="9.482593545647362"><ele>55.0</ele><time>2026-03-22T10:55:01.998Z</time></trkpt><trkpt lat="45.06523948663135" lon="9.482521740848334"><ele>55.0</ele><time>2026-03-22T10:55:02.998Z</time></trkpt><trkpt lat="45.06507223337692" lon="9.482442196546977"><ele>55.25</ele><time>2026-03-22T10:55:03.998Z</time></trkpt><trkpt lat="45.06493863265921" lon="9.48237437600648"><ele>55.5</ele><time>2026-03-22T10:55:04.998Z</time></trkpt><trkpt lat="45.064821761371846" lon="9.482303158615368"><ele>55.75</ele><time>2026-03-22T10:55:05.998Z</time></trkpt><trkpt lat="45.0647188719467" lon="9.482244002543903"><ele>56.0</ele><time>2026-03-22T10:55:06.998Z</time></trkpt><trkpt lat="45.064618696957574" lon="9.482204289649859"><ele>56.0</ele><time>2026-03-22T10:55:07.998Z</time></trkpt><trkpt lat="45.0645110374153" lon="9.482178823994722"><ele>56.0</ele><time>2026-03-22T10:55:08.998Z</time></trkpt><trkpt lat="45.064402057516254" lon="9.482178948011473"><ele>56.0</ele><time>2026-03-22T10:55:09.998Z</time></trkpt><trkpt lat="45.064269958491785" lon="9.482202141450797"><ele>56.0</ele><time>2026-03-22T10:55:10.998Z</time></trkpt><trkpt lat="45.0641041783575" lon="9.482229716999592"><ele>56.0</ele><time>2026-03-22T10:55:11.998Z</time></trkpt><trkpt lat="45.063969685897284" lon="9.482245987917949"><ele>56.0</ele><time>2026-03-22T10:55:12.998Z</time></trkpt><trkpt lat="45.06384657147801" lon="9.482253531437685"><ele>56.0</ele><time>2026-03-22T10:55:13.997Z</time></trkpt><trkpt lat="45.06372239790632" lon="9.482249891489374"><ele>56.0</ele><time>2026-03-22T10:55:14.997Z</time></trkpt><trkpt lat="45.06360050516705" lon="9.482262637870944"><ele>56.0</ele><time>2026-03-22T10:55:15.997Z</time></trkpt><trkpt lat="45.06346884703149" lon="9.482274192204828"><ele>56.0</ele><time>2026-03-22T10:55:16.997Z</time></trkpt><trkpt lat="45.063328372881685" lon="9.482282631992602"><ele>56.0</ele><time>2026-03-22T10:55:17.997Z</time></trkpt><trkpt lat="45.06321032974806" lon="9.482294146695047"><ele>56.0</ele><time>2026-03-22T10:55:18.997Z</time></trkpt><trkpt lat="45.06310621845318" lon="9.482296089616025"><ele>56.199999999999996</ele><time>2026-03-22T10:55:19.997Z</time></trkpt><trkpt lat="45.063010345838656" lon="9.482300698822304"><ele>56.39999999999999</ele><time>2026-03-22T10:55:21Z</time></trkpt><trkpt lat="45.062935947361694" lon="9.482303761699363"><ele>56.6</ele><time>2026-03-22T10:55:22Z</time></trkpt><trkpt lat="45.062830920394944" lon="9.482277758104818"><ele>56.8</ele><time>2026-03-22T10:55:24Z</time></trkpt><trkpt lat="45.06270575859977" lon="9.482391658370062"><ele>57.0</ele><time>2026-03-22T10:55:26Z</time></trkpt><trkpt lat="45.062665081396155" lon="9.482528134914093"><ele>57.0</ele><time>2026-03-22T10:55:27Z</time></trkpt><trkpt lat="45.06261377086032" lon="9.482697556399726"><ele>57.0</ele><time>2026-03-22T10:55:28Z</time></trkpt><trkpt lat="45.06254156409169" lon="9.482930042252049"><ele>57.0</ele><time>2026-03-22T10:55:29Z</time></trkpt><trkpt lat="45.06242986566586" lon="9.483339082051183"><ele>57.0</ele><time>2026-03-22T10:55:30Z</time></trkpt><trkpt lat="45.06237724265923" lon="9.483597602721607"><ele>57.0</ele><time>2026-03-22T10:55:31Z</time></trkpt><trkpt lat="45.062331950067005" lon="9.483876996242772"><ele>57.0</ele><time>2026-03-22T10:55:32Z</time></trkpt><trkpt lat="45.062293326100914" lon="9.484165463466217"><ele>57.0</ele><time>2026-03-22T10:55:33Z</time></trkpt><trkpt lat="45.062257716041096" lon="9.48445661122256"><ele>57.0</ele><time>2026-03-22T10:55:34Z</time></trkpt><trkpt lat="45.06222123984004" lon="9.484743875276367"><ele>57.0</ele><time>2026-03-22T10:55:35Z</time></trkpt><trkpt lat="45.06219045694888" lon="9.484981705163328"><ele>57.33333333333333</ele><time>2026-03-22T10:55:36Z</time></trkpt><trkpt lat="45.06216003850246" lon="9.485216719309499"><ele>57.666666666666664</ele><time>2026-03-22T10:55:37Z</time></trkpt><trkpt lat="45.06213061856287" lon="9.485441334869517"><ele>58.0</ele><time>2026-03-22T10:55:38Z</time></trkpt><trkpt lat="45.0621013282716" lon="9.48562191953471"><ele>58.666666666666664</ele><time>2026-03-22T10:55:39Z</time></trkpt><trkpt lat="45.06205549594108" lon="9.485840062672708"><ele>59.33333333333333</ele><time>2026-03-22T10:55:40Z</time></trkpt><trkpt lat="45.0620092123291" lon="9.48604636836826"><ele>60.0</ele><time>2026-03-22T10:55:41Z</time></trkpt><trkpt lat="45.06196418757134" lon="9.486247062708703"><ele>59.66666666666667</ele><time>2026-03-22T10:55:42Z</time></trkpt><trkpt lat="45.06190658922217" lon="9.4865094033218"><ele>59.333333333333336</ele><time>2026-03-22T10:55:43Z</time></trkpt><trkpt lat="45.06185782981993" lon="9.486740183061361"><ele>59.0</ele><time>2026-03-22T10:55:44Z</time></trkpt><trkpt lat="45.06181031423605" lon="9.486971832593879"><ele>58.66666666666667</ele><time>2026-03-22T10:55:45Z</time></trkpt><trkpt lat="45.06176365873672" lon="9.4872193833585"><ele>58.33333333333333</ele><time>2026-03-22T10:55:46Z</time></trkpt><trkpt lat="45.06172177312752" lon="9.487447593531822"><ele>58.0</ele><time>2026-03-22T10:55:47Z</time></trkpt><trkpt lat="45.06168602887309" lon="9.487628052428782"><ele>58.0</ele><time>2026-03-22T10:55:48Z</time></trkpt><trkpt lat="45.06165220063154" lon="9.487798838370418"><ele>58.0</ele><time>2026-03-22T10:55:49Z</time></trkpt><trkpt lat="45.061613912718585" lon="9.487989079410278"><ele>58.0</ele><time>2026-03-22T10:55:50Z</time></trkpt><trkpt lat="45.061579044539094" lon="9.48816250475012"><ele>58.0</ele><time>2026-03-22T10:55:51Z</time></trkpt><trkpt lat="45.061545310946585" lon="9.488330286827955"><ele>59.2</ele><time>2026-03-22T10:55:52Z</time></trkpt><trkpt lat="45.061514056295046" lon="9.488485739457081"><ele>60.4</ele><time>2026-03-22T10:55:53Z</time></trkpt><trkpt lat="45.06148613457928" lon="9.488624614757954"><ele>61.60000000000001</ele><time>2026-03-22T10:55:54Z</time></trkpt><trkpt lat="45.061460446814614" lon="9.48875586373918"><ele>62.800000000000004</ele><time>2026-03-22T10:55:55Z</time></trkpt><trkpt lat="45.06143174636834" lon="9.488911620076232"><ele>64.0</ele><time>2026-03-22T10:55:56Z</time></trkpt><trkpt lat="45.06139766059027" lon="9.489105112571226"><ele>65.33333333333333</ele><time>2026-03-22T10:55:57Z</time></trkpt><trkpt lat="45.06135417369983" lon="9.489355403980023"><ele>66.66666666666667</ele><time>2026-03-22T10:55:58Z</time></trkpt><trkpt lat="45.06130664106393" lon="9.48962811740897"><ele>68.0</ele><time>2026-03-22T10:55:59Z</time></trkpt><trkpt lat="45.06126031662684" lon="9.489899840445256"><ele>69.0</ele><time>2026-03-22T10:56:00Z</time></trkpt><trkpt lat="45.061219189784524" lon="9.49014466190004"><ele>70.0</ele><time>2026-03-22T10:56:01Z</time></trkpt><trkpt lat="45.06118459853739" lon="9.490357763694188"><ele>71.0</ele><time>2026-03-22T10:56:01.999Z</time></trkpt><trkpt lat="45.06115399951089" lon="9.49055137212352"><ele>71.0</ele><time>2026-03-22T10:56:02.999Z</time></trkpt><trkpt lat="45.06112252346564" lon="9.490751466960965"><ele>71.0</ele><time>2026-03-22T10:56:03.999Z</time></trkpt><trkpt lat="45.06109498101486" lon="9.49092700204903"><ele>71.0</ele><time>2026-03-22T10:56:04.999Z</time></trkpt><trkpt lat="45.061067706699106" lon="9.491102329539435"><ele>71.0</ele><time>2026-03-22T10:56:05.999Z</time></trkpt><trkpt lat="45.06104946633113" lon="9.491219584841138"><ele>70.25</ele><time>2026-03-22T10:56:06.999Z</time></trkpt><trkpt lat="45.06103036060889" lon="9.491344241436803"><ele>69.5</ele><time>2026-03-22T10:56:08.999Z</time></trkpt><trkpt lat="45.06096289953454" lon="9.491436953518992"><ele>68.75</ele><time>2026-03-22T10:56:11.999Z</time></trkpt><trkpt lat="45.06083792252115" lon="9.491441735362702"><ele>68.0</ele><time>2026-03-22T10:56:12.999Z</time></trkpt><trkpt lat="45.06069670514741" lon="9.491453174919481"><ele>68.0</ele><time>2026-03-22T10:56:13.999Z</time></trkpt><trkpt lat="45.06056922235009" lon="9.491475352189832"><ele>68.0</ele><time>2026-03-22T10:56:14.999Z</time></trkpt><trkpt lat="45.06046358959368" lon="9.49149417934725"><ele>68.0</ele><time>2026-03-22T10:56:15.999Z</time></trkpt><trkpt lat="45.06038277971118" lon="9.49150470207926"><ele>68.0</ele><time>2026-03-22T10:56:16.999Z</time></trkpt><trkpt lat="45.060271369191106" lon="9.49150572067704"><ele>68.0</ele><time>2026-03-22T10:56:17.999Z</time></trkpt><trkpt lat="45.06015068988637" lon="9.491516022598354"><ele>68.0</ele><time>2026-03-22T10:56:18.999Z</time></trkpt><trkpt lat="45.06004265696971" lon="9.49151349758645"><ele>68.0</ele><time>2026-03-22T10:56:19.999Z</time></trkpt><trkpt lat="45.05993373199544" lon="9.491520080784284"><ele>68.0</ele><time>2026-03-22T10:56:22.998Z</time></trkpt><trkpt lat="45.05986893838697" lon="9.491454614789872"><ele>68.0</ele><time>2026-03-22T10:56:23.998Z</time></trkpt><trkpt lat="45.05980551624199" lon="9.491416819083955"><ele>68.0</ele><time>2026-03-22T10:56:24.998Z</time></trkpt><trkpt lat="45.05974534292997" lon="9.491372443173578"><ele>68.0</ele><time>2026-03-22T10:56:25.998Z</time></trkpt><trkpt lat="45.05965684148192" lon="9.491292944866553"><ele>68.25</ele><time>2026-03-22T10:56:27.998Z</time></trkpt><trkpt lat="45.059613009142005" lon="9.491534285051115"><ele>68.5</ele><time>2026-03-22T10:56:30.998Z</time></trkpt><trkpt lat="45.059628132965656" lon="9.491671138901776"><ele>68.75</ele><time>2026-03-22T10:56:31.998Z</time></trkpt><trkpt lat="45.05961673184144" lon="9.491828185096475"><ele>69.0</ele><time>2026-03-22T10:56:32.998Z</time></trkpt><trkpt lat="45.059591355693875" lon="9.492010878503823"><ele>68.5</ele><time>2026-03-22T10:56:33.998Z</time></trkpt><trkpt lat="45.05955921151588" lon="9.492185820695976"><ele>68.0</ele><time>2026-03-22T10:56:34.998Z</time></trkpt><trkpt lat="45.05952672131436" lon="9.492355505536837"><ele>67.5</ele><time>2026-03-22T10:56:35.998Z</time></trkpt><trkpt lat="45.059489990596404" lon="9.492548534079578"><ele>67.0</ele><time>2026-03-22T10:56:36.998Z</time></trkpt><trkpt lat="45.05945181170385" lon="9.492768219178718"><ele>66.33333333333333</ele><time>2026-03-22T10:56:37.998Z</time></trkpt><trkpt lat="45.05940293265483" lon="9.492989847785434"><ele>65.66666666666667</ele><time>2026-03-22T10:56:38.998Z</time></trkpt><trkpt lat="45.05935130697017" lon="9.493219261359178"><ele>65.0</ele><time>2026-03-22T10:56:39.998Z</time></trkpt><trkpt lat="45.0593045148087" lon="9.49343452989514"><ele>65.0</ele><time>2026-03-22T10:56:40.998Z</time></trkpt><trkpt lat="45.059266659117604" lon="9.493623339137269"><ele>65.0</ele><time>2026-03-22T10:56:41.998Z</time></trkpt><trkpt lat="45.059234841831" lon="9.493792101250268"><ele>65.0</ele><time>2026-03-22T10:56:42.998Z</time></trkpt><trkpt lat="45.05920966427645" lon="9.493939506242551"><ele>65.0</ele><time>2026-03-22T10:56:43.998Z</time></trkpt><trkpt lat="45.05919535150739" lon="9.494068837338016"><ele>65.2</ele><time>2026-03-22T10:56:44.998Z</time></trkpt><trkpt lat="45.05920600276303" lon="9.494197954745616"><ele>65.4</ele><time>2026-03-22T10:56:45.998Z</time></trkpt><trkpt lat="45.05923726887791" lon="9.49430815813584"><ele>65.6</ele><time>2026-03-22T10:56:46.997Z</time></trkpt><trkpt lat="45.05932670704866" lon="9.494344912100985"><ele>65.8</ele><time>2026-03-22T10:56:47.997Z</time></trkpt><trkpt lat="45.059228171745616" lon="9.494444520538725"><ele>66.0</ele><time>2026-03-22T10:56:49.997Z</time></trkpt><trkpt lat="45.05917693167295" lon="9.494616091831661"><ele>66.0</ele><time>2026-03-22T10:56:50.997Z</time></trkpt><trkpt lat="45.05911495707596" lon="9.49482599741155"><ele>66.0</ele><time>2026-03-22T10:56:51.997Z</time></trkpt><trkpt lat="45.059062083154124" lon="9.49500433335442"><ele>66.0</ele><time>2026-03-22T10:56:52.997Z</time></trkpt><trkpt lat="45.0590175680346" lon="9.495154020950336"><ele>66.0</ele><time>2026-03-22T10:56:53.997Z</time></trkpt><trkpt lat="45.05897702580593" lon="9.495290954270697"><ele>66.0</ele><time>2026-03-22T10:56:54.997Z</time></trkpt><trkpt lat="45.05893812836439" lon="9.495424847824996"><ele>66.0</ele><time>2026-03-22T10:56:55.997Z</time></trkpt><trkpt lat="45.058904219288266" lon="9.495541570420032"><ele>66.0</ele><time>2026-03-22T10:56:56.997Z</time></trkpt><trkpt lat="45.0588610757975" lon="9.495690079959715"><ele>66.0</ele><time>2026-03-22T10:56:57.997Z</time></trkpt><trkpt lat="45.05880912968988" lon="9.49586888995125"><ele>66.0</ele><time>2026-03-22T10:56:58.997Z</time></trkpt><trkpt lat="45.05874884053902" lon="9.496061776182767"><ele>65.33333333333333</ele><time>2026-03-22T10:56:59.997Z</time></trkpt><trkpt lat="45.058674157876474" lon="9.496300195797328"><ele>64.66666666666666</ele><time>2026-03-22T10:57:00.997Z</time></trkpt><trkpt lat="45.05860438896256" lon="9.49651062312058"><ele>64.0</ele><time>2026-03-22T10:57:01.997Z</time></trkpt><trkpt lat="45.05853170287151" lon="9.496715159757668"><ele>64.0</ele><time>2026-03-22T10:57:02.997Z</time></trkpt><trkpt lat="45.05845629164112" lon="9.496899365384486"><ele>64.0</ele><time>2026-03-22T10:57:03.997Z</time></trkpt><trkpt lat="45.05838448602076" lon="9.497068806832234"><ele>64.0</ele><time>2026-03-22T10:57:04.997Z</time></trkpt><trkpt lat="45.058320627388966" lon="9.497217340483147"><ele>64.0</ele><time>2026-03-22T10:57:05.997Z</time></trkpt><trkpt lat="45.05825660979597" lon="9.497365241162301"><ele>64.0</ele><time>2026-03-22T10:57:06.997Z</time></trkpt><trkpt lat="45.05818201706599" lon="9.49754707742157"><ele>64.0</ele><time>2026-03-22T10:57:07.997Z</time></trkpt><trkpt lat="45.05810397551199" lon="9.497739938435855"><ele>64.0</ele><time>2026-03-22T10:57:08.997Z</time></trkpt><trkpt lat="45.05801413372186" lon="9.497961960674454"><ele>64.66666666666666</ele><time>2026-03-22T10:57:09.997Z</time></trkpt><trkpt lat="45.05791157678914" lon="9.498210845862467"><ele>65.33333333333333</ele><time>2026-03-22T10:57:10.997Z</time></trkpt><trkpt lat="45.0578221237933" lon="9.498427204616595"><ele>66.0</ele><time>2026-03-22T10:57:11.997Z</time></trkpt><trkpt lat="45.057738962407534" lon="9.498627954453784"><ele>66.66666666666667</ele><time>2026-03-22T10:57:12.997Z</time></trkpt><trkpt lat="45.05766325712829" lon="9.498810446504582"><ele>67.33333333333334</ele><time>2026-03-22T10:57:13.997Z</time></trkpt><trkpt lat="45.05758573332383" lon="9.498997321951794"><ele>68.0</ele><time>2026-03-22T10:57:14.997Z</time></trkpt><trkpt lat="45.05750241117687" lon="9.499196113019954"><ele>68.0</ele><time>2026-03-22T10:57:15.997Z</time></trkpt><trkpt lat="45.057421361074795" lon="9.499387860589584"><ele>68.0</ele><time>2026-03-22T10:57:16.997Z</time></trkpt><trkpt lat="45.057339603858146" lon="9.499581281113045"><ele>68.0</ele><time>2026-03-22T10:57:17.997Z</time></trkpt><trkpt lat="45.05725919799575" lon="9.499771504592427"><ele>68.0</ele><time>2026-03-22T10:57:18.997Z</time></trkpt><trkpt lat="45.05719347988289" lon="9.499926979979511"><ele>68.0</ele><time>2026-03-22T10:57:19.997Z</time></trkpt><trkpt lat="45.05713269464849" lon="9.50007276153383"><ele>68.0</ele><time>2026-03-22T10:57:20.997Z</time></trkpt><trkpt lat="45.05707788812742" lon="9.500199507328162"><ele>68.0</ele><time>2026-03-22T10:57:21.997Z</time></trkpt><trkpt lat="45.057004429119836" lon="9.500301727861817"><ele>68.0</ele><time>2026-03-22T10:57:22.997Z</time></trkpt><trkpt lat="45.056898413846824" lon="9.500376984697258"><ele>68.0</ele><time>2026-03-22T10:57:23.997Z</time></trkpt><trkpt lat="45.056724225037726" lon="9.500368590113515"><ele>68.0</ele><time>2026-03-22T10:57:24.997Z</time></trkpt><trkpt lat="45.05652716596816" lon="9.500392617798349"><ele>68.0</ele><time>2026-03-22T10:57:25.997Z</time></trkpt><trkpt lat="45.05634004484176" lon="9.500396499801475"><ele>68.0</ele><time>2026-03-22T10:57:26.999Z</time></trkpt><trkpt lat="45.056151418480745" lon="9.500411789282518"><ele>68.0</ele><time>2026-03-22T10:57:27.999Z</time></trkpt><trkpt lat="45.05598599118092" lon="9.500426820818248"><ele>68.0</ele><time>2026-03-22T10:57:28.999Z</time></trkpt><trkpt lat="45.05583295954147" lon="9.500437972638112"><ele>68.0</ele><time>2026-03-22T10:57:29.999Z</time></trkpt><trkpt lat="45.05569638587304" lon="9.500450331255585"><ele>68.0</ele><time>2026-03-22T10:57:30.999Z</time></trkpt><trkpt lat="45.05557745559781" lon="9.500462514857736"><ele>68.0</ele><time>2026-03-22T10:57:31.999Z</time></trkpt><trkpt lat="45.05547267707462" lon="9.500466738512333"><ele>67.6</ele><time>2026-03-22T10:57:32.999Z</time></trkpt><trkpt lat="45.05539364017868" lon="9.500470097559631"><ele>67.19999999999999</ele><time>2026-03-22T10:57:33.999Z</time></trkpt><trkpt lat="45.05530150057636" lon="9.500489864674703"><ele>66.8</ele><time>2026-03-22T10:57:35.999Z</time></trkpt><trkpt lat="45.05523359078748" lon="9.500507581690249"><ele>66.39999999999999</ele><time>2026-03-22T10:57:45.999Z</time></trkpt><trkpt lat="45.05518153711849" lon="9.500673720603821"><ele>66.0</ele><time>2026-03-22T10:57:46.999Z</time></trkpt><trkpt lat="45.05518797027269" lon="9.500809109717498"><ele>66.0</ele><time>2026-03-22T10:57:47.999Z</time></trkpt><trkpt lat="45.05519501253776" lon="9.5009573185478"><ele>66.0</ele><time>2026-03-22T10:57:48.999Z</time></trkpt><trkpt lat="45.055203335415385" lon="9.501132478323875"><ele>66.0</ele><time>2026-03-22T10:57:49.999Z</time></trkpt><trkpt lat="45.05521332462312" lon="9.501342706802955"><ele>66.0</ele><time>2026-03-22T10:57:50.999Z</time></trkpt><trkpt lat="45.05522455618644" lon="9.501579081538074"><ele>66.0</ele><time>2026-03-22T10:57:51.999Z</time></trkpt><trkpt lat="45.055236634426215" lon="9.501833275204739"><ele>66.0</ele><time>2026-03-22T10:57:52.999Z</time></trkpt><trkpt lat="45.05524910599514" lon="9.502095746581404"><ele>66.0</ele><time>2026-03-22T10:57:53.999Z</time></trkpt><trkpt lat="45.05526236311345" lon="9.502361978893399"><ele>65.66666666666667</ele><time>2026-03-22T10:57:54.999Z</time></trkpt><trkpt lat="45.05527588404396" lon="9.502629386911279"><ele>65.33333333333334</ele><time>2026-03-22T10:57:55.999Z</time></trkpt><trkpt lat="45.05528951772066" lon="9.502899024862712"><ele>65.0</ele><time>2026-03-22T10:57:56.999Z</time></trkpt><trkpt lat="45.055302338487" lon="9.503152585927527"><ele>65.66666666666667</ele><time>2026-03-22T10:57:57.999Z</time></trkpt><trkpt lat="45.055315378065934" lon="9.503390859593289"><ele>66.33333333333333</ele><time>2026-03-22T10:57:58.999Z</time></trkpt><trkpt lat="45.05532829024666" lon="9.503627880938692"><ele>67.0</ele><time>2026-03-22T10:57:59.999Z</time></trkpt><trkpt lat="45.05534185668573" lon="9.503877290939492"><ele>68.0</ele><time>2026-03-22T10:58:00.999Z</time></trkpt><trkpt lat="45.055355485053624" lon="9.504133484035728"><ele>69.0</ele><time>2026-03-22T10:58:01.999Z</time></trkpt><trkpt lat="45.0553695372911" lon="9.504399537721717"><ele>70.0</ele><time>2026-03-22T10:58:02.999Z</time></trkpt><trkpt lat="45.05538310932579" lon="9.50465649972081"><ele>71.66666666666666</ele><time>2026-03-22T10:58:03.999Z</time></trkpt><trkpt lat="45.05539523094131" lon="9.504884324168112"><ele>73.33333333333333</ele><time>2026-03-22T10:58:04.999Z</time></trkpt><trkpt lat="45.05540668657924" lon="9.505095926548423"><ele>75.0</ele><time>2026-03-22T10:58:05.999Z</time></trkpt><trkpt lat="45.05541745486427" lon="9.505294831753577"><ele>75.25</ele><time>2026-03-22T10:58:06.999Z</time></trkpt><trkpt lat="45.055428873707896" lon="9.505501822023275"><ele>75.5</ele><time>2026-03-22T10:58:07.999Z</time></trkpt><trkpt lat="45.055441550581065" lon="9.50571399271713"><ele>75.75</ele><time>2026-03-22T10:58:08.999Z</time></trkpt><trkpt lat="45.055452818197054" lon="9.505902577007365"><ele>76.0</ele><time>2026-03-22T10:58:09.999Z</time></trkpt><trkpt lat="45.05546273051786" lon="9.506078693181896"><ele>76.0</ele><time>2026-03-22T10:58:10.999Z</time></trkpt><trkpt lat="45.05547692068494" lon="9.506237591808805"><ele>76.0</ele><time>2026-03-22T10:58:11.999Z</time></trkpt><trkpt lat="45.05539620479879" lon="9.506373786539474"><ele>76.0</ele><time>2026-03-22T10:58:12.999Z</time></trkpt><trkpt lat="45.055387493108974" lon="9.506548114132528"><ele>76.0</ele><time>2026-03-22T10:58:13.999Z</time></trkpt><trkpt lat="45.05545725192067" lon="9.506728505433559"><ele>74.25</ele><time>2026-03-22T10:58:14.999Z</time></trkpt><trkpt lat="45.055509501799634" lon="9.506892053567704"><ele>72.5</ele><time>2026-03-22T10:58:15.999Z</time></trkpt><trkpt lat="45.055517424893246" lon="9.507105305185947"><ele>70.75</ele><time>2026-03-22T10:58:16.999Z</time></trkpt><trkpt lat="45.05552826112312" lon="9.507329336614111"><ele>69.0</ele><time>2026-03-22T10:58:17.999Z</time></trkpt><trkpt lat="45.055540473661864" lon="9.507581816559286"><ele>68.33333333333333</ele><time>2026-03-22T10:58:18.999Z</time></trkpt><trkpt lat="45.05555181103914" lon="9.507839379216007"><ele>67.66666666666666</ele><time>2026-03-22T10:58:19.999Z</time></trkpt><trkpt lat="45.05556445172847" lon="9.508104261335317"><ele>67.0</ele><time>2026-03-22T10:58:20.999Z</time></trkpt><trkpt lat="45.055577439705516" lon="9.50836499868013"><ele>67.0</ele><time>2026-03-22T10:58:21.999Z</time></trkpt><trkpt lat="45.05559157501543" lon="9.50862024980366"><ele>67.0</ele><time>2026-03-22T10:58:22.999Z</time></trkpt><trkpt lat="45.05560386034712" lon="9.508875975267802"><ele>67.0</ele><time>2026-03-22T10:58:23.999Z</time></trkpt><trkpt lat="45.05561720649773" lon="9.50916424711974"><ele>67.0</ele><time>2026-03-22T10:58:24.999Z</time></trkpt><trkpt lat="45.055631585587136" lon="9.509463035264002"><ele>67.0</ele><time>2026-03-22T10:58:25.999Z</time></trkpt><trkpt lat="45.055646022224856" lon="9.509771379884942"><ele>67.0</ele><time>2026-03-22T10:58:26.999Z</time></trkpt><trkpt lat="45.05566075729081" lon="9.51007600075313"><ele>67.0</ele><time>2026-03-22T10:58:27.998Z</time></trkpt><trkpt lat="45.05567523060046" lon="9.510378982908572"><ele>67.0</ele><time>2026-03-22T10:58:28.998Z</time></trkpt><trkpt lat="45.05568986440832" lon="9.510689669372614"><ele>67.0</ele><time>2026-03-22T10:58:29.998Z</time></trkpt><trkpt lat="45.05570471809773" lon="9.51100551111382"><ele>67.0</ele><time>2026-03-22T10:58:30.998Z</time></trkpt><trkpt lat="45.0557199073441" lon="9.511328363195455"><ele>67.0</ele><time>2026-03-22T10:58:31.998Z</time></trkpt><trkpt lat="45.05573552045513" lon="9.511659606653666"><ele>67.0</ele><time>2026-03-22T10:58:32.998Z</time></trkpt><trkpt lat="45.05575094647108" lon="9.511986984901409"><ele>67.0</ele><time>2026-03-22T10:58:33.998Z</time></trkpt><trkpt lat="45.055766776411396" lon="9.512322935411337"><ele>66.5</ele><time>2026-03-22T10:58:34.998Z</time></trkpt><trkpt lat="45.05578223816584" lon="9.512651072037665"><ele>66.0</ele><time>2026-03-22T10:58:35.998Z</time></trkpt><trkpt lat="45.05579757249324" lon="9.5129765045043"><ele>65.5</ele><time>2026-03-22T10:58:36.998Z</time></trkpt><trkpt lat="45.05581283910474" lon="9.513298710073288"><ele>65.0</ele><time>2026-03-22T10:58:37.998Z</time></trkpt><trkpt lat="45.05582824760079" lon="9.51362233261585"><ele>65.5</ele><time>2026-03-22T10:58:38.998Z</time></trkpt><trkpt lat="45.05584367975983" lon="9.513946105990755"><ele>66.0</ele><time>2026-03-22T10:58:39.998Z</time></trkpt><trkpt lat="45.055859512186856" lon="9.51427778302676"><ele>65.0</ele><time>2026-03-22T10:58:40.998Z</time></trkpt><trkpt lat="45.055875265698546" lon="9.514608301697107"><ele>64.0</ele><time>2026-03-22T10:58:41.998Z</time></trkpt><trkpt lat="45.05589092038186" lon="9.514934928717562"><ele>64.0</ele><time>2026-03-22T10:58:42.998Z</time></trkpt><trkpt lat="45.055986804631964" lon="9.515261156906755"><ele>64.0</ele><time>2026-03-22T10:58:43.998Z</time></trkpt><trkpt lat="45.05600411044659" lon="9.515593378554861"><ele>63.5</ele><time>2026-03-22T10:58:44.998Z</time></trkpt><trkpt lat="45.05602317974084" lon="9.51592870613586"><ele>63.0</ele><time>2026-03-22T10:58:45.998Z</time></trkpt><trkpt lat="45.05604112193512" lon="9.51627970488507"><ele>62.5</ele><time>2026-03-22T10:58:46.998Z</time></trkpt><trkpt lat="45.055972141221595" lon="9.516641542200611"><ele>62.0</ele><time>2026-03-22T10:58:47.998Z</time></trkpt><trkpt lat="45.05598914373447" lon="9.516999511913186"><ele>62.0</ele><time>2026-03-22T10:58:48.998Z</time></trkpt><trkpt lat="45.0560060190891" lon="9.517344884503393"><ele>62.0</ele><time>2026-03-22T10:58:49.998Z</time></trkpt><trkpt lat="45.05602323479875" lon="9.51769290303619"><ele>61.5</ele><time>2026-03-22T10:58:50.998Z</time></trkpt><trkpt lat="45.05603977755722" lon="9.518027317489278"><ele>61.0</ele><time>2026-03-22T10:58:51.998Z</time></trkpt><trkpt lat="45.056054952989086" lon="9.51833409152501"><ele>61.0</ele><time>2026-03-22T10:58:52.998Z</time></trkpt><trkpt lat="45.05606935087823" lon="9.518625146981114"><ele>61.0</ele><time>2026-03-22T10:58:53.998Z</time></trkpt><trkpt lat="45.05608284007817" lon="9.518897833603646"><ele>61.0</ele><time>2026-03-22T10:58:54.998Z</time></trkpt><trkpt lat="45.05609502204565" lon="9.519144030700344"><ele>61.0</ele><time>2026-03-22T10:58:55.998Z</time></trkpt><trkpt lat="45.056106867321404" lon="9.519383251743967"><ele>61.0</ele><time>2026-03-22T10:58:56.998Z</time></trkpt><trkpt lat="45.05611800547413" lon="9.519608192345622"><ele>61.0</ele><time>2026-03-22T10:58:57.998Z</time></trkpt><trkpt lat="45.05612994828376" lon="9.519849383537533"><ele>61.33333333333333</ele><time>2026-03-22T10:58:58.998Z</time></trkpt><trkpt lat="45.0561420009454" lon="9.520092993119027"><ele>61.66666666666667</ele><time>2026-03-22T10:58:59.998Z</time></trkpt><trkpt lat="45.05615535327451" lon="9.520363118500521"><ele>62.0</ele><time>2026-03-22T10:59:00.998Z</time></trkpt><trkpt lat="45.05617017152525" lon="9.520662899533098"><ele>62.0</ele><time>2026-03-22T10:59:01.998Z</time></trkpt><trkpt lat="45.05618422151759" lon="9.520947138726154"><ele>62.0</ele><time>2026-03-22T10:59:02.998Z</time></trkpt><trkpt lat="45.05619695348844" lon="9.52120471388356"><ele>62.0</ele><time>2026-03-22T10:59:03.998Z</time></trkpt><trkpt lat="45.05621006383483" lon="9.521469943329345"><ele>62.0</ele><time>2026-03-22T10:59:04.998Z</time></trkpt><trkpt lat="45.056223270419615" lon="9.521737120099779"><ele>62.0</ele><time>2026-03-22T10:59:05.998Z</time></trkpt><trkpt lat="45.056236834642036" lon="9.522011531615254"><ele>62.0</ele><time>2026-03-22T10:59:06.998Z</time></trkpt><trkpt lat="45.0562503839107" lon="9.522284961404374"><ele>62.0</ele><time>2026-03-22T10:59:07.998Z</time></trkpt><trkpt lat="45.05626287755044" lon="9.522536320827752"><ele>62.0</ele><time>2026-03-22T10:59:08.998Z</time></trkpt><trkpt lat="45.056274814080034" lon="9.522776471934266"><ele>62.0</ele><time>2026-03-22T10:59:09.998Z</time></trkpt><trkpt lat="45.0562871356331" lon="9.523024369409024"><ele>62.0</ele><time>2026-03-22T10:59:10.998Z</time></trkpt><trkpt lat="45.056298321932566" lon="9.52324942658546"><ele>62.0</ele><time>2026-03-22T10:59:11.998Z</time></trkpt><trkpt lat="45.05630868211529" lon="9.52345786324247"><ele>62.0</ele><time>2026-03-22T10:59:12.997Z</time></trkpt><trkpt lat="45.05631802142299" lon="9.523645761332634"><ele>62.0</ele><time>2026-03-22T10:59:13.997Z</time></trkpt><trkpt lat="45.056326039922226" lon="9.523807084987808"><ele>62.66666666666667</ele><time>2026-03-22T10:59:14.997Z</time></trkpt><trkpt lat="45.05633206915407" lon="9.523928386902531"><ele>63.333333333333336</ele><time>2026-03-22T10:59:15.997Z</time></trkpt><trkpt lat="45.05633730904313" lon="9.5240338083545"><ele>64.0</ele><time>2026-03-22T10:59:16.997Z</time></trkpt><trkpt lat="45.056341775449965" lon="9.524123667869858"><ele>64.66666666666667</ele><time>2026-03-22T10:59:17.997Z</time></trkpt><trkpt lat="45.056330226745125" lon="9.524211989514212"><ele>65.33333333333333</ele><time>2026-03-22T10:59:19.997Z</time></trkpt><trkpt lat="45.056254140691394" lon="9.524205147644558"><ele>66.0</ele><time>2026-03-22T10:59:20.997Z</time></trkpt><trkpt lat="45.056165083399776" lon="9.52417422960304"><ele>66.0</ele><time>2026-03-22T10:59:21.997Z</time></trkpt><trkpt lat="45.056067463418316" lon="9.524127012512007"><ele>66.0</ele><time>2026-03-22T10:59:22.997Z</time></trkpt><trkpt lat="45.05594720842341" lon="9.524083323724353"><ele>66.0</ele><time>2026-03-22T10:59:23.997Z</time></trkpt><trkpt lat="45.0557872783562" lon="9.524026836972352"><ele>66.0</ele><time>2026-03-22T10:59:24.997Z</time></trkpt><trkpt lat="45.055605023956296" lon="9.523957376819999"><ele>67.66666666666667</ele><time>2026-03-22T10:59:25.997Z</time></trkpt><trkpt lat="45.055421134049666" lon="9.523888353786692"><ele>69.33333333333334</ele><time>2026-03-22T10:59:26.997Z</time></trkpt><trkpt lat="45.05523776602661" lon="9.523821589917874"><ele>71.0</ele><time>2026-03-22T10:59:27.997Z</time></trkpt><trkpt lat="45.05506617529714" lon="9.523750838161106"><ele>68.66666666666667</ele><time>2026-03-22T10:59:28.997Z</time></trkpt><trkpt lat="45.0548882673399" lon="9.523687586697468"><ele>66.33333333333333</ele><time>2026-03-22T10:59:29.997Z</time></trkpt><trkpt lat="45.05469910793107" lon="9.52361323087564"><ele>64.0</ele><time>2026-03-22T10:59:30.997Z</time></trkpt><trkpt lat="45.0545248970806" lon="9.523550371478857"><ele>64.0</ele><time>2026-03-22T10:59:31.997Z</time></trkpt><trkpt lat="45.054349517883615" lon="9.52348591836223"><ele>64.0</ele><time>2026-03-22T10:59:33Z</time></trkpt><trkpt lat="45.054152450679105" lon="9.523412651328538"><ele>64.0</ele><time>2026-03-22T10:59:34Z</time></trkpt><trkpt lat="45.05396289117966" lon="9.523340896594062"><ele>65.66666666666666</ele><time>2026-03-22T10:59:35Z</time></trkpt><trkpt lat="45.053769354844455" lon="9.523267680807171"><ele>67.33333333333333</ele><time>2026-03-22T10:59:36Z</time></trkpt><trkpt lat="45.05356624520796" lon="9.52319301350992"><ele>69.0</ele><time>2026-03-22T10:59:37Z</time></trkpt><trkpt lat="45.053371062759375" lon="9.523118422203869"><ele>68.0</ele><time>2026-03-22T10:59:38Z</time></trkpt><trkpt lat="45.05318199922794" lon="9.523046959421086"><ele>67.0</ele><time>2026-03-22T10:59:39Z</time></trkpt><trkpt lat="45.052963439017205" lon="9.522970944511608"><ele>66.0</ele><time>2026-03-22T10:59:40Z</time></trkpt><trkpt lat="45.05275984931761" lon="9.522896704054792"><ele>65.0</ele><time>2026-03-22T10:59:41Z</time></trkpt><trkpt lat="45.05255072402752" lon="9.522814746998225"><ele>64.0</ele><time>2026-03-22T10:59:42Z</time></trkpt><trkpt lat="45.05234065552959" lon="9.522733608137855"><ele>63.0</ele><time>2026-03-22T10:59:43Z</time></trkpt><trkpt lat="45.05213018271676" lon="9.522654467508591"><ele>63.0</ele><time>2026-03-22T10:59:44Z</time></trkpt><trkpt lat="45.051912453149136" lon="9.52257760302378"><ele>63.0</ele><time>2026-03-22T10:59:45Z</time></trkpt><trkpt lat="45.05169471552491" lon="9.5224972971065"><ele>63.0</ele><time>2026-03-22T10:59:46Z</time></trkpt><trkpt lat="45.0514790470066" lon="9.522421399026358"><ele>63.0</ele><time>2026-03-22T10:59:47Z</time></trkpt><trkpt lat="45.051264429365375" lon="9.522344591364346"><ele>63.0</ele><time>2026-03-22T10:59:48Z</time></trkpt><trkpt lat="45.05106970856709" lon="9.522286277890336"><ele>63.0</ele><time>2026-03-22T10:59:49Z</time></trkpt><trkpt lat="45.0508676265732" lon="9.52221072395211"><ele>63.0</ele><time>2026-03-22T10:59:50Z</time></trkpt><trkpt lat="45.05066492184802" lon="9.522126884770614"><ele>63.0</ele><time>2026-03-22T10:59:51Z</time></trkpt><trkpt lat="45.05046259199531" lon="9.522047524258122"><ele>63.0</ele><time>2026-03-22T10:59:52Z</time></trkpt><trkpt lat="45.05025526786004" lon="9.521972377930146"><ele>63.0</ele><time>2026-03-22T10:59:53Z</time></trkpt><trkpt lat="45.0500440702458" lon="9.521902537450329"><ele>63.0</ele><time>2026-03-22T10:59:54Z</time></trkpt><trkpt lat="45.049837470245514" lon="9.521822539719917"><ele>63.0</ele><time>2026-03-22T10:59:55Z</time></trkpt><trkpt lat="45.04962692649994" lon="9.52174662372558"><ele>63.33333333333333</ele><time>2026-03-22T10:59:56Z</time></trkpt><trkpt lat="45.04941571233499" lon="9.521668917979506"><ele>63.666666666666664</ele><time>2026-03-22T10:59:57Z</time></trkpt><trkpt lat="45.049208781704216" lon="9.521584919444535"><ele>64.0</ele><time>2026-03-22T10:59:58Z</time></trkpt><trkpt lat="45.04899176511966" lon="9.52150891146105"><ele>64.0</ele><time>2026-03-22T10:59:59Z</time></trkpt><trkpt lat="45.04877858297432" lon="9.521430157988258"><ele>64.0</ele><time>2026-03-22T11:00:00Z</time></trkpt><trkpt lat="45.04856761726929" lon="9.521353483683287"><ele>64.0</ele><time>2026-03-22T11:00:01Z</time></trkpt><trkpt lat="45.04835644964034" lon="9.521278134766018"><ele>64.0</ele><time>2026-03-22T11:00:02Z</time></trkpt><trkpt lat="45.048141752422794" lon="9.52119583376439"><ele>64.0</ele><time>2026-03-22T11:00:03Z</time></trkpt><trkpt lat="45.04792580940757" lon="9.521110932084488"><ele>64.0</ele><time>2026-03-22T11:00:04Z</time></trkpt><trkpt lat="45.047710198419274" lon="9.52103626262878"><ele>64.0</ele><time>2026-03-22T11:00:05Z</time></trkpt><trkpt lat="45.04749431364991" lon="9.520954080177773"><ele>64.0</ele><time>2026-03-22T11:00:05.999Z</time></trkpt><trkpt lat="45.047274716666344" lon="9.520874928239765"><ele>64.5</ele><time>2026-03-22T11:00:06.999Z</time></trkpt><trkpt lat="45.04705703239842" lon="9.52079188020503"><ele>65.0</ele><time>2026-03-22T11:00:07.999Z</time></trkpt><trkpt lat="45.04683900840121" lon="9.520706891988373"><ele>65.0</ele><time>2026-03-22T11:00:08.999Z</time></trkpt><trkpt lat="45.046613326564234" lon="9.520621833842016"><ele>65.0</ele><time>2026-03-22T11:00:09.999Z</time></trkpt><trkpt lat="45.04639748905004" lon="9.52053690299306"><ele>65.0</ele><time>2026-03-22T11:00:10.999Z</time></trkpt><trkpt lat="45.0461789476604" lon="9.52045524847332"><ele>65.0</ele><time>2026-03-22T11:00:11.999Z</time></trkpt><trkpt lat="45.04596479638064" lon="9.520374952301351"><ele>65.0</ele><time>2026-03-22T11:00:12.999Z</time></trkpt><trkpt lat="45.04574878062329" lon="9.520295785036579"><ele>65.0</ele><time>2026-03-22T11:00:13.999Z</time></trkpt><trkpt lat="45.045534606021235" lon="9.520215287382243"><ele>65.0</ele><time>2026-03-22T11:00:14.999Z</time></trkpt><trkpt lat="45.04532020640968" lon="9.520138280206785"><ele>65.0</ele><time>2026-03-22T11:00:15.999Z</time></trkpt><trkpt lat="45.04511935437555" lon="9.52006702099018"><ele>64.66666666666667</ele><time>2026-03-22T11:00:16.999Z</time></trkpt><trkpt lat="45.04494136055108" lon="9.519996498242671"><ele>64.33333333333333</ele><time>2026-03-22T11:00:17.999Z</time></trkpt><trkpt lat="45.04473362065613" lon="9.519920032406816"><ele>64.0</ele><time>2026-03-22T11:00:18.999Z</time></trkpt><trkpt lat="45.04452463380451" lon="9.51983756526435"><ele>64.0</ele><time>2026-03-22T11:00:19.999Z</time></trkpt><trkpt lat="45.04430565307167" lon="9.519757102492228"><ele>64.0</ele><time>2026-03-22T11:00:20.999Z</time></trkpt><trkpt lat="45.04409163501785" lon="9.519678792651376"><ele>64.0</ele><time>2026-03-22T11:00:21.999Z</time></trkpt><trkpt lat="45.04388902622205" lon="9.519608641877127"><ele>64.66666666666666</ele><time>2026-03-22T11:00:22.999Z</time></trkpt><trkpt lat="45.04369027738651" lon="9.519536040248568"><ele>65.33333333333333</ele><time>2026-03-22T11:00:23.999Z</time></trkpt><trkpt lat="45.04350655687548" lon="9.519475864127552"><ele>66.0</ele><time>2026-03-22T11:00:24.999Z</time></trkpt><trkpt lat="45.04333203818258" lon="9.519419626686943"><ele>67.33333333333333</ele><time>2026-03-22T11:00:25.999Z</time></trkpt><trkpt lat="45.043162764838655" lon="9.519368459384449"><ele>68.66666666666666</ele><time>2026-03-22T11:00:26.999Z</time></trkpt><trkpt lat="45.04301367896435" lon="9.51932518285095"><ele>70.0</ele><time>2026-03-22T11:00:27.999Z</time></trkpt><trkpt lat="45.04288471235175" lon="9.5192814821522"><ele>70.0</ele><time>2026-03-22T11:00:28.999Z</time></trkpt><trkpt lat="45.0427740234671" lon="9.519237377857124"><ele>70.0</ele><time>2026-03-22T11:00:29.999Z</time></trkpt><trkpt lat="45.042701409284966" lon="9.519181303479728"><ele>70.0</ele><time>2026-03-22T11:00:30.999Z</time></trkpt><trkpt lat="45.04265673759799" lon="9.519106644689186"><ele>70.0</ele><time>2026-03-22T11:00:31.999Z</time></trkpt><trkpt lat="45.042601379072174" lon="9.519057674897793"><ele>70.0</ele><time>2026-03-22T11:00:32.999Z</time></trkpt><trkpt lat="45.042599984250465" lon="9.518908791557184"><ele>70.0</ele><time>2026-03-22T11:00:33.999Z</time></trkpt><trkpt lat="45.04263601666816" lon="9.51877239554947"><ele>70.0</ele><time>2026-03-22T11:00:34.999Z</time></trkpt><trkpt lat="45.042605135763466" lon="9.518630884807072"><ele>70.0</ele><time>2026-03-22T11:00:36.999Z</time></trkpt><trkpt lat="45.042538681064336" lon="9.518559627329925"><ele>70.0</ele><time>2026-03-22T11:00:37.999Z</time></trkpt><trkpt lat="45.042409001447304" lon="9.51850111320424"><ele>70.0</ele><time>2026-03-22T11:00:38.999Z</time></trkpt><trkpt lat="45.04226149210253" lon="9.518444897912804"><ele>70.0</ele><time>2026-03-22T11:00:39.999Z</time></trkpt><trkpt lat="45.042104011748364" lon="9.518405081462085"><ele>70.0</ele><time>2026-03-22T11:00:40.999Z</time></trkpt><trkpt lat="45.041951116742965" lon="9.518410840009855"><ele>70.0</ele><time>2026-03-22T11:00:41.999Z</time></trkpt><trkpt lat="45.0417827769348" lon="9.518437036783881"><ele>69.25</ele><time>2026-03-22T11:00:42.999Z</time></trkpt><trkpt lat="45.0416237192923" lon="9.518463086800583"><ele>68.5</ele><time>2026-03-22T11:00:43.999Z</time></trkpt><trkpt lat="45.04148201712672" lon="9.518455515860678"><ele>67.75</ele><time>2026-03-22T11:00:44.999Z</time></trkpt><trkpt lat="45.041341933795906" lon="9.518453372512846"><ele>67.0</ele><time>2026-03-22T11:00:45.999Z</time></trkpt><trkpt lat="45.0411992522235" lon="9.518457430298387"><ele>67.0</ele><time>2026-03-22T11:00:46.999Z</time></trkpt><trkpt lat="45.0410339350425" lon="9.518396666940939"><ele>67.0</ele><time>2026-03-22T11:00:47.999Z</time></trkpt><trkpt lat="45.04086597085211" lon="9.518358902829151"><ele>67.0</ele><time>2026-03-22T11:00:48.999Z</time></trkpt><trkpt lat="45.04068566126706" lon="9.518303231585733"><ele>67.33333333333333</ele><time>2026-03-22T11:00:49.999Z</time></trkpt><trkpt lat="45.04049973260639" lon="9.518245591860659"><ele>67.66666666666667</ele><time>2026-03-22T11:00:50.999Z</time></trkpt><trkpt lat="45.040318112791304" lon="9.518187340890908"><ele>68.0</ele><time>2026-03-22T11:00:51.998Z</time></trkpt><trkpt lat="45.04015361338854" lon="9.518138134945396"><ele>68.0</ele><time>2026-03-22T11:00:52.998Z</time></trkpt><trkpt lat="45.03998116896899" lon="9.518081974006696"><ele>68.0</ele><time>2026-03-22T11:00:53.998Z</time></trkpt><trkpt lat="45.039805497357456" lon="9.51802108670914"><ele>68.0</ele><time>2026-03-22T11:00:54.998Z</time></trkpt><trkpt lat="45.0396243068631" lon="9.517958279919815"><ele>68.0</ele><time>2026-03-22T11:00:55.998Z</time></trkpt><trkpt lat="45.039447479637275" lon="9.517900976705342"><ele>68.0</ele><time>2026-03-22T11:00:56.998Z</time></trkpt><trkpt lat="45.039291617406576" lon="9.51784176484629"><ele>68.0</ele><time>2026-03-22T11:00:57.998Z</time></trkpt><trkpt lat="45.0391370635706" lon="9.517785249420905"><ele>69.0</ele><time>2026-03-22T11:00:58.998Z</time></trkpt><trkpt lat="45.03897567170398" lon="9.51772607245301"><ele>70.0</ele><time>2026-03-22T11:00:59.998Z</time></trkpt><trkpt lat="45.03881512365084" lon="9.517663219015818"><ele>71.0</ele><time>2026-03-22T11:01:00.998Z</time></trkpt><trkpt lat="45.03866548146618" lon="9.517577602383355"><ele>71.0</ele><time>2026-03-22T11:01:01.998Z</time></trkpt><trkpt lat="45.03853366585294" lon="9.517478612575061"><ele>71.0</ele><time>2026-03-22T11:01:02.998Z</time></trkpt><trkpt lat="45.038395603555706" lon="9.517358675875402"><ele>71.0</ele><time>2026-03-22T11:01:03.998Z</time></trkpt><trkpt lat="45.03824938963951" lon="9.51722087705844"><ele>71.33333333333334</ele><time>2026-03-22T11:01:04.998Z</time></trkpt><trkpt lat="45.03809743634697" lon="9.517096973545598"><ele>71.66666666666667</ele><time>2026-03-22T11:01:05.998Z</time></trkpt><trkpt lat="45.03794127840057" lon="9.516982304438908"><ele>72.0</ele><time>2026-03-22T11:01:06.998Z</time></trkpt><trkpt lat="45.0377760165055" lon="9.516882171419685"><ele>71.66666666666667</ele><time>2026-03-22T11:01:07.998Z</time></trkpt><trkpt lat="45.03760356169344" lon="9.51679788041123"><ele>71.33333333333334</ele><time>2026-03-22T11:01:08.998Z</time></trkpt><trkpt lat="45.03742677640404" lon="9.51672686718407"><ele>71.0</ele><time>2026-03-22T11:01:09.998Z</time></trkpt><trkpt lat="45.037247988148486" lon="9.516663901154857"><ele>71.0</ele><time>2026-03-22T11:01:10.998Z</time></trkpt><trkpt lat="45.03706252706932" lon="9.516609907217491"><ele>71.0</ele><time>2026-03-22T11:01:11.998Z</time></trkpt><trkpt lat="45.03688078558511" lon="9.516562285393997"><ele>71.0</ele><time>2026-03-22T11:01:12.998Z</time></trkpt><trkpt lat="45.03668893380786" lon="9.516517462488945"><ele>71.33333333333334</ele><time>2026-03-22T11:01:13.998Z</time></trkpt><trkpt lat="45.03650108238708" lon="9.51647113647962"><ele>71.66666666666667</ele><time>2026-03-22T11:01:14.998Z</time></trkpt><trkpt lat="45.03631055883324" lon="9.516421565519211"><ele>72.0</ele><time>2026-03-22T11:01:15.998Z</time></trkpt><trkpt lat="45.03611552433766" lon="9.516373995715751"><ele>72.0</ele><time>2026-03-22T11:01:16.998Z</time></trkpt><trkpt lat="45.03592496056642" lon="9.516329780420545"><ele>72.0</ele><time>2026-03-22T11:01:17.998Z</time></trkpt><trkpt lat="45.035749474619365" lon="9.516291734327286"><ele>72.0</ele><time>2026-03-22T11:01:18.998Z</time></trkpt><trkpt lat="45.03558482406019" lon="9.516252037115292"><ele>72.33333333333333</ele><time>2026-03-22T11:01:19.998Z</time></trkpt><trkpt lat="45.03541831228963" lon="9.516206026723143"><ele>72.66666666666666</ele><time>2026-03-22T11:01:20.998Z</time></trkpt><trkpt lat="45.03525459169104" lon="9.516153818931352"><ele>73.0</ele><time>2026-03-22T11:01:21.998Z</time></trkpt><trkpt lat="45.035115565791365" lon="9.516111363038698"><ele>73.0</ele><time>2026-03-22T11:01:22.998Z</time></trkpt><trkpt lat="45.03499000883038" lon="9.51607387640614"><ele>73.0</ele><time>2026-03-22T11:01:23.998Z</time></trkpt><trkpt lat="45.034867691798205" lon="9.516037427364093"><ele>73.0</ele><time>2026-03-22T11:01:24.998Z</time></trkpt><trkpt lat="45.034749772856074" lon="9.516000288112334"><ele>73.0</ele><time>2026-03-22T11:01:25.998Z</time></trkpt><trkpt lat="45.034625420660134" lon="9.51596761443391"><ele>73.16666666666666</ele><time>2026-03-22T11:01:26.998Z</time></trkpt><trkpt lat="45.034526091701586" lon="9.515941236133623"><ele>73.33333333333333</ele><time>2026-03-22T11:01:27.998Z</time></trkpt><trkpt lat="45.03443673975233" lon="9.515913334790243"><ele>73.5</ele><time>2026-03-22T11:01:28.998Z</time></trkpt><trkpt lat="45.03435265305127" lon="9.515882505520395"><ele>73.66666666666667</ele><time>2026-03-22T11:01:29.998Z</time></trkpt><trkpt lat="45.034287246136536" lon="9.515853865282047"><ele>73.83333333333334</ele><time>2026-03-22T11:01:30.998Z</time></trkpt><trkpt lat="45.03418987492567" lon="9.515853303680709"><ele>74.0</ele><time>2026-03-22T11:01:32.998Z</time></trkpt><trkpt lat="45.03408799050641" lon="9.515961179917419"><ele>74.0</ele><time>2026-03-22T11:01:34.998Z</time></trkpt><trkpt lat="45.03406978207221" lon="9.516051648903025"><ele>74.0</ele><time>2026-03-22T11:01:35.998Z</time></trkpt><trkpt lat="45.034045357022585" lon="9.51618735245587"><ele>74.0</ele><time>2026-03-22T11:01:36.998Z</time></trkpt><trkpt lat="45.0340239493111" lon="9.516323123288162"><ele>74.0</ele><time>2026-03-22T11:01:37.997Z</time></trkpt><trkpt lat="45.03399811914106" lon="9.516502265175811"><ele>74.0</ele><time>2026-03-22T11:01:39Z</time></trkpt><trkpt lat="45.03396936540786" lon="9.516701683027737"><ele>74.33333333333334</ele><time>2026-03-22T11:01:40Z</time></trkpt><trkpt lat="45.03393930139249" lon="9.516918004239303"><ele>74.66666666666667</ele><time>2026-03-22T11:01:41Z</time></trkpt><trkpt lat="45.033908707212234" lon="9.517138614112952"><ele>75.0</ele><time>2026-03-22T11:01:42Z</time></trkpt><trkpt lat="45.0338755665284" lon="9.517365362062735"><ele>75.0</ele><time>2026-03-22T11:01:43Z</time></trkpt><trkpt lat="45.03384133308639" lon="9.517595941758442"><ele>75.0</ele><time>2026-03-22T11:01:44Z</time></trkpt><trkpt lat="45.03381379732941" lon="9.517798184042785"><ele>75.0</ele><time>2026-03-22T11:01:45Z</time></trkpt><trkpt lat="45.033792222256444" lon="9.517961445328366"><ele>75.0</ele><time>2026-03-22T11:01:46Z</time></trkpt><trkpt lat="45.033769098033545" lon="9.51813642899247"><ele>75.0</ele><time>2026-03-22T11:01:47Z</time></trkpt><trkpt lat="45.0337438617185" lon="9.518297533989083"><ele>75.0</ele><time>2026-03-22T11:01:48Z</time></trkpt><trkpt lat="45.03371802712443" lon="9.518470209651163"><ele>75.0</ele><time>2026-03-22T11:01:49Z</time></trkpt><trkpt lat="45.03370463204768" lon="9.518663003045802"><ele>75.0</ele><time>2026-03-22T11:01:50Z</time></trkpt><trkpt lat="45.033697216107704" lon="9.518836015043052"><ele>75.0</ele><time>2026-03-22T11:01:51Z</time></trkpt><trkpt lat="45.03368162240011" lon="9.518995516006921"><ele>75.0</ele><time>2026-03-22T11:01:52Z</time></trkpt><trkpt lat="45.03366367990968" lon="9.519133430140752"><ele>75.0</ele><time>2026-03-22T11:01:53Z</time></trkpt><trkpt lat="45.03363954237765" lon="9.51928593972952"><ele>75.0</ele><time>2026-03-22T11:01:54Z</time></trkpt><trkpt lat="45.03360815996534" lon="9.519452791616578"><ele>75.0</ele><time>2026-03-22T11:01:55Z</time></trkpt><trkpt lat="45.03357777636733" lon="9.519614334668356"><ele>75.0</ele><time>2026-03-22T11:01:56Z</time></trkpt><trkpt lat="45.03355341054802" lon="9.519790983450102"><ele>75.0</ele><time>2026-03-22T11:01:57Z</time></trkpt><trkpt lat="45.03352972027958" lon="9.519973189620778"><ele>75.0</ele><time>2026-03-22T11:01:58Z</time></trkpt><trkpt lat="45.03351154939976" lon="9.520129369639157"><ele>75.0</ele><time>2026-03-22T11:01:59Z</time></trkpt><trkpt lat="45.033493655934514" lon="9.520283166973917"><ele>75.0</ele><time>2026-03-22T11:02:00Z</time></trkpt><trkpt lat="45.033478175613645" lon="9.520430017883468"><ele>75.0</ele><time>2026-03-22T11:02:01Z</time></trkpt><trkpt lat="45.03346402764242" lon="9.520577289573705"><ele>75.0</ele><time>2026-03-22T11:02:02Z</time></trkpt><trkpt lat="45.03345132908562" lon="9.52073305574741"><ele>75.0</ele><time>2026-03-22T11:02:03Z</time></trkpt><trkpt lat="45.03343832851302" lon="9.520888883734692"><ele>75.0</ele><time>2026-03-22T11:02:04Z</time></trkpt><trkpt lat="45.03342262068705" lon="9.521022981820538"><ele>75.0</ele><time>2026-03-22T11:02:05Z</time></trkpt><trkpt lat="45.033403924935556" lon="9.521162428849433"><ele>75.0</ele><time>2026-03-22T11:02:06Z</time></trkpt><trkpt lat="45.033384034500095" lon="9.521307095352036"><ele>75.0</ele><time>2026-03-22T11:02:07Z</time></trkpt><trkpt lat="45.03336551629397" lon="9.521441781289578"><ele>75.0</ele><time>2026-03-22T11:02:08Z</time></trkpt><trkpt lat="45.03334589401856" lon="9.521584497371183"><ele>75.0</ele><time>2026-03-22T11:02:09Z</time></trkpt><trkpt lat="45.033323350993825" lon="9.521748456635091"><ele>75.0</ele><time>2026-03-22T11:02:10Z</time></trkpt><trkpt lat="45.0333017697681" lon="9.521905420468162"><ele>75.0</ele><time>2026-03-22T11:02:11Z</time></trkpt><trkpt lat="45.033281486852324" lon="9.522056187944521"><ele>75.0</ele><time>2026-03-22T11:02:12Z</time></trkpt><trkpt lat="45.03326048641768" lon="9.522216990127228"><ele>75.0</ele><time>2026-03-22T11:02:13Z</time></trkpt><trkpt lat="45.0332387464201" lon="9.522383455150987"><ele>75.25</ele><time>2026-03-22T11:02:14Z</time></trkpt><trkpt lat="45.03321400247571" lon="9.522559447786724"><ele>75.5</ele><time>2026-03-22T11:02:15Z</time></trkpt><trkpt lat="45.03319174367054" lon="9.5227172562784"><ele>75.75</ele><time>2026-03-22T11:02:16Z</time></trkpt><trkpt lat="45.03317256472477" lon="9.52285322941961"><ele>76.0</ele><time>2026-03-22T11:02:17Z</time></trkpt><trkpt lat="45.03314757971661" lon="9.52303036584453"><ele>75.39999999999999</ele><time>2026-03-22T11:02:18Z</time></trkpt><trkpt lat="45.03312192815247" lon="9.523213940247928"><ele>74.8</ele><time>2026-03-22T11:02:19Z</time></trkpt><trkpt lat="45.03310246104688" lon="9.523373784232259"><ele>74.19999999999999</ele><time>2026-03-22T11:02:20Z</time></trkpt><trkpt lat="45.03308873962898" lon="9.523505877512553"><ele>73.6</ele><time>2026-03-22T11:02:21Z</time></trkpt><trkpt lat="45.0330749012433" lon="9.52362901869626"><ele>73.0</ele><time>2026-03-22T11:02:22Z</time></trkpt><trkpt lat="45.033061699758484" lon="9.52374299590792"><ele>72.83333333333333</ele><time>2026-03-22T11:02:23Z</time></trkpt><trkpt lat="45.03304978944434" lon="9.523830724746873"><ele>72.66666666666666</ele><time>2026-03-22T11:02:24Z</time></trkpt><trkpt lat="45.03302219249084" lon="9.52397173129388"><ele>72.5</ele><time>2026-03-22T11:02:26Z</time></trkpt><trkpt lat="45.032946708144166" lon="9.524023768496795"><ele>72.33333333333333</ele><time>2026-03-22T11:02:27.999Z</time></trkpt><trkpt lat="45.032877181504766" lon="9.524003737614423"><ele>72.16666666666667</ele><time>2026-03-22T11:02:28.999Z</time></trkpt><trkpt lat="45.03277929088712" lon="9.523966722121196"><ele>72.0</ele><time>2026-03-22T11:02:29.999Z</time></trkpt><trkpt lat="45.032668135592836" lon="9.523953254724432"><ele>72.0</ele><time>2026-03-22T11:02:30.999Z</time></trkpt><trkpt lat="45.03254713082833" lon="9.52392195218653"><ele>72.0</ele><time>2026-03-22T11:02:31.999Z</time></trkpt><trkpt lat="45.0324125787619" lon="9.523896605927044"><ele>72.0</ele><time>2026-03-22T11:02:32.999Z</time></trkpt><trkpt lat="45.03224371823115" lon="9.523864950571912"><ele>72.0</ele><time>2026-03-22T11:02:33.999Z</time></trkpt><trkpt lat="45.03205750484218" lon="9.523829498582321"><ele>72.0</ele><time>2026-03-22T11:02:34.999Z</time></trkpt><trkpt lat="45.0319038115838" lon="9.523799184103458"><ele>72.0</ele><time>2026-03-22T11:02:35.999Z</time></trkpt><trkpt lat="45.03174474452941" lon="9.523766478406898"><ele>72.0</ele><time>2026-03-22T11:02:36.999Z</time></trkpt><trkpt lat="45.03157949532548" lon="9.523735570298015"><ele>73.66666666666667</ele><time>2026-03-22T11:02:37.999Z</time></trkpt><trkpt lat="45.03142687818253" lon="9.523705190961168"><ele>75.33333333333334</ele><time>2026-03-22T11:02:38.999Z</time></trkpt><trkpt lat="45.03127174054776" lon="9.523674831337788"><ele>77.0</ele><time>2026-03-22T11:02:39.999Z</time></trkpt><trkpt lat="45.031120912398755" lon="9.523645070482132"><ele>77.0</ele><time>2026-03-22T11:02:40.999Z</time></trkpt><trkpt lat="45.03094927933278" lon="9.523606742244848"><ele>77.0</ele><time>2026-03-22T11:02:41.999Z</time></trkpt><trkpt lat="45.03080975246994" lon="9.523572878214608"><ele>77.0</ele><time>2026-03-22T11:02:42.999Z</time></trkpt><trkpt lat="45.030652979001246" lon="9.52355493721707"><ele>76.33333333333334</ele><time>2026-03-22T11:02:43.999Z</time></trkpt><trkpt lat="45.03046843673257" lon="9.523500153115107"><ele>75.66666666666667</ele><time>2026-03-22T11:02:44.999Z</time></trkpt><trkpt lat="45.03028658864026" lon="9.52348206868886"><ele>75.0</ele><time>2026-03-22T11:02:45.999Z</time></trkpt><trkpt lat="45.03010475179112" lon="9.523441539831579"><ele>75.66666666666667</ele><time>2026-03-22T11:02:46.999Z</time></trkpt><trkpt lat="45.02995414593495" lon="9.523412606358294"><ele>76.33333333333334</ele><time>2026-03-22T11:02:47.999Z</time></trkpt><trkpt lat="45.02979265647675" lon="9.523370292007053"><ele>77.0</ele><time>2026-03-22T11:02:48.999Z</time></trkpt><trkpt lat="45.02962779607164" lon="9.523334337993582"><ele>77.0</ele><time>2026-03-22T11:02:49.999Z</time></trkpt><trkpt lat="45.029462545852354" lon="9.523312081617803"><ele>77.0</ele><time>2026-03-22T11:02:50.999Z</time></trkpt><trkpt lat="45.02929943792335" lon="9.523290199114541"><ele>77.0</ele><time>2026-03-22T11:02:51.999Z</time></trkpt><trkpt lat="45.02915808157834" lon="9.523270780160027"><ele>77.25</ele><time>2026-03-22T11:02:52.999Z</time></trkpt><trkpt lat="45.02902715925217" lon="9.523244425725952"><ele>77.5</ele><time>2026-03-22T11:02:53.999Z</time></trkpt><trkpt lat="45.028892098100435" lon="9.523220964396499"><ele>77.75</ele><time>2026-03-22T11:02:54.999Z</time></trkpt><trkpt lat="45.02877642436286" lon="9.52319548946814"><ele>78.0</ele><time>2026-03-22T11:02:55.999Z</time></trkpt><trkpt lat="45.028666843988404" lon="9.523153889777165"><ele>78.0</ele><time>2026-03-22T11:02:56.999Z</time></trkpt><trkpt lat="45.02858191060224" lon="9.52312639918524"><ele>78.0</ele><time>2026-03-22T11:02:57.999Z</time></trkpt><trkpt lat="45.02851424230497" lon="9.52311568918305"><ele>78.0</ele><time>2026-03-22T11:02:58.999Z</time></trkpt><trkpt lat="45.02843455305848" lon="9.523118744091581"><ele>78.0</ele><time>2026-03-22T11:02:59.999Z</time></trkpt><trkpt lat="45.02837557102369" lon="9.523173697544037"><ele>78.0</ele><time>2026-03-22T11:03:00.999Z</time></trkpt><trkpt lat="45.02830854333496" lon="9.523312121237046"><ele>78.0</ele><time>2026-03-22T11:03:01.999Z</time></trkpt><trkpt lat="45.028227263623606" lon="9.52350012814358"><ele>77.66666666666667</ele><time>2026-03-22T11:03:02.999Z</time></trkpt><trkpt lat="45.028167911495245" lon="9.523633964832523"><ele>77.33333333333334</ele><time>2026-03-22T11:03:03.999Z</time></trkpt><trkpt lat="45.028091111057115" lon="9.523807147140026"><ele>77.0</ele><time>2026-03-22T11:03:04.999Z</time></trkpt><trkpt lat="45.027989895351844" lon="9.524041214173003"><ele>77.0</ele><time>2026-03-22T11:03:05.999Z</time></trkpt><trkpt lat="45.027921998961716" lon="9.524198430850317"><ele>77.0</ele><time>2026-03-22T11:03:06.999Z</time></trkpt><trkpt lat="45.02784013946932" lon="9.524387979603224"><ele>77.0</ele><time>2026-03-22T11:03:07.999Z</time></trkpt><trkpt lat="45.027768020090875" lon="9.52455547071513"><ele>77.0</ele><time>2026-03-22T11:03:08.999Z</time></trkpt><trkpt lat="45.0277009614067" lon="9.524717162122158"><ele>77.0</ele><time>2026-03-22T11:03:09.999Z</time></trkpt><trkpt lat="45.02763740265394" lon="9.52487292036214"><ele>77.0</ele><time>2026-03-22T11:03:10.999Z</time></trkpt><trkpt lat="45.027622200788564" lon="9.525087272156677"><ele>77.0</ele><time>2026-03-22T11:03:11.999Z</time></trkpt><trkpt lat="45.027554692904324" lon="9.525244236107968"><ele>77.0</ele><time>2026-03-22T11:03:12.999Z</time></trkpt><trkpt lat="45.0274895613294" lon="9.525398534346477"><ele>77.2</ele><time>2026-03-22T11:03:13.998Z</time></trkpt><trkpt lat="45.02743522503069" lon="9.525535542017511"><ele>77.4</ele><time>2026-03-22T11:03:14.998Z</time></trkpt><trkpt lat="45.02738611295564" lon="9.525660549264593"><ele>77.6</ele><time>2026-03-22T11:03:15.998Z</time></trkpt><trkpt lat="45.027342933725905" lon="9.525777722640262"><ele>77.8</ele><time>2026-03-22T11:03:16.998Z</time></trkpt><trkpt lat="45.02724665785925" lon="9.525817383427063"><ele>78.0</ele><time>2026-03-22T11:03:17.998Z</time></trkpt><trkpt lat="45.02719438758537" lon="9.525934119127985"><ele>78.0</ele><time>2026-03-22T11:03:19.998Z</time></trkpt><trkpt lat="45.02713118863469" lon="9.525908975146066"><ele>78.0</ele><time>2026-03-22T11:03:21.998Z</time></trkpt><trkpt lat="45.027049298968876" lon="9.525857979920747"><ele>78.0</ele><time>2026-03-22T11:03:22.998Z</time></trkpt><trkpt lat="45.026945586673826" lon="9.525785519961428"><ele>78.0</ele><time>2026-03-22T11:03:23.997Z</time></trkpt><trkpt lat="45.02683571973031" lon="9.52571097445784"><ele>78.0</ele><time>2026-03-22T11:03:24.997Z</time></trkpt><trkpt lat="45.026731769749695" lon="9.525626904159013"><ele>77.75</ele><time>2026-03-22T11:03:25.997Z</time></trkpt><trkpt lat="45.026604154619996" lon="9.525565366459201"><ele>77.5</ele><time>2026-03-22T11:03:26.997Z</time></trkpt><trkpt lat="45.02648099589269" lon="9.525480344414866"><ele>77.25</ele><time>2026-03-22T11:03:27.997Z</time></trkpt><trkpt lat="45.026349986396596" lon="9.525391593514305"><ele>77.0</ele><time>2026-03-22T11:03:28.997Z</time></trkpt><trkpt lat="45.026205225621815" lon="9.525295514190173"><ele>77.0</ele><time>2026-03-22T11:03:29.997Z</time></trkpt><trkpt lat="45.02605554466011" lon="9.525194779692209"><ele>77.0</ele><time>2026-03-22T11:03:30.997Z</time></trkpt><trkpt lat="45.02590544099963" lon="9.525072645554706"><ele>77.0</ele><time>2026-03-22T11:03:31.997Z</time></trkpt><trkpt lat="45.02575004824796" lon="9.524964881066273"><ele>77.0</ele><time>2026-03-22T11:03:32.997Z</time></trkpt><trkpt lat="45.025565186775054" lon="9.524859321970155"><ele>77.0</ele><time>2026-03-22T11:03:33.997Z</time></trkpt><trkpt lat="45.02538429314304" lon="9.524733641540964"><ele>77.0</ele><time>2026-03-22T11:03:34.997Z</time></trkpt><trkpt lat="45.02521452720139" lon="9.5246113621195"><ele>77.0</ele><time>2026-03-22T11:03:35.997Z</time></trkpt><trkpt lat="45.02504435245723" lon="9.52449625597121"><ele>77.0</ele><time>2026-03-22T11:03:36.997Z</time></trkpt><trkpt lat="45.02487790863601" lon="9.524379082748608"><ele>77.0</ele><time>2026-03-22T11:03:37.997Z</time></trkpt><trkpt lat="45.02471635037208" lon="9.524261533068188"><ele>77.0</ele><time>2026-03-22T11:03:38.997Z</time></trkpt><trkpt lat="45.02456427718405" lon="9.52414879590769"><ele>77.0</ele><time>2026-03-22T11:03:39.997Z</time></trkpt><trkpt lat="45.02442337059778" lon="9.524054786645005"><ele>77.0</ele><time>2026-03-22T11:03:40.997Z</time></trkpt><trkpt lat="45.02428358441239" lon="9.523960177214843"><ele>77.66666666666667</ele><time>2026-03-22T11:03:41.997Z</time></trkpt><trkpt lat="45.024139439875036" lon="9.523857283961586"><ele>78.33333333333333</ele><time>2026-03-22T11:03:42.997Z</time></trkpt><trkpt lat="45.02399715530126" lon="9.523811484596113"><ele>79.0</ele><time>2026-03-22T11:03:43.997Z</time></trkpt><trkpt lat="45.023863363746166" lon="9.523732581675414"><ele>79.33333333333333</ele><time>2026-03-22T11:03:45Z</time></trkpt><trkpt lat="45.02369884416815" lon="9.523671025705195"><ele>79.66666666666667</ele><time>2026-03-22T11:03:46Z</time></trkpt><trkpt lat="45.023560120974516" lon="9.52361539770313"><ele>80.0</ele><time>2026-03-22T11:03:47Z</time></trkpt><trkpt lat="45.02342162986038" lon="9.523561607262744"><ele>80.25</ele><time>2026-03-22T11:03:48Z</time></trkpt><trkpt lat="45.02328913860312" lon="9.523509773360777"><ele>80.5</ele><time>2026-03-22T11:03:49Z</time></trkpt><trkpt lat="45.02317970204796" lon="9.523456601481813"><ele>80.75</ele><time>2026-03-22T11:03:50Z</time></trkpt><trkpt lat="45.023064312270854" lon="9.523401966822558"><ele>81.0</ele><time>2026-03-22T11:03:51Z</time></trkpt><trkpt lat="45.02295932220232" lon="9.523346461192785"><ele>81.0</ele><time>2026-03-22T11:03:52Z</time></trkpt><trkpt lat="45.02288067340207" lon="9.523285099865218"><ele>81.0</ele><time>2026-03-22T11:03:53Z</time></trkpt><trkpt lat="45.02280982241557" lon="9.523195435957524"><ele>81.0</ele><time>2026-03-22T11:03:54Z</time></trkpt><trkpt lat="45.02272413494211" lon="9.523063813596297"><ele>81.0</ele><time>2026-03-22T11:03:55Z</time></trkpt><trkpt lat="45.022658106192004" lon="9.52291981609696"><ele>81.0</ele><time>2026-03-22T11:03:56Z</time></trkpt><trkpt lat="45.022582106979335" lon="9.522749822793834"><ele>81.0</ele><time>2026-03-22T11:03:57Z</time></trkpt><trkpt lat="45.02250032474422" lon="9.522568912927174"><ele>81.0</ele><time>2026-03-22T11:03:58Z</time></trkpt><trkpt lat="45.02240909311944" lon="9.52237068467698"><ele>81.0</ele><time>2026-03-22T11:03:59Z</time></trkpt><trkpt lat="45.02232645228729" lon="9.522149646202626"><ele>80.66666666666667</ele><time>2026-03-22T11:04:00Z</time></trkpt><trkpt lat="45.02223649470837" lon="9.521942826922317"><ele>80.33333333333334</ele><time>2026-03-22T11:04:01Z</time></trkpt><trkpt lat="45.022151332446946" lon="9.521738707538661"><ele>80.0</ele><time>2026-03-22T11:04:02Z</time></trkpt><trkpt lat="45.022055959001115" lon="9.521510223606846"><ele>80.0</ele><time>2026-03-22T11:04:03Z</time></trkpt><trkpt lat="45.02196598338123" lon="9.521303932059666"><ele>80.0</ele><time>2026-03-22T11:04:03.999Z</time></trkpt><trkpt lat="45.02187003603793" lon="9.521137167057345"><ele>80.0</ele><time>2026-03-22T11:04:04.999Z</time></trkpt><trkpt lat="45.02179083275511" lon="9.520981291662542"><ele>80.25</ele><time>2026-03-22T11:04:05.999Z</time></trkpt><trkpt lat="45.0217018600085" lon="9.52082076767694"><ele>80.5</ele><time>2026-03-22T11:04:06.999Z</time></trkpt><trkpt lat="45.02163799114125" lon="9.520626912192546"><ele>80.75</ele><time>2026-03-22T11:04:07.999Z</time></trkpt><trkpt lat="45.02156937937862" lon="9.520461157233138"><ele>81.0</ele><time>2026-03-22T11:04:08.999Z</time></trkpt><trkpt lat="45.02150417804441" lon="9.520317403543029"><ele>81.0</ele><time>2026-03-22T11:04:09.999Z</time></trkpt><trkpt lat="45.021426119823055" lon="9.520208834275188"><ele>81.0</ele><time>2026-03-22T11:04:10.999Z</time></trkpt><trkpt lat="45.02132619448314" lon="9.520128134943356"><ele>81.0</ele><time>2026-03-22T11:04:11.999Z</time></trkpt><trkpt lat="45.02120212287378" lon="9.519997611447009"><ele>81.0</ele><time>2026-03-22T11:04:12.999Z</time></trkpt><trkpt lat="45.021050248403704" lon="9.519833127050806"><ele>81.0</ele><time>2026-03-22T11:04:13.999Z</time></trkpt><trkpt lat="45.020892611718835" lon="9.51967232604813"><ele>81.0</ele><time>2026-03-22T11:04:14.999Z</time></trkpt><trkpt lat="45.02072653525876" lon="9.519531582008826"><ele>81.0</ele><time>2026-03-22T11:04:15.999Z</time></trkpt><trkpt lat="45.02054871503192" lon="9.519395990412221"><ele>81.0</ele><time>2026-03-22T11:04:16.999Z</time></trkpt><trkpt lat="45.020383175333045" lon="9.519273283200931"><ele>81.0</ele><time>2026-03-22T11:04:17.999Z</time></trkpt><trkpt lat="45.02023452279234" lon="9.51914032468578"><ele>81.0</ele><time>2026-03-22T11:04:18.999Z</time></trkpt><trkpt lat="45.02008273553084" lon="9.519035478923511"><ele>80.66666666666667</ele><time>2026-03-22T11:04:19.999Z</time></trkpt><trkpt lat="45.0199255473925" lon="9.518936011840468"><ele>80.33333333333334</ele><time>2026-03-22T11:04:20.999Z</time></trkpt><trkpt lat="45.01977490815313" lon="9.518839754552799"><ele>80.0</ele><time>2026-03-22T11:04:21.999Z</time></trkpt><trkpt lat="45.0196238034445" lon="9.518741387695648"><ele>80.33333333333334</ele><time>2026-03-22T11:04:22.999Z</time></trkpt><trkpt lat="45.019468763954094" lon="9.518645030189523"><ele>80.66666666666667</ele><time>2026-03-22T11:04:23.999Z</time></trkpt><trkpt lat="45.01930908612865" lon="9.518556006486557"><ele>81.0</ele><time>2026-03-22T11:04:24.999Z</time></trkpt><trkpt lat="45.01916541844822" lon="9.518479286250821"><ele>81.0</ele><time>2026-03-22T11:04:25.999Z</time></trkpt><trkpt lat="45.019019617299726" lon="9.518395823005191"><ele>81.0</ele><time>2026-03-22T11:04:26.999Z</time></trkpt><trkpt lat="45.01887197928237" lon="9.518318076581377"><ele>81.0</ele><time>2026-03-22T11:04:27.999Z</time></trkpt><trkpt lat="45.01872039405046" lon="9.518247563958555"><ele>81.0</ele><time>2026-03-22T11:04:28.999Z</time></trkpt><trkpt lat="45.01856384388765" lon="9.51817920623539"><ele>81.0</ele><time>2026-03-22T11:04:29.999Z</time></trkpt><trkpt lat="45.01841002203842" lon="9.518100998553853"><ele>81.0</ele><time>2026-03-22T11:04:30.999Z</time></trkpt><trkpt lat="45.01828216394477" lon="9.518031934603258"><ele>81.25</ele><time>2026-03-22T11:04:31.999Z</time></trkpt><trkpt lat="45.018138188372944" lon="9.517945663028193"><ele>81.5</ele><time>2026-03-22T11:04:32.999Z</time></trkpt><trkpt lat="45.01800123022498" lon="9.517860916227415"><ele>81.75</ele><time>2026-03-22T11:04:33.999Z</time></trkpt><trkpt lat="45.01789218931152" lon="9.517791848369749"><ele>82.0</ele><time>2026-03-22T11:04:34.999Z</time></trkpt><trkpt lat="45.01779249430425" lon="9.517735654869313"><ele>82.5</ele><time>2026-03-22T11:04:35.999Z</time></trkpt><trkpt lat="45.017694219725534" lon="9.517705273422607"><ele>83.0</ele><time>2026-03-22T11:04:36.999Z</time></trkpt><trkpt lat="45.01757222624047" lon="9.517725099177776"><ele>83.5</ele><time>2026-03-22T11:04:37.999Z</time></trkpt><trkpt lat="45.01741418415233" lon="9.517721086417142"><ele>84.0</ele><time>2026-03-22T11:04:38.999Z</time></trkpt><trkpt lat="45.0172689081105" lon="9.517688234112718"><ele>84.2</ele><time>2026-03-22T11:04:39.999Z</time></trkpt><trkpt lat="45.017154553898344" lon="9.517678838971994"><ele>84.4</ele><time>2026-03-22T11:04:40.999Z</time></trkpt><trkpt lat="45.01704911489591" lon="9.517670176297633"><ele>84.6</ele><time>2026-03-22T11:04:41.999Z</time></trkpt><trkpt lat="45.0169552007904" lon="9.517663688640315"><ele>84.8</ele><time>2026-03-22T11:04:42.999Z</time></trkpt><trkpt lat="45.01687895721896" lon="9.517659135336345"><ele>85.0</ele><time>2026-03-22T11:04:43.999Z</time></trkpt><trkpt lat="45.01681401340419" lon="9.517653561691874"><ele>85.0</ele><time>2026-03-22T11:04:44.999Z</time></trkpt><trkpt lat="45.0167305984438" lon="9.517654097979172"><ele>85.0</ele><time>2026-03-22T11:04:46.999Z</time></trkpt><trkpt lat="45.01667275877107" lon="9.51761603480724"><ele>85.0</ele><time>2026-03-22T11:05:14.998Z</time></trkpt><trkpt lat="45.016562601949104" lon="9.51765269544592"><ele>85.0</ele><time>2026-03-22T11:05:15.998Z</time></trkpt><trkpt lat="45.01652029097088" lon="9.51773070167908"><ele>85.0</ele><time>2026-03-22T11:05:16.998Z</time></trkpt><trkpt lat="45.0164676723131" lon="9.517827744665217"><ele>85.0</ele><time>2026-03-22T11:05:17.998Z</time></trkpt><trkpt lat="45.01640943256981" lon="9.517935040319832"><ele>84.0</ele><time>2026-03-22T11:05:18.998Z</time></trkpt><trkpt lat="45.01632563716344" lon="9.518089028875142"><ele>83.0</ele><time>2026-03-22T11:05:19.998Z</time></trkpt><trkpt lat="45.01623174712891" lon="9.51826354910067"><ele>82.0</ele><time>2026-03-22T11:05:20.998Z</time></trkpt><trkpt lat="45.01613567977886" lon="9.51844210439536"><ele>82.0</ele><time>2026-03-22T11:05:21.998Z</time></trkpt><trkpt lat="45.016039021982984" lon="9.518621128218863"><ele>82.0</ele><time>2026-03-22T11:05:22.998Z</time></trkpt><trkpt lat="45.01593968218757" lon="9.51880511995036"><ele>82.0</ele><time>2026-03-22T11:05:23.998Z</time></trkpt><trkpt lat="45.01583279633126" lon="9.519003087728606"><ele>82.0</ele><time>2026-03-22T11:05:24.998Z</time></trkpt><trkpt lat="45.015736779225904" lon="9.51918049400725"><ele>82.0</ele><time>2026-03-22T11:05:25.998Z</time></trkpt><trkpt lat="45.015643921987845" lon="9.519351541203154"><ele>82.0</ele><time>2026-03-22T11:05:26.998Z</time></trkpt><trkpt lat="45.01555081738222" lon="9.519523044071835"><ele>82.5</ele><time>2026-03-22T11:05:27.998Z</time></trkpt><trkpt lat="45.01546575276981" lon="9.519679736835654"><ele>83.0</ele><time>2026-03-22T11:05:28.998Z</time></trkpt><trkpt lat="45.01537794559371" lon="9.51984148171266"><ele>83.5</ele><time>2026-03-22T11:05:29.998Z</time></trkpt><trkpt lat="45.015293657729245" lon="9.519996611978256"><ele>84.0</ele><time>2026-03-22T11:05:30.998Z</time></trkpt><trkpt lat="45.015212604913636" lon="9.520146609644526"><ele>84.0</ele><time>2026-03-22T11:05:31.998Z</time></trkpt><trkpt lat="45.01513826107788" lon="9.52028613102116"><ele>84.0</ele><time>2026-03-22T11:05:32.998Z</time></trkpt><trkpt lat="45.01507049289376" lon="9.520418238857504"><ele>84.0</ele><time>2026-03-22T11:05:33.998Z</time></trkpt><trkpt lat="45.01500993280934" lon="9.520552637136447"><ele>84.0</ele><time>2026-03-22T11:05:34.997Z</time></trkpt><trkpt lat="45.01496068998239" lon="9.52068537624082"><ele>83.6</ele><time>2026-03-22T11:05:35.997Z</time></trkpt><trkpt lat="45.01492123600606" lon="9.52083720867605"><ele>83.2</ele><time>2026-03-22T11:05:36.997Z</time></trkpt><trkpt lat="45.01489407147652" lon="9.52100011452491"><ele>82.8</ele><time>2026-03-22T11:05:37.997Z</time></trkpt><trkpt lat="45.01488261763753" lon="9.521165660629158"><ele>82.39999999999999</ele><time>2026-03-22T11:05:38.997Z</time></trkpt><trkpt lat="45.01488303077277" lon="9.521294687998509"><ele>82.0</ele><time>2026-03-22T11:05:39.997Z</time></trkpt><trkpt lat="45.01485071623073" lon="9.521372644004966"><ele>82.0</ele><time>2026-03-22T11:05:40.997Z</time></trkpt><trkpt lat="45.01474537008504" lon="9.521375694325561"><ele>82.0</ele><time>2026-03-22T11:05:41.997Z</time></trkpt><trkpt lat="45.01459651158913" lon="9.521371746749045"><ele>82.0</ele><time>2026-03-22T11:05:42.997Z</time></trkpt><trkpt lat="45.01442987681353" lon="9.521378229041515"><ele>82.0</ele><time>2026-03-22T11:05:43.997Z</time></trkpt><trkpt lat="45.01426697771616" lon="9.521355884416165"><ele>82.33333333333333</ele><time>2026-03-22T11:05:44.997Z</time></trkpt><trkpt lat="45.01409672314145" lon="9.521342400995755"><ele>82.66666666666667</ele><time>2026-03-22T11:05:45.997Z</time></trkpt><trkpt lat="45.01391146489041" lon="9.521325844319287"><ele>83.0</ele><time>2026-03-22T11:05:46.997Z</time></trkpt><trkpt lat="45.013714320249115" lon="9.521306563546702"><ele>83.0</ele><time>2026-03-22T11:05:47.997Z</time></trkpt><trkpt lat="45.013510332442934" lon="9.521291137385173"><ele>83.0</ele><time>2026-03-22T11:05:48.997Z</time></trkpt><trkpt lat="45.01330799170081" lon="9.521276771250847"><ele>83.0</ele><time>2026-03-22T11:05:49.997Z</time></trkpt><trkpt lat="45.01311621460669" lon="9.521266535208815"><ele>83.0</ele><time>2026-03-22T11:05:51Z</time></trkpt><trkpt lat="45.01291694043031" lon="9.521250837032234"><ele>83.0</ele><time>2026-03-22T11:05:52Z</time></trkpt><trkpt lat="45.01271693146289" lon="9.52123571588524"><ele>83.0</ele><time>2026-03-22T11:05:53Z</time></trkpt><trkpt lat="45.01251624275955" lon="9.521221044720829"><ele>83.33333333333334</ele><time>2026-03-22T11:05:54Z</time></trkpt><trkpt lat="45.01232972115093" lon="9.521206809647586"><ele>83.66666666666667</ele><time>2026-03-22T11:05:55Z</time></trkpt><trkpt lat="45.01214527551857" lon="9.521195649109307"><ele>84.0</ele><time>2026-03-22T11:05:56Z</time></trkpt><trkpt lat="45.011949411396344" lon="9.5211819905904"><ele>84.0</ele><time>2026-03-22T11:05:57Z</time></trkpt><trkpt lat="45.011749626160004" lon="9.5211639687199"><ele>84.0</ele><time>2026-03-22T11:05:58Z</time></trkpt><trkpt lat="45.011543577412674" lon="9.52114659160986"><ele>84.0</ele><time>2026-03-22T11:05:59Z</time></trkpt><trkpt lat="45.01132804558127" lon="9.52113192639316"><ele>84.33333333333333</ele><time>2026-03-22T11:06:00Z</time></trkpt><trkpt lat="45.0111079147789" lon="9.521117096898163"><ele>84.66666666666666</ele><time>2026-03-22T11:06:01Z</time></trkpt><trkpt lat="45.010886254617226" lon="9.521100865041936"><ele>85.0</ele><time>2026-03-22T11:06:02Z</time></trkpt><trkpt lat="45.01068079460322" lon="9.521089347887184"><ele>85.0</ele><time>2026-03-22T11:06:03Z</time></trkpt><trkpt lat="45.01048175968618" lon="9.521075244413847"><ele>85.0</ele><time>2026-03-22T11:06:04Z</time></trkpt><trkpt lat="45.01028220985419" lon="9.521057767290966"><ele>85.0</ele><time>2026-03-22T11:06:05Z</time></trkpt><trkpt lat="45.010076743058754" lon="9.521039024935536"><ele>85.66666666666666</ele><time>2026-03-22T11:06:06Z</time></trkpt><trkpt lat="45.00987254384169" lon="9.521024604065618"><ele>86.33333333333333</ele><time>2026-03-22T11:06:07Z</time></trkpt><trkpt lat="45.009666620499075" lon="9.52100943432216"><ele>87.0</ele><time>2026-03-22T11:06:08Z</time></trkpt><trkpt lat="45.00945952591322" lon="9.520994177615485"><ele>87.0</ele><time>2026-03-22T11:06:09Z</time></trkpt><trkpt lat="45.0092502627315" lon="9.520979988939619"><ele>87.0</ele><time>2026-03-22T11:06:10Z</time></trkpt><trkpt lat="45.00903801648951" lon="9.5209662897437"><ele>87.0</ele><time>2026-03-22T11:06:11Z</time></trkpt><trkpt lat="45.00884188967854" lon="9.520951872978614"><ele>87.0</ele><time>2026-03-22T11:06:12Z</time></trkpt><trkpt lat="45.008659961782634" lon="9.520938851414495"><ele>87.0</ele><time>2026-03-22T11:06:13Z</time></trkpt><trkpt lat="45.008477096871935" lon="9.520925415120894"><ele>87.0</ele><time>2026-03-22T11:06:14Z</time></trkpt><trkpt lat="45.00830876256768" lon="9.52091323747012"><ele>86.75</ele><time>2026-03-22T11:06:15Z</time></trkpt><trkpt lat="45.008158296538014" lon="9.520898053878907"><ele>86.5</ele><time>2026-03-22T11:06:16Z</time></trkpt><trkpt lat="45.00801329195583" lon="9.520882503596132"><ele>86.25</ele><time>2026-03-22T11:06:17Z</time></trkpt><trkpt lat="45.007864725860955" lon="9.520854568434396"><ele>86.0</ele><time>2026-03-22T11:06:18Z</time></trkpt><trkpt lat="45.00769081372289" lon="9.520918379502655"><ele>86.0</ele><time>2026-03-22T11:06:19Z</time></trkpt><trkpt lat="45.00751610197977" lon="9.521006146402243"><ele>86.0</ele><time>2026-03-22T11:06:20Z</time></trkpt><trkpt lat="45.007344035376875" lon="9.521139549940104"><ele>86.0</ele><time>2026-03-22T11:06:21Z</time></trkpt><trkpt lat="45.00718187677822" lon="9.52133280732174"><ele>86.0</ele><time>2026-03-22T11:06:22Z</time></trkpt><trkpt lat="45.00702814082582" lon="9.521530180426353"><ele>86.0</ele><time>2026-03-22T11:06:23Z</time></trkpt><trkpt lat="45.00687072149774" lon="9.521737268375755"><ele>86.0</ele><time>2026-03-22T11:06:24Z</time></trkpt><trkpt lat="45.00671495776514" lon="9.521945561643696"><ele>86.33333333333334</ele><time>2026-03-22T11:06:25Z</time></trkpt><trkpt lat="45.00655780004817" lon="9.522156302227847"><ele>86.66666666666667</ele><time>2026-03-22T11:06:25.999Z</time></trkpt><trkpt lat="45.00640658744886" lon="9.522359523477245"><ele>87.0</ele><time>2026-03-22T11:06:26.999Z</time></trkpt><trkpt lat="45.00626321480437" lon="9.522549604974062"><ele>87.0</ele><time>2026-03-22T11:06:27.999Z</time></trkpt><trkpt lat="45.00611823656378" lon="9.52274050896734"><ele>87.0</ele><time>2026-03-22T11:06:28.999Z</time></trkpt><trkpt lat="45.005974740052125" lon="9.5229291289616"><ele>87.0</ele><time>2026-03-22T11:06:29.999Z</time></trkpt><trkpt lat="45.005825597680534" lon="9.523127348000138"><ele>87.33333333333333</ele><time>2026-03-22T11:06:30.999Z</time></trkpt><trkpt lat="45.00567695101077" lon="9.523325147862163"><ele>87.66666666666666</ele><time>2026-03-22T11:06:31.999Z</time></trkpt><trkpt lat="45.00553381497194" lon="9.523515918379468"><ele>88.0</ele><time>2026-03-22T11:06:32.999Z</time></trkpt><trkpt lat="45.005397562793426" lon="9.523697514325482"><ele>88.33333333333333</ele><time>2026-03-22T11:06:33.999Z</time></trkpt><trkpt lat="45.0052517993023" lon="9.523891786745782"><ele>88.66666666666667</ele><time>2026-03-22T11:06:34.999Z</time></trkpt><trkpt lat="45.00510852519394" lon="9.524081617684192"><ele>89.0</ele><time>2026-03-22T11:06:35.999Z</time></trkpt><trkpt lat="45.004956742404225" lon="9.524282337907916"><ele>88.66666666666667</ele><time>2026-03-22T11:06:36.999Z</time></trkpt><trkpt lat="45.00481566219447" lon="9.524468905176535"><ele>88.33333333333333</ele><time>2026-03-22T11:06:37.999Z</time></trkpt><trkpt lat="45.004680381861284" lon="9.524647802523473"><ele>88.0</ele><time>2026-03-22T11:06:38.999Z</time></trkpt><trkpt lat="45.004539047293896" lon="9.524833602479783"><ele>88.0</ele><time>2026-03-22T11:06:39.999Z</time></trkpt><trkpt lat="45.00440222642312" lon="9.525013437146198"><ele>88.0</ele><time>2026-03-22T11:06:40.999Z</time></trkpt><trkpt lat="45.004263827604426" lon="9.525195676945938"><ele>88.0</ele><time>2026-03-22T11:06:41.999Z</time></trkpt><trkpt lat="45.00412227280399" lon="9.525382666885251"><ele>88.0</ele><time>2026-03-22T11:06:42.999Z</time></trkpt><trkpt lat="45.003982422040785" lon="9.525567406090243"><ele>88.0</ele><time>2026-03-22T11:06:43.999Z</time></trkpt><trkpt lat="45.003837198925076" lon="9.5257592419945"><ele>88.0</ele><time>2026-03-22T11:06:44.999Z</time></trkpt><trkpt lat="45.003692480559245" lon="9.525950410932886"><ele>88.0</ele><time>2026-03-22T11:06:45.999Z</time></trkpt><trkpt lat="45.003544205076345" lon="9.526147222000562"><ele>88.0</ele><time>2026-03-22T11:06:46.999Z</time></trkpt><trkpt lat="45.003396033030754" lon="9.526344415297192"><ele>88.0</ele><time>2026-03-22T11:06:47.999Z</time></trkpt><trkpt lat="45.00324878108294" lon="9.526540384070467"><ele>88.33333333333333</ele><time>2026-03-22T11:06:48.999Z</time></trkpt><trkpt lat="45.00309583533225" lon="9.526743930256968"><ele>88.66666666666667</ele><time>2026-03-22T11:06:49.999Z</time></trkpt><trkpt lat="45.00294452518522" lon="9.526945299781994"><ele>89.0</ele><time>2026-03-22T11:06:50.999Z</time></trkpt><trkpt lat="45.00279351231052" lon="9.527146273734516"><ele>88.33333333333334</ele><time>2026-03-22T11:06:51.999Z</time></trkpt><trkpt lat="45.00264099112674" lon="9.527349255130224"><ele>87.66666666666667</ele><time>2026-03-22T11:06:52.999Z</time></trkpt><trkpt lat="45.00249051542451" lon="9.527549989108126"><ele>87.0</ele><time>2026-03-22T11:06:53.999Z</time></trkpt><trkpt lat="45.00233537809835" lon="9.527758311083309"><ele>87.33333333333333</ele><time>2026-03-22T11:06:54.999Z</time></trkpt><trkpt lat="45.00217418177864" lon="9.527974769087523"><ele>87.66666666666666</ele><time>2026-03-22T11:06:55.999Z</time></trkpt><trkpt lat="45.00201206132341" lon="9.52819075352678"><ele>88.0</ele><time>2026-03-22T11:06:56.999Z</time></trkpt><trkpt lat="45.001848332222714" lon="9.528408240079166"><ele>88.0</ele><time>2026-03-22T11:06:57.999Z</time></trkpt><trkpt lat="45.00169140385088" lon="9.528617335104785"><ele>88.0</ele><time>2026-03-22T11:06:58.999Z</time></trkpt><trkpt lat="45.00154017064413" lon="9.528818844972978"><ele>88.0</ele><time>2026-03-22T11:06:59.999Z</time></trkpt><trkpt lat="45.0013876657422" lon="9.52902204897501"><ele>87.33333333333333</ele><time>2026-03-22T11:07:00.999Z</time></trkpt><trkpt lat="45.00124436115732" lon="9.529212994288185"><ele>86.66666666666667</ele><time>2026-03-22T11:07:01.999Z</time></trkpt><trkpt lat="45.001108009158926" lon="9.529394675619084"><ele>86.0</ele><time>2026-03-22T11:07:02.999Z</time></trkpt><trkpt lat="45.00096866341636" lon="9.52958034597813"><ele>87.0</ele><time>2026-03-22T11:07:03.999Z</time></trkpt><trkpt lat="45.00082337480389" lon="9.529773934813642"><ele>88.0</ele><time>2026-03-22T11:07:04.999Z</time></trkpt><trkpt lat="45.00067838246969" lon="9.529967128898027"><ele>89.0</ele><time>2026-03-22T11:07:05.999Z</time></trkpt><trkpt lat="45.00053613467056" lon="9.530157726277164"><ele>89.0</ele><time>2026-03-22T11:07:06.999Z</time></trkpt><trkpt lat="45.0004040782199" lon="9.530334697832135"><ele>89.0</ele><time>2026-03-22T11:07:07.999Z</time></trkpt><trkpt lat="45.00028739950582" lon="9.53050598886982"><ele>89.0</ele><time>2026-03-22T11:07:08.999Z</time></trkpt><trkpt lat="45.00017942801664" lon="9.530648666331643"><ele>89.0</ele><time>2026-03-22T11:07:09.999Z</time></trkpt><trkpt lat="45.00007180548544" lon="9.530767294109346"><ele>89.0</ele><time>2026-03-22T11:07:10.998Z</time></trkpt><trkpt lat="44.99995176111414" lon="9.530855134604565"><ele>89.0</ele><time>2026-03-22T11:07:11.998Z</time></trkpt><trkpt lat="44.99981087357628" lon="9.530930334169547"><ele>89.0</ele><time>2026-03-22T11:07:12.998Z</time></trkpt><trkpt lat="44.99966876907722" lon="9.530992383981909"><ele>89.0</ele><time>2026-03-22T11:07:13.998Z</time></trkpt><trkpt lat="44.99952448391195" lon="9.531053282556792"><ele>89.0</ele><time>2026-03-22T11:07:14.998Z</time></trkpt><trkpt lat="44.999397781250515" lon="9.53110873507833"><ele>89.0</ele><time>2026-03-22T11:07:15.998Z</time></trkpt><trkpt lat="44.999275914082936" lon="9.531174246030858"><ele>89.0</ele><time>2026-03-22T11:07:16.998Z</time></trkpt><trkpt lat="44.99917361399318" lon="9.531247447445786"><ele>89.75</ele><time>2026-03-22T11:07:17.998Z</time></trkpt><trkpt lat="44.999075855051714" lon="9.531330065435627"><ele>90.5</ele><time>2026-03-22T11:07:18.998Z</time></trkpt><trkpt lat="44.998979257360894" lon="9.531416887434178"><ele>91.25</ele><time>2026-03-22T11:07:19.998Z</time></trkpt><trkpt lat="44.99888386477081" lon="9.531503367948359"><ele>92.0</ele><time>2026-03-22T11:07:20.998Z</time></trkpt><trkpt lat="44.99879006971727" lon="9.531587121488805"><ele>92.0</ele><time>2026-03-22T11:07:21.998Z</time></trkpt><trkpt lat="44.99871164733554" lon="9.531650762431655"><ele>92.0</ele><time>2026-03-22T11:07:22.998Z</time></trkpt><trkpt lat="44.99861741045602" lon="9.531720798880292"><ele>92.0</ele><time>2026-03-22T11:07:24.998Z</time></trkpt><trkpt lat="44.99854122829993" lon="9.531728120108287"><ele>92.0</ele><time>2026-03-22T11:07:26.998Z</time></trkpt><trkpt lat="44.99847535349052" lon="9.531742772297921"><ele>92.0</ele><time>2026-03-22T11:07:28.998Z</time></trkpt><trkpt lat="44.9983788997234" lon="9.531774080887706"><ele>92.0</ele><time>2026-03-22T11:07:31.998Z</time></trkpt><trkpt lat="44.99829718706946" lon="9.531581634820936"><ele>91.75</ele><time>2026-03-22T11:07:32.998Z</time></trkpt><trkpt lat="44.99822103403121" lon="9.531470510853243"><ele>91.5</ele><time>2026-03-22T11:07:33.998Z</time></trkpt><trkpt lat="44.998138132105964" lon="9.531347618989287"><ele>91.25</ele><time>2026-03-22T11:07:34.998Z</time></trkpt><trkpt lat="44.99804495760459" lon="9.531209688634236"><ele>91.0</ele><time>2026-03-22T11:07:35.998Z</time></trkpt><trkpt lat="44.99794691524785" lon="9.531063247796439"><ele>90.75</ele><time>2026-03-22T11:07:36.998Z</time></trkpt><trkpt lat="44.9978521433877" lon="9.530900067566948"><ele>90.5</ele><time>2026-03-22T11:07:37.998Z</time></trkpt><trkpt lat="44.99776910198746" lon="9.530743785148308"><ele>90.25</ele><time>2026-03-22T11:07:38.998Z</time></trkpt><trkpt lat="44.99768958222647" lon="9.530593891793465"><ele>90.0</ele><time>2026-03-22T11:07:39.998Z</time></trkpt><trkpt lat="44.997609511702365" lon="9.530450037698477"><ele>90.25</ele><time>2026-03-22T11:07:40.998Z</time></trkpt><trkpt lat="44.99753117339394" lon="9.530308538349502"><ele>90.5</ele><time>2026-03-22T11:07:41.998Z</time></trkpt><trkpt lat="44.99745613778423" lon="9.530174151214363"><ele>90.75</ele><time>2026-03-22T11:07:42.998Z</time></trkpt><trkpt lat="44.99737464035909" lon="9.530021812082598"><ele>91.0</ele><time>2026-03-22T11:07:43.998Z</time></trkpt><trkpt lat="44.99730091121274" lon="9.529881815695298"><ele>91.0</ele><time>2026-03-22T11:07:44.998Z</time></trkpt><trkpt lat="44.997229511652456" lon="9.529752564787119"><ele>91.0</ele><time>2026-03-22T11:07:45.998Z</time></trkpt><trkpt lat="44.9971632047516" lon="9.529630151402166"><ele>91.0</ele><time>2026-03-22T11:07:46.998Z</time></trkpt><trkpt lat="44.99710567924825" lon="9.529520538237776"><ele>91.0</ele><time>2026-03-22T11:07:47.998Z</time></trkpt><trkpt lat="44.99705178671245" lon="9.529419100157183"><ele>91.0</ele><time>2026-03-22T11:07:48.998Z</time></trkpt><trkpt lat="44.99700326542984" lon="9.5293258217525"><ele>90.8</ele><time>2026-03-22T11:07:49.998Z</time></trkpt><trkpt lat="44.99696175694139" lon="9.529235892234082"><ele>90.6</ele><time>2026-03-22T11:07:50.998Z</time></trkpt><trkpt lat="44.99691751444229" lon="9.529149497361184"><ele>90.4</ele><time>2026-03-22T11:07:51.998Z</time></trkpt><trkpt lat="44.99686412577094" lon="9.529046953573573"><ele>90.2</ele><time>2026-03-22T11:07:52.998Z</time></trkpt><trkpt lat="44.99679755739924" lon="9.528922170535317"><ele>90.0</ele><time>2026-03-22T11:07:53.998Z</time></trkpt><trkpt lat="44.99670865248337" lon="9.528760467475509"><ele>90.0</ele><time>2026-03-22T11:07:54.998Z</time></trkpt><trkpt lat="44.99658599130438" lon="9.528528031754826"><ele>90.0</ele><time>2026-03-22T11:07:56Z</time></trkpt><trkpt lat="44.99645207067099" lon="9.528266375946538"><ele>90.0</ele><time>2026-03-22T11:07:57Z</time></trkpt><trkpt lat="44.99631268864018" lon="9.527986913335866"><ele>90.0</ele><time>2026-03-22T11:07:58Z</time></trkpt><trkpt lat="44.99619373208739" lon="9.527737939219016"><ele>90.0</ele><time>2026-03-22T11:07:59Z</time></trkpt><trkpt lat="44.99609735121454" lon="9.527511786592965"><ele>90.0</ele><time>2026-03-22T11:08:00Z</time></trkpt><trkpt lat="44.995996280018765" lon="9.527327565029745"><ele>90.0</ele><time>2026-03-22T11:08:01Z</time></trkpt><trkpt lat="44.995912364245456" lon="9.52714358194744"><ele>90.0</ele><time>2026-03-22T11:08:02Z</time></trkpt><trkpt lat="44.99583841286709" lon="9.526991380224324"><ele>90.0</ele><time>2026-03-22T11:08:03Z</time></trkpt><trkpt lat="44.995766420986016" lon="9.526861663515493"><ele>90.0</ele><time>2026-03-22T11:08:04Z</time></trkpt><trkpt lat="44.99568148585281" lon="9.526754277467443"><ele>90.5</ele><time>2026-03-22T11:08:05Z</time></trkpt><trkpt lat="44.99556381180401" lon="9.526716104347198"><ele>91.0</ele><time>2026-03-22T11:08:06Z</time></trkpt><trkpt lat="44.99542029607782" lon="9.526726098747446"><ele>91.5</ele><time>2026-03-22T11:08:07Z</time></trkpt><trkpt lat="44.99527193873856" lon="9.526746979302857"><ele>92.0</ele><time>2026-03-22T11:08:08Z</time></trkpt><trkpt lat="44.995125084737936" lon="9.526761803037866"><ele>92.33333333333334</ele><time>2026-03-22T11:08:09Z</time></trkpt><trkpt lat="44.99495901591675" lon="9.526770957909289"><ele>92.66666666666667</ele><time>2026-03-22T11:08:10Z</time></trkpt><trkpt lat="44.99477959887612" lon="9.52677629052936"><ele>93.0</ele><time>2026-03-22T11:08:11Z</time></trkpt><trkpt lat="44.994580648966185" lon="9.526771148928624"><ele>93.0</ele><time>2026-03-22T11:08:12Z</time></trkpt><trkpt lat="44.99437282849495" lon="9.526748964813578"><ele>93.0</ele><time>2026-03-22T11:08:13Z</time></trkpt><trkpt lat="44.99415972873492" lon="9.52671160109912"><ele>93.0</ele><time>2026-03-22T11:08:14Z</time></trkpt><trkpt lat="44.993946078869755" lon="9.526671316239042"><ele>93.66666666666667</ele><time>2026-03-22T11:08:15Z</time></trkpt><trkpt lat="44.99373665124035" lon="9.526624066865025"><ele>94.33333333333334</ele><time>2026-03-22T11:08:16Z</time></trkpt><trkpt lat="44.99352316654492" lon="9.52656781397335"><ele>95.0</ele><time>2026-03-22T11:08:17Z</time></trkpt><trkpt lat="44.99330675985983" lon="9.526500099611056"><ele>95.33333333333334</ele><time>2026-03-22T11:08:18Z</time></trkpt><trkpt lat="44.993090397648885" lon="9.526429818142855"><ele>95.66666666666667</ele><time>2026-03-22T11:08:19Z</time></trkpt><trkpt lat="44.992878176422714" lon="9.526363978818585"><ele>96.0</ele><time>2026-03-22T11:08:20Z</time></trkpt><trkpt lat="44.99267741609425" lon="9.526301753715503"><ele>95.33333333333333</ele><time>2026-03-22T11:08:21Z</time></trkpt><trkpt lat="44.992491992150725" lon="9.526247710766357"><ele>94.66666666666666</ele><time>2026-03-22T11:08:22Z</time></trkpt><trkpt lat="44.99231096195443" lon="9.526181261846428"><ele>94.0</ele><time>2026-03-22T11:08:23Z</time></trkpt><trkpt lat="44.992144218360714" lon="9.526072540268698"><ele>93.66666666666666</ele><time>2026-03-22T11:08:24Z</time></trkpt><trkpt lat="44.99198463726869" lon="9.52590919660956"><ele>93.33333333333333</ele><time>2026-03-22T11:08:25Z</time></trkpt><trkpt lat="44.99183838958431" lon="9.525717571527704"><ele>93.0</ele><time>2026-03-22T11:08:26Z</time></trkpt><trkpt lat="44.991691654252385" lon="9.525494634345065"><ele>94.0</ele><time>2026-03-22T11:08:27Z</time></trkpt><trkpt lat="44.99152866226777" lon="9.525295213761808"><ele>95.0</ele><time>2026-03-22T11:08:28Z</time></trkpt><trkpt lat="44.9913721915546" lon="9.525074611433999"><ele>96.0</ele><time>2026-03-22T11:08:29Z</time></trkpt><trkpt lat="44.991220549371064" lon="9.524835368130992"><ele>96.0</ele><time>2026-03-22T11:08:30Z</time></trkpt><trkpt lat="44.991065667166076" lon="9.524624373714294"><ele>96.0</ele><time>2026-03-22T11:08:31Z</time></trkpt><trkpt lat="44.99092636621761" lon="9.524431450995893"><ele>96.0</ele><time>2026-03-22T11:08:32Z</time></trkpt><trkpt lat="44.99079181378889" lon="9.524237842426786"><ele>96.0</ele><time>2026-03-22T11:08:33Z</time></trkpt><trkpt lat="44.99067226351502" lon="9.524056622182059"><ele>96.0</ele><time>2026-03-22T11:08:34Z</time></trkpt><trkpt lat="44.990533289469994" lon="9.523892074718134"><ele>96.0</ele><time>2026-03-22T11:08:35Z</time></trkpt><trkpt lat="44.990422188653014" lon="9.523739123640626"><ele>96.66666666666666</ele><time>2026-03-22T11:08:36Z</time></trkpt><trkpt lat="44.99032253667385" lon="9.523587704478235"><ele>97.33333333333333</ele><time>2026-03-22T11:08:37Z</time></trkpt><trkpt lat="44.99018968900478" lon="9.523469812728587"><ele>98.0</ele><time>2026-03-22T11:08:38Z</time></trkpt><trkpt lat="44.990009454388804" lon="9.523380980188605"><ele>98.0</ele><time>2026-03-22T11:08:39Z</time></trkpt><trkpt lat="44.98981339616248" lon="9.523304205112042"><ele>98.0</ele><time>2026-03-22T11:08:40Z</time></trkpt><trkpt lat="44.9896121382079" lon="9.523231216424628"><ele>98.0</ele><time>2026-03-22T11:08:41Z</time></trkpt><trkpt lat="44.98941052769236" lon="9.5231500851654"><ele>98.0</ele><time>2026-03-22T11:08:42Z</time></trkpt><trkpt lat="44.98921310073846" lon="9.52307190592421"><ele>98.0</ele><time>2026-03-22T11:08:42.999Z</time></trkpt><trkpt lat="44.98900298882231" lon="9.522992479809002"><ele>98.0</ele><time>2026-03-22T11:08:43.999Z</time></trkpt><trkpt lat="44.98879176215719" lon="9.52291256710294"><ele>98.33333333333333</ele><time>2026-03-22T11:08:44.999Z</time></trkpt><trkpt lat="44.98858282907963" lon="9.522829547714283"><ele>98.66666666666666</ele><time>2026-03-22T11:08:45.999Z</time></trkpt><trkpt lat="44.98836938116224" lon="9.522743850970441"><ele>99.0</ele><time>2026-03-22T11:08:46.999Z</time></trkpt><trkpt lat="44.98815541350467" lon="9.522661147317264"><ele>99.0</ele><time>2026-03-22T11:08:47.999Z</time></trkpt><trkpt lat="44.98794585517727" lon="9.522572626510815"><ele>99.0</ele><time>2026-03-22T11:08:48.999Z</time></trkpt><trkpt lat="44.98773000757736" lon="9.52248718435862"><ele>99.0</ele><time>2026-03-22T11:08:49.999Z</time></trkpt><trkpt lat="44.98750912607892" lon="9.522423937800145"><ele>98.66666666666666</ele><time>2026-03-22T11:08:50.999Z</time></trkpt><trkpt lat="44.98728745714321" lon="9.522380065522823"><ele>98.33333333333333</ele><time>2026-03-22T11:08:51.999Z</time></trkpt><trkpt lat="44.987067878395436" lon="9.522346735852263"><ele>98.0</ele><time>2026-03-22T11:08:52.999Z</time></trkpt><trkpt lat="44.98684853109333" lon="9.522317815040132"><ele>97.33333333333333</ele><time>2026-03-22T11:08:53.999Z</time></trkpt><trkpt lat="44.98663121154247" lon="9.522287429161649"><ele>96.66666666666666</ele><time>2026-03-22T11:08:54.999Z</time></trkpt><trkpt lat="44.986411321302896" lon="9.522255015846982"><ele>96.0</ele><time>2026-03-22T11:08:55.999Z</time></trkpt><trkpt lat="44.986195507834786" lon="9.522230955486718"><ele>96.0</ele><time>2026-03-22T11:08:56.999Z</time></trkpt><trkpt lat="44.985977229104286" lon="9.5222033314134"><ele>96.0</ele><time>2026-03-22T11:08:57.999Z</time></trkpt><trkpt lat="44.985758578255165" lon="9.522165898675844"><ele>96.0</ele><time>2026-03-22T11:08:58.999Z</time></trkpt><trkpt lat="44.98554062585721" lon="9.522123130855169"><ele>96.33333333333334</ele><time>2026-03-22T11:08:59.999Z</time></trkpt><trkpt lat="44.985320880498236" lon="9.522083995131156"><ele>96.66666666666667</ele><time>2026-03-22T11:09:00.999Z</time></trkpt><trkpt lat="44.98510734217215" lon="9.522056866829773"><ele>97.0</ele><time>2026-03-22T11:09:01.999Z</time></trkpt><trkpt lat="44.98490548212633" lon="9.522065815207162"><ele>97.66666666666667</ele><time>2026-03-22T11:09:02.999Z</time></trkpt><trkpt lat="44.98469902991047" lon="9.522118126418318"><ele>98.33333333333334</ele><time>2026-03-22T11:09:03.999Z</time></trkpt><trkpt lat="44.9844907405345" lon="9.522191769988428"><ele>99.0</ele><time>2026-03-22T11:09:04.999Z</time></trkpt><trkpt lat="44.984270836292204" lon="9.52226586691592"><ele>99.5</ele><time>2026-03-22T11:09:05.999Z</time></trkpt><trkpt lat="44.984041689004556" lon="9.52230719651064"><ele>100.0</ele><time>2026-03-22T11:09:06.999Z</time></trkpt><trkpt lat="44.98381317857337" lon="9.522350574932824"><ele>100.0</ele><time>2026-03-22T11:09:07.999Z</time></trkpt><trkpt lat="44.983577293376264" lon="9.522404059446732"><ele>100.0</ele><time>2026-03-22T11:09:08.999Z</time></trkpt><trkpt lat="44.98334268662632" lon="9.522423790606725"><ele>99.5</ele><time>2026-03-22T11:09:09.999Z</time></trkpt><trkpt lat="44.983104413245314" lon="9.522428828673545"><ele>99.0</ele><time>2026-03-22T11:09:10.999Z</time></trkpt><trkpt lat="44.98287248729114" lon="9.522390891354638"><ele>99.0</ele><time>2026-03-22T11:09:11.999Z</time></trkpt><trkpt lat="44.98266071367908" lon="9.522326136707298"><ele>99.0</ele><time>2026-03-22T11:09:12.999Z</time></trkpt><trkpt lat="44.98246676066909" lon="9.522243177599494"><ele>99.0</ele><time>2026-03-22T11:09:13.999Z</time></trkpt><trkpt lat="44.98226814156696" lon="9.522141810513592"><ele>99.0</ele><time>2026-03-22T11:09:14.999Z</time></trkpt><trkpt lat="44.98208311756349" lon="9.522014967227058"><ele>99.0</ele><time>2026-03-22T11:09:15.999Z</time></trkpt><trkpt lat="44.98190496621382" lon="9.521882363852155"><ele>99.0</ele><time>2026-03-22T11:09:16.999Z</time></trkpt><trkpt lat="44.98172355632933" lon="9.521784236937314"><ele>99.66666666666666</ele><time>2026-03-22T11:09:17.999Z</time></trkpt><trkpt lat="44.98151144189245" lon="9.521717530557092"><ele>100.33333333333333</ele><time>2026-03-22T11:09:18.999Z</time></trkpt><trkpt lat="44.98130872044253" lon="9.52172351790375"><ele>101.0</ele><time>2026-03-22T11:09:19.999Z</time></trkpt><trkpt lat="44.98112086702357" lon="9.521766815060351"><ele>101.0</ele><time>2026-03-22T11:09:20.999Z</time></trkpt><trkpt lat="44.9809359943171" lon="9.521831975105572"><ele>101.0</ele><time>2026-03-22T11:09:21.999Z</time></trkpt><trkpt lat="44.980742544227006" lon="9.521883608304309"><ele>101.0</ele><time>2026-03-22T11:09:22.999Z</time></trkpt><trkpt lat="44.98054484261246" lon="9.52193851357733"><ele>100.66666666666666</ele><time>2026-03-22T11:09:23.999Z</time></trkpt><trkpt lat="44.98034080144191" lon="9.521992015823425"><ele>100.33333333333334</ele><time>2026-03-22T11:09:24.999Z</time></trkpt><trkpt lat="44.9801411475411" lon="9.522086367543986"><ele>100.0</ele><time>2026-03-22T11:09:25.999Z</time></trkpt><trkpt lat="44.97994437581639" lon="9.522179357216798"><ele>101.0</ele><time>2026-03-22T11:09:26.999Z</time></trkpt><trkpt lat="44.979782587228726" lon="9.522433635717146"><ele>102.0</ele><time>2026-03-22T11:09:27.998Z</time></trkpt><trkpt lat="44.979575559432575" lon="9.522495340339974"><ele>102.0</ele><time>2026-03-22T11:09:28.998Z</time></trkpt><trkpt lat="44.97936367789068" lon="9.522528289483619"><ele>102.0</ele><time>2026-03-22T11:09:29.998Z</time></trkpt><trkpt lat="44.97916037161222" lon="9.522549432038977"><ele>102.0</ele><time>2026-03-22T11:09:30.998Z</time></trkpt><trkpt lat="44.97895452919152" lon="9.522585741778363"><ele>102.0</ele><time>2026-03-22T11:09:31.998Z</time></trkpt><trkpt lat="44.978749915190036" lon="9.522629192656266"><ele>102.0</ele><time>2026-03-22T11:09:32.998Z</time></trkpt><trkpt lat="44.97853694624043" lon="9.522644572097995"><ele>102.0</ele><time>2026-03-22T11:09:33.998Z</time></trkpt><trkpt lat="44.978323730530256" lon="9.522611890581109"><ele>102.0</ele><time>2026-03-22T11:09:34.998Z</time></trkpt><trkpt lat="44.97811162103019" lon="9.522535921864709"><ele>102.0</ele><time>2026-03-22T11:09:35.998Z</time></trkpt><trkpt lat="44.977899516156064" lon="9.522460592174077"><ele>102.0</ele><time>2026-03-22T11:09:36.998Z</time></trkpt><trkpt lat="44.97768259168414" lon="9.522395714926331"><ele>102.33333333333334</ele><time>2026-03-22T11:09:37.998Z</time></trkpt><trkpt lat="44.97746830813342" lon="9.522333233589272"><ele>102.66666666666667</ele><time>2026-03-22T11:09:38.998Z</time></trkpt><trkpt lat="44.97725368072405" lon="9.522265344791519"><ele>103.0</ele><time>2026-03-22T11:09:39.998Z</time></trkpt><trkpt lat="44.977034623000485" lon="9.522195547143465"><ele>103.0</ele><time>2026-03-22T11:09:40.998Z</time></trkpt><trkpt lat="44.97681316091853" lon="9.52212892912728"><ele>103.0</ele><time>2026-03-22T11:09:41.998Z</time></trkpt><trkpt lat="44.97659122511807" lon="9.52206234250251"><ele>103.33333333333334</ele><time>2026-03-22T11:09:42.998Z</time></trkpt><trkpt lat="44.97636916201588" lon="9.52199591427854"><ele>103.66666666666666</ele><time>2026-03-22T11:09:43.998Z</time></trkpt><trkpt lat="44.97615966137085" lon="9.521934238155172"><ele>104.0</ele><time>2026-03-22T11:09:44.998Z</time></trkpt><trkpt lat="44.975969189815345" lon="9.521876958423537"><ele>104.33333333333333</ele><time>2026-03-22T11:09:45.998Z</time></trkpt><trkpt lat="44.9757828736578" lon="9.52181761429187"><ele>104.66666666666666</ele><time>2026-03-22T11:09:46.998Z</time></trkpt><trkpt lat="44.9756214087922" lon="9.521762658119991"><ele>105.0</ele><time>2026-03-22T11:09:47.998Z</time></trkpt><trkpt lat="44.97547533145752" lon="9.521709443061289"><ele>105.0</ele><time>2026-03-22T11:09:48.998Z</time></trkpt><trkpt lat="44.97534812898238" lon="9.521669434832582"><ele>105.0</ele><time>2026-03-22T11:09:49.998Z</time></trkpt><trkpt lat="44.97525324676713" lon="9.521639618974163"><ele>105.0</ele><time>2026-03-22T11:09:50.998Z</time></trkpt><trkpt lat="44.97518609289973" lon="9.521612879654578"><ele>105.0</ele><time>2026-03-22T11:09:51.998Z</time></trkpt><trkpt lat="44.97510539811796" lon="9.521609515769555"><ele>105.0</ele><time>2026-03-22T11:09:53.998Z</time></trkpt><trkpt lat="44.975038915061056" lon="9.521802885620332"><ele>105.33333333333334</ele><time>2026-03-22T11:09:55.998Z</time></trkpt><trkpt lat="44.97500444779164" lon="9.521975939793549"><ele>105.66666666666667</ele><time>2026-03-22T11:09:56.998Z</time></trkpt><trkpt lat="44.97496774490005" lon="9.522186297997417"><ele>106.0</ele><time>2026-03-22T11:09:57.998Z</time></trkpt><trkpt lat="44.97493300254004" lon="9.522430298491107"><ele>107.33333333333334</ele><time>2026-03-22T11:09:58.998Z</time></trkpt><trkpt lat="44.97490729676705" lon="9.522698183548405"><ele>108.66666666666666</ele><time>2026-03-22T11:09:59.998Z</time></trkpt><trkpt lat="44.97488958723329" lon="9.52298720462113"><ele>110.0</ele><time>2026-03-22T11:10:00.998Z</time></trkpt><trkpt lat="44.974872011583486" lon="9.523294129058613"><ele>111.0</ele><time>2026-03-22T11:10:02.001Z</time></trkpt><trkpt lat="44.97484713132584" lon="9.523602087731362"><ele>112.0</ele><time>2026-03-22T11:10:03.001Z</time></trkpt><trkpt lat="44.974815371645704" lon="9.52386407300741"><ele>113.0</ele><time>2026-03-22T11:10:04.001Z</time></trkpt><trkpt lat="44.97478350795142" lon="9.524094761784689"><ele>114.0</ele><time>2026-03-22T11:10:05.001Z</time></trkpt><trkpt lat="44.97474215181886" lon="9.524295768291672"><ele>115.0</ele><time>2026-03-22T11:10:06.001Z</time></trkpt><trkpt lat="44.974680401754775" lon="9.524463309664888"><ele>116.0</ele><time>2026-03-22T11:10:07.001Z</time></trkpt><trkpt lat="44.974606738206845" lon="9.524575817177983"><ele>117.0</ele><time>2026-03-22T11:10:08.001Z</time></trkpt><trkpt lat="44.974512435712604" lon="9.524634228519492"><ele>117.25</ele><time>2026-03-22T11:10:09.001Z</time></trkpt><trkpt lat="44.9743858136891" lon="9.52463586184906"><ele>117.5</ele><time>2026-03-22T11:10:10.001Z</time></trkpt><trkpt lat="44.97424257514304" lon="9.524580547775788"><ele>117.75</ele><time>2026-03-22T11:10:11.001Z</time></trkpt><trkpt lat="44.974093228195926" lon="9.524517839760524"><ele>118.0</ele><time>2026-03-22T11:10:12.001Z</time></trkpt><trkpt lat="44.9739234800082" lon="9.524463653025045"><ele>118.33333333333334</ele><time>2026-03-22T11:10:13.001Z</time></trkpt><trkpt lat="44.973740357662244" lon="9.524410452070175"><ele>118.66666666666666</ele><time>2026-03-22T11:10:14.001Z</time></trkpt><trkpt lat="44.973550265224695" lon="9.524350235753117"><ele>119.0</ele><time>2026-03-22T11:10:15.001Z</time></trkpt><trkpt lat="44.97335312207735" lon="9.524290030119595"><ele>120.0</ele><time>2026-03-22T11:10:16.001Z</time></trkpt><trkpt lat="44.973151930778954" lon="9.524235270965761"><ele>121.0</ele><time>2026-03-22T11:10:17.001Z</time></trkpt><trkpt lat="44.972946325503344" lon="9.524176996042666"><ele>122.0</ele><time>2026-03-22T11:10:18.001Z</time></trkpt><trkpt lat="44.97273629308081" lon="9.524113675088461"><ele>122.0</ele><time>2026-03-22T11:10:19Z</time></trkpt><trkpt lat="44.972533474290955" lon="9.524058019518813"><ele>122.0</ele><time>2026-03-22T11:10:20Z</time></trkpt><trkpt lat="44.9723262678353" lon="9.523997276410508"><ele>122.0</ele><time>2026-03-22T11:10:21Z</time></trkpt><trkpt lat="44.97212957013695" lon="9.523931183842045"><ele>122.66666666666666</ele><time>2026-03-22T11:10:22Z</time></trkpt><trkpt lat="44.971951626251425" lon="9.523857995432428"><ele>123.33333333333334</ele><time>2026-03-22T11:10:23Z</time></trkpt><trkpt lat="44.97178518579823" lon="9.52378082847175"><ele>124.0</ele><time>2026-03-22T11:10:24Z</time></trkpt><trkpt lat="44.97162153482349" lon="9.523707102566108"><ele>125.5</ele><time>2026-03-22T11:10:25Z</time></trkpt><trkpt lat="44.97147369958201" lon="9.52364046732757"><ele>127.0</ele><time>2026-03-22T11:10:26Z</time></trkpt><trkpt lat="44.97133274206615" lon="9.523579368127976"><ele>128.5</ele><time>2026-03-22T11:10:26.999Z</time></trkpt><trkpt lat="44.97119357499048" lon="9.523519975229277"><ele>130.0</ele><time>2026-03-22T11:10:27.999Z</time></trkpt><trkpt lat="44.97105703606493" lon="9.523463961522005"><ele>130.0</ele><time>2026-03-22T11:10:28.999Z</time></trkpt><trkpt lat="44.97091566539443" lon="9.523415226504914"><ele>130.0</ele><time>2026-03-22T11:10:29.999Z</time></trkpt><trkpt lat="44.97076828899588" lon="9.523371691213056"><ele>130.0</ele><time>2026-03-22T11:10:30.999Z</time></trkpt><trkpt lat="44.970615895256344" lon="9.523327741351476"><ele>130.0</ele><time>2026-03-22T11:10:31.999Z</time></trkpt><trkpt lat="44.97047036325232" lon="9.52329494898207"><ele>130.0</ele><time>2026-03-22T11:10:32.999Z</time></trkpt><trkpt lat="44.97033856774851" lon="9.523276761256435"><ele>130.0</ele><time>2026-03-22T11:10:33.999Z</time></trkpt><trkpt lat="44.970217549342884" lon="9.523247918440214"><ele>130.0</ele><time>2026-03-22T11:10:34.999Z</time></trkpt><trkpt lat="44.97008886343162" lon="9.52327060722847"><ele>131.0</ele><time>2026-03-22T11:10:35.999Z</time></trkpt><trkpt lat="44.96996308451255" lon="9.523252189001493"><ele>132.0</ele><time>2026-03-22T11:10:36.999Z</time></trkpt><trkpt lat="44.969830520119075" lon="9.523269390735337"><ele>133.0</ele><time>2026-03-22T11:10:37.999Z</time></trkpt><trkpt lat="44.96969219594213" lon="9.523286444564079"><ele>134.0</ele><time>2026-03-22T11:10:38.999Z</time></trkpt><trkpt lat="44.96953770488551" lon="9.523297552681642"><ele>134.0</ele><time>2026-03-22T11:10:39.999Z</time></trkpt><trkpt lat="44.969354578494965" lon="9.523294994317071"><ele>134.0</ele><time>2026-03-22T11:10:40.999Z</time></trkpt><trkpt lat="44.969163774588345" lon="9.523238755175433"><ele>134.0</ele><time>2026-03-22T11:10:41.999Z</time></trkpt><trkpt lat="44.96895659943249" lon="9.523181927545915"><ele>134.33333333333331</ele><time>2026-03-22T11:10:42.999Z</time></trkpt><trkpt lat="44.968750736780976" lon="9.523119751225174"><ele>134.66666666666666</ele><time>2026-03-22T11:10:43.999Z</time></trkpt><trkpt lat="44.96854192742823" lon="9.52305574893325"><ele>135.0</ele><time>2026-03-22T11:10:44.999Z</time></trkpt><trkpt lat="44.968331216127986" lon="9.522980584810028"><ele>135.33333333333334</ele><time>2026-03-22T11:10:45.999Z</time></trkpt><trkpt lat="44.96812019487895" lon="9.522874068058762"><ele>135.66666666666669</ele><time>2026-03-22T11:10:46.999Z</time></trkpt><trkpt lat="44.96792016321866" lon="9.522744358288605"><ele>136.0</ele><time>2026-03-22T11:10:47.999Z</time></trkpt><trkpt lat="44.967730913281194" lon="9.522601338388997"><ele>136.0</ele><time>2026-03-22T11:10:48.999Z</time></trkpt><trkpt lat="44.9675423307882" lon="9.522464041569132"><ele>136.0</ele><time>2026-03-22T11:10:49.999Z</time></trkpt><trkpt lat="44.96735018848769" lon="9.52234022325623"><ele>136.0</ele><time>2026-03-22T11:10:50.999Z</time></trkpt><trkpt lat="44.96715021380227" lon="9.522225691313935"><ele>136.33333333333334</ele><time>2026-03-22T11:10:51.999Z</time></trkpt><trkpt lat="44.966946226301154" lon="9.522126462964879"><ele>136.66666666666666</ele><time>2026-03-22T11:10:52.999Z</time></trkpt><trkpt lat="44.96673497070649" lon="9.522039293036784"><ele>137.0</ele><time>2026-03-22T11:10:53.999Z</time></trkpt><trkpt lat="44.96651884802527" lon="9.521958747246092"><ele>138.5</ele><time>2026-03-22T11:10:54.999Z</time></trkpt><trkpt lat="44.96630323988828" lon="9.521880598390299"><ele>140.0</ele><time>2026-03-22T11:10:55.999Z</time></trkpt><trkpt lat="44.966076878415564" lon="9.521801956796015"><ele>141.5</ele><time>2026-03-22T11:10:56.999Z</time></trkpt><trkpt lat="44.965852357366" lon="9.5217368748363"><ele>143.0</ele><time>2026-03-22T11:10:57.999Z</time></trkpt><trkpt lat="44.9656197817557" lon="9.521682448621354"><ele>143.0</ele><time>2026-03-22T11:10:58.999Z</time></trkpt><trkpt lat="44.965392047897105" lon="9.521633703624962"><ele>143.0</ele><time>2026-03-22T11:10:59.999Z</time></trkpt><trkpt lat="44.96519003835521" lon="9.521584879450488"><ele>143.0</ele><time>2026-03-22T11:11:00.999Z</time></trkpt><trkpt lat="44.96499394472629" lon="9.52153753582206"><ele>143.66666666666666</ele><time>2026-03-22T11:11:01.998Z</time></trkpt><trkpt lat="44.96479506896918" lon="9.521492044538924"><ele>144.33333333333334</ele><time>2026-03-22T11:11:02.998Z</time></trkpt><trkpt lat="44.96458818681405" lon="9.521450567818103"><ele>145.0</ele><time>2026-03-22T11:11:03.998Z</time></trkpt><trkpt lat="44.96438184882856" lon="9.52140983764522"><ele>145.33333333333334</ele><time>2026-03-22T11:11:04.998Z</time></trkpt><trkpt lat="44.96417539036059" lon="9.5213691927427"><ele>145.66666666666666</ele><time>2026-03-22T11:11:05.998Z</time></trkpt><trkpt lat="44.96396653279453" lon="9.521323462531894"><ele>146.0</ele><time>2026-03-22T11:11:06.998Z</time></trkpt><trkpt lat="44.96375599435581" lon="9.52127499062257"><ele>146.33333333333331</ele><time>2026-03-22T11:11:07.998Z</time></trkpt><trkpt lat="44.963546903793805" lon="9.521229863540123"><ele>146.66666666666666</ele><time>2026-03-22T11:11:08.998Z</time></trkpt><trkpt lat="44.963340748181125" lon="9.521158856110004"><ele>147.0</ele><time>2026-03-22T11:11:09.998Z</time></trkpt><trkpt lat="44.9631248309558" lon="9.521116187993114"><ele>147.33333333333334</ele><time>2026-03-22T11:11:10.998Z</time></trkpt><trkpt lat="44.96291130308579" lon="9.521094887862754"><ele>147.66666666666669</ele><time>2026-03-22T11:11:11.998Z</time></trkpt><trkpt lat="44.96269402395803" lon="9.521096911163944"><ele>148.0</ele><time>2026-03-22T11:11:12.998Z</time></trkpt><trkpt lat="44.96247861786348" lon="9.521120881363204"><ele>148.0</ele><time>2026-03-22T11:11:13.998Z</time></trkpt><trkpt lat="44.96226568037261" lon="9.521162479977827"><ele>148.0</ele><time>2026-03-22T11:11:14.998Z</time></trkpt><trkpt lat="44.962058103669555" lon="9.521213213498404"><ele>148.0</ele><time>2026-03-22T11:11:15.998Z</time></trkpt><trkpt lat="44.961850126150516" lon="9.5212574556007"><ele>149.33333333333334</ele><time>2026-03-22T11:11:16.998Z</time></trkpt><trkpt lat="44.96163839713332" lon="9.521294762213458"><ele>150.66666666666666</ele><time>2026-03-22T11:11:17.998Z</time></trkpt><trkpt lat="44.961423722552" lon="9.52132538774194"><ele>152.0</ele><time>2026-03-22T11:11:18.998Z</time></trkpt><trkpt lat="44.96120385623237" lon="9.521351874813915"><ele>152.0</ele><time>2026-03-22T11:11:19.998Z</time></trkpt><trkpt lat="44.960986826839125" lon="9.521372765671856"><ele>152.0</ele><time>2026-03-22T11:11:20.998Z</time></trkpt><trkpt lat="44.960768128332134" lon="9.521394624292087"><ele>152.0</ele><time>2026-03-22T11:11:21.998Z</time></trkpt><trkpt lat="44.96054148200712" lon="9.521415899063523"><ele>153.33333333333331</ele><time>2026-03-22T11:11:22.998Z</time></trkpt><trkpt lat="44.960324138450915" lon="9.52143437576171"><ele>154.66666666666666</ele><time>2026-03-22T11:11:23.998Z</time></trkpt><trkpt lat="44.96011697541714" lon="9.52145190410641"><ele>156.0</ele><time>2026-03-22T11:11:24.998Z</time></trkpt><trkpt lat="44.95993344995903" lon="9.52146690628833"><ele>156.0</ele><time>2026-03-22T11:11:25.998Z</time></trkpt><trkpt lat="44.95975460249241" lon="9.521479604584814"><ele>156.0</ele><time>2026-03-22T11:11:26.998Z</time></trkpt><trkpt lat="44.95959524968086" lon="9.52149253607888"><ele>156.0</ele><time>2026-03-22T11:11:27.998Z</time></trkpt><trkpt lat="44.95944783381526" lon="9.521505897546271"><ele>156.0</ele><time>2026-03-22T11:11:28.998Z</time></trkpt><trkpt lat="44.95930531525692" lon="9.521513982558174"><ele>156.0</ele><time>2026-03-22T11:11:29.998Z</time></trkpt><trkpt lat="44.959165276390934" lon="9.521519366682936"><ele>156.0</ele><time>2026-03-22T11:11:30.998Z</time></trkpt><trkpt lat="44.9590096471977" lon="9.521523572794774"><ele>156.0</ele><time>2026-03-22T11:11:31.998Z</time></trkpt><trkpt lat="44.95884392370064" lon="9.521539479350157"><ele>156.66666666666666</ele><time>2026-03-22T11:11:32.998Z</time></trkpt><trkpt lat="44.9586833465668" lon="9.521525318934925"><ele>157.33333333333331</ele><time>2026-03-22T11:11:33.998Z</time></trkpt><trkpt lat="44.95850879127235" lon="9.521508217549417"><ele>158.0</ele><time>2026-03-22T11:11:34.998Z</time></trkpt><trkpt lat="44.958328223853194" lon="9.52149312454151"><ele>158.33333333333331</ele><time>2026-03-22T11:11:35.998Z</time></trkpt><trkpt lat="44.95814601508917" lon="9.521483228094539"><ele>158.66666666666666</ele><time>2026-03-22T11:11:36.998Z</time></trkpt><trkpt lat="44.95796190356623" lon="9.52149502695317"><ele>159.0</ele><time>2026-03-22T11:11:37.998Z</time></trkpt><trkpt lat="44.95778727403707" lon="9.521494878088014"><ele>159.0</ele><time>2026-03-22T11:11:38.998Z</time></trkpt><trkpt lat="44.95763462308291" lon="9.521537520157137"><ele>159.0</ele><time>2026-03-22T11:11:39.998Z</time></trkpt><trkpt lat="44.95747435069754" lon="9.521573195410236"><ele>159.0</ele><time>2026-03-22T11:11:40.998Z</time></trkpt><trkpt lat="44.957307463180705" lon="9.521610641220345"><ele>159.66666666666666</ele><time>2026-03-22T11:11:41.998Z</time></trkpt><trkpt lat="44.957141102292304" lon="9.52164804855449"><ele>160.33333333333331</ele><time>2026-03-22T11:11:42.998Z</time></trkpt><trkpt lat="44.956999315143214" lon="9.521680066790019"><ele>161.0</ele><time>2026-03-22T11:11:43.998Z</time></trkpt><trkpt lat="44.95685468688753" lon="9.521713479655475"><ele>161.66666666666666</ele><time>2026-03-22T11:11:44.998Z</time></trkpt><trkpt lat="44.95669878818304" lon="9.52174949631561"><ele>162.33333333333334</ele><time>2026-03-22T11:11:45.998Z</time></trkpt><trkpt lat="44.95654054919072" lon="9.521785670937915"><ele>163.0</ele><time>2026-03-22T11:11:46.997Z</time></trkpt><trkpt lat="44.95637488063333" lon="9.521823421478295"><ele>163.0</ele><time>2026-03-22T11:11:47.997Z</time></trkpt><trkpt lat="44.956221116756915" lon="9.521858459307337"><ele>163.0</ele><time>2026-03-22T11:11:48.997Z</time></trkpt><trkpt lat="44.956089658699405" lon="9.521888414388705"><ele>163.0</ele><time>2026-03-22T11:11:49.997Z</time></trkpt><trkpt lat="44.95595826094631" lon="9.521919221994398"><ele>163.0</ele><time>2026-03-22T11:11:50.997Z</time></trkpt><trkpt lat="44.955814107877785" lon="9.521954090561698"><ele>164.0</ele><time>2026-03-22T11:11:51.997Z</time></trkpt><trkpt lat="44.955655294459476" lon="9.521992505305738"><ele>165.0</ele><time>2026-03-22T11:11:52.997Z</time></trkpt><trkpt lat="44.955506747959156" lon="9.522026109473904"><ele>166.0</ele><time>2026-03-22T11:11:53.997Z</time></trkpt><trkpt lat="44.955357131011276" lon="9.5220595175393"><ele>165.66666666666669</ele><time>2026-03-22T11:11:54.997Z</time></trkpt><trkpt lat="44.95519365049922" lon="9.522096008315003"><ele>165.33333333333334</ele><time>2026-03-22T11:11:55.997Z</time></trkpt><trkpt lat="44.95501063102578" lon="9.522137763981032"><ele>165.0</ele><time>2026-03-22T11:11:56.997Z</time></trkpt><trkpt lat="44.95482600447833" lon="9.52218095065074"><ele>165.66666666666666</ele><time>2026-03-22T11:11:57.997Z</time></trkpt><trkpt lat="44.9546317943883" lon="9.522226587148443"><ele>166.33333333333331</ele><time>2026-03-22T11:11:58.997Z</time></trkpt><trkpt lat="44.95442768010131" lon="9.522273342659167"><ele>167.0</ele><time>2026-03-22T11:11:59.997Z</time></trkpt><trkpt lat="44.95422932749773" lon="9.522318398072624"><ele>167.66666666666666</ele><time>2026-03-22T11:12:00.997Z</time></trkpt><trkpt lat="44.95405812639391" lon="9.522359894244568"><ele>168.33333333333334</ele><time>2026-03-22T11:12:01.997Z</time></trkpt><trkpt lat="44.95390585338639" lon="9.522397742721232"><ele>169.0</ele><time>2026-03-22T11:12:02.997Z</time></trkpt><trkpt lat="44.953762968304154" lon="9.522425876189786"><ele>169.0</ele><time>2026-03-22T11:12:03.997Z</time></trkpt><trkpt lat="44.95363910255124" lon="9.52245086676617"><ele>169.0</ele><time>2026-03-22T11:12:04.997Z</time></trkpt><trkpt lat="44.95350775647593" lon="9.522427882644761"><ele>169.0</ele><time>2026-03-22T11:12:05.997Z</time></trkpt><trkpt lat="44.953370870911066" lon="9.522400228244507"><ele>169.0</ele><time>2026-03-22T11:12:06.997Z</time></trkpt><trkpt lat="44.95322747028225" lon="9.522380342856676"><ele>169.5</ele><time>2026-03-22T11:12:08Z</time></trkpt><trkpt lat="44.95308118902057" lon="9.52236371864192"><ele>170.0</ele><time>2026-03-22T11:12:09Z</time></trkpt><trkpt lat="44.95293885635024" lon="9.522342383947336"><ele>170.5</ele><time>2026-03-22T11:12:10Z</time></trkpt><trkpt lat="44.95281140668594" lon="9.522323571182733"><ele>171.0</ele><time>2026-03-22T11:12:11Z</time></trkpt><trkpt lat="44.95270639428228" lon="9.522297453291198"><ele>171.0</ele><time>2026-03-22T11:12:12Z</time></trkpt><trkpt lat="44.95262883214893" lon="9.522276499258156"><ele>171.0</ele><time>2026-03-22T11:12:13Z</time></trkpt><trkpt lat="44.95255125606783" lon="9.522278673066847"><ele>171.0</ele><time>2026-03-22T11:12:24.999Z</time></trkpt><trkpt lat="44.95248366691912" lon="9.5222575444039"><ele>171.0</ele><time>2026-03-22T11:12:25.999Z</time></trkpt><trkpt lat="44.952419088748684" lon="9.52224963656927"><ele>171.0</ele><time>2026-03-22T11:12:26.999Z</time></trkpt><trkpt lat="44.952287432705276" lon="9.522233514808972"><ele>171.0</ele><time>2026-03-22T11:12:28.999Z</time></trkpt><trkpt lat="44.952214235487" lon="9.522224551629401"><ele>171.4</ele><time>2026-03-22T11:12:29.999Z</time></trkpt><trkpt lat="44.95212661875131" lon="9.522233916530697"><ele>171.8</ele><time>2026-03-22T11:12:30.999Z</time></trkpt><trkpt lat="44.95202754891222" lon="9.522210398901617"><ele>172.20000000000002</ele><time>2026-03-22T11:12:31.999Z</time></trkpt><trkpt lat="44.951919169710216" lon="9.522187763698815"><ele>172.60000000000002</ele><time>2026-03-22T11:12:32.999Z</time></trkpt><trkpt lat="44.95179721547828" lon="9.522160906195241"><ele>173.0</ele><time>2026-03-22T11:12:33.999Z</time></trkpt><trkpt lat="44.95166284616779" lon="9.522119823957544"><ele>173.0</ele><time>2026-03-22T11:12:34.999Z</time></trkpt><trkpt lat="44.951538241817246" lon="9.522082592237467"><ele>173.0</ele><time>2026-03-22T11:12:35.999Z</time></trkpt><trkpt lat="44.95141826220495" lon="9.522056117081942"><ele>173.0</ele><time>2026-03-22T11:12:36.999Z</time></trkpt><trkpt lat="44.95129056622772" lon="9.522026105392532"><ele>173.0</ele><time>2026-03-22T11:12:37.999Z</time></trkpt><trkpt lat="44.95115698030926" lon="9.521989527760558"><ele>173.0</ele><time>2026-03-22T11:12:38.999Z</time></trkpt><trkpt lat="44.95102278725096" lon="9.521952977010907"><ele>173.0</ele><time>2026-03-22T11:12:39.999Z</time></trkpt><trkpt lat="44.9508803881208" lon="9.521914463078065"><ele>173.0</ele><time>2026-03-22T11:12:40.999Z</time></trkpt><trkpt lat="44.95075295535658" lon="9.521881331717635"><ele>173.0</ele><time>2026-03-22T11:12:41.999Z</time></trkpt><trkpt lat="44.95063818005662" lon="9.521857641921457"><ele>174.25</ele><time>2026-03-22T11:12:42.999Z</time></trkpt><trkpt lat="44.950513941019764" lon="9.521827266726039"><ele>175.5</ele><time>2026-03-22T11:12:43.999Z</time></trkpt><trkpt lat="44.950381556739025" lon="9.521792391957543"><ele>176.75</ele><time>2026-03-22T11:12:44.999Z</time></trkpt><trkpt lat="44.950241535951136" lon="9.521756480812698"><ele>178.0</ele><time>2026-03-22T11:12:45.999Z</time></trkpt><trkpt lat="44.95009433328376" lon="9.5217177185201"><ele>178.5</ele><time>2026-03-22T11:12:46.999Z</time></trkpt><trkpt lat="44.94996100999652" lon="9.521682948692256"><ele>179.0</ele><time>2026-03-22T11:12:47.999Z</time></trkpt><trkpt lat="44.949843024897554" lon="9.521651672205934"><ele>179.5</ele><time>2026-03-22T11:12:48.999Z</time></trkpt><trkpt lat="44.94973614645596" lon="9.521622638319771"><ele>180.0</ele><time>2026-03-22T11:12:49.999Z</time></trkpt><trkpt lat="44.94964153725455" lon="9.521577392119605"><ele>180.0</ele><time>2026-03-22T11:12:50.999Z</time></trkpt><trkpt lat="44.94955127379693" lon="9.521572995133905"><ele>180.0</ele><time>2026-03-22T11:12:51.999Z</time></trkpt><trkpt lat="44.949481235323546" lon="9.521538643710798"><ele>180.0</ele><time>2026-03-22T11:12:52.999Z</time></trkpt><trkpt lat="44.949410740172375" lon="9.521536817077338"><ele>180.0</ele><time>2026-03-22T11:12:54.999Z</time></trkpt><trkpt lat="44.94930989306061" lon="9.521509084269535"><ele>180.0</ele><time>2026-03-22T11:12:56.999Z</time></trkpt><trkpt lat="44.94925672796243" lon="9.521430893554768"><ele>180.0</ele><time>2026-03-22T11:12:57.999Z</time></trkpt><trkpt lat="44.94915309833747" lon="9.521434470553"><ele>180.2</ele><time>2026-03-22T11:12:58.999Z</time></trkpt><trkpt lat="44.9490534862513" lon="9.52147734847845"><ele>180.4</ele><time>2026-03-22T11:12:59.999Z</time></trkpt><trkpt lat="44.94897465237761" lon="9.521458421877698"><ele>180.60000000000002</ele><time>2026-03-22T11:13:00.999Z</time></trkpt><trkpt lat="44.94888242815217" lon="9.52139046322994"><ele>180.8</ele><time>2026-03-22T11:13:01.999Z</time></trkpt><trkpt lat="44.94879489077686" lon="9.521313392200321"><ele>181.0</ele><time>2026-03-22T11:13:02.999Z</time></trkpt><trkpt lat="44.94870864163293" lon="9.521253733710584"><ele>181.4</ele><time>2026-03-22T11:13:03.999Z</time></trkpt><trkpt lat="44.94860877666985" lon="9.521185691015699"><ele>181.8</ele><time>2026-03-22T11:13:04.999Z</time></trkpt><trkpt lat="44.948520429742565" lon="9.521122993816219"><ele>182.20000000000002</ele><time>2026-03-22T11:13:05.999Z</time></trkpt><trkpt lat="44.94843703284272" lon="9.521063779388742"><ele>182.60000000000002</ele><time>2026-03-22T11:13:06.999Z</time></trkpt><trkpt lat="44.94834619119784" lon="9.521000881330258"><ele>183.0</ele><time>2026-03-22T11:13:07.999Z</time></trkpt><trkpt lat="44.94825007649334" lon="9.520932703741382"><ele>183.16666666666666</ele><time>2026-03-22T11:13:08.999Z</time></trkpt><trkpt lat="44.948152777299946" lon="9.520865459067622"><ele>183.33333333333334</ele><time>2026-03-22T11:13:09.999Z</time></trkpt><trkpt lat="44.948058842792854" lon="9.520809595193532"><ele>183.5</ele><time>2026-03-22T11:13:10.999Z</time></trkpt><trkpt lat="44.94798327393171" lon="9.520759963053806"><ele>183.66666666666669</ele><time>2026-03-22T11:13:11.999Z</time></trkpt><trkpt lat="44.94791427263664" lon="9.520713686688964"><ele>183.83333333333334</ele><time>2026-03-22T11:13:12.999Z</time></trkpt><trkpt lat="44.94784903816687" lon="9.520674176050099"><ele>184.0</ele><time>2026-03-22T11:13:13.998Z</time></trkpt><trkpt lat="44.94776348269535" lon="9.52062192476376"><ele>184.0</ele><time>2026-03-22T11:13:14.998Z</time></trkpt><trkpt lat="44.94769852835551" lon="9.520579780297647"><ele>184.0</ele><time>2026-03-22T11:13:15.998Z</time></trkpt><trkpt lat="44.94760081815853" lon="9.52054757713179"><ele>184.0</ele><time>2026-03-22T11:13:17.998Z</time></trkpt><trkpt lat="44.94746517034785" lon="9.520637839164234"><ele>184.0</ele><time>2026-03-22T11:13:19.998Z</time></trkpt><trkpt lat="44.94743220135265" lon="9.520730545763064"><ele>184.0</ele><time>2026-03-22T11:13:20.998Z</time></trkpt><trkpt lat="44.94739507604039" lon="9.520834267713354"><ele>183.83333333333334</ele><time>2026-03-22T11:13:21.998Z</time></trkpt><trkpt lat="44.947351084418926" lon="9.520957765857624"><ele>183.66666666666669</ele><time>2026-03-22T11:13:22.998Z</time></trkpt><trkpt lat="44.94731083040201" lon="9.52107479162596"><ele>183.5</ele><time>2026-03-22T11:13:23.998Z</time></trkpt><trkpt lat="44.94728032028125" lon="9.521188633852773"><ele>183.33333333333334</ele><time>2026-03-22T11:13:24.998Z</time></trkpt><trkpt lat="44.94725368549466" lon="9.521288016110566"><ele>183.16666666666666</ele><time>2026-03-22T11:13:25.998Z</time></trkpt><trkpt lat="44.947227292278" lon="9.521386497058927"><ele>183.0</ele><time>2026-03-22T11:13:26.998Z</time></trkpt><trkpt lat="44.94720071285831" lon="9.521491914432524"><ele>183.0</ele><time>2026-03-22T11:13:27.998Z</time></trkpt><trkpt lat="44.94717435187312" lon="9.521602936718688"><ele>183.0</ele><time>2026-03-22T11:13:28.998Z</time></trkpt><trkpt lat="44.94715107206384" lon="9.521704710113422"><ele>183.0</ele><time>2026-03-22T11:13:29.998Z</time></trkpt><trkpt lat="44.947195251228486" lon="9.521805966318826"><ele>183.0</ele><time>2026-03-22T11:13:30.998Z</time></trkpt><trkpt lat="44.94716041967344" lon="9.5219543802134"><ele>183.0</ele><time>2026-03-22T11:13:32.998Z</time></trkpt><trkpt lat="44.94716337279187" lon="9.522137082512813"><ele>182.33333333333334</ele><time>2026-03-22T11:13:34.998Z</time></trkpt><trkpt lat="44.94721003303983" lon="9.52223497664367"><ele>181.66666666666666</ele><time>2026-03-22T11:13:35.998Z</time></trkpt><trkpt lat="44.94727652815199" lon="9.52230312798674"><ele>181.0</ele><time>2026-03-22T11:13:36.998Z</time></trkpt><trkpt lat="44.947352789080256" lon="9.522355699338705"><ele>180.33333333333331</ele><time>2026-03-22T11:13:37.998Z</time></trkpt><trkpt lat="44.94741566358296" lon="9.52240576019642"><ele>179.66666666666666</ele><time>2026-03-22T11:13:38.998Z</time></trkpt><trkpt lat="44.947487922993744" lon="9.522468396321509"><ele>179.0</ele><time>2026-03-22T11:13:39.998Z</time></trkpt><trkpt lat="44.947557130685496" lon="9.52252919584756"><ele>179.0</ele><time>2026-03-22T11:13:40.998Z</time></trkpt><trkpt lat="44.947627415008625" lon="9.522591501604714"><ele>179.0</ele><time>2026-03-22T11:13:41.998Z</time></trkpt><trkpt lat="44.947660169433824" lon="9.522712194596286"><ele>179.0</ele><time>2026-03-22T11:13:42.998Z</time></trkpt><trkpt lat="44.94768879872522" lon="9.52280906395166"><ele>179.0</ele><time>2026-03-22T11:13:43.998Z</time></trkpt><trkpt lat="44.94770929043582" lon="9.522922997169823"><ele>179.0</ele><time>2026-03-22T11:13:44.998Z</time></trkpt><trkpt lat="44.94771789645457" lon="9.523038294090396"><ele>179.0</ele><time>2026-03-22T11:13:45.998Z</time></trkpt><trkpt lat="44.94771157609112" lon="9.523166277147904"><ele>177.0</ele><time>2026-03-22T11:13:46.998Z</time></trkpt><trkpt lat="44.947706720398244" lon="9.523313738042395"><ele>175.0</ele><time>2026-03-22T11:13:47.998Z</time></trkpt><trkpt lat="44.94769757843302" lon="9.523490610160378"><ele>173.0</ele><time>2026-03-22T11:13:48.998Z</time></trkpt><trkpt lat="44.947687685891076" lon="9.523684674050626"><ele>171.0</ele><time>2026-03-22T11:13:49.998Z</time></trkpt><trkpt lat="44.947678019583385" lon="9.523868398630357"><ele>169.0</ele><time>2026-03-22T11:13:50.998Z</time></trkpt><trkpt lat="44.94766907195266" lon="9.524057847993001"><ele>167.0</ele><time>2026-03-22T11:13:51.998Z</time></trkpt><trkpt lat="44.947661681641655" lon="9.524266499117328"><ele>165.0</ele><time>2026-03-22T11:13:52.998Z</time></trkpt><trkpt lat="44.947653836894894" lon="9.52448830127338"><ele>163.0</ele><time>2026-03-22T11:13:53.998Z</time></trkpt><trkpt lat="44.94764654219773" lon="9.524695023485977"><ele>162.25</ele><time>2026-03-22T11:13:54.998Z</time></trkpt><trkpt lat="44.94763822835411" lon="9.52488950564199"><ele>161.5</ele><time>2026-03-22T11:13:55.998Z</time></trkpt><trkpt lat="44.94762996240189" lon="9.525069382087958"><ele>160.75</ele><time>2026-03-22T11:13:56.998Z</time></trkpt><trkpt lat="44.947619580341794" lon="9.525251548383736"><ele>160.0</ele><time>2026-03-22T11:13:57.998Z</time></trkpt><trkpt lat="44.947603269522574" lon="9.525442442252368"><ele>158.75</ele><time>2026-03-22T11:13:58.997Z</time></trkpt><trkpt lat="44.94758489150693" lon="9.525620949727244"><ele>157.5</ele><time>2026-03-22T11:13:59.997Z</time></trkpt><trkpt lat="44.947559477675256" lon="9.525788667231662"><ele>156.25</ele><time>2026-03-22T11:14:00.997Z</time></trkpt><trkpt lat="44.94752836886302" lon="9.525944651790601"><ele>155.0</ele><time>2026-03-22T11:14:01.997Z</time></trkpt><trkpt lat="44.94749787434707" lon="9.526098819904465"><ele>154.4</ele><time>2026-03-22T11:14:02.997Z</time></trkpt><trkpt lat="44.94747079252496" lon="9.526245823918886"><ele>153.8</ele><time>2026-03-22T11:14:03.997Z</time></trkpt><trkpt lat="44.947439927583055" lon="9.5263747121893"><ele>153.2</ele><time>2026-03-22T11:14:04.997Z</time></trkpt><trkpt lat="44.94740636353256" lon="9.52647134365311"><ele>152.6</ele><time>2026-03-22T11:14:05.997Z</time></trkpt><trkpt lat="44.94736624814094" lon="9.52655117001988"><ele>152.0</ele><time>2026-03-22T11:14:06.997Z</time></trkpt><trkpt lat="44.947275219352726" lon="9.52662213192219"><ele>152.0</ele><time>2026-03-22T11:14:08.997Z</time></trkpt><trkpt lat="44.9471513070347" lon="9.526639698102738"><ele>152.0</ele><time>2026-03-22T11:14:10.997Z</time></trkpt><trkpt lat="44.94707104459359" lon="9.526600051532302"><ele>152.0</ele><time>2026-03-22T11:14:11.997Z</time></trkpt><trkpt lat="44.94696512099586" lon="9.526549930633442"><ele>152.0</ele><time>2026-03-22T11:14:12.997Z</time></trkpt><trkpt lat="44.946865012114614" lon="9.526471806955024"><ele>152.0</ele><time>2026-03-22T11:14:14Z</time></trkpt><trkpt lat="44.94673676385314" lon="9.526390709985955"><ele>152.0</ele><time>2026-03-22T11:14:15Z</time></trkpt><trkpt lat="44.94659376694195" lon="9.526302766395007"><ele>152.0</ele><time>2026-03-22T11:14:16Z</time></trkpt><trkpt lat="44.94644130014319" lon="9.52621337304322"><ele>152.0</ele><time>2026-03-22T11:14:17Z</time></trkpt><trkpt lat="44.946279609736415" lon="9.526120270831319"><ele>152.66666666666666</ele><time>2026-03-22T11:14:18Z</time></trkpt><trkpt lat="44.94610627294506" lon="9.526020492324543"><ele>153.33333333333334</ele><time>2026-03-22T11:14:19Z</time></trkpt><trkpt lat="44.94594906734206" lon="9.525934248436144"><ele>154.0</ele><time>2026-03-22T11:14:20Z</time></trkpt><trkpt lat="44.9458110169954" lon="9.525851268811355"><ele>154.0</ele><time>2026-03-22T11:14:21Z</time></trkpt><trkpt lat="44.94569248391172" lon="9.525779836851518"><ele>154.0</ele><time>2026-03-22T11:14:22Z</time></trkpt><trkpt lat="44.94557436021425" lon="9.525712254306939"><ele>154.0</ele><time>2026-03-22T11:14:23Z</time></trkpt><trkpt lat="44.94546799348172" lon="9.52565704528657"><ele>154.0</ele><time>2026-03-22T11:14:24Z</time></trkpt><trkpt lat="44.94536580501931" lon="9.525624522107089"><ele>154.0</ele><time>2026-03-22T11:14:25Z</time></trkpt><trkpt lat="44.94526930591342" lon="9.525605323634503"><ele>154.0</ele><time>2026-03-22T11:14:26Z</time></trkpt><trkpt lat="44.94516379925261" lon="9.52559476109963"><ele>154.0</ele><time>2026-03-22T11:14:27Z</time></trkpt><trkpt lat="44.94508464881727" lon="9.525572198893592"><ele>154.0</ele><time>2026-03-22T11:14:28Z</time></trkpt><trkpt lat="44.94501154485992" lon="9.525582439283747"><ele>154.0</ele><time>2026-03-22T11:14:29Z</time></trkpt><trkpt lat="44.94492769081104" lon="9.525598191581315"><ele>154.0</ele><time>2026-03-22T11:14:30Z</time></trkpt><trkpt lat="44.94485044812333" lon="9.525619727663823"><ele>154.2</ele><time>2026-03-22T11:14:31Z</time></trkpt><trkpt lat="44.944781935551575" lon="9.52563071699585"><ele>154.4</ele><time>2026-03-22T11:14:32Z</time></trkpt><trkpt lat="44.94470944881158" lon="9.525626672526164"><ele>154.6</ele><time>2026-03-22T11:14:33Z</time></trkpt><trkpt lat="44.94458829662587" lon="9.525602315047388"><ele>154.8</ele><time>2026-03-22T11:14:35Z</time></trkpt><trkpt lat="44.944482705318855" lon="9.525612138547084"><ele>155.0</ele><time>2026-03-22T11:14:37Z</time></trkpt><trkpt lat="44.944393609418604" lon="9.52563299616259"><ele>155.0</ele><time>2026-03-22T11:14:39Z</time></trkpt><trkpt lat="44.94432449999528" lon="9.525649617337336"><ele>155.0</ele><time>2026-03-22T11:14:43Z</time></trkpt><trkpt lat="44.944211867794095" lon="9.525709194433574"><ele>155.0</ele><time>2026-03-22T11:14:46Z</time></trkpt><trkpt lat="44.944118275020394" lon="9.525781634336102"><ele>155.0</ele><time>2026-03-22T11:14:47Z</time></trkpt><trkpt lat="44.94403445521178" lon="9.525834716075721"><ele>155.0</ele><time>2026-03-22T11:14:48Z</time></trkpt><trkpt lat="44.94395542336363" lon="9.525864874350718"><ele>155.4</ele><time>2026-03-22T11:14:50Z</time></trkpt><trkpt lat="44.943869667195834" lon="9.525890646734128"><ele>155.8</ele><time>2026-03-22T11:14:52.999Z</time></trkpt><trkpt lat="44.94378830048408" lon="9.525910840164327"><ele>156.2</ele><time>2026-03-22T11:14:54.999Z</time></trkpt><trkpt lat="44.94366748727118" lon="9.525959982248196"><ele>156.6</ele><time>2026-03-22T11:14:56.999Z</time></trkpt><trkpt lat="44.94359154462563" lon="9.526012492899707"><ele>157.0</ele><time>2026-03-22T11:14:57.999Z</time></trkpt><trkpt lat="44.94350397585958" lon="9.52608143780848"><ele>157.0</ele><time>2026-03-22T11:14:58.999Z</time></trkpt><trkpt lat="44.943433861711604" lon="9.526138905538588"><ele>157.0</ele><time>2026-03-22T11:14:59.999Z</time></trkpt><trkpt lat="44.94336218636653" lon="9.526208883318564"><ele>157.0</ele><time>2026-03-22T11:15:00.999Z</time></trkpt><trkpt lat="44.94328765289093" lon="9.526316359177665"><ele>157.0</ele><time>2026-03-22T11:15:01.999Z</time></trkpt><trkpt lat="44.94321701324676" lon="9.526430729071533"><ele>157.0</ele><time>2026-03-22T11:15:02.999Z</time></trkpt><trkpt lat="44.94314588249607" lon="9.526555467260366"><ele>157.5</ele><time>2026-03-22T11:15:03.999Z</time></trkpt><trkpt lat="44.94306978952724" lon="9.52668890750652"><ele>158.0</ele><time>2026-03-22T11:15:04.999Z</time></trkpt><trkpt lat="44.94298766774848" lon="9.52683006444587"><ele>158.5</ele><time>2026-03-22T11:15:05.999Z</time></trkpt><trkpt lat="44.942906387725515" lon="9.526964005235978"><ele>159.0</ele><time>2026-03-22T11:15:06.999Z</time></trkpt><trkpt lat="44.94281715986124" lon="9.527108891518639"><ele>159.25</ele><time>2026-03-22T11:15:07.999Z</time></trkpt><trkpt lat="44.94272901703847" lon="9.527252015879931"><ele>159.5</ele><time>2026-03-22T11:15:08.999Z</time></trkpt><trkpt lat="44.94264614345957" lon="9.527386584284175"><ele>159.75</ele><time>2026-03-22T11:15:09.999Z</time></trkpt><trkpt lat="44.94257552193184" lon="9.527502065602432"><ele>160.0</ele><time>2026-03-22T11:15:10.999Z</time></trkpt><trkpt lat="44.942519897790405" lon="9.527594563458802"><ele>160.5</ele><time>2026-03-22T11:15:11.999Z</time></trkpt><trkpt lat="44.94247537207633" lon="9.52766860570283"><ele>161.0</ele><time>2026-03-22T11:15:12.999Z</time></trkpt><trkpt lat="44.94243092418728" lon="9.52774251851421"><ele>161.5</ele><time>2026-03-22T11:15:13.999Z</time></trkpt><trkpt lat="44.94236203204346" lon="9.527857079926092"><ele>162.0</ele><time>2026-03-22T11:15:15.999Z</time></trkpt><trkpt lat="44.94227919865302" lon="9.527865371982982"><ele>162.5</ele><time>2026-03-22T11:15:18.999Z</time></trkpt><trkpt lat="44.942198995325285" lon="9.527777027104083"><ele>163.0</ele><time>2026-03-22T11:15:19.999Z</time></trkpt><trkpt lat="44.94210209018205" lon="9.527665677902759"><ele>163.0</ele><time>2026-03-22T11:15:20.999Z</time></trkpt><trkpt lat="44.94198483552359" lon="9.527551153662158"><ele>163.0</ele><time>2026-03-22T11:15:21.999Z</time></trkpt><trkpt lat="44.94188757924433" lon="9.52746275268637"><ele>163.0</ele><time>2026-03-22T11:15:22.999Z</time></trkpt><trkpt lat="44.941824333693546" lon="9.527401822977193"><ele>163.0</ele><time>2026-03-22T11:15:23.999Z</time></trkpt><trkpt lat="44.941767747738794" lon="9.5273468800799"><ele>163.0</ele><time>2026-03-22T11:15:26.999Z</time></trkpt><trkpt lat="44.941712492129895" lon="9.527289233580325"><ele>163.0</ele><time>2026-03-22T11:15:29.999Z</time></trkpt><trkpt lat="44.94163108189393" lon="9.527212884132116"><ele>163.0</ele><time>2026-03-22T11:15:31.999Z</time></trkpt><trkpt lat="44.94156251272549" lon="9.527145039064486"><ele>163.0</ele><time>2026-03-22T11:15:32.999Z</time></trkpt><trkpt lat="44.94146911325068" lon="9.527056142243037"><ele>163.0</ele><time>2026-03-22T11:15:33.999Z</time></trkpt><trkpt lat="44.94134951449757" lon="9.52693676157297"><ele>163.0</ele><time>2026-03-22T11:15:34.999Z</time></trkpt><trkpt lat="44.941203197203365" lon="9.526794775517248"><ele>163.0</ele><time>2026-03-22T11:15:35.999Z</time></trkpt><trkpt lat="44.9410373514281" lon="9.526637958492653"><ele>163.0</ele><time>2026-03-22T11:15:36.998Z</time></trkpt><trkpt lat="44.940880912638505" lon="9.526486952098937"><ele>163.0</ele><time>2026-03-22T11:15:37.998Z</time></trkpt><trkpt lat="44.94072368497437" lon="9.526334496407843"><ele>163.33333333333334</ele><time>2026-03-22T11:15:38.998Z</time></trkpt><trkpt lat="44.9405619887463" lon="9.526178709170779"><ele>163.66666666666666</ele><time>2026-03-22T11:15:39.998Z</time></trkpt><trkpt lat="44.940414418155" lon="9.526031754090141"><ele>164.0</ele><time>2026-03-22T11:15:40.998Z</time></trkpt><trkpt lat="44.94025779051375" lon="9.525871151714506"><ele>164.0</ele><time>2026-03-22T11:15:41.998Z</time></trkpt><trkpt lat="44.94010015362334" lon="9.525714815879976"><ele>164.0</ele><time>2026-03-22T11:15:42.998Z</time></trkpt><trkpt lat="44.93993694044287" lon="9.525560022441837"><ele>164.0</ele><time>2026-03-22T11:15:43.998Z</time></trkpt><trkpt lat="44.93977965808058" lon="9.525425671833272"><ele>164.66666666666666</ele><time>2026-03-22T11:15:44.998Z</time></trkpt><trkpt lat="44.9396299469803" lon="9.525327576929273"><ele>165.33333333333334</ele><time>2026-03-22T11:15:45.998Z</time></trkpt><trkpt lat="44.93948213139179" lon="9.52526160650165"><ele>166.0</ele><time>2026-03-22T11:15:46.998Z</time></trkpt><trkpt lat="44.939332039414886" lon="9.525209612962524"><ele>166.60000000000002</ele><time>2026-03-22T11:15:47.998Z</time></trkpt><trkpt lat="44.939204696194025" lon="9.525167573740331"><ele>167.2</ele><time>2026-03-22T11:15:48.998Z</time></trkpt><trkpt lat="44.93909561086921" lon="9.525124105015003"><ele>167.8</ele><time>2026-03-22T11:15:49.998Z</time></trkpt><trkpt lat="44.93900142189506" lon="9.525086271218743"><ele>168.39999999999998</ele><time>2026-03-22T11:15:50.998Z</time></trkpt><trkpt lat="44.93892365210553" lon="9.525054129577864"><ele>169.0</ele><time>2026-03-22T11:15:51.998Z</time></trkpt><trkpt lat="44.93878723423515" lon="9.525326371135968"><ele>169.33333333333334</ele><time>2026-03-22T11:15:55.998Z</time></trkpt><trkpt lat="44.93880014611598" lon="9.525455512922344"><ele>169.66666666666669</ele><time>2026-03-22T11:15:56.998Z</time></trkpt><trkpt lat="44.93881110896042" lon="9.525589988929006"><ele>170.0</ele><time>2026-03-22T11:15:57.998Z</time></trkpt><trkpt lat="44.93880522650328" lon="9.525732520184784"><ele>170.33333333333334</ele><time>2026-03-22T11:15:59.998Z</time></trkpt><trkpt lat="44.938781914327265" lon="9.525852459401172"><ele>170.66666666666666</ele><time>2026-03-22T11:16:02.998Z</time></trkpt><trkpt lat="44.93875202245634" lon="9.52593270962794"><ele>171.0</ele><time>2026-03-22T11:16:03.998Z</time></trkpt><trkpt lat="44.93870717888078" lon="9.526015763329536"><ele>171.0</ele><time>2026-03-22T11:16:04.998Z</time></trkpt><trkpt lat="44.93864846212392" lon="9.526113336838016"><ele>171.0</ele><time>2026-03-22T11:16:05.998Z</time></trkpt><trkpt lat="44.93858396183343" lon="9.526208854921254"><ele>171.0</ele><time>2026-03-22T11:16:06.998Z</time></trkpt><trkpt lat="44.938510954777854" lon="9.52630714558403"><ele>171.0</ele><time>2026-03-22T11:16:07.998Z</time></trkpt><trkpt lat="44.93843067799374" lon="9.52641117705435"><ele>171.0</ele><time>2026-03-22T11:16:08.998Z</time></trkpt><trkpt lat="44.93834625728258" lon="9.526516319930101"><ele>175.5</ele><time>2026-03-22T11:16:09.998Z</time></trkpt><trkpt lat="44.93825747547865" lon="9.526625563087439"><ele>180.0</ele><time>2026-03-22T11:16:10.998Z</time></trkpt><trkpt lat="44.93816958218574" lon="9.526730461135315"><ele>184.5</ele><time>2026-03-22T11:16:11.998Z</time></trkpt><trkpt lat="44.938079406489656" lon="9.526834907199136"><ele>189.0</ele><time>2026-03-22T11:16:12.998Z</time></trkpt><trkpt lat="44.93798597117355" lon="9.526936767337887"><ele>189.0</ele><time>2026-03-22T11:16:13.998Z</time></trkpt><trkpt lat="44.93788750849014" lon="9.527030567186337"><ele>189.0</ele><time>2026-03-22T11:16:14.998Z</time></trkpt><trkpt lat="44.9378030685437" lon="9.527102786727967"><ele>189.0</ele><time>2026-03-22T11:16:15.998Z</time></trkpt><trkpt lat="44.93770797638785" lon="9.527177959820955"><ele>189.0</ele><time>2026-03-22T11:16:17.998Z</time></trkpt><trkpt lat="44.937648445716526" lon="9.527220280333552"><ele>189.0</ele><time>2026-03-22T11:16:18.998Z</time></trkpt><trkpt lat="44.93757943174202" lon="9.527268212366423"><ele>192.39999999999998</ele><time>2026-03-22T11:16:20Z</time></trkpt><trkpt lat="44.93749644285785" lon="9.52732577104284"><ele>195.8</ele><time>2026-03-22T11:16:21Z</time></trkpt><trkpt lat="44.937425309315735" lon="9.527381898281666"><ele>199.2</ele><time>2026-03-22T11:16:22Z</time></trkpt><trkpt lat="44.93735612985963" lon="9.52743914717276"><ele>202.60000000000002</ele><time>2026-03-22T11:16:23Z</time></trkpt><trkpt lat="44.93727363418615" lon="9.527494591993747"><ele>206.0</ele><time>2026-03-22T11:16:24Z</time></trkpt><trkpt lat="44.93717293024527" lon="9.52755027384294"><ele>206.0</ele><time>2026-03-22T11:16:25Z</time></trkpt><trkpt lat="44.937079872471706" lon="9.527596024669"><ele>206.0</ele><time>2026-03-22T11:16:26Z</time></trkpt><trkpt lat="44.936982993344365" lon="9.52764344418986"><ele>206.0</ele><time>2026-03-22T11:16:27Z</time></trkpt><trkpt lat="44.936878654271105" lon="9.527689249721439"><ele>206.0</ele><time>2026-03-22T11:16:28Z</time></trkpt><trkpt lat="44.93676768227863" lon="9.527717432356079"><ele>206.0</ele><time>2026-03-22T11:16:29Z</time></trkpt><trkpt lat="44.93664612559982" lon="9.527744614633223"><ele>205.8</ele><time>2026-03-22T11:16:30Z</time></trkpt><trkpt lat="44.936540197187895" lon="9.527802392113237"><ele>205.60000000000002</ele><time>2026-03-22T11:16:31Z</time></trkpt><trkpt lat="44.93646229896663" lon="9.527860399453262"><ele>205.4</ele><time>2026-03-22T11:16:32Z</time></trkpt><trkpt lat="44.93637303647202" lon="9.527931862811492"><ele>205.2</ele><time>2026-03-22T11:16:33Z</time></trkpt><trkpt lat="44.93628760345284" lon="9.52800097845902"><ele>205.0</ele><time>2026-03-22T11:16:34Z</time></trkpt><trkpt lat="44.93619882977472" lon="9.528072857762446"><ele>207.6</ele><time>2026-03-22T11:16:35Z</time></trkpt><trkpt lat="44.93610609730169" lon="9.528148167022769"><ele>210.2</ele><time>2026-03-22T11:16:36Z</time></trkpt><trkpt lat="44.93602340098949" lon="9.528217191370926"><ele>212.8</ele><time>2026-03-22T11:16:37Z</time></trkpt><trkpt lat="44.93593680985641" lon="9.528292537544768"><ele>215.4</ele><time>2026-03-22T11:16:38Z</time></trkpt><trkpt lat="44.935857626547914" lon="9.528366898363586"><ele>218.0</ele><time>2026-03-22T11:16:39Z</time></trkpt><trkpt lat="44.935786114842614" lon="9.528439894712308"><ele>218.66666666666669</ele><time>2026-03-22T11:16:40Z</time></trkpt><trkpt lat="44.93573157258044" lon="9.528507763049406"><ele>219.33333333333334</ele><time>2026-03-22T11:16:41Z</time></trkpt><trkpt lat="44.93567869963662" lon="9.528586371941055"><ele>220.0</ele><time>2026-03-22T11:16:42Z</time></trkpt><trkpt lat="44.93563407886704" lon="9.528659308104707"><ele>220.66666666666669</ele><time>2026-03-22T11:16:43Z</time></trkpt><trkpt lat="44.93559782944862" lon="9.528760334421959"><ele>221.33333333333334</ele><time>2026-03-22T11:16:44Z</time></trkpt><trkpt lat="44.93550026443669" lon="9.528735018411346"><ele>222.0</ele><time>2026-03-22T11:16:46Z</time></trkpt><trkpt lat="44.93542847431693" lon="9.528772644340734"><ele>222.0</ele><time>2026-03-22T11:16:47Z</time></trkpt><trkpt lat="44.93536426021237" lon="9.528806292087411"><ele>222.0</ele><time>2026-03-22T11:16:48Z</time></trkpt><trkpt lat="44.935403069237005" lon="9.528625064327578"><ele>222.0</ele><time>2026-03-22T11:16:49Z</time></trkpt><trkpt lat="44.93534013024048" lon="9.528597857304886"><ele>222.0</ele><time>2026-03-22T11:16:50Z</time></trkpt><trkpt lat="44.935275292630834" lon="9.528569829495765"><ele>222.0</ele><time>2026-03-22T11:16:51Z</time></trkpt><trkpt lat="44.935198947056854" lon="9.528550217750654"><ele>222.0</ele><time>2026-03-22T11:16:52Z</time></trkpt><trkpt lat="44.935124122992654" lon="9.528534053564703"><ele>222.2</ele><time>2026-03-22T11:16:53Z</time></trkpt><trkpt lat="44.935030425079084" lon="9.528513642741148"><ele>222.39999999999998</ele><time>2026-03-22T11:16:54Z</time></trkpt><trkpt lat="44.934961675386354" lon="9.528504668341318"><ele>222.60000000000002</ele><time>2026-03-22T11:16:55Z</time></trkpt><trkpt lat="44.934878303304245" lon="9.52849358590312"><ele>222.8</ele><time>2026-03-22T11:16:56Z</time></trkpt><trkpt lat="44.93478566937277" lon="9.528482028951581"><ele>223.0</ele><time>2026-03-22T11:16:57Z</time></trkpt><trkpt lat="44.93453592510043" lon="9.529183622911459"><ele>224.2</ele><time>2026-03-22T11:16:58Z</time></trkpt><trkpt lat="44.934442771397826" lon="9.52921952325561"><ele>225.4</ele><time>2026-03-22T11:16:59Z</time></trkpt><trkpt lat="44.934334089256176" lon="9.529263037665602"><ele>226.59999999999997</ele><time>2026-03-22T11:17:00Z</time></trkpt><trkpt lat="44.934249276253695" lon="9.529310030719934"><ele>227.79999999999998</ele><time>2026-03-22T11:17:01Z</time></trkpt><trkpt lat="44.93416752261066" lon="9.529357555099125"><ele>229.0</ele><time>2026-03-22T11:17:02Z</time></trkpt><trkpt lat="44.93408268534286" lon="9.529412963006834"><ele>229.6</ele><time>2026-03-22T11:17:03Z</time></trkpt><trkpt lat="44.933981858636166" lon="9.529470469988956"><ele>230.2</ele><time>2026-03-22T11:17:04Z</time></trkpt><trkpt lat="44.93389964971451" lon="9.529515481097274"><ele>230.79999999999998</ele><time>2026-03-22T11:17:05Z</time></trkpt><trkpt lat="44.933798387243655" lon="9.529568187641118"><ele>231.39999999999998</ele><time>2026-03-22T11:17:06Z</time></trkpt><trkpt lat="44.933703268172906" lon="9.529606637621269"><ele>232.0</ele><time>2026-03-22T11:17:07Z</time></trkpt><trkpt lat="44.93360894435095" lon="9.529633302451236"><ele>232.49999999999997</ele><time>2026-03-22T11:17:08Z</time></trkpt><trkpt lat="44.93351031697244" lon="9.529647740572324"><ele>233.0</ele><time>2026-03-22T11:17:09Z</time></trkpt><trkpt lat="44.933414697689685" lon="9.52965456198183"><ele>233.5</ele><time>2026-03-22T11:17:10Z</time></trkpt><trkpt lat="44.93333211716854" lon="9.529655813770932"><ele>234.0</ele><time>2026-03-22T11:17:11Z</time></trkpt><trkpt lat="44.933253140616735" lon="9.529652034034696"><ele>234.49999999999997</ele><time>2026-03-22T11:17:11.999Z</time></trkpt><trkpt lat="44.933167503262524" lon="9.529654173018477"><ele>235.0</ele><time>2026-03-22T11:17:12.999Z</time></trkpt><trkpt lat="44.93307567476292" lon="9.529661709947492"><ele>236.6</ele><time>2026-03-22T11:17:13.999Z</time></trkpt><trkpt lat="44.93292829249427" lon="9.52970489126608"><ele>238.2</ele><time>2026-03-22T11:17:15.999Z</time></trkpt><trkpt lat="44.93283355275897" lon="9.529719023671305"><ele>239.8</ele><time>2026-03-22T11:17:16.999Z</time></trkpt><trkpt lat="44.93273235504089" lon="9.529737509740668"><ele>241.4</ele><time>2026-03-22T11:17:17.999Z</time></trkpt><trkpt lat="44.932636212255915" lon="9.529755119593725"><ele>243.0</ele><time>2026-03-22T11:17:18.999Z</time></trkpt><trkpt lat="44.93257203207451" lon="9.529769345579732"><ele>245.2</ele><time>2026-03-22T11:17:19.999Z</time></trkpt><trkpt lat="44.93249688167127" lon="9.529802008069886"><ele>247.4</ele><time>2026-03-22T11:17:21.999Z</time></trkpt><trkpt lat="44.93241727109816" lon="9.529838609389076"><ele>249.59999999999997</ele><time>2026-03-22T11:17:40.998Z</time></trkpt><trkpt lat="44.93235115242279" lon="9.529934889270978"><ele>251.79999999999998</ele><time>2026-03-22T11:17:42.998Z</time></trkpt><trkpt lat="44.93229314979758" lon="9.530092199725688"><ele>254.0</ele><time>2026-03-22T11:17:44.998Z</time></trkpt><trkpt lat="44.932286776868146" lon="9.530206919949432"><ele>254.0</ele><time>2026-03-22T11:17:46.998Z</time></trkpt><trkpt lat="44.932298197612255" lon="9.530315206453569"><ele>253.99999999999997</ele><time>2026-03-22T11:17:49.998Z</time></trkpt><trkpt lat="44.932298887875575" lon="9.53048452727434"><ele>253.99999999999997</ele><time>2026-03-22T11:17:51.998Z</time></trkpt><trkpt lat="44.93230155235264" lon="9.530643949835861"><ele>254.0</ele><time>2026-03-22T11:17:53.998Z</time></trkpt><trkpt lat="44.932299194350755" lon="9.53075100730098"><ele>254.0</ele><time>2026-03-22T11:17:54.997Z</time></trkpt><trkpt lat="44.93229252008372" lon="9.530855792330653"><ele>254.16666666666669</ele><time>2026-03-22T11:17:55.997Z</time></trkpt><trkpt lat="44.93227894754269" lon="9.530968831305765"><ele>254.33333333333334</ele><time>2026-03-22T11:17:56.997Z</time></trkpt><trkpt lat="44.9322723363376" lon="9.531063328286322"><ele>254.5</ele><time>2026-03-22T11:17:57.997Z</time></trkpt><trkpt lat="44.93225764258663" lon="9.531150137161355"><ele>254.66666666666669</ele><time>2026-03-22T11:17:58.997Z</time></trkpt><trkpt lat="44.932238151999755" lon="9.531272769478484"><ele>254.83333333333334</ele><time>2026-03-22T11:18:00.997Z</time></trkpt><trkpt lat="44.93219726986639" lon="9.531462884337484"><ele>255.0</ele><time>2026-03-22T11:18:02.997Z</time></trkpt><trkpt lat="44.93218883574083" lon="9.531553130513322"><ele>255.0</ele><time>2026-03-22T11:18:03.997Z</time></trkpt><trkpt lat="44.932136817898574" lon="9.531716181160116"><ele>255.0</ele><time>2026-03-22T11:18:05.997Z</time></trkpt><trkpt lat="44.93208104577112" lon="9.531829466571788"><ele>255.0</ele><time>2026-03-22T11:18:07.997Z</time></trkpt><trkpt lat="44.93201837786196" lon="9.531884404316441"><ele>255.0</ele><time>2026-03-22T11:18:09.997Z</time></trkpt><trkpt lat="44.931899255402094" lon="9.531936590907044"><ele>255.0</ele><time>2026-03-22T11:18:11.997Z</time></trkpt><trkpt lat="44.931816967509704" lon="9.531962071884921"><ele>255.0</ele><time>2026-03-22T11:18:12.997Z</time></trkpt><trkpt lat="44.93172600725685" lon="9.53198228119759"><ele>255.0</ele><time>2026-03-22T11:18:13.997Z</time></trkpt><trkpt lat="44.93163788785813" lon="9.531990673646751"><ele>255.0</ele><time>2026-03-22T11:18:14.997Z</time></trkpt><trkpt lat="44.93151758564241" lon="9.532006823820906"><ele>255.0</ele><time>2026-03-22T11:18:16.997Z</time></trkpt><trkpt lat="44.93138911568279" lon="9.532030782245275"><ele>255.0</ele><time>2026-03-22T11:18:18.997Z</time></trkpt><trkpt lat="44.931290681892754" lon="9.532043175512925"><ele>255.8</ele><time>2026-03-22T11:18:19.997Z</time></trkpt><trkpt lat="44.93117935678457" lon="9.532063949300763"><ele>256.6</ele><time>2026-03-22T11:18:20.997Z</time></trkpt><trkpt lat="44.931067395913495" lon="9.53208358390095"><ele>257.4</ele><time>2026-03-22T11:18:21.997Z</time></trkpt><trkpt lat="44.9309967715248" lon="9.532118721276172"><ele>258.2</ele><time>2026-03-22T11:18:22.997Z</time></trkpt><trkpt lat="44.93091562330416" lon="9.532163977730375"><ele>259.0</ele><time>2026-03-22T11:18:23.997Z</time></trkpt><trkpt lat="44.9308377982654" lon="9.532228021673696"><ele>261.5</ele><time>2026-03-22T11:18:25Z</time></trkpt><trkpt lat="44.93073956787109" lon="9.532311631236334"><ele>264.0</ele><time>2026-03-22T11:18:26Z</time></trkpt><trkpt lat="44.930632560007986" lon="9.53238010499448"><ele>266.5</ele><time>2026-03-22T11:18:27Z</time></trkpt><trkpt lat="44.930512865274125" lon="9.53241916939768"><ele>269.0</ele><time>2026-03-22T11:18:28Z</time></trkpt><trkpt lat="44.93039054584425" lon="9.532436909187856"><ele>269.0</ele><time>2026-03-22T11:18:29Z</time></trkpt><trkpt lat="44.93024644088976" lon="9.532445521647512"><ele>269.0</ele><time>2026-03-22T11:18:30Z</time></trkpt><trkpt lat="44.93009847734101" lon="9.53245515578082"><ele>269.0</ele><time>2026-03-22T11:18:31Z</time></trkpt><trkpt lat="44.92998312898928" lon="9.53246617671315"><ele>269.0</ele><time>2026-03-22T11:18:32Z</time></trkpt><trkpt lat="44.92988347158238" lon="9.532480303933957"><ele>270.0</ele><time>2026-03-22T11:18:33Z</time></trkpt><trkpt lat="44.9297732610531" lon="9.532441130602693"><ele>271.0</ele><time>2026-03-22T11:18:34Z</time></trkpt><trkpt lat="44.92965659843977" lon="9.532457595727148"><ele>272.0</ele><time>2026-03-22T11:18:35Z</time></trkpt><trkpt lat="44.92954317730861" lon="9.532473603369265"><ele>273.0</ele><time>2026-03-22T11:18:36Z</time></trkpt><trkpt lat="44.929458830107805" lon="9.532485507672696"><ele>274.0</ele><time>2026-03-22T11:18:37Z</time></trkpt><trkpt lat="44.929363808809285" lon="9.532497681260931"><ele>274.0</ele><time>2026-03-22T11:18:38Z</time></trkpt><trkpt lat="44.92926079050002" lon="9.532533096750296"><ele>274.0</ele><time>2026-03-22T11:18:39Z</time></trkpt><trkpt lat="44.92915531787418" lon="9.53254520984891"><ele>274.0</ele><time>2026-03-22T11:18:40Z</time></trkpt><trkpt lat="44.92904000746761" lon="9.53253505811041"><ele>274.0</ele><time>2026-03-22T11:18:41Z</time></trkpt><trkpt lat="44.92891690505295" lon="9.532573622493441"><ele>276.0</ele><time>2026-03-22T11:18:42Z</time></trkpt><trkpt lat="44.92878943430481" lon="9.532592140923258"><ele>278.0</ele><time>2026-03-22T11:18:43Z</time></trkpt><trkpt lat="44.92867950206052" lon="9.532608123823701"><ele>280.0</ele><time>2026-03-22T11:18:44Z</time></trkpt><trkpt lat="44.92856447446137" lon="9.532624905162033"><ele>282.0</ele><time>2026-03-22T11:18:45Z</time></trkpt><trkpt lat="44.928445007434014" lon="9.532641296255623"><ele>283.4</ele><time>2026-03-22T11:18:45.999Z</time></trkpt><trkpt lat="44.928355903358046" lon="9.532653766835375"><ele>284.79999999999995</ele><time>2026-03-22T11:18:46.999Z</time></trkpt><trkpt lat="44.928258317201085" lon="9.53266837936304"><ele>286.2</ele><time>2026-03-22T11:18:47.999Z</time></trkpt><trkpt lat="44.92815925104067" lon="9.532657592053072"><ele>287.59999999999997</ele><time>2026-03-22T11:18:48.999Z</time></trkpt><trkpt lat="44.928067648574334" lon="9.532675054096522"><ele>289.0</ele><time>2026-03-22T11:18:49.999Z</time></trkpt><trkpt lat="44.92798475725254" lon="9.532707728007738"><ele>289.0</ele><time>2026-03-22T11:18:50.999Z</time></trkpt><trkpt lat="44.92791324563073" lon="9.532767105199222"><ele>289.0</ele><time>2026-03-22T11:18:51.999Z</time></trkpt><trkpt lat="44.92785521488868" lon="9.53284584577629"><ele>289.0</ele><time>2026-03-22T11:18:52.999Z</time></trkpt><trkpt lat="44.927802020560925" lon="9.532957628249997"><ele>289.0</ele><time>2026-03-22T11:18:53.999Z</time></trkpt><trkpt lat="44.927733430843524" lon="9.53306561570692"><ele>289.0</ele><time>2026-03-22T11:18:54.999Z</time></trkpt><trkpt lat="44.927664721789306" lon="9.533163279986383"><ele>290.0</ele><time>2026-03-22T11:18:55.999Z</time></trkpt><trkpt lat="44.92760587732921" lon="9.53325105418033"><ele>291.0</ele><time>2026-03-22T11:18:56.999Z</time></trkpt><trkpt lat="44.92753998463777" lon="9.533356594689042"><ele>292.0</ele><time>2026-03-22T11:18:57.999Z</time></trkpt><trkpt lat="44.92746386915848" lon="9.53348431995491"><ele>293.0</ele><time>2026-03-22T11:18:58.999Z</time></trkpt><trkpt lat="44.92738142037494" lon="9.533625909146583"><ele>294.0</ele><time>2026-03-22T11:18:59.999Z</time></trkpt><trkpt lat="44.92730866413829" lon="9.533740848210796"><ele>296.2</ele><time>2026-03-22T11:19:00.999Z</time></trkpt><trkpt lat="44.92725759520734" lon="9.53382152595514"><ele>298.4</ele><time>2026-03-22T11:19:01.999Z</time></trkpt><trkpt lat="44.92723998189314" lon="9.533992853207904"><ele>300.6</ele><time>2026-03-22T11:19:02.999Z</time></trkpt><trkpt lat="44.9272113887061" lon="9.534137246902203"><ele>302.8</ele><time>2026-03-22T11:19:03.999Z</time></trkpt><trkpt lat="44.92717543750657" lon="9.534307104846837"><ele>305.0</ele><time>2026-03-22T11:19:04.999Z</time></trkpt><trkpt lat="44.92712806754938" lon="9.534477304067387"><ele>305.0</ele><time>2026-03-22T11:19:05.999Z</time></trkpt><trkpt lat="44.92707162205983" lon="9.534662589573427"><ele>305.0</ele><time>2026-03-22T11:19:06.999Z</time></trkpt><trkpt lat="44.92700385671108" lon="9.534833295980004"><ele>305.0</ele><time>2026-03-22T11:19:07.999Z</time></trkpt><trkpt lat="44.92692027229918" lon="9.53501796728354"><ele>305.0</ele><time>2026-03-22T11:19:08.999Z</time></trkpt><trkpt lat="44.92683806791665" lon="9.535194289523025"><ele>305.0</ele><time>2026-03-22T11:19:09.999Z</time></trkpt><trkpt lat="44.92677226990741" lon="9.535350217522982"><ele>305.0</ele><time>2026-03-22T11:19:10.999Z</time></trkpt><trkpt lat="44.92672089350234" lon="9.53550601339901"><ele>305.0</ele><time>2026-03-22T11:19:11.999Z</time></trkpt><trkpt lat="44.9266831102578" lon="9.535671292810152"><ele>305.0</ele><time>2026-03-22T11:19:12.999Z</time></trkpt><trkpt lat="44.92666014087768" lon="9.535805137795831"><ele>307.75</ele><time>2026-03-22T11:19:13.999Z</time></trkpt><trkpt lat="44.926610347978134" lon="9.535969397485864"><ele>310.5</ele><time>2026-03-22T11:19:14.999Z</time></trkpt><trkpt lat="44.9265175105977" lon="9.53607981795026"><ele>313.25</ele><time>2026-03-22T11:19:15.999Z</time></trkpt><trkpt lat="44.92639827651319" lon="9.536253944272875"><ele>316.0</ele><time>2026-03-22T11:19:16.999Z</time></trkpt><trkpt lat="44.92630785550058" lon="9.536443697743128"><ele>317.4</ele><time>2026-03-22T11:19:17.999Z</time></trkpt><trkpt lat="44.92626050783126" lon="9.536585050580172"><ele>318.8</ele><time>2026-03-22T11:19:18.999Z</time></trkpt><trkpt lat="44.926211570245044" lon="9.53670881278442"><ele>320.2</ele><time>2026-03-22T11:19:19.999Z</time></trkpt><trkpt lat="44.92616244877948" lon="9.536804801576782"><ele>321.59999999999997</ele><time>2026-03-22T11:19:20.999Z</time></trkpt><trkpt lat="44.926060675766244" lon="9.536936186162274"><ele>323.0</ele><time>2026-03-22T11:19:22.999Z</time></trkpt><trkpt lat="44.92598015751523" lon="9.536998582360235"><ele>324.5</ele><time>2026-03-22T11:19:23.999Z</time></trkpt><trkpt lat="44.925891142110174" lon="9.53705204628701"><ele>326.0</ele><time>2026-03-22T11:19:24.999Z</time></trkpt><trkpt lat="44.925814154103676" lon="9.537091588044335"><ele>327.5</ele><time>2026-03-22T11:19:25.999Z</time></trkpt><trkpt lat="44.92574526397178" lon="9.53712400077594"><ele>329.0</ele><time>2026-03-22T11:19:26.999Z</time></trkpt><trkpt lat="44.9256858184512" lon="9.537153398720111"><ele>330.5</ele><time>2026-03-22T11:19:27.998Z</time></trkpt><trkpt lat="44.92559066346102" lon="9.537226730902374"><ele>332.0</ele><time>2026-03-22T11:19:29.998Z</time></trkpt><trkpt lat="44.925508890290445" lon="9.537156447404904"><ele>332.0</ele><time>2026-03-22T11:19:30.998Z</time></trkpt><trkpt lat="44.92542609873382" lon="9.537130693677037"><ele>332.0</ele><time>2026-03-22T11:19:31.998Z</time></trkpt><trkpt lat="44.925334105502" lon="9.537061522197238"><ele>332.0</ele><time>2026-03-22T11:19:32.998Z</time></trkpt><trkpt lat="44.925209174322895" lon="9.53693477645863"><ele>332.0</ele><time>2026-03-22T11:19:33.998Z</time></trkpt><trkpt lat="44.92510495098958" lon="9.53680833530683"><ele>334.0</ele><time>2026-03-22T11:19:34.998Z</time></trkpt><trkpt lat="44.924993749072925" lon="9.53670071470266"><ele>336.0</ele><time>2026-03-22T11:19:35.998Z</time></trkpt><trkpt lat="44.92487978368698" lon="9.536646118052658"><ele>338.0</ele><time>2026-03-22T11:19:36.998Z</time></trkpt><trkpt lat="44.9247491124827" lon="9.536628219823626"><ele>340.0</ele><time>2026-03-22T11:19:37.998Z</time></trkpt><trkpt lat="44.9246195122299" lon="9.536612359219127"><ele>340.0</ele><time>2026-03-22T11:19:38.998Z</time></trkpt><trkpt lat="44.92448549379475" lon="9.536590010358548"><ele>340.0</ele><time>2026-03-22T11:19:39.998Z</time></trkpt><trkpt lat="44.924360223091824" lon="9.536566028978143"><ele>340.0</ele><time>2026-03-22T11:19:40.998Z</time></trkpt><trkpt lat="44.92425052659241" lon="9.536544136581794"><ele>340.0</ele><time>2026-03-22T11:19:41.998Z</time></trkpt><trkpt lat="44.924177728162746" lon="9.53651060557432"><ele>340.0</ele><time>2026-03-22T11:19:42.998Z</time></trkpt><trkpt lat="44.92411011025787" lon="9.536451819930743"><ele>341.8</ele><time>2026-03-22T11:19:43.998Z</time></trkpt><trkpt lat="44.924015072456946" lon="9.536434924288457"><ele>343.6</ele><time>2026-03-22T11:19:44.998Z</time></trkpt><trkpt lat="44.923917217103956" lon="9.536408378024024"><ele>345.4</ele><time>2026-03-22T11:19:45.998Z</time></trkpt><trkpt lat="44.92383334718539" lon="9.536427916063206"><ele>347.2</ele><time>2026-03-22T11:19:46.998Z</time></trkpt><trkpt lat="44.92374509797759" lon="9.53652472720671"><ele>349.0</ele><time>2026-03-22T11:19:47.998Z</time></trkpt><trkpt lat="44.92369118181316" lon="9.536706335581634"><ele>349.0</ele><time>2026-03-22T11:19:48.998Z</time></trkpt><trkpt lat="44.92363449840478" lon="9.536873959385192"><ele>349.0</ele><time>2026-03-22T11:19:49.998Z</time></trkpt><trkpt lat="44.92357410053173" lon="9.53704503405794"><ele>349.0</ele><time>2026-03-22T11:19:50.998Z</time></trkpt><trkpt lat="44.92351566940485" lon="9.537197041020006"><ele>349.0</ele><time>2026-03-22T11:19:51.998Z</time></trkpt><trkpt lat="44.92346468339883" lon="9.537317878887132"><ele>349.66666666666663</ele><time>2026-03-22T11:19:52.998Z</time></trkpt><trkpt lat="44.92341470055419" lon="9.537422318745076"><ele>350.3333333333333</ele><time>2026-03-22T11:19:53.998Z</time></trkpt><trkpt lat="44.9233573390419" lon="9.537509891244072"><ele>351.0</ele><time>2026-03-22T11:19:54.998Z</time></trkpt><trkpt lat="44.9232788357873" lon="9.537613393276704"><ele>351.6666666666667</ele><time>2026-03-22T11:19:55.998Z</time></trkpt><trkpt lat="44.92321922251711" lon="9.53767978172608"><ele>352.33333333333337</ele><time>2026-03-22T11:19:56.998Z</time></trkpt><trkpt lat="44.92316331355396" lon="9.537731824178357"><ele>353.0</ele><time>2026-03-22T11:19:57.998Z</time></trkpt><trkpt lat="44.92300212811614" lon="9.5377283347171"><ele>353.0</ele><time>2026-03-22T11:19:59.998Z</time></trkpt><trkpt lat="44.922887881876214" lon="9.53771241148235"><ele>353.0</ele><time>2026-03-22T11:20:00.998Z</time></trkpt><trkpt lat="44.922760813233026" lon="9.5376893690793"><ele>353.0</ele><time>2026-03-22T11:20:01.998Z</time></trkpt><trkpt lat="44.9226523379014" lon="9.537673189044135"><ele>353.0</ele><time>2026-03-22T11:20:02.998Z</time></trkpt><trkpt lat="44.92254552061016" lon="9.537680185267995"><ele>354.75</ele><time>2026-03-22T11:20:03.998Z</time></trkpt><trkpt lat="44.92244112034999" lon="9.537700845206938"><ele>356.5</ele><time>2026-03-22T11:20:04.998Z</time></trkpt><trkpt lat="44.922325373727816" lon="9.53772583369951"><ele>358.25</ele><time>2026-03-22T11:20:05.998Z</time></trkpt><trkpt lat="44.92220368571976" lon="9.537762206194207"><ele>360.0</ele><time>2026-03-22T11:20:06.998Z</time></trkpt><trkpt lat="44.92206394504742" lon="9.537855410211233"><ele>361.3333333333333</ele><time>2026-03-22T11:20:07.998Z</time></trkpt><trkpt lat="44.921925246128396" lon="9.537962737734736"><ele>362.66666666666663</ele><time>2026-03-22T11:20:08.998Z</time></trkpt><trkpt lat="44.921776050489505" lon="9.538074929275448"><ele>364.0</ele><time>2026-03-22T11:20:09.998Z</time></trkpt><trkpt lat="44.921622861176736" lon="9.538187247321385"><ele>364.0</ele><time>2026-03-22T11:20:10.998Z</time></trkpt><trkpt lat="44.921481156777" lon="9.538290356981705"><ele>364.0</ele><time>2026-03-22T11:20:11.997Z</time></trkpt><trkpt lat="44.92135940853864" lon="9.53837894573748"><ele>364.0</ele><time>2026-03-22T11:20:12.997Z</time></trkpt><trkpt lat="44.92124306003739" lon="9.538458884125728"><ele>364.0</ele><time>2026-03-22T11:20:13.997Z</time></trkpt><trkpt lat="44.921138910548436" lon="9.538522591455315"><ele>364.0</ele><time>2026-03-22T11:20:14.997Z</time></trkpt><trkpt lat="44.92103395583815" lon="9.538581375794642"><ele>364.0</ele><time>2026-03-22T11:20:15.997Z</time></trkpt><trkpt lat="44.920941799562186" lon="9.538637258859222"><ele>364.0</ele><time>2026-03-22T11:20:16.997Z</time></trkpt><trkpt lat="44.92085887719571" lon="9.538690244895253"><ele>364.0</ele><time>2026-03-22T11:20:17.997Z</time></trkpt><trkpt lat="44.92078774224221" lon="9.538751956645912"><ele>364.0</ele><time>2026-03-22T11:20:18.997Z</time></trkpt><trkpt lat="44.92069337592085" lon="9.538737799212557"><ele>363.6</ele><time>2026-03-22T11:20:19.997Z</time></trkpt><trkpt lat="44.9205861890001" lon="9.53877993480407"><ele>363.2</ele><time>2026-03-22T11:20:20.997Z</time></trkpt><trkpt lat="44.920472588045094" lon="9.538842827282563"><ele>362.8</ele><time>2026-03-22T11:20:21.997Z</time></trkpt><trkpt lat="44.92037306849766" lon="9.538903368635218"><ele>362.40000000000003</ele><time>2026-03-22T11:20:22.997Z</time></trkpt><trkpt lat="44.92027850633047" lon="9.538961050155619"><ele>362.0</ele><time>2026-03-22T11:20:23.997Z</time></trkpt><trkpt lat="44.92017807829539" lon="9.539021975886879"><ele>362.0</ele><time>2026-03-22T11:20:24.997Z</time></trkpt><trkpt lat="44.92006998274293" lon="9.539087505763893"><ele>362.0</ele><time>2026-03-22T11:20:25.997Z</time></trkpt><trkpt lat="44.91996177480823" lon="9.53915310377358"><ele>362.0</ele><time>2026-03-22T11:20:26.997Z</time></trkpt><trkpt lat="44.91986908498514" lon="9.539209028279508"><ele>362.0</ele><time>2026-03-22T11:20:27.997Z</time></trkpt><trkpt lat="44.91978267159387" lon="9.539260353739007"><ele>362.0</ele><time>2026-03-22T11:20:28.997Z</time></trkpt><trkpt lat="44.91969099245312" lon="9.539313734965601"><ele>363.83333333333337</ele><time>2026-03-22T11:20:30Z</time></trkpt><trkpt lat="44.91960703928394" lon="9.539355286960777"><ele>365.6666666666667</ele><time>2026-03-22T11:20:31Z</time></trkpt><trkpt lat="44.919541148460645" lon="9.539376573903633"><ele>367.5</ele><time>2026-03-22T11:20:32Z</time></trkpt><trkpt lat="44.919464023635115" lon="9.539367774153332"><ele>369.3333333333333</ele><time>2026-03-22T11:20:33Z</time></trkpt><trkpt lat="44.91937225082199" lon="9.539352069412551"><ele>371.16666666666663</ele><time>2026-03-22T11:20:34Z</time></trkpt><trkpt lat="44.91930455257659" lon="9.539317345227273"><ele>373.0</ele><time>2026-03-22T11:20:35Z</time></trkpt><trkpt lat="44.91922830482441" lon="9.539250309272072"><ele>375.2</ele><time>2026-03-22T11:20:37Z</time></trkpt><trkpt lat="44.91908801772107" lon="9.539245207876755"><ele>377.4</ele><time>2026-03-22T11:20:40Z</time></trkpt><trkpt lat="44.91902446516379" lon="9.539334955844822"><ele>379.59999999999997</ele><time>2026-03-22T11:20:41Z</time></trkpt><trkpt lat="44.91897558485514" lon="9.539428615064997"><ele>381.79999999999995</ele><time>2026-03-22T11:20:42Z</time></trkpt><trkpt lat="44.91893610642667" lon="9.53950078805268"><ele>384.0</ele><time>2026-03-22T11:20:43Z</time></trkpt><trkpt lat="44.91887643109641" lon="9.539589686509096"><ele>384.2</ele><time>2026-03-22T11:20:45Z</time></trkpt><trkpt lat="44.91878600324124" lon="9.539701773330146"><ele>384.4</ele><time>2026-03-22T11:20:47Z</time></trkpt><trkpt lat="44.91872050260187" lon="9.539779610421256"><ele>384.6</ele><time>2026-03-22T11:20:48Z</time></trkpt><trkpt lat="44.91865418806849" lon="9.539854780208971"><ele>384.8</ele><time>2026-03-22T11:20:49Z</time></trkpt><trkpt lat="44.918582784406375" lon="9.539934861235002"><ele>385.0</ele><time>2026-03-22T11:20:50Z</time></trkpt><trkpt lat="44.91850540153481" lon="9.540021340537434"><ele>385.00000000000006</ele><time>2026-03-22T11:20:51Z</time></trkpt><trkpt lat="44.91842273330609" lon="9.540110013866565"><ele>385.0</ele><time>2026-03-22T11:20:52Z</time></trkpt><trkpt lat="44.91834299946524" lon="9.540188209775993"><ele>385.0</ele><time>2026-03-22T11:20:53Z</time></trkpt><trkpt lat="44.91827828003328" lon="9.540245951015203"><ele>385.0</ele><time>2026-03-22T11:20:54Z</time></trkpt><trkpt lat="44.91821696712061" lon="9.540266901181965"><ele>385.00000000000006</ele><time>2026-03-22T11:20:55Z</time></trkpt><trkpt lat="44.91812461828606" lon="9.540320366568832"><ele>385.0</ele><time>2026-03-22T11:20:56Z</time></trkpt><trkpt lat="44.9180624494567" lon="9.54021637072618"><ele>388.0</ele><time>2026-03-22T11:20:57Z</time></trkpt><trkpt lat="44.91798375059849" lon="9.540530085051302"><ele>391.0</ele><time>2026-03-22T11:20:58Z</time></trkpt><trkpt lat="44.91790909017492" lon="9.540572172683987"><ele>394.0</ele><time>2026-03-22T11:20:59Z</time></trkpt><trkpt lat="44.917832196328284" lon="9.540608344149016"><ele>397.0</ele><time>2026-03-22T11:21:00Z</time></trkpt><trkpt lat="44.91774715287371" lon="9.540655034261533"><ele>397.00000000000006</ele><time>2026-03-22T11:21:01Z</time></trkpt><trkpt lat="44.917671074956665" lon="9.540698680089342"><ele>397.0</ele><time>2026-03-22T11:21:02Z</time></trkpt><trkpt lat="44.917589598853645" lon="9.540754978954142"><ele>397.0</ele><time>2026-03-22T11:21:02.999Z</time></trkpt><trkpt lat="44.917527943825455" lon="9.540793297246038"><ele>397.0</ele><time>2026-03-22T11:21:03.999Z</time></trkpt><trkpt lat="44.917461497990196" lon="9.540833643572961"><ele>397.00000000000006</ele><time>2026-03-22T11:21:04.999Z</time></trkpt><trkpt lat="44.91738090436617" lon="9.540859902193544"><ele>397.0</ele><time>2026-03-22T11:21:05.999Z</time></trkpt><trkpt lat="44.91729001263084" lon="9.540936479377883"><ele>398.50000000000006</ele><time>2026-03-22T11:21:07.999Z</time></trkpt><trkpt lat="44.917162177031805" lon="9.540977292691101"><ele>400.0</ele><time>2026-03-22T11:21:09.999Z</time></trkpt><trkpt lat="44.917100560352836" lon="9.540997721167262"><ele>401.5</ele><time>2026-03-22T11:21:10.999Z</time></trkpt><trkpt lat="44.91704340862616" lon="9.541066054857799"><ele>403.0</ele><time>2026-03-22T11:21:11.999Z</time></trkpt><trkpt lat="44.91698036111224" lon="9.541119367146448"><ele>404.50000000000006</ele><time>2026-03-22T11:21:12.999Z</time></trkpt><trkpt lat="44.91690657972306" lon="9.541194985732936"><ele>406.0</ele><time>2026-03-22T11:21:13.999Z</time></trkpt><trkpt lat="44.9168431504088" lon="9.541269192219488"><ele>406.00000000000006</ele><time>2026-03-22T11:21:14.999Z</time></trkpt><trkpt lat="44.91677977857859" lon="9.541344598265256"><ele>406.0</ele><time>2026-03-22T11:21:15.999Z</time></trkpt><trkpt lat="44.916716004827464" lon="9.541415104371774"><ele>406.0</ele><time>2026-03-22T11:21:16.999Z</time></trkpt><trkpt lat="44.91665619348721" lon="9.541484555539423"><ele>406.0</ele><time>2026-03-22T11:21:17.999Z</time></trkpt><trkpt lat="44.91655860946125" lon="9.541550747177405"><ele>406.00000000000006</ele><time>2026-03-22T11:21:19.999Z</time></trkpt><trkpt lat="44.916497998903246" lon="9.54152578802589"><ele>406.0</ele><time>2026-03-22T11:21:21.999Z</time></trkpt><trkpt lat="44.916393124783326" lon="9.541474139023697"><ele>409.1666666666667</ele><time>2026-03-22T11:21:23.999Z</time></trkpt><trkpt lat="44.91632030165198" lon="9.541451670009915"><ele>412.33333333333337</ele><time>2026-03-22T11:21:24.999Z</time></trkpt><trkpt lat="44.91625064491384" lon="9.541419849405294"><ele>415.5</ele><time>2026-03-22T11:21:25.999Z</time></trkpt><trkpt lat="44.916174286974666" lon="9.541392389037119"><ele>418.66666666666663</ele><time>2026-03-22T11:21:26.999Z</time></trkpt><trkpt lat="44.91609135155001" lon="9.541366011305115"><ele>421.8333333333333</ele><time>2026-03-22T11:21:27.999Z</time></trkpt><trkpt lat="44.91602233170895" lon="9.541351673352024"><ele>425.0</ele><time>2026-03-22T11:21:28.999Z</time></trkpt><trkpt lat="44.9159445095418" lon="9.541330135958967"><ele>426.8333333333333</ele><time>2026-03-22T11:21:29.999Z</time></trkpt><trkpt lat="44.915852656279995" lon="9.541327635531157"><ele>428.66666666666663</ele><time>2026-03-22T11:21:30.999Z</time></trkpt><trkpt lat="44.915772866135306" lon="9.54131100339523"><ele>430.5</ele><time>2026-03-22T11:21:31.999Z</time></trkpt><trkpt lat="44.915698599799256" lon="9.54131159541003"><ele>432.33333333333337</ele><time>2026-03-22T11:21:32.999Z</time></trkpt><trkpt lat="44.9156325390011" lon="9.541295349178638"><ele>434.1666666666667</ele><time>2026-03-22T11:21:33.999Z</time></trkpt><trkpt lat="44.91556759078671" lon="9.54127670664769"><ele>436.0</ele><time>2026-03-22T11:21:34.999Z</time></trkpt><trkpt lat="44.91549645476195" lon="9.541258531220443"><ele>436.00000000000006</ele><time>2026-03-22T11:21:35.999Z</time></trkpt><trkpt lat="44.91541381835388" lon="9.54123467322601"><ele>436.0</ele><time>2026-03-22T11:21:36.999Z</time></trkpt><trkpt lat="44.91533065010938" lon="9.54120538478637"><ele>436.0</ele><time>2026-03-22T11:21:37.999Z</time></trkpt><trkpt lat="44.91525592569716" lon="9.541180059650376"><ele>436.0</ele><time>2026-03-22T11:21:38.999Z</time></trkpt><trkpt lat="44.91519006235385" lon="9.541164467973609"><ele>436.00000000000006</ele><time>2026-03-22T11:21:39.999Z</time></trkpt><trkpt lat="44.915116333920786" lon="9.541142568699772"><ele>436.0</ele><time>2026-03-22T11:21:40.999Z</time></trkpt><trkpt lat="44.91498226887341" lon="9.541092800118507"><ele>438.20000000000005</ele><time>2026-03-22T11:21:42.999Z</time></trkpt><trkpt lat="44.914879216129215" lon="9.541033958612545"><ele>440.40000000000003</ele><time>2026-03-22T11:21:43.999Z</time></trkpt><trkpt lat="44.91477248490881" lon="9.541025479200401"><ele>442.6</ele><time>2026-03-22T11:21:44.999Z</time></trkpt><trkpt lat="44.914668156824824" lon="9.541024561540075"><ele>444.8</ele><time>2026-03-22T11:21:45.999Z</time></trkpt><trkpt lat="44.91458039148241" lon="9.541031428798853"><ele>447.0</ele><time>2026-03-22T11:21:46.998Z</time></trkpt><trkpt lat="44.914509880786284" lon="9.541047557379274"><ele>447.0</ele><time>2026-03-22T11:21:47.998Z</time></trkpt><trkpt lat="44.914418334030564" lon="9.541094427771334"><ele>447.00000000000006</ele><time>2026-03-22T11:21:49.998Z</time></trkpt><trkpt lat="44.9143055866411" lon="9.541133734329183"><ele>447.00000000000006</ele><time>2026-03-22T11:21:51.998Z</time></trkpt><trkpt lat="44.914203084622535" lon="9.54114450877038"><ele>447.0</ele><time>2026-03-22T11:21:53.998Z</time></trkpt><trkpt lat="44.91409020639103" lon="9.541141251454155"><ele>447.0</ele><time>2026-03-22T11:21:55.998Z</time></trkpt><trkpt lat="44.91401838339906" lon="9.541141428820733"><ele>448.5</ele><time>2026-03-22T11:21:56.998Z</time></trkpt><trkpt lat="44.91393876883876" lon="9.541159647098437"><ele>450.0</ele><time>2026-03-22T11:21:57.998Z</time></trkpt><trkpt lat="44.91385943953355" lon="9.541178194602526"><ele>451.5</ele><time>2026-03-22T11:21:58.998Z</time></trkpt><trkpt lat="44.91374085995351" lon="9.541177417540585"><ele>453.0</ele><time>2026-03-22T11:22:00.998Z</time></trkpt><trkpt lat="44.91367547576845" lon="9.541135214036336"><ele>454.5</ele><time>2026-03-22T11:22:01.998Z</time></trkpt><trkpt lat="44.91360481467055" lon="9.541088786975838"><ele>456.0</ele><time>2026-03-22T11:22:02.998Z</time></trkpt><trkpt lat="44.91353391153125" lon="9.541085437937806"><ele>456.0</ele><time>2026-03-22T11:22:03.998Z</time></trkpt><trkpt lat="44.91345662681926" lon="9.541112512416795"><ele>456.0</ele><time>2026-03-22T11:22:04.998Z</time></trkpt><trkpt lat="44.913356321880215" lon="9.541142683460876"><ele>456.0</ele><time>2026-03-22T11:22:05.998Z</time></trkpt><trkpt lat="44.913288765200576" lon="9.541161936762855"><ele>456.0</ele><time>2026-03-22T11:22:06.998Z</time></trkpt><trkpt lat="44.91322572024215" lon="9.541176171626374"><ele>456.0</ele><time>2026-03-22T11:22:07.998Z</time></trkpt><trkpt lat="44.913113809435295" lon="9.541192418999072"><ele>456.0</ele><time>2026-03-22T11:22:09.998Z</time></trkpt><trkpt lat="44.91300494255894" lon="9.541211598481132"><ele>458.0</ele><time>2026-03-22T11:22:11.998Z</time></trkpt><trkpt lat="44.912930842322616" lon="9.541202170739833"><ele>460.0</ele><time>2026-03-22T11:22:12.998Z</time></trkpt><trkpt lat="44.91280215549723" lon="9.541193823993638"><ele>462.0</ele><time>2026-03-22T11:22:14.998Z</time></trkpt><trkpt lat="44.91272440900249" lon="9.541198902959186"><ele>464.0</ele><time>2026-03-22T11:22:15.998Z</time></trkpt><trkpt lat="44.912655702910214" lon="9.541188636201525"><ele>466.0</ele><time>2026-03-22T11:22:16.998Z</time></trkpt><trkpt lat="44.91258502832257" lon="9.541189928893015"><ele>468.0</ele><time>2026-03-22T11:22:17.998Z</time></trkpt><trkpt lat="44.91249568224599" lon="9.541178386305788"><ele>470.3333333333333</ele><time>2026-03-22T11:22:18.998Z</time></trkpt><trkpt lat="44.91242371672897" lon="9.541175861175448"><ele>472.66666666666663</ele><time>2026-03-22T11:22:19.998Z</time></trkpt><trkpt lat="44.912344944646556" lon="9.541164728582963"><ele>475.0</ele><time>2026-03-22T11:22:20.998Z</time></trkpt><trkpt lat="44.91227223832793" lon="9.541170117130845"><ele>477.3333333333333</ele><time>2026-03-22T11:22:21.998Z</time></trkpt><trkpt lat="44.912203454202825" lon="9.541165699870175"><ele>479.66666666666663</ele><time>2026-03-22T11:22:22.998Z</time></trkpt><trkpt lat="44.912069332615054" lon="9.54114257582703"><ele>482.0</ele><time>2026-03-22T11:22:24.998Z</time></trkpt><trkpt lat="44.91200478746982" lon="9.54111960317066"><ele>481.99999999999994</ele><time>2026-03-22T11:22:25.998Z</time></trkpt><trkpt lat="44.91192510699225" lon="9.541097081590376"><ele>482.0</ele><time>2026-03-22T11:22:26.998Z</time></trkpt><trkpt lat="44.91184107090757" lon="9.54106228952869"><ele>482.0</ele><time>2026-03-22T11:22:27.998Z</time></trkpt><trkpt lat="44.91176507286501" lon="9.541038965115215"><ele>482.0</ele><time>2026-03-22T11:22:28.998Z</time></trkpt><trkpt lat="44.91169027343075" lon="9.54100459163639"><ele>481.99999999999994</ele><time>2026-03-22T11:22:29.998Z</time></trkpt><trkpt lat="44.911614197593025" lon="9.540980544400986"><ele>482.0</ele><time>2026-03-22T11:22:30.997Z</time></trkpt><trkpt lat="44.911538870161785" lon="9.540951004188063"><ele>483.28571428571433</ele><time>2026-03-22T11:22:31.997Z</time></trkpt><trkpt lat="44.9114625393242" lon="9.540921822048485"><ele>484.5714285714286</ele><time>2026-03-22T11:22:32.997Z</time></trkpt><trkpt lat="44.91140287169052" lon="9.540882074768142"><ele>485.8571428571429</ele><time>2026-03-22T11:22:33.997Z</time></trkpt><trkpt lat="44.91134060997059" lon="9.540823209886392"><ele>487.1428571428571</ele><time>2026-03-22T11:22:35Z</time></trkpt><trkpt lat="44.9112917258949" lon="9.540748849998296"><ele>488.4285714285714</ele><time>2026-03-22T11:22:36Z</time></trkpt><trkpt lat="44.91123969748945" lon="9.540688538806265"><ele>489.71428571428567</ele><time>2026-03-22T11:22:37Z</time></trkpt><trkpt lat="44.91117701307718" lon="9.540634374102858"><ele>491.0</ele><time>2026-03-22T11:22:38Z</time></trkpt><trkpt lat="44.91112147588274" lon="9.540566457473748"><ele>490.99999999999994</ele><time>2026-03-22T11:22:39Z</time></trkpt><trkpt lat="44.91103794422223" lon="9.540532382052707"><ele>491.0</ele><time>2026-03-22T11:22:40Z</time></trkpt><trkpt lat="44.91095894477483" lon="9.540498286942746"><ele>491.0</ele><time>2026-03-22T11:22:41Z</time></trkpt><trkpt lat="44.91087934107405" lon="9.540462210803149"><ele>491.0</ele><time>2026-03-22T11:22:42Z</time></trkpt><trkpt lat="44.91080428740663" lon="9.54042300425335"><ele>490.99999999999994</ele><time>2026-03-22T11:22:43Z</time></trkpt><trkpt lat="44.91074491912923" lon="9.540384055834032"><ele>491.0</ele><time>2026-03-22T11:22:44Z</time></trkpt><trkpt lat="44.91067919762465" lon="9.540342367266417"><ele>491.4</ele><time>2026-03-22T11:22:45Z</time></trkpt><trkpt lat="44.9106121145244" lon="9.540299969063906"><ele>491.8</ele><time>2026-03-22T11:22:46Z</time></trkpt><trkpt lat="44.91054343200074" lon="9.540305894191869"><ele>492.19999999999993</ele><time>2026-03-22T11:22:47Z</time></trkpt><trkpt lat="44.91045320903684" lon="9.540290810488623"><ele>492.59999999999997</ele><time>2026-03-22T11:22:48Z</time></trkpt><trkpt lat="44.91038359259573" lon="9.540325361917233"><ele>493.0</ele><time>2026-03-22T11:22:49Z</time></trkpt><trkpt lat="44.91030948748312" lon="9.540083287682132"><ele>493.00000000000006</ele><time>2026-03-22T11:22:50Z</time></trkpt><trkpt lat="44.91023284134407" lon="9.540023267180144"><ele>493.0</ele><time>2026-03-22T11:22:51Z</time></trkpt><trkpt lat="44.910168727914815" lon="9.539966768528362"><ele>493.0</ele><time>2026-03-22T11:22:52Z</time></trkpt><trkpt lat="44.91008897755697" lon="9.539896095088567"><ele>493.0</ele><time>2026-03-22T11:22:53Z</time></trkpt><trkpt lat="44.91002625010996" lon="9.539824257864543"><ele>493.00000000000006</ele><time>2026-03-22T11:22:54Z</time></trkpt><trkpt lat="44.90993651863928" lon="9.53976547787446"><ele>493.0</ele><time>2026-03-22T11:22:56Z</time></trkpt><trkpt lat="44.9098390645128" lon="9.539779575361976"><ele>494.33333333333337</ele><time>2026-03-22T11:22:58Z</time></trkpt><trkpt lat="44.90973216087557" lon="9.539816551123065"><ele>495.6666666666667</ele><time>2026-03-22T11:23:00Z</time></trkpt><trkpt lat="44.90962175264643" lon="9.539815647951668"><ele>497.0</ele><time>2026-03-22T11:23:02Z</time></trkpt><trkpt lat="44.909546359883585" lon="9.53980633767415"><ele>498.33333333333337</ele><time>2026-03-22T11:23:03Z</time></trkpt><trkpt lat="44.909474097190085" lon="9.539784234126921"><ele>499.6666666666667</ele><time>2026-03-22T11:23:04Z</time></trkpt><trkpt lat="44.90940369459069" lon="9.539769406974695"><ele>501.0</ele><time>2026-03-22T11:23:05Z</time></trkpt><trkpt lat="44.909328489768065" lon="9.539746816332146"><ele>501.0</ele><time>2026-03-22T11:23:06Z</time></trkpt><trkpt lat="44.90926099376495" lon="9.539752237831474"><ele>501.0</ele><time>2026-03-22T11:23:10Z</time></trkpt><trkpt lat="44.909217445191246" lon="9.539818442513367"><ele>501.0</ele><time>2026-03-22T11:23:20Z</time></trkpt><trkpt lat="44.90913069454383" lon="9.539900262464572"><ele>501.0</ele><time>2026-03-22T11:23:23Z</time></trkpt><trkpt lat="44.90906171741934" lon="9.539895643725604"><ele>501.0</ele><time>2026-03-22T11:23:24.999Z</time></trkpt><trkpt lat="44.908959432477616" lon="9.539913066897224"><ele>501.0</ele><time>2026-03-22T11:23:26.999Z</time></trkpt><trkpt lat="44.90888955058706" lon="9.539951718670695"><ele>503.6</ele><time>2026-03-22T11:23:28.999Z</time></trkpt><trkpt lat="44.90880369392108" lon="9.539978688196262"><ele>506.20000000000005</ele><time>2026-03-22T11:23:30.999Z</time></trkpt><trkpt lat="44.90870438230347" lon="9.539964455272974"><ele>508.79999999999995</ele><time>2026-03-22T11:23:33.999Z</time></trkpt><trkpt lat="44.90860902802066" lon="9.539973216149885"><ele>511.4</ele><time>2026-03-22T11:23:35.999Z</time></trkpt><trkpt lat="44.90853414119007" lon="9.539983374031323"><ele>514.0</ele><time>2026-03-22T11:23:37.999Z</time></trkpt><trkpt lat="44.9084353824638" lon="9.540005655400208"><ele>516.4</ele><time>2026-03-22T11:23:39.999Z</time></trkpt><trkpt lat="44.90833321545147" lon="9.540007878810814"><ele>518.8</ele><time>2026-03-22T11:23:41.999Z</time></trkpt><trkpt lat="44.90824472743914" lon="9.539997974254804"><ele>521.2</ele><time>2026-03-22T11:23:44.999Z</time></trkpt><trkpt lat="44.90816429835836" lon="9.540064164838753"><ele>523.6</ele><time>2026-03-22T11:23:47.999Z</time></trkpt><trkpt lat="44.90812793883607" lon="9.540162066611998"><ele>526.0</ele><time>2026-03-22T11:24:58Z</time></trkpt><trkpt lat="44.90806506248727" lon="9.540254558386312"><ele>526.0</ele><time>2026-03-22T11:25:03.999Z</time></trkpt><trkpt lat="44.90802799558887" lon="9.540327048782759"><ele>526.0</ele><time>2026-03-22T11:25:24.999Z</time></trkpt><trkpt lat="44.90798132470063" lon="9.540410532703467"><ele>526.0</ele><time>2026-03-22T11:25:27.999Z</time></trkpt><trkpt lat="44.907938871248525" lon="9.540482092444227"><ele>526.0</ele><time>2026-03-22T11:25:48.998Z</time></trkpt><trkpt lat="44.90789245848418" lon="9.540552988061574"><ele>526.0</ele><time>2026-03-22T11:25:50.998Z</time></trkpt><trkpt lat="44.90785774559194" lon="9.540627296622677"><ele>526.0</ele><time>2026-03-22T11:25:52.998Z</time></trkpt><trkpt lat="44.907781774806125" lon="9.540699831861225"><ele>526.0</ele><time>2026-03-22T11:25:54.998Z</time></trkpt><trkpt lat="44.907700079073706" lon="9.540775636673983"><ele>525.3333333333334</ele><time>2026-03-22T11:25:56.998Z</time></trkpt><trkpt lat="44.907630324609315" lon="9.540868554309828"><ele>524.6666666666667</ele><time>2026-03-22T11:25:58.998Z</time></trkpt><trkpt lat="44.907575399510634" lon="9.540917596915046"><ele>524.0</ele><time>2026-03-22T11:26:00.998Z</time></trkpt><trkpt lat="44.907499040408936" lon="9.540964019340892"><ele>523.3333333333334</ele><time>2026-03-22T11:26:03.998Z</time></trkpt><trkpt lat="44.90743883263005" lon="9.541035221701469"><ele>522.6666666666666</ele><time>2026-03-22T11:26:57Z</time></trkpt><trkpt lat="44.90735661461755" lon="9.541118646846567"><ele>522.0</ele><time>2026-03-22T11:26:59Z</time></trkpt><trkpt lat="44.90727625564817" lon="9.541257124166195"><ele>524.0</ele><time>2026-03-22T11:27:02Z</time></trkpt><trkpt lat="44.907163535416004" lon="9.541377582158095"><ele>526.0</ele><time>2026-03-22T11:27:04Z</time></trkpt><trkpt lat="44.907112080469695" lon="9.541448094084746"><ele>528.0</ele><time>2026-03-22T11:27:05Z</time></trkpt><trkpt lat="44.907041548660715" lon="9.541520074416034"><ele>530.0</ele><time>2026-03-22T11:27:06Z</time></trkpt><trkpt lat="44.90694253635547" lon="9.541599578997648"><ele>532.0</ele><time>2026-03-22T11:27:08Z</time></trkpt><trkpt lat="44.90686920306331" lon="9.541596121245306"><ele>532.0</ele><time>2026-03-22T11:27:10Z</time></trkpt><trkpt lat="44.906807343737746" lon="9.54157110272062"><ele>532.0</ele><time>2026-03-22T11:27:11Z</time></trkpt><trkpt lat="44.90670746683762" lon="9.541532389317117"><ele>532.0</ele><time>2026-03-22T11:27:12Z</time></trkpt><trkpt lat="44.90666277785854" lon="9.541452643294317"><ele>532.0</ele><time>2026-03-22T11:27:16Z</time></trkpt><trkpt lat="44.906711335178194" lon="9.541325837452463"><ele>532.0</ele><time>2026-03-22T11:27:18Z</time></trkpt><trkpt lat="44.906758903541224" lon="9.541243714391953"><ele>532.0</ele><time>2026-03-22T11:27:19.999Z</time></trkpt><trkpt lat="44.90677195542751" lon="9.54109273401729"><ele>535.8000000000001</ele><time>2026-03-22T11:27:21.999Z</time></trkpt><trkpt lat="44.90674294754197" lon="9.54096283015817"><ele>539.6</ele><time>2026-03-22T11:27:23.999Z</time></trkpt><trkpt lat="44.906729386961715" lon="9.54086096844958"><ele>543.4000000000001</ele><time>2026-03-22T11:27:24.999Z</time></trkpt><trkpt lat="44.9067022005803" lon="9.54070401872468"><ele>547.2</ele><time>2026-03-22T11:27:25.999Z</time></trkpt><trkpt lat="44.906672577167406" lon="9.540565153294697"><ele>551.0</ele><time>2026-03-22T11:27:26.999Z</time></trkpt><trkpt lat="44.906619662311186" lon="9.540372672030669"><ele>552.1666666666666</ele><time>2026-03-22T11:27:27.999Z</time></trkpt><trkpt lat="44.90658156083462" lon="9.540239956902568"><ele>553.3333333333333</ele><time>2026-03-22T11:27:28.999Z</time></trkpt><trkpt lat="44.90654778487519" lon="9.540098841579242"><ele>554.5</ele><time>2026-03-22T11:27:30.999Z</time></trkpt><trkpt lat="44.906521773197326" lon="9.53999286905249"><ele>555.6666666666666</ele><time>2026-03-22T11:27:32.999Z</time></trkpt><trkpt lat="44.906523760298406" lon="9.54009312481309"><ele>556.8333333333334</ele><time>2026-03-22T11:27:35.999Z</time></trkpt><trkpt lat="44.906562238411" lon="9.540200726061201"><ele>558.0</ele><time>2026-03-22T11:27:37.999Z</time></trkpt><trkpt lat="44.906591710667136" lon="9.540366141437445"><ele>555.6666666666666</ele><time>2026-03-22T11:27:38.999Z</time></trkpt><trkpt lat="44.906636637469056" lon="9.540644209972747"><ele>553.3333333333333</ele><time>2026-03-22T11:27:39.999Z</time></trkpt><trkpt lat="44.90666901395404" lon="9.540847197115081"><ele>551.0</ele><time>2026-03-22T11:27:40.999Z</time></trkpt><trkpt lat="44.90669171523087" lon="9.540995937889843"><ele>551.0</ele><time>2026-03-22T11:27:41.999Z</time></trkpt><trkpt lat="44.906713880599995" lon="9.54111838544026"><ele>551.0</ele><time>2026-03-22T11:27:42.999Z</time></trkpt><trkpt lat="44.906727422290146" lon="9.541217174543318"><ele>551.0</ele><time>2026-03-22T11:27:43.999Z</time></trkpt><trkpt lat="44.9067342659268" lon="9.54111802045747"><ele>551.0</ele><time>2026-03-22T11:27:49.999Z</time></trkpt><trkpt lat="44.90673952062169" lon="9.54095659058668"><ele>551.0</ele><time>2026-03-22T11:34:16.998Z</time></trkpt><trkpt lat="44.90672963514415" lon="9.540860503471068"><ele>551.0</ele><time>2026-03-22T11:34:17.998Z</time></trkpt><trkpt lat="44.90671940564468" lon="9.54072445780149"><ele>551.0</ele><time>2026-03-22T11:34:18.998Z</time></trkpt><trkpt lat="44.90663991259653" lon="9.540568571799795"><ele>551.0</ele><time>2026-03-22T11:34:19.998Z</time></trkpt><trkpt lat="44.90661565720276" lon="9.54043990436751"><ele>551.0</ele><time>2026-03-22T11:34:20.998Z</time></trkpt><trkpt lat="44.90659746731888" lon="9.540345992279603"><ele>551.0</ele><time>2026-03-22T11:34:21.998Z</time></trkpt><trkpt lat="44.9065750589586" lon="9.540240960139997"><ele>551.0</ele><time>2026-03-22T11:34:22.998Z</time></trkpt><trkpt lat="44.90656253968956" lon="9.540127450516348"><ele>552.4</ele><time>2026-03-22T11:34:23.998Z</time></trkpt><trkpt lat="44.906507190705426" lon="9.539996845706789"><ele>553.8</ele><time>2026-03-22T11:34:24.998Z</time></trkpt><trkpt lat="44.906437334941934" lon="9.53988096997892"><ele>555.1999999999999</ele><time>2026-03-22T11:34:25.998Z</time></trkpt><trkpt lat="44.90639029754327" lon="9.539735234991774"><ele>556.6</ele><time>2026-03-22T11:34:26.998Z</time></trkpt><trkpt lat="44.90635017536188" lon="9.539594610097629"><ele>558.0</ele><time>2026-03-22T11:34:27.998Z</time></trkpt><trkpt lat="44.9062964661049" lon="9.539432401343882"><ele>558.0</ele><time>2026-03-22T11:34:28.998Z</time></trkpt><trkpt lat="44.90623780280158" lon="9.539267787638053"><ele>558.0</ele><time>2026-03-22T11:34:29.998Z</time></trkpt><trkpt lat="44.90617646942817" lon="9.539099192435796"><ele>558.0</ele><time>2026-03-22T11:34:30.998Z</time></trkpt><trkpt lat="44.90611743511312" lon="9.538926996255482"><ele>558.0</ele><time>2026-03-22T11:34:31.998Z</time></trkpt><trkpt lat="44.906042120583514" lon="9.538739839043506"><ele>557.25</ele><time>2026-03-22T11:34:32.998Z</time></trkpt><trkpt lat="44.905984153412206" lon="9.53857058620525"><ele>556.5</ele><time>2026-03-22T11:34:33.998Z</time></trkpt><trkpt lat="44.90592815792783" lon="9.538413226989695"><ele>555.75</ele><time>2026-03-22T11:34:34.998Z</time></trkpt><trkpt lat="44.90587718366852" lon="9.5382568627304"><ele>555.0</ele><time>2026-03-22T11:34:35.998Z</time></trkpt><trkpt lat="44.90581377850323" lon="9.538095883364043"><ele>555.0</ele><time>2026-03-22T11:34:36.998Z</time></trkpt><trkpt lat="44.90574293304041" lon="9.537921410170606"><ele>555.0</ele><time>2026-03-22T11:34:37.998Z</time></trkpt><trkpt lat="44.90568116973316" lon="9.537750067806039"><ele>555.0</ele><time>2026-03-22T11:34:38.998Z</time></trkpt><trkpt lat="44.90562495731099" lon="9.537591552411744"><ele>555.0</ele><time>2026-03-22T11:34:39.998Z</time></trkpt><trkpt lat="44.905579594748666" lon="9.537422264443656"><ele>554.8</ele><time>2026-03-22T11:34:40.998Z</time></trkpt><trkpt lat="44.90556359609546" lon="9.537260148081767"><ele>554.6</ele><time>2026-03-22T11:34:41.998Z</time></trkpt><trkpt lat="44.90553347857445" lon="9.537123911706558"><ele>554.4</ele><time>2026-03-22T11:34:42.998Z</time></trkpt><trkpt lat="44.90548980899719" lon="9.536985641131269"><ele>554.2</ele><time>2026-03-22T11:34:43.998Z</time></trkpt><trkpt lat="44.90544739284956" lon="9.5368482584284"><ele>554.0</ele><time>2026-03-22T11:34:44.998Z</time></trkpt><trkpt lat="44.905408335882846" lon="9.536723446426763"><ele>552.8333333333333</ele><time>2026-03-22T11:34:45.998Z</time></trkpt><trkpt lat="44.905364289739495" lon="9.536621319804917"><ele>551.6666666666666</ele><time>2026-03-22T11:34:46.998Z</time></trkpt><trkpt lat="44.90532783644727" lon="9.536528793745937"><ele>550.5</ele><time>2026-03-22T11:34:47.998Z</time></trkpt><trkpt lat="44.90528946721415" lon="9.53643407663923"><ele>549.3333333333334</ele><time>2026-03-22T11:34:48.998Z</time></trkpt><trkpt lat="44.905238610786455" lon="9.536339821507955"><ele>548.1666666666667</ele><time>2026-03-22T11:34:49.998Z</time></trkpt><trkpt lat="44.90520121115194" lon="9.536216002335891"><ele>547.0</ele><time>2026-03-22T11:34:50.998Z</time></trkpt><trkpt lat="44.90510776407231" lon="9.5360402985925"><ele>548.25</ele><time>2026-03-22T11:34:51.998Z</time></trkpt><trkpt lat="44.90503741617033" lon="9.535843574404804"><ele>549.5</ele><time>2026-03-22T11:34:52.998Z</time></trkpt><trkpt lat="44.90498518680985" lon="9.535745517940729"><ele>550.75</ele><time>2026-03-22T11:34:53.998Z</time></trkpt><trkpt lat="44.90491298199318" lon="9.535571446507952"><ele>552.0</ele><time>2026-03-22T11:34:54.998Z</time></trkpt><trkpt lat="44.90486401613813" lon="9.535378322359165"><ele>552.5</ele><time>2026-03-22T11:34:55.998Z</time></trkpt><trkpt lat="44.904834485697826" lon="9.535186263617087"><ele>553.0</ele><time>2026-03-22T11:34:56.998Z</time></trkpt><trkpt lat="44.904820241615774" lon="9.535001726299077"><ele>553.5</ele><time>2026-03-22T11:34:57.998Z</time></trkpt><trkpt lat="44.90482159414237" lon="9.534830489207271"><ele>554.0</ele><time>2026-03-22T11:34:58.998Z</time></trkpt><trkpt lat="44.90480712455716" lon="9.534666708151075"><ele>553.5</ele><time>2026-03-22T11:34:59.997Z</time></trkpt><trkpt lat="44.904771436664845" lon="9.534506846788833"><ele>553.0</ele><time>2026-03-22T11:35:00.997Z</time></trkpt><trkpt lat="44.90473197941582" lon="9.534344038418507"><ele>552.5</ele><time>2026-03-22T11:35:01.997Z</time></trkpt><trkpt lat="44.9046955781659" lon="9.53417219958117"><ele>552.0</ele><time>2026-03-22T11:35:02.997Z</time></trkpt><trkpt lat="44.90463777895444" lon="9.534017582548547"><ele>552.0</ele><time>2026-03-22T11:35:03.997Z</time></trkpt><trkpt lat="44.904596472963476" lon="9.533854819634865"><ele>552.0</ele><time>2026-03-22T11:35:04.997Z</time></trkpt><trkpt lat="44.90454737261598" lon="9.533712564206175"><ele>552.0</ele><time>2026-03-22T11:35:05.997Z</time></trkpt><trkpt lat="44.90448941785272" lon="9.533558947094054"><ele>552.0</ele><time>2026-03-22T11:35:06.997Z</time></trkpt><trkpt lat="44.90444404607353" lon="9.533401077208419"><ele>550.0</ele><time>2026-03-22T11:35:07.997Z</time></trkpt><trkpt lat="44.904406611790755" lon="9.533234206715283"><ele>548.0</ele><time>2026-03-22T11:35:08.997Z</time></trkpt><trkpt lat="44.904363641415436" lon="9.533052368478096"><ele>546.0</ele><time>2026-03-22T11:35:09.997Z</time></trkpt><trkpt lat="44.90433178698945" lon="9.532868636610003"><ele>544.0</ele><time>2026-03-22T11:35:11Z</time></trkpt><trkpt lat="44.90428805513411" lon="9.532687554573764"><ele>543.75</ele><time>2026-03-22T11:35:12Z</time></trkpt><trkpt lat="44.90422542549788" lon="9.532513892358798"><ele>543.5</ele><time>2026-03-22T11:35:13Z</time></trkpt><trkpt lat="44.90415476656938" lon="9.532325769184876"><ele>543.25</ele><time>2026-03-22T11:35:14Z</time></trkpt><trkpt lat="44.90408543133623" lon="9.532131094214549"><ele>543.0</ele><time>2026-03-22T11:35:15Z</time></trkpt><trkpt lat="44.90401518446661" lon="9.531937593993037"><ele>541.0</ele><time>2026-03-22T11:35:16Z</time></trkpt><trkpt lat="44.90394848378522" lon="9.531747944548417"><ele>539.0</ele><time>2026-03-22T11:35:17Z</time></trkpt><trkpt lat="44.90389441290073" lon="9.531572097617294"><ele>537.0</ele><time>2026-03-22T11:35:18Z</time></trkpt><trkpt lat="44.90385138355446" lon="9.53140178647839"><ele>535.0</ele><time>2026-03-22T11:35:19Z</time></trkpt><trkpt lat="44.903797401560546" lon="9.531227349889065"><ele>533.0</ele><time>2026-03-22T11:35:20Z</time></trkpt><trkpt lat="44.903739174094234" lon="9.53104916331798"><ele>531.0</ele><time>2026-03-22T11:35:21Z</time></trkpt><trkpt lat="44.90369411144155" lon="9.530864532556187"><ele>529.0</ele><time>2026-03-22T11:35:22Z</time></trkpt><trkpt lat="44.90367591138652" lon="9.530665864290615"><ele>527.0</ele><time>2026-03-22T11:35:23Z</time></trkpt><trkpt lat="44.90367578338142" lon="9.530475547523503"><ele>527.5</ele><time>2026-03-22T11:35:24Z</time></trkpt><trkpt lat="44.903687905448514" lon="9.530296501405251"><ele>528.0</ele><time>2026-03-22T11:35:25Z</time></trkpt><trkpt lat="44.90375954309336" lon="9.530140966025604"><ele>528.5</ele><time>2026-03-22T11:35:26Z</time></trkpt><trkpt lat="44.903851182671076" lon="9.530001620383203"><ele>529.0</ele><time>2026-03-22T11:35:27Z</time></trkpt><trkpt lat="44.90392683439348" lon="9.529852168431212"><ele>529.0</ele><time>2026-03-22T11:35:28Z</time></trkpt><trkpt lat="44.903985437996084" lon="9.529724786802417"><ele>529.0</ele><time>2026-03-22T11:35:29Z</time></trkpt><trkpt lat="44.90398625447019" lon="9.529582574513949"><ele>529.0</ele><time>2026-03-22T11:35:30Z</time></trkpt><trkpt lat="44.90401199491025" lon="9.529469076347532"><ele>529.0</ele><time>2026-03-22T11:35:31Z</time></trkpt><trkpt lat="44.904012330047145" lon="9.529370368441837"><ele>529.0</ele><time>2026-03-22T11:35:32Z</time></trkpt><trkpt lat="44.9039988417217" lon="9.529250919853173"><ele>529.0</ele><time>2026-03-22T11:35:33Z</time></trkpt><trkpt lat="44.90398870247203" lon="9.529124619535356"><ele>529.75</ele><time>2026-03-22T11:35:34Z</time></trkpt><trkpt lat="44.903958572951055" lon="9.528973652093534"><ele>530.5</ele><time>2026-03-22T11:35:35Z</time></trkpt><trkpt lat="44.90391653807669" lon="9.528804076775131"><ele>531.25</ele><time>2026-03-22T11:35:36Z</time></trkpt><trkpt lat="44.903863286638625" lon="9.52862373208588"><ele>532.0</ele><time>2026-03-22T11:35:37Z</time></trkpt><trkpt lat="44.90379723969898" lon="9.528457204134225"><ele>532.0</ele><time>2026-03-22T11:35:38Z</time></trkpt><trkpt lat="44.9037139280348" lon="9.528328817655975"><ele>532.0</ele><time>2026-03-22T11:35:39Z</time></trkpt><trkpt lat="44.903617690115276" lon="9.528224099510872"><ele>532.0</ele><time>2026-03-22T11:35:40Z</time></trkpt><trkpt lat="44.90349759772822" lon="9.528123038044662"><ele>532.0</ele><time>2026-03-22T11:35:41Z</time></trkpt><trkpt lat="44.903362964385856" lon="9.528011078996595"><ele>528.3333333333334</ele><time>2026-03-22T11:35:42Z</time></trkpt><trkpt lat="44.90323152570481" lon="9.527867561914768"><ele>524.6666666666666</ele><time>2026-03-22T11:35:43Z</time></trkpt><trkpt lat="44.90311794485087" lon="9.527695749547737"><ele>521.0</ele><time>2026-03-22T11:35:44Z</time></trkpt><trkpt lat="44.903028467945596" lon="9.52750371015908"><ele>521.0</ele><time>2026-03-22T11:35:45Z</time></trkpt><trkpt lat="44.90295879012104" lon="9.527302846139452"><ele>521.0</ele><time>2026-03-22T11:35:46Z</time></trkpt><trkpt lat="44.902890108363096" lon="9.527130287224526"><ele>521.0</ele><time>2026-03-22T11:35:47Z</time></trkpt><trkpt lat="44.902809772494145" lon="9.526984126014943"><ele>521.0</ele><time>2026-03-22T11:35:48Z</time></trkpt><trkpt lat="44.90275039468447" lon="9.526867007566095"><ele>520.0</ele><time>2026-03-22T11:35:49Z</time></trkpt><trkpt lat="44.902722158909064" lon="9.526756612560805"><ele>519.0</ele><time>2026-03-22T11:35:50Z</time></trkpt><trkpt lat="44.90270138110134" lon="9.52662056799748"><ele>518.0</ele><time>2026-03-22T11:35:51Z</time></trkpt><trkpt lat="44.90267866868756" lon="9.526459180366379"><ele>517.0</ele><time>2026-03-22T11:35:51.999Z</time></trkpt><trkpt lat="44.90265413822375" lon="9.526285237144224"><ele>516.0</ele><time>2026-03-22T11:35:52.999Z</time></trkpt><trkpt lat="44.902639600371316" lon="9.526132304053196"><ele>515.4</ele><time>2026-03-22T11:35:53.999Z</time></trkpt><trkpt lat="44.90263354085702" lon="9.525999069179218"><ele>514.8</ele><time>2026-03-22T11:35:54.999Z</time></trkpt><trkpt lat="44.902631678431625" lon="9.525871731065129"><ele>514.1999999999999</ele><time>2026-03-22T11:35:55.999Z</time></trkpt><trkpt lat="44.90264390759998" lon="9.525737227911595"><ele>513.6</ele><time>2026-03-22T11:35:56.999Z</time></trkpt><trkpt lat="44.902680685870614" lon="9.525608147611088"><ele>513.0</ele><time>2026-03-22T11:35:57.999Z</time></trkpt><trkpt lat="44.90273761489634" lon="9.525492391740118"><ele>514.4</ele><time>2026-03-22T11:35:58.999Z</time></trkpt><trkpt lat="44.90277689838454" lon="9.525368584882843"><ele>515.8</ele><time>2026-03-22T11:35:59.999Z</time></trkpt><trkpt lat="44.90279588472664" lon="9.525230935397161"><ele>517.2</ele><time>2026-03-22T11:36:00.999Z</time></trkpt><trkpt lat="44.90279890641341" lon="9.525103464991622"><ele>518.6</ele><time>2026-03-22T11:36:01.999Z</time></trkpt><trkpt lat="44.90278708201368" lon="9.524977144169862"><ele>520.0</ele><time>2026-03-22T11:36:02.999Z</time></trkpt><trkpt lat="44.90277720332842" lon="9.524843366609865"><ele>520.0</ele><time>2026-03-22T11:36:03.999Z</time></trkpt><trkpt lat="44.9027765220446" lon="9.524692010244827"><ele>520.0</ele><time>2026-03-22T11:36:04.999Z</time></trkpt><trkpt lat="44.90278917455529" lon="9.524537409994311"><ele>520.0</ele><time>2026-03-22T11:36:05.999Z</time></trkpt><trkpt lat="44.90280770514201" lon="9.524389781566395"><ele>520.0</ele><time>2026-03-22T11:36:06.999Z</time></trkpt><trkpt lat="44.90283969508657" lon="9.524231633608718"><ele>520.0</ele><time>2026-03-22T11:36:07.999Z</time></trkpt><trkpt lat="44.90288652244117" lon="9.524071353633545"><ele>522.0</ele><time>2026-03-22T11:36:08.999Z</time></trkpt><trkpt lat="44.90294142270704" lon="9.523921906559895"><ele>524.0</ele><time>2026-03-22T11:36:09.999Z</time></trkpt><trkpt lat="44.903001103575214" lon="9.523769857319483"><ele>526.0</ele><time>2026-03-22T11:36:10.999Z</time></trkpt><trkpt lat="44.903053491774855" lon="9.523611476072421"><ele>528.0</ele><time>2026-03-22T11:36:11.999Z</time></trkpt><trkpt lat="44.903096787211354" lon="9.523442950905277"><ele>531.0</ele><time>2026-03-22T11:36:12.999Z</time></trkpt><trkpt lat="44.90313077461408" lon="9.523272278353549"><ele>534.0</ele><time>2026-03-22T11:36:13.999Z</time></trkpt><trkpt lat="44.903165552055306" lon="9.523105846591978"><ele>537.0</ele><time>2026-03-22T11:36:14.999Z</time></trkpt><trkpt lat="44.90319573155936" lon="9.522945981930206"><ele>540.0</ele><time>2026-03-22T11:36:15.999Z</time></trkpt><trkpt lat="44.90321586445664" lon="9.522783983424803"><ele>541.6666666666666</ele><time>2026-03-22T11:36:16.999Z</time></trkpt><trkpt lat="44.90322182667942" lon="9.522610442997946"><ele>543.3333333333333</ele><time>2026-03-22T11:36:17.999Z</time></trkpt><trkpt lat="44.90322847611214" lon="9.522403947673938"><ele>545.0</ele><time>2026-03-22T11:36:18.999Z</time></trkpt><trkpt lat="44.90323237211249" lon="9.522143896126998"><ele>543.6666666666666</ele><time>2026-03-22T11:36:19.999Z</time></trkpt><trkpt lat="44.90322937584324" lon="9.52187387585366"><ele>542.3333333333334</ele><time>2026-03-22T11:36:20.999Z</time></trkpt><trkpt lat="44.90321041277383" lon="9.521618601893696"><ele>541.0</ele><time>2026-03-22T11:36:21.999Z</time></trkpt><trkpt lat="44.90319255979105" lon="9.521382683815578"><ele>540.3333333333334</ele><time>2026-03-22T11:36:22.999Z</time></trkpt><trkpt lat="44.903166954813265" lon="9.521165588340773"><ele>539.6666666666666</ele><time>2026-03-22T11:36:23.999Z</time></trkpt><trkpt lat="44.903151753701486" lon="9.520926293422725"><ele>539.0</ele><time>2026-03-22T11:36:24.999Z</time></trkpt><trkpt lat="44.903172602882684" lon="9.520682237259335"><ele>539.0</ele><time>2026-03-22T11:36:25.999Z</time></trkpt><trkpt lat="44.90319839529058" lon="9.520440938374668"><ele>539.0</ele><time>2026-03-22T11:36:26.999Z</time></trkpt><trkpt lat="44.90320570336535" lon="9.520223565487205"><ele>539.0</ele><time>2026-03-22T11:36:27.999Z</time></trkpt><trkpt lat="44.903211711890286" lon="9.520023730380068"><ele>538.75</ele><time>2026-03-22T11:36:28.999Z</time></trkpt><trkpt lat="44.903217221386534" lon="9.51981911342178"><ele>538.5</ele><time>2026-03-22T11:36:29.999Z</time></trkpt><trkpt lat="44.90320958939809" lon="9.519628609378119"><ele>538.25</ele><time>2026-03-22T11:36:30.999Z</time></trkpt><trkpt lat="44.90319786409017" lon="9.519455009361023"><ele>538.0</ele><time>2026-03-22T11:36:31.999Z</time></trkpt><trkpt lat="44.90319320302877" lon="9.51928421505413"><ele>537.5</ele><time>2026-03-22T11:36:32.998Z</time></trkpt><trkpt lat="44.903201539228654" lon="9.519126383058401"><ele>537.0</ele><time>2026-03-22T11:36:33.998Z</time></trkpt><trkpt lat="44.90320833441281" lon="9.51896696991714"><ele>536.5</ele><time>2026-03-22T11:36:34.998Z</time></trkpt><trkpt lat="44.90320391280141" lon="9.518805791456899"><ele>536.0</ele><time>2026-03-22T11:36:35.998Z</time></trkpt><trkpt lat="44.90317670373615" lon="9.518634558057173"><ele>533.5</ele><time>2026-03-22T11:36:36.998Z</time></trkpt><trkpt lat="44.90314084931344" lon="9.518461050370593"><ele>531.0</ele><time>2026-03-22T11:36:37.998Z</time></trkpt><trkpt lat="44.90310737707879" lon="9.51829193846617"><ele>528.5</ele><time>2026-03-22T11:36:38.998Z</time></trkpt><trkpt lat="44.90306665965755" lon="9.518126794103962"><ele>526.0</ele><time>2026-03-22T11:36:39.998Z</time></trkpt><trkpt lat="44.902992342994736" lon="9.51796996039872"><ele>523.6666666666667</ele><time>2026-03-22T11:36:40.998Z</time></trkpt><trkpt lat="44.90285721198367" lon="9.517806688905152"><ele>521.3333333333334</ele><time>2026-03-22T11:36:41.998Z</time></trkpt><trkpt lat="44.90267906147497" lon="9.51764232232793"><ele>519.0</ele><time>2026-03-22T11:36:42.998Z</time></trkpt><trkpt lat="44.90248507101604" lon="9.517463640874517"><ele>524.3333333333334</ele><time>2026-03-22T11:36:43.998Z</time></trkpt><trkpt lat="44.90233350157576" lon="9.517241226983083"><ele>529.6666666666667</ele><time>2026-03-22T11:36:44.998Z</time></trkpt><trkpt lat="44.902184402137685" lon="9.517092488994319"><ele>535.0</ele><time>2026-03-22T11:36:45.998Z</time></trkpt><trkpt lat="44.902058998887824" lon="9.516955294110568"><ele>535.25</ele><time>2026-03-22T11:36:46.998Z</time></trkpt><trkpt lat="44.90194396970398" lon="9.516854897932507"><ele>535.5</ele><time>2026-03-22T11:36:47.998Z</time></trkpt><trkpt lat="44.90183530501312" lon="9.516777534990847"><ele>535.75</ele><time>2026-03-22T11:36:48.998Z</time></trkpt><trkpt lat="44.90173946172798" lon="9.516699789900038"><ele>536.0</ele><time>2026-03-22T11:36:49.998Z</time></trkpt><trkpt lat="44.90165665617438" lon="9.516617643254692"><ele>537.6</ele><time>2026-03-22T11:36:50.998Z</time></trkpt><trkpt lat="44.90161106070425" lon="9.516545016232032"><ele>539.2</ele><time>2026-03-22T11:36:51.998Z</time></trkpt><trkpt lat="44.901553159423266" lon="9.516396523628666"><ele>540.8</ele><time>2026-03-22T11:36:53.998Z</time></trkpt><trkpt lat="44.901497144262805" lon="9.516342326998977"><ele>542.4</ele><time>2026-03-22T11:36:56.998Z</time></trkpt><trkpt lat="44.90137000779326" lon="9.516393799290316"><ele>544.0</ele><time>2026-03-22T11:36:58.998Z</time></trkpt><trkpt lat="44.90127405177558" lon="9.516457263308011"><ele>544.0</ele><time>2026-03-22T11:36:59.998Z</time></trkpt><trkpt lat="44.90118227851771" lon="9.516500669773057"><ele>544.0</ele><time>2026-03-22T11:37:00.998Z</time></trkpt><trkpt lat="44.901084712812114" lon="9.516547042310307"><ele>544.0</ele><time>2026-03-22T11:37:01.998Z</time></trkpt><trkpt lat="44.900991944127576" lon="9.516592769955352"><ele>544.0</ele><time>2026-03-22T11:37:02.998Z</time></trkpt><trkpt lat="44.90091008495326" lon="9.51664232278466"><ele>544.0</ele><time>2026-03-22T11:37:03.998Z</time></trkpt><trkpt lat="44.90083975996493" lon="9.516691009319443"><ele>544.2857142857142</ele><time>2026-03-22T11:37:04.998Z</time></trkpt><trkpt lat="44.90077275924953" lon="9.516740251587262"><ele>544.5714285714286</ele><time>2026-03-22T11:37:05.998Z</time></trkpt><trkpt lat="44.90070963509329" lon="9.516787157662959"><ele>544.8571428571429</ele><time>2026-03-22T11:37:06.998Z</time></trkpt><trkpt lat="44.900651025585255" lon="9.516830708993972"><ele>545.1428571428571</ele><time>2026-03-22T11:37:07.998Z</time></trkpt><trkpt lat="44.90058933205356" lon="9.516876566574341"><ele>545.4285714285714</ele><time>2026-03-22T11:37:08.998Z</time></trkpt><trkpt lat="44.900529591210024" lon="9.516919541435698"><ele>545.7142857142857</ele><time>2026-03-22T11:37:09.998Z</time></trkpt><trkpt lat="44.90046759731113" lon="9.516961523110638"><ele>546.0</ele><time>2026-03-22T11:37:10.998Z</time></trkpt><trkpt lat="44.90040195571091" lon="9.517001082481556"><ele>546.0</ele><time>2026-03-22T11:37:11.998Z</time></trkpt><trkpt lat="44.9003355443031" lon="9.517030255072092"><ele>546.0</ele><time>2026-03-22T11:37:12.998Z</time></trkpt><trkpt lat="44.900268102930625" lon="9.517046785207814"><ele>546.0</ele><time>2026-03-22T11:37:13.998Z</time></trkpt><trkpt lat="44.90019576963377" lon="9.517039911974535"><ele>546.0</ele><time>2026-03-22T11:37:14.997Z</time></trkpt><trkpt lat="44.90012143491487" lon="9.517032881047422"><ele>546.0</ele><time>2026-03-22T11:37:15.997Z</time></trkpt><trkpt lat="44.90005699073886" lon="9.516975169535389"><ele>546.0</ele><time>2026-03-22T11:37:17Z</time></trkpt><trkpt lat="44.899993305848334" lon="9.516896103988412"><ele>546.0</ele><time>2026-03-22T11:37:18Z</time></trkpt><trkpt lat="44.8999296806952" lon="9.516830957081702"><ele>546.0</ele><time>2026-03-22T11:37:19Z</time></trkpt><trkpt lat="44.89986161448196" lon="9.516766014503641"><ele>546.0</ele><time>2026-03-22T11:37:20Z</time></trkpt><trkpt lat="44.89978846677263" lon="9.516708440451428"><ele>546.0</ele><time>2026-03-22T11:37:21Z</time></trkpt><trkpt lat="44.899678764457086" lon="9.51662219354879"><ele>546.0</ele><time>2026-03-22T11:37:22Z</time></trkpt><trkpt lat="44.89953873127651" lon="9.516518824989388"><ele>546.0</ele><time>2026-03-22T11:37:23Z</time></trkpt><trkpt lat="44.89937834237677" lon="9.51640437642447"><ele>542.0</ele><time>2026-03-22T11:37:24Z</time></trkpt><trkpt lat="44.89923704644327" lon="9.516294041552142"><ele>538.0</ele><time>2026-03-22T11:37:25Z</time></trkpt><trkpt lat="44.89909837415931" lon="9.51618838669616"><ele>534.0</ele><time>2026-03-22T11:37:26Z</time></trkpt><trkpt lat="44.898975871934965" lon="9.516092945594087"><ele>534.0</ele><time>2026-03-22T11:37:27Z</time></trkpt><trkpt lat="44.898850899363154" lon="9.516009823868272"><ele>534.0</ele><time>2026-03-22T11:37:28Z</time></trkpt><trkpt lat="44.89873149713049" lon="9.515979831720928"><ele>534.0</ele><time>2026-03-22T11:37:29Z</time></trkpt><trkpt lat="44.898617796755744" lon="9.515973549004256"><ele>534.0</ele><time>2026-03-22T11:37:30Z</time></trkpt><trkpt lat="44.898482592787914" lon="9.516038902302352"><ele>533.3333333333334</ele><time>2026-03-22T11:37:31Z</time></trkpt><trkpt lat="44.898345151676814" lon="9.516121749017325"><ele>532.6666666666667</ele><time>2026-03-22T11:37:32Z</time></trkpt><trkpt lat="44.898201391784845" lon="9.51622028161919"><ele>532.0</ele><time>2026-03-22T11:37:33Z</time></trkpt><trkpt lat="44.89807025990247" lon="9.516348383558507"><ele>532.0</ele><time>2026-03-22T11:37:34Z</time></trkpt><trkpt lat="44.897967885642345" lon="9.516496052493203"><ele>532.0</ele><time>2026-03-22T11:37:35Z</time></trkpt><trkpt lat="44.89788964200624" lon="9.516616896059173"><ele>532.0</ele><time>2026-03-22T11:37:36Z</time></trkpt><trkpt lat="44.89783022698585" lon="9.516697887383046"><ele>532.0</ele><time>2026-03-22T11:37:37Z</time></trkpt><trkpt lat="44.897763719637524" lon="9.516756980267346"><ele>532.0</ele><time>2026-03-22T11:37:38Z</time></trkpt><trkpt lat="44.89769358065437" lon="9.516767655347426"><ele>532.0</ele><time>2026-03-22T11:37:39Z</time></trkpt><trkpt lat="44.8976082833956" lon="9.51673997239698"><ele>532.0</ele><time>2026-03-22T11:37:40Z</time></trkpt><trkpt lat="44.897497129386444" lon="9.516707094960534"><ele>532.0</ele><time>2026-03-22T11:37:41Z</time></trkpt><trkpt lat="44.89737502072272" lon="9.516609311052758"><ele>532.0</ele><time>2026-03-22T11:37:42Z</time></trkpt><trkpt lat="44.89724528386684" lon="9.516491227858682"><ele>531.75</ele><time>2026-03-22T11:37:43Z</time></trkpt><trkpt lat="44.89712154950289" lon="9.51638546534356"><ele>531.5</ele><time>2026-03-22T11:37:44Z</time></trkpt><trkpt lat="44.89699544832265" lon="9.516295653046187"><ele>531.25</ele><time>2026-03-22T11:37:45Z</time></trkpt><trkpt lat="44.89685987169497" lon="9.516260758545194"><ele>531.0</ele><time>2026-03-22T11:37:46Z</time></trkpt><trkpt lat="44.89670481087292" lon="9.516277767735884"><ele>531.0</ele><time>2026-03-22T11:37:47Z</time></trkpt><trkpt lat="44.89654189615526" lon="9.516302215672175"><ele>531.0</ele><time>2026-03-22T11:37:48Z</time></trkpt><trkpt lat="44.8963767920291" lon="9.516353011188395"><ele>531.0</ele><time>2026-03-22T11:37:49Z</time></trkpt><trkpt lat="44.896224050171824" lon="9.516402858981508"><ele>531.0</ele><time>2026-03-22T11:37:50Z</time></trkpt><trkpt lat="44.8960866410179" lon="9.51644957961017"><ele>531.0</ele><time>2026-03-22T11:37:51Z</time></trkpt><trkpt lat="44.895952743161196" lon="9.516490335257085"><ele>531.0</ele><time>2026-03-22T11:37:52Z</time></trkpt><trkpt lat="44.89581634297596" lon="9.516521045317408"><ele>531.0</ele><time>2026-03-22T11:37:53Z</time></trkpt><trkpt lat="44.895684575359795" lon="9.516541551735619"><ele>531.6</ele><time>2026-03-22T11:37:54Z</time></trkpt><trkpt lat="44.895570906191274" lon="9.516545680551527"><ele>532.2</ele><time>2026-03-22T11:37:55Z</time></trkpt><trkpt lat="44.895466562738676" lon="9.516541084148656"><ele>532.8</ele><time>2026-03-22T11:37:56Z</time></trkpt><trkpt lat="44.89536117985204" lon="9.516530836673898"><ele>533.4</ele><time>2026-03-22T11:37:57Z</time></trkpt><trkpt lat="44.895263232150675" lon="9.516518567622148"><ele>534.0</ele><time>2026-03-22T11:37:58Z</time></trkpt><trkpt lat="44.89516461661745" lon="9.516503373957878"><ele>533.4</ele><time>2026-03-22T11:37:59Z</time></trkpt><trkpt lat="44.89506551745792" lon="9.516487364377863"><ele>532.8</ele><time>2026-03-22T11:38:00Z</time></trkpt><trkpt lat="44.89497118436343" lon="9.516469444788624"><ele>532.2</ele><time>2026-03-22T11:38:01Z</time></trkpt><trkpt lat="44.89488168413861" lon="9.516450418087121"><ele>531.6</ele><time>2026-03-22T11:38:02Z</time></trkpt><trkpt lat="44.894780239517566" lon="9.516425256325174"><ele>531.0</ele><time>2026-03-22T11:38:03Z</time></trkpt><trkpt lat="44.89466992930465" lon="9.516389202830558"><ele>531.0</ele><time>2026-03-22T11:38:04Z</time></trkpt><trkpt lat="44.89457145742687" lon="9.516348350402023"><ele>531.0</ele><time>2026-03-22T11:38:05Z</time></trkpt><trkpt lat="44.89448097238504" lon="9.516307799207887"><ele>531.0</ele><time>2026-03-22T11:38:06Z</time></trkpt><trkpt lat="44.894402480384294" lon="9.516270988763992"><ele>531.0</ele><time>2026-03-22T11:38:07Z</time></trkpt><trkpt lat="44.89432841342811" lon="9.516236253513537"><ele>531.0</ele><time>2026-03-22T11:38:07.999Z</time></trkpt><trkpt lat="44.894262144516496" lon="9.516205175255358"><ele>531.0</ele><time>2026-03-22T11:38:08.999Z</time></trkpt><trkpt lat="44.89419688568529" lon="9.516201018748125"><ele>529.5</ele><time>2026-03-22T11:38:09.999Z</time></trkpt><trkpt lat="44.89408645823386" lon="9.516139311480623"><ele>528.0</ele><time>2026-03-22T11:38:11.999Z</time></trkpt><trkpt lat="44.89401595932841" lon="9.516123205917786"><ele>526.5</ele><time>2026-03-22T11:38:12.999Z</time></trkpt><trkpt lat="44.893901779872586" lon="9.516107080534276"><ele>525.0</ele><time>2026-03-22T11:38:14.999Z</time></trkpt><trkpt lat="44.89394877204314" lon="9.51630778375094"><ele>525.0</ele><time>2026-03-22T11:38:19.999Z</time></trkpt><trkpt lat="44.89408139613519" lon="9.516281179028294"><ele>525.0</ele><time>2026-03-22T11:38:21.999Z</time></trkpt><trkpt lat="44.894161886366646" lon="9.516245458590161"><ele>525.0</ele><time>2026-03-22T11:38:23.999Z</time></trkpt><trkpt lat="44.894223912041426" lon="9.516205566186072"><ele>525.0</ele><time>2026-03-22T11:38:28.998Z</time></trkpt><trkpt lat="44.89433580685519" lon="9.516252607017597"><ele>525.0</ele><time>2026-03-22T11:38:30.998Z</time></trkpt><trkpt lat="44.89440800422627" lon="9.516296598213668"><ele>526.2</ele><time>2026-03-22T11:38:31.998Z</time></trkpt><trkpt lat="44.8944979639076" lon="9.516341860651627"><ele>527.4</ele><time>2026-03-22T11:38:32.998Z</time></trkpt><trkpt lat="44.89462636120736" lon="9.516400501246203"><ele>528.6</ele><time>2026-03-22T11:38:33.998Z</time></trkpt><trkpt lat="44.894723144497355" lon="9.516434894970049"><ele>529.8</ele><time>2026-03-22T11:38:34.998Z</time></trkpt><trkpt lat="44.894823770109916" lon="9.516470755221157"><ele>531.0</ele><time>2026-03-22T11:38:35.998Z</time></trkpt><trkpt lat="44.89493895517121" lon="9.516508001712248"><ele>531.0</ele><time>2026-03-22T11:38:36.998Z</time></trkpt><trkpt lat="44.89504114538383" lon="9.516533044139514"><ele>531.0</ele><time>2026-03-22T11:38:37.998Z</time></trkpt><trkpt lat="44.89512229385797" lon="9.516547996598575"><ele>531.0</ele><time>2026-03-22T11:38:38.998Z</time></trkpt><trkpt lat="44.89520922576345" lon="9.516566144220867"><ele>531.0</ele><time>2026-03-22T11:38:39.998Z</time></trkpt><trkpt lat="44.89530400395748" lon="9.516578251389566"><ele>531.0</ele><time>2026-03-22T11:38:40.998Z</time></trkpt><trkpt lat="44.89540167111867" lon="9.516581983863254"><ele>531.0</ele><time>2026-03-22T11:38:41.998Z</time></trkpt><trkpt lat="44.89548946120851" lon="9.516586432634059"><ele>531.0</ele><time>2026-03-22T11:38:42.998Z</time></trkpt><trkpt lat="44.895571403075536" lon="9.51659199807674"><ele>531.0</ele><time>2026-03-22T11:38:43.998Z</time></trkpt><trkpt lat="44.895647439254816" lon="9.516597451551297"><ele>531.0</ele><time>2026-03-22T11:38:44.998Z</time></trkpt><trkpt lat="44.895733619211256" lon="9.516594624609484"><ele>531.0</ele><time>2026-03-22T11:38:45.998Z</time></trkpt><trkpt lat="44.89584066887578" lon="9.516579364813483"><ele>531.0</ele><time>2026-03-22T11:38:46.998Z</time></trkpt><trkpt lat="44.89595527329591" lon="9.516556854158859"><ele>531.0</ele><time>2026-03-22T11:38:47.998Z</time></trkpt><trkpt lat="44.89607091502609" lon="9.516524917829884"><ele>531.0</ele><time>2026-03-22T11:38:48.998Z</time></trkpt><trkpt lat="44.89616970404852" lon="9.516480736937842"><ele>531.0</ele><time>2026-03-22T11:38:49.998Z</time></trkpt><trkpt lat="44.89624182666951" lon="9.516426859345183"><ele>531.0</ele><time>2026-03-22T11:38:50.997Z</time></trkpt><trkpt lat="44.89618495759113" lon="9.516638992291037"><ele>531.0</ele><time>2026-03-22T11:38:55.997Z</time></trkpt><trkpt lat="44.89615276714808" lon="9.516759975515912"><ele>531.0</ele><time>2026-03-22T11:38:56.997Z</time></trkpt><trkpt lat="44.89611369307028" lon="9.516914486324882"><ele>531.0</ele><time>2026-03-22T11:38:57.997Z</time></trkpt><trkpt lat="44.89607916889243" lon="9.517057846678037"><ele>531.0</ele><time>2026-03-22T11:38:58.997Z</time></trkpt><trkpt lat="44.89605031325527" lon="9.517210151143294"><ele>531.0</ele><time>2026-03-22T11:38:59.997Z</time></trkpt><trkpt lat="44.896045654186146" lon="9.517380183540407"><ele>529.8</ele><time>2026-03-22T11:39:00.997Z</time></trkpt><trkpt lat="44.89605133743208" lon="9.517523732141767"><ele>528.6</ele><time>2026-03-22T11:39:01.997Z</time></trkpt><trkpt lat="44.896048749850664" lon="9.517652225700822"><ele>527.4</ele><time>2026-03-22T11:39:02.997Z</time></trkpt><trkpt lat="44.89604100483975" lon="9.517767675651806"><ele>526.2</ele><time>2026-03-22T11:39:03.997Z</time></trkpt><trkpt lat="44.89599252119682" lon="9.517901450773028"><ele>525.0</ele><time>2026-03-22T11:39:05.997Z</time></trkpt><trkpt lat="44.89587291577708" lon="9.518076618914145"><ele>524.2</ele><time>2026-03-22T11:39:07.997Z</time></trkpt><trkpt lat="44.89579594067344" lon="9.518199414056543"><ele>523.4</ele><time>2026-03-22T11:39:08.997Z</time></trkpt><trkpt lat="44.89572415331272" lon="9.518299463364485"><ele>522.6</ele><time>2026-03-22T11:39:09.997Z</time></trkpt><trkpt lat="44.89565033689192" lon="9.518392792384647"><ele>521.8</ele><time>2026-03-22T11:39:10.997Z</time></trkpt><trkpt lat="44.89558798235132" lon="9.518459330540505"><ele>521.0</ele><time>2026-03-22T11:39:11.997Z</time></trkpt><trkpt lat="44.89552598372527" lon="9.518500342826833"><ele>521.0</ele><time>2026-03-22T11:39:12.997Z</time></trkpt><trkpt lat="44.89543741965985" lon="9.51855677979416"><ele>521.0</ele><time>2026-03-22T11:39:13.997Z</time></trkpt><trkpt lat="44.895340893201" lon="9.51861675352242"><ele>521.0</ele><time>2026-03-22T11:39:14.997Z</time></trkpt><trkpt lat="44.89524707811554" lon="9.518677380972163"><ele>521.0</ele><time>2026-03-22T11:39:15.997Z</time></trkpt><trkpt lat="44.89516189294599" lon="9.518757555361743"><ele>521.0</ele><time>2026-03-22T11:39:16.997Z</time></trkpt><trkpt lat="44.89509080194431" lon="9.51882273074356"><ele>521.0</ele><time>2026-03-22T11:39:17.997Z</time></trkpt><trkpt lat="44.89502226590118" lon="9.518858433419258"><ele>521.0</ele><time>2026-03-22T11:39:18.997Z</time></trkpt><trkpt lat="44.894955604412466" lon="9.518875789638187"><ele>521.0</ele><time>2026-03-22T11:39:19.997Z</time></trkpt><trkpt lat="44.89489375805351" lon="9.518857696748116"><ele>521.0</ele><time>2026-03-22T11:39:20.997Z</time></trkpt><trkpt lat="44.89480458826763" lon="9.518823028502213"><ele>521.0</ele><time>2026-03-22T11:39:22Z</time></trkpt><trkpt lat="44.894695166835604" lon="9.518771335411355"><ele>521.0</ele><time>2026-03-22T11:39:23Z</time></trkpt><trkpt lat="44.89459391427981" lon="9.518710102739492"><ele>521.0</ele><time>2026-03-22T11:39:24Z</time></trkpt><trkpt lat="44.894494290960715" lon="9.51865545389087"><ele>521.0</ele><time>2026-03-22T11:39:25Z</time></trkpt><trkpt lat="44.89439786621589" lon="9.518629694960676"><ele>521.0</ele><time>2026-03-22T11:39:26Z</time></trkpt><trkpt lat="44.89433065727303" lon="9.518570940345262"><ele>521.0</ele><time>2026-03-22T11:39:27Z</time></trkpt><trkpt lat="44.894257746466614" lon="9.518533216245645"><ele>521.0</ele><time>2026-03-22T11:39:28Z</time></trkpt><trkpt lat="44.894185087199155" lon="9.518493258706243"><ele>521.0</ele><time>2026-03-22T11:39:28.999Z</time></trkpt><trkpt lat="44.89411855682473" lon="9.518447052750679"><ele>518.2</ele><time>2026-03-22T11:39:29.999Z</time></trkpt><trkpt lat="44.89405770527657" lon="9.518396841737594"><ele>515.4000000000001</ele><time>2026-03-22T11:39:30.999Z</time></trkpt><trkpt lat="44.89399104316255" lon="9.518255882563452"><ele>512.6</ele><time>2026-03-22T11:39:31.999Z</time></trkpt><trkpt lat="44.89392534951439" lon="9.51812188140524"><ele>509.8</ele><time>2026-03-22T11:39:32.999Z</time></trkpt><trkpt lat="44.893848540170524" lon="9.517999047819364"><ele>507.0</ele><time>2026-03-22T11:39:33.999Z</time></trkpt><trkpt lat="44.893772300605356" lon="9.517928474140186"><ele>507.0</ele><time>2026-03-22T11:39:34.999Z</time></trkpt><trkpt lat="44.89369559168342" lon="9.517889499798615"><ele>507.00000000000006</ele><time>2026-03-22T11:39:35.999Z</time></trkpt><trkpt lat="44.89359724676237" lon="9.517890310706784"><ele>507.00000000000006</ele><time>2026-03-22T11:39:36.999Z</time></trkpt><trkpt lat="44.89349931716829" lon="9.517932594430349"><ele>507.0</ele><time>2026-03-22T11:39:37.999Z</time></trkpt><trkpt lat="44.89342051582945" lon="9.517996853715873"><ele>507.0</ele><time>2026-03-22T11:39:38.999Z</time></trkpt><trkpt lat="44.89330877553658" lon="9.518058036120063"><ele>505.0</ele><time>2026-03-22T11:39:39.999Z</time></trkpt><trkpt lat="44.89321642812873" lon="9.518125967920401"><ele>503.00000000000006</ele><time>2026-03-22T11:39:40.999Z</time></trkpt><trkpt lat="44.89313480765835" lon="9.518181761546565"><ele>501.00000000000006</ele><time>2026-03-22T11:39:41.999Z</time></trkpt><trkpt lat="44.89303676063257" lon="9.518228479671876"><ele>499.0</ele><time>2026-03-22T11:39:42.999Z</time></trkpt><trkpt lat="44.892932622337405" lon="9.518265257307423"><ele>497.0</ele><time>2026-03-22T11:39:43.999Z</time></trkpt><trkpt lat="44.892804454466166" lon="9.518294713322469"><ele>497.0</ele><time>2026-03-22T11:39:44.999Z</time></trkpt><trkpt lat="44.89267448616711" lon="9.518336989313255"><ele>497.0</ele><time>2026-03-22T11:39:45.999Z</time></trkpt><trkpt lat="44.892537367105945" lon="9.518390614599582"><ele>497.0</ele><time>2026-03-22T11:39:46.999Z</time></trkpt><trkpt lat="44.89240156977316" lon="9.518451327829625"><ele>497.0</ele><time>2026-03-22T11:39:47.999Z</time></trkpt><trkpt lat="44.892287545812536" lon="9.518504145322888"><ele>495.5</ele><time>2026-03-22T11:39:48.999Z</time></trkpt><trkpt lat="44.892159201379755" lon="9.518566327942962"><ele>494.0</ele><time>2026-03-22T11:39:49.999Z</time></trkpt><trkpt lat="44.892023993963896" lon="9.51864128036356"><ele>492.5</ele><time>2026-03-22T11:39:50.999Z</time></trkpt><trkpt lat="44.89192836661829" lon="9.518697258575422"><ele>491.0</ele><time>2026-03-22T11:39:51.999Z</time></trkpt><trkpt lat="44.89182033972513" lon="9.518763899175926"><ele>488.8</ele><time>2026-03-22T11:39:52.999Z</time></trkpt><trkpt lat="44.8917163046662" lon="9.518865410021588"><ele>486.6</ele><time>2026-03-22T11:39:53.999Z</time></trkpt><trkpt lat="44.89162955760644" lon="9.518943409357698"><ele>484.4</ele><time>2026-03-22T11:39:54.999Z</time></trkpt><trkpt lat="44.89153677256159" lon="9.5190171248298"><ele>482.2</ele><time>2026-03-22T11:39:55.999Z</time></trkpt><trkpt lat="44.89144456156906" lon="9.519106209236153"><ele>480.0</ele><time>2026-03-22T11:39:56.999Z</time></trkpt><trkpt lat="44.891357161427145" lon="9.519212291300562"><ele>480.0</ele><time>2026-03-22T11:39:57.999Z</time></trkpt><trkpt lat="44.891289562589655" lon="9.519312833130702"><ele>480.0</ele><time>2026-03-22T11:39:58.999Z</time></trkpt><trkpt lat="44.891228192184094" lon="9.51942201671547"><ele>480.0</ele><time>2026-03-22T11:39:59.999Z</time></trkpt><trkpt lat="44.89117645841732" lon="9.519541756170405"><ele>480.0</ele><time>2026-03-22T11:40:00.999Z</time></trkpt><trkpt lat="44.89111508696721" lon="9.519657888397003"><ele>480.0</ele><time>2026-03-22T11:40:01.999Z</time></trkpt><trkpt lat="44.891042498063655" lon="9.51974421565363"><ele>478.2</ele><time>2026-03-22T11:40:02.999Z</time></trkpt><trkpt lat="44.89097715351819" lon="9.519854037801608"><ele>476.4</ele><time>2026-03-22T11:40:03.999Z</time></trkpt><trkpt lat="44.890920381405714" lon="9.520015092284746"><ele>474.6</ele><time>2026-03-22T11:40:04.999Z</time></trkpt><trkpt lat="44.89088059487091" lon="9.520174351371656"><ele>472.8</ele><time>2026-03-22T11:40:05.999Z</time></trkpt><trkpt lat="44.89084714173705" lon="9.520301911041427"><ele>471.0</ele><time>2026-03-22T11:40:06.999Z</time></trkpt><trkpt lat="44.89081103149236" lon="9.520408524968651"><ele>468.6666666666667</ele><time>2026-03-22T11:40:07.999Z</time></trkpt><trkpt lat="44.890766461119114" lon="9.520480090599051"><ele>466.33333333333337</ele><time>2026-03-22T11:40:08.999Z</time></trkpt><trkpt lat="44.89070766968096" lon="9.52056274837043"><ele>464.0</ele><time>2026-03-22T11:40:09.999Z</time></trkpt><trkpt lat="44.89063316916718" lon="9.520631824697727"><ele>461.6666666666667</ele><time>2026-03-22T11:40:10.999Z</time></trkpt><trkpt lat="44.89054486751579" lon="9.520693391051507"><ele>459.33333333333337</ele><time>2026-03-22T11:40:11.999Z</time></trkpt><trkpt lat="44.890464207031435" lon="9.520729985430537"><ele>457.0</ele><time>2026-03-22T11:40:12.999Z</time></trkpt><trkpt lat="44.89039449684433" lon="9.52074729747662"><ele>457.0</ele><time>2026-03-22T11:40:13.999Z</time></trkpt><trkpt lat="44.89030127039841" lon="9.520760320691833"><ele>457.00000000000006</ele><time>2026-03-22T11:40:14.999Z</time></trkpt><trkpt lat="44.890210616391286" lon="9.520778688506113"><ele>457.00000000000006</ele><time>2026-03-22T11:40:15.999Z</time></trkpt><trkpt lat="44.89010287540308" lon="9.520812330865315"><ele>457.0</ele><time>2026-03-22T11:40:16.999Z</time></trkpt><trkpt lat="44.889990657323104" lon="9.520854708039403"><ele>457.0</ele><time>2026-03-22T11:40:17.999Z</time></trkpt><trkpt lat="44.889899831907016" lon="9.520896585820532"><ele>457.0</ele><time>2026-03-22T11:40:18.999Z</time></trkpt><trkpt lat="44.88980427032174" lon="9.520945772306641"><ele>457.00000000000006</ele><time>2026-03-22T11:40:19.999Z</time></trkpt><trkpt lat="44.88970883649254" lon="9.521003647821573"><ele>457.00000000000006</ele><time>2026-03-22T11:40:20.999Z</time></trkpt><trkpt lat="44.88962553397975" lon="9.521073120340505"><ele>457.0</ele><time>2026-03-22T11:40:21.999Z</time></trkpt><trkpt lat="44.88953800514848" lon="9.521127511647917"><ele>457.0</ele><time>2026-03-22T11:40:22.999Z</time></trkpt><trkpt lat="44.8894603015309" lon="9.521155739724861"><ele>457.0</ele><time>2026-03-22T11:40:23.998Z</time></trkpt><trkpt lat="44.8893555934424" lon="9.52113487634483"><ele>457.00000000000006</ele><time>2026-03-22T11:40:25.998Z</time></trkpt><trkpt lat="44.88924694182426" lon="9.521084531927954"><ele>457.00000000000006</ele><time>2026-03-22T11:40:27.998Z</time></trkpt><trkpt lat="44.88915233667031" lon="9.521088005339289"><ele>457.0</ele><time>2026-03-22T11:40:29.998Z</time></trkpt><trkpt lat="44.88911647865023" lon="9.521212932372293"><ele>457.0</ele><time>2026-03-22T11:40:31.998Z</time></trkpt><trkpt lat="44.88914925882879" lon="9.521301939100056"><ele>453.0</ele><time>2026-03-22T11:40:33.998Z</time></trkpt><trkpt lat="44.889209543867935" lon="9.521328782210514"><ele>449.00000000000006</ele><time>2026-03-22T11:40:36.998Z</time></trkpt><trkpt lat="44.88933104023313" lon="9.521409338523691"><ele>445.00000000000006</ele><time>2026-03-22T11:40:40.998Z</time></trkpt><trkpt lat="44.88942351641376" lon="9.521431268817885"><ele>441.0</ele><time>2026-03-22T11:40:41.998Z</time></trkpt><trkpt lat="44.889513671183984" lon="9.521493652845768"><ele>437.0</ele><time>2026-03-22T11:40:42.998Z</time></trkpt><trkpt lat="44.88960192777287" lon="9.521540835178158"><ele>437.0</ele><time>2026-03-22T11:40:43.998Z</time></trkpt><trkpt lat="44.88968205204976" lon="9.521597955970845"><ele>437.00000000000006</ele><time>2026-03-22T11:40:44.998Z</time></trkpt><trkpt lat="44.88975317769991" lon="9.521692972807584"><ele>437.00000000000006</ele><time>2026-03-22T11:40:45.998Z</time></trkpt><trkpt lat="44.88982174566746" lon="9.521809081675915"><ele>437.0</ele><time>2026-03-22T11:40:46.998Z</time></trkpt><trkpt lat="44.88989090745587" lon="9.52193866899037"><ele>437.0</ele><time>2026-03-22T11:40:47.998Z</time></trkpt><trkpt lat="44.88996154412652" lon="9.52206184596172"><ele>434.20000000000005</ele><time>2026-03-22T11:40:48.998Z</time></trkpt><trkpt lat="44.89004159848787" lon="9.522167881673225"><ele>431.40000000000003</ele><time>2026-03-22T11:40:49.998Z</time></trkpt><trkpt lat="44.89012396802147" lon="9.522255296007058"><ele>428.6</ele><time>2026-03-22T11:40:50.998Z</time></trkpt><trkpt lat="44.89023348964228" lon="9.522311232236515"><ele>425.79999999999995</ele><time>2026-03-22T11:40:51.998Z</time></trkpt><trkpt lat="44.89030158328857" lon="9.522373131418162"><ele>423.0</ele><time>2026-03-22T11:40:52.998Z</time></trkpt><trkpt lat="44.890412191419074" lon="9.522416434896401"><ele>423.0</ele><time>2026-03-22T11:40:54.998Z</time></trkpt><trkpt lat="44.89048170608437" lon="9.522422472637963"><ele>423.0</ele><time>2026-03-22T11:40:55.998Z</time></trkpt><trkpt lat="44.8905904647166" lon="9.52243500693668"><ele>423.0</ele><time>2026-03-22T11:40:57.998Z</time></trkpt><trkpt lat="44.89069463123329" lon="9.522442280797472"><ele>423.0</ele><time>2026-03-22T11:40:59.998Z</time></trkpt><trkpt lat="44.89081381911002" lon="9.522461886349133"><ele>423.0</ele><time>2026-03-22T11:41:01.998Z</time></trkpt><trkpt lat="44.89088532870636" lon="9.522480698591675"><ele>423.0</ele><time>2026-03-22T11:41:02.998Z</time></trkpt><trkpt lat="44.890960989695394" lon="9.522541568826933"><ele>423.0</ele><time>2026-03-22T11:41:03.998Z</time></trkpt><trkpt lat="44.89105688335866" lon="9.522632740076537"><ele>423.0</ele><time>2026-03-22T11:41:05.998Z</time></trkpt><trkpt lat="44.891105355473115" lon="9.522752201808272"><ele>423.0</ele><time>2026-03-22T11:41:07.997Z</time></trkpt><trkpt lat="44.89108575388342" lon="9.522852100504686"><ele>423.0</ele><time>2026-03-22T11:41:09.997Z</time></trkpt><trkpt lat="44.89101156479757" lon="9.522866587698836"><ele>423.0</ele><time>2026-03-22T11:41:12.997Z</time></trkpt><trkpt lat="44.89092155734853" lon="9.522836217441888"><ele>423.0</ele><time>2026-03-22T11:41:14.997Z</time></trkpt><trkpt lat="44.8908056424032" lon="9.522799138789612"><ele>423.0</ele><time>2026-03-22T11:41:16.997Z</time></trkpt><trkpt lat="44.89070065208104" lon="9.522736094892664"><ele>423.0</ele><time>2026-03-22T11:41:18.997Z</time></trkpt><trkpt lat="44.89055363243235" lon="9.522739020687611"><ele>423.0</ele><time>2026-03-22T11:41:20.997Z</time></trkpt><trkpt lat="44.89048366712853" lon="9.522781992404218"><ele>423.0</ele><time>2026-03-22T11:41:21.997Z</time></trkpt><trkpt lat="44.89040710039065" lon="9.52285178541331"><ele>423.0</ele><time>2026-03-22T11:41:22.997Z</time></trkpt><trkpt lat="44.8903128197695" lon="9.522950992965786"><ele>423.0</ele><time>2026-03-22T11:41:23.997Z</time></trkpt><trkpt lat="44.89021037224982" lon="9.523063301080196"><ele>423.0</ele><time>2026-03-22T11:41:24.997Z</time></trkpt><trkpt lat="44.89012754305815" lon="9.523149397491004"><ele>423.0</ele><time>2026-03-22T11:41:25.997Z</time></trkpt><trkpt lat="44.8900312173744" lon="9.523217172095226"><ele>419.79999999999995</ele><time>2026-03-22T11:41:26.997Z</time></trkpt><trkpt lat="44.88992236162607" lon="9.523278744474347"><ele>416.6</ele><time>2026-03-22T11:41:28Z</time></trkpt><trkpt lat="44.88981093416119" lon="9.523338092090787"><ele>413.4</ele><time>2026-03-22T11:41:29Z</time></trkpt><trkpt lat="44.88971260203273" lon="9.523383892019071"><ele>410.20000000000005</ele><time>2026-03-22T11:41:30Z</time></trkpt><trkpt lat="44.88962774865541" lon="9.523411420932597"><ele>407.0</ele><time>2026-03-22T11:41:31Z</time></trkpt><trkpt lat="44.88954059318305" lon="9.5234225555869"><ele>407.0</ele><time>2026-03-22T11:41:32Z</time></trkpt><trkpt lat="44.88942350529207" lon="9.52340772133511"><ele>407.0</ele><time>2026-03-22T11:41:33Z</time></trkpt><trkpt lat="44.88930983020957" lon="9.52340488275774"><ele>407.0</ele><time>2026-03-22T11:41:34Z</time></trkpt><trkpt lat="44.88921267809298" lon="9.52341104307548"><ele>407.0</ele><time>2026-03-22T11:41:35Z</time></trkpt><trkpt lat="44.88913186703852" lon="9.523429601384983"><ele>407.0</ele><time>2026-03-22T11:41:36Z</time></trkpt><trkpt lat="44.8890503636329" lon="9.523460439918741"><ele>406.8</ele><time>2026-03-22T11:41:37Z</time></trkpt><trkpt lat="44.88896760138129" lon="9.523534703202397"><ele>406.6</ele><time>2026-03-22T11:41:38Z</time></trkpt><trkpt lat="44.88890477925474" lon="9.523642188378862"><ele>406.40000000000003</ele><time>2026-03-22T11:41:39Z</time></trkpt><trkpt lat="44.8888466436241" lon="9.523733226471832"><ele>406.20000000000005</ele><time>2026-03-22T11:41:40Z</time></trkpt><trkpt lat="44.88876712398493" lon="9.523751298859295"><ele>406.0</ele><time>2026-03-22T11:41:42Z</time></trkpt><trkpt lat="44.888672587319135" lon="9.523755558496772"><ele>406.0</ele><time>2026-03-22T11:41:43Z</time></trkpt><trkpt lat="44.88859200873729" lon="9.523720113307835"><ele>406.0</ele><time>2026-03-22T11:41:44Z</time></trkpt><trkpt lat="44.88852868827198" lon="9.523715338570298"><ele>406.0</ele><time>2026-03-22T11:41:45Z</time></trkpt><trkpt lat="44.88841014702151" lon="9.523751734143634"><ele>406.0</ele><time>2026-03-22T11:41:47Z</time></trkpt><trkpt lat="44.88836367545939" lon="9.523841245010829"><ele>406.0</ele><time>2026-03-22T11:41:48Z</time></trkpt><trkpt lat="44.88837036636147" lon="9.524011925467647"><ele>404.50000000000006</ele><time>2026-03-22T11:41:49Z</time></trkpt><trkpt lat="44.88841725650149" lon="9.52416337592701"><ele>403.0</ele><time>2026-03-22T11:41:50Z</time></trkpt><trkpt lat="44.8884542336103" lon="9.524271768427258"><ele>401.5</ele><time>2026-03-22T11:41:51Z</time></trkpt><trkpt lat="44.88850597629679" lon="9.524402731536018"><ele>400.0</ele><time>2026-03-22T11:41:52Z</time></trkpt><trkpt lat="44.88852558554812" lon="9.52449038763441"><ele>398.50000000000006</ele><time>2026-03-22T11:41:53Z</time></trkpt><trkpt lat="44.888504785445484" lon="9.524589529103464"><ele>397.0</ele><time>2026-03-22T11:41:55Z</time></trkpt><trkpt lat="44.88841681998831" lon="9.524724124774925"><ele>395.0</ele><time>2026-03-22T11:41:57Z</time></trkpt><trkpt lat="44.888368466263515" lon="9.524829464110294"><ele>393.0</ele><time>2026-03-22T11:41:58Z</time></trkpt><trkpt lat="44.88835612347247" lon="9.525004258912016"><ele>391.0</ele><time>2026-03-22T11:41:59Z</time></trkpt><trkpt lat="44.888418990160915" lon="9.525168099333408"><ele>389.0</ele><time>2026-03-22T11:41:59.999Z</time></trkpt><trkpt lat="44.88847804907709" lon="9.525302889069469"><ele>383.6</ele><time>2026-03-22T11:42:00.999Z</time></trkpt><trkpt lat="44.888582614067204" lon="9.525427039096318"><ele>378.2</ele><time>2026-03-22T11:42:01.999Z</time></trkpt><trkpt lat="44.8886521019786" lon="9.525511935312283"><ele>372.8</ele><time>2026-03-22T11:42:02.999Z</time></trkpt><trkpt lat="44.8887024373021" lon="9.525587437717105"><ele>367.40000000000003</ele><time>2026-03-22T11:42:03.999Z</time></trkpt><trkpt lat="44.88871069165913" lon="9.525693597660041"><ele>362.0</ele><time>2026-03-22T11:42:05.999Z</time></trkpt><trkpt lat="44.88864531541621" lon="9.525827493023806"><ele>362.0</ele><time>2026-03-22T11:42:07.999Z</time></trkpt><trkpt lat="44.888583139195276" lon="9.525934898939685"><ele>362.0</ele><time>2026-03-22T11:42:08.999Z</time></trkpt><trkpt lat="44.888533056111406" lon="9.52603179559134"><ele>362.0</ele><time>2026-03-22T11:42:09.999Z</time></trkpt><trkpt lat="44.88850668996946" lon="9.526118140217829"><ele>362.0</ele><time>2026-03-22T11:42:10.999Z</time></trkpt><trkpt lat="44.88850526077964" lon="9.526295402426006"><ele>362.0</ele><time>2026-03-22T11:42:11.999Z</time></trkpt><trkpt lat="44.88859558548262" lon="9.526446004309609"><ele>360.8</ele><time>2026-03-22T11:42:12.999Z</time></trkpt><trkpt lat="44.88864866795021" lon="9.52657040795459"><ele>359.6</ele><time>2026-03-22T11:42:13.999Z</time></trkpt><trkpt lat="44.888683106152165" lon="9.526665274805964"><ele>358.40000000000003</ele><time>2026-03-22T11:42:14.999Z</time></trkpt><trkpt lat="44.888689866991434" lon="9.52681456857699"><ele>357.20000000000005</ele><time>2026-03-22T11:42:16.999Z</time></trkpt><trkpt lat="44.88861650761269" lon="9.526973390008122"><ele>356.0</ele><time>2026-03-22T11:42:18.999Z</time></trkpt><trkpt lat="44.88853610332909" lon="9.527115750244567"><ele>352.6666666666667</ele><time>2026-03-22T11:42:19.999Z</time></trkpt><trkpt lat="44.88843593576465" lon="9.527291667881546"><ele>349.3333333333333</ele><time>2026-03-22T11:42:20.999Z</time></trkpt><trkpt lat="44.88832952219045" lon="9.527510657486081"><ele>346.0</ele><time>2026-03-22T11:42:21.999Z</time></trkpt><trkpt lat="44.88822917336662" lon="9.527755996290567"><ele>348.6</ele><time>2026-03-22T11:42:22.999Z</time></trkpt><trkpt lat="44.88817011608279" lon="9.527946625536831"><ele>351.20000000000005</ele><time>2026-03-22T11:42:23.999Z</time></trkpt><trkpt lat="44.88812373890503" lon="9.528102379178097"><ele>353.79999999999995</ele><time>2026-03-22T11:42:24.999Z</time></trkpt><trkpt lat="44.888089420315175" lon="9.52823216326424"><ele>356.4</ele><time>2026-03-22T11:42:25.999Z</time></trkpt><trkpt lat="44.888055200698474" lon="9.528334280835594"><ele>359.0</ele><time>2026-03-22T11:42:26.999Z</time></trkpt><trkpt lat="44.888015594530025" lon="9.528427980956211"><ele>359.0</ele><time>2026-03-22T11:42:27.999Z</time></trkpt><trkpt lat="44.88793375276033" lon="9.52851586904613"><ele>359.0</ele><time>2026-03-22T11:42:29.999Z</time></trkpt><trkpt lat="44.887864497585895" lon="9.52852588263358"><ele>359.0</ele><time>2026-03-22T11:42:31.999Z</time></trkpt><trkpt lat="44.887797976251484" lon="9.52851994868669"><ele>359.0</ele><time>2026-03-22T11:42:43.998Z</time></trkpt><trkpt lat="44.88772895298046" lon="9.528496848296511"><ele>359.0</ele><time>2026-03-22T11:42:44.998Z</time></trkpt><trkpt lat="44.88763730784118" lon="9.528488765436485"><ele>359.0</ele><time>2026-03-22T11:42:45.998Z</time></trkpt><trkpt lat="44.887563127805294" lon="9.528486458416703"><ele>359.0</ele><time>2026-03-22T11:42:46.998Z</time></trkpt><trkpt lat="44.887473142097285" lon="9.528505703843575"><ele>359.0</ele><time>2026-03-22T11:42:47.998Z</time></trkpt><trkpt lat="44.88737317579393" lon="9.528548031968285"><ele>359.0</ele><time>2026-03-22T11:42:48.998Z</time></trkpt><trkpt lat="44.88723604421359" lon="9.528644073022676"><ele>359.0</ele><time>2026-03-22T11:42:49.998Z</time></trkpt><trkpt lat="44.88709514714894" lon="9.528747557252293"><ele>359.0</ele><time>2026-03-22T11:42:50.998Z</time></trkpt><trkpt lat="44.88697336628136" lon="9.528826960873328"><ele>359.0</ele><time>2026-03-22T11:42:51.998Z</time></trkpt><trkpt lat="44.88687021444497" lon="9.528885579008936"><ele>359.0</ele><time>2026-03-22T11:42:52.998Z</time></trkpt><trkpt lat="44.88677577151605" lon="9.528925837983754"><ele>359.0</ele><time>2026-03-22T11:42:53.998Z</time></trkpt><trkpt lat="44.88666495837021" lon="9.528933800474217"><ele>361.0</ele><time>2026-03-22T11:42:54.998Z</time></trkpt><trkpt lat="44.88653192456782" lon="9.528933886663026"><ele>363.0</ele><time>2026-03-22T11:42:55.998Z</time></trkpt><trkpt lat="44.88638492374061" lon="9.528919068827024"><ele>365.0</ele><time>2026-03-22T11:42:56.998Z</time></trkpt><trkpt lat="44.886267043063484" lon="9.528896420012124"><ele>367.0</ele><time>2026-03-22T11:42:57.998Z</time></trkpt><trkpt lat="44.88617919302293" lon="9.528878307933619"><ele>367.0</ele><time>2026-03-22T11:42:58.998Z</time></trkpt><trkpt lat="44.886106464610435" lon="9.528871457041518"><ele>367.0</ele><time>2026-03-22T11:42:59.998Z</time></trkpt><trkpt lat="44.88597992005134" lon="9.528846130370905"><ele>367.0</ele><time>2026-03-22T11:43:01.998Z</time></trkpt><trkpt lat="44.88590161506124" lon="9.528840330960952"><ele>367.0</ele><time>2026-03-22T11:43:02.998Z</time></trkpt><trkpt lat="44.885813231121595" lon="9.528843146869582"><ele>367.0</ele><time>2026-03-22T11:43:03.998Z</time></trkpt><trkpt lat="44.88573732466945" lon="9.528869250911868"><ele>367.0</ele><time>2026-03-22T11:43:04.998Z</time></trkpt><trkpt lat="44.885670878771876" lon="9.52893199430241"><ele>366.75</ele><time>2026-03-22T11:43:05.998Z</time></trkpt><trkpt lat="44.88562057642772" lon="9.529053621314688"><ele>366.5</ele><time>2026-03-22T11:43:06.998Z</time></trkpt><trkpt lat="44.885623507612884" lon="9.529225218830192"><ele>366.25</ele><time>2026-03-22T11:43:07.998Z</time></trkpt><trkpt lat="44.885600887647506" lon="9.529412348089776"><ele>366.0</ele><time>2026-03-22T11:43:08.998Z</time></trkpt><trkpt lat="44.88556879880044" lon="9.529563803259869"><ele>366.0</ele><time>2026-03-22T11:43:09.998Z</time></trkpt><trkpt lat="44.88550865195231" lon="9.52963986960999"><ele>366.0</ele><time>2026-03-22T11:43:10.998Z</time></trkpt><trkpt lat="44.885427375242564" lon="9.529771259074044"><ele>366.0</ele><time>2026-03-22T11:43:11.998Z</time></trkpt><trkpt lat="44.88534128712589" lon="9.529891165338963"><ele>366.0</ele><time>2026-03-22T11:43:12.998Z</time></trkpt><trkpt lat="44.88527326835066" lon="9.52997141219794"><ele>366.0</ele><time>2026-03-22T11:43:13.998Z</time></trkpt><trkpt lat="44.88519152425641" lon="9.530036421302304"><ele>370.75</ele><time>2026-03-22T11:43:14.998Z</time></trkpt><trkpt lat="44.885088020110004" lon="9.530100425210986"><ele>375.5</ele><time>2026-03-22T11:43:15.998Z</time></trkpt><trkpt lat="44.884966568218495" lon="9.530159941159429"><ele>380.25</ele><time>2026-03-22T11:43:16.998Z</time></trkpt><trkpt lat="44.8848394970361" lon="9.530194225259502"><ele>385.0</ele><time>2026-03-22T11:43:17.998Z</time></trkpt><trkpt lat="44.88475323201814" lon="9.530208910504047"><ele>385.0</ele><time>2026-03-22T11:43:18.998Z</time></trkpt><trkpt lat="44.884666802787464" lon="9.530222478648597"><ele>385.0</ele><time>2026-03-22T11:43:19.998Z</time></trkpt><trkpt lat="44.88455628747205" lon="9.530233146883159"><ele>385.0</ele><time>2026-03-22T11:43:20.998Z</time></trkpt><trkpt lat="44.88445306892189" lon="9.530240114681552"><ele>385.0</ele><time>2026-03-22T11:43:21.998Z</time></trkpt><trkpt lat="44.884336913942185" lon="9.530247239665428"><ele>385.0</ele><time>2026-03-22T11:43:22.998Z</time></trkpt><trkpt lat="44.88423011156872" lon="9.530253787771192"><ele>386.6</ele><time>2026-03-22T11:43:23.998Z</time></trkpt><trkpt lat="44.88411474161353" lon="9.530269443697698"><ele>388.2</ele><time>2026-03-22T11:43:24.997Z</time></trkpt><trkpt lat="44.88400918183986" lon="9.530292464142377"><ele>389.79999999999995</ele><time>2026-03-22T11:43:25.997Z</time></trkpt><trkpt lat="44.883909050722046" lon="9.530317752837"><ele>391.4</ele><time>2026-03-22T11:43:26.997Z</time></trkpt><trkpt lat="44.88380643959112" lon="9.530343188313031"><ele>393.0</ele><time>2026-03-22T11:43:27.997Z</time></trkpt><trkpt lat="44.88368841848743" lon="9.530362946296956"><ele>393.0</ele><time>2026-03-22T11:43:28.997Z</time></trkpt><trkpt lat="44.88357276989896" lon="9.530370723524303"><ele>393.0</ele><time>2026-03-22T11:43:29.997Z</time></trkpt><trkpt lat="44.883430762566675" lon="9.53038164797321"><ele>393.0</ele><time>2026-03-22T11:43:30.997Z</time></trkpt><trkpt lat="44.883293401898214" lon="9.530393506720957"><ele>393.0</ele><time>2026-03-22T11:43:31.997Z</time></trkpt><trkpt lat="44.88316741527281" lon="9.530382138482748"><ele>392.66666666666663</ele><time>2026-03-22T11:43:32.997Z</time></trkpt><trkpt lat="44.88298217977152" lon="9.530357170349253"><ele>392.3333333333333</ele><time>2026-03-22T11:43:34Z</time></trkpt><trkpt lat="44.882818801934434" lon="9.530335415615593"><ele>392.0</ele><time>2026-03-22T11:43:35Z</time></trkpt><trkpt lat="44.88269316974918" lon="9.530319561440422"><ele>393.5</ele><time>2026-03-22T11:43:36Z</time></trkpt><trkpt lat="44.882578099684544" lon="9.530325669711672"><ele>395.0</ele><time>2026-03-22T11:43:37Z</time></trkpt><trkpt lat="44.88242560145978" lon="9.530372568943708"><ele>396.5</ele><time>2026-03-22T11:43:38Z</time></trkpt><trkpt lat="44.88229788254924" lon="9.530423978825125"><ele>398.0</ele><time>2026-03-22T11:43:39Z</time></trkpt><trkpt lat="44.88218536620418" lon="9.530479600611633"><ele>395.4</ele><time>2026-03-22T11:43:40Z</time></trkpt><trkpt lat="44.882085648642764" lon="9.530550254699076"><ele>392.79999999999995</ele><time>2026-03-22T11:43:41Z</time></trkpt><trkpt lat="44.88200606220539" lon="9.530659647017771"><ele>390.2</ele><time>2026-03-22T11:43:42Z</time></trkpt><trkpt lat="44.88197239174727" lon="9.530813566275347"><ele>387.6</ele><time>2026-03-22T11:43:43Z</time></trkpt><trkpt lat="44.881956118993855" lon="9.530948471572547"><ele>385.0</ele><time>2026-03-22T11:43:44Z</time></trkpt><trkpt lat="44.8819414013886" lon="9.53107184497909"><ele>385.0</ele><time>2026-03-22T11:43:45Z</time></trkpt><trkpt lat="44.88187519172576" lon="9.53114226954501"><ele>385.0</ele><time>2026-03-22T11:43:47Z</time></trkpt><trkpt lat="44.88180434262688" lon="9.531235734390473"><ele>385.0</ele><time>2026-03-22T11:43:48Z</time></trkpt><trkpt lat="44.88173987471499" lon="9.531395185737367"><ele>385.0</ele><time>2026-03-22T11:43:49Z</time></trkpt><trkpt lat="44.88168130866565" lon="9.531497714008811"><ele>385.0</ele><time>2026-03-22T11:43:50Z</time></trkpt><trkpt lat="44.88161122300805" lon="9.531559827534215"><ele>385.75</ele><time>2026-03-22T11:44:07Z</time></trkpt><trkpt lat="44.88150501184799" lon="9.531469653626342"><ele>386.5</ele><time>2026-03-22T11:44:09Z</time></trkpt><trkpt lat="44.88157579384867" lon="9.531274993222453"><ele>387.25</ele><time>2026-03-22T11:44:13Z</time></trkpt><trkpt lat="44.88163873392997" lon="9.531172899463222"><ele>388.0</ele><time>2026-03-22T11:44:14Z</time></trkpt><trkpt lat="44.88170293852704" lon="9.531087012184734"><ele>387.50000000000006</ele><time>2026-03-22T11:44:15Z</time></trkpt><trkpt lat="44.881746999904166" lon="9.531006377014748"><ele>387.0</ele><time>2026-03-22T11:44:16Z</time></trkpt><trkpt lat="44.881780592446205" lon="9.530920667739315"><ele>386.5</ele><time>2026-03-22T11:44:16.999Z</time></trkpt><trkpt lat="44.881800191310305" lon="9.530835329552696"><ele>386.0</ele><time>2026-03-22T11:44:17.999Z</time></trkpt><trkpt lat="44.88180761410362" lon="9.530719538727773"><ele>385.50000000000006</ele><time>2026-03-22T11:44:18.999Z</time></trkpt><trkpt lat="44.88179607028968" lon="9.530535852294179"><ele>385.0</ele><time>2026-03-22T11:44:19.999Z</time></trkpt><trkpt lat="44.881817384517376" lon="9.530379540391863"><ele>388.25</ele><time>2026-03-22T11:44:20.999Z</time></trkpt><trkpt lat="44.881831451649" lon="9.530274724940352"><ele>391.5</ele><time>2026-03-22T11:44:21.999Z</time></trkpt><trkpt lat="44.88188804921201" lon="9.530119120056638"><ele>394.75</ele><time>2026-03-22T11:44:22.999Z</time></trkpt><trkpt lat="44.88196305406536" lon="9.529955429045634"><ele>398.0</ele><time>2026-03-22T11:44:23.999Z</time></trkpt><trkpt lat="44.88205716033481" lon="9.529787893917355"><ele>398.0</ele><time>2026-03-22T11:44:24.999Z</time></trkpt><trkpt lat="44.882142411029875" lon="9.529614695878907"><ele>398.0</ele><time>2026-03-22T11:44:25.999Z</time></trkpt><trkpt lat="44.88223534886762" lon="9.52940065347384"><ele>398.0</ele><time>2026-03-22T11:44:26.999Z</time></trkpt><trkpt lat="44.88233269983493" lon="9.529185865505237"><ele>401.25</ele><time>2026-03-22T11:44:27.999Z</time></trkpt><trkpt lat="44.88242359591466" lon="9.528993423127128"><ele>404.5</ele><time>2026-03-22T11:44:28.999Z</time></trkpt><trkpt lat="44.88251519086583" lon="9.528851822651957"><ele>407.75</ele><time>2026-03-22T11:44:29.999Z</time></trkpt><trkpt lat="44.88264332177865" lon="9.52874806694571"><ele>411.0</ele><time>2026-03-22T11:44:30.999Z</time></trkpt><trkpt lat="44.882735760699966" lon="9.52863660098682"><ele>415.25</ele><time>2026-03-22T11:44:31.999Z</time></trkpt><trkpt lat="44.882794698907475" lon="9.52853014535879"><ele>419.5</ele><time>2026-03-22T11:44:32.999Z</time></trkpt><trkpt lat="44.88286594963701" lon="9.52839213726818"><ele>423.75</ele><time>2026-03-22T11:44:33.999Z</time></trkpt><trkpt lat="44.882959502853105" lon="9.528197405774659"><ele>428.0</ele><time>2026-03-22T11:44:34.999Z</time></trkpt><trkpt lat="44.88308955750129" lon="9.527985140533392"><ele>432.0</ele><time>2026-03-22T11:44:35.999Z</time></trkpt><trkpt lat="44.8831976487841" lon="9.527764088429276"><ele>436.0</ele><time>2026-03-22T11:44:36.999Z</time></trkpt><trkpt lat="44.88329457122076" lon="9.527631055538789"><ele>440.0</ele><time>2026-03-22T11:44:37.999Z</time></trkpt><trkpt lat="44.883415732069395" lon="9.527509880933298"><ele>439.66666666666663</ele><time>2026-03-22T11:44:38.999Z</time></trkpt><trkpt lat="44.883524533291826" lon="9.52741989157253"><ele>439.3333333333333</ele><time>2026-03-22T11:44:39.999Z</time></trkpt><trkpt lat="44.883608128546435" lon="9.52737584513205"><ele>439.0</ele><time>2026-03-22T11:44:40.999Z</time></trkpt><trkpt lat="44.88365642458952" lon="9.527297472630613"><ele>438.66666666666663</ele><time>2026-03-22T11:44:41.999Z</time></trkpt><trkpt lat="44.88369892503958" lon="9.527209741148486"><ele>438.3333333333333</ele><time>2026-03-22T11:44:42.999Z</time></trkpt><trkpt lat="44.88371021352891" lon="9.527106952896569"><ele>438.0</ele><time>2026-03-22T11:44:43.999Z</time></trkpt><trkpt lat="44.883693992161305" lon="9.52699954191545"><ele>438.0</ele><time>2026-03-22T11:44:44.999Z</time></trkpt><trkpt lat="44.88368669935066" lon="9.526810676249672"><ele>438.0</ele><time>2026-03-22T11:44:45.999Z</time></trkpt><trkpt lat="44.88371627990477" lon="9.526601719305894"><ele>438.0</ele><time>2026-03-22T11:44:46.999Z</time></trkpt><trkpt lat="44.88375757156269" lon="9.526434401173242"><ele>438.0</ele><time>2026-03-22T11:44:47.999Z</time></trkpt><trkpt lat="44.883816904962586" lon="9.526260166821448"><ele>441.5</ele><time>2026-03-22T11:44:48.999Z</time></trkpt><trkpt lat="44.88390233693251" lon="9.526081968352543"><ele>445.0</ele><time>2026-03-22T11:44:49.999Z</time></trkpt><trkpt lat="44.88398980971113" lon="9.525927112498193"><ele>448.5</ele><time>2026-03-22T11:44:50.999Z</time></trkpt><trkpt lat="44.88410669384693" lon="9.525782847390136"><ele>452.0</ele><time>2026-03-22T11:44:51.999Z</time></trkpt><trkpt lat="44.88422549001366" lon="9.525656703052361"><ele>450.8333333333333</ele><time>2026-03-22T11:44:52.999Z</time></trkpt><trkpt lat="44.88430526091524" lon="9.525567294389255"><ele>449.66666666666663</ele><time>2026-03-22T11:44:53.999Z</time></trkpt><trkpt lat="44.88433291738816" lon="9.525464875368218"><ele>448.5</ele><time>2026-03-22T11:44:54.999Z</time></trkpt><trkpt lat="44.88436382638998" lon="9.52536823530491"><ele>447.33333333333337</ele><time>2026-03-22T11:44:55.999Z</time></trkpt><trkpt lat="44.884387463079996" lon="9.525239146907126"><ele>446.1666666666667</ele><time>2026-03-22T11:44:56.999Z</time></trkpt><trkpt lat="44.884393044505615" lon="9.525109654516147"><ele>445.0</ele><time>2026-03-22T11:44:57.999Z</time></trkpt><trkpt lat="44.884396039181645" lon="9.524955166911548"><ele>447.8</ele><time>2026-03-22T11:44:58.999Z</time></trkpt><trkpt lat="44.884415865706835" lon="9.524843287832715"><ele>450.6</ele><time>2026-03-22T11:44:59.998Z</time></trkpt><trkpt lat="44.88444443284964" lon="9.524736315791033"><ele>453.4</ele><time>2026-03-22T11:45:00.998Z</time></trkpt><trkpt lat="44.88450563488672" lon="9.524606834954938"><ele>456.2</ele><time>2026-03-22T11:45:01.998Z</time></trkpt><trkpt lat="44.88458315928285" lon="9.524455755982043"><ele>459.0</ele><time>2026-03-22T11:45:02.998Z</time></trkpt><trkpt lat="44.8846718430832" lon="9.524279879511544"><ele>461.0</ele><time>2026-03-22T11:45:03.998Z</time></trkpt><trkpt lat="44.88473981576665" lon="9.524048850581549"><ele>463.0</ele><time>2026-03-22T11:45:04.998Z</time></trkpt><trkpt lat="44.88481362635677" lon="9.523881309816447"><ele>465.0</ele><time>2026-03-22T11:45:05.998Z</time></trkpt><trkpt lat="44.884879766097875" lon="9.523739462109987"><ele>467.0</ele><time>2026-03-22T11:45:06.998Z</time></trkpt><trkpt lat="44.88497100356679" lon="9.523559573673626"><ele>468.3333333333333</ele><time>2026-03-22T11:45:07.998Z</time></trkpt><trkpt lat="44.885056254612465" lon="9.523357240040612"><ele>469.66666666666663</ele><time>2026-03-22T11:45:08.998Z</time></trkpt><trkpt lat="44.8851486610183" lon="9.523100732915838"><ele>471.0</ele><time>2026-03-22T11:45:09.998Z</time></trkpt><trkpt lat="44.88525032939067" lon="9.522861820856845"><ele>471.0</ele><time>2026-03-22T11:45:10.998Z</time></trkpt><trkpt lat="44.885339435552375" lon="9.522661989798555"><ele>471.0</ele><time>2026-03-22T11:45:11.998Z</time></trkpt><trkpt lat="44.88543331827195" lon="9.522478880679575"><ele>471.0</ele><time>2026-03-22T11:45:12.998Z</time></trkpt><trkpt lat="44.88550590015305" lon="9.522331397725896"><ele>471.0</ele><time>2026-03-22T11:45:13.998Z</time></trkpt><trkpt lat="44.88556598169432" lon="9.522219200742297"><ele>471.0</ele><time>2026-03-22T11:45:14.998Z</time></trkpt><trkpt lat="44.88559882805465" lon="9.522101633017087"><ele>471.0</ele><time>2026-03-22T11:45:15.998Z</time></trkpt><trkpt lat="44.885626115267826" lon="9.522012442717596"><ele>471.0</ele><time>2026-03-22T11:45:16.998Z</time></trkpt><trkpt lat="44.885639222904906" lon="9.521916611862324"><ele>471.0</ele><time>2026-03-22T11:45:17.998Z</time></trkpt><trkpt lat="44.885610598719495" lon="9.521749172332196"><ele>471.0</ele><time>2026-03-22T11:45:19.998Z</time></trkpt><trkpt lat="44.885578421693914" lon="9.521625168564208"><ele>473.75</ele><time>2026-03-22T11:45:20.998Z</time></trkpt><trkpt lat="44.885551158978394" lon="9.521454363919421"><ele>476.5</ele><time>2026-03-22T11:45:21.998Z</time></trkpt><trkpt lat="44.88553119666996" lon="9.52129651182454"><ele>479.25</ele><time>2026-03-22T11:45:22.998Z</time></trkpt><trkpt lat="44.88554551491378" lon="9.521063672477883"><ele>482.0</ele><time>2026-03-22T11:45:23.998Z</time></trkpt><trkpt lat="44.885564115203316" lon="9.52087949821662"><ele>484.20000000000005</ele><time>2026-03-22T11:45:24.998Z</time></trkpt><trkpt lat="44.88558865402334" lon="9.520708182071068"><ele>486.40000000000003</ele><time>2026-03-22T11:45:25.998Z</time></trkpt><trkpt lat="44.88561418504039" lon="9.52055811628325"><ele>488.59999999999997</ele><time>2026-03-22T11:45:26.998Z</time></trkpt><trkpt lat="44.88563742820182" lon="9.520395719120849"><ele>490.79999999999995</ele><time>2026-03-22T11:45:27.997Z</time></trkpt><trkpt lat="44.88566921410579" lon="9.520267340582114"><ele>493.0</ele><time>2026-03-22T11:45:28.997Z</time></trkpt><trkpt lat="44.885694380886335" lon="9.52015143027326"><ele>495.75</ele><time>2026-03-22T11:45:29.997Z</time></trkpt><trkpt lat="44.885677460316025" lon="9.519970607907982"><ele>498.5</ele><time>2026-03-22T11:45:31.997Z</time></trkpt><trkpt lat="44.88561542280778" lon="9.519878544076631"><ele>501.25</ele><time>2026-03-22T11:45:32.997Z</time></trkpt><trkpt lat="44.885526660899025" lon="9.519776664869967"><ele>504.0</ele><time>2026-03-22T11:45:33.997Z</time></trkpt><trkpt lat="44.88542497920445" lon="9.519675287322757"><ele>504.0</ele><time>2026-03-22T11:45:34.997Z</time></trkpt><trkpt lat="44.88537261872762" lon="9.519599846982763"><ele>504.0</ele><time>2026-03-22T11:45:35.997Z</time></trkpt><trkpt lat="44.885398784580005" lon="9.51948937615258"><ele>504.0</ele><time>2026-03-22T11:45:37.997Z</time></trkpt><trkpt lat="44.885508834589444" lon="9.519381869922947"><ele>504.0</ele><time>2026-03-22T11:45:40Z</time></trkpt><trkpt lat="44.88558236783373" lon="9.51935521562969"><ele>504.0</ele><time>2026-03-22T11:45:40.999Z</time></trkpt><trkpt lat="44.8856576660591" lon="9.51920798574675"><ele>506.79999999999995</ele><time>2026-03-22T11:45:43Z</time></trkpt><trkpt lat="44.88566070323319" lon="9.519089716396419"><ele>509.59999999999997</ele><time>2026-03-22T11:45:44Z</time></trkpt><trkpt lat="44.88562667494365" lon="9.518995588995615"><ele>512.4</ele><time>2026-03-22T11:45:45Z</time></trkpt><trkpt lat="44.88557363256385" lon="9.518856450436678"><ele>515.1999999999999</ele><time>2026-03-22T11:45:46Z</time></trkpt><trkpt lat="44.885526125016355" lon="9.51870454245852"><ele>518.0</ele><time>2026-03-22T11:45:47Z</time></trkpt><trkpt lat="44.88548047743963" lon="9.51857485981091"><ele>520.0</ele><time>2026-03-22T11:45:48Z</time></trkpt><trkpt lat="44.88542657881251" lon="9.518415609539195"><ele>522.0</ele><time>2026-03-22T11:45:49Z</time></trkpt><trkpt lat="44.88538184953031" lon="9.51826789321798"><ele>524.0</ele><time>2026-03-22T11:45:50Z</time></trkpt><trkpt lat="44.885375739439645" lon="9.518141251280772"><ele>526.0</ele><time>2026-03-22T11:45:51Z</time></trkpt><trkpt lat="44.88537446155732" lon="9.518033387781353"><ele>528.0</ele><time>2026-03-22T11:45:53Z</time></trkpt><trkpt lat="44.88531759823595" lon="9.51789030617621"><ele>530.0</ele><time>2026-03-22T11:45:54Z</time></trkpt><trkpt lat="44.88532168832975" lon="9.517775180075615"><ele>532.0</ele><time>2026-03-22T11:45:55Z</time></trkpt><trkpt lat="44.885325208022834" lon="9.517636249887396"><ele>534.0</ele><time>2026-03-22T11:45:55.999Z</time></trkpt><trkpt lat="44.88533694238877" lon="9.517485098313953"><ele>536.0</ele><time>2026-03-22T11:45:56.999Z</time></trkpt><trkpt lat="44.88533640132453" lon="9.517348942275365"><ele>538.0</ele><time>2026-03-22T11:45:57.999Z</time></trkpt><trkpt lat="44.8853232569858" lon="9.51721634459411"><ele>538.0</ele><time>2026-03-22T11:45:59.999Z</time></trkpt><trkpt lat="44.885372855405" lon="9.517158112354586"><ele>538.0</ele><time>2026-03-22T11:46:00.999Z</time></trkpt><trkpt lat="44.885461597000294" lon="9.517113397258223"><ele>538.0</ele><time>2026-03-22T11:46:01.999Z</time></trkpt><trkpt lat="44.885555331305625" lon="9.517067417615776"><ele>538.0</ele><time>2026-03-22T11:46:02.999Z</time></trkpt><trkpt lat="44.885607588811695" lon="9.517013566491372"><ele>538.0</ele><time>2026-03-22T11:46:03.999Z</time></trkpt><trkpt lat="44.88562631854173" lon="9.51690714732391"><ele>538.0</ele><time>2026-03-22T11:46:04.999Z</time></trkpt><trkpt lat="44.885637434576886" lon="9.51680993860633"><ele>539.8</ele><time>2026-03-22T11:46:05.999Z</time></trkpt><trkpt lat="44.88565677818308" lon="9.516721086114995"><ele>541.5999999999999</ele><time>2026-03-22T11:46:06.999Z</time></trkpt><trkpt lat="44.88568857235629" lon="9.516575043214193"><ele>543.4000000000001</ele><time>2026-03-22T11:46:08.999Z</time></trkpt><trkpt lat="44.88575705707636" lon="9.51641760051599"><ele>545.2</ele><time>2026-03-22T11:46:10.999Z</time></trkpt><trkpt lat="44.88580123268735" lon="9.516330059375708"><ele>547.0</ele><time>2026-03-22T11:46:11.999Z</time></trkpt><trkpt lat="44.88585499357774" lon="9.516260752482747"><ele>548.0</ele><time>2026-03-22T11:46:12.999Z</time></trkpt><trkpt lat="44.88592249166095" lon="9.516206306265303"><ele>549.0</ele><time>2026-03-22T11:46:13.999Z</time></trkpt><trkpt lat="44.88598342868497" lon="9.51616587751979"><ele>550.0</ele><time>2026-03-22T11:46:14.999Z</time></trkpt><trkpt lat="44.88605339807876" lon="9.516129262665201"><ele>551.0</ele><time>2026-03-22T11:46:15.999Z</time></trkpt><trkpt lat="44.886159526728136" lon="9.516092531014982"><ele>552.0</ele><time>2026-03-22T11:46:17.999Z</time></trkpt><trkpt lat="44.88625923226216" lon="9.516053350962087"><ele>553.0</ele><time>2026-03-22T11:46:19.999Z</time></trkpt><trkpt lat="44.886364108384214" lon="9.515998762926984"><ele>553.0</ele><time>2026-03-22T11:46:21.999Z</time></trkpt><trkpt lat="44.886430914785855" lon="9.515965222096414"><ele>553.0</ele><time>2026-03-22T11:46:22.999Z</time></trkpt><trkpt lat="44.8865537187594" lon="9.515921431309867"><ele>553.0</ele><time>2026-03-22T11:46:24.999Z</time></trkpt><trkpt lat="44.88662427624228" lon="9.515995605913515"><ele>553.0</ele><time>2026-03-22T11:46:25.999Z</time></trkpt><trkpt lat="44.8867016683363" lon="9.515999634550827"><ele>553.0</ele><time>2026-03-22T11:46:26.999Z</time></trkpt><trkpt lat="44.88677294949768" lon="9.516024475079838"><ele>553.0</ele><time>2026-03-22T11:46:27.999Z</time></trkpt><trkpt lat="44.88683839577908" lon="9.516026618100625"><ele>552.4</ele><time>2026-03-22T11:46:28.999Z</time></trkpt><trkpt lat="44.8869104447768" lon="9.516004397062376"><ele>551.8</ele><time>2026-03-22T11:46:29.999Z</time></trkpt><trkpt lat="44.88697994306848" lon="9.515960267930488"><ele>551.2</ele><time>2026-03-22T11:46:30.999Z</time></trkpt><trkpt lat="44.88705322814996" lon="9.515901975683034"><ele>550.6</ele><time>2026-03-22T11:46:31.999Z</time></trkpt><trkpt lat="44.88716235059085" lon="9.515853132448074"><ele>550.0</ele><time>2026-03-22T11:46:32.999Z</time></trkpt><trkpt lat="44.88729493906064" lon="9.515820963028407"><ele>550.0</ele><time>2026-03-22T11:46:33.999Z</time></trkpt><trkpt lat="44.887426418515695" lon="9.515821220837433"><ele>550.0</ele><time>2026-03-22T11:46:34.999Z</time></trkpt><trkpt lat="44.887527159964634" lon="9.51579680772411"><ele>550.0</ele><time>2026-03-22T11:46:35.999Z</time></trkpt><trkpt lat="44.88760101905541" lon="9.515779351368755"><ele>550.0</ele><time>2026-03-22T11:46:36.999Z</time></trkpt><trkpt lat="44.88769902087637" lon="9.515736560282685"><ele>550.0</ele><time>2026-03-22T11:46:38.998Z</time></trkpt><trkpt lat="44.887751679250606" lon="9.515662123251442"><ele>548.8333333333334</ele><time>2026-03-22T11:46:40.998Z</time></trkpt><trkpt lat="44.88773684829832" lon="9.515569302713777"><ele>547.6666666666667</ele><time>2026-03-22T11:46:43.998Z</time></trkpt><trkpt lat="44.88769552374405" lon="9.515502145261495"><ele>546.5</ele><time>2026-03-22T11:49:41.997Z</time></trkpt><trkpt lat="44.88763848787219" lon="9.51543605344808"><ele>545.3333333333334</ele><time>2026-03-22T11:49:43.997Z</time></trkpt><trkpt lat="44.887579996772075" lon="9.515313308240584"><ele>544.1666666666666</ele><time>2026-03-22T11:49:45.997Z</time></trkpt><trkpt lat="44.887512228589706" lon="9.515172648360064"><ele>543.0</ele><time>2026-03-22T11:49:47.997Z</time></trkpt><trkpt lat="44.88747292603139" lon="9.515099710904456"><ele>545.3333333333334</ele><time>2026-03-22T11:49:48.997Z</time></trkpt><trkpt lat="44.88743320070997" lon="9.515018324442133"><ele>547.6666666666666</ele><time>2026-03-22T11:49:50Z</time></trkpt><trkpt lat="44.88739304991642" lon="9.514932775264132"><ele>550.0</ele><time>2026-03-22T11:49:51Z</time></trkpt><trkpt lat="44.88735925354862" lon="9.51484285097842"><ele>552.3333333333333</ele><time>2026-03-22T11:49:52Z</time></trkpt><trkpt lat="44.88733402142412" lon="9.514743605070596"><ele>554.6666666666666</ele><time>2026-03-22T11:49:53Z</time></trkpt><trkpt lat="44.88730962807512" lon="9.514632353063783"><ele>557.0</ele><time>2026-03-22T11:49:54Z</time></trkpt><trkpt lat="44.887294613145286" lon="9.514508241427844"><ele>557.4</ele><time>2026-03-22T11:49:55Z</time></trkpt><trkpt lat="44.88728614593719" lon="9.514375304338778"><ele>557.8000000000001</ele><time>2026-03-22T11:49:56Z</time></trkpt><trkpt lat="44.88728300053359" lon="9.5142322084044"><ele>558.2</ele><time>2026-03-22T11:49:57Z</time></trkpt><trkpt lat="44.88726320787876" lon="9.51408134827878"><ele>558.6</ele><time>2026-03-22T11:49:58Z</time></trkpt><trkpt lat="44.88725362963151" lon="9.513920470957022"><ele>559.0</ele><time>2026-03-22T11:49:59Z</time></trkpt><trkpt lat="44.88723404680794" lon="9.513710433599373"><ele>559.0</ele><time>2026-03-22T11:50:00Z</time></trkpt><trkpt lat="44.88716387149945" lon="9.513483108837352"><ele>559.0</ele><time>2026-03-22T11:50:01Z</time></trkpt><trkpt lat="44.8871398840416" lon="9.513260227606224"><ele>559.0</ele><time>2026-03-22T11:50:02Z</time></trkpt><trkpt lat="44.887128025763815" lon="9.513069924137241"><ele>560.25</ele><time>2026-03-22T11:50:03Z</time></trkpt><trkpt lat="44.88713119986462" lon="9.512888396556406"><ele>561.5</ele><time>2026-03-22T11:50:04Z</time></trkpt><trkpt lat="44.887116698288516" lon="9.51271679865474"><ele>562.75</ele><time>2026-03-22T11:50:05Z</time></trkpt><trkpt lat="44.88709503964492" lon="9.512550598532298"><ele>564.0</ele><time>2026-03-22T11:50:06Z</time></trkpt><trkpt lat="44.88706884726171" lon="9.512370271001595"><ele>564.0</ele><time>2026-03-22T11:50:07Z</time></trkpt><trkpt lat="44.88702977969983" lon="9.51218729572776"><ele>564.0</ele><time>2026-03-22T11:50:08Z</time></trkpt><trkpt lat="44.88702840549315" lon="9.511987093624468"><ele>564.0</ele><time>2026-03-22T11:50:09Z</time></trkpt><trkpt lat="44.887072598685336" lon="9.511783819028674"><ele>564.0</ele><time>2026-03-22T11:50:10Z</time></trkpt><trkpt lat="44.88714672701955" lon="9.511609086073474"><ele>565.0</ele><time>2026-03-22T11:50:11Z</time></trkpt><trkpt lat="44.88722260176396" lon="9.511497599001768"><ele>566.0</ele><time>2026-03-22T11:50:12Z</time></trkpt><trkpt lat="44.88726331786379" lon="9.511420275245039"><ele>567.0</ele><time>2026-03-22T11:50:13Z</time></trkpt><trkpt lat="44.88724669218927" lon="9.511229387654355"><ele>568.0</ele><time>2026-03-22T11:50:15Z</time></trkpt><trkpt lat="44.88721415201329" lon="9.511114592259748"><ele>569.0</ele><time>2026-03-22T11:50:16Z</time></trkpt><trkpt lat="44.88718269128707" lon="9.511016235460948"><ele>569.6</ele><time>2026-03-22T11:50:17Z</time></trkpt><trkpt lat="44.887122544316085" lon="9.510902334744458"><ele>570.2</ele><time>2026-03-22T11:50:18Z</time></trkpt><trkpt lat="44.88704734123243" lon="9.510780402516252"><ele>570.8000000000001</ele><time>2026-03-22T11:50:19Z</time></trkpt><trkpt lat="44.886967985684166" lon="9.510673968135208"><ele>571.4</ele><time>2026-03-22T11:50:20Z</time></trkpt><trkpt lat="44.88689768440722" lon="9.510613390333894"><ele>572.0</ele><time>2026-03-22T11:50:21Z</time></trkpt><trkpt lat="44.886826381957185" lon="9.51058217932312"><ele>578.6666666666666</ele><time>2026-03-22T11:50:22Z</time></trkpt><trkpt lat="44.88669321080006" lon="9.510500808013944"><ele>585.3333333333334</ele><time>2026-03-22T11:50:24Z</time></trkpt><trkpt lat="44.88653210243656" lon="9.510477785204777"><ele>592.0</ele><time>2026-03-22T11:50:25Z</time></trkpt><trkpt lat="44.88637168915062" lon="9.510510454584944"><ele>592.0</ele><time>2026-03-22T11:50:26Z</time></trkpt><trkpt lat="44.88618868238762" lon="9.510581480470988"><ele>592.0</ele><time>2026-03-22T11:50:27Z</time></trkpt><trkpt lat="44.8860175681462" lon="9.510655675999814"><ele>592.0</ele><time>2026-03-22T11:50:28Z</time></trkpt><trkpt lat="44.88584324055087" lon="9.510731176620672"><ele>592.0</ele><time>2026-03-22T11:50:29Z</time></trkpt><trkpt lat="44.885689491229236" lon="9.510789393219856"><ele>592.0</ele><time>2026-03-22T11:50:30Z</time></trkpt><trkpt lat="44.88554089399765" lon="9.510822878307769"><ele>592.0</ele><time>2026-03-22T11:50:31Z</time></trkpt><trkpt lat="44.88539671541008" lon="9.510815776378145"><ele>592.0</ele><time>2026-03-22T11:50:32Z</time></trkpt><trkpt lat="44.88524569775596" lon="9.51079697118242"><ele>592.0</ele><time>2026-03-22T11:50:33Z</time></trkpt><trkpt lat="44.8851042036045" lon="9.5107983065054"><ele>592.0</ele><time>2026-03-22T11:50:34Z</time></trkpt><trkpt lat="44.884989328207126" lon="9.510808053187793"><ele>592.0</ele><time>2026-03-22T11:50:35Z</time></trkpt><trkpt lat="44.884842122782445" lon="9.510811639483428"><ele>591.3333333333334</ele><time>2026-03-22T11:50:36Z</time></trkpt><trkpt lat="44.88468390286049" lon="9.51077869795966"><ele>590.6666666666666</ele><time>2026-03-22T11:50:37Z</time></trkpt><trkpt lat="44.884541365144514" lon="9.510706430240495"><ele>590.0</ele><time>2026-03-22T11:50:38Z</time></trkpt><trkpt lat="44.884376074490525" lon="9.510639593498615"><ele>590.0</ele><time>2026-03-22T11:50:38.999Z</time></trkpt><trkpt lat="44.88427201389874" lon="9.510625493789435"><ele>590.0</ele><time>2026-03-22T11:50:39.999Z</time></trkpt><trkpt lat="44.88412782851455" lon="9.51063819654013"><ele>590.0</ele><time>2026-03-22T11:50:40.999Z</time></trkpt><trkpt lat="44.88397992925943" lon="9.510658736863052"><ele>590.0</ele><time>2026-03-22T11:50:41.999Z</time></trkpt><trkpt lat="44.883828047136966" lon="9.510677329683851"><ele>588.6666666666666</ele><time>2026-03-22T11:50:42.999Z</time></trkpt><trkpt lat="44.883672558829474" lon="9.51065925468458"><ele>587.3333333333334</ele><time>2026-03-22T11:50:43.999Z</time></trkpt><trkpt lat="44.883513387585765" lon="9.510603907557016"><ele>586.0</ele><time>2026-03-22T11:50:44.999Z</time></trkpt><trkpt lat="44.883358805623715" lon="9.510537791831744"><ele>584.25</ele><time>2026-03-22T11:50:45.999Z</time></trkpt><trkpt lat="44.88322524420587" lon="9.510439605996961"><ele>582.5</ele><time>2026-03-22T11:50:46.999Z</time></trkpt><trkpt lat="44.883101995695384" lon="9.510347636927222"><ele>580.75</ele><time>2026-03-22T11:50:47.999Z</time></trkpt><trkpt lat="44.882977498267216" lon="9.510294392526268"><ele>579.0</ele><time>2026-03-22T11:50:48.999Z</time></trkpt><trkpt lat="44.882865253500505" lon="9.510259820625873"><ele>579.0</ele><time>2026-03-22T11:50:49.999Z</time></trkpt><trkpt lat="44.88275055306511" lon="9.510214461264086"><ele>579.0</ele><time>2026-03-22T11:50:50.999Z</time></trkpt><trkpt lat="44.88264151739613" lon="9.510203799698356"><ele>579.0</ele><time>2026-03-22T11:50:51.999Z</time></trkpt><trkpt lat="44.88254531408229" lon="9.510196770666068"><ele>579.0</ele><time>2026-03-22T11:50:52.999Z</time></trkpt><trkpt lat="44.882446426304995" lon="9.51018098135558"><ele>579.0</ele><time>2026-03-22T11:50:53.999Z</time></trkpt><trkpt lat="44.88233578863075" lon="9.510159032967394"><ele>579.0</ele><time>2026-03-22T11:50:54.999Z</time></trkpt><trkpt lat="44.88222705342319" lon="9.510120426379034"><ele>579.0</ele><time>2026-03-22T11:50:55.999Z</time></trkpt><trkpt lat="44.882123196378934" lon="9.510104625786154"><ele>579.0</ele><time>2026-03-22T11:50:56.999Z</time></trkpt><trkpt lat="44.8820101301568" lon="9.51014846865811"><ele>579.0</ele><time>2026-03-22T11:50:57.999Z</time></trkpt><trkpt lat="44.88189359408678" lon="9.51023348299954"><ele>579.0</ele><time>2026-03-22T11:50:58.999Z</time></trkpt><trkpt lat="44.881800470537115" lon="9.510299485515718"><ele>579.0</ele><time>2026-03-22T11:50:59.999Z</time></trkpt><trkpt lat="44.88167697021531" lon="9.510382321335674"><ele>579.0</ele><time>2026-03-22T11:51:00.999Z</time></trkpt><trkpt lat="44.88154067381434" lon="9.510471949676216"><ele>579.0</ele><time>2026-03-22T11:51:01.999Z</time></trkpt><trkpt lat="44.881437557614476" lon="9.51056197642796"><ele>581.0</ele><time>2026-03-22T11:51:02.999Z</time></trkpt><trkpt lat="44.88135016522486" lon="9.510682766936178"><ele>583.0</ele><time>2026-03-22T11:51:03.999Z</time></trkpt><trkpt lat="44.881262324189564" lon="9.5108726639939"><ele>585.0</ele><time>2026-03-22T11:51:04.999Z</time></trkpt><trkpt lat="44.88118679985161" lon="9.511081580715457"><ele>587.0</ele><time>2026-03-22T11:51:05.999Z</time></trkpt><trkpt lat="44.8811265273298" lon="9.511228243872717"><ele>586.3333333333333</ele><time>2026-03-22T11:51:06.999Z</time></trkpt><trkpt lat="44.881072747652965" lon="9.51131943682259"><ele>585.6666666666666</ele><time>2026-03-22T11:51:07.999Z</time></trkpt><trkpt lat="44.88101512413051" lon="9.511385547614646"><ele>585.0</ele><time>2026-03-22T11:51:08.999Z</time></trkpt><trkpt lat="44.8809533080655" lon="9.51144603805786"><ele>584.3333333333334</ele><time>2026-03-22T11:51:09.999Z</time></trkpt><trkpt lat="44.88085960102109" lon="9.511422487128549"><ele>583.6666666666667</ele><time>2026-03-22T11:51:11.999Z</time></trkpt><trkpt lat="44.8807878749459" lon="9.511376212501466"><ele>583.0</ele><time>2026-03-22T11:51:12.999Z</time></trkpt><trkpt lat="44.88073139899805" lon="9.511215003986482"><ele>587.0</ele><time>2026-03-22T11:51:13.999Z</time></trkpt><trkpt lat="44.880696630989995" lon="9.5110156866196"><ele>591.0</ele><time>2026-03-22T11:51:14.999Z</time></trkpt><trkpt lat="44.880670090213684" lon="9.510854687703999"><ele>595.0</ele><time>2026-03-22T11:51:15.999Z</time></trkpt><trkpt lat="44.880628255114885" lon="9.51073930026776"><ele>599.0</ele><time>2026-03-22T11:51:16.999Z</time></trkpt><trkpt lat="44.8805768521601" lon="9.510651164760889"><ele>603.0</ele><time>2026-03-22T11:51:17.999Z</time></trkpt><trkpt lat="44.880502762517985" lon="9.510592746959121"><ele>603.0</ele><time>2026-03-22T11:51:18.999Z</time></trkpt><trkpt lat="44.88041008143026" lon="9.510536986335586"><ele>603.0</ele><time>2026-03-22T11:51:19.999Z</time></trkpt><trkpt lat="44.88032714368907" lon="9.510475051054016"><ele>603.0</ele><time>2026-03-22T11:51:20.999Z</time></trkpt><trkpt lat="44.8801791772324" lon="9.510442299186831"><ele>603.0</ele><time>2026-03-22T11:51:21.998Z</time></trkpt><trkpt lat="44.88012617915028" lon="9.5103854007111"><ele>603.0</ele><time>2026-03-22T11:51:22.998Z</time></trkpt><trkpt lat="44.87999679195094" lon="9.510326597826598"><ele>608.0</ele><time>2026-03-22T11:51:24.998Z</time></trkpt><trkpt lat="44.87975998347032" lon="9.510229614053832"><ele>613.0</ele><time>2026-03-22T11:51:25.998Z</time></trkpt><trkpt lat="44.87961941209656" lon="9.510166392001969"><ele>618.0</ele><time>2026-03-22T11:51:27.998Z</time></trkpt><trkpt lat="44.87948717662086" lon="9.510064628745846"><ele>618.0</ele><time>2026-03-22T11:51:28.998Z</time></trkpt><trkpt lat="44.87938944492055" lon="9.509977073372733"><ele>618.0</ele><time>2026-03-22T11:51:29.998Z</time></trkpt><trkpt lat="44.879305590981765" lon="9.509951857109765"><ele>618.0</ele><time>2026-03-22T11:51:30.998Z</time></trkpt><trkpt lat="44.87920781786155" lon="9.50997426398609"><ele>618.0</ele><time>2026-03-22T11:51:31.998Z</time></trkpt><trkpt lat="44.87910553966897" lon="9.509988305320512"><ele>618.0</ele><time>2026-03-22T11:51:32.998Z</time></trkpt><trkpt lat="44.8789945927337" lon="9.510028029600019"><ele>617.4</ele><time>2026-03-22T11:51:33.998Z</time></trkpt><trkpt lat="44.87886200265997" lon="9.51008484557475"><ele>616.8</ele><time>2026-03-22T11:51:34.998Z</time></trkpt><trkpt lat="44.8787371235878" lon="9.510131421169794"><ele>616.2</ele><time>2026-03-22T11:51:35.998Z</time></trkpt><trkpt lat="44.8786328848107" lon="9.510154127952315"><ele>615.6</ele><time>2026-03-22T11:51:36.998Z</time></trkpt><trkpt lat="44.87855816152773" lon="9.510167236211597"><ele>615.0</ele><time>2026-03-22T11:51:37.998Z</time></trkpt><trkpt lat="44.8784763443039" lon="9.510145778195923"><ele>615.2</ele><time>2026-03-22T11:51:38.998Z</time></trkpt><trkpt lat="44.878382491304166" lon="9.510126924609894"><ele>615.4</ele><time>2026-03-22T11:51:39.998Z</time></trkpt><trkpt lat="44.87826380552258" lon="9.510090325933218"><ele>615.6</ele><time>2026-03-22T11:51:41.998Z</time></trkpt><trkpt lat="44.87819709703904" lon="9.509973380423071"><ele>615.8</ele><time>2026-03-22T11:51:43.998Z</time></trkpt><trkpt lat="44.87819731490002" lon="9.509875730212535"><ele>616.0</ele><time>2026-03-22T11:51:44.998Z</time></trkpt><trkpt lat="44.87821449978813" lon="9.509781461076582"><ele>616.0</ele><time>2026-03-22T11:51:45.998Z</time></trkpt><trkpt lat="44.87822032794682" lon="9.509642918061186"><ele>616.0</ele><time>2026-03-22T11:51:46.998Z</time></trkpt><trkpt lat="44.87826890087066" lon="9.509512125940212"><ele>616.0</ele><time>2026-03-22T11:51:47.998Z</time></trkpt><trkpt lat="44.87832779552289" lon="9.509428583419718"><ele>616.0</ele><time>2026-03-22T11:51:48.998Z</time></trkpt><trkpt lat="44.878413879179426" lon="9.509371649895236"><ele>616.0</ele><time>2026-03-22T11:51:49.998Z</time></trkpt><trkpt lat="44.878513321313555" lon="9.509275950734263"><ele>620.0</ele><time>2026-03-22T11:51:50.998Z</time></trkpt><trkpt lat="44.87855677546719" lon="9.509175209523594"><ele>624.0</ele><time>2026-03-22T11:51:51.998Z</time></trkpt><trkpt lat="44.878589243542905" lon="9.5090614193819"><ele>628.0</ele><time>2026-03-22T11:51:52.998Z</time></trkpt><trkpt lat="44.87861368631879" lon="9.508924585182095"><ele>632.0</ele><time>2026-03-22T11:51:53.998Z</time></trkpt><trkpt lat="44.87861438612941" lon="9.508768219679474"><ele>636.0</ele><time>2026-03-22T11:51:54.998Z</time></trkpt><trkpt lat="44.87861581063422" lon="9.508595923333576"><ele>635.75</ele><time>2026-03-22T11:51:56.001Z</time></trkpt><trkpt lat="44.878614366436906" lon="9.508414676871272"><ele>635.5</ele><time>2026-03-22T11:51:57.001Z</time></trkpt><trkpt lat="44.878612086263296" lon="9.508235707065548"><ele>635.25</ele><time>2026-03-22T11:51:58.001Z</time></trkpt><trkpt lat="44.878604227681976" lon="9.508059915918812"><ele>635.0</ele><time>2026-03-22T11:51:59.001Z</time></trkpt><trkpt lat="44.87858877589253" lon="9.50789840723903"><ele>635.0</ele><time>2026-03-22T11:52:00.001Z</time></trkpt><trkpt lat="44.87857365697544" lon="9.50773797979664"><ele>635.0</ele><time>2026-03-22T11:52:01.001Z</time></trkpt><trkpt lat="44.87856057687499" lon="9.507600193685297"><ele>635.0</ele><time>2026-03-22T11:52:02.001Z</time></trkpt><trkpt lat="44.87854788928294" lon="9.507478093786037"><ele>635.0</ele><time>2026-03-22T11:52:03.001Z</time></trkpt><trkpt lat="44.87854652271211" lon="9.507363007395895"><ele>635.0</ele><time>2026-03-22T11:52:04.001Z</time></trkpt><trkpt lat="44.87851866140789" lon="9.507247557364533"><ele>635.0</ele><time>2026-03-22T11:52:05.001Z</time></trkpt><trkpt lat="44.878469157873" lon="9.507119101459452"><ele>635.0</ele><time>2026-03-22T11:52:06.001Z</time></trkpt><trkpt lat="44.87844040347306" lon="9.50698949761176"><ele>635.0</ele><time>2026-03-22T11:52:07.001Z</time></trkpt><trkpt lat="44.87840963160476" lon="9.506886220658604"><ele>635.0</ele><time>2026-03-22T11:52:08.001Z</time></trkpt><trkpt lat="44.878382285369085" lon="9.50678651418282"><ele>635.0</ele><time>2026-03-22T11:52:09.001Z</time></trkpt><trkpt lat="44.87830941388707" lon="9.50669968226857"><ele>633.25</ele><time>2026-03-22T11:52:10.001Z</time></trkpt><trkpt lat="44.878215550822766" lon="9.506589420094214"><ele>631.5</ele><time>2026-03-22T11:52:11.001Z</time></trkpt><trkpt lat="44.87813793404106" lon="9.506465304937349"><ele>629.75</ele><time>2026-03-22T11:52:12.001Z</time></trkpt><trkpt lat="44.8780555007593" lon="9.5063004903278"><ele>628.0</ele><time>2026-03-22T11:52:13.001Z</time></trkpt><trkpt lat="44.878012197024105" lon="9.506124504384331"><ele>627.1999999999999</ele><time>2026-03-22T11:52:14Z</time></trkpt><trkpt lat="44.87798173939559" lon="9.506000179615974"><ele>626.4</ele><time>2026-03-22T11:52:15Z</time></trkpt><trkpt lat="44.87797654882431" lon="9.505893935774157"><ele>625.5999999999999</ele><time>2026-03-22T11:52:17Z</time></trkpt><trkpt lat="44.877824281416906" lon="9.505970546654893"><ele>624.8</ele><time>2026-03-22T11:52:49.999Z</time></trkpt><trkpt lat="44.87783188833204" lon="9.506075282209816"><ele>624.0</ele><time>2026-03-22T11:52:52.998Z</time></trkpt><trkpt lat="44.87790011144832" lon="9.506150490561334"><ele>624.0</ele><time>2026-03-22T11:52:54.998Z</time></trkpt><trkpt lat="44.87797505675253" lon="9.506241917175231"><ele>624.0</ele><time>2026-03-22T11:52:56.998Z</time></trkpt><trkpt lat="44.87802320638874" lon="9.506306919685374"><ele>624.0</ele><time>2026-03-22T11:52:57.998Z</time></trkpt><trkpt lat="44.878088703075996" lon="9.506402221416"><ele>624.0</ele><time>2026-03-22T11:52:59.998Z</time></trkpt><trkpt lat="44.87814998361977" lon="9.506472048204982"><ele>624.0</ele><time>2026-03-22T11:53:01.998Z</time></trkpt><trkpt lat="44.878184902027755" lon="9.50654835355622"><ele>624.0</ele><time>2026-03-22T11:53:02.998Z</time></trkpt><trkpt lat="44.87822775390292" lon="9.506622318153127"><ele>624.5714285714286</ele><time>2026-03-22T11:53:03.998Z</time></trkpt><trkpt lat="44.87827772181119" lon="9.506689986512239"><ele>625.1428571428571</ele><time>2026-03-22T11:53:04.998Z</time></trkpt><trkpt lat="44.87832615376809" lon="9.50676098499189"><ele>625.7142857142857</ele><time>2026-03-22T11:53:05.998Z</time></trkpt><trkpt lat="44.878380161474475" lon="9.506832069620565"><ele>626.2857142857142</ele><time>2026-03-22T11:53:06.998Z</time></trkpt><trkpt lat="44.87842444716509" lon="9.506901323894784"><ele>626.8571428571429</ele><time>2026-03-22T11:53:07.998Z</time></trkpt><trkpt lat="44.878455517123484" lon="9.50698736598936"><ele>627.4285714285713</ele><time>2026-03-22T11:53:08.998Z</time></trkpt><trkpt lat="44.87848385718543" lon="9.507099475368726"><ele>628.0</ele><time>2026-03-22T11:53:09.998Z</time></trkpt><trkpt lat="44.87850338351996" lon="9.50721546427882"><ele>629.4</ele><time>2026-03-22T11:53:10.998Z</time></trkpt><trkpt lat="44.8785288020511" lon="9.507349146619877"><ele>630.8</ele><time>2026-03-22T11:53:11.998Z</time></trkpt><trkpt lat="44.878556874698596" lon="9.507484433096801"><ele>632.2</ele><time>2026-03-22T11:53:12.998Z</time></trkpt><trkpt lat="44.87857756822273" lon="9.507605298410631"><ele>633.6</ele><time>2026-03-22T11:53:13.998Z</time></trkpt><trkpt lat="44.878522487381545" lon="9.507728088036767"><ele>635.0</ele><time>2026-03-22T11:53:14.998Z</time></trkpt><trkpt lat="44.87853236735321" lon="9.507839591309615"><ele>637.0</ele><time>2026-03-22T11:53:15.998Z</time></trkpt><trkpt lat="44.878544860357806" lon="9.507962752954198"><ele>639.0</ele><time>2026-03-22T11:53:16.998Z</time></trkpt><trkpt lat="44.87855621064355" lon="9.50809271208537"><ele>641.0</ele><time>2026-03-22T11:53:17.998Z</time></trkpt><trkpt lat="44.8785619263051" lon="9.508229046099443"><ele>643.0</ele><time>2026-03-22T11:53:18.998Z</time></trkpt><trkpt lat="44.87856409238823" lon="9.508372750182627"><ele>645.0</ele><time>2026-03-22T11:53:19.998Z</time></trkpt><trkpt lat="44.87856524979782" lon="9.508518005272153"><ele>645.0</ele><time>2026-03-22T11:53:20.998Z</time></trkpt><trkpt lat="44.878565826147536" lon="9.5086574534082"><ele>645.0</ele><time>2026-03-22T11:53:21.998Z</time></trkpt><trkpt lat="44.87856407962662" lon="9.50879717506735"><ele>645.0</ele><time>2026-03-22T11:53:22.998Z</time></trkpt><trkpt lat="44.87856040441693" lon="9.508940225603007"><ele>645.0</ele><time>2026-03-22T11:53:23.998Z</time></trkpt><trkpt lat="44.8785372972662" lon="9.509058848860793"><ele>645.0</ele><time>2026-03-22T11:53:24.998Z</time></trkpt><trkpt lat="44.87849835779137" lon="9.509169711303453"><ele>643.5</ele><time>2026-03-22T11:53:25.998Z</time></trkpt><trkpt lat="44.878454373937615" lon="9.509267336838407"><ele>642.0</ele><time>2026-03-22T11:53:26.998Z</time></trkpt><trkpt lat="44.878403707296094" lon="9.509331222243484"><ele>640.5</ele><time>2026-03-22T11:53:27.998Z</time></trkpt><trkpt lat="44.878334952414896" lon="9.509364461606038"><ele>639.0</ele><time>2026-03-22T11:53:28.998Z</time></trkpt><trkpt lat="44.87826923491002" lon="9.509427875479316"><ele>637.5</ele><time>2026-03-22T11:53:29.998Z</time></trkpt><trkpt lat="44.87821214371689" lon="9.50950391678066"><ele>636.0</ele><time>2026-03-22T11:53:30.998Z</time></trkpt><trkpt lat="44.878171819235675" lon="9.509635389392551"><ele>631.0</ele><time>2026-03-22T11:53:31.998Z</time></trkpt><trkpt lat="44.8781479534734" lon="9.509814030708833"><ele>626.0</ele><time>2026-03-22T11:53:32.998Z</time></trkpt><trkpt lat="44.878146054367626" lon="9.509980922421773"><ele>621.0</ele><time>2026-03-22T11:53:33.997Z</time></trkpt><trkpt lat="44.878160598757425" lon="9.510151616395506"><ele>616.0</ele><time>2026-03-22T11:53:34.997Z</time></trkpt><trkpt lat="44.87805626303536" lon="9.510270436672025"><ele>614.4</ele><time>2026-03-22T11:53:35.997Z</time></trkpt><trkpt lat="44.878013357275144" lon="9.510460753076558"><ele>612.8</ele><time>2026-03-22T11:53:36.997Z</time></trkpt><trkpt lat="44.8780008058497" lon="9.510631060463961"><ele>611.1999999999999</ele><time>2026-03-22T11:53:37.997Z</time></trkpt><trkpt lat="44.87797013231958" lon="9.510765684810451"><ele>609.6</ele><time>2026-03-22T11:53:38.997Z</time></trkpt><trkpt lat="44.87793275976233" lon="9.510852718892076"><ele>608.0</ele><time>2026-03-22T11:53:39.997Z</time></trkpt><trkpt lat="44.87788177326203" lon="9.510954472894362"><ele>608.0</ele><time>2026-03-22T11:53:40.997Z</time></trkpt><trkpt lat="44.87782093238497" lon="9.511015481268513"><ele>608.0</ele><time>2026-03-22T11:53:41.997Z</time></trkpt><trkpt lat="44.87776979916147" lon="9.511111295278312"><ele>608.0</ele><time>2026-03-22T11:53:42.997Z</time></trkpt><trkpt lat="44.87766840045453" lon="9.51131689878935"><ele>608.0</ele><time>2026-03-22T11:53:43.997Z</time></trkpt><trkpt lat="44.87760440092435" lon="9.511500261031347"><ele>610.0</ele><time>2026-03-22T11:53:44.997Z</time></trkpt><trkpt lat="44.87753320915984" lon="9.511659482719313"><ele>612.0</ele><time>2026-03-22T11:53:45.997Z</time></trkpt><trkpt lat="44.87748882988212" lon="9.511754047899293"><ele>614.0</ele><time>2026-03-22T11:53:46.997Z</time></trkpt><trkpt lat="44.87744427754406" lon="9.511842569479638"><ele>616.0</ele><time>2026-03-22T11:53:47.997Z</time></trkpt><trkpt lat="44.877355393600894" lon="9.511902015055922"><ele>618.0</ele><time>2026-03-22T11:53:49.997Z</time></trkpt><trkpt lat="44.87730385391401" lon="9.511791180765487"><ele>618.0</ele><time>2026-03-22T11:53:51.997Z</time></trkpt><trkpt lat="44.87720270554199" lon="9.511716116246456"><ele>618.0</ele><time>2026-03-22T11:53:53.997Z</time></trkpt><trkpt lat="44.87710967633534" lon="9.51168548743102"><ele>618.0</ele><time>2026-03-22T11:53:55.997Z</time></trkpt><trkpt lat="44.87697403756161" lon="9.511672104219896"><ele>618.0</ele><time>2026-03-22T11:53:57.997Z</time></trkpt><trkpt lat="44.8768777265082" lon="9.51165257406764"><ele>618.0</ele><time>2026-03-22T11:53:58.997Z</time></trkpt><trkpt lat="44.876807856700076" lon="9.511633994196089"><ele>615.8</ele><time>2026-03-22T11:53:59.997Z</time></trkpt><trkpt lat="44.876699859589856" lon="9.511555330145711"><ele>613.5999999999999</ele><time>2026-03-22T11:54:02Z</time></trkpt><trkpt lat="44.8765895408208" lon="9.511518448478705"><ele>611.4000000000001</ele><time>2026-03-22T11:54:04Z</time></trkpt><trkpt lat="44.87651414382014" lon="9.511522242642583"><ele>609.2</ele><time>2026-03-22T11:54:05Z</time></trkpt><trkpt lat="44.876434402461314" lon="9.511567744364495"><ele>607.0</ele><time>2026-03-22T11:54:06Z</time></trkpt><trkpt lat="44.87637682350128" lon="9.5116291426593"><ele>607.0</ele><time>2026-03-22T11:54:07Z</time></trkpt><trkpt lat="44.876324162663636" lon="9.511679929901586"><ele>607.0</ele><time>2026-03-22T11:54:08Z</time></trkpt><trkpt lat="44.87620498207774" lon="9.511734489192008"><ele>607.0</ele><time>2026-03-22T11:54:10Z</time></trkpt><trkpt lat="44.87612263301371" lon="9.511728799912845"><ele>607.0</ele><time>2026-03-22T11:54:11Z</time></trkpt><trkpt lat="44.876059316896416" lon="9.511680200198288"><ele>607.0</ele><time>2026-03-22T11:54:12Z</time></trkpt><trkpt lat="44.87596738024666" lon="9.511584738057849"><ele>605.3333333333334</ele><time>2026-03-22T11:54:14Z</time></trkpt><trkpt lat="44.87587174477091" lon="9.511527959529118"><ele>603.6666666666667</ele><time>2026-03-22T11:54:16Z</time></trkpt><trkpt lat="44.87577931087611" lon="9.511457965001599"><ele>602.0</ele><time>2026-03-22T11:54:18Z</time></trkpt><trkpt lat="44.875691122212906" lon="9.511367589176828"><ele>600.3333333333334</ele><time>2026-03-22T11:54:20Z</time></trkpt><trkpt lat="44.87562825714213" lon="9.511345973270368"><ele>598.6666666666666</ele><time>2026-03-22T11:54:21Z</time></trkpt><trkpt lat="44.875579349139116" lon="9.51128832186451"><ele>597.0</ele><time>2026-03-22T11:54:22Z</time></trkpt><trkpt lat="44.875478248940205" lon="9.511191679501867"><ele>594.7142857142858</ele><time>2026-03-22T11:54:24Z</time></trkpt><trkpt lat="44.875426027579614" lon="9.51112902941364"><ele>592.4285714285714</ele><time>2026-03-22T11:54:25Z</time></trkpt><trkpt lat="44.87537416246239" lon="9.511063148080478"><ele>590.1428571428571</ele><time>2026-03-22T11:54:26Z</time></trkpt><trkpt lat="44.875323098309714" lon="9.510989808463401"><ele>587.8571428571429</ele><time>2026-03-22T11:54:27Z</time></trkpt><trkpt lat="44.87525287896222" lon="9.5109369400236"><ele>585.5714285714286</ele><time>2026-03-22T11:54:28Z</time></trkpt><trkpt lat="44.875186800739336" lon="9.51088546231234"><ele>583.2857142857143</ele><time>2026-03-22T11:54:28.999Z</time></trkpt><trkpt lat="44.87512224014531" lon="9.510850805849548"><ele>581.0</ele><time>2026-03-22T11:54:29.999Z</time></trkpt><trkpt lat="44.875053822449246" lon="9.510810695532356"><ele>580.0</ele><time>2026-03-22T11:54:30.999Z</time></trkpt><trkpt lat="44.87498768730978" lon="9.510788067257941"><ele>579.0</ele><time>2026-03-22T11:54:31.999Z</time></trkpt><trkpt lat="44.874916819957456" lon="9.510770500487165"><ele>578.0</ele><time>2026-03-22T11:54:32.999Z</time></trkpt><trkpt lat="44.87485181533335" lon="9.510785574510372"><ele>577.0</ele><time>2026-03-22T11:54:33.999Z</time></trkpt><trkpt lat="44.87476453669207" lon="9.510796136544487"><ele>576.0</ele><time>2026-03-22T11:54:34.999Z</time></trkpt><trkpt lat="44.87465021551872" lon="9.510829482254353"><ele>575.0</ele><time>2026-03-22T11:54:35.999Z</time></trkpt><trkpt lat="44.87452949223234" lon="9.510865086947202"><ele>575.0</ele><time>2026-03-22T11:54:36.999Z</time></trkpt><trkpt lat="44.8744067462076" lon="9.510887672336512"><ele>575.0</ele><time>2026-03-22T11:54:37.999Z</time></trkpt><trkpt lat="44.8743235129975" lon="9.510902202757475"><ele>575.0</ele><time>2026-03-22T11:54:38.999Z</time></trkpt><trkpt lat="44.87424057210805" lon="9.510919453915152"><ele>575.0</ele><time>2026-03-22T11:54:39.999Z</time></trkpt><trkpt lat="44.87415850113279" lon="9.510942240669266"><ele>575.0</ele><time>2026-03-22T11:54:40.999Z</time></trkpt><trkpt lat="44.874059137927695" lon="9.510983568391923"><ele>573.6</ele><time>2026-03-22T11:54:41.999Z</time></trkpt><trkpt lat="44.873962411169906" lon="9.511038291423052"><ele>572.2</ele><time>2026-03-22T11:54:42.999Z</time></trkpt><trkpt lat="44.87387092138251" lon="9.511098294229921"><ele>570.8</ele><time>2026-03-22T11:54:43.999Z</time></trkpt><trkpt lat="44.8737920054833" lon="9.511157525843165"><ele>569.4</ele><time>2026-03-22T11:54:44.999Z</time></trkpt><trkpt lat="44.87370503751823" lon="9.511241884331488"><ele>568.0</ele><time>2026-03-22T11:54:45.999Z</time></trkpt><trkpt lat="44.87361450639167" lon="9.511341783625301"><ele>567.0</ele><time>2026-03-22T11:54:46.999Z</time></trkpt><trkpt lat="44.873535530292884" lon="9.511432771050307"><ele>566.0</ele><time>2026-03-22T11:54:47.999Z</time></trkpt><trkpt lat="44.87346878004039" lon="9.511509673194867"><ele>565.0</ele><time>2026-03-22T11:54:48.999Z</time></trkpt><trkpt lat="44.87340726342922" lon="9.511580545841486"><ele>564.0</ele><time>2026-03-22T11:54:49.999Z</time></trkpt><trkpt lat="44.87334890758406" lon="9.511646729257391"><ele>563.0</ele><time>2026-03-22T11:54:50.999Z</time></trkpt><trkpt lat="44.87329557750471" lon="9.511703622969456"><ele>562.0</ele><time>2026-03-22T11:54:51.999Z</time></trkpt><trkpt lat="44.87320738865433" lon="9.511782023952366"><ele>562.0</ele><time>2026-03-22T11:54:53.999Z</time></trkpt><trkpt lat="44.873144855011724" lon="9.511837201393467"><ele>562.0</ele><time>2026-03-22T11:54:54.999Z</time></trkpt><trkpt lat="44.87304320423372" lon="9.511926076301899"><ele>562.0</ele><time>2026-03-22T11:54:56.999Z</time></trkpt><trkpt lat="44.87294869170621" lon="9.511981343322427"><ele>562.0</ele><time>2026-03-22T11:54:58.999Z</time></trkpt><trkpt lat="44.87283093246106" lon="9.512009706011517"><ele>562.0</ele><time>2026-03-22T11:55:00.999Z</time></trkpt><trkpt lat="44.872713415188024" lon="9.511999028546224"><ele>557.5</ele><time>2026-03-22T11:55:02.999Z</time></trkpt><trkpt lat="44.872602433757855" lon="9.51199596708475"><ele>553.0</ele><time>2026-03-22T11:55:04.999Z</time></trkpt><trkpt lat="44.872543932009016" lon="9.51182267658497"><ele>548.5</ele><time>2026-03-22T11:55:31.998Z</time></trkpt><trkpt lat="44.872556333984804" lon="9.51165619626695"><ele>544.0</ele><time>2026-03-22T11:55:32.998Z</time></trkpt><trkpt lat="44.87258958915314" lon="9.511494125120397"><ele>546.0</ele><time>2026-03-22T11:55:33.998Z</time></trkpt><trkpt lat="44.87263398198059" lon="9.51136052599174"><ele>548.0</ele><time>2026-03-22T11:55:34.998Z</time></trkpt><trkpt lat="44.87269833990267" lon="9.511238397227013"><ele>550.0</ele><time>2026-03-22T11:55:35.998Z</time></trkpt><trkpt lat="44.87277683577213" lon="9.511128693626151"><ele>552.0</ele><time>2026-03-22T11:55:36.998Z</time></trkpt><trkpt lat="44.87284573837235" lon="9.511020550957666"><ele>554.0</ele><time>2026-03-22T11:55:37.998Z</time></trkpt><trkpt lat="44.87288592109659" lon="9.510918658356735"><ele>554.0</ele><time>2026-03-22T11:55:38.998Z</time></trkpt><trkpt lat="44.87290559292962" lon="9.510812422024832"><ele>554.0</ele><time>2026-03-22T11:55:39.998Z</time></trkpt><trkpt lat="44.87291137774633" lon="9.510678176849835"><ele>554.0</ele><time>2026-03-22T11:55:40.998Z</time></trkpt><trkpt lat="44.872913295285706" lon="9.510502384805612"><ele>554.0</ele><time>2026-03-22T11:55:41.998Z</time></trkpt><trkpt lat="44.8729108680625" lon="9.510308285589284"><ele>554.0</ele><time>2026-03-22T11:55:42.998Z</time></trkpt><trkpt lat="44.872911587127895" lon="9.51014045917331"><ele>552.6</ele><time>2026-03-22T11:55:43.998Z</time></trkpt><trkpt lat="44.872913939948475" lon="9.509998151320046"><ele>551.2</ele><time>2026-03-22T11:55:44.998Z</time></trkpt><trkpt lat="44.87292115045117" lon="9.509882944141047"><ele>549.8000000000001</ele><time>2026-03-22T11:55:45.998Z</time></trkpt><trkpt lat="44.872934839539866" lon="9.509767586829557"><ele>548.4</ele><time>2026-03-22T11:55:46.998Z</time></trkpt><trkpt lat="44.87297575851518" lon="9.509655441556614"><ele>547.0</ele><time>2026-03-22T11:55:47.998Z</time></trkpt><trkpt lat="44.873051818707516" lon="9.50955579476284"><ele>543.8000000000001</ele><time>2026-03-22T11:55:48.998Z</time></trkpt><trkpt lat="44.87314390857923" lon="9.50945237909279"><ele>540.6</ele><time>2026-03-22T11:55:49.998Z</time></trkpt><trkpt lat="44.87323183556242" lon="9.509364862305612"><ele>537.4000000000001</ele><time>2026-03-22T11:55:50.998Z</time></trkpt><trkpt lat="44.87329368389154" lon="9.509305840301343"><ele>534.2</ele><time>2026-03-22T11:55:51.998Z</time></trkpt><trkpt lat="44.87336159987707" lon="9.509241709659563"><ele>531.0</ele><time>2026-03-22T11:55:52.997Z</time></trkpt><trkpt lat="44.87342056726" lon="9.509183761674736"><ele>533.25</ele><time>2026-03-22T11:55:53.997Z</time></trkpt><trkpt lat="44.87350667977154" lon="9.509092410460362"><ele>535.5</ele><time>2026-03-22T11:55:54.997Z</time></trkpt><trkpt lat="44.87358712705987" lon="9.509001210134997"><ele>537.75</ele><time>2026-03-22T11:55:55.997Z</time></trkpt><trkpt lat="44.87368115391565" lon="9.50888860068201"><ele>540.0</ele><time>2026-03-22T11:55:56.997Z</time></trkpt><trkpt lat="44.87379429546815" lon="9.50874462979927"><ele>538.0</ele><time>2026-03-22T11:55:57.997Z</time></trkpt><trkpt lat="44.87389693455919" lon="9.508605659004647"><ele>536.0</ele><time>2026-03-22T11:55:58.997Z</time></trkpt><trkpt lat="44.87398875983454" lon="9.508461390258898"><ele>534.0</ele><time>2026-03-22T11:55:59.997Z</time></trkpt><trkpt lat="44.87406217015827" lon="9.508331024953385"><ele>532.0</ele><time>2026-03-22T11:56:00.997Z</time></trkpt><trkpt lat="44.874112318446244" lon="9.508241915612182"><ele>532.0</ele><time>2026-03-22T11:56:01.997Z</time></trkpt><trkpt lat="44.87414954986803" lon="9.508166299006923"><ele>532.0</ele><time>2026-03-22T11:56:02.997Z</time></trkpt><trkpt lat="44.87418971865483" lon="9.508057312170571"><ele>532.0</ele><time>2026-03-22T11:56:04.997Z</time></trkpt><trkpt lat="44.87422562570991" lon="9.507890488256136"><ele>532.0</ele><time>2026-03-22T11:56:07Z</time></trkpt><trkpt lat="44.87423474237478" lon="9.507775880039894"><ele>532.0</ele><time>2026-03-22T11:56:08Z</time></trkpt><trkpt lat="44.874231683979346" lon="9.507608369852626"><ele>532.0</ele><time>2026-03-22T11:56:09Z</time></trkpt><trkpt lat="44.87421098336161" lon="9.507402946164236"><ele>532.0</ele><time>2026-03-22T11:56:10Z</time></trkpt><trkpt lat="44.8741776084049" lon="9.507156930340336"><ele>532.0</ele><time>2026-03-22T11:56:11Z</time></trkpt><trkpt lat="44.874137245497415" lon="9.506871133482106"><ele>533.0</ele><time>2026-03-22T11:56:12Z</time></trkpt><trkpt lat="44.87409752244701" lon="9.506610034193155"><ele>534.0</ele><time>2026-03-22T11:56:13Z</time></trkpt><trkpt lat="44.87406905844567" lon="9.506420596894214"><ele>535.0</ele><time>2026-03-22T11:56:14Z</time></trkpt><trkpt lat="44.87404324467696" lon="9.506248797641254"><ele>535.75</ele><time>2026-03-22T11:56:15Z</time></trkpt><trkpt lat="44.87401088643627" lon="9.506076993572677"><ele>536.5</ele><time>2026-03-22T11:56:16Z</time></trkpt><trkpt lat="44.8739870052261" lon="9.505923926614031"><ele>537.25</ele><time>2026-03-22T11:56:17Z</time></trkpt><trkpt lat="44.873935125554304" lon="9.505771140841855"><ele>538.0</ele><time>2026-03-22T11:56:18Z</time></trkpt><trkpt lat="44.873852609818194" lon="9.505613977548728"><ele>538.0</ele><time>2026-03-22T11:56:19Z</time></trkpt><trkpt lat="44.873783990191875" lon="9.505436725054194"><ele>538.0</ele><time>2026-03-22T11:56:20Z</time></trkpt><trkpt lat="44.873716180826" lon="9.505258585445326"><ele>538.0</ele><time>2026-03-22T11:56:21Z</time></trkpt><trkpt lat="44.87364934172316" lon="9.505102921516205"><ele>538.0</ele><time>2026-03-22T11:56:22Z</time></trkpt><trkpt lat="44.87359235408155" lon="9.504978829399871"><ele>540.4</ele><time>2026-03-22T11:56:23Z</time></trkpt><trkpt lat="44.87352067855498" lon="9.504836238864701"><ele>542.8</ele><time>2026-03-22T11:56:24Z</time></trkpt><trkpt lat="44.873505773156374" lon="9.504709098457237"><ele>545.2</ele><time>2026-03-22T11:56:25Z</time></trkpt><trkpt lat="44.87348693434274" lon="9.504574416699578"><ele>547.6</ele><time>2026-03-22T11:56:27Z</time></trkpt><trkpt lat="44.87351272598744" lon="9.504458627058586"><ele>550.0</ele><time>2026-03-22T11:56:55.999Z</time></trkpt><trkpt lat="44.8735581635116" lon="9.50439526956024"><ele>551.4</ele><time>2026-03-22T11:56:56.999Z</time></trkpt><trkpt lat="44.873668482363" lon="9.504337063174324"><ele>552.8</ele><time>2026-03-22T11:56:58.999Z</time></trkpt><trkpt lat="44.87374128066742" lon="9.504296956782802"><ele>554.2</ele><time>2026-03-22T11:56:59.999Z</time></trkpt><trkpt lat="44.873822939153364" lon="9.504261151803837"><ele>555.6</ele><time>2026-03-22T11:57:00.999Z</time></trkpt><trkpt lat="44.8739050906003" lon="9.504228742114286"><ele>557.0</ele><time>2026-03-22T11:57:01.999Z</time></trkpt><trkpt lat="44.87407504470135" lon="9.504196868294347"><ele>557.0</ele><time>2026-03-22T11:57:02.999Z</time></trkpt><trkpt lat="44.87421201444857" lon="9.504196186341092"><ele>557.0</ele><time>2026-03-22T11:57:03.999Z</time></trkpt><trkpt lat="44.87431024513439" lon="9.5042078017302"><ele>557.0</ele><time>2026-03-22T11:57:04.999Z</time></trkpt><trkpt lat="44.8744036305455" lon="9.504146596756101"><ele>557.0</ele><time>2026-03-22T11:57:05.999Z</time></trkpt><trkpt lat="44.874544784832636" lon="9.504077333647647"><ele>559.75</ele><time>2026-03-22T11:57:06.999Z</time></trkpt><trkpt lat="44.874687816238506" lon="9.50399405167276"><ele>562.5</ele><time>2026-03-22T11:57:07.999Z</time></trkpt><trkpt lat="44.87478387028104" lon="9.503914267638937"><ele>565.25</ele><time>2026-03-22T11:57:08.999Z</time></trkpt><trkpt lat="44.87486496073268" lon="9.503823253760114"><ele>568.0</ele><time>2026-03-22T11:57:09.999Z</time></trkpt><trkpt lat="44.874929452489035" lon="9.503734849763534"><ele>568.5</ele><time>2026-03-22T11:57:10.999Z</time></trkpt><trkpt lat="44.87498560194944" lon="9.503632063787686"><ele>569.0</ele><time>2026-03-22T11:57:11.999Z</time></trkpt><trkpt lat="44.87506280789041" lon="9.503467151812632"><ele>569.5</ele><time>2026-03-22T11:57:12.999Z</time></trkpt><trkpt lat="44.87513129301484" lon="9.503318513017865"><ele>570.0</ele><time>2026-03-22T11:57:13.999Z</time></trkpt><trkpt lat="44.875230613572086" lon="9.5031140045373"><ele>571.8</ele><time>2026-03-22T11:57:14.999Z</time></trkpt><trkpt lat="44.87530796979334" lon="9.502975947219534"><ele>573.6</ele><time>2026-03-22T11:57:15.999Z</time></trkpt><trkpt lat="44.875362357577046" lon="9.502874094971855"><ele>575.4</ele><time>2026-03-22T11:57:16.999Z</time></trkpt><trkpt lat="44.8754035782354" lon="9.5027937976914"><ele>577.2</ele><time>2026-03-22T11:57:17.999Z</time></trkpt><trkpt lat="44.875441383660565" lon="9.502685035688986"><ele>579.0</ele><time>2026-03-22T11:57:19.999Z</time></trkpt><trkpt lat="44.87548684189728" lon="9.502589476065491"><ele>579.0</ele><time>2026-03-22T11:57:21.999Z</time></trkpt><trkpt lat="44.8755500741991" lon="9.502536297681505"><ele>579.0</ele><time>2026-03-22T11:57:23.999Z</time></trkpt><trkpt lat="44.87567352671644" lon="9.502463008447718"><ele>579.0</ele><time>2026-03-22T11:57:25.999Z</time></trkpt><trkpt lat="44.87575121852273" lon="9.502428210170246"><ele>579.0</ele><time>2026-03-22T11:57:26.999Z</time></trkpt><trkpt lat="44.87585696637093" lon="9.502394468971374"><ele>579.0</ele><time>2026-03-22T11:57:27.999Z</time></trkpt><trkpt lat="44.87597335302656" lon="9.502361452087985"><ele>580.5</ele><time>2026-03-22T11:57:28.998Z</time></trkpt><trkpt lat="44.87605452704496" lon="9.502333827275853"><ele>582.0</ele><time>2026-03-22T11:57:29.998Z</time></trkpt><trkpt lat="44.876133481152706" lon="9.5022964752587"><ele>583.5</ele><time>2026-03-22T11:57:30.998Z</time></trkpt><trkpt lat="44.87619820516499" lon="9.50227524253807"><ele>585.0</ele><time>2026-03-22T11:57:31.998Z</time></trkpt><trkpt lat="44.876248576581766" lon="9.502339798774592"><ele>586.5</ele><time>2026-03-22T11:57:32.998Z</time></trkpt><trkpt lat="44.87634263501121" lon="9.502397813863203"><ele>588.0</ele><time>2026-03-22T11:57:33.998Z</time></trkpt><trkpt lat="44.87642997038511" lon="9.502437599811161"><ele>588.0</ele><time>2026-03-22T11:57:34.998Z</time></trkpt><trkpt lat="44.87651868088418" lon="9.502451075727842"><ele>588.0</ele><time>2026-03-22T11:57:35.998Z</time></trkpt><trkpt lat="44.87660687444734" lon="9.50242933382409"><ele>588.0</ele><time>2026-03-22T11:57:37.998Z</time></trkpt><trkpt lat="44.87668023413706" lon="9.502392024108357"><ele>588.0</ele><time>2026-03-22T11:57:38.998Z</time></trkpt><trkpt lat="44.87676508843546" lon="9.502348302361437"><ele>588.0</ele><time>2026-03-22T11:57:39.998Z</time></trkpt><trkpt lat="44.876866171598756" lon="9.502307202305916"><ele>589.8</ele><time>2026-03-22T11:57:40.998Z</time></trkpt><trkpt lat="44.87699121369109" lon="9.502254797686017"><ele>591.5999999999999</ele><time>2026-03-22T11:57:41.998Z</time></trkpt><trkpt lat="44.87711234793295" lon="9.50219059803021"><ele>593.4000000000001</ele><time>2026-03-22T11:57:42.998Z</time></trkpt><trkpt lat="44.87720170955297" lon="9.502151131773859"><ele>595.2</ele><time>2026-03-22T11:57:43.998Z</time></trkpt><trkpt lat="44.87727670225275" lon="9.502118837786947"><ele>597.0</ele><time>2026-03-22T11:57:44.998Z</time></trkpt><trkpt lat="44.877319980498925" lon="9.5020533692008"><ele>597.0</ele><time>2026-03-22T11:57:45.998Z</time></trkpt><trkpt lat="44.87735170742951" lon="9.501966685798797"><ele>597.0</ele><time>2026-03-22T11:57:47.998Z</time></trkpt><trkpt lat="44.87739251046698" lon="9.501885174227375"><ele>597.0</ele><time>2026-03-22T11:57:49.998Z</time></trkpt><trkpt lat="44.87743298187652" lon="9.501781761368743"><ele>597.0</ele><time>2026-03-22T11:57:51.998Z</time></trkpt><trkpt lat="44.87746968665392" lon="9.501634689532553"><ele>597.0</ele><time>2026-03-22T11:57:53.998Z</time></trkpt><trkpt lat="44.8774798275588" lon="9.501540528029496"><ele>597.0</ele><time>2026-03-22T11:57:54.998Z</time></trkpt><trkpt lat="44.877487440729396" lon="9.501413783448688"><ele>597.0</ele><time>2026-03-22T11:57:55.998Z</time></trkpt><trkpt lat="44.87747142019004" lon="9.50126708360875"><ele>597.0</ele><time>2026-03-22T11:57:56.998Z</time></trkpt><trkpt lat="44.87742663487862" lon="9.501045091725445"><ele>597.0</ele><time>2026-03-22T11:57:57.998Z</time></trkpt><trkpt lat="44.87738313448233" lon="9.500820882851029"><ele>597.0</ele><time>2026-03-22T11:57:58.998Z</time></trkpt><trkpt lat="44.87733911926411" lon="9.500588940424725"><ele>598.25</ele><time>2026-03-22T11:57:59.998Z</time></trkpt><trkpt lat="44.87729935189848" lon="9.500379382525422"><ele>599.5</ele><time>2026-03-22T11:58:00.998Z</time></trkpt><trkpt lat="44.877255866265685" lon="9.500183863548045"><ele>600.75</ele><time>2026-03-22T11:58:01.998Z</time></trkpt><trkpt lat="44.87721475707797" lon="9.500010576247366"><ele>602.0</ele><time>2026-03-22T11:58:02.998Z</time></trkpt><trkpt lat="44.87719765068012" lon="9.499841672410309"><ele>602.0</ele><time>2026-03-22T11:58:03.998Z</time></trkpt><trkpt lat="44.877163375006845" lon="9.499708229561302"><ele>602.0</ele><time>2026-03-22T11:58:04.998Z</time></trkpt><trkpt lat="44.87716383085762" lon="9.499574658737668"><ele>602.0</ele><time>2026-03-22T11:58:05.998Z</time></trkpt><trkpt lat="44.87718127764915" lon="9.499374305688082"><ele>602.0</ele><time>2026-03-22T11:58:06.998Z</time></trkpt><trkpt lat="44.87720500526162" lon="9.499127469182215"><ele>602.3333333333333</ele><time>2026-03-22T11:58:07.998Z</time></trkpt><trkpt lat="44.877224218170895" lon="9.498918489903817"><ele>602.6666666666666</ele><time>2026-03-22T11:58:08.998Z</time></trkpt><trkpt lat="44.87726230858457" lon="9.498671231329928"><ele>603.0</ele><time>2026-03-22T11:58:09.998Z</time></trkpt><trkpt lat="44.8773181511251" lon="9.498392255025907"><ele>602.0</ele><time>2026-03-22T11:58:10.997Z</time></trkpt><trkpt lat="44.87735981659619" lon="9.498113812948638"><ele>601.0</ele><time>2026-03-22T11:58:12Z</time></trkpt><trkpt lat="44.87742916537822" lon="9.497828851258236"><ele>600.0</ele><time>2026-03-22T11:58:13Z</time></trkpt><trkpt lat="44.87748592815701" lon="9.497599259334567"><ele>598.6666666666666</ele><time>2026-03-22T11:58:14Z</time></trkpt><trkpt lat="44.87754628121472" lon="9.497347535565488"><ele>597.3333333333333</ele><time>2026-03-22T11:58:15Z</time></trkpt><trkpt lat="44.877621030079354" lon="9.497156247029467"><ele>596.0</ele><time>2026-03-22T11:58:16Z</time></trkpt><trkpt lat="44.87767775380747" lon="9.496986808700768"><ele>596.0</ele><time>2026-03-22T11:58:17Z</time></trkpt><trkpt lat="44.877736200656564" lon="9.49680233733804"><ele>596.0</ele><time>2026-03-22T11:58:18Z</time></trkpt><trkpt lat="44.877834934415255" lon="9.49662375263218"><ele>596.0</ele><time>2026-03-22T11:58:19Z</time></trkpt><trkpt lat="44.877921321956" lon="9.496425949214496"><ele>596.0</ele><time>2026-03-22T11:58:20Z</time></trkpt><trkpt lat="44.87798637104762" lon="9.49625337674493"><ele>596.0</ele><time>2026-03-22T11:58:21Z</time></trkpt><trkpt lat="44.878039113492825" lon="9.496104119584016"><ele>596.0</ele><time>2026-03-22T11:58:22Z</time></trkpt><trkpt lat="44.87807506461888" lon="9.495979031913082"><ele>596.0</ele><time>2026-03-22T11:58:23Z</time></trkpt><trkpt lat="44.87812276120327" lon="9.495843747288326"><ele>594.1666666666666</ele><time>2026-03-22T11:58:24Z</time></trkpt><trkpt lat="44.87816768955623" lon="9.495741639431074"><ele>592.3333333333333</ele><time>2026-03-22T11:58:25Z</time></trkpt><trkpt lat="44.87821432279686" lon="9.495648176023268"><ele>590.5</ele><time>2026-03-22T11:58:26Z</time></trkpt><trkpt lat="44.87825957140715" lon="9.495564633813515"><ele>588.6666666666666</ele><time>2026-03-22T11:58:27Z</time></trkpt><trkpt lat="44.87829804063643" lon="9.495434111583151"><ele>586.8333333333334</ele><time>2026-03-22T11:58:29Z</time></trkpt><trkpt lat="44.8782515105065" lon="9.495368012939286"><ele>585.0</ele><time>2026-03-22T11:58:32Z</time></trkpt><trkpt lat="44.87814497393011" lon="9.495324548955395"><ele>582.4</ele><time>2026-03-22T11:58:34Z</time></trkpt><trkpt lat="44.878036120242335" lon="9.495249568995515"><ele>579.8</ele><time>2026-03-22T11:58:36Z</time></trkpt><trkpt lat="44.87797117460058" lon="9.495228328229578"><ele>577.2</ele><time>2026-03-22T11:58:37Z</time></trkpt><trkpt lat="44.87787403199411" lon="9.495151401030823"><ele>574.6</ele><time>2026-03-22T11:58:39Z</time></trkpt><trkpt lat="44.87778366454187" lon="9.495099599126675"><ele>572.0</ele><time>2026-03-22T11:58:41Z</time></trkpt><trkpt lat="44.877691305733386" lon="9.49505865645414"><ele>571.9999999999999</ele><time>2026-03-22T11:58:43Z</time></trkpt><trkpt lat="44.87763093226447" lon="9.495023347280242"><ele>572.0</ele><time>2026-03-22T11:58:44Z</time></trkpt><trkpt lat="44.877563006082" lon="9.49498148176283"><ele>572.0</ele><time>2026-03-22T11:58:45Z</time></trkpt><trkpt lat="44.877488804394574" lon="9.494926958332945"><ele>572.0</ele><time>2026-03-22T11:58:46Z</time></trkpt><trkpt lat="44.877423643222" lon="9.494866186696274"><ele>572.0</ele><time>2026-03-22T11:58:47Z</time></trkpt><trkpt lat="44.8773651058147" lon="9.494808676943327"><ele>571.9999999999999</ele><time>2026-03-22T11:58:48Z</time></trkpt><trkpt lat="44.87731192785822" lon="9.494735703323807"><ele>572.0</ele><time>2026-03-22T11:58:49Z</time></trkpt><trkpt lat="44.87727589816901" lon="9.494652372977438"><ele>570.0</ele><time>2026-03-22T11:58:50Z</time></trkpt><trkpt lat="44.87720513211813" lon="9.494489337984211"><ele>568.0</ele><time>2026-03-22T11:58:52Z</time></trkpt><trkpt lat="44.877163014442935" lon="9.494389971931266"><ele>566.0</ele><time>2026-03-22T11:58:53Z</time></trkpt><trkpt lat="44.87712377224674" lon="9.494309582582481"><ele>564.0</ele><time>2026-03-22T11:58:54Z</time></trkpt><trkpt lat="44.87708303305366" lon="9.494235415849975"><ele>562.0</ele><time>2026-03-22T11:58:55Z</time></trkpt><trkpt lat="44.87704795211829" lon="9.494152347003043"><ele>560.0</ele><time>2026-03-22T11:58:56Z</time></trkpt><trkpt lat="44.877019879636876" lon="9.494053602614914"><ele>560.0</ele><time>2026-03-22T11:58:57Z</time></trkpt><trkpt lat="44.876987036986634" lon="9.493942392876354"><ele>560.0</ele><time>2026-03-22T11:58:58Z</time></trkpt><trkpt lat="44.876937914166234" lon="9.493813787116768"><ele>560.0</ele><time>2026-03-22T11:58:59Z</time></trkpt><trkpt lat="44.876914759033035" lon="9.49363001249363"><ele>560.0</ele><time>2026-03-22T11:58:59.999Z</time></trkpt><trkpt lat="44.876915939127564" lon="9.49342393508912"><ele>556.5</ele><time>2026-03-22T11:59:00.999Z</time></trkpt><trkpt lat="44.87693682242958" lon="9.493206803209318"><ele>553.0</ele><time>2026-03-22T11:59:01.999Z</time></trkpt><trkpt lat="44.87696737031401" lon="9.493019490856046"><ele>549.5</ele><time>2026-03-22T11:59:02.999Z</time></trkpt><trkpt lat="44.87699692452697" lon="9.492863755647573"><ele>546.0</ele><time>2026-03-22T11:59:03.999Z</time></trkpt><trkpt lat="44.877020269283754" lon="9.49274385450811"><ele>546.0</ele><time>2026-03-22T11:59:04.999Z</time></trkpt><trkpt lat="44.87703556726126" lon="9.492557706947352"><ele>546.0</ele><time>2026-03-22T11:59:06.999Z</time></trkpt><trkpt lat="44.877045639846706" lon="9.492408967798026"><ele>546.0</ele><time>2026-03-22T11:59:07.999Z</time></trkpt><trkpt lat="44.87704619147653" lon="9.492254098327846"><ele>546.0</ele><time>2026-03-22T11:59:08.999Z</time></trkpt><trkpt lat="44.87703948991802" lon="9.492102522789933"><ele>545.8</ele><time>2026-03-22T11:59:09.999Z</time></trkpt><trkpt lat="44.877031990470876" lon="9.491970501441212"><ele>545.6</ele><time>2026-03-22T11:59:10.999Z</time></trkpt><trkpt lat="44.87703262147458" lon="9.491810610584738"><ele>545.4</ele><time>2026-03-22T11:59:11.999Z</time></trkpt><trkpt lat="44.877038793263665" lon="9.491673878033819"><ele>545.2</ele><time>2026-03-22T11:59:12.999Z</time></trkpt><trkpt lat="44.87704885803124" lon="9.491560359195233"><ele>545.0</ele><time>2026-03-22T11:59:13.999Z</time></trkpt><trkpt lat="44.87705662949084" lon="9.491455281811506"><ele>545.0</ele><time>2026-03-22T11:59:14.999Z</time></trkpt><trkpt lat="44.87705906723678" lon="9.49135085693346"><ele>545.0</ele><time>2026-03-22T11:59:15.999Z</time></trkpt><trkpt lat="44.87703926686509" lon="9.49120128977321"><ele>545.0</ele><time>2026-03-22T11:59:17.999Z</time></trkpt><trkpt lat="44.87704670259937" lon="9.491109164304753"><ele>545.0</ele><time>2026-03-22T11:59:18.999Z</time></trkpt><trkpt lat="44.87703847708684" lon="9.49096654134421"><ele>545.0</ele><time>2026-03-22T11:59:19.999Z</time></trkpt><trkpt lat="44.8770554975242" lon="9.49084240507138"><ele>545.0</ele><time>2026-03-22T11:59:20.999Z</time></trkpt><trkpt lat="44.87710074612887" lon="9.4906876917501"><ele>545.8</ele><time>2026-03-22T11:59:21.999Z</time></trkpt><trkpt lat="44.87717561075421" lon="9.490533300506234"><ele>546.6</ele><time>2026-03-22T11:59:22.999Z</time></trkpt><trkpt lat="44.87725701522728" lon="9.490406609708694"><ele>547.4</ele><time>2026-03-22T11:59:23.998Z</time></trkpt><trkpt lat="44.87732252786264" lon="9.490303903466252"><ele>548.2</ele><time>2026-03-22T11:59:24.998Z</time></trkpt><trkpt lat="44.87736753770034" lon="9.490214663070295"><ele>549.0</ele><time>2026-03-22T11:59:25.998Z</time></trkpt><trkpt lat="44.877395655776155" lon="9.490125826494022"><ele>549.8</ele><time>2026-03-22T11:59:26.998Z</time></trkpt><trkpt lat="44.877411299581084" lon="9.490010100937532"><ele>550.5999999999999</ele><time>2026-03-22T11:59:27.998Z</time></trkpt><trkpt lat="44.877396284564064" lon="9.489886275472223"><ele>551.4</ele><time>2026-03-22T11:59:28.998Z</time></trkpt><trkpt lat="44.87735239284989" lon="9.489741228695166"><ele>552.1999999999999</ele><time>2026-03-22T11:59:29.998Z</time></trkpt><trkpt lat="44.87729575470331" lon="9.48958502418049"><ele>553.0</ele><time>2026-03-22T11:59:30.998Z</time></trkpt><trkpt lat="44.87725108041717" lon="9.489444494445406"><ele>553.0</ele><time>2026-03-22T11:59:31.998Z</time></trkpt><trkpt lat="44.87720604203908" lon="9.489330686384333"><ele>553.0</ele><time>2026-03-22T11:59:32.998Z</time></trkpt><trkpt lat="44.87715479515221" lon="9.489199681490922"><ele>553.0</ele><time>2026-03-22T11:59:33.998Z</time></trkpt><trkpt lat="44.8770996987434" lon="9.489045293033866"><ele>553.0</ele><time>2026-03-22T11:59:34.998Z</time></trkpt><trkpt lat="44.877041113665136" lon="9.488886032263139"><ele>553.0</ele><time>2026-03-22T11:59:35.998Z</time></trkpt><trkpt lat="44.87698690646466" lon="9.48872733926269"><ele>551.5</ele><time>2026-03-22T11:59:36.998Z</time></trkpt><trkpt lat="44.876937662151576" lon="9.488599109365285"><ele>550.0</ele><time>2026-03-22T11:59:37.998Z</time></trkpt><trkpt lat="44.87689582646796" lon="9.48846965060087"><ele>548.5</ele><time>2026-03-22T11:59:38.998Z</time></trkpt><trkpt lat="44.87686221409195" lon="9.488353670680006"><ele>547.0</ele><time>2026-03-22T11:59:39.998Z</time></trkpt><trkpt lat="44.87683576185466" lon="9.488245141144533"><ele>545.5</ele><time>2026-03-22T11:59:40.998Z</time></trkpt><trkpt lat="44.87681036249906" lon="9.488149757025722"><ele>544.0</ele><time>2026-03-22T11:59:41.998Z</time></trkpt><trkpt lat="44.87678668863276" lon="9.488037876765985"><ele>545.75</ele><time>2026-03-22T11:59:42.997Z</time></trkpt><trkpt lat="44.87674918975677" lon="9.487870164409241"><ele>547.5</ele><time>2026-03-22T11:59:43.997Z</time></trkpt><trkpt lat="44.876749765297255" lon="9.487658591014482"><ele>549.25</ele><time>2026-03-22T11:59:44.997Z</time></trkpt><trkpt lat="44.87672136985913" lon="9.487446695197146"><ele>551.0</ele><time>2026-03-22T11:59:45.997Z</time></trkpt><trkpt lat="44.87666118914445" lon="9.487174960085609"><ele>551.6666666666666</ele><time>2026-03-22T11:59:46.997Z</time></trkpt><trkpt lat="44.87656096367018" lon="9.486880357297673"><ele>552.3333333333334</ele><time>2026-03-22T11:59:47.997Z</time></trkpt><trkpt lat="44.876480290267594" lon="9.486625854364911"><ele>553.0</ele><time>2026-03-22T11:59:48.997Z</time></trkpt><trkpt lat="44.87640732952202" lon="9.486448311954632"><ele>553.0</ele><time>2026-03-22T11:59:49.997Z</time></trkpt><trkpt lat="44.87633476287713" lon="9.486313285120323"><ele>553.0</ele><time>2026-03-22T11:59:50.997Z</time></trkpt><trkpt lat="44.87625094117236" lon="9.486180431624131"><ele>553.0</ele><time>2026-03-22T11:59:51.997Z</time></trkpt><trkpt lat="44.87614579332775" lon="9.48603851688901"><ele>553.0</ele><time>2026-03-22T11:59:52.997Z</time></trkpt><trkpt lat="44.87605460997871" lon="9.485904302995639"><ele>552.75</ele><time>2026-03-22T11:59:53.997Z</time></trkpt><trkpt lat="44.87597567803532" lon="9.48576608176436"><ele>552.5</ele><time>2026-03-22T11:59:54.997Z</time></trkpt><trkpt lat="44.875910847791495" lon="9.48557040985931"><ele>552.25</ele><time>2026-03-22T11:59:55.997Z</time></trkpt><trkpt lat="44.87586958859909" lon="9.485357683976305"><ele>552.0</ele><time>2026-03-22T11:59:56.997Z</time></trkpt><trkpt lat="44.875826387024794" lon="9.48512366090891"><ele>552.6666666666666</ele><time>2026-03-22T11:59:57.997Z</time></trkpt><trkpt lat="44.875759851593884" lon="9.484912519810543"><ele>553.3333333333333</ele><time>2026-03-22T11:59:58.997Z</time></trkpt><trkpt lat="44.875688135185655" lon="9.48472672664572"><ele>554.0</ele><time>2026-03-22T11:59:59.997Z</time></trkpt><trkpt lat="44.875629975390765" lon="9.484523953055664"><ele>555.0</ele><time>2026-03-22T12:00:00.997Z</time></trkpt><trkpt lat="44.875563731609816" lon="9.484311008246705"><ele>556.0</ele><time>2026-03-22T12:00:01.997Z</time></trkpt><trkpt lat="44.875531492881386" lon="9.484064009880957"><ele>557.0</ele><time>2026-03-22T12:00:02.997Z</time></trkpt><trkpt lat="44.87548817169581" lon="9.48384488469179"><ele>555.25</ele><time>2026-03-22T12:00:03.997Z</time></trkpt><trkpt lat="44.8754579332907" lon="9.483643137961277"><ele>553.5</ele><time>2026-03-22T12:00:04.997Z</time></trkpt><trkpt lat="44.87541537052215" lon="9.48345807467095"><ele>551.75</ele><time>2026-03-22T12:00:05.997Z</time></trkpt><trkpt lat="44.8753892349541" lon="9.483275042808256"><ele>550.0</ele><time>2026-03-22T12:00:06.997Z</time></trkpt><trkpt lat="44.87536630677925" lon="9.483111110756738"><ele>550.0</ele><time>2026-03-22T12:00:07.997Z</time></trkpt><trkpt lat="44.87534379233282" lon="9.482936097545974"><ele>550.0</ele><time>2026-03-22T12:00:08.997Z</time></trkpt><trkpt lat="44.875317490099434" lon="9.482755484634998"><ele>550.0</ele><time>2026-03-22T12:00:09.997Z</time></trkpt><trkpt lat="44.875279264995214" lon="9.482604516238904"><ele>550.0</ele><time>2026-03-22T12:00:10.997Z</time></trkpt><trkpt lat="44.87522284703987" lon="9.482461886434926"><ele>549.5</ele><time>2026-03-22T12:00:11.997Z</time></trkpt><trkpt lat="44.87512393797999" lon="9.48234275250202"><ele>549.0</ele><time>2026-03-22T12:00:12.997Z</time></trkpt><trkpt lat="44.875020259359346" lon="9.482226768711064"><ele>548.5</ele><time>2026-03-22T12:00:13.997Z</time></trkpt><trkpt lat="44.874908116399794" lon="9.482124165695677"><ele>548.0</ele><time>2026-03-22T12:00:14.997Z</time></trkpt><trkpt lat="44.874762358617396" lon="9.48205573192532"><ele>548.0</ele><time>2026-03-22T12:00:15.997Z</time></trkpt><trkpt lat="44.87460603282343" lon="9.481999782924854"><ele>548.0</ele><time>2026-03-22T12:00:16.997Z</time></trkpt><trkpt lat="44.87445528956734" lon="9.481972458709398"><ele>548.0</ele><time>2026-03-22T12:00:18Z</time></trkpt><trkpt lat="44.87432284026368" lon="9.481932561835702"><ele>548.0</ele><time>2026-03-22T12:00:19Z</time></trkpt><trkpt lat="44.874196103194066" lon="9.481837707288872"><ele>546.0</ele><time>2026-03-22T12:00:20Z</time></trkpt><trkpt lat="44.874067345756806" lon="9.48173191958852"><ele>544.0</ele><time>2026-03-22T12:00:21Z</time></trkpt><trkpt lat="44.87394859530493" lon="9.481608380277057"><ele>542.0</ele><time>2026-03-22T12:00:22Z</time></trkpt><trkpt lat="44.87383491242508" lon="9.481504805482766"><ele>540.0</ele><time>2026-03-22T12:00:23Z</time></trkpt><trkpt lat="44.873734187041755" lon="9.481400134550682"><ele>540.0</ele><time>2026-03-22T12:00:24Z</time></trkpt><trkpt lat="44.87363548302348" lon="9.481295847040247"><ele>540.0</ele><time>2026-03-22T12:00:25Z</time></trkpt><trkpt lat="44.87354466078385" lon="9.481200328461915"><ele>540.0</ele><time>2026-03-22T12:00:26Z</time></trkpt><trkpt lat="44.87345620332964" lon="9.481079728148602"><ele>540.0</ele><time>2026-03-22T12:00:27Z</time></trkpt><trkpt lat="44.873379789388196" lon="9.480940997088638"><ele>536.5</ele><time>2026-03-22T12:00:28Z</time></trkpt><trkpt lat="44.87331422972536" lon="9.480789570717471"><ele>533.0</ele><time>2026-03-22T12:00:29Z</time></trkpt><trkpt lat="44.87325214261543" lon="9.480643975425176"><ele>529.5</ele><time>2026-03-22T12:00:30Z</time></trkpt><trkpt lat="44.873196318374" lon="9.480501826847778"><ele>526.0</ele><time>2026-03-22T12:00:31Z</time></trkpt><trkpt lat="44.87314651878763" lon="9.480364174841124"><ele>524.6666666666667</ele><time>2026-03-22T12:00:32Z</time></trkpt><trkpt lat="44.87310197529706" lon="9.480248533180548"><ele>523.3333333333334</ele><time>2026-03-22T12:00:33Z</time></trkpt><trkpt lat="44.87305646788879" lon="9.480138030163443"><ele>522.0</ele><time>2026-03-22T12:00:34Z</time></trkpt><trkpt lat="44.873018509058646" lon="9.480034628933364"><ele>520.6666666666666</ele><time>2026-03-22T12:00:34.999Z</time></trkpt><trkpt lat="44.872982427475385" lon="9.479940692215667"><ele>519.3333333333333</ele><time>2026-03-22T12:00:35.999Z</time></trkpt><trkpt lat="44.87292013175854" lon="9.479831015257405"><ele>518.0</ele><time>2026-03-22T12:00:37.999Z</time></trkpt><trkpt lat="44.872951612845576" lon="9.47970873122007"><ele>518.0</ele><time>2026-03-22T12:00:38.999Z</time></trkpt><trkpt lat="44.872949326535156" lon="9.479608626832666"><ele>518.0</ele><time>2026-03-22T12:00:39.999Z</time></trkpt><trkpt lat="44.87294781592468" lon="9.479483290459353"><ele>518.0</ele><time>2026-03-22T12:00:40.999Z</time></trkpt><trkpt lat="44.87293839501052" lon="9.479302598059364"><ele>518.0</ele><time>2026-03-22T12:00:41.999Z</time></trkpt><trkpt lat="44.87291224497249" lon="9.479136323133941"><ele>518.0</ele><time>2026-03-22T12:00:42.999Z</time></trkpt><trkpt lat="44.87287247198193" lon="9.478947227254032"><ele>515.6666666666666</ele><time>2026-03-22T12:00:43.999Z</time></trkpt><trkpt lat="44.87283777989659" lon="9.47874919668687"><ele>513.3333333333334</ele><time>2026-03-22T12:00:44.999Z</time></trkpt><trkpt lat="44.872829335028946" lon="9.478525798729128"><ele>511.0</ele><time>2026-03-22T12:00:45.999Z</time></trkpt><trkpt lat="44.87283546995301" lon="9.478285083974892"><ele>511.0</ele><time>2026-03-22T12:00:46.999Z</time></trkpt><trkpt lat="44.87280512509842" lon="9.478125723908686"><ele>511.0</ele><time>2026-03-22T12:00:47.999Z</time></trkpt><trkpt lat="44.87279751020937" lon="9.477960938266902"><ele>511.0</ele><time>2026-03-22T12:00:48.999Z</time></trkpt><trkpt lat="44.872755903625986" lon="9.47783331274156"><ele>511.0</ele><time>2026-03-22T12:00:49.999Z</time></trkpt><trkpt lat="44.87268453115215" lon="9.477672176030632"><ele>518.75</ele><time>2026-03-22T12:00:50.999Z</time></trkpt><trkpt lat="44.87260125967587" lon="9.477471021606872"><ele>526.5</ele><time>2026-03-22T12:00:51.999Z</time></trkpt><trkpt lat="44.872528469882845" lon="9.47730463290122"><ele>534.25</ele><time>2026-03-22T12:00:52.999Z</time></trkpt><trkpt lat="44.87246217521423" lon="9.477177554134757"><ele>542.0</ele><time>2026-03-22T12:00:54.999Z</time></trkpt><trkpt lat="44.87235604718764" lon="9.477115732515658"><ele>542.0</ele><time>2026-03-22T12:00:56.999Z</time></trkpt><trkpt lat="44.87228143505188" lon="9.477119839774868"><ele>542.0</ele><time>2026-03-22T12:00:57.999Z</time></trkpt><trkpt lat="44.87217509746653" lon="9.47706330212491"><ele>542.0</ele><time>2026-03-22T12:00:59.999Z</time></trkpt><trkpt lat="44.87210955262991" lon="9.476980622198923"><ele>542.0</ele><time>2026-03-22T12:01:00.999Z</time></trkpt><trkpt lat="44.872039079086505" lon="9.476897804109987"><ele>542.0</ele><time>2026-03-22T12:01:01.999Z</time></trkpt><trkpt lat="44.87197517065319" lon="9.476835495751464"><ele>542.0</ele><time>2026-03-22T12:01:02.999Z</time></trkpt><trkpt lat="44.871907075977866" lon="9.476762754957932"><ele>540.25</ele><time>2026-03-22T12:01:03.999Z</time></trkpt><trkpt lat="44.871859386367326" lon="9.476677587924906"><ele>538.5</ele><time>2026-03-22T12:01:04.999Z</time></trkpt><trkpt lat="44.87180716982066" lon="9.476454358858952"><ele>536.75</ele><time>2026-03-22T12:01:06.999Z</time></trkpt><trkpt lat="44.871794514738376" lon="9.47631033124739"><ele>535.0</ele><time>2026-03-22T12:01:07.999Z</time></trkpt><trkpt lat="44.87174791554427" lon="9.476137963536143"><ele>535.0</ele><time>2026-03-22T12:01:08.999Z</time></trkpt><trkpt lat="44.87169965420845" lon="9.475977950584486"><ele>535.0</ele><time>2026-03-22T12:01:09.999Z</time></trkpt><trkpt lat="44.87164373253306" lon="9.475829404317405"><ele>535.0</ele><time>2026-03-22T12:01:10.999Z</time></trkpt><trkpt lat="44.8715844054091" lon="9.475655671009296"><ele>535.0</ele><time>2026-03-22T12:01:11.999Z</time></trkpt><trkpt lat="44.87152891645178" lon="9.475475887176678"><ele>534.5</ele><time>2026-03-22T12:01:12.999Z</time></trkpt><trkpt lat="44.87148084203937" lon="9.475303012635061"><ele>534.0</ele><time>2026-03-22T12:01:13.999Z</time></trkpt><trkpt lat="44.8714071264477" lon="9.475102286134275"><ele>533.5</ele><time>2026-03-22T12:01:14.999Z</time></trkpt><trkpt lat="44.871362080065616" lon="9.474966835922514"><ele>533.0</ele><time>2026-03-22T12:01:15.999Z</time></trkpt><trkpt lat="44.87130508771239" lon="9.474795858839304"><ele>533.0</ele><time>2026-03-22T12:01:16.999Z</time></trkpt><trkpt lat="44.87125027784096" lon="9.4746224670469"><ele>533.0</ele><time>2026-03-22T12:01:17.998Z</time></trkpt><trkpt lat="44.87118991164655" lon="9.474470655640923"><ele>533.0</ele><time>2026-03-22T12:01:18.998Z</time></trkpt><trkpt lat="44.871146665407466" lon="9.47431761414918"><ele>533.0</ele><time>2026-03-22T12:01:19.998Z</time></trkpt><trkpt lat="44.87113018876151" lon="9.47415509583836"><ele>532.6</ele><time>2026-03-22T12:01:20.998Z</time></trkpt><trkpt lat="44.87112482795408" lon="9.47398173487784"><ele>532.1999999999999</ele><time>2026-03-22T12:01:21.998Z</time></trkpt><trkpt lat="44.87114084329499" lon="9.473823758976339"><ele>531.8</ele><time>2026-03-22T12:01:22.998Z</time></trkpt><trkpt lat="44.871150633390236" lon="9.473717740011896"><ele>531.4</ele><time>2026-03-22T12:01:23.998Z</time></trkpt><trkpt lat="44.871153172687556" lon="9.473622745364866"><ele>531.0</ele><time>2026-03-22T12:01:24.998Z</time></trkpt><trkpt lat="44.87114272423042" lon="9.473504297416158"><ele>531.6</ele><time>2026-03-22T12:01:25.998Z</time></trkpt><trkpt lat="44.871078836609335" lon="9.473362798847882"><ele>532.2</ele><time>2026-03-22T12:01:26.998Z</time></trkpt><trkpt lat="44.87100581682634" lon="9.473241881205215"><ele>532.8</ele><time>2026-03-22T12:01:27.998Z</time></trkpt><trkpt lat="44.87095218930386" lon="9.473115321009919"><ele>533.4</ele><time>2026-03-22T12:01:28.998Z</time></trkpt><trkpt lat="44.87088291009452" lon="9.473013044550267"><ele>534.0</ele><time>2026-03-22T12:01:29.998Z</time></trkpt><trkpt lat="44.870806558813214" lon="9.472897579301222"><ele>534.0</ele><time>2026-03-22T12:01:30.998Z</time></trkpt><trkpt lat="44.87072778495392" lon="9.472769564049042"><ele>534.0</ele><time>2026-03-22T12:01:31.998Z</time></trkpt><trkpt lat="44.87065305650285" lon="9.472638162501937"><ele>534.0</ele><time>2026-03-22T12:01:32.998Z</time></trkpt><trkpt lat="44.8705846453479" lon="9.472539104825302"><ele>534.0</ele><time>2026-03-22T12:01:33.998Z</time></trkpt><trkpt lat="44.87049983380444" lon="9.472470499837888"><ele>534.0</ele><time>2026-03-22T12:01:34.998Z</time></trkpt><trkpt lat="44.87037456654789" lon="9.472386149167258"><ele>534.0</ele><time>2026-03-22T12:01:35.998Z</time></trkpt><trkpt lat="44.87026226054965" lon="9.472326886466265"><ele>534.0</ele><time>2026-03-22T12:01:36.998Z</time></trkpt><trkpt lat="44.87016199151259" lon="9.472256348366342"><ele>534.0</ele><time>2026-03-22T12:01:37.998Z</time></trkpt><trkpt lat="44.87010395026614" lon="9.472162717744034"><ele>534.0</ele><time>2026-03-22T12:01:38.998Z</time></trkpt><trkpt lat="44.87002288110411" lon="9.472092133476757"><ele>534.0</ele><time>2026-03-22T12:01:39.998Z</time></trkpt><trkpt lat="44.86991376232452" lon="9.472028764668364"><ele>535.0</ele><time>2026-03-22T12:01:40.998Z</time></trkpt><trkpt lat="44.8697945858869" lon="9.471982395816033"><ele>536.0</ele><time>2026-03-22T12:01:41.998Z</time></trkpt><trkpt lat="44.86970764338158" lon="9.471891874417654"><ele>537.0</ele><time>2026-03-22T12:01:42.998Z</time></trkpt><trkpt lat="44.86963129982919" lon="9.47177244684629"><ele>538.0</ele><time>2026-03-22T12:01:43.998Z</time></trkpt><trkpt lat="44.869539411097776" lon="9.47167678580531"><ele>538.0</ele><time>2026-03-22T12:01:44.998Z</time></trkpt><trkpt lat="44.86945988492128" lon="9.471597547935419"><ele>538.0</ele><time>2026-03-22T12:01:45.998Z</time></trkpt><trkpt lat="44.869384614427986" lon="9.47152212345267"><ele>538.0</ele><time>2026-03-22T12:01:46.998Z</time></trkpt><trkpt lat="44.86931572390859" lon="9.471453068426909"><ele>538.0</ele><time>2026-03-22T12:01:47.998Z</time></trkpt><trkpt lat="44.86923070679126" lon="9.471369245106574"><ele>538.0</ele><time>2026-03-22T12:01:48.998Z</time></trkpt><trkpt lat="44.869141877988" lon="9.471308225095564"><ele>541.3333333333334</ele><time>2026-03-22T12:01:49.998Z</time></trkpt><trkpt lat="44.86906791030453" lon="9.47124273628413"><ele>544.6666666666667</ele><time>2026-03-22T12:01:50.998Z</time></trkpt><trkpt lat="44.868983385397215" lon="9.471208683450396"><ele>548.0</ele><time>2026-03-22T12:01:51.998Z</time></trkpt><trkpt lat="44.86890202532667" lon="9.471146720436368"><ele>551.3333333333334</ele><time>2026-03-22T12:01:52.998Z</time></trkpt><trkpt lat="44.86883576451639" lon="9.47107004752253"><ele>554.6666666666666</ele><time>2026-03-22T12:01:53.998Z</time></trkpt><trkpt lat="44.868767159312355" lon="9.471003505654723"><ele>558.0</ele><time>2026-03-22T12:01:54.998Z</time></trkpt><trkpt lat="44.86869543261051" lon="9.470905210896564"><ele>557.9999999999999</ele><time>2026-03-22T12:01:55.998Z</time></trkpt><trkpt lat="44.8686190876405" lon="9.470818405112906"><ele>558.0</ele><time>2026-03-22T12:01:56.998Z</time></trkpt><trkpt lat="44.868564767841775" lon="9.470754354365045"><ele>558.0</ele><time>2026-03-22T12:01:57.998Z</time></trkpt><trkpt lat="44.868508320467676" lon="9.470686888474038"><ele>558.0</ele><time>2026-03-22T12:01:58.998Z</time></trkpt><trkpt lat="44.86845908665868" lon="9.470615347215295"><ele>558.0</ele><time>2026-03-22T12:01:59.997Z</time></trkpt><trkpt lat="44.8684139801516" lon="9.470535485906609"><ele>557.9999999999999</ele><time>2026-03-22T12:02:00.997Z</time></trkpt><trkpt lat="44.86836079169135" lon="9.47048637853541"><ele>558.0</ele><time>2026-03-22T12:02:01.997Z</time></trkpt><trkpt lat="44.86829640938494" lon="9.470425867514908"><ele>561.8333333333334</ele><time>2026-03-22T12:02:02.997Z</time></trkpt><trkpt lat="44.868228792215696" lon="9.470376874827235"><ele>565.6666666666666</ele><time>2026-03-22T12:02:03.997Z</time></trkpt><trkpt lat="44.86817382266253" lon="9.470315968116333"><ele>569.5</ele><time>2026-03-22T12:02:04.997Z</time></trkpt><trkpt lat="44.868073744604196" lon="9.470250096394489"><ele>573.3333333333333</ele><time>2026-03-22T12:02:06.997Z</time></trkpt><trkpt lat="44.86800120672392" lon="9.47013236130397"><ele>577.1666666666666</ele><time>2026-03-22T12:02:08.997Z</time></trkpt><trkpt lat="44.86799433701803" lon="9.47004058507166"><ele>581.0</ele><time>2026-03-22T12:02:09.997Z</time></trkpt><trkpt lat="44.86799106475719" lon="9.469930229196162"><ele>581.0</ele><time>2026-03-22T12:02:10.997Z</time></trkpt><trkpt lat="44.86797656327564" lon="9.469823707045814"><ele>581.0</ele><time>2026-03-22T12:02:11.997Z</time></trkpt><trkpt lat="44.867977302511406" lon="9.469717278158447"><ele>581.0</ele><time>2026-03-22T12:02:13.997Z</time></trkpt><trkpt lat="44.86803437792482" lon="9.469637395397319"><ele>581.0</ele><time>2026-03-22T12:03:03.999Z</time></trkpt><trkpt lat="44.86804212142279" lon="9.46952671925201"><ele>581.0</ele><time>2026-03-22T12:03:05.999Z</time></trkpt><trkpt lat="44.868039628697815" lon="9.469437094112177"><ele>581.0</ele><time>2026-03-22T12:03:06.999Z</time></trkpt><trkpt lat="44.86801793801966" lon="9.469313075521294"><ele>582.0</ele><time>2026-03-22T12:03:07.999Z</time></trkpt><trkpt lat="44.86795579072827" lon="9.46916313322572"><ele>583.0</ele><time>2026-03-22T12:03:08.999Z</time></trkpt><trkpt lat="44.867923076920945" lon="9.468983795384206"><ele>584.0</ele><time>2026-03-22T12:03:09.999Z</time></trkpt><trkpt lat="44.867884287565964" lon="9.468795144895031"><ele>585.0</ele><time>2026-03-22T12:03:10.999Z</time></trkpt><trkpt lat="44.86784888715144" lon="9.468627545319707"><ele>586.25</ele><time>2026-03-22T12:03:11.999Z</time></trkpt><trkpt lat="44.867811993101455" lon="9.468445871063874"><ele>587.5</ele><time>2026-03-22T12:03:12.999Z</time></trkpt><trkpt lat="44.8678041292961" lon="9.468256520815375"><ele>588.75</ele><time>2026-03-22T12:03:13.999Z</time></trkpt><trkpt lat="44.86780333229733" lon="9.468087612057541"><ele>590.0</ele><time>2026-03-22T12:03:14.999Z</time></trkpt><trkpt lat="44.867783307758046" lon="9.467924129832149"><ele>592.0</ele><time>2026-03-22T12:03:15.999Z</time></trkpt><trkpt lat="44.86774976714742" lon="9.467764580668918"><ele>594.0</ele><time>2026-03-22T12:03:16.999Z</time></trkpt><trkpt lat="44.86774433438454" lon="9.467606142642268"><ele>596.0</ele><time>2026-03-22T12:03:17.999Z</time></trkpt><trkpt lat="44.86773003988598" lon="9.467481920592032"><ele>598.0</ele><time>2026-03-22T12:03:18.999Z</time></trkpt><trkpt lat="44.86771720891661" lon="9.467368222703277"><ele>600.0</ele><time>2026-03-22T12:03:19.999Z</time></trkpt><trkpt lat="44.86770620962059" lon="9.467270755928887"><ele>600.0</ele><time>2026-03-22T12:03:20.999Z</time></trkpt><trkpt lat="44.8676920110147" lon="9.467165947063966"><ele>600.0</ele><time>2026-03-22T12:03:21.999Z</time></trkpt><trkpt lat="44.8676632299389" lon="9.466990498592553"><ele>600.0</ele><time>2026-03-22T12:03:23.999Z</time></trkpt><trkpt lat="44.867640958687296" lon="9.466894766847009"><ele>600.0</ele><time>2026-03-22T12:03:24.999Z</time></trkpt><trkpt lat="44.86760625550913" lon="9.46676745952959"><ele>600.0</ele><time>2026-03-22T12:03:25.999Z</time></trkpt><trkpt lat="44.8675926827609" lon="9.466662848023322"><ele>600.0</ele><time>2026-03-22T12:03:26.999Z</time></trkpt><trkpt lat="44.86755512322309" lon="9.4665188545984"><ele>602.5714285714286</ele><time>2026-03-22T12:03:28.999Z</time></trkpt><trkpt lat="44.86753847929789" lon="9.466428517655862"><ele>605.1428571428571</ele><time>2026-03-22T12:03:29.999Z</time></trkpt><trkpt lat="44.86752273570928" lon="9.46633585557012"><ele>607.7142857142858</ele><time>2026-03-22T12:03:30.999Z</time></trkpt><trkpt lat="44.86750737844268" lon="9.46623253693589"><ele>610.2857142857142</ele><time>2026-03-22T12:03:31.999Z</time></trkpt><trkpt lat="44.867508265493505" lon="9.466128000281998"><ele>612.8571428571429</ele><time>2026-03-22T12:03:32.999Z</time></trkpt><trkpt lat="44.86748652591246" lon="9.466034263622282"><ele>615.4285714285714</ele><time>2026-03-22T12:03:33.999Z</time></trkpt><trkpt lat="44.86748299877275" lon="9.465933964322055"><ele>618.0</ele><time>2026-03-22T12:03:34.999Z</time></trkpt><trkpt lat="44.86748026579879" lon="9.46582534194169"><ele>618.8</ele><time>2026-03-22T12:03:35.999Z</time></trkpt><trkpt lat="44.867478002753415" lon="9.465708984089277"><ele>619.5999999999999</ele><time>2026-03-22T12:03:36.998Z</time></trkpt><trkpt lat="44.86747487129984" lon="9.465577708220762"><ele>620.4000000000001</ele><time>2026-03-22T12:03:37.998Z</time></trkpt><trkpt lat="44.86747037731322" lon="9.465468827725386"><ele>621.2</ele><time>2026-03-22T12:03:38.998Z</time></trkpt><trkpt lat="44.867591765083844" lon="9.465482422350197"><ele>622.0</ele><time>2026-03-22T12:04:05.998Z</time></trkpt><trkpt lat="44.86764910182557" lon="9.46558704689816"><ele>622.0</ele><time>2026-03-22T12:04:06.998Z</time></trkpt><trkpt lat="44.86769957640978" lon="9.465675728049511"><ele>622.0</ele><time>2026-03-22T12:04:07.998Z</time></trkpt><trkpt lat="44.86776396830994" lon="9.465626689496002"><ele>622.0</ele><time>2026-03-22T12:04:11.998Z</time></trkpt><trkpt lat="44.867702321606814" lon="9.465526179996468"><ele>622.0</ele><time>2026-03-22T12:04:14.998Z</time></trkpt><trkpt lat="44.86763298741366" lon="9.465592983008912"><ele>622.0</ele><time>2026-03-22T12:06:53.999Z</time></trkpt><trkpt lat="44.86757747027766" lon="9.465529808584492"><ele>622.0</ele><time>2026-03-22T12:06:55.999Z</time></trkpt><trkpt lat="44.8675282091325" lon="9.465436643040265"><ele>623.6666666666667</ele><time>2026-03-22T12:06:59.999Z</time></trkpt><trkpt lat="44.86742634649402" lon="9.465321496701259"><ele>625.3333333333334</ele><time>2026-03-22T12:07:01.999Z</time></trkpt><trkpt lat="44.86736483178999" lon="9.465277666742956"><ele>627.0</ele><time>2026-03-22T12:07:02.999Z</time></trkpt><trkpt lat="44.86731024846538" lon="9.465209701490167"><ele>628.6666666666666</ele><time>2026-03-22T12:07:03.999Z</time></trkpt><trkpt lat="44.86724821593265" lon="9.465169262687006"><ele>630.3333333333333</ele><time>2026-03-22T12:07:04.999Z</time></trkpt><trkpt lat="44.86717552712343" lon="9.46512072930737"><ele>632.0</ele><time>2026-03-22T12:07:05.999Z</time></trkpt><trkpt lat="44.867062731268135" lon="9.465075175474444"><ele>632.0</ele><time>2026-03-22T12:07:06.999Z</time></trkpt><trkpt lat="44.866975013659335" lon="9.465040545140951"><ele>632.0</ele><time>2026-03-22T12:07:07.999Z</time></trkpt><trkpt lat="44.866882618390704" lon="9.465016378041431"><ele>632.0</ele><time>2026-03-22T12:07:09.999Z</time></trkpt><trkpt lat="44.86678876307527" lon="9.465008777595742"><ele>632.0</ele><time>2026-03-22T12:07:50.998Z</time></trkpt><trkpt lat="44.86672464788296" lon="9.465010602147963"><ele>632.0</ele><time>2026-03-22T12:07:51.998Z</time></trkpt><trkpt lat="44.866643734521105" lon="9.464994613776916"><ele>632.0</ele><time>2026-03-22T12:07:52.998Z</time></trkpt><trkpt lat="44.86656465950585" lon="9.464962225605085"><ele>634.3333333333333</ele><time>2026-03-22T12:07:53.998Z</time></trkpt><trkpt lat="44.8664940806765" lon="9.464921163578074"><ele>636.6666666666666</ele><time>2026-03-22T12:07:54.998Z</time></trkpt><trkpt lat="44.86643620201621" lon="9.4648825587176"><ele>639.0</ele><time>2026-03-22T12:07:55.998Z</time></trkpt><trkpt lat="44.86634438428668" lon="9.46481729238036"><ele>641.3333333333334</ele><time>2026-03-22T12:07:57.998Z</time></trkpt><trkpt lat="44.866221191902646" lon="9.464741903373147"><ele>643.6666666666667</ele><time>2026-03-22T12:07:59.998Z</time></trkpt><trkpt lat="44.866167184229894" lon="9.464676953135818"><ele>646.0</ele><time>2026-03-22T12:08:00.998Z</time></trkpt><trkpt lat="44.866141854381034" lon="9.464585176478739"><ele>647.6666666666667</ele><time>2026-03-22T12:08:01.998Z</time></trkpt><trkpt lat="44.86611887807094" lon="9.464500009901629"><ele>649.3333333333334</ele><time>2026-03-22T12:08:02.998Z</time></trkpt><trkpt lat="44.86611565671689" lon="9.464400768940196"><ele>651.0</ele><time>2026-03-22T12:08:03.998Z</time></trkpt><trkpt lat="44.86611960499157" lon="9.464307714843981"><ele>652.6666666666666</ele><time>2026-03-22T12:08:04.998Z</time></trkpt><trkpt lat="44.866136647150846" lon="9.46415341087198"><ele>654.3333333333333</ele><time>2026-03-22T12:08:05.998Z</time></trkpt><trkpt lat="44.866185174799625" lon="9.463993115223893"><ele>656.0</ele><time>2026-03-22T12:08:06.998Z</time></trkpt><trkpt lat="44.86623904964924" lon="9.463856927260299"><ele>654.6666666666666</ele><time>2026-03-22T12:08:07.998Z</time></trkpt><trkpt lat="44.866286697126775" lon="9.463723483470522"><ele>653.3333333333333</ele><time>2026-03-22T12:08:08.998Z</time></trkpt><trkpt lat="44.866319687054464" lon="9.463584655909425"><ele>652.0</ele><time>2026-03-22T12:08:09.998Z</time></trkpt><trkpt lat="44.866340799521666" lon="9.463472025867073"><ele>650.6666666666666</ele><time>2026-03-22T12:08:10.997Z</time></trkpt><trkpt lat="44.86633420980622" lon="9.463370839057847"><ele>649.3333333333334</ele><time>2026-03-22T12:08:11.997Z</time></trkpt><trkpt lat="44.86631725754519" lon="9.46327829067338"><ele>648.0</ele><time>2026-03-22T12:08:12.997Z</time></trkpt><trkpt lat="44.86631240025035" lon="9.463187952021926"><ele>648.0</ele><time>2026-03-22T12:08:13.997Z</time></trkpt><trkpt lat="44.86632343720007" lon="9.463078962665692"><ele>648.0</ele><time>2026-03-22T12:08:14.997Z</time></trkpt><trkpt lat="44.866358717221495" lon="9.462933754814015"><ele>648.0</ele><time>2026-03-22T12:08:15.997Z</time></trkpt><trkpt lat="44.8664082065445" lon="9.462761423962254"><ele>648.0</ele><time>2026-03-22T12:08:16.997Z</time></trkpt><trkpt lat="44.86644190256069" lon="9.462603849642546"><ele>648.0</ele><time>2026-03-22T12:08:17.997Z</time></trkpt><trkpt lat="44.86645943824616" lon="9.462500801360571"><ele>649.4</ele><time>2026-03-22T12:08:18.997Z</time></trkpt><trkpt lat="44.86648117879378" lon="9.462290356815007"><ele>650.8</ele><time>2026-03-22T12:08:20.997Z</time></trkpt><trkpt lat="44.86645477548111" lon="9.462201723002469"><ele>652.2</ele><time>2026-03-22T12:08:21.997Z</time></trkpt><trkpt lat="44.86641662979486" lon="9.462113021997501"><ele>653.6</ele><time>2026-03-22T12:08:22.997Z</time></trkpt><trkpt lat="44.86637405496001" lon="9.461989420921164"><ele>655.0</ele><time>2026-03-22T12:08:23.997Z</time></trkpt><trkpt lat="44.866348723813985" lon="9.461862765372233"><ele>656.8</ele><time>2026-03-22T12:08:24.997Z</time></trkpt><trkpt lat="44.866348397915004" lon="9.461729355975429"><ele>658.6</ele><time>2026-03-22T12:08:25.997Z</time></trkpt><trkpt lat="44.866365798085255" lon="9.461575934739413"><ele>660.4000000000001</ele><time>2026-03-22T12:08:26.997Z</time></trkpt><trkpt lat="44.86639038015316" lon="9.461401717884334"><ele>662.2</ele><time>2026-03-22T12:08:27.997Z</time></trkpt><trkpt lat="44.866414656266144" lon="9.461253773892462"><ele>664.0</ele><time>2026-03-22T12:08:28.997Z</time></trkpt><trkpt lat="44.86640314669067" lon="9.461141274838369"><ele>664.0</ele><time>2026-03-22T12:08:29.997Z</time></trkpt><trkpt lat="44.866276535928634" lon="9.46102047583486"><ele>664.0</ele><time>2026-03-22T12:08:31.997Z</time></trkpt><trkpt lat="44.86623805066893" lon="9.460883236787714"><ele>664.0</ele><time>2026-03-22T12:08:32.997Z</time></trkpt><trkpt lat="44.86617913700759" lon="9.460785515199227"><ele>664.0</ele><time>2026-03-22T12:08:33.997Z</time></trkpt><trkpt lat="44.8660762609879" lon="9.460669395860341"><ele>664.0</ele><time>2026-03-22T12:08:34.997Z</time></trkpt><trkpt lat="44.86599328037981" lon="9.460560723368033"><ele>664.0</ele><time>2026-03-22T12:08:35.997Z</time></trkpt><trkpt lat="44.865846257681724" lon="9.460402991143772"><ele>664.0</ele><time>2026-03-22T12:08:36.997Z</time></trkpt><trkpt lat="44.865727715217346" lon="9.46022709095322"><ele>666.0</ele><time>2026-03-22T12:08:37.997Z</time></trkpt><trkpt lat="44.86560666876687" lon="9.460067707037428"><ele>668.0</ele><time>2026-03-22T12:08:38.997Z</time></trkpt><trkpt lat="44.86548752064621" lon="9.45992552466245"><ele>670.0</ele><time>2026-03-22T12:08:39.997Z</time></trkpt><trkpt lat="44.86542951028572" lon="9.45985710482142"><ele>672.0</ele><time>2026-03-22T12:08:41Z</time></trkpt><trkpt lat="44.86532544656323" lon="9.459723651840088"><ele>672.0</ele><time>2026-03-22T12:08:42Z</time></trkpt><trkpt lat="44.86523435265022" lon="9.459630008246004"><ele>672.0</ele><time>2026-03-22T12:08:43Z</time></trkpt><trkpt lat="44.86514731874449" lon="9.459573438925364"><ele>672.0</ele><time>2026-03-22T12:08:44Z</time></trkpt><trkpt lat="44.86507721203244" lon="9.459491858838035"><ele>672.0</ele><time>2026-03-22T12:08:45Z</time></trkpt><trkpt lat="44.86501344771576" lon="9.459412811368868"><ele>672.0</ele><time>2026-03-22T12:08:46Z</time></trkpt><trkpt lat="44.86496186830225" lon="9.459338689450915"><ele>675.0</ele><time>2026-03-22T12:08:47Z</time></trkpt><trkpt lat="44.86490422755659" lon="9.459268544688182"><ele>678.0</ele><time>2026-03-22T12:08:48Z</time></trkpt><trkpt lat="44.864835705195134" lon="9.459196599180881"><ele>681.0</ele><time>2026-03-22T12:08:49Z</time></trkpt><trkpt lat="44.864743164064556" lon="9.459095211346389"><ele>684.0</ele><time>2026-03-22T12:08:50Z</time></trkpt><trkpt lat="44.864655400689955" lon="9.458993324085007"><ele>687.0</ele><time>2026-03-22T12:08:51Z</time></trkpt><trkpt lat="44.864577008182714" lon="9.458906731867"><ele>687.0</ele><time>2026-03-22T12:08:52Z</time></trkpt><trkpt lat="44.86450934049244" lon="9.458815590139418"><ele>687.0</ele><time>2026-03-22T12:08:53Z</time></trkpt><trkpt lat="44.86445139457958" lon="9.458759623862155"><ele>687.0</ele><time>2026-03-22T12:08:54Z</time></trkpt><trkpt lat="44.8643496122016" lon="9.45859272958144"><ele>687.0</ele><time>2026-03-22T12:08:55Z</time></trkpt><trkpt lat="44.864325849107814" lon="9.458501514468054"><ele>687.0</ele><time>2026-03-22T12:08:56Z</time></trkpt><trkpt lat="44.86428934893519" lon="9.45837258380395"><ele>694.25</ele><time>2026-03-22T12:08:57Z</time></trkpt><trkpt lat="44.864244917425474" lon="9.458205505879453"><ele>701.5</ele><time>2026-03-22T12:08:58Z</time></trkpt><trkpt lat="44.8642050714175" lon="9.45804968408742"><ele>708.75</ele><time>2026-03-22T12:08:59Z</time></trkpt><trkpt lat="44.86415596619497" lon="9.457888610828157"><ele>716.0</ele><time>2026-03-22T12:09:00Z</time></trkpt><trkpt lat="44.86410628176021" lon="9.457750368701292"><ele>716.0</ele><time>2026-03-22T12:09:01Z</time></trkpt><trkpt lat="44.86405474407042" lon="9.457621848386212"><ele>716.0</ele><time>2026-03-22T12:09:02Z</time></trkpt><trkpt lat="44.86399844709913" lon="9.457490682694898"><ele>716.0</ele><time>2026-03-22T12:09:03Z</time></trkpt><trkpt lat="44.86392568307162" lon="9.457378855749567"><ele>716.0</ele><time>2026-03-22T12:09:04Z</time></trkpt><trkpt lat="44.86386423205036" lon="9.45726265229875"><ele>716.0</ele><time>2026-03-22T12:09:05Z</time></trkpt><trkpt lat="44.863775660171974" lon="9.457194613570744"><ele>716.0</ele><time>2026-03-22T12:09:07Z</time></trkpt><trkpt lat="44.86367905342336" lon="9.457148422997241"><ele>716.0</ele><time>2026-03-22T12:09:08.999Z</time></trkpt><trkpt lat="44.863573127677796" lon="9.457128404722795"><ele>716.0</ele><time>2026-03-22T12:09:10.999Z</time></trkpt><trkpt lat="44.86346750882763" lon="9.457113286880228"><ele>716.0</ele><time>2026-03-22T12:09:12.999Z</time></trkpt><trkpt lat="44.86333598738986" lon="9.457079452303203"><ele>716.0</ele><time>2026-03-22T12:09:14.999Z</time></trkpt><trkpt lat="44.8632425351973" lon="9.457063616935379"><ele>719.1999999999999</ele><time>2026-03-22T12:09:15.999Z</time></trkpt><trkpt lat="44.86314994970629" lon="9.457047384708451"><ele>722.4</ele><time>2026-03-22T12:09:16.999Z</time></trkpt><trkpt lat="44.86308071295561" lon="9.457048745237074"><ele>725.6</ele><time>2026-03-22T12:09:17.999Z</time></trkpt><trkpt lat="44.86296426976772" lon="9.4570015918279"><ele>728.8</ele><time>2026-03-22T12:09:19.999Z</time></trkpt><trkpt lat="44.862842308645675" lon="9.45698895428774"><ele>732.0</ele><time>2026-03-22T12:09:21.999Z</time></trkpt><trkpt lat="44.86277184711056" lon="9.456995277355174"><ele>732.0</ele><time>2026-03-22T12:09:22.999Z</time></trkpt><trkpt lat="44.86271091211035" lon="9.456931583545956"><ele>732.0</ele><time>2026-03-22T12:09:23.999Z</time></trkpt><trkpt lat="44.862629859998535" lon="9.456885105750542"><ele>732.0</ele><time>2026-03-22T12:09:24.999Z</time></trkpt><trkpt lat="44.86253509775664" lon="9.456898816102427"><ele>732.0</ele><time>2026-03-22T12:09:25.999Z</time></trkpt><trkpt lat="44.86240436248669" lon="9.456859413819105"><ele>732.0</ele><time>2026-03-22T12:09:26.999Z</time></trkpt><trkpt lat="44.862295616280754" lon="9.456834269406762"><ele>734.2</ele><time>2026-03-22T12:09:27.999Z</time></trkpt><trkpt lat="44.86219040412537" lon="9.456807885324066"><ele>736.4000000000001</ele><time>2026-03-22T12:09:28.999Z</time></trkpt><trkpt lat="44.86211187830673" lon="9.456780564652998"><ele>738.5999999999999</ele><time>2026-03-22T12:09:29.999Z</time></trkpt><trkpt lat="44.862049040680404" lon="9.456751499340161"><ele>740.8</ele><time>2026-03-22T12:09:30.999Z</time></trkpt><trkpt lat="44.861980328085835" lon="9.456712344720927"><ele>743.0</ele><time>2026-03-22T12:09:32.999Z</time></trkpt><trkpt lat="44.86187278451888" lon="9.456618831120604"><ele>743.0</ele><time>2026-03-22T12:09:35.999Z</time></trkpt><trkpt lat="44.86179120746792" lon="9.456501508550009"><ele>743.0</ele><time>2026-03-22T12:09:37.999Z</time></trkpt><trkpt lat="44.86170547294493" lon="9.456452322050723"><ele>743.0</ele><time>2026-03-22T12:09:39.999Z</time></trkpt><trkpt lat="44.86156920110222" lon="9.456385075370623"><ele>743.0</ele><time>2026-03-22T12:09:41.999Z</time></trkpt><trkpt lat="44.86145417752191" lon="9.456351771737724"><ele>742.5999999999999</ele><time>2026-03-22T12:09:42.999Z</time></trkpt><trkpt lat="44.86133795307515" lon="9.456342585305"><ele>742.1999999999999</ele><time>2026-03-22T12:09:43.999Z</time></trkpt><trkpt lat="44.8612362251927" lon="9.456338985791778"><ele>741.8</ele><time>2026-03-22T12:09:44.999Z</time></trkpt><trkpt lat="44.86114320672822" lon="9.456311797863727"><ele>741.4</ele><time>2026-03-22T12:09:45.999Z</time></trkpt><trkpt lat="44.861040597982736" lon="9.456271195110556"><ele>741.0</ele><time>2026-03-22T12:09:48.999Z</time></trkpt><trkpt lat="44.86097667393744" lon="9.456262605301907"><ele>741.0</ele><time>2026-03-22T12:09:49.999Z</time></trkpt><trkpt lat="44.86089708400115" lon="9.456251910161109"><ele>741.0</ele><time>2026-03-22T12:09:50.999Z</time></trkpt><trkpt lat="44.86082968992524" lon="9.456242854004074"><ele>741.0</ele><time>2026-03-22T12:09:51.998Z</time></trkpt><trkpt lat="44.86070098151073" lon="9.456212072392615"><ele>741.0</ele><time>2026-03-22T12:09:53.998Z</time></trkpt><trkpt lat="44.86063218495005" lon="9.456201440703904"><ele>741.0</ele><time>2026-03-22T12:09:54.998Z</time></trkpt><trkpt lat="44.860551679174115" lon="9.456191544307206"><ele>741.0</ele><time>2026-03-22T12:09:55.998Z</time></trkpt><trkpt lat="44.860336265904046" lon="9.456849136772354"><ele>741.0</ele><time>2026-03-22T12:09:56.998Z</time></trkpt><trkpt lat="44.86024279987833" lon="9.45688410591243"><ele>741.0</ele><time>2026-03-22T12:09:57.998Z</time></trkpt><trkpt lat="44.86015430143618" lon="9.456914403839827"><ele>741.0</ele><time>2026-03-22T12:09:58.998Z</time></trkpt><trkpt lat="44.86007053274137" lon="9.456962926680523"><ele>741.0</ele><time>2026-03-22T12:09:59.998Z</time></trkpt><trkpt lat="44.859989160480765" lon="9.457040789608895"><ele>741.0</ele><time>2026-03-22T12:10:00.998Z</time></trkpt><trkpt lat="44.85989768534016" lon="9.457117978808341"><ele>738.5999999999999</ele><time>2026-03-22T12:10:01.998Z</time></trkpt><trkpt lat="44.85980092122767" lon="9.457201503945699"><ele>736.2</ele><time>2026-03-22T12:10:02.998Z</time></trkpt><trkpt lat="44.85971055225241" lon="9.457274052866994"><ele>733.8</ele><time>2026-03-22T12:10:03.998Z</time></trkpt><trkpt lat="44.85962250202684" lon="9.457361005972203"><ele>731.4000000000001</ele><time>2026-03-22T12:10:04.998Z</time></trkpt><trkpt lat="44.859566709505685" lon="9.457461903290445"><ele>729.0</ele><time>2026-03-22T12:10:05.998Z</time></trkpt><trkpt lat="44.85950462119634" lon="9.457572439634712"><ele>729.0</ele><time>2026-03-22T12:10:06.998Z</time></trkpt><trkpt lat="44.85945105993512" lon="9.45768096402735"><ele>729.0</ele><time>2026-03-22T12:10:07.998Z</time></trkpt><trkpt lat="44.85940487936541" lon="9.457785451851205"><ele>729.0</ele><time>2026-03-22T12:10:08.998Z</time></trkpt><trkpt lat="44.85935924509158" lon="9.457875217431809"><ele>729.0</ele><time>2026-03-22T12:10:09.998Z</time></trkpt><trkpt lat="44.859294365086335" lon="9.45796702528556"><ele>729.0</ele><time>2026-03-22T12:10:10.998Z</time></trkpt><trkpt lat="44.85921649315941" lon="9.458046755862105"><ele>729.0</ele><time>2026-03-22T12:10:11.998Z</time></trkpt><trkpt lat="44.859130476711016" lon="9.458112351246244"><ele>728.0</ele><time>2026-03-22T12:10:12.998Z</time></trkpt><trkpt lat="44.859040349291135" lon="9.458177342762452"><ele>727.0</ele><time>2026-03-22T12:10:13.998Z</time></trkpt><trkpt lat="44.85896519879509" lon="9.458252904919187"><ele>726.0</ele><time>2026-03-22T12:10:14.998Z</time></trkpt><trkpt lat="44.8588884242849" lon="9.458350522992047"><ele>725.0</ele><time>2026-03-22T12:10:15.998Z</time></trkpt><trkpt lat="44.85881667783559" lon="9.45846828346196"><ele>724.0</ele><time>2026-03-22T12:10:16.998Z</time></trkpt><trkpt lat="44.85875747624147" lon="9.458580622523266"><ele>724.0</ele><time>2026-03-22T12:10:17.998Z</time></trkpt><trkpt lat="44.858682675185435" lon="9.45869276505772"><ele>724.0</ele><time>2026-03-22T12:10:18.998Z</time></trkpt><trkpt lat="44.85861035361947" lon="9.458803402929567"><ele>724.0</ele><time>2026-03-22T12:10:19.998Z</time></trkpt><trkpt lat="44.858541979159355" lon="9.458919951387704"><ele>724.0</ele><time>2026-03-22T12:10:20.998Z</time></trkpt><trkpt lat="44.858467893210374" lon="9.459036311371067"><ele>724.0</ele><time>2026-03-22T12:10:21.998Z</time></trkpt><trkpt lat="44.858405863905624" lon="9.4591578930461"><ele>722.4000000000001</ele><time>2026-03-22T12:10:22.998Z</time></trkpt><trkpt lat="44.85834769461133" lon="9.459290139352058"><ele>720.8</ele><time>2026-03-22T12:10:23.998Z</time></trkpt><trkpt lat="44.85829127183669" lon="9.459413449724906"><ele>719.2</ele><time>2026-03-22T12:10:24.998Z</time></trkpt><trkpt lat="44.85824815166517" lon="9.459515440724234"><ele>717.5999999999999</ele><time>2026-03-22T12:10:25.998Z</time></trkpt><trkpt lat="44.8581793521492" lon="9.459629897233008"><ele>716.0</ele><time>2026-03-22T12:10:26.998Z</time></trkpt><trkpt lat="44.858086397855395" lon="9.459729967598294"><ele>712.5</ele><time>2026-03-22T12:10:27.998Z</time></trkpt><trkpt lat="44.85798698967561" lon="9.4598173284563"><ele>709.0</ele><time>2026-03-22T12:10:28.998Z</time></trkpt><trkpt lat="44.85789674447708" lon="9.459910945952013"><ele>705.5</ele><time>2026-03-22T12:10:29.998Z</time></trkpt><trkpt lat="44.85780054652873" lon="9.460012959561432"><ele>702.0</ele><time>2026-03-22T12:10:30.998Z</time></trkpt><trkpt lat="44.8577081372942" lon="9.460101919667894"><ele>703.2</ele><time>2026-03-22T12:10:31.998Z</time></trkpt><trkpt lat="44.85761619867467" lon="9.460175109862027"><ele>704.4000000000001</ele><time>2026-03-22T12:10:32.998Z</time></trkpt><trkpt lat="44.85753359663808" lon="9.460249260198468"><ele>705.5999999999999</ele><time>2026-03-22T12:10:33.998Z</time></trkpt><trkpt lat="44.85745272631151" lon="9.460337598584552"><ele>706.8</ele><time>2026-03-22T12:10:34.998Z</time></trkpt><trkpt lat="44.85739167328291" lon="9.460428140277422"><ele>708.0</ele><time>2026-03-22T12:10:35.997Z</time></trkpt><trkpt lat="44.857330574348346" lon="9.460530685341434"><ele>705.2</ele><time>2026-03-22T12:10:36.997Z</time></trkpt><trkpt lat="44.85729321992956" lon="9.46063573502665"><ele>702.4</ele><time>2026-03-22T12:10:37.997Z</time></trkpt><trkpt lat="44.85726129062034" lon="9.460749770753784"><ele>699.6</ele><time>2026-03-22T12:10:38.997Z</time></trkpt><trkpt lat="44.85723164447161" lon="9.4608781485962"><ele>696.8000000000001</ele><time>2026-03-22T12:10:39.997Z</time></trkpt><trkpt lat="44.857196003289936" lon="9.461007111763102"><ele>694.0</ele><time>2026-03-22T12:10:40.997Z</time></trkpt><trkpt lat="44.85715430882938" lon="9.461140422446485"><ele>694.0</ele><time>2026-03-22T12:10:41.997Z</time></trkpt><trkpt lat="44.85710144024522" lon="9.461274261736401"><ele>694.0</ele><time>2026-03-22T12:10:42.997Z</time></trkpt><trkpt lat="44.85704842932733" lon="9.461390252790494"><ele>694.0</ele><time>2026-03-22T12:10:43.997Z</time></trkpt><trkpt lat="44.8569918324035" lon="9.461514428402712"><ele>694.0</ele><time>2026-03-22T12:10:44.997Z</time></trkpt><trkpt lat="44.85693428112591" lon="9.461645138427308"><ele>694.0</ele><time>2026-03-22T12:10:45.997Z</time></trkpt><trkpt lat="44.856883007999606" lon="9.461790121891339"><ele>692.0</ele><time>2026-03-22T12:10:47Z</time></trkpt><trkpt lat="44.85684411846982" lon="9.461920398441778"><ele>690.0</ele><time>2026-03-22T12:10:48Z</time></trkpt><trkpt lat="44.85679880224928" lon="9.462050776351642"><ele>688.0</ele><time>2026-03-22T12:10:49Z</time></trkpt><trkpt lat="44.85674378821249" lon="9.462153841521603"><ele>686.0</ele><time>2026-03-22T12:10:50Z</time></trkpt><trkpt lat="44.85667825687918" lon="9.462262568400623"><ele>684.0</ele><time>2026-03-22T12:10:51Z</time></trkpt><trkpt lat="44.85663870444123" lon="9.462356958366353"><ele>682.6666666666666</ele><time>2026-03-22T12:10:52Z</time></trkpt><trkpt lat="44.85661219947343" lon="9.462449682956672"><ele>681.3333333333334</ele><time>2026-03-22T12:10:53Z</time></trkpt><trkpt lat="44.8565972740933" lon="9.462549410642048"><ele>680.0</ele><time>2026-03-22T12:10:54Z</time></trkpt><trkpt lat="44.85658329808848" lon="9.46270329027011"><ele>678.6666666666667</ele><time>2026-03-22T12:10:56Z</time></trkpt><trkpt lat="44.856558105539456" lon="9.462827602995013"><ele>677.3333333333334</ele><time>2026-03-22T12:10:58Z</time></trkpt><trkpt lat="44.856510073405076" lon="9.462895957526051"><ele>676.0</ele><time>2026-03-22T12:11:02Z</time></trkpt><trkpt lat="44.856450212831106" lon="9.462828588062655"><ele>676.0</ele><time>2026-03-22T12:11:04Z</time></trkpt><trkpt lat="44.85642003193629" lon="9.462704901511982"><ele>676.0</ele><time>2026-03-22T12:11:06Z</time></trkpt><trkpt lat="44.8563873921643" lon="9.462609833781661"><ele>676.0</ele><time>2026-03-22T12:11:08Z</time></trkpt><trkpt lat="44.85632106987148" lon="9.46248889804994"><ele>676.0</ele><time>2026-03-22T12:11:10Z</time></trkpt><trkpt lat="44.85628084299014" lon="9.462410809548665"><ele>676.0</ele><time>2026-03-22T12:11:11Z</time></trkpt><trkpt lat="44.85623810216392" lon="9.462326606541133"><ele>676.0</ele><time>2026-03-22T12:11:12Z</time></trkpt><trkpt lat="44.85616043766363" lon="9.462172929869215"><ele>676.25</ele><time>2026-03-22T12:11:13Z</time></trkpt><trkpt lat="44.85605723054758" lon="9.4619602872236"><ele>676.5</ele><time>2026-03-22T12:11:14Z</time></trkpt><trkpt lat="44.85597724533756" lon="9.46181135016273"><ele>676.75</ele><time>2026-03-22T12:11:15Z</time></trkpt><trkpt lat="44.85587580014969" lon="9.461716266002966"><ele>677.0</ele><time>2026-03-22T12:11:16Z</time></trkpt><trkpt lat="44.85581419879313" lon="9.461618811667417"><ele>677.0</ele><time>2026-03-22T12:11:17Z</time></trkpt><trkpt lat="44.85576144824727" lon="9.461531606163389"><ele>677.0</ele><time>2026-03-22T12:11:18Z</time></trkpt><trkpt lat="44.855695242087954" lon="9.46142033289719"><ele>677.0</ele><time>2026-03-22T12:11:19Z</time></trkpt><trkpt lat="44.8556100713654" lon="9.461277951592757"><ele>677.0</ele><time>2026-03-22T12:11:20Z</time></trkpt><trkpt lat="44.85552927026636" lon="9.461139001049524"><ele>677.0</ele><time>2026-03-22T12:11:21Z</time></trkpt><trkpt lat="44.85543964978756" lon="9.461004383419112"><ele>678.6666666666666</ele><time>2026-03-22T12:11:22Z</time></trkpt><trkpt lat="44.85530975961652" lon="9.460835807978462"><ele>680.3333333333334</ele><time>2026-03-22T12:11:23Z</time></trkpt><trkpt lat="44.85515941858556" lon="9.460615867102215"><ele>682.0</ele><time>2026-03-22T12:11:24Z</time></trkpt><trkpt lat="44.85505578857392" lon="9.460347851939764"><ele>682.0</ele><time>2026-03-22T12:11:25Z</time></trkpt><trkpt lat="44.85491554631701" lon="9.460184763075956"><ele>682.0</ele><time>2026-03-22T12:11:26Z</time></trkpt><trkpt lat="44.854828786043306" lon="9.460020098752976"><ele>682.0</ele><time>2026-03-22T12:11:27Z</time></trkpt><trkpt lat="44.85474381287362" lon="9.459880349108124"><ele>682.0</ele><time>2026-03-22T12:11:28Z</time></trkpt><trkpt lat="44.854677491643365" lon="9.459768237956778"><ele>682.0</ele><time>2026-03-22T12:11:29Z</time></trkpt><trkpt lat="44.854559674509694" lon="9.459771208153624"><ele>682.0</ele><time>2026-03-22T12:11:30Z</time></trkpt><trkpt lat="44.85440451937059" lon="9.459734330310354"><ele>682.0</ele><time>2026-03-22T12:11:30.999Z</time></trkpt><trkpt lat="44.85426294052461" lon="9.459658816218553"><ele>683.8</ele><time>2026-03-22T12:11:31.999Z</time></trkpt><trkpt lat="44.85413122059744" lon="9.459610817989565"><ele>685.6</ele><time>2026-03-22T12:11:32.999Z</time></trkpt><trkpt lat="44.85401669507784" lon="9.459575153705387"><ele>687.4</ele><time>2026-03-22T12:11:33.999Z</time></trkpt><trkpt lat="44.853932774757055" lon="9.459543291053071"><ele>689.1999999999999</ele><time>2026-03-22T12:11:34.999Z</time></trkpt><trkpt lat="44.85385017345243" lon="9.459467343839053"><ele>691.0</ele><time>2026-03-22T12:11:35.999Z</time></trkpt><trkpt lat="44.853791133902746" lon="9.459383552882397"><ele>691.0</ele><time>2026-03-22T12:11:36.999Z</time></trkpt><trkpt lat="44.85374779252152" lon="9.459239929699628"><ele>691.0</ele><time>2026-03-22T12:11:37.999Z</time></trkpt><trkpt lat="44.85368928741862" lon="9.459082311750628"><ele>691.0</ele><time>2026-03-22T12:11:38.999Z</time></trkpt><trkpt lat="44.85359779951085" lon="9.458896796574008"><ele>691.0</ele><time>2026-03-22T12:11:39.999Z</time></trkpt><trkpt lat="44.85347792188966" lon="9.458747085325596"><ele>689.6666666666667</ele><time>2026-03-22T12:11:40.999Z</time></trkpt><trkpt lat="44.853326556111426" lon="9.458652763670676"><ele>688.3333333333334</ele><time>2026-03-22T12:11:41.999Z</time></trkpt><trkpt lat="44.85314340788506" lon="9.45856431797534"><ele>687.0</ele><time>2026-03-22T12:11:42.999Z</time></trkpt><trkpt lat="44.85297481685481" lon="9.458444515207544"><ele>687.0</ele><time>2026-03-22T12:11:43.999Z</time></trkpt><trkpt lat="44.85283832658959" lon="9.458381364013569"><ele>687.0</ele><time>2026-03-22T12:11:44.999Z</time></trkpt><trkpt lat="44.85271398149638" lon="9.45826229228201"><ele>687.0</ele><time>2026-03-22T12:11:45.999Z</time></trkpt><trkpt lat="44.85258878059729" lon="9.458190682222728"><ele>687.0</ele><time>2026-03-22T12:11:46.999Z</time></trkpt><trkpt lat="44.8524671802479" lon="9.458139151436908"><ele>687.25</ele><time>2026-03-22T12:11:47.999Z</time></trkpt><trkpt lat="44.85235624097764" lon="9.458078235173671"><ele>687.5</ele><time>2026-03-22T12:11:48.999Z</time></trkpt><trkpt lat="44.85222305793525" lon="9.45795463662382"><ele>687.75</ele><time>2026-03-22T12:11:49.999Z</time></trkpt><trkpt lat="44.85210556872978" lon="9.45782579228235"><ele>688.0</ele><time>2026-03-22T12:11:50.999Z</time></trkpt><trkpt lat="44.85198853125331" lon="9.457708091064006"><ele>688.0</ele><time>2026-03-22T12:11:51.999Z</time></trkpt><trkpt lat="44.851909934805526" lon="9.457557812166664"><ele>688.0</ele><time>2026-03-22T12:11:52.999Z</time></trkpt><trkpt lat="44.851849800612655" lon="9.457405568744308"><ele>688.0</ele><time>2026-03-22T12:11:53.999Z</time></trkpt><trkpt lat="44.85180143314787" lon="9.457262867751458"><ele>688.0</ele><time>2026-03-22T12:11:54.999Z</time></trkpt><trkpt lat="44.851738243729095" lon="9.457118604368436"><ele>686.0</ele><time>2026-03-22T12:11:55.999Z</time></trkpt><trkpt lat="44.85167215250357" lon="9.456972585923806"><ele>684.0</ele><time>2026-03-22T12:11:56.999Z</time></trkpt><trkpt lat="44.851596928503305" lon="9.456823385003416"><ele>682.0</ele><time>2026-03-22T12:11:57.999Z</time></trkpt><trkpt lat="44.85152444332232" lon="9.456676393821"><ele>680.0</ele><time>2026-03-22T12:11:58.999Z</time></trkpt><trkpt lat="44.851425890242155" lon="9.456571165658055"><ele>680.0</ele><time>2026-03-22T12:11:59.999Z</time></trkpt><trkpt lat="44.85131157680685" lon="9.456478358303537"><ele>680.0</ele><time>2026-03-22T12:12:00.999Z</time></trkpt><trkpt lat="44.851199022698175" lon="9.456387097311831"><ele>680.0</ele><time>2026-03-22T12:12:01.999Z</time></trkpt><trkpt lat="44.85106990250957" lon="9.456312902638404"><ele>680.0</ele><time>2026-03-22T12:12:02.999Z</time></trkpt><trkpt lat="44.85099805818859" lon="9.456288933226308"><ele>679.8</ele><time>2026-03-22T12:12:03.999Z</time></trkpt><trkpt lat="44.850900037053265" lon="9.456217440179623"><ele>679.6</ele><time>2026-03-22T12:12:04.999Z</time></trkpt><trkpt lat="44.85080336836861" lon="9.456183122833277"><ele>679.4000000000001</ele><time>2026-03-22T12:12:05.999Z</time></trkpt><trkpt lat="44.85073890672663" lon="9.45611500947963"><ele>679.2</ele><time>2026-03-22T12:12:06.999Z</time></trkpt><trkpt lat="44.85067979447332" lon="9.456072593600247"><ele>679.0</ele><time>2026-03-22T12:12:09.999Z</time></trkpt><trkpt lat="44.850509424948015" lon="9.456122517587424"><ele>679.0</ele><time>2026-03-22T12:12:12.999Z</time></trkpt><trkpt lat="44.85043873751648" lon="9.456221670186707"><ele>679.0</ele><time>2026-03-22T12:12:14.998Z</time></trkpt><trkpt lat="44.850391573779554" lon="9.456287150119941"><ele>679.0</ele><time>2026-03-22T12:12:15.998Z</time></trkpt><trkpt lat="44.85030730798157" lon="9.456404140932891"><ele>679.0</ele><time>2026-03-22T12:12:16.998Z</time></trkpt><trkpt lat="44.85016568714233" lon="9.456601500672086"><ele>677.0</ele><time>2026-03-22T12:12:17.998Z</time></trkpt><trkpt lat="44.85000473776217" lon="9.456833089097156"><ele>675.0</ele><time>2026-03-22T12:12:18.998Z</time></trkpt><trkpt lat="44.849873560986616" lon="9.45707341356846"><ele>673.0</ele><time>2026-03-22T12:12:19.998Z</time></trkpt><trkpt lat="44.84977059421974" lon="9.45732231334471"><ele>673.0</ele><time>2026-03-22T12:12:20.998Z</time></trkpt><trkpt lat="44.84969956506429" lon="9.45756909557818"><ele>673.0</ele><time>2026-03-22T12:12:21.998Z</time></trkpt><trkpt lat="44.84965263124825" lon="9.457789924904324"><ele>673.0</ele><time>2026-03-22T12:12:22.998Z</time></trkpt><trkpt lat="44.84960582908345" lon="9.457970933465674"><ele>671.75</ele><time>2026-03-22T12:12:23.998Z</time></trkpt><trkpt lat="44.84954984932211" lon="9.458117048211639"><ele>670.5</ele><time>2026-03-22T12:12:24.998Z</time></trkpt><trkpt lat="44.84949121723842" lon="9.45822689851709"><ele>669.25</ele><time>2026-03-22T12:12:25.998Z</time></trkpt><trkpt lat="44.84941514868306" lon="9.458361956960957"><ele>668.0</ele><time>2026-03-22T12:12:26.998Z</time></trkpt><trkpt lat="44.84933590633496" lon="9.458492582706269"><ele>667.75</ele><time>2026-03-22T12:12:27.998Z</time></trkpt><trkpt lat="44.84924519586845" lon="9.45863957138846"><ele>667.5</ele><time>2026-03-22T12:12:28.998Z</time></trkpt><trkpt lat="44.8491487446661" lon="9.45879443314562"><ele>667.25</ele><time>2026-03-22T12:12:29.998Z</time></trkpt><trkpt lat="44.849051856036745" lon="9.458963006724616"><ele>667.0</ele><time>2026-03-22T12:12:30.998Z</time></trkpt><trkpt lat="44.8489542386679" lon="9.459161165437799"><ele>667.0</ele><time>2026-03-22T12:12:31.998Z</time></trkpt><trkpt lat="44.84884867344761" lon="9.459436867053475"><ele>667.0</ele><time>2026-03-22T12:12:32.998Z</time></trkpt><trkpt lat="44.84878298837824" lon="9.459770930305554"><ele>665.0</ele><time>2026-03-22T12:12:33.998Z</time></trkpt><trkpt lat="44.84876908460478" lon="9.460130707059731"><ele>663.0</ele><time>2026-03-22T12:12:34.998Z</time></trkpt><trkpt lat="44.84873838326272" lon="9.4604681657279"><ele>661.3333333333334</ele><time>2026-03-22T12:12:35.998Z</time></trkpt><trkpt lat="44.848681539354835" lon="9.460780098876333"><ele>659.6666666666667</ele><time>2026-03-22T12:12:36.998Z</time></trkpt><trkpt lat="44.84863592834649" lon="9.461037728613618"><ele>658.0</ele><time>2026-03-22T12:12:37.998Z</time></trkpt><trkpt lat="44.848594552389955" lon="9.461260903219188"><ele>657.5</ele><time>2026-03-22T12:12:38.998Z</time></trkpt><trkpt lat="44.84855700781666" lon="9.461478437779217"><ele>657.0</ele><time>2026-03-22T12:12:39.998Z</time></trkpt><trkpt lat="44.84852668721637" lon="9.461667737165826"><ele>656.5</ele><time>2026-03-22T12:12:40.998Z</time></trkpt><trkpt lat="44.848500449984805" lon="9.461852746936165"><ele>656.0</ele><time>2026-03-22T12:12:41.998Z</time></trkpt><trkpt lat="44.848476984335015" lon="9.462017298548778"><ele>657.5</ele><time>2026-03-22T12:12:42.998Z</time></trkpt><trkpt lat="44.84845595402026" lon="9.462164773001819"><ele>659.0</ele><time>2026-03-22T12:12:43.998Z</time></trkpt><trkpt lat="44.848435672651554" lon="9.462313094306264"><ele>660.5</ele><time>2026-03-22T12:12:44.998Z</time></trkpt><trkpt lat="44.848413819253665" lon="9.46247300798129"><ele>662.0</ele><time>2026-03-22T12:12:45.998Z</time></trkpt><trkpt lat="44.84838538533768" lon="9.462687998704945"><ele>662.0</ele><time>2026-03-22T12:12:46.998Z</time></trkpt><trkpt lat="44.848348060266275" lon="9.462937271238818"><ele>662.0</ele><time>2026-03-22T12:12:47.998Z</time></trkpt><trkpt lat="44.84827941373356" lon="9.463157781030212"><ele>662.0</ele><time>2026-03-22T12:12:48.998Z</time></trkpt><trkpt lat="44.848177668731665" lon="9.463369930351357"><ele>662.6666666666666</ele><time>2026-03-22T12:12:49.998Z</time></trkpt><trkpt lat="44.84807160088597" lon="9.463581693045814"><ele>663.3333333333334</ele><time>2026-03-22T12:12:50.998Z</time></trkpt><trkpt lat="44.84797641330584" lon="9.463782940015856"><ele>664.0</ele><time>2026-03-22T12:12:51.998Z</time></trkpt><trkpt lat="44.847889285295075" lon="9.463988217974203"><ele>661.6666666666667</ele><time>2026-03-22T12:12:53Z</time></trkpt><trkpt lat="44.84780952235819" lon="9.464192277586104"><ele>659.3333333333334</ele><time>2026-03-22T12:12:54.001Z</time></trkpt><trkpt lat="44.84773264900316" lon="9.464401130049035"><ele>657.0</ele><time>2026-03-22T12:12:55Z</time></trkpt><trkpt lat="44.8476587686369" lon="9.464622225429848"><ele>659.3333333333334</ele><time>2026-03-22T12:12:56Z</time></trkpt><trkpt lat="44.84758711769975" lon="9.464858435386168"><ele>661.6666666666667</ele><time>2026-03-22T12:12:57.001Z</time></trkpt><trkpt lat="44.84751490936403" lon="9.465138718681045"><ele>664.0</ele><time>2026-03-22T12:12:58Z</time></trkpt><trkpt lat="44.84745531375244" lon="9.465423326151408"><ele>665.6666666666667</ele><time>2026-03-22T12:12:59Z</time></trkpt><trkpt lat="44.847424666834044" lon="9.465680171496496"><ele>667.3333333333334</ele><time>2026-03-22T12:13:00.001Z</time></trkpt><trkpt lat="44.847412191055646" lon="9.46594498811762"><ele>669.0</ele><time>2026-03-22T12:13:01Z</time></trkpt><trkpt lat="44.84740549743083" lon="9.466209562536266"><ele>670.0</ele><time>2026-03-22T12:13:02.001Z</time></trkpt><trkpt lat="44.84739778798236" lon="9.466456447725095"><ele>671.0</ele><time>2026-03-22T12:13:03.001Z</time></trkpt><trkpt lat="44.84738426172714" lon="9.466676385361357"><ele>672.0</ele><time>2026-03-22T12:13:04Z</time></trkpt><trkpt lat="44.84732569901395" lon="9.46681429007773"><ele>673.0</ele><time>2026-03-22T12:13:05.001Z</time></trkpt><trkpt lat="44.84726536591251" lon="9.467004058758816"><ele>672.6666666666667</ele><time>2026-03-22T12:13:06.001Z</time></trkpt><trkpt lat="44.847230762511586" lon="9.467203982499958"><ele>672.3333333333334</ele><time>2026-03-22T12:13:07Z</time></trkpt><trkpt lat="44.84725481355087" lon="9.467463562902028"><ele>672.0</ele><time>2026-03-22T12:13:08Z</time></trkpt><trkpt lat="44.847302671294145" lon="9.467760070896915"><ele>673.0</ele><time>2026-03-22T12:13:09Z</time></trkpt><trkpt lat="44.84737370135908" lon="9.468120364086644"><ele>674.0</ele><time>2026-03-22T12:13:10Z</time></trkpt><trkpt lat="44.84745742298308" lon="9.468495631908562"><ele>674.0</ele><time>2026-03-22T12:13:11Z</time></trkpt><trkpt lat="44.84752723686251" lon="9.468763432710169"><ele>674.0</ele><time>2026-03-22T12:13:12Z</time></trkpt><trkpt lat="44.847617497616206" lon="9.469070841321942"><ele>674.0</ele><time>2026-03-22T12:13:13Z</time></trkpt><trkpt lat="44.84769084459111" lon="9.469289301577678"><ele>673.0</ele><time>2026-03-22T12:13:14Z</time></trkpt><trkpt lat="44.84776346500312" lon="9.469510867063988"><ele>672.0</ele><time>2026-03-22T12:13:15Z</time></trkpt><trkpt lat="44.84783537477978" lon="9.469729198064577"><ele>671.0</ele><time>2026-03-22T12:13:16Z</time></trkpt><trkpt lat="44.84789724923149" lon="9.469895725135567"><ele>671.0</ele><time>2026-03-22T12:13:17Z</time></trkpt><trkpt lat="44.84799665725378" lon="9.47006266164572"><ele>671.0</ele><time>2026-03-22T12:13:18Z</time></trkpt><trkpt lat="44.84804552587685" lon="9.470163000887466"><ele>671.0</ele><time>2026-03-22T12:13:19Z</time></trkpt><trkpt lat="44.84814519852209" lon="9.470236318742083"><ele>671.0</ele><time>2026-03-22T12:13:21Z</time></trkpt><trkpt lat="44.848209500007115" lon="9.470322061315231"><ele>671.0</ele><time>2026-03-22T12:13:23Z</time></trkpt><trkpt lat="44.84826693109177" lon="9.470369888569872"><ele>672.75</ele><time>2026-03-22T12:13:25Z</time></trkpt><trkpt lat="44.848364047895814" lon="9.47053181610702"><ele>674.5</ele><time>2026-03-22T12:13:26.999Z</time></trkpt><trkpt lat="44.848406804060005" lon="9.470607916735313"><ele>676.25</ele><time>2026-03-22T12:13:27.999Z</time></trkpt><trkpt lat="44.84846613307716" lon="9.470707930100707"><ele>678.0</ele><time>2026-03-22T12:13:29.999Z</time></trkpt><trkpt lat="44.84856870233889" lon="9.470862847695381"><ele>675.4</ele><time>2026-03-22T12:13:31.999Z</time></trkpt><trkpt lat="44.84860641098818" lon="9.470987710754248"><ele>672.8</ele><time>2026-03-22T12:13:32.999Z</time></trkpt><trkpt lat="44.848627303701534" lon="9.471104847424721"><ele>670.2</ele><time>2026-03-22T12:13:33.999Z</time></trkpt><trkpt lat="44.84863358862794" lon="9.471260674186764"><ele>667.6</ele><time>2026-03-22T12:13:34.999Z</time></trkpt><trkpt lat="44.84863362610319" lon="9.47139390288138"><ele>665.0</ele><time>2026-03-22T12:13:35.999Z</time></trkpt><trkpt lat="44.84862936867534" lon="9.471526256180539"><ele>665.0</ele><time>2026-03-22T12:13:36.999Z</time></trkpt><trkpt lat="44.84862244741046" lon="9.471642040933189"><ele>665.0</ele><time>2026-03-22T12:13:37.999Z</time></trkpt><trkpt lat="44.848616906668866" lon="9.471730925180651"><ele>665.0</ele><time>2026-03-22T12:13:38.999Z</time></trkpt><trkpt lat="44.848605320568474" lon="9.471908451181967"><ele>665.0</ele><time>2026-03-22T12:13:40.999Z</time></trkpt><trkpt lat="44.848596124726605" lon="9.472084189661842"><ele>665.0</ele><time>2026-03-22T12:13:41.999Z</time></trkpt><trkpt lat="44.848594254410955" lon="9.47223517807171"><ele>664.4</ele><time>2026-03-22T12:13:42.999Z</time></trkpt><trkpt lat="44.84861990822036" lon="9.472395065597869"><ele>663.8</ele><time>2026-03-22T12:13:43.999Z</time></trkpt><trkpt lat="44.848651399731715" lon="9.472573355172312"><ele>663.2</ele><time>2026-03-22T12:13:44.999Z</time></trkpt><trkpt lat="44.84867714978989" lon="9.472716564182562"><ele>662.6</ele><time>2026-03-22T12:13:45.999Z</time></trkpt><trkpt lat="44.848696638729535" lon="9.472816589104088"><ele>662.0</ele><time>2026-03-22T12:13:46.999Z</time></trkpt><trkpt lat="44.848726321517425" lon="9.472937848332167"><ele>661.4000000000001</ele><time>2026-03-22T12:13:47.999Z</time></trkpt><trkpt lat="44.84875176767188" lon="9.473027186895349"><ele>660.8000000000001</ele><time>2026-03-22T12:13:48.998Z</time></trkpt><trkpt lat="44.84882855431669" lon="9.473165145388057"><ele>660.2</ele><time>2026-03-22T12:13:50.998Z</time></trkpt><trkpt lat="44.848765597535376" lon="9.473107150991789"><ele>659.6</ele><time>2026-03-22T12:13:54.998Z</time></trkpt><trkpt lat="44.848587414572414" lon="9.473129633510636"><ele>659.0</ele><time>2026-03-22T12:14:08.998Z</time></trkpt><trkpt lat="44.84850992664998" lon="9.473114208530367"><ele>660.6</ele><time>2026-03-22T12:14:09.998Z</time></trkpt><trkpt lat="44.8484048118109" lon="9.473087626551"><ele>662.2</ele><time>2026-03-22T12:14:10.998Z</time></trkpt><trkpt lat="44.84826348229016" lon="9.47304630667681"><ele>663.8000000000001</ele><time>2026-03-22T12:14:11.998Z</time></trkpt><trkpt lat="44.84815787069266" lon="9.47301269631357"><ele>665.4000000000001</ele><time>2026-03-22T12:14:12.998Z</time></trkpt><trkpt lat="44.84808558239944" lon="9.472972730628523"><ele>667.0</ele><time>2026-03-22T12:14:13.998Z</time></trkpt><trkpt lat="44.84803128234796" lon="9.473020704351715"><ele>667.0000000000001</ele><time>2026-03-22T12:14:15.998Z</time></trkpt><trkpt lat="44.847970729753236" lon="9.473078530746262"><ele>667.0</ele><time>2026-03-22T12:14:18.998Z</time></trkpt><trkpt lat="44.84803391614343" lon="9.473082733310308"><ele>667.0</ele><time>2026-03-22T12:14:30.998Z</time></trkpt><trkpt lat="44.84811141467045" lon="9.473048506655804"><ele>667.0</ele><time>2026-03-22T12:14:33.997Z</time></trkpt><trkpt lat="44.84819218817646" lon="9.473040127784477"><ele>667.0</ele><time>2026-03-22T12:14:35.997Z</time></trkpt><trkpt lat="44.848254700582565" lon="9.47305330516279"><ele>667.0000000000001</ele><time>2026-03-22T12:14:36.997Z</time></trkpt><trkpt lat="44.84832036341134" lon="9.473080167119782"><ele>667.0</ele><time>2026-03-22T12:14:37.997Z</time></trkpt><trkpt lat="44.8483903284937" lon="9.473097938288639"><ele>665.6666666666667</ele><time>2026-03-22T12:14:38.997Z</time></trkpt><trkpt lat="44.848463780386275" lon="9.473118267098956"><ele>664.3333333333334</ele><time>2026-03-22T12:14:39.997Z</time></trkpt><trkpt lat="44.84853064683553" lon="9.473133984455123"><ele>663.0</ele><time>2026-03-22T12:14:40.997Z</time></trkpt><trkpt lat="44.84860642188519" lon="9.473141430169152"><ele>661.6666666666666</ele><time>2026-03-22T12:14:41.997Z</time></trkpt><trkpt lat="44.8486720026944" lon="9.473149452240303"><ele>660.3333333333333</ele><time>2026-03-22T12:14:42.997Z</time></trkpt><trkpt lat="44.84877201916218" lon="9.473174127632886"><ele>659.0</ele><time>2026-03-22T12:14:44.997Z</time></trkpt><trkpt lat="44.848862498363324" lon="9.473193993982058"><ele>659.0</ele><time>2026-03-22T12:14:47.997Z</time></trkpt><trkpt lat="44.8489248183752" lon="9.473209330395504"><ele>659.0</ele><time>2026-03-22T12:14:49.997Z</time></trkpt><trkpt lat="44.849003505699635" lon="9.473305129034967"><ele>659.0</ele><time>2026-03-22T12:14:51.997Z</time></trkpt><trkpt lat="44.84906375322199" lon="9.473333666416323"><ele>659.0</ele><time>2026-03-22T12:14:52.997Z</time></trkpt><trkpt lat="44.849163721441215" lon="9.473354630436058"><ele>659.0</ele><time>2026-03-22T12:14:54.997Z</time></trkpt><trkpt lat="44.84925672409956" lon="9.473397815449863"><ele>659.0</ele><time>2026-03-22T12:14:56.997Z</time></trkpt><trkpt lat="44.84932526653274" lon="9.473419783010758"><ele>655.0</ele><time>2026-03-22T12:14:58Z</time></trkpt><trkpt lat="44.84945526148788" lon="9.473455958963429"><ele>651.0</ele><time>2026-03-22T12:14:59Z</time></trkpt><trkpt lat="44.849600284386156" lon="9.473508828255854"><ele>647.0</ele><time>2026-03-22T12:15:00Z</time></trkpt><trkpt lat="44.84970974079995" lon="9.473586847850058"><ele>643.0</ele><time>2026-03-22T12:15:01Z</time></trkpt><trkpt lat="44.84978629022281" lon="9.473718723602301"><ele>643.5999999999999</ele><time>2026-03-22T12:15:02Z</time></trkpt><trkpt lat="44.84971582037017" lon="9.473895841641559"><ele>644.1999999999999</ele><time>2026-03-22T12:15:03Z</time></trkpt><trkpt lat="44.84966368821573" lon="9.47400722045474"><ele>644.8</ele><time>2026-03-22T12:15:04Z</time></trkpt><trkpt lat="44.84966026386453" lon="9.474140006976386"><ele>645.4</ele><time>2026-03-22T12:15:05Z</time></trkpt><trkpt lat="44.849676916334495" lon="9.47427484226969"><ele>646.0</ele><time>2026-03-22T12:15:07Z</time></trkpt><trkpt lat="44.84980433892049" lon="9.474313514678947"><ele>646.0</ele><time>2026-03-22T12:15:09Z</time></trkpt><trkpt lat="44.849869854753216" lon="9.474305981625632"><ele>646.0</ele><time>2026-03-22T12:15:12Z</time></trkpt><trkpt lat="44.849954814912536" lon="9.474243924806887"><ele>646.0</ele><time>2026-03-22T12:15:15Z</time></trkpt><trkpt lat="44.849983278834095" lon="9.474149762387299"><ele>646.0</ele><time>2026-03-22T12:15:18Z</time></trkpt><trkpt lat="44.85003420918444" lon="9.474040509924794"><ele>646.0</ele><time>2026-03-22T12:15:21Z</time></trkpt><trkpt lat="44.850095488209305" lon="9.473974973665824"><ele>646.0</ele><time>2026-03-22T12:15:23Z</time></trkpt><trkpt lat="44.850193180131285" lon="9.474012246586"><ele>646.0</ele><time>2026-03-22T12:15:24.999Z</time></trkpt><trkpt lat="44.85026193447244" lon="9.474037943571162"><ele>646.0</ele><time>2026-03-22T12:15:26.999Z</time></trkpt><trkpt lat="44.85026214570845" lon="9.474158232005095"><ele>646.0</ele><time>2026-03-22T12:15:28.999Z</time></trkpt><trkpt lat="44.85021709937882" lon="9.474313057920378"><ele>646.0</ele><time>2026-03-22T12:15:30.999Z</time></trkpt><trkpt lat="44.85009532185627" lon="9.47437685743343"><ele>646.0</ele><time>2026-03-22T12:15:32.999Z</time></trkpt><trkpt lat="44.84998205978401" lon="9.474457545609262"><ele>646.0</ele><time>2026-03-22T12:15:33.999Z</time></trkpt><trkpt lat="44.849872839448196" lon="9.474543494802122"><ele>646.0</ele><time>2026-03-22T12:15:34.999Z</time></trkpt><trkpt lat="44.84976333979848" lon="9.47463229856826"><ele>646.0</ele><time>2026-03-22T12:15:35.999Z</time></trkpt><trkpt lat="44.849661493965044" lon="9.474725975013746"><ele>646.0</ele><time>2026-03-22T12:15:36.999Z</time></trkpt><trkpt lat="44.84957279500708" lon="9.47479922539581"><ele>644.0</ele><time>2026-03-22T12:15:37.999Z</time></trkpt><trkpt lat="44.84945866953171" lon="9.474864452234474"><ele>642.0</ele><time>2026-03-22T12:15:38.999Z</time></trkpt><trkpt lat="44.84930687657417" lon="9.474897784265995"><ele>640.0</ele><time>2026-03-22T12:15:39.999Z</time></trkpt><trkpt lat="44.84915677403244" lon="9.47490235980015"><ele>638.0</ele><time>2026-03-22T12:15:40.999Z</time></trkpt><trkpt lat="44.84898556034066" lon="9.474948293541713"><ele>638.0</ele><time>2026-03-22T12:15:41.999Z</time></trkpt><trkpt lat="44.84883054162277" lon="9.475102281103366"><ele>638.0</ele><time>2026-03-22T12:15:42.999Z</time></trkpt><trkpt lat="44.84871412152813" lon="9.475223805306188"><ele>638.0</ele><time>2026-03-22T12:15:43.999Z</time></trkpt><trkpt lat="44.84860886559221" lon="9.47532389634587"><ele>638.0</ele><time>2026-03-22T12:15:44.999Z</time></trkpt><trkpt lat="44.84850460647573" lon="9.475412276203857"><ele>638.0</ele><time>2026-03-22T12:15:45.999Z</time></trkpt><trkpt lat="44.848397828919104" lon="9.475533129964212"><ele>638.0</ele><time>2026-03-22T12:15:46.999Z</time></trkpt><trkpt lat="44.84829425985462" lon="9.475746205538393"><ele>638.0</ele><time>2026-03-22T12:15:47.999Z</time></trkpt><trkpt lat="44.84821611226236" lon="9.475919016318615"><ele>635.5</ele><time>2026-03-22T12:15:48.999Z</time></trkpt><trkpt lat="44.84814409059723" lon="9.476069160028215"><ele>633.0</ele><time>2026-03-22T12:15:49.999Z</time></trkpt><trkpt lat="44.84807555762082" lon="9.476230330149528"><ele>630.5</ele><time>2026-03-22T12:15:50.999Z</time></trkpt><trkpt lat="44.84803159366618" lon="9.47647969117332"><ele>628.0</ele><time>2026-03-22T12:15:51.999Z</time></trkpt><trkpt lat="44.847997306620265" lon="9.47670912957889"><ele>624.6666666666667</ele><time>2026-03-22T12:15:52.999Z</time></trkpt><trkpt lat="44.847952175315655" lon="9.476939225583198"><ele>621.3333333333334</ele><time>2026-03-22T12:15:53.999Z</time></trkpt><trkpt lat="44.84790433887218" lon="9.477159630888222"><ele>618.0</ele><time>2026-03-22T12:15:54.999Z</time></trkpt><trkpt lat="44.847873193921096" lon="9.477379129220537"><ele>615.6666666666666</ele><time>2026-03-22T12:15:55.999Z</time></trkpt><trkpt lat="44.8478746305578" lon="9.477607813586625"><ele>613.3333333333333</ele><time>2026-03-22T12:15:56.999Z</time></trkpt><trkpt lat="44.8479237065863" lon="9.477832767752117"><ele>611.0</ele><time>2026-03-22T12:15:57.999Z</time></trkpt><trkpt lat="44.84796526334505" lon="9.478047924172692"><ele>610.0</ele><time>2026-03-22T12:15:58.999Z</time></trkpt><trkpt lat="44.848005108426385" lon="9.478263298890882"><ele>609.0</ele><time>2026-03-22T12:15:59.999Z</time></trkpt><trkpt lat="44.84803948972515" lon="9.478472747778175"><ele>608.0</ele><time>2026-03-22T12:16:00.999Z</time></trkpt><trkpt lat="44.84807238367227" lon="9.47868075051499"><ele>607.25</ele><time>2026-03-22T12:16:01.999Z</time></trkpt><trkpt lat="44.84810669110018" lon="9.478889508520984"><ele>606.5</ele><time>2026-03-22T12:16:02.999Z</time></trkpt><trkpt lat="44.848141762965554" lon="9.479081171063346"><ele>605.75</ele><time>2026-03-22T12:16:03.999Z</time></trkpt><trkpt lat="44.84817222728598" lon="9.479260067388413"><ele>605.0</ele><time>2026-03-22T12:16:04.999Z</time></trkpt><trkpt lat="44.84818965847833" lon="9.479428430295274"><ele>605.0</ele><time>2026-03-22T12:16:05.999Z</time></trkpt><trkpt lat="44.848174686677915" lon="9.479569489649771"><ele>605.0</ele><time>2026-03-22T12:16:06.999Z</time></trkpt><trkpt lat="44.84813180082278" lon="9.479681741442072"><ele>605.0</ele><time>2026-03-22T12:16:07.999Z</time></trkpt><trkpt lat="44.8480722993497" lon="9.479773832455876"><ele>605.0</ele><time>2026-03-22T12:16:08.998Z</time></trkpt><trkpt lat="44.84799941318645" lon="9.479868352149282"><ele>605.0</ele><time>2026-03-22T12:16:09.998Z</time></trkpt><trkpt lat="44.84792474006304" lon="9.4799914374769"><ele>602.75</ele><time>2026-03-22T12:16:10.998Z</time></trkpt><trkpt lat="44.847874308008215" lon="9.480147187059554"><ele>600.5</ele><time>2026-03-22T12:16:11.998Z</time></trkpt><trkpt lat="44.847857983613785" lon="9.480262886950978"><ele>598.25</ele><time>2026-03-22T12:16:12.998Z</time></trkpt><trkpt lat="44.8479451045501" lon="9.480411229217065"><ele>596.0</ele><time>2026-03-22T12:16:13.998Z</time></trkpt><trkpt lat="44.8480664184637" lon="9.480428042239843"><ele>596.0</ele><time>2026-03-22T12:16:14.998Z</time></trkpt><trkpt lat="44.848148168185354" lon="9.4804011733818"><ele>596.0</ele><time>2026-03-22T12:16:15.998Z</time></trkpt><trkpt lat="44.84820990669792" lon="9.480360072542004"><ele>596.0</ele><time>2026-03-22T12:16:16.998Z</time></trkpt><trkpt lat="44.84826864488958" lon="9.480320956228697"><ele>596.0</ele><time>2026-03-22T12:16:17.998Z</time></trkpt><trkpt lat="44.848356671503154" lon="9.480237816420189"><ele>596.0</ele><time>2026-03-22T12:16:19.998Z</time></trkpt><trkpt lat="44.84842741173495" lon="9.480172288073911"><ele>596.0</ele><time>2026-03-22T12:16:20.998Z</time></trkpt><trkpt lat="44.848517913649026" lon="9.480083830844906"><ele>589.6666666666666</ele><time>2026-03-22T12:16:21.998Z</time></trkpt><trkpt lat="44.84862636721853" lon="9.479969649556182"><ele>583.3333333333334</ele><time>2026-03-22T12:16:22.998Z</time></trkpt><trkpt lat="44.84875617604342" lon="9.479801346890682"><ele>577.0</ele><time>2026-03-22T12:16:23.998Z</time></trkpt><trkpt lat="44.84889082059037" lon="9.47960325702246"><ele>580.6666666666667</ele><time>2026-03-22T12:16:24.998Z</time></trkpt><trkpt lat="44.84900728017426" lon="9.479415675523073"><ele>584.3333333333334</ele><time>2026-03-22T12:16:25.998Z</time></trkpt><trkpt lat="44.84911472228265" lon="9.479240932750603"><ele>588.0</ele><time>2026-03-22T12:16:26.998Z</time></trkpt><trkpt lat="44.849216158500184" lon="9.479071946377285"><ele>584.5</ele><time>2026-03-22T12:16:27.998Z</time></trkpt><trkpt lat="44.84931635281551" lon="9.478903305792153"><ele>581.0</ele><time>2026-03-22T12:16:28.998Z</time></trkpt><trkpt lat="44.849400940613116" lon="9.47874172105333"><ele>577.5</ele><time>2026-03-22T12:16:29.998Z</time></trkpt><trkpt lat="44.849457553641706" lon="9.478557534135906"><ele>574.0</ele><time>2026-03-22T12:16:30.998Z</time></trkpt><trkpt lat="44.84951203758098" lon="9.478350427281535"><ele>574.0</ele><time>2026-03-22T12:16:31.998Z</time></trkpt><trkpt lat="44.84956358788771" lon="9.478169154323298"><ele>574.0</ele><time>2026-03-22T12:16:32.998Z</time></trkpt><trkpt lat="44.8496127053815" lon="9.478034617867687"><ele>574.0</ele><time>2026-03-22T12:16:33.998Z</time></trkpt><trkpt lat="44.849700172258295" lon="9.47795704717958"><ele>574.0</ele><time>2026-03-22T12:16:34.998Z</time></trkpt><trkpt lat="44.849832341023856" lon="9.477971826153572"><ele>574.0</ele><time>2026-03-22T12:16:35.998Z</time></trkpt><trkpt lat="44.849907847112796" lon="9.478145093985955"><ele>574.0</ele><time>2026-03-22T12:16:36.998Z</time></trkpt><trkpt lat="44.8498833618417" lon="9.478291588165671"><ele>574.0</ele><time>2026-03-22T12:16:37.998Z</time></trkpt><trkpt lat="44.8499193245642" lon="9.47848719103314"><ele>574.0</ele><time>2026-03-22T12:16:38.998Z</time></trkpt><trkpt lat="44.84996219911635" lon="9.478704630152412"><ele>573.5</ele><time>2026-03-22T12:16:39.998Z</time></trkpt><trkpt lat="44.85000005917145" lon="9.47890638798104"><ele>573.0</ele><time>2026-03-22T12:16:40.998Z</time></trkpt><trkpt lat="44.8500100031478" lon="9.47907329786372"><ele>572.5</ele><time>2026-03-22T12:16:41.998Z</time></trkpt><trkpt lat="44.8500002164674" lon="9.479228023901522"><ele>572.0</ele><time>2026-03-22T12:16:42.998Z</time></trkpt><trkpt lat="44.849942051757004" lon="9.479333036420204"><ele>572.0</ele><time>2026-03-22T12:16:43.998Z</time></trkpt><trkpt lat="44.8498612901151" lon="9.479488122981934"><ele>572.0</ele><time>2026-03-22T12:16:44.998Z</time></trkpt><trkpt lat="44.84978941518098" lon="9.479637257657554"><ele>572.0</ele><time>2026-03-22T12:16:45.998Z</time></trkpt><trkpt lat="44.849748976898155" lon="9.479788629692369"><ele>572.0</ele><time>2026-03-22T12:16:46.998Z</time></trkpt><trkpt lat="44.8497541302894" lon="9.479961223815843"><ele>568.75</ele><time>2026-03-22T12:16:47.998Z</time></trkpt><trkpt lat="44.84981967867033" lon="9.480107196384731"><ele>565.5</ele><time>2026-03-22T12:16:48.998Z</time></trkpt><trkpt lat="44.84995461844526" lon="9.480127997790404"><ele>562.25</ele><time>2026-03-22T12:16:49.998Z</time></trkpt><trkpt lat="44.84983847198401" lon="9.480147525528142"><ele>559.0</ele><time>2026-03-22T12:16:56.997Z</time></trkpt><trkpt lat="44.849787010529695" lon="9.480242211114621"><ele>559.0</ele><time>2026-03-22T12:16:59.997Z</time></trkpt><trkpt lat="44.849743565513386" lon="9.480334468444557"><ele>559.0</ele><time>2026-03-22T12:17:00.997Z</time></trkpt><trkpt lat="44.8497091386326" lon="9.480409572269533"><ele>559.0</ele><time>2026-03-22T12:17:01.997Z</time></trkpt><trkpt lat="44.84979819101576" lon="9.480542264703876"><ele>559.0</ele><time>2026-03-22T12:22:14.999Z</time></trkpt><trkpt lat="44.84974581745673" lon="9.480488283447723"><ele>559.0</ele><time>2026-03-22T12:31:11.998Z</time></trkpt><trkpt lat="44.84972504810096" lon="9.480585392545015"><ele>559.0</ele><time>2026-03-22T12:31:13.998Z</time></trkpt><trkpt lat="44.849682534222175" lon="9.480670376123582"><ele>559.8</ele><time>2026-03-22T12:31:15.998Z</time></trkpt><trkpt lat="44.84961505352918" lon="9.480763918941966"><ele>560.5999999999999</ele><time>2026-03-22T12:31:18.998Z</time></trkpt><trkpt lat="44.849499305944626" lon="9.480791019896925"><ele>561.4</ele><time>2026-03-22T12:31:20.998Z</time></trkpt><trkpt lat="44.84942539273768" lon="9.480792873070225"><ele>562.1999999999999</ele><time>2026-03-22T12:31:21.998Z</time></trkpt><trkpt lat="44.84935649647699" lon="9.480809736585325"><ele>563.0</ele><time>2026-03-22T12:31:22.998Z</time></trkpt><trkpt lat="44.849256979080636" lon="9.480766902299067"><ele>563.0</ele><time>2026-03-22T12:31:23.998Z</time></trkpt><trkpt lat="44.849182050685634" lon="9.480836685052013"><ele>563.0</ele><time>2026-03-22T12:31:24.998Z</time></trkpt><trkpt lat="44.849134739156355" lon="9.480958395728376"><ele>563.0</ele><time>2026-03-22T12:31:25.998Z</time></trkpt><trkpt lat="44.84911042488298" lon="9.481106215163631"><ele>563.0</ele><time>2026-03-22T12:31:26.998Z</time></trkpt><trkpt lat="44.84900909130321" lon="9.481227259950266"><ele>563.0</ele><time>2026-03-22T12:31:28.998Z</time></trkpt><trkpt lat="44.84893778918072" lon="9.48133801701131"><ele>560.6</ele><time>2026-03-22T12:31:29.998Z</time></trkpt><trkpt lat="44.84887874378147" lon="9.48144881478873"><ele>558.1999999999999</ele><time>2026-03-22T12:31:30.998Z</time></trkpt><trkpt lat="44.84883929479088" lon="9.481569684527411"><ele>555.8</ele><time>2026-03-22T12:31:31.998Z</time></trkpt><trkpt lat="44.84880759840201" lon="9.481709389819866"><ele>553.4</ele><time>2026-03-22T12:31:32.997Z</time></trkpt><trkpt lat="44.84877502998323" lon="9.481862506185927"><ele>551.0</ele><time>2026-03-22T12:31:33.997Z</time></trkpt><trkpt lat="44.848755835681644" lon="9.482030105383012"><ele>549.0</ele><time>2026-03-22T12:31:34.997Z</time></trkpt><trkpt lat="44.84877987395141" lon="9.482160786934301"><ele>547.0</ele><time>2026-03-22T12:31:35.997Z</time></trkpt><trkpt lat="44.84876787175423" lon="9.482291955188002"><ele>545.0</ele><time>2026-03-22T12:31:36.997Z</time></trkpt><trkpt lat="44.848740259898065" lon="9.482405068196531"><ele>543.0</ele><time>2026-03-22T12:31:37.997Z</time></trkpt><trkpt lat="44.848721551645774" lon="9.482566862355748"><ele>541.0</ele><time>2026-03-22T12:31:38.997Z</time></trkpt><trkpt lat="44.84870651746873" lon="9.482696882112878"><ele>541.0</ele><time>2026-03-22T12:31:39.997Z</time></trkpt><trkpt lat="44.848691103985914" lon="9.482830182160077"><ele>541.0</ele><time>2026-03-22T12:31:40.997Z</time></trkpt><trkpt lat="44.84867374480535" lon="9.48297514174267"><ele>541.0</ele><time>2026-03-22T12:31:41.997Z</time></trkpt><trkpt lat="44.84865664558488" lon="9.483114304821743"><ele>541.0</ele><time>2026-03-22T12:31:42.997Z</time></trkpt><trkpt lat="44.84863924295348" lon="9.483239465974702"><ele>541.0</ele><time>2026-03-22T12:31:44Z</time></trkpt><trkpt lat="44.8486207110788" lon="9.483380618386011"><ele>540.6</ele><time>2026-03-22T12:31:45Z</time></trkpt><trkpt lat="44.848605829646345" lon="9.483512774496344"><ele>540.2</ele><time>2026-03-22T12:31:46Z</time></trkpt><trkpt lat="44.848599228694724" lon="9.483608064893227"><ele>539.8</ele><time>2026-03-22T12:31:47Z</time></trkpt><trkpt lat="44.84861590786468" lon="9.48374227741669"><ele>539.4</ele><time>2026-03-22T12:31:48Z</time></trkpt><trkpt lat="44.84865654073788" lon="9.483870979657006"><ele>539.0</ele><time>2026-03-22T12:31:49Z</time></trkpt><trkpt lat="44.84868863735749" lon="9.484006965882907"><ele>539.0</ele><time>2026-03-22T12:31:50Z</time></trkpt><trkpt lat="44.84868123801286" lon="9.484115860039482"><ele>539.0</ele><time>2026-03-22T12:31:51Z</time></trkpt><trkpt lat="44.84868468107611" lon="9.484222418875644"><ele>539.0</ele><time>2026-03-22T12:31:53Z</time></trkpt><trkpt lat="44.84870813438762" lon="9.484391265406249"><ele>539.0</ele><time>2026-03-22T12:31:55Z</time></trkpt><trkpt lat="44.8487657016777" lon="9.484477548362758"><ele>539.0</ele><time>2026-03-22T12:31:56Z</time></trkpt><trkpt lat="44.848800850796565" lon="9.484563318014219"><ele>539.0</ele><time>2026-03-22T12:31:57Z</time></trkpt><trkpt lat="44.848847149718104" lon="9.484722381266279"><ele>538.6</ele><time>2026-03-22T12:31:59Z</time></trkpt><trkpt lat="44.848881367764456" lon="9.484890112535073"><ele>538.2</ele><time>2026-03-22T12:32:01Z</time></trkpt><trkpt lat="44.84890904310615" lon="9.48507447422043"><ele>537.8000000000001</ele><time>2026-03-22T12:32:03Z</time></trkpt><trkpt lat="44.848928194978754" lon="9.485181563922882"><ele>537.4</ele><time>2026-03-22T12:32:04Z</time></trkpt><trkpt lat="44.84895340551311" lon="9.48527892087022"><ele>537.0</ele><time>2026-03-22T12:32:05Z</time></trkpt><trkpt lat="44.848976753270044" lon="9.485365074913302"><ele>537.0</ele><time>2026-03-22T12:32:06Z</time></trkpt><trkpt lat="44.8490042045692" lon="9.485446221201459"><ele>537.0</ele><time>2026-03-22T12:32:07Z</time></trkpt><trkpt lat="44.84907650413935" lon="9.485585817061187"><ele>537.0</ele><time>2026-03-22T12:32:09Z</time></trkpt><trkpt lat="44.84912782379954" lon="9.48567617787576"><ele>537.0</ele><time>2026-03-22T12:32:10Z</time></trkpt><trkpt lat="44.849101003677696" lon="9.485795766307719"><ele>537.0</ele><time>2026-03-22T12:32:11Z</time></trkpt><trkpt lat="44.84913724885947" lon="9.48587735243462"><ele>537.0</ele><time>2026-03-22T12:32:12Z</time></trkpt><trkpt lat="44.84917388333762" lon="9.485963099246549"><ele>537.0</ele><time>2026-03-22T12:32:14Z</time></trkpt><trkpt lat="44.84923339013851" lon="9.486034762253652"><ele>537.0</ele><time>2026-03-22T12:32:15Z</time></trkpt><trkpt lat="44.849282343429074" lon="9.486098325559782"><ele>537.0</ele><time>2026-03-22T12:32:16Z</time></trkpt><trkpt lat="44.84936130526828" lon="9.486211330882835"><ele>537.0</ele><time>2026-03-22T12:32:18Z</time></trkpt><trkpt lat="44.849438740986415" lon="9.486295185947156"><ele>537.0</ele><time>2026-03-22T12:32:20Z</time></trkpt><trkpt lat="44.849479766738334" lon="9.486405961981916"><ele>537.0</ele><time>2026-03-22T12:32:22Z</time></trkpt><trkpt lat="44.84945385405256" lon="9.486492704407501"><ele>535.0</ele><time>2026-03-22T12:32:24Z</time></trkpt><trkpt lat="44.84951780920687" lon="9.486663987443174"><ele>533.0</ele><time>2026-03-22T12:32:26.999Z</time></trkpt><trkpt lat="44.84966144149999" lon="9.486764295645143"><ele>531.0</ele><time>2026-03-22T12:32:28.999Z</time></trkpt><trkpt lat="44.8497646852273" lon="9.486831455002049"><ele>529.0</ele><time>2026-03-22T12:32:29.999Z</time></trkpt><trkpt lat="44.84987781375301" lon="9.486869658110802"><ele>529.0</ele><time>2026-03-22T12:32:30.999Z</time></trkpt><trkpt lat="44.84995840281156" lon="9.486920626840801"><ele>529.0</ele><time>2026-03-22T12:32:31.999Z</time></trkpt><trkpt lat="44.85005167649976" lon="9.486936333895956"><ele>529.0</ele><time>2026-03-22T12:32:33.999Z</time></trkpt><trkpt lat="44.85013277811937" lon="9.48692646802913"><ele>529.0</ele><time>2026-03-22T12:32:36.999Z</time></trkpt><trkpt lat="44.85024642034392" lon="9.486905983730201"><ele>529.0</ele><time>2026-03-22T12:32:39.999Z</time></trkpt><trkpt lat="44.850312465247015" lon="9.486909976791447"><ele>529.0</ele><time>2026-03-22T12:32:40.999Z</time></trkpt><trkpt lat="44.85042991428927" lon="9.486913150419142"><ele>526.6</ele><time>2026-03-22T12:32:42.999Z</time></trkpt><trkpt lat="44.85052142687038" lon="9.486871032516223"><ele>524.2</ele><time>2026-03-22T12:32:44.999Z</time></trkpt><trkpt lat="44.850588924243596" lon="9.486778151357449"><ele>521.8000000000001</ele><time>2026-03-22T12:32:46.999Z</time></trkpt><trkpt lat="44.85065108496952" lon="9.486697759978448"><ele>519.4</ele><time>2026-03-22T12:32:48.999Z</time></trkpt><trkpt lat="44.85073290201238" lon="9.486720648011897"><ele>517.0</ele><time>2026-03-22T12:32:51.999Z</time></trkpt><trkpt lat="44.85073118972529" lon="9.486863109547766"><ele>517.0</ele><time>2026-03-22T12:32:53.999Z</time></trkpt><trkpt lat="44.85078325645359" lon="9.487003556904725"><ele>517.0</ele><time>2026-03-22T12:32:55.999Z</time></trkpt><trkpt lat="44.85081496482728" lon="9.487081984075576"><ele>517.0</ele><time>2026-03-22T12:32:56.999Z</time></trkpt><trkpt lat="44.85084863705903" lon="9.48716526888554"><ele>517.0</ele><time>2026-03-22T12:32:57.999Z</time></trkpt><trkpt lat="44.85088278650742" lon="9.487249733676848"><ele>517.0</ele><time>2026-03-22T12:32:58.999Z</time></trkpt><trkpt lat="44.85091574998171" lon="9.487331265218842"><ele>517.0</ele><time>2026-03-22T12:32:59.999Z</time></trkpt><trkpt lat="44.85094723458958" lon="9.487413479562775"><ele>517.0</ele><time>2026-03-22T12:33:00.999Z</time></trkpt><trkpt lat="44.85097762382162" lon="9.487493713339502"><ele>515.8333333333334</ele><time>2026-03-22T12:33:01.999Z</time></trkpt><trkpt lat="44.85101397150364" lon="9.48758967877723"><ele>514.6666666666667</ele><time>2026-03-22T12:33:02.999Z</time></trkpt><trkpt lat="44.85105343318897" lon="9.487692147641608"><ele>513.5</ele><time>2026-03-22T12:33:03.999Z</time></trkpt><trkpt lat="44.85109477261859" lon="9.487792626608641"><ele>512.3333333333334</ele><time>2026-03-22T12:33:04.999Z</time></trkpt><trkpt lat="44.851141234147946" lon="9.487885513305283"><ele>511.1666666666667</ele><time>2026-03-22T12:33:05.999Z</time></trkpt><trkpt lat="44.851191657714985" lon="9.487969083289657"><ele>510.0</ele><time>2026-03-22T12:33:06.998Z</time></trkpt><trkpt lat="44.851240767492264" lon="9.488051872962615"><ele>510.0</ele><time>2026-03-22T12:33:07.998Z</time></trkpt><trkpt lat="44.85128551320217" lon="9.488128857173061"><ele>510.0</ele><time>2026-03-22T12:33:08.998Z</time></trkpt><trkpt lat="44.85128266194028" lon="9.488255449099858"><ele>510.0</ele><time>2026-03-22T12:33:10.998Z</time></trkpt><trkpt lat="44.851225020912764" lon="9.488384228305849"><ele>510.0</ele><time>2026-03-22T12:33:11.998Z</time></trkpt><trkpt lat="44.85123958743967" lon="9.488159279494743"><ele>510.0</ele><time>2026-03-22T12:33:13.998Z</time></trkpt><trkpt lat="44.851280827279155" lon="9.48806936401593"><ele>510.0</ele><time>2026-03-22T12:33:45.998Z</time></trkpt><trkpt lat="44.85131115616515" lon="9.488154955977652"><ele>510.00000000000006</ele><time>2026-03-22T12:36:52.999Z</time></trkpt><trkpt lat="44.85133896892488" lon="9.488235067849363"><ele>510.0</ele><time>2026-03-22T12:37:00.999Z</time></trkpt><trkpt lat="44.851339930448354" lon="9.488334112697006"><ele>510.0</ele><time>2026-03-22T12:37:10.998Z</time></trkpt><trkpt lat="44.85130822453176" lon="9.48841484550021"><ele>510.00000000000006</ele><time>2026-03-22T12:37:20.998Z</time></trkpt><trkpt lat="44.85131822391555" lon="9.48850616359752"><ele>510.0</ele><time>2026-03-22T12:37:29.998Z</time></trkpt><trkpt lat="44.8513502319529" lon="9.488586063527107"><ele>510.0</ele><time>2026-03-22T12:37:35.998Z</time></trkpt><trkpt lat="44.85134969236665" lon="9.48868451407317"><ele>508.5714285714286</ele><time>2026-03-22T12:37:49.997Z</time></trkpt><trkpt lat="44.85130382033069" lon="9.488764417161226"><ele>507.1428571428572</ele><time>2026-03-22T12:37:58.997Z</time></trkpt><trkpt lat="44.85135019417785" lon="9.488827743932957"><ele>505.7142857142857</ele><time>2026-03-22T12:38:10Z</time></trkpt><trkpt lat="44.851422088476774" lon="9.488810262192427"><ele>504.28571428571433</ele><time>2026-03-22T12:38:20Z</time></trkpt><trkpt lat="44.85138421167621" lon="9.488902897115636"><ele>502.8571428571429</ele><time>2026-03-22T12:39:04.999Z</time></trkpt><trkpt lat="44.85138341783571" lon="9.489000462585155"><ele>501.42857142857144</ele><time>2026-03-22T12:39:44.998Z</time></trkpt><trkpt lat="44.85144750684937" lon="9.489007344660882"><ele>500.0</ele><time>2026-03-22T12:39:55.998Z</time></trkpt><trkpt lat="44.851517174522826" lon="9.489002858026295"><ele>500.0</ele><time>2026-03-22T12:40:01.998Z</time></trkpt><trkpt lat="44.851582791062256" lon="9.488981277923259"><ele>500.0</ele><time>2026-03-22T12:40:09Z</time></trkpt><trkpt lat="44.85156319457848" lon="9.489066034423383"><ele>500.0</ele><time>2026-03-22T12:40:35Z</time></trkpt><trkpt lat="44.85151266069912" lon="9.489141961035612"><ele>500.0</ele><time>2026-03-22T12:41:22.998Z</time></trkpt><trkpt lat="44.85145851319028" lon="9.489201695643343"><ele>500.0</ele><time>2026-03-22T12:41:32.998Z</time></trkpt><trkpt lat="44.85151752107758" lon="9.489152292318703"><ele>500.0</ele><time>2026-03-22T12:42:46.999Z</time></trkpt><trkpt lat="44.85158461451919" lon="9.489130160932728"><ele>500.0</ele><time>2026-03-22T12:43:01.999Z</time></trkpt><trkpt lat="44.851642817248226" lon="9.489075038579196"><ele>500.0</ele><time>2026-03-22T12:43:09.999Z</time></trkpt><trkpt lat="44.85161232890211" lon="9.488962654197202"><ele>500.0</ele><time>2026-03-22T12:43:33.998Z</time></trkpt><trkpt lat="44.85154008970019" lon="9.488989279279222"><ele>500.0</ele><time>2026-03-22T12:43:44.998Z</time></trkpt><trkpt lat="44.851467864503284" lon="9.48899006837044"><ele>500.0</ele><time>2026-03-22T12:43:49.998Z</time></trkpt><trkpt lat="44.85142209490121" lon="9.489052145180901"><ele>500.0</ele><time>2026-03-22T12:43:54.998Z</time></trkpt><trkpt lat="44.85137542535813" lon="9.48912316662029"><ele>500.0</ele><time>2026-03-22T12:44:26Z</time></trkpt><trkpt lat="44.8514342906072" lon="9.489076405319032"><ele>500.0</ele><time>2026-03-22T12:45:17.999Z</time></trkpt><trkpt lat="44.851427878841015" lon="9.488982859378337"><ele>500.0</ele><time>2026-03-22T12:45:49.998Z</time></trkpt><trkpt lat="44.85142271978257" lon="9.48889408251207"><ele>500.0</ele><time>2026-03-22T12:46:56Z</time></trkpt><trkpt lat="44.85143642043473" lon="9.488792397118543"><ele>500.0</ele><time>2026-03-22T12:47:04Z</time></trkpt><trkpt lat="44.85137274015866" lon="9.48882340560082"><ele>500.0</ele><time>2026-03-22T12:47:11.999Z</time></trkpt><trkpt lat="44.85139284838402" lon="9.48873682849384"><ele>500.0</ele><time>2026-03-22T12:47:32.999Z</time></trkpt><trkpt lat="44.851392468434355" lon="9.48863404527693"><ele>500.0</ele><time>2026-03-22T12:47:42.999Z</time></trkpt><trkpt lat="44.85137260596501" lon="9.488536861552383"><ele>500.0</ele><time>2026-03-22T12:47:50.999Z</time></trkpt><trkpt lat="44.85136632009041" lon="9.488446588725214"><ele>499.71428571428567</ele><time>2026-03-22T12:48:00.998Z</time></trkpt><trkpt lat="44.851356914334424" lon="9.488358357901191"><ele>499.42857142857144</ele><time>2026-03-22T12:48:52.999Z</time></trkpt><trkpt lat="44.85136688763132" lon="9.488264273032316"><ele>499.1428571428571</ele><time>2026-03-22T12:49:41.998Z</time></trkpt><trkpt lat="44.85137091462815" lon="9.488170761576027"><ele>498.85714285714283</ele><time>2026-03-22T12:49:51.998Z</time></trkpt><trkpt lat="44.85132031008846" lon="9.488115485120892"><ele>498.57142857142856</ele><time>2026-03-22T12:49:56.998Z</time></trkpt><trkpt lat="44.85128008884463" lon="9.488037944800054"><ele>498.2857142857143</ele><time>2026-03-22T12:50:02.998Z</time></trkpt><trkpt lat="44.85121240278961" lon="9.48802224802903"><ele>498.0</ele><time>2026-03-22T12:51:19.999Z</time></trkpt><trkpt lat="44.85118625368025" lon="9.487889038871156"><ele>498.0</ele><time>2026-03-22T12:53:18Z</time></trkpt><trkpt lat="44.851145862007655" lon="9.487816400937922"><ele>497.99999999999994</ele><time>2026-03-22T12:53:19Z</time></trkpt><trkpt lat="44.85107443157916" lon="9.487691234003293"><ele>497.99999999999994</ele><time>2026-03-22T12:53:20.999Z</time></trkpt><trkpt lat="44.85105092074382" lon="9.487587484313183"><ele>498.0</ele><time>2026-03-22T12:53:21.999Z</time></trkpt><trkpt lat="44.85100449388333" lon="9.487465076207531"><ele>498.0</ele><time>2026-03-22T12:53:22.999Z</time></trkpt><trkpt lat="44.85095895934267" lon="9.487344855604709"><ele>501.0</ele><time>2026-03-22T12:53:23.999Z</time></trkpt><trkpt lat="44.85090899655395" lon="9.48721984785711"><ele>503.99999999999994</ele><time>2026-03-22T12:53:24.999Z</time></trkpt><trkpt lat="44.850848627972" lon="9.48707053271204"><ele>506.99999999999994</ele><time>2026-03-22T12:53:25.999Z</time></trkpt><trkpt lat="44.85080225319775" lon="9.486955829727046"><ele>510.0</ele><time>2026-03-22T12:53:26.999Z</time></trkpt><trkpt lat="44.8507551412131" lon="9.486823008536273"><ele>513.0</ele><time>2026-03-22T12:53:28.999Z</time></trkpt><trkpt lat="44.850723481068634" lon="9.486725058099784"><ele>513.6666666666666</ele><time>2026-03-22T12:53:29.999Z</time></trkpt><trkpt lat="44.8506090933144" lon="9.486658620104624"><ele>514.3333333333334</ele><time>2026-03-22T12:53:41.999Z</time></trkpt><trkpt lat="44.85055585569848" lon="9.486723717997506"><ele>515.0</ele><time>2026-03-22T12:53:42.999Z</time></trkpt><trkpt lat="44.8505114317967" lon="9.486789270347385"><ele>515.6666666666667</ele><time>2026-03-22T12:53:44.999Z</time></trkpt><trkpt lat="44.85043049616683" lon="9.486860895907006"><ele>516.3333333333334</ele><time>2026-03-22T12:53:46.999Z</time></trkpt><trkpt lat="44.85033629951751" lon="9.486876717969778"><ele>517.0</ele><time>2026-03-22T12:53:48.999Z</time></trkpt><trkpt lat="44.85022708410286" lon="9.48687392722103"><ele>519.0</ele><time>2026-03-22T12:53:49.999Z</time></trkpt><trkpt lat="44.85009820041095" lon="9.486879144895003"><ele>521.0</ele><time>2026-03-22T12:53:50.999Z</time></trkpt><trkpt lat="44.85001117479542" lon="9.486879309264443"><ele>523.0</ele><time>2026-03-22T12:53:51.999Z</time></trkpt><trkpt lat="44.849945041543194" lon="9.486867546064127"><ele>525.0</ele><time>2026-03-22T12:53:52.999Z</time></trkpt><trkpt lat="44.84988142333959" lon="9.486842215910396"><ele>527.0</ele><time>2026-03-22T12:53:53.999Z</time></trkpt><trkpt lat="44.84980402662972" lon="9.486802708558272"><ele>529.0</ele><time>2026-03-22T12:53:54.999Z</time></trkpt><trkpt lat="44.849735126687264" lon="9.486760661119298"><ele>529.0</ele><time>2026-03-22T12:53:55.999Z</time></trkpt><trkpt lat="44.849661427926705" lon="9.486735648859057"><ele>529.0</ele><time>2026-03-22T12:53:56.999Z</time></trkpt><trkpt lat="44.84959538592488" lon="9.48668734863373"><ele>529.0</ele><time>2026-03-22T12:53:57.999Z</time></trkpt><trkpt lat="44.84952563362705" lon="9.486615569988928"><ele>529.0</ele><time>2026-03-22T12:53:59.999Z</time></trkpt><trkpt lat="44.84946434468856" lon="9.486555882700767"><ele>529.0</ele><time>2026-03-22T12:54:01.999Z</time></trkpt><trkpt lat="44.84940911777371" lon="9.486510512462663"><ele>529.0</ele><time>2026-03-22T12:54:05.998Z</time></trkpt><trkpt lat="44.84934159055869" lon="9.486534800777308"><ele>529.0</ele><time>2026-03-22T12:54:06.998Z</time></trkpt><trkpt lat="44.849232092772375" lon="9.486506672027017"><ele>529.0</ele><time>2026-03-22T12:54:10.998Z</time></trkpt><trkpt lat="44.849122296374745" lon="9.486449666535462"><ele>529.0</ele><time>2026-03-22T12:54:12.998Z</time></trkpt><trkpt lat="44.84904747461354" lon="9.486415366965176"><ele>529.0</ele><time>2026-03-22T12:54:13.998Z</time></trkpt><trkpt lat="44.84897992619724" lon="9.486388243276988"><ele>529.0</ele><time>2026-03-22T12:54:14.998Z</time></trkpt><trkpt lat="44.84891581359657" lon="9.486363917073952"><ele>529.0</ele><time>2026-03-22T12:54:15.998Z</time></trkpt><trkpt lat="44.848788249125896" lon="9.486334591031929"><ele>529.0</ele><time>2026-03-22T12:54:17.998Z</time></trkpt><trkpt lat="44.84870233007266" lon="9.486358036981107"><ele>529.0</ele><time>2026-03-22T12:54:18.998Z</time></trkpt><trkpt lat="44.84862397133546" lon="9.486443644829762"><ele>529.0</ele><time>2026-03-22T12:54:19.998Z</time></trkpt><trkpt lat="44.848557971193166" lon="9.486529184610857"><ele>529.0</ele><time>2026-03-22T12:54:20.998Z</time></trkpt><trkpt lat="44.84849340801353" lon="9.486608988886672"><ele>529.0</ele><time>2026-03-22T12:54:21.998Z</time></trkpt><trkpt lat="44.84841872095432" lon="9.48669607839007"><ele>526.8</ele><time>2026-03-22T12:54:22.998Z</time></trkpt><trkpt lat="44.848342782967244" lon="9.486784626558586"><ele>524.5999999999999</ele><time>2026-03-22T12:54:23.998Z</time></trkpt><trkpt lat="44.84825863682757" lon="9.486885370335546"><ele>522.4</ele><time>2026-03-22T12:54:24.998Z</time></trkpt><trkpt lat="44.84817449174832" lon="9.487004540826623"><ele>520.1999999999999</ele><time>2026-03-22T12:54:25.998Z</time></trkpt><trkpt lat="44.848113023038955" lon="9.487111283115235"><ele>518.0</ele><time>2026-03-22T12:54:26.998Z</time></trkpt><trkpt lat="44.848046134780866" lon="9.487196665590607"><ele>516.0</ele><time>2026-03-22T12:54:27.998Z</time></trkpt><trkpt lat="44.847973962971" lon="9.487275099418785"><ele>514.0</ele><time>2026-03-22T12:54:28.998Z</time></trkpt><trkpt lat="44.8478927864206" lon="9.487365591012516"><ele>511.99999999999994</ele><time>2026-03-22T12:54:29.998Z</time></trkpt><trkpt lat="44.84780722912446" lon="9.487483196026888"><ele>510.0</ele><time>2026-03-22T12:54:30.998Z</time></trkpt><trkpt lat="44.84773964166228" lon="9.487581728912595"><ele>508.0</ele><time>2026-03-22T12:54:31.998Z</time></trkpt><trkpt lat="44.847679674022075" lon="9.487670912853902"><ele>507.6666666666667</ele><time>2026-03-22T12:54:32.998Z</time></trkpt><trkpt lat="44.84762590004272" lon="9.48775763504393"><ele>507.33333333333337</ele><time>2026-03-22T12:54:33.998Z</time></trkpt><trkpt lat="44.84757607323235" lon="9.48784475303963"><ele>507.0</ele><time>2026-03-22T12:54:34.998Z</time></trkpt><trkpt lat="44.847523928887895" lon="9.487962408706526"><ele>506.66666666666663</ele><time>2026-03-22T12:54:36.998Z</time></trkpt><trkpt lat="44.847523453972215" lon="9.488072838690764"><ele>506.3333333333333</ele><time>2026-03-22T12:54:37.998Z</time></trkpt><trkpt lat="44.84756344742206" lon="9.48816804147444"><ele>506.0</ele><time>2026-03-22T12:54:38.998Z</time></trkpt><trkpt lat="44.84762266947825" lon="9.488239224205435"><ele>504.49999999999994</ele><time>2026-03-22T12:54:39.998Z</time></trkpt><trkpt lat="44.84766787937844" lon="9.488343909013011"><ele>503.0</ele><time>2026-03-22T12:54:40.998Z</time></trkpt><trkpt lat="44.847694416664744" lon="9.488450611880497"><ele>501.5</ele><time>2026-03-22T12:54:41.998Z</time></trkpt><trkpt lat="44.847685620142634" lon="9.488539923027277"><ele>500.0</ele><time>2026-03-22T12:54:42.998Z</time></trkpt><trkpt lat="44.84769303406728" lon="9.488638966320728"><ele>498.49999999999994</ele><time>2026-03-22T12:54:43.998Z</time></trkpt><trkpt lat="44.84773029938091" lon="9.488778087529997"><ele>497.0</ele><time>2026-03-22T12:54:45.998Z</time></trkpt><trkpt lat="44.84774082963635" lon="9.488871457621189"><ele>497.0</ele><time>2026-03-22T12:54:50Z</time></trkpt><trkpt lat="44.84778074454759" lon="9.488966381866787"><ele>497.00000000000006</ele><time>2026-03-22T12:54:53Z</time></trkpt><trkpt lat="44.84789278394903" lon="9.488849549045838"><ele>497.00000000000006</ele><time>2026-03-22T12:54:54Z</time></trkpt><trkpt lat="44.84794899803263" lon="9.488701948185982"><ele>497.0</ele><time>2026-03-22T12:54:56Z</time></trkpt><trkpt lat="44.84799887309527" lon="9.48858304187741"><ele>497.0</ele><time>2026-03-22T12:54:57Z</time></trkpt><trkpt lat="44.84806311680352" lon="9.488468028847958"><ele>496.99999999999994</ele><time>2026-03-22T12:54:58Z</time></trkpt><trkpt lat="44.84813500811229" lon="9.48837750953693"><ele>497.0</ele><time>2026-03-22T12:54:59Z</time></trkpt><trkpt lat="44.84821243559329" lon="9.488357209183453"><ele>497.0</ele><time>2026-03-22T12:55:00Z</time></trkpt><trkpt lat="44.84828167257301" lon="9.488350879198922"><ele>497.0</ele><time>2026-03-22T12:55:01Z</time></trkpt><trkpt lat="44.848332990440454" lon="9.488414428584635"><ele>496.99999999999994</ele><time>2026-03-22T12:55:02Z</time></trkpt><trkpt lat="44.848401037006454" lon="9.488442014844795"><ele>497.0</ele><time>2026-03-22T12:55:03Z</time></trkpt><trkpt lat="44.8484694861602" lon="9.488506461815593"><ele>495.99999999999994</ele><time>2026-03-22T12:55:04Z</time></trkpt><trkpt lat="44.848537329709124" lon="9.488559041102743"><ele>495.0</ele><time>2026-03-22T12:55:05Z</time></trkpt><trkpt lat="44.848605784542514" lon="9.488633640002996"><ele>494.0</ele><time>2026-03-22T12:55:06Z</time></trkpt><trkpt lat="44.84866132398719" lon="9.488691931153866"><ele>493.0</ele><time>2026-03-22T12:55:07Z</time></trkpt><trkpt lat="44.84872525900066" lon="9.488781644312974"><ele>491.99999999999994</ele><time>2026-03-22T12:55:08Z</time></trkpt><trkpt lat="44.84880212164032" lon="9.488852976203704"><ele>491.0</ele><time>2026-03-22T12:55:09Z</time></trkpt><trkpt lat="44.848901460129255" lon="9.488929243903373"><ele>489.4</ele><time>2026-03-22T12:55:09.999Z</time></trkpt><trkpt lat="44.84900413377206" lon="9.48899483346935"><ele>487.8</ele><time>2026-03-22T12:55:10.999Z</time></trkpt><trkpt lat="44.849089976744466" lon="9.489042911375439"><ele>486.19999999999993</ele><time>2026-03-22T12:55:11.999Z</time></trkpt><trkpt lat="44.84918577582054" lon="9.48908232802876"><ele>484.59999999999997</ele><time>2026-03-22T12:55:12.999Z</time></trkpt><trkpt lat="44.84927346051356" lon="9.489142715976383"><ele>483.0</ele><time>2026-03-22T12:55:13.999Z</time></trkpt><trkpt lat="44.849334788937576" lon="9.489210270509751"><ele>483.0</ele><time>2026-03-22T12:55:14.999Z</time></trkpt><trkpt lat="44.84939492732642" lon="9.489257037802092"><ele>483.0</ele><time>2026-03-22T12:55:15.999Z</time></trkpt><trkpt lat="44.84946691050607" lon="9.489300772502162"><ele>483.0</ele><time>2026-03-22T12:55:16.999Z</time></trkpt><trkpt lat="44.84952043399792" lon="9.489362701179363"><ele>483.0</ele><time>2026-03-22T12:55:18.999Z</time></trkpt><trkpt lat="44.84956500238745" lon="9.489438516400414"><ele>483.0</ele><time>2026-03-22T12:55:20.999Z</time></trkpt><trkpt lat="44.8495314454869" lon="9.489532197331158"><ele>483.0</ele><time>2026-03-22T12:55:23.999Z</time></trkpt><trkpt lat="44.84940849917915" lon="9.489601698849594"><ele>481.1666666666667</ele><time>2026-03-22T12:55:26.999Z</time></trkpt><trkpt lat="44.84934370981544" lon="9.489646784707809"><ele>479.33333333333337</ele><time>2026-03-22T12:55:27.999Z</time></trkpt><trkpt lat="44.84929804641225" lon="9.48974078245579"><ele>477.5</ele><time>2026-03-22T12:55:28.999Z</time></trkpt><trkpt lat="44.84928324246561" lon="9.489833527937925"><ele>475.6666666666667</ele><time>2026-03-22T12:55:29.999Z</time></trkpt><trkpt lat="44.84931435135068" lon="9.49001148290142"><ele>473.83333333333337</ele><time>2026-03-22T12:55:31.999Z</time></trkpt><trkpt lat="44.849378342962396" lon="9.490085826760343"><ele>472.0</ele><time>2026-03-22T12:55:32.999Z</time></trkpt><trkpt lat="44.84944250612372" lon="9.490109995486486"><ele>470.8</ele><time>2026-03-22T12:55:33.999Z</time></trkpt><trkpt lat="44.849549875689924" lon="9.49016511985126"><ele>469.6</ele><time>2026-03-22T12:55:35.998Z</time></trkpt><trkpt lat="44.84961587217622" lon="9.490194415801067"><ele>468.40000000000003</ele><time>2026-03-22T12:55:36.998Z</time></trkpt><trkpt lat="44.84970503586873" lon="9.490229949443902"><ele>467.20000000000005</ele><time>2026-03-22T12:55:37.998Z</time></trkpt><trkpt lat="44.84977738411487" lon="9.490262765144049"><ele>466.0</ele><time>2026-03-22T12:55:38.998Z</time></trkpt><trkpt lat="44.84991700854192" lon="9.490285018741252"><ele>466.00000000000006</ele><time>2026-03-22T12:55:40.998Z</time></trkpt><trkpt lat="44.84998252445197" lon="9.490284201259605"><ele>466.0</ele><time>2026-03-22T12:55:41.998Z</time></trkpt><trkpt lat="44.85007047674248" lon="9.490290563071722"><ele>466.0</ele><time>2026-03-22T12:55:42.998Z</time></trkpt><trkpt lat="44.85016014831912" lon="9.490301281101676"><ele>466.0</ele><time>2026-03-22T12:55:43.998Z</time></trkpt><trkpt lat="44.85023399414514" lon="9.490292598718197"><ele>466.00000000000006</ele><time>2026-03-22T12:55:44.998Z</time></trkpt><trkpt lat="44.850310050402754" lon="9.4903101021346"><ele>466.0</ele><time>2026-03-22T12:55:45.998Z</time></trkpt><trkpt lat="44.850400408589856" lon="9.49033487304425"><ele>466.6</ele><time>2026-03-22T12:55:46.998Z</time></trkpt><trkpt lat="44.85049313285056" lon="9.490361413373915"><ele>467.20000000000005</ele><time>2026-03-22T12:55:47.998Z</time></trkpt><trkpt lat="44.850574518173225" lon="9.490369703062044"><ele>467.79999999999995</ele><time>2026-03-22T12:55:48.998Z</time></trkpt><trkpt lat="44.85068161734903" lon="9.490384150908111"><ele>468.4</ele><time>2026-03-22T12:55:49.998Z</time></trkpt><trkpt lat="44.850780672565726" lon="9.490405731884621"><ele>469.0</ele><time>2026-03-22T12:55:50.998Z</time></trkpt><trkpt lat="44.85086536072896" lon="9.490428568063807"><ele>464.50000000000006</ele><time>2026-03-22T12:55:51.998Z</time></trkpt><trkpt lat="44.850941545820426" lon="9.490460844454459"><ele>460.0</ele><time>2026-03-22T12:55:52.998Z</time></trkpt><trkpt lat="44.85098766852822" lon="9.490544984627746"><ele>455.5</ele><time>2026-03-22T12:55:53.998Z</time></trkpt><trkpt lat="44.85104773658156" lon="9.490612623615831"><ele>451.0</ele><time>2026-03-22T12:55:54.998Z</time></trkpt><trkpt lat="44.85111609962602" lon="9.490692075421801"><ele>446.50000000000006</ele><time>2026-03-22T12:55:55.998Z</time></trkpt><trkpt lat="44.85119229207607" lon="9.490786362204346"><ele>442.0</ele><time>2026-03-22T12:55:56.998Z</time></trkpt><trkpt lat="44.85127422145897" lon="9.490882535316729"><ele>441.6</ele><time>2026-03-22T12:55:57.998Z</time></trkpt><trkpt lat="44.85136170649503" lon="9.490952394217675"><ele>441.20000000000005</ele><time>2026-03-22T12:55:58.998Z</time></trkpt><trkpt lat="44.851442762792786" lon="9.491028863709834"><ele>440.8</ele><time>2026-03-22T12:55:59.998Z</time></trkpt><trkpt lat="44.851519250337134" lon="9.491094171035565"><ele>440.4</ele><time>2026-03-22T12:56:00.998Z</time></trkpt><trkpt lat="44.85158545228673" lon="9.491151671518356"><ele>440.0</ele><time>2026-03-22T12:56:01.998Z</time></trkpt><trkpt lat="44.8516959060993" lon="9.491228820043075"><ele>437.6</ele><time>2026-03-22T12:56:03.998Z</time></trkpt><trkpt lat="44.851771721812334" lon="9.491294406989322"><ele>435.2</ele><time>2026-03-22T12:56:04.998Z</time></trkpt><trkpt lat="44.85183771093145" lon="9.491374220551185"><ele>432.79999999999995</ele><time>2026-03-22T12:56:05.998Z</time></trkpt><trkpt lat="44.85190383762471" lon="9.491445600477332"><ele>430.4</ele><time>2026-03-22T12:56:06.998Z</time></trkpt><trkpt lat="44.851978571570754" lon="9.491533872311335"><ele>428.0</ele><time>2026-03-22T12:56:07.998Z</time></trkpt><trkpt lat="44.85206385363756" lon="9.491629951239489"><ele>427.8333333333333</ele><time>2026-03-22T12:56:08.998Z</time></trkpt><trkpt lat="44.85214130364849" lon="9.491691139905125"><ele>427.66666666666663</ele><time>2026-03-22T12:56:09.998Z</time></trkpt><trkpt lat="44.85221432245586" lon="9.491756748227774"><ele>427.5</ele><time>2026-03-22T12:56:10.998Z</time></trkpt><trkpt lat="44.85228351801065" lon="9.49181351027828"><ele>427.33333333333337</ele><time>2026-03-22T12:56:11.998Z</time></trkpt><trkpt lat="44.85236166051036" lon="9.491881750944634"><ele>427.1666666666667</ele><time>2026-03-22T12:56:12.998Z</time></trkpt><trkpt lat="44.85244958798473" lon="9.49195206888368"><ele>427.0</ele><time>2026-03-22T12:56:13.998Z</time></trkpt><trkpt lat="44.85252420564767" lon="9.492008197288252"><ele>427.00000000000006</ele><time>2026-03-22T12:56:14.998Z</time></trkpt><trkpt lat="44.852601615414" lon="9.492082237010713"><ele>427.0</ele><time>2026-03-22T12:56:15.998Z</time></trkpt><trkpt lat="44.85267167760438" lon="9.492160929597828"><ele>427.0</ele><time>2026-03-22T12:56:16.998Z</time></trkpt><trkpt lat="44.85273991913321" lon="9.492226161956346"><ele>427.0</ele><time>2026-03-22T12:56:17.998Z</time></trkpt><trkpt lat="44.85277808177919" lon="9.492306397592102"><ele>427.00000000000006</ele><time>2026-03-22T12:56:18.998Z</time></trkpt><trkpt lat="44.8528244456742" lon="9.492390140068759"><ele>427.0</ele><time>2026-03-22T12:56:19.998Z</time></trkpt><trkpt lat="44.85287926597049" lon="9.492537962001691"><ele>423.40000000000003</ele><time>2026-03-22T12:56:21.997Z</time></trkpt><trkpt lat="44.85287991287009" lon="9.492676925972779"><ele>419.80000000000007</ele><time>2026-03-22T12:56:23.997Z</time></trkpt><trkpt lat="44.85283349568258" lon="9.492827500335821"><ele>416.2</ele><time>2026-03-22T12:56:25.997Z</time></trkpt><trkpt lat="44.85280576977805" lon="9.492912743924428"><ele>412.6</ele><time>2026-03-22T12:56:26.997Z</time></trkpt><trkpt lat="44.85276891430825" lon="9.49302718402145"><ele>409.0</ele><time>2026-03-22T12:56:27.997Z</time></trkpt><trkpt lat="44.852747764329344" lon="9.493158492155287"><ele>406.83333333333337</ele><time>2026-03-22T12:56:28.997Z</time></trkpt><trkpt lat="44.85275579492929" lon="9.493284771729902"><ele>404.6666666666667</ele><time>2026-03-22T12:56:29.997Z</time></trkpt><trkpt lat="44.852773340885406" lon="9.493379442953293"><ele>402.5</ele><time>2026-03-22T12:56:30.997Z</time></trkpt><trkpt lat="44.85278285371337" lon="9.493476749155443"><ele>400.33333333333337</ele><time>2026-03-22T12:56:31.997Z</time></trkpt><trkpt lat="44.85278031293489" lon="9.493601817388292"><ele>398.1666666666667</ele><time>2026-03-22T12:56:32.997Z</time></trkpt><trkpt lat="44.85277767861262" lon="9.493772883037163"><ele>396.0</ele><time>2026-03-22T12:56:33.997Z</time></trkpt><trkpt lat="44.85278445060639" lon="9.493925634142686"><ele>395.0</ele><time>2026-03-22T12:56:34.997Z</time></trkpt><trkpt lat="44.85281182035107" lon="9.494084714274317"><ele>394.0</ele><time>2026-03-22T12:56:35.997Z</time></trkpt><trkpt lat="44.85286058566058" lon="9.494227509473061"><ele>393.0</ele><time>2026-03-22T12:56:36.997Z</time></trkpt><trkpt lat="44.852906174265634" lon="9.494363876711043"><ele>392.0</ele><time>2026-03-22T12:56:37.997Z</time></trkpt><trkpt lat="44.852953195235216" lon="9.494502340642628"><ele>391.0</ele><time>2026-03-22T12:56:38.997Z</time></trkpt><trkpt lat="44.85300685824535" lon="9.494654152512252"><ele>390.83333333333337</ele><time>2026-03-22T12:56:39.997Z</time></trkpt><trkpt lat="44.85305410709999" lon="9.494783648905502"><ele>390.6666666666667</ele><time>2026-03-22T12:56:40.997Z</time></trkpt><trkpt lat="44.853101345775244" lon="9.494899084308695"><ele>390.5</ele><time>2026-03-22T12:56:41.997Z</time></trkpt><trkpt lat="44.853142566928966" lon="9.494995700250588"><ele>390.33333333333337</ele><time>2026-03-22T12:56:42.997Z</time></trkpt><trkpt lat="44.853182584099265" lon="9.495082362763455"><ele>390.1666666666667</ele><time>2026-03-22T12:56:43.997Z</time></trkpt><trkpt lat="44.85323154027277" lon="9.495173148230684"><ele>390.0</ele><time>2026-03-22T12:56:44.997Z</time></trkpt><trkpt lat="44.85329335396672" lon="9.495265799017565"><ele>390.0</ele><time>2026-03-22T12:56:45.997Z</time></trkpt><trkpt lat="44.85335876058902" lon="9.495348066634199"><ele>390.0</ele><time>2026-03-22T12:56:46.997Z</time></trkpt><trkpt lat="44.85343588844525" lon="9.49543562668424"><ele>390.0</ele><time>2026-03-22T12:56:47.997Z</time></trkpt><trkpt lat="44.853522197665235" lon="9.495524904142423"><ele>390.0</ele><time>2026-03-22T12:56:48.997Z</time></trkpt><trkpt lat="44.85359480652175" lon="9.495592488930027"><ele>390.0</ele><time>2026-03-22T12:56:49.997Z</time></trkpt><trkpt lat="44.85367847858213" lon="9.4956547318017"><ele>387.8333333333333</ele><time>2026-03-22T12:56:50.997Z</time></trkpt><trkpt lat="44.853765202633525" lon="9.495690133961924"><ele>385.6666666666667</ele><time>2026-03-22T12:56:51.997Z</time></trkpt><trkpt lat="44.85383142542884" lon="9.495734768317668"><ele>383.5</ele><time>2026-03-22T12:56:52.999Z</time></trkpt><trkpt lat="44.85390113673058" lon="9.495792848122107"><ele>381.33333333333337</ele><time>2026-03-22T12:56:53.999Z</time></trkpt><trkpt lat="44.8539858835117" lon="9.495823018292688"><ele>379.1666666666667</ele><time>2026-03-22T12:56:54.999Z</time></trkpt><trkpt lat="44.854056546078844" lon="9.49587183224637"><ele>377.0</ele><time>2026-03-22T12:56:55.999Z</time></trkpt><trkpt lat="44.85412014066118" lon="9.495896575045087"><ele>377.0</ele><time>2026-03-22T12:56:56.999Z</time></trkpt><trkpt lat="44.854197784029" lon="9.495912788260988"><ele>377.0</ele><time>2026-03-22T12:56:57.999Z</time></trkpt><trkpt lat="44.85428895866719" lon="9.495943505657918"><ele>377.0</ele><time>2026-03-22T12:56:58.999Z</time></trkpt><trkpt lat="44.85437846451886" lon="9.495976534786315"><ele>377.0</ele><time>2026-03-22T12:56:59.999Z</time></trkpt><trkpt lat="44.85447078957922" lon="9.496008615910014"><ele>377.0</ele><time>2026-03-22T12:57:00.999Z</time></trkpt><trkpt lat="44.854551111471295" lon="9.496053759437755"><ele>377.0</ele><time>2026-03-22T12:57:01.999Z</time></trkpt><trkpt lat="44.85462271821914" lon="9.49611316816515"><ele>375.0</ele><time>2026-03-22T12:57:02.999Z</time></trkpt><trkpt lat="44.85462886440641" lon="9.496210603421934"><ele>373.0</ele><time>2026-03-22T12:57:03.999Z</time></trkpt><trkpt lat="44.85463775911493" lon="9.49632581342631"><ele>371.0</ele><time>2026-03-22T12:57:05.999Z</time></trkpt><trkpt lat="44.85464950393598" lon="9.496459375450575"><ele>369.0</ele><time>2026-03-22T12:57:28.999Z</time></trkpt><trkpt lat="44.85464543999322" lon="9.49657665080489"><ele>367.0</ele><time>2026-03-22T12:57:30.999Z</time></trkpt><trkpt lat="44.85463114915557" lon="9.496712688814167"><ele>365.0</ele><time>2026-03-22T12:57:31.999Z</time></trkpt><trkpt lat="44.854600978081805" lon="9.496869236391962"><ele>363.75</ele><time>2026-03-22T12:57:32.999Z</time></trkpt><trkpt lat="44.854574976943674" lon="9.497051496164723"><ele>362.5</ele><time>2026-03-22T12:57:33.999Z</time></trkpt><trkpt lat="44.854566755581594" lon="9.497197130192374"><ele>361.25</ele><time>2026-03-22T12:57:34.999Z</time></trkpt><trkpt lat="44.85460613402745" lon="9.497348108711323"><ele>360.0</ele><time>2026-03-22T12:57:35.999Z</time></trkpt><trkpt lat="44.85464477202428" lon="9.49748467309771"><ele>359.6</ele><time>2026-03-22T12:57:36.999Z</time></trkpt><trkpt lat="44.85467137815712" lon="9.49761347098551"><ele>359.2</ele><time>2026-03-22T12:57:37.999Z</time></trkpt><trkpt lat="44.8546944582725" lon="9.49773810148181"><ele>358.79999999999995</ele><time>2026-03-22T12:57:38.999Z</time></trkpt><trkpt lat="44.854725497958825" lon="9.497873843943074"><ele>358.4</ele><time>2026-03-22T12:57:39.999Z</time></trkpt><trkpt lat="44.854775373662974" lon="9.4980222473743"><ele>358.0</ele><time>2026-03-22T12:57:40.999Z</time></trkpt><trkpt lat="44.85485576901112" lon="9.498118519296268"><ele>356.4</ele><time>2026-03-22T12:57:41.999Z</time></trkpt><trkpt lat="44.85489383626156" lon="9.498236814458982"><ele>354.79999999999995</ele><time>2026-03-22T12:57:42.999Z</time></trkpt><trkpt lat="44.85492803599871" lon="9.498359229647189"><ele>353.2</ele><time>2026-03-22T12:57:43.999Z</time></trkpt><trkpt lat="44.854959900632856" lon="9.498493455123272"><ele>351.6</ele><time>2026-03-22T12:57:44.999Z</time></trkpt><trkpt lat="44.85498497315855" lon="9.498632826580058"><ele>350.0</ele><time>2026-03-22T12:57:45.999Z</time></trkpt><trkpt lat="44.85500189704802" lon="9.49876612056911"><ele>348.6</ele><time>2026-03-22T12:57:46.999Z</time></trkpt><trkpt lat="44.85499333452143" lon="9.498858739391165"><ele>347.2</ele><time>2026-03-22T12:57:47.999Z</time></trkpt><trkpt lat="44.85494848673129" lon="9.498942011491659"><ele>345.79999999999995</ele><time>2026-03-22T12:57:49.999Z</time></trkpt><trkpt lat="44.854833329781606" lon="9.499002538711942"><ele>344.4</ele><time>2026-03-22T12:57:51.999Z</time></trkpt><trkpt lat="44.85469560052985" lon="9.499036038914697"><ele>343.0</ele><time>2026-03-22T12:57:52.999Z</time></trkpt><trkpt lat="44.854561488531985" lon="9.499058020423519"><ele>343.0</ele><time>2026-03-22T12:57:53.999Z</time></trkpt><trkpt lat="44.85443173653108" lon="9.499064683534197"><ele>343.0</ele><time>2026-03-22T12:57:54.998Z</time></trkpt><trkpt lat="44.85430912177653" lon="9.499051814746002"><ele>343.0</ele><time>2026-03-22T12:57:55.998Z</time></trkpt><trkpt lat="44.854192087441604" lon="9.499008861967253"><ele>343.0</ele><time>2026-03-22T12:57:56.998Z</time></trkpt><trkpt lat="44.85408122787288" lon="9.498959118067164"><ele>343.2</ele><time>2026-03-22T12:57:57.998Z</time></trkpt><trkpt lat="44.85398287025702" lon="9.498913956350412"><ele>343.4</ele><time>2026-03-22T12:57:58.998Z</time></trkpt><trkpt lat="44.85388975964144" lon="9.498872496945955"><ele>343.59999999999997</ele><time>2026-03-22T12:57:59.998Z</time></trkpt><trkpt lat="44.85378638070452" lon="9.49882824711378"><ele>343.79999999999995</ele><time>2026-03-22T12:58:00.998Z</time></trkpt><trkpt lat="44.85368748603749" lon="9.498799506136207"><ele>344.0</ele><time>2026-03-22T12:58:01.998Z</time></trkpt><trkpt lat="44.85362115795591" lon="9.498749858457145"><ele>343.79999999999995</ele><time>2026-03-22T12:58:02.998Z</time></trkpt><trkpt lat="44.853546017022275" lon="9.498677755744655"><ele>343.59999999999997</ele><time>2026-03-22T12:58:03.998Z</time></trkpt><trkpt lat="44.85348436579967" lon="9.498581846475021"><ele>343.4</ele><time>2026-03-22T12:58:04.998Z</time></trkpt><trkpt lat="44.85338829662604" lon="9.49849890185903"><ele>343.2</ele><time>2026-03-22T12:58:05.998Z</time></trkpt><trkpt lat="44.85328374703927" lon="9.498421041258823"><ele>343.0</ele><time>2026-03-22T12:58:06.998Z</time></trkpt><trkpt lat="44.85317291038162" lon="9.498365425604842"><ele>343.0</ele><time>2026-03-22T12:58:07.998Z</time></trkpt><trkpt lat="44.85304904082101" lon="9.498324180399461"><ele>343.0</ele><time>2026-03-22T12:58:08.998Z</time></trkpt><trkpt lat="44.85292519524407" lon="9.49829580172519"><ele>343.0</ele><time>2026-03-22T12:58:09.998Z</time></trkpt><trkpt lat="44.85279515210769" lon="9.498295608723168"><ele>343.0</ele><time>2026-03-22T12:58:10.998Z</time></trkpt><trkpt lat="44.85269498044826" lon="9.498309530730866"><ele>342.0</ele><time>2026-03-22T12:58:11.998Z</time></trkpt><trkpt lat="44.85258214127903" lon="9.498357731874334"><ele>341.0</ele><time>2026-03-22T12:58:12.998Z</time></trkpt><trkpt lat="44.85249005499652" lon="9.49842593710928"><ele>340.0</ele><time>2026-03-22T12:58:13.998Z</time></trkpt><trkpt lat="44.852386287079895" lon="9.498561873257325"><ele>339.0</ele><time>2026-03-22T12:58:14.998Z</time></trkpt><trkpt lat="44.852256580854515" lon="9.49868586561577"><ele>336.3333333333333</ele><time>2026-03-22T12:58:15.998Z</time></trkpt><trkpt lat="44.852127795791326" lon="9.498812033357655"><ele>333.66666666666663</ele><time>2026-03-22T12:58:16.998Z</time></trkpt><trkpt lat="44.852009713775224" lon="9.498952835550046"><ele>331.0</ele><time>2026-03-22T12:58:17.998Z</time></trkpt><trkpt lat="44.851902822314635" lon="9.499092457629398"><ele>331.0</ele><time>2026-03-22T12:58:18.998Z</time></trkpt><trkpt lat="44.85181535662669" lon="9.499218193056926"><ele>331.0</ele><time>2026-03-22T12:58:19.998Z</time></trkpt><trkpt lat="44.85174553104231" lon="9.499356843983609"><ele>331.0</ele><time>2026-03-22T12:58:20.998Z</time></trkpt><trkpt lat="44.85171812814549" lon="9.499525037915205"><ele>331.0</ele><time>2026-03-22T12:58:21.998Z</time></trkpt><trkpt lat="44.851731253542155" lon="9.499704244945413"><ele>332.0</ele><time>2026-03-22T12:58:22.998Z</time></trkpt><trkpt lat="44.851733734592266" lon="9.4999063416624"><ele>333.0</ele><time>2026-03-22T12:58:23.998Z</time></trkpt><trkpt lat="44.851725701547764" lon="9.500155477988224"><ele>334.0</ele><time>2026-03-22T12:58:24.998Z</time></trkpt><trkpt lat="44.85171236291351" lon="9.500357283993859"><ele>333.75</ele><time>2026-03-22T12:58:25.998Z</time></trkpt><trkpt lat="44.85168840743368" lon="9.500537753219252"><ele>333.5</ele><time>2026-03-22T12:58:26.998Z</time></trkpt><trkpt lat="44.85165527385344" lon="9.500702977564327"><ele>333.25</ele><time>2026-03-22T12:58:27.998Z</time></trkpt><trkpt lat="44.85161619870662" lon="9.500893319408714"><ele>333.0</ele><time>2026-03-22T12:58:28.998Z</time></trkpt><trkpt lat="44.85159231192568" lon="9.501101655930382"><ele>333.75</ele><time>2026-03-22T12:58:29.998Z</time></trkpt><trkpt lat="44.85159828055049" lon="9.501294039613326"><ele>334.5</ele><time>2026-03-22T12:58:30.998Z</time></trkpt><trkpt lat="44.85159487312847" lon="9.501475865599186"><ele>335.25</ele><time>2026-03-22T12:58:31.998Z</time></trkpt><trkpt lat="44.851604879624" lon="9.501672983461962"><ele>336.0</ele><time>2026-03-22T12:58:32.998Z</time></trkpt><trkpt lat="44.851662282625384" lon="9.50179845474463"><ele>336.0</ele><time>2026-03-22T12:58:33.998Z</time></trkpt><trkpt lat="44.85169212797807" lon="9.50190521764883"><ele>336.0</ele><time>2026-03-22T12:58:34.998Z</time></trkpt><trkpt lat="44.85173011997057" lon="9.502058200042628"><ele>336.0</ele><time>2026-03-22T12:58:35.998Z</time></trkpt><trkpt lat="44.85177371657102" lon="9.502255320028087"><ele>336.0</ele><time>2026-03-22T12:58:36.998Z</time></trkpt><trkpt lat="44.85181928059489" lon="9.502468434194048"><ele>334.8</ele><time>2026-03-22T12:58:37.998Z</time></trkpt><trkpt lat="44.85183949520123" lon="9.502616752530805"><ele>333.6</ele><time>2026-03-22T12:58:38.998Z</time></trkpt><trkpt lat="44.851835292437606" lon="9.502728548718933"><ele>332.4</ele><time>2026-03-22T12:58:39.998Z</time></trkpt><trkpt lat="44.85181473944933" lon="9.502844300198197"><ele>331.2</ele><time>2026-03-22T12:58:40.998Z</time></trkpt><trkpt lat="44.85178061514342" lon="9.503008130083643"><ele>330.0</ele><time>2026-03-22T12:58:41.997Z</time></trkpt><trkpt lat="44.85173553768703" lon="9.503192194290792"><ele>332.0</ele><time>2026-03-22T12:58:42.997Z</time></trkpt><trkpt lat="44.85169325096781" lon="9.50333056126554"><ele>334.0</ele><time>2026-03-22T12:58:43.997Z</time></trkpt><trkpt lat="44.85164361021081" lon="9.503470408702567"><ele>336.0</ele><time>2026-03-22T12:58:44.997Z</time></trkpt><trkpt lat="44.85160070911655" lon="9.503601733700133"><ele>338.0</ele><time>2026-03-22T12:58:45.997Z</time></trkpt><trkpt lat="44.85156682154879" lon="9.503722252777395"><ele>340.0</ele><time>2026-03-22T12:58:46.997Z</time></trkpt><trkpt lat="44.851534887907896" lon="9.503857257181378"><ele>340.0</ele><time>2026-03-22T12:58:47.997Z</time></trkpt><trkpt lat="44.85149994025097" lon="9.503988265654009"><ele>340.0</ele><time>2026-03-22T12:58:48.997Z</time></trkpt><trkpt lat="44.85146862691659" lon="9.504080995973387"><ele>340.0</ele><time>2026-03-22T12:58:49.997Z</time></trkpt><trkpt lat="44.8513857481606" lon="9.504153184889287"><ele>340.0</ele><time>2026-03-22T12:58:51.997Z</time></trkpt><trkpt lat="44.851313693937946" lon="9.504172488362963"><ele>340.0</ele><time>2026-03-22T12:58:52.997Z</time></trkpt><trkpt lat="44.8511967179574" lon="9.504205106982646"><ele>340.0</ele><time>2026-03-22T12:58:53.997Z</time></trkpt><trkpt lat="44.85106775225443" lon="9.504268718567698"><ele>340.0</ele><time>2026-03-22T12:58:54.997Z</time></trkpt><trkpt lat="44.85092295974963" lon="9.50437078946771"><ele>340.0</ele><time>2026-03-22T12:58:55.997Z</time></trkpt><trkpt lat="44.85078786158919" lon="9.50451773418957"><ele>339.0</ele><time>2026-03-22T12:58:56.997Z</time></trkpt><trkpt lat="44.85064537519816" lon="9.504692935190425"><ele>338.0</ele><time>2026-03-22T12:58:57.997Z</time></trkpt><trkpt lat="44.850474235074735" lon="9.504918100081833"><ele>337.0</ele><time>2026-03-22T12:58:59Z</time></trkpt><trkpt lat="44.8502753374747" lon="9.505160961919032"><ele>342.5</ele><time>2026-03-22T12:59:00Z</time></trkpt><trkpt lat="44.85005227085784" lon="9.505391985048186"><ele>348.0</ele><time>2026-03-22T12:59:01Z</time></trkpt><trkpt lat="44.84988804025649" lon="9.505572790591234"><ele>349.3333333333333</ele><time>2026-03-22T12:59:02Z</time></trkpt><trkpt lat="44.84974664267952" lon="9.505705428985832"><ele>350.66666666666663</ele><time>2026-03-22T12:59:03Z</time></trkpt><trkpt lat="44.84961614140357" lon="9.505843133537915"><ele>352.0</ele><time>2026-03-22T12:59:04Z</time></trkpt><trkpt lat="44.84951657875032" lon="9.505996206599676"><ele>352.0</ele><time>2026-03-22T12:59:05Z</time></trkpt><trkpt lat="44.849468654902026" lon="9.50619082306305"><ele>352.0</ele><time>2026-03-22T12:59:06Z</time></trkpt><trkpt lat="44.84941313637184" lon="9.50633993888894"><ele>352.0</ele><time>2026-03-22T12:59:07Z</time></trkpt><trkpt lat="44.849353874550594" lon="9.506484232871903"><ele>352.0</ele><time>2026-03-22T12:59:08Z</time></trkpt><trkpt lat="44.84929067496873" lon="9.506608308676395"><ele>355.0</ele><time>2026-03-22T12:59:09Z</time></trkpt><trkpt lat="44.84922087809696" lon="9.506718509281598"><ele>358.0</ele><time>2026-03-22T12:59:10Z</time></trkpt><trkpt lat="44.84914612305836" lon="9.506812298394825"><ele>361.0</ele><time>2026-03-22T12:59:11Z</time></trkpt><trkpt lat="44.849093933990595" lon="9.506869007489943"><ele>364.0</ele><time>2026-03-22T12:59:12Z</time></trkpt><trkpt lat="44.849107051786476" lon="9.507021915717601"><ele>367.0</ele><time>2026-03-22T12:59:16Z</time></trkpt><trkpt lat="44.849131218004" lon="9.507113697276285"><ele>370.0</ele><time>2026-03-22T12:59:19Z</time></trkpt><trkpt lat="44.849113726615776" lon="9.507211711519155"><ele>370.8333333333333</ele><time>2026-03-22T12:59:22Z</time></trkpt><trkpt lat="44.849040603844756" lon="9.50726197076438"><ele>371.66666666666663</ele><time>2026-03-22T12:59:27Z</time></trkpt><trkpt lat="44.84897345352632" lon="9.507333204917488"><ele>372.5</ele><time>2026-03-22T13:00:05.999Z</time></trkpt><trkpt lat="44.84890819881276" lon="9.507405617484324"><ele>373.3333333333333</ele><time>2026-03-22T13:00:07.999Z</time></trkpt><trkpt lat="44.84885814659638" lon="9.507468685428073"><ele>374.1666666666667</ele><time>2026-03-22T13:00:09.999Z</time></trkpt><trkpt lat="44.848798170670555" lon="9.507553465523914"><ele>375.0</ele><time>2026-03-22T13:00:12.999Z</time></trkpt><trkpt lat="44.84874462731406" lon="9.507640471606067"><ele>375.0</ele><time>2026-03-22T13:00:15.999Z</time></trkpt><trkpt lat="44.84878207738861" lon="9.507729199764505"><ele>375.0</ele><time>2026-03-22T13:00:16.999Z</time></trkpt><trkpt lat="44.84873698416668" lon="9.507798847029314"><ele>375.0</ele><time>2026-03-22T13:00:19.999Z</time></trkpt><trkpt lat="44.84860642497878" lon="9.507865598189214"><ele>375.0</ele><time>2026-03-22T13:00:25.998Z</time></trkpt><trkpt lat="44.84855695511092" lon="9.507940331208838"><ele>375.0</ele><time>2026-03-22T13:00:26.998Z</time></trkpt><trkpt lat="44.84845681358977" lon="9.508076620938189"><ele>376.0</ele><time>2026-03-22T13:00:28.998Z</time></trkpt><trkpt lat="44.84839191756663" lon="9.508163350050706"><ele>377.0</ele><time>2026-03-22T13:00:29.998Z</time></trkpt><trkpt lat="44.84829512324137" lon="9.508288018783638"><ele>378.0</ele><time>2026-03-22T13:00:30.998Z</time></trkpt><trkpt lat="44.84818993852969" lon="9.5084187840342"><ele>379.0</ele><time>2026-03-22T13:00:31.998Z</time></trkpt><trkpt lat="44.84809824751247" lon="9.50853769435179"><ele>379.0</ele><time>2026-03-22T13:00:32.998Z</time></trkpt><trkpt lat="44.84802241272279" lon="9.50863736669236"><ele>379.0</ele><time>2026-03-22T13:00:33.998Z</time></trkpt><trkpt lat="44.84795535869287" lon="9.50871983236676"><ele>379.0</ele><time>2026-03-22T13:00:34.998Z</time></trkpt><trkpt lat="44.84788670184326" lon="9.508794802035874"><ele>379.0</ele><time>2026-03-22T13:00:35.998Z</time></trkpt><trkpt lat="44.847809791288256" lon="9.508864851561833"><ele>379.0</ele><time>2026-03-22T13:00:36.998Z</time></trkpt><trkpt lat="44.847727683564585" lon="9.508927991275819"><ele>379.6</ele><time>2026-03-22T13:00:37.998Z</time></trkpt><trkpt lat="44.847649931006416" lon="9.508971862863165"><ele>380.2</ele><time>2026-03-22T13:00:38.998Z</time></trkpt><trkpt lat="44.84755817232227" lon="9.509012815322878"><ele>380.8</ele><time>2026-03-22T13:00:39.998Z</time></trkpt><trkpt lat="44.847471443437065" lon="9.509049950202144"><ele>381.40000000000003</ele><time>2026-03-22T13:00:40.998Z</time></trkpt><trkpt lat="44.84738821547158" lon="9.509086079459255"><ele>382.0</ele><time>2026-03-22T13:00:41.998Z</time></trkpt><trkpt lat="44.84726581357245" lon="9.509150274397491"><ele>382.0</ele><time>2026-03-22T13:00:42.998Z</time></trkpt><trkpt lat="44.847128871011506" lon="9.509266274021984"><ele>382.0</ele><time>2026-03-22T13:00:43.998Z</time></trkpt><trkpt lat="44.84701483957283" lon="9.50936615498759"><ele>382.0</ele><time>2026-03-22T13:00:44.998Z</time></trkpt><trkpt lat="44.84691464922395" lon="9.509448380928504"><ele>382.0</ele><time>2026-03-22T13:00:45.998Z</time></trkpt><trkpt lat="44.84682154939233" lon="9.509521238698591"><ele>381.6</ele><time>2026-03-22T13:00:46.998Z</time></trkpt><trkpt lat="44.846729246731215" lon="9.509589991443436"><ele>381.20000000000005</ele><time>2026-03-22T13:00:47.998Z</time></trkpt><trkpt lat="44.84663835530071" lon="9.509655259335526"><ele>380.8</ele><time>2026-03-22T13:00:48.998Z</time></trkpt><trkpt lat="44.846550967346445" lon="9.509718011518128"><ele>380.4</ele><time>2026-03-22T13:00:49.998Z</time></trkpt><trkpt lat="44.84646279444081" lon="9.509781327314732"><ele>380.0</ele><time>2026-03-22T13:00:50.998Z</time></trkpt><trkpt lat="44.84637219632223" lon="9.50985108150415"><ele>380.0</ele><time>2026-03-22T13:00:51.998Z</time></trkpt><trkpt lat="44.84626438990786" lon="9.509962314228448"><ele>380.0</ele><time>2026-03-22T13:00:52.998Z</time></trkpt><trkpt lat="44.84614936912474" lon="9.510070832115062"><ele>380.0</ele><time>2026-03-22T13:00:53.998Z</time></trkpt><trkpt lat="44.846020115892266" lon="9.51018659610515"><ele>380.0</ele><time>2026-03-22T13:00:54.998Z</time></trkpt><trkpt lat="44.845900655165536" lon="9.510299445537743"><ele>378.25</ele><time>2026-03-22T13:00:55.998Z</time></trkpt><trkpt lat="44.845808269928376" lon="9.510401590205765"><ele>376.5</ele><time>2026-03-22T13:00:56.998Z</time></trkpt><trkpt lat="44.84570470592944" lon="9.510494514909759"><ele>374.75</ele><time>2026-03-22T13:00:57.998Z</time></trkpt><trkpt lat="44.84560682843173" lon="9.510573174446886"><ele>373.0</ele><time>2026-03-22T13:00:58.998Z</time></trkpt><trkpt lat="44.845507182238535" lon="9.51066806370089"><ele>373.0</ele><time>2026-03-22T13:00:59.998Z</time></trkpt><trkpt lat="44.84542109895378" lon="9.51075409165557"><ele>373.0</ele><time>2026-03-22T13:01:00.998Z</time></trkpt><trkpt lat="44.845328437978004" lon="9.51082284816296"><ele>373.0</ele><time>2026-03-22T13:01:01.998Z</time></trkpt><trkpt lat="44.8452400004934" lon="9.510863404858142"><ele>373.0</ele><time>2026-03-22T13:01:02.998Z</time></trkpt><trkpt lat="44.84516054093015" lon="9.5108980801509"><ele>373.0</ele><time>2026-03-22T13:01:04Z</time></trkpt><trkpt lat="44.845078174618955" lon="9.510938880540152"><ele>370.79999999999995</ele><time>2026-03-22T13:01:05Z</time></trkpt><trkpt lat="44.844999021259966" lon="9.510989904294192"><ele>368.6</ele><time>2026-03-22T13:01:06Z</time></trkpt><trkpt lat="44.84492172373954" lon="9.511049357425865"><ele>366.4</ele><time>2026-03-22T13:01:07Z</time></trkpt><trkpt lat="44.844845088007396" lon="9.51112000929092"><ele>364.20000000000005</ele><time>2026-03-22T13:01:08Z</time></trkpt><trkpt lat="44.84475968133554" lon="9.511217176394036"><ele>362.0</ele><time>2026-03-22T13:01:09Z</time></trkpt><trkpt lat="44.84467841865734" lon="9.511341126661739"><ele>362.0</ele><time>2026-03-22T13:01:10Z</time></trkpt><trkpt lat="44.844601964646856" lon="9.511482173177491"><ele>362.0</ele><time>2026-03-22T13:01:11Z</time></trkpt><trkpt lat="44.84453162930497" lon="9.511607365433894"><ele>362.0</ele><time>2026-03-22T13:01:12Z</time></trkpt><trkpt lat="44.844472727342016" lon="9.511754618791151"><ele>362.0</ele><time>2026-03-22T13:01:13Z</time></trkpt><trkpt lat="44.8444228775524" lon="9.511929661606072"><ele>363.25</ele><time>2026-03-22T13:01:14Z</time></trkpt><trkpt lat="44.844378934147045" lon="9.512121271470813"><ele>364.5</ele><time>2026-03-22T13:01:15Z</time></trkpt><trkpt lat="44.844326665202644" lon="9.512295221774714"><ele>365.75</ele><time>2026-03-22T13:01:16Z</time></trkpt><trkpt lat="44.844263221977705" lon="9.51244384040434"><ele>367.0</ele><time>2026-03-22T13:01:17Z</time></trkpt><trkpt lat="44.84419759872091" lon="9.512590170873384"><ele>362.0</ele><time>2026-03-22T13:01:18Z</time></trkpt><trkpt lat="44.84413663657134" lon="9.51273115858868"><ele>357.0</ele><time>2026-03-22T13:01:19Z</time></trkpt><trkpt lat="44.844075775821324" lon="9.51283530168374"><ele>352.0</ele><time>2026-03-22T13:01:20Z</time></trkpt><trkpt lat="44.84398795374658" lon="9.5129442934018"><ele>347.0</ele><time>2026-03-22T13:01:21Z</time></trkpt><trkpt lat="44.84390389383028" lon="9.513065551464969"><ele>347.0</ele><time>2026-03-22T13:01:22Z</time></trkpt><trkpt lat="44.843822438859284" lon="9.513172721357112"><ele>347.0</ele><time>2026-03-22T13:01:23Z</time></trkpt><trkpt lat="44.84373643364653" lon="9.513281965393478"><ele>347.0</ele><time>2026-03-22T13:01:24Z</time></trkpt><trkpt lat="44.84365751585648" lon="9.51337758422713"><ele>347.0</ele><time>2026-03-22T13:01:25Z</time></trkpt><trkpt lat="44.84357844353746" lon="9.513470718630733"><ele>347.0</ele><time>2026-03-22T13:01:26Z</time></trkpt><trkpt lat="44.84349973168548" lon="9.5135650440866"><ele>344.0</ele><time>2026-03-22T13:01:27Z</time></trkpt><trkpt lat="44.84342156051006" lon="9.5136576853953"><ele>341.0</ele><time>2026-03-22T13:01:28Z</time></trkpt><trkpt lat="44.84334464732575" lon="9.513737381557545"><ele>338.0</ele><time>2026-03-22T13:01:29Z</time></trkpt><trkpt lat="44.843263824129224" lon="9.513805202704988"><ele>335.0</ele><time>2026-03-22T13:01:30Z</time></trkpt><trkpt lat="44.84317732781295" lon="9.513884401568525"><ele>332.0</ele><time>2026-03-22T13:01:31Z</time></trkpt><trkpt lat="44.84309240582176" lon="9.513975424426311"><ele>332.0</ele><time>2026-03-22T13:01:32Z</time></trkpt><trkpt lat="44.84302223549362" lon="9.5140757964557"><ele>332.0</ele><time>2026-03-22T13:01:33Z</time></trkpt><trkpt lat="44.84296216661166" lon="9.514217853417211"><ele>332.0</ele><time>2026-03-22T13:01:34Z</time></trkpt><trkpt lat="44.842907979371034" lon="9.514346048757227"><ele>332.0</ele><time>2026-03-22T13:01:35Z</time></trkpt><trkpt lat="44.84285543758431" lon="9.514480187223514"><ele>332.0</ele><time>2026-03-22T13:01:36Z</time></trkpt><trkpt lat="44.84280032728837" lon="9.514613380575154"><ele>332.20000000000005</ele><time>2026-03-22T13:01:37Z</time></trkpt><trkpt lat="44.84274622187919" lon="9.514742529628382"><ele>332.4</ele><time>2026-03-22T13:01:38Z</time></trkpt><trkpt lat="44.84269360558507" lon="9.514866704103017"><ele>332.6</ele><time>2026-03-22T13:01:39Z</time></trkpt><trkpt lat="44.8426435832457" lon="9.51497906919329"><ele>332.79999999999995</ele><time>2026-03-22T13:01:40Z</time></trkpt><trkpt lat="44.8425997374851" lon="9.515080646000575"><ele>333.0</ele><time>2026-03-22T13:01:41Z</time></trkpt><trkpt lat="44.842569922497034" lon="9.51516998749578"><ele>329.79999999999995</ele><time>2026-03-22T13:01:42Z</time></trkpt><trkpt lat="44.84254315821698" lon="9.515256323096086"><ele>326.59999999999997</ele><time>2026-03-22T13:01:43Z</time></trkpt><trkpt lat="44.84257959600494" lon="9.515413372682849"><ele>323.4</ele><time>2026-03-22T13:01:44Z</time></trkpt><trkpt lat="44.84263328764527" lon="9.515548379721888"><ele>320.2</ele><time>2026-03-22T13:01:45Z</time></trkpt><trkpt lat="44.84268270315357" lon="9.51569346714683"><ele>317.0</ele><time>2026-03-22T13:01:46Z</time></trkpt><trkpt lat="44.842731301138166" lon="9.515830078156789"><ele>317.0</ele><time>2026-03-22T13:01:47Z</time></trkpt><trkpt lat="44.84277087179921" lon="9.515950147669333"><ele>317.0</ele><time>2026-03-22T13:01:48Z</time></trkpt><trkpt lat="44.84281029024229" lon="9.516066736801472"><ele>317.0</ele><time>2026-03-22T13:01:49Z</time></trkpt><trkpt lat="44.84287322514909" lon="9.516173868145149"><ele>317.0</ele><time>2026-03-22T13:01:50Z</time></trkpt><trkpt lat="44.84294031229878" lon="9.516256729640824"><ele>317.0</ele><time>2026-03-22T13:01:51Z</time></trkpt><trkpt lat="44.843036745593636" lon="9.516322009318994"><ele>312.75</ele><time>2026-03-22T13:01:52Z</time></trkpt><trkpt lat="44.8431394357314" lon="9.516414716837225"><ele>308.5</ele><time>2026-03-22T13:01:53Z</time></trkpt><trkpt lat="44.84324238590063" lon="9.516505076575358"><ele>304.25</ele><time>2026-03-22T13:01:54Z</time></trkpt><trkpt lat="44.84336040677996" lon="9.516608921457532"><ele>300.0</ele><time>2026-03-22T13:01:55Z</time></trkpt><trkpt lat="44.8434874519678" lon="9.516723975567542"><ele>300.0</ele><time>2026-03-22T13:01:55.999Z</time></trkpt><trkpt lat="44.84360815632072" lon="9.516869162548943"><ele>300.0</ele><time>2026-03-22T13:01:56.999Z</time></trkpt><trkpt lat="44.84373308530073" lon="9.516994206201174"><ele>300.0</ele><time>2026-03-22T13:01:57.999Z</time></trkpt><trkpt lat="44.84384169532732" lon="9.517106958272635"><ele>300.0</ele><time>2026-03-22T13:01:58.999Z</time></trkpt><trkpt lat="44.843924356251385" lon="9.51721968941359"><ele>297.8</ele><time>2026-03-22T13:01:59.999Z</time></trkpt><trkpt lat="44.84398810168909" lon="9.51733633775722"><ele>295.6</ele><time>2026-03-22T13:02:00.999Z</time></trkpt><trkpt lat="44.844050265437076" lon="9.517445601529944"><ele>293.4</ele><time>2026-03-22T13:02:01.999Z</time></trkpt><trkpt lat="44.84412962245539" lon="9.517510089020922"><ele>291.2</ele><time>2026-03-22T13:02:02.999Z</time></trkpt><trkpt lat="44.84418549990681" lon="9.517558058143644"><ele>289.0</ele><time>2026-03-22T13:02:03.999Z</time></trkpt><trkpt lat="44.84431841471237" lon="9.517568872998208"><ele>289.0</ele><time>2026-03-22T13:02:05.999Z</time></trkpt><trkpt lat="44.84442783776562" lon="9.517551368448439"><ele>289.0</ele><time>2026-03-22T13:02:06.999Z</time></trkpt><trkpt lat="44.84456071633149" lon="9.51751217159394"><ele>289.0</ele><time>2026-03-22T13:02:07.999Z</time></trkpt><trkpt lat="44.8446979125712" lon="9.517470507786346"><ele>289.0</ele><time>2026-03-22T13:02:08.999Z</time></trkpt><trkpt lat="44.84482621942769" lon="9.5174541747926"><ele>289.0</ele><time>2026-03-22T13:02:09.999Z</time></trkpt><trkpt lat="44.844937354653894" lon="9.517484589731923"><ele>289.0</ele><time>2026-03-22T13:02:10.999Z</time></trkpt><trkpt lat="44.84503483273226" lon="9.5175998053042"><ele>289.0</ele><time>2026-03-22T13:02:11.999Z</time></trkpt><trkpt lat="44.845179588815505" lon="9.517680300958242"><ele>289.0</ele><time>2026-03-22T13:02:12.999Z</time></trkpt><trkpt lat="44.84533480758507" lon="9.517779879560157"><ele>286.0</ele><time>2026-03-22T13:02:13.999Z</time></trkpt><trkpt lat="44.84551093006514" lon="9.517869075872436"><ele>283.0</ele><time>2026-03-22T13:02:14.999Z</time></trkpt><trkpt lat="44.84567125843267" lon="9.5179487427025"><ele>280.0</ele><time>2026-03-22T13:02:15.998Z</time></trkpt><trkpt lat="44.84580975933927" lon="9.518030438440569"><ele>280.0</ele><time>2026-03-22T13:02:16.998Z</time></trkpt><trkpt lat="44.84593298005151" lon="9.518120091642432"><ele>280.0</ele><time>2026-03-22T13:02:17.998Z</time></trkpt><trkpt lat="44.846058159012934" lon="9.518220679654014"><ele>280.0</ele><time>2026-03-22T13:02:18.998Z</time></trkpt><trkpt lat="44.84617867122102" lon="9.518310530018592"><ele>280.0</ele><time>2026-03-22T13:02:19.998Z</time></trkpt><trkpt lat="44.846296328735896" lon="9.518388418144797"><ele>283.5</ele><time>2026-03-22T13:02:20.998Z</time></trkpt><trkpt lat="44.84640740725996" lon="9.518454444496374"><ele>287.0</ele><time>2026-03-22T13:02:21.998Z</time></trkpt><trkpt lat="44.84651262242339" lon="9.518517057918793"><ele>290.5</ele><time>2026-03-22T13:02:22.998Z</time></trkpt><trkpt lat="44.84661814205357" lon="9.51858128302698"><ele>294.0</ele><time>2026-03-22T13:02:23.998Z</time></trkpt><trkpt lat="44.84671147220679" lon="9.518636468112327"><ele>293.59999999999997</ele><time>2026-03-22T13:02:24.998Z</time></trkpt><trkpt lat="44.84679540875143" lon="9.51867141955515"><ele>293.2</ele><time>2026-03-22T13:02:25.998Z</time></trkpt><trkpt lat="44.84687402803129" lon="9.518681651374335"><ele>292.79999999999995</ele><time>2026-03-22T13:02:26.998Z</time></trkpt><trkpt lat="44.846957990773014" lon="9.51863653746579"><ele>292.4</ele><time>2026-03-22T13:02:27.998Z</time></trkpt><trkpt lat="44.84705587030015" lon="9.518600711354127"><ele>292.0</ele><time>2026-03-22T13:02:28.998Z</time></trkpt><trkpt lat="44.847152256039315" lon="9.518557442028996"><ele>292.0</ele><time>2026-03-22T13:02:29.998Z</time></trkpt><trkpt lat="44.84726540857012" lon="9.518539737374558"><ele>292.0</ele><time>2026-03-22T13:02:30.998Z</time></trkpt><trkpt lat="44.84736540952243" lon="9.518499051672492"><ele>292.0</ele><time>2026-03-22T13:02:31.998Z</time></trkpt><trkpt lat="44.84746099585897" lon="9.518567848523006"><ele>292.0</ele><time>2026-03-22T13:02:32.998Z</time></trkpt><trkpt lat="44.84748955935673" lon="9.518719440528224"><ele>292.0</ele><time>2026-03-22T13:02:33.998Z</time></trkpt><trkpt lat="44.84755648464628" lon="9.518804311000197"><ele>288.0</ele><time>2026-03-22T13:02:34.998Z</time></trkpt><trkpt lat="44.847634089027935" lon="9.51886428862353"><ele>284.0</ele><time>2026-03-22T13:02:35.998Z</time></trkpt><trkpt lat="44.847723533141846" lon="9.518911130333565"><ele>280.0</ele><time>2026-03-22T13:02:36.998Z</time></trkpt><trkpt lat="44.84784099629782" lon="9.518900383790996"><ele>276.0</ele><time>2026-03-22T13:02:37.998Z</time></trkpt><trkpt lat="44.84794313964045" lon="9.51890150163367"><ele>272.0</ele><time>2026-03-22T13:02:38.998Z</time></trkpt><trkpt lat="44.848028260421785" lon="9.518969091453277"><ele>272.0</ele><time>2026-03-22T13:02:39.998Z</time></trkpt><trkpt lat="44.84802585105445" lon="9.519128124713474"><ele>272.0</ele><time>2026-03-22T13:02:40.998Z</time></trkpt><trkpt lat="44.84803462031222" lon="9.519254977600797"><ele>272.0</ele><time>2026-03-22T13:02:41.998Z</time></trkpt><trkpt lat="44.8480449263839" lon="9.519417721480208"><ele>272.0</ele><time>2026-03-22T13:02:42.998Z</time></trkpt><trkpt lat="44.84807235934167" lon="9.519567585125136"><ele>272.0</ele><time>2026-03-22T13:02:43.998Z</time></trkpt><trkpt lat="44.84813217965888" lon="9.519730144934062"><ele>267.6666666666667</ele><time>2026-03-22T13:02:44.998Z</time></trkpt><trkpt lat="44.848223165738275" lon="9.519920763652319"><ele>263.3333333333333</ele><time>2026-03-22T13:02:45.997Z</time></trkpt><trkpt lat="44.84830889037231" lon="9.5201284155335"><ele>259.0</ele><time>2026-03-22T13:02:46.997Z</time></trkpt><trkpt lat="44.8483766092765" lon="9.520306860042531"><ele>260.0</ele><time>2026-03-22T13:02:47.997Z</time></trkpt><trkpt lat="44.84843443896135" lon="9.520474641231063"><ele>261.0</ele><time>2026-03-22T13:02:48.997Z</time></trkpt><trkpt lat="44.848481249916716" lon="9.52063466136028"><ele>262.0</ele><time>2026-03-22T13:02:49.997Z</time></trkpt><trkpt lat="44.848514820573925" lon="9.52079028901849"><ele>263.0</ele><time>2026-03-22T13:02:50.997Z</time></trkpt><trkpt lat="44.848510379312934" lon="9.520937905681723"><ele>263.0</ele><time>2026-03-22T13:02:51.997Z</time></trkpt><trkpt lat="44.84849213786406" lon="9.521132374641114"><ele>263.0</ele><time>2026-03-22T13:02:52.997Z</time></trkpt><trkpt lat="44.848471193263855" lon="9.521319559789113"><ele>263.0</ele><time>2026-03-22T13:02:53.997Z</time></trkpt><trkpt lat="44.84845295869683" lon="9.521485353256622"><ele>263.0</ele><time>2026-03-22T13:02:54.997Z</time></trkpt><trkpt lat="44.848449908503056" lon="9.521641201739296"><ele>262.5</ele><time>2026-03-22T13:02:55.997Z</time></trkpt><trkpt lat="44.84847426993775" lon="9.521790671980082"><ele>262.0</ele><time>2026-03-22T13:02:56.997Z</time></trkpt><trkpt lat="44.84851779028849" lon="9.521960361455232"><ele>261.5</ele><time>2026-03-22T13:02:57.997Z</time></trkpt><trkpt lat="44.84858303406084" lon="9.522180451948277"><ele>261.0</ele><time>2026-03-22T13:02:58.997Z</time></trkpt><trkpt lat="44.84864935621118" lon="9.522376340795168"><ele>258.75</ele><time>2026-03-22T13:02:59.997Z</time></trkpt><trkpt lat="44.848707882458044" lon="9.522550891494296"><ele>256.5</ele><time>2026-03-22T13:03:00.997Z</time></trkpt><trkpt lat="44.848755396986654" lon="9.522710547010332"><ele>254.25</ele><time>2026-03-22T13:03:01.997Z</time></trkpt><trkpt lat="44.84878515218674" lon="9.522862687011147"><ele>252.0</ele><time>2026-03-22T13:03:02.997Z</time></trkpt><trkpt lat="44.84881640214847" lon="9.523010810789987"><ele>248.8</ele><time>2026-03-22T13:03:03.997Z</time></trkpt><trkpt lat="44.84886202305631" lon="9.523149543483582"><ele>245.6</ele><time>2026-03-22T13:03:04.997Z</time></trkpt><trkpt lat="44.84892840843066" lon="9.523268030424694"><ele>242.40000000000003</ele><time>2026-03-22T13:03:05.997Z</time></trkpt><trkpt lat="44.84897519386468" lon="9.523362925976022"><ele>239.20000000000002</ele><time>2026-03-22T13:03:06.997Z</time></trkpt><trkpt lat="44.84900869688732" lon="9.523439138789332"><ele>236.0</ele><time>2026-03-22T13:03:07.997Z</time></trkpt><trkpt lat="44.848914829840865" lon="9.523453078234095"><ele>236.0</ele><time>2026-03-22T13:03:12Z</time></trkpt><trkpt lat="44.84882822585071" lon="9.523382094251145"><ele>236.00000000000003</ele><time>2026-03-22T13:03:13Z</time></trkpt><trkpt lat="44.84873690367206" lon="9.523264264750628"><ele>236.00000000000003</ele><time>2026-03-22T13:03:14Z</time></trkpt><trkpt lat="44.84865172449577" lon="9.523197639675022"><ele>236.0</ele><time>2026-03-22T13:03:15Z</time></trkpt><trkpt lat="44.848591072190594" lon="9.523120155027916"><ele>236.0</ele><time>2026-03-22T13:03:16Z</time></trkpt><trkpt lat="44.848518163224966" lon="9.523067376244297"><ele>232.4</ele><time>2026-03-22T13:03:17Z</time></trkpt><trkpt lat="44.848453071780725" lon="9.52301548604417"><ele>228.8</ele><time>2026-03-22T13:03:18Z</time></trkpt><trkpt lat="44.84834256275133" lon="9.52294009083276"><ele>225.20000000000002</ele><time>2026-03-22T13:03:20Z</time></trkpt><trkpt lat="44.84825660288062" lon="9.522954990144907"><ele>221.60000000000002</ele><time>2026-03-22T13:03:21Z</time></trkpt><trkpt lat="44.848200920096915" lon="9.52312877502243"><ele>218.0</ele><time>2026-03-22T13:03:22Z</time></trkpt><trkpt lat="44.848348414180634" lon="9.523260413700761"><ele>218.0</ele><time>2026-03-22T13:03:23Z</time></trkpt><trkpt lat="44.8484503882224" lon="9.523344289372314"><ele>218.0</ele><time>2026-03-22T13:03:24Z</time></trkpt><trkpt lat="44.84853183974742" lon="9.523489978656377"><ele>218.0</ele><time>2026-03-22T13:03:25Z</time></trkpt><trkpt lat="44.84860559763042" lon="9.523611737712793"><ele>218.0</ele><time>2026-03-22T13:03:26Z</time></trkpt><trkpt lat="44.84867144307618" lon="9.52373312360638"><ele>217.4</ele><time>2026-03-22T13:03:27Z</time></trkpt><trkpt lat="44.84873539940789" lon="9.523851478890903"><ele>216.8</ele><time>2026-03-22T13:03:28Z</time></trkpt><trkpt lat="44.848803472644335" lon="9.523966221893808"><ele>216.2</ele><time>2026-03-22T13:03:29Z</time></trkpt><trkpt lat="44.848891257885384" lon="9.524054300886943"><ele>215.6</ele><time>2026-03-22T13:03:30Z</time></trkpt><trkpt lat="44.848975253259916" lon="9.52414563489389"><ele>215.0</ele><time>2026-03-22T13:03:31Z</time></trkpt><trkpt lat="44.84906489508441" lon="9.52422769202532"><ele>215.0</ele><time>2026-03-22T13:03:31.999Z</time></trkpt><trkpt lat="44.849160053287115" lon="9.524297219567194"><ele>215.0</ele><time>2026-03-22T13:03:32.999Z</time></trkpt><trkpt lat="44.84927346991072" lon="9.524349931910955"><ele>215.0</ele><time>2026-03-22T13:03:33.999Z</time></trkpt><trkpt lat="44.849402886142265" lon="9.52438370738999"><ele>215.0</ele><time>2026-03-22T13:03:34.999Z</time></trkpt><trkpt lat="44.84952317359364" lon="9.52443369628669"><ele>212.0</ele><time>2026-03-22T13:03:35.999Z</time></trkpt><trkpt lat="44.84963149646839" lon="9.524493051375226"><ele>209.0</ele><time>2026-03-22T13:03:36.999Z</time></trkpt><trkpt lat="44.849743468331084" lon="9.524549519489023"><ele>206.0</ele><time>2026-03-22T13:03:37.999Z</time></trkpt><trkpt lat="44.84984400791602" lon="9.524616784758477"><ele>203.0</ele><time>2026-03-22T13:03:38.999Z</time></trkpt><trkpt lat="44.84994300320623" lon="9.524704781950362"><ele>200.60000000000002</ele><time>2026-03-22T13:03:39.999Z</time></trkpt><trkpt lat="44.85000568447318" lon="9.524813450408699"><ele>198.20000000000002</ele><time>2026-03-22T13:03:40.999Z</time></trkpt><trkpt lat="44.85003025826867" lon="9.524929095050293"><ele>195.8</ele><time>2026-03-22T13:03:41.999Z</time></trkpt><trkpt lat="44.85001562965555" lon="9.525035402035497"><ele>193.4</ele><time>2026-03-22T13:03:42.999Z</time></trkpt><trkpt lat="44.84997722548358" lon="9.525153112847898"><ele>191.0</ele><time>2026-03-22T13:03:43.999Z</time></trkpt><trkpt lat="44.84994337928218" lon="9.525331246782445"><ele>189.66666666666666</ele><time>2026-03-22T13:03:44.999Z</time></trkpt><trkpt lat="44.84990051807176" lon="9.525546416563401"><ele>188.33333333333334</ele><time>2026-03-22T13:03:45.999Z</time></trkpt><trkpt lat="44.84985360487394" lon="9.525781928266985"><ele>187.0</ele><time>2026-03-22T13:03:46.999Z</time></trkpt><trkpt lat="44.84981612189278" lon="9.525975704289149"><ele>187.0</ele><time>2026-03-22T13:03:47.999Z</time></trkpt><trkpt lat="44.84978311478194" lon="9.526155625607467"><ele>187.0</ele><time>2026-03-22T13:03:48.999Z</time></trkpt><trkpt lat="44.849755466648354" lon="9.526331654415158"><ele>187.0</ele><time>2026-03-22T13:03:49.999Z</time></trkpt><trkpt lat="44.84974198138186" lon="9.526513237142348"><ele>187.0</ele><time>2026-03-22T13:03:50.999Z</time></trkpt><trkpt lat="44.849750555047024" lon="9.52670135663182"><ele>186.5</ele><time>2026-03-22T13:03:51.999Z</time></trkpt><trkpt lat="44.84974982172631" lon="9.526895256629315"><ele>186.0</ele><time>2026-03-22T13:03:52.999Z</time></trkpt><trkpt lat="44.849746238219254" lon="9.527073876335777"><ele>185.5</ele><time>2026-03-22T13:03:53.999Z</time></trkpt><trkpt lat="44.849740802771244" lon="9.527240645486195"><ele>185.0</ele><time>2026-03-22T13:03:54.999Z</time></trkpt><trkpt lat="44.84973157343868" lon="9.527381972285973"><ele>184.8</ele><time>2026-03-22T13:03:55.999Z</time></trkpt><trkpt lat="44.84971921978593" lon="9.527492591881169"><ele>184.6</ele><time>2026-03-22T13:03:56.999Z</time></trkpt><trkpt lat="44.84969955225696" lon="9.527618728381311"><ele>184.39999999999998</ele><time>2026-03-22T13:03:58.999Z</time></trkpt><trkpt lat="44.8496406180917" lon="9.527524622621323"><ele>184.2</ele><time>2026-03-22T13:04:01.999Z</time></trkpt><trkpt lat="44.84953172679601" lon="9.527413481367338"><ele>184.0</ele><time>2026-03-22T13:04:03.999Z</time></trkpt><trkpt lat="44.84943244209144" lon="9.527336967439359"><ele>184.0</ele><time>2026-03-22T13:04:04.999Z</time></trkpt><trkpt lat="44.84932645774331" lon="9.527256424324783"><ele>184.0</ele><time>2026-03-22T13:04:05.999Z</time></trkpt><trkpt lat="44.84917087243433" lon="9.527138642247317"><ele>184.0</ele><time>2026-03-22T13:04:06.999Z</time></trkpt><trkpt lat="44.84900844654134" lon="9.527015638395675"><ele>183.5</ele><time>2026-03-22T13:04:07.999Z</time></trkpt><trkpt lat="44.84888125111101" lon="9.526919314397903"><ele>183.0</ele><time>2026-03-22T13:04:08.999Z</time></trkpt><trkpt lat="44.84876435989371" lon="9.526830315913482"><ele>182.5</ele><time>2026-03-22T13:04:09.999Z</time></trkpt><trkpt lat="44.848659916250675" lon="9.526750564726512"><ele>182.0</ele><time>2026-03-22T13:04:10.999Z</time></trkpt><trkpt lat="44.84855754850729" lon="9.526672398561468"><ele>180.0</ele><time>2026-03-22T13:04:11.999Z</time></trkpt><trkpt lat="44.8484159946909" lon="9.52656431076494"><ele>178.0</ele><time>2026-03-22T13:04:12.999Z</time></trkpt><trkpt lat="44.84824084238757" lon="9.526430037719349"><ele>176.0</ele><time>2026-03-22T13:04:13.999Z</time></trkpt><trkpt lat="44.84809521178472" lon="9.526318282854241"><ele>177.33333333333331</ele><time>2026-03-22T13:04:14.999Z</time></trkpt><trkpt lat="44.84793872422303" lon="9.526199496206695"><ele>178.66666666666666</ele><time>2026-03-22T13:04:15.999Z</time></trkpt><trkpt lat="44.84777798011031" lon="9.526078710375321"><ele>180.0</ele><time>2026-03-22T13:04:16.999Z</time></trkpt><trkpt lat="44.847615272084234" lon="9.525982879332838"><ele>180.0</ele><time>2026-03-22T13:04:17.999Z</time></trkpt><trkpt lat="44.84745398780548" lon="9.525860835767329"><ele>180.0</ele><time>2026-03-22T13:04:18.999Z</time></trkpt><trkpt lat="44.84731284985351" lon="9.525756367332681"><ele>180.0</ele><time>2026-03-22T13:04:19.998Z</time></trkpt><trkpt lat="44.84718260249598" lon="9.525656711696694"><ele>180.0</ele><time>2026-03-22T13:04:20.998Z</time></trkpt><trkpt lat="44.8470618024298" lon="9.525562996493361"><ele>180.0</ele><time>2026-03-22T13:04:21.998Z</time></trkpt><trkpt lat="44.846937605212126" lon="9.525469014792336"><ele>180.0</ele><time>2026-03-22T13:04:22.998Z</time></trkpt><trkpt lat="44.84681897478941" lon="9.525376879027364"><ele>180.0</ele><time>2026-03-22T13:04:23.998Z</time></trkpt><trkpt lat="44.84670541355457" lon="9.525285432972757"><ele>180.5</ele><time>2026-03-22T13:04:24.998Z</time></trkpt><trkpt lat="44.846598114308556" lon="9.525197781676175"><ele>181.0</ele><time>2026-03-22T13:04:25.998Z</time></trkpt><trkpt lat="44.84649268991212" lon="9.5251181652778"><ele>181.5</ele><time>2026-03-22T13:04:26.998Z</time></trkpt><trkpt lat="44.84638461207115" lon="9.525038276028313"><ele>182.0</ele><time>2026-03-22T13:04:27.998Z</time></trkpt><trkpt lat="44.84627446137371" lon="9.524950678736168"><ele>182.0</ele><time>2026-03-22T13:04:28.998Z</time></trkpt><trkpt lat="44.84616288197839" lon="9.52486760164608"><ele>182.0</ele><time>2026-03-22T13:04:29.998Z</time></trkpt><trkpt lat="44.84604811829353" lon="9.524775597333358"><ele>182.0</ele><time>2026-03-22T13:04:30.998Z</time></trkpt><trkpt lat="44.84593162666027" lon="9.524688294122408"><ele>182.0</ele><time>2026-03-22T13:04:31.998Z</time></trkpt><trkpt lat="44.84582877709357" lon="9.524606612805144"><ele>182.25</ele><time>2026-03-22T13:04:32.998Z</time></trkpt><trkpt lat="44.845759157702986" lon="9.524504749789271"><ele>182.5</ele><time>2026-03-22T13:04:33.998Z</time></trkpt><trkpt lat="44.84571962529263" lon="9.52435605040792"><ele>182.75</ele><time>2026-03-22T13:04:34.998Z</time></trkpt><trkpt lat="44.845690295899104" lon="9.524176549210015"><ele>183.0</ele><time>2026-03-22T13:04:35.998Z</time></trkpt><trkpt lat="44.845640126842675" lon="9.523984670268296"><ele>183.0</ele><time>2026-03-22T13:04:36.998Z</time></trkpt><trkpt lat="44.84554120882179" lon="9.523755572221637"><ele>183.0</ele><time>2026-03-22T13:04:37.998Z</time></trkpt><trkpt lat="44.84543369577163" lon="9.523543882219716"><ele>183.0</ele><time>2026-03-22T13:04:38.998Z</time></trkpt><trkpt lat="44.84535647315314" lon="9.523372712583267"><ele>184.75</ele><time>2026-03-22T13:04:39.998Z</time></trkpt><trkpt lat="44.84530040293096" lon="9.523200152684938"><ele>186.5</ele><time>2026-03-22T13:04:40.998Z</time></trkpt><trkpt lat="44.84526371099152" lon="9.522979015154815"><ele>188.25</ele><time>2026-03-22T13:04:41.998Z</time></trkpt><trkpt lat="44.84523440513746" lon="9.52278696505559"><ele>190.0</ele><time>2026-03-22T13:04:42.998Z</time></trkpt><trkpt lat="44.845183496334265" lon="9.5226432406453"><ele>189.4</ele><time>2026-03-22T13:04:43.998Z</time></trkpt><trkpt lat="44.84513961194687" lon="9.522522207814891"><ele>188.8</ele><time>2026-03-22T13:04:44.998Z</time></trkpt><trkpt lat="44.84511328059355" lon="9.52241075271871"><ele>188.2</ele><time>2026-03-22T13:04:45.998Z</time></trkpt><trkpt lat="44.845157778833844" lon="9.522266221127131"><ele>187.6</ele><time>2026-03-22T13:04:46.998Z</time></trkpt><trkpt lat="44.845199368055745" lon="9.522082556090313"><ele>187.0</ele><time>2026-03-22T13:04:47.998Z</time></trkpt><trkpt lat="44.84521167355173" lon="9.521841287051164"><ele>191.0</ele><time>2026-03-22T13:04:48.998Z</time></trkpt><trkpt lat="44.84523077346328" lon="9.521642411152284"><ele>195.0</ele><time>2026-03-22T13:04:49.998Z</time></trkpt><trkpt lat="44.84524849163835" lon="9.521486412135651"><ele>199.0</ele><time>2026-03-22T13:04:50.998Z</time></trkpt><trkpt lat="44.845262384052155" lon="9.52136258909966"><ele>203.0</ele><time>2026-03-22T13:04:51.998Z</time></trkpt><trkpt lat="44.845254187792804" lon="9.521273001991498"><ele>207.0</ele><time>2026-03-22T13:04:52.998Z</time></trkpt><trkpt lat="44.845197636154" lon="9.521206885184931"><ele>207.0</ele><time>2026-03-22T13:04:53.998Z</time></trkpt><trkpt lat="44.84508176739168" lon="9.521096726927608"><ele>207.0</ele><time>2026-03-22T13:04:54.998Z</time></trkpt><trkpt lat="44.844959091197836" lon="9.52098126270226"><ele>207.0</ele><time>2026-03-22T13:04:55.998Z</time></trkpt><trkpt lat="44.84480927947023" lon="9.520897075663363"><ele>207.0</ele><time>2026-03-22T13:04:56.998Z</time></trkpt><trkpt lat="44.844671220485594" lon="9.520923599643067"><ele>207.0</ele><time>2026-03-22T13:04:57.998Z</time></trkpt><trkpt lat="44.844595895393766" lon="9.520918258717066"><ele>207.0</ele><time>2026-03-22T13:04:58.998Z</time></trkpt><trkpt lat="44.84453477154631" lon="9.52079908372947"><ele>207.0</ele><time>2026-03-22T13:05:00.998Z</time></trkpt><trkpt lat="44.84454915798156" lon="9.520637021383134"><ele>207.0</ele><time>2026-03-22T13:05:01.998Z</time></trkpt><trkpt lat="44.84454991452754" lon="9.520495982138447"><ele>207.0</ele><time>2026-03-22T13:05:02.998Z</time></trkpt><trkpt lat="44.84446648395644" lon="9.5203810527675"><ele>208.5</ele><time>2026-03-22T13:05:03.998Z</time></trkpt><trkpt lat="44.84435137779304" lon="9.520291555916723"><ele>210.0</ele><time>2026-03-22T13:05:04.998Z</time></trkpt><trkpt lat="44.84422868278558" lon="9.520188620287698"><ele>211.5</ele><time>2026-03-22T13:05:05.998Z</time></trkpt><trkpt lat="44.84410017739139" lon="9.520139561757624"><ele>213.0</ele><time>2026-03-22T13:05:06.998Z</time></trkpt><trkpt lat="44.844001690556084" lon="9.520109433743638"><ele>213.0</ele><time>2026-03-22T13:05:07.998Z</time></trkpt><trkpt lat="44.843888030988445" lon="9.520052898760046"><ele>213.0</ele><time>2026-03-22T13:05:08.997Z</time></trkpt><trkpt lat="44.84379591240782" lon="9.519895023748262"><ele>213.0</ele><time>2026-03-22T13:05:09.997Z</time></trkpt><trkpt lat="44.84371475308271" lon="9.51977394490728"><ele>213.0</ele><time>2026-03-22T13:05:10.997Z</time></trkpt><trkpt lat="44.84358324899705" lon="9.51962942787303"><ele>214.33333333333331</ele><time>2026-03-22T13:05:11.997Z</time></trkpt><trkpt lat="44.84339635383368" lon="9.519492283198645"><ele>215.66666666666666</ele><time>2026-03-22T13:05:12.997Z</time></trkpt><trkpt lat="44.84327948495731" lon="9.51935784776263"><ele>217.0</ele><time>2026-03-22T13:05:14Z</time></trkpt><trkpt lat="44.84317381223321" lon="9.519249785969606"><ele>217.0</ele><time>2026-03-22T13:05:15Z</time></trkpt><trkpt lat="44.84309425036097" lon="9.51915020804962"><ele>217.0</ele><time>2026-03-22T13:05:16Z</time></trkpt><trkpt lat="44.8430344439617" lon="9.519065437210761"><ele>217.0</ele><time>2026-03-22T13:05:17Z</time></trkpt><trkpt lat="44.84293675905615" lon="9.519014432208813"><ele>217.0</ele><time>2026-03-22T13:05:18Z</time></trkpt><trkpt lat="44.84277321684995" lon="9.519026739891252"><ele>213.75</ele><time>2026-03-22T13:05:19Z</time></trkpt><trkpt lat="44.84261210166476" lon="9.519051888849086"><ele>210.5</ele><time>2026-03-22T13:05:20Z</time></trkpt><trkpt lat="44.84247473347212" lon="9.519069040325924"><ele>207.25</ele><time>2026-03-22T13:05:21Z</time></trkpt><trkpt lat="44.842328579409724" lon="9.519038742634928"><ele>204.0</ele><time>2026-03-22T13:05:22Z</time></trkpt><trkpt lat="44.84220809395366" lon="9.51900863371839"><ele>204.0</ele><time>2026-03-22T13:05:23Z</time></trkpt><trkpt lat="44.842095537757686" lon="9.518971408910692"><ele>204.0</ele><time>2026-03-22T13:05:24Z</time></trkpt><trkpt lat="44.84198550314481" lon="9.518895608562733"><ele>204.0</ele><time>2026-03-22T13:05:25Z</time></trkpt><trkpt lat="44.84180413165157" lon="9.518763336894274"><ele>204.0</ele><time>2026-03-22T13:05:26Z</time></trkpt><trkpt lat="44.84163730287917" lon="9.51862103074307"><ele>207.75</ele><time>2026-03-22T13:05:27Z</time></trkpt><trkpt lat="44.84148486467568" lon="9.518501155342282"><ele>211.5</ele><time>2026-03-22T13:05:28Z</time></trkpt><trkpt lat="44.84135713411393" lon="9.518380691036317"><ele>215.25</ele><time>2026-03-22T13:05:29Z</time></trkpt><trkpt lat="44.84125543488598" lon="9.518297412490947"><ele>219.0</ele><time>2026-03-22T13:05:30Z</time></trkpt><trkpt lat="44.84119363931682" lon="9.518199120884297"><ele>219.0</ele><time>2026-03-22T13:05:31Z</time></trkpt><trkpt lat="44.84113411995759" lon="9.518059048497186"><ele>219.0</ele><time>2026-03-22T13:05:32Z</time></trkpt><trkpt lat="44.8410733170661" lon="9.517863395445676"><ele>219.0</ele><time>2026-03-22T13:05:33Z</time></trkpt><trkpt lat="44.84103391598356" lon="9.51768426291582"><ele>219.0</ele><time>2026-03-22T13:05:34Z</time></trkpt><trkpt lat="44.840976959467696" lon="9.517553767104236"><ele>218.75</ele><time>2026-03-22T13:05:35Z</time></trkpt><trkpt lat="44.84087228330487" lon="9.517446715209674"><ele>218.5</ele><time>2026-03-22T13:05:36Z</time></trkpt><trkpt lat="44.84077107429509" lon="9.517325379295048"><ele>218.25</ele><time>2026-03-22T13:05:37Z</time></trkpt><trkpt lat="44.840628377630885" lon="9.517167657568303"><ele>218.0</ele><time>2026-03-22T13:05:38Z</time></trkpt><trkpt lat="44.840516774351556" lon="9.517057240987487"><ele>216.25</ele><time>2026-03-22T13:05:39Z</time></trkpt><trkpt lat="44.84041391073981" lon="9.516957650400878"><ele>214.5</ele><time>2026-03-22T13:05:40Z</time></trkpt><trkpt lat="44.840286643801" lon="9.516919563993637"><ele>212.75</ele><time>2026-03-22T13:05:41Z</time></trkpt><trkpt lat="44.84020175499731" lon="9.51685628826602"><ele>211.0</ele><time>2026-03-22T13:05:42Z</time></trkpt><trkpt lat="44.8400951476892" lon="9.516690732983365"><ele>211.0</ele><time>2026-03-22T13:05:44Z</time></trkpt><trkpt lat="44.84005232759177" lon="9.516537827431494"><ele>211.0</ele><time>2026-03-22T13:05:45Z</time></trkpt><trkpt lat="44.839983123812694" lon="9.516348254607568"><ele>211.0</ele><time>2026-03-22T13:05:46Z</time></trkpt><trkpt lat="44.83993007213664" lon="9.516196809618487"><ele>211.0</ele><time>2026-03-22T13:05:47Z</time></trkpt><trkpt lat="44.83987827248443" lon="9.516059918061952"><ele>215.5</ele><time>2026-03-22T13:05:48Z</time></trkpt><trkpt lat="44.83979455095849" lon="9.515929939967531"><ele>220.0</ele><time>2026-03-22T13:05:49Z</time></trkpt><trkpt lat="44.839678172889165" lon="9.5158028609791"><ele>224.5</ele><time>2026-03-22T13:05:50Z</time></trkpt><trkpt lat="44.83958592314392" lon="9.515709734535035"><ele>229.0</ele><time>2026-03-22T13:05:51Z</time></trkpt><trkpt lat="44.83951953531815" lon="9.515618454069857"><ele>229.0</ele><time>2026-03-22T13:05:52Z</time></trkpt><trkpt lat="44.83946963132257" lon="9.515525893796196"><ele>228.99999999999997</ele><time>2026-03-22T13:05:53Z</time></trkpt><trkpt lat="44.83943226583006" lon="9.515411599258139"><ele>228.99999999999997</ele><time>2026-03-22T13:05:54Z</time></trkpt><trkpt lat="44.839406474672884" lon="9.515248703300498"><ele>229.0</ele><time>2026-03-22T13:05:54.999Z</time></trkpt><trkpt lat="44.83933804910209" lon="9.515057386362672"><ele>229.0</ele><time>2026-03-22T13:05:55.999Z</time></trkpt><trkpt lat="44.83925629851782" lon="9.51491386931796"><ele>224.0</ele><time>2026-03-22T13:05:56.999Z</time></trkpt><trkpt lat="44.83920709203273" lon="9.514742727927587"><ele>219.0</ele><time>2026-03-22T13:05:57.999Z</time></trkpt><trkpt lat="44.83919462734392" lon="9.514578154145944"><ele>214.0</ele><time>2026-03-22T13:05:58.999Z</time></trkpt><trkpt lat="44.839212630733776" lon="9.514441424993585"><ele>209.0</ele><time>2026-03-22T13:05:59.999Z</time></trkpt><trkpt lat="44.83925878020706" lon="9.514286953349044"><ele>209.0</ele><time>2026-03-22T13:06:00.999Z</time></trkpt><trkpt lat="44.839307530321555" lon="9.514139852855003"><ele>209.0</ele><time>2026-03-22T13:06:01.999Z</time></trkpt><trkpt lat="44.83932940617345" lon="9.514007542659046"><ele>209.0</ele><time>2026-03-22T13:06:02.999Z</time></trkpt><trkpt lat="44.8393200047606" lon="9.513873759857656"><ele>209.0</ele><time>2026-03-22T13:06:03.999Z</time></trkpt><trkpt lat="44.83927302148517" lon="9.513772522687"><ele>209.0</ele><time>2026-03-22T13:06:04.999Z</time></trkpt><trkpt lat="44.83920046994385" lon="9.513723798091672"><ele>209.0</ele><time>2026-03-22T13:06:05.999Z</time></trkpt><trkpt lat="44.83913544381035" lon="9.513687776743922"><ele>209.0</ele><time>2026-03-22T13:06:06.999Z</time></trkpt><trkpt lat="44.83902017976114" lon="9.513759824488641"><ele>209.0</ele><time>2026-03-22T13:06:07.999Z</time></trkpt><trkpt lat="44.83892440201283" lon="9.51394366246925"><ele>209.0</ele><time>2026-03-22T13:06:08.999Z</time></trkpt><trkpt lat="44.83883078155786" lon="9.514052693676465"><ele>209.0</ele><time>2026-03-22T13:06:09.999Z</time></trkpt><trkpt lat="44.83876120355808" lon="9.51408615782769"><ele>209.0</ele><time>2026-03-22T13:06:10.999Z</time></trkpt><trkpt lat="44.838698254261075" lon="9.514097337368817"><ele>209.0</ele><time>2026-03-22T13:06:11.999Z</time></trkpt><trkpt lat="44.838627363911925" lon="9.51408804923789"><ele>209.0</ele><time>2026-03-22T13:06:12.999Z</time></trkpt><trkpt lat="44.83850412480138" lon="9.514045044682282"><ele>209.0</ele><time>2026-03-22T13:06:13.999Z</time></trkpt><trkpt lat="44.8383538435404" lon="9.513979457616934"><ele>207.5</ele><time>2026-03-22T13:06:14.999Z</time></trkpt><trkpt lat="44.83819582054389" lon="9.513917638070033"><ele>206.0</ele><time>2026-03-22T13:06:15.999Z</time></trkpt><trkpt lat="44.83806806458347" lon="9.51387788057136"><ele>204.5</ele><time>2026-03-22T13:06:16.999Z</time></trkpt><trkpt lat="44.83794599236581" lon="9.513822616149467"><ele>203.0</ele><time>2026-03-22T13:06:17.999Z</time></trkpt><trkpt lat="44.837818355847936" lon="9.513715409033848"><ele>206.0</ele><time>2026-03-22T13:06:18.999Z</time></trkpt><trkpt lat="44.837700887234185" lon="9.513577755237181"><ele>209.0</ele><time>2026-03-22T13:06:19.999Z</time></trkpt><trkpt lat="44.837596292392405" lon="9.513461064055546"><ele>212.0</ele><time>2026-03-22T13:06:20.999Z</time></trkpt><trkpt lat="44.83749179854088" lon="9.513364079429278"><ele>215.0</ele><time>2026-03-22T13:06:21.999Z</time></trkpt><trkpt lat="44.83733347163687" lon="9.513326049244943"><ele>215.0</ele><time>2026-03-22T13:06:22.999Z</time></trkpt><trkpt lat="44.837159181324736" lon="9.513335949472754"><ele>215.0</ele><time>2026-03-22T13:06:23.999Z</time></trkpt><trkpt lat="44.83701212745885" lon="9.513314649207867"><ele>215.0</ele><time>2026-03-22T13:06:24.999Z</time></trkpt><trkpt lat="44.836858615117556" lon="9.51329202548335"><ele>214.25</ele><time>2026-03-22T13:06:25.999Z</time></trkpt><trkpt lat="44.836732148041996" lon="9.513270379503759"><ele>213.5</ele><time>2026-03-22T13:06:26.999Z</time></trkpt><trkpt lat="44.836605175622054" lon="9.513244942170486"><ele>212.75</ele><time>2026-03-22T13:06:27.999Z</time></trkpt><trkpt lat="44.83647566812671" lon="9.513216717224038"><ele>212.0</ele><time>2026-03-22T13:06:28.999Z</time></trkpt><trkpt lat="44.836355530634705" lon="9.51318979692981"><ele>212.0</ele><time>2026-03-22T13:06:29.999Z</time></trkpt><trkpt lat="44.836249250304014" lon="9.513164713619705"><ele>212.0</ele><time>2026-03-22T13:06:30.999Z</time></trkpt><trkpt lat="44.83616019100482" lon="9.51314349453795"><ele>212.0</ele><time>2026-03-22T13:06:31.999Z</time></trkpt><trkpt lat="44.836084151877174" lon="9.51312453692173"><ele>212.0</ele><time>2026-03-22T13:06:32.999Z</time></trkpt><trkpt lat="44.83601326699683" lon="9.51310686431659"><ele>212.0</ele><time>2026-03-22T13:06:33.999Z</time></trkpt><trkpt lat="44.83589107567742" lon="9.513076400282797"><ele>211.16666666666669</ele><time>2026-03-22T13:06:35.999Z</time></trkpt><trkpt lat="44.835789353135894" lon="9.513053414189509"><ele>210.33333333333334</ele><time>2026-03-22T13:06:37.999Z</time></trkpt><trkpt lat="44.83572194326423" lon="9.513039386188474"><ele>209.5</ele><time>2026-03-22T13:06:39.999Z</time></trkpt><trkpt lat="44.83565562449134" lon="9.513025585257429"><ele>208.66666666666669</ele><time>2026-03-22T13:06:42.999Z</time></trkpt><trkpt lat="44.83567156534282" lon="9.513112853940964"><ele>207.83333333333334</ele><time>2026-03-22T13:09:19.997Z</time></trkpt><trkpt lat="44.835743714877985" lon="9.51311487098237"><ele>207.0</ele><time>2026-03-22T13:09:25Z</time></trkpt><trkpt lat="44.83586322533314" lon="9.513151850931505"><ele>208.25</ele><time>2026-03-22T13:09:27Z</time></trkpt><trkpt lat="44.8359896600019" lon="9.513161486614939"><ele>209.5</ele><time>2026-03-22T13:09:28Z</time></trkpt><trkpt lat="44.83614799825366" lon="9.513202343264854"><ele>210.75</ele><time>2026-03-22T13:09:29Z</time></trkpt><trkpt lat="44.83625610022028" lon="9.513240065278126"><ele>212.0</ele><time>2026-03-22T13:09:30Z</time></trkpt><trkpt lat="44.836335678506515" lon="9.513256283243077"><ele>212.0</ele><time>2026-03-22T13:09:32Z</time></trkpt><trkpt lat="44.83621584293031" lon="9.51318600176525"><ele>212.0</ele><time>2026-03-22T13:09:39Z</time></trkpt><trkpt lat="44.836116313403366" lon="9.51318510022837"><ele>212.0</ele><time>2026-03-22T13:09:40Z</time></trkpt><trkpt lat="44.836045035487054" lon="9.513170391176525"><ele>212.0</ele><time>2026-03-22T13:09:41Z</time></trkpt><trkpt lat="44.835975624533916" lon="9.513153947727586"><ele>212.0</ele><time>2026-03-22T13:09:42Z</time></trkpt><trkpt lat="44.83589728716663" lon="9.513137162805073"><ele>211.0</ele><time>2026-03-22T13:09:43Z</time></trkpt><trkpt lat="44.83580402647288" lon="9.513119263738401"><ele>210.0</ele><time>2026-03-22T13:09:44Z</time></trkpt><trkpt lat="44.835703327274366" lon="9.513096519796282"><ele>209.0</ele><time>2026-03-22T13:09:45Z</time></trkpt><trkpt lat="44.835600527142574" lon="9.513073867656024"><ele>208.0</ele><time>2026-03-22T13:09:46Z</time></trkpt><trkpt lat="44.835507354993005" lon="9.513044619809758"><ele>207.0</ele><time>2026-03-22T13:09:47Z</time></trkpt><trkpt lat="44.83541825117554" lon="9.513004687043434"><ele>207.0</ele><time>2026-03-22T13:09:48Z</time></trkpt><trkpt lat="44.835322983520705" lon="9.51300366694546"><ele>207.0</ele><time>2026-03-22T13:09:49Z</time></trkpt><trkpt lat="44.83524047248874" lon="9.51286380538369"><ele>207.0</ele><time>2026-03-22T13:09:50Z</time></trkpt><trkpt lat="44.83514886615321" lon="9.512778113558797"><ele>207.0</ele><time>2026-03-22T13:09:50.999Z</time></trkpt><trkpt lat="44.83506057964286" lon="9.512689324346328"><ele>207.0</ele><time>2026-03-22T13:09:51.999Z</time></trkpt><trkpt lat="44.83497509874981" lon="9.512598733003404"><ele>208.5</ele><time>2026-03-22T13:09:52.999Z</time></trkpt><trkpt lat="44.834897948827624" lon="9.512493822028029"><ele>210.0</ele><time>2026-03-22T13:09:53.999Z</time></trkpt><trkpt lat="44.83479998544898" lon="9.512359936073377"><ele>211.5</ele><time>2026-03-22T13:09:54.999Z</time></trkpt><trkpt lat="44.83465943732214" lon="9.512177973055751"><ele>213.0</ele><time>2026-03-22T13:09:55.999Z</time></trkpt><trkpt lat="44.834527484546335" lon="9.512025811572627"><ele>216.0</ele><time>2026-03-22T13:09:56.999Z</time></trkpt><trkpt lat="44.83443955602094" lon="9.51189248957125"><ele>219.0</ele><time>2026-03-22T13:09:57.999Z</time></trkpt><trkpt lat="44.83437420172211" lon="9.511746869031526"><ele>222.0</ele><time>2026-03-22T13:09:58.999Z</time></trkpt><trkpt lat="44.83432897234326" lon="9.511604256192687"><ele>225.0</ele><time>2026-03-22T13:09:59.999Z</time></trkpt><trkpt lat="44.83430680035535" lon="9.511465181311147"><ele>222.8</ele><time>2026-03-22T13:10:00.999Z</time></trkpt><trkpt lat="44.83427857995357" lon="9.51133834375001"><ele>220.6</ele><time>2026-03-22T13:10:01.999Z</time></trkpt><trkpt lat="44.83429263363575" lon="9.511195082158212"><ele>218.39999999999998</ele><time>2026-03-22T13:10:02.999Z</time></trkpt><trkpt lat="44.834270692659004" lon="9.511059869599027"><ele>216.2</ele><time>2026-03-22T13:10:03.999Z</time></trkpt><trkpt lat="44.83425264740282" lon="9.51092645697712"><ele>214.0</ele><time>2026-03-22T13:10:04.999Z</time></trkpt><trkpt lat="44.83419306983274" lon="9.510792261994402"><ele>214.0</ele><time>2026-03-22T13:10:05.999Z</time></trkpt><trkpt lat="44.83407792500405" lon="9.51066764940679"><ele>214.0</ele><time>2026-03-22T13:10:06.999Z</time></trkpt><trkpt lat="44.83391738845799" lon="9.510607835238993"><ele>214.0</ele><time>2026-03-22T13:10:07.999Z</time></trkpt><trkpt lat="44.833792838947524" lon="9.510599573907102"><ele>214.0</ele><time>2026-03-22T13:10:08.999Z</time></trkpt><trkpt lat="44.833708860284325" lon="9.5105778051773"><ele>214.0</ele><time>2026-03-22T13:10:09.999Z</time></trkpt><trkpt lat="44.83363604882478" lon="9.510534223153279"><ele>213.99999999999997</ele><time>2026-03-22T13:10:10.999Z</time></trkpt><trkpt lat="44.83355796304243" lon="9.510450831354383"><ele>213.99999999999997</ele><time>2026-03-22T13:10:11.999Z</time></trkpt><trkpt lat="44.83349303621157" lon="9.51032258580257"><ele>214.0</ele><time>2026-03-22T13:10:12.999Z</time></trkpt><trkpt lat="44.83343706528841" lon="9.510183009367736"><ele>214.0</ele><time>2026-03-22T13:10:13.999Z</time></trkpt><trkpt lat="44.83337362694514" lon="9.510035273714763"><ele>213.79999999999998</ele><time>2026-03-22T13:10:14.999Z</time></trkpt><trkpt lat="44.833307487672705" lon="9.509908346732663"><ele>213.59999999999997</ele><time>2026-03-22T13:10:15.999Z</time></trkpt><trkpt lat="44.83325816522829" lon="9.509787736101083"><ele>213.4</ele><time>2026-03-22T13:10:16.999Z</time></trkpt><trkpt lat="44.83322270515438" lon="9.50965737385826"><ele>213.2</ele><time>2026-03-22T13:10:17.999Z</time></trkpt><trkpt lat="44.833249938539595" lon="9.509485027753858"><ele>213.0</ele><time>2026-03-22T13:10:18.999Z</time></trkpt><trkpt lat="44.833319738960945" lon="9.50929409515094"><ele>214.60000000000002</ele><time>2026-03-22T13:10:19.999Z</time></trkpt><trkpt lat="44.8333577300995" lon="9.509143456873785"><ele>216.20000000000002</ele><time>2026-03-22T13:10:20.999Z</time></trkpt><trkpt lat="44.833360211262224" lon="9.509034319979417"><ele>217.8</ele><time>2026-03-22T13:10:21.999Z</time></trkpt><trkpt lat="44.83334643152973" lon="9.508909100201429"><ele>219.4</ele><time>2026-03-22T13:10:22.999Z</time></trkpt><trkpt lat="44.83325664405774" lon="9.508739129117801"><ele>221.0</ele><time>2026-03-22T13:10:23.999Z</time></trkpt><trkpt lat="44.833142017093856" lon="9.50855893274853"><ele>223.66666666666669</ele><time>2026-03-22T13:10:24.999Z</time></trkpt><trkpt lat="44.833004590905944" lon="9.508411221257338"><ele>226.33333333333331</ele><time>2026-03-22T13:10:25.999Z</time></trkpt><trkpt lat="44.8328545734523" lon="9.508259435917196"><ele>229.0</ele><time>2026-03-22T13:10:26.999Z</time></trkpt><trkpt lat="44.83268653349462" lon="9.50814736063576"><ele>231.33333333333331</ele><time>2026-03-22T13:10:27.999Z</time></trkpt><trkpt lat="44.83251544316298" lon="9.508053984108255"><ele>233.66666666666669</ele><time>2026-03-22T13:10:28.999Z</time></trkpt><trkpt lat="44.832353261553685" lon="9.507959929146537"><ele>236.0</ele><time>2026-03-22T13:10:29.999Z</time></trkpt><trkpt lat="44.8321987833558" lon="9.507828313968892"><ele>236.0</ele><time>2026-03-22T13:10:30.999Z</time></trkpt><trkpt lat="44.83205872317754" lon="9.507695929140501"><ele>236.0</ele><time>2026-03-22T13:10:31.999Z</time></trkpt><trkpt lat="44.83194586976204" lon="9.507581499817794"><ele>236.0</ele><time>2026-03-22T13:10:32.999Z</time></trkpt><trkpt lat="44.83185297915245" lon="9.507481923048298"><ele>236.0</ele><time>2026-03-22T13:10:33.999Z</time></trkpt><trkpt lat="44.831770875973575" lon="9.50739385046978"><ele>236.25</ele><time>2026-03-22T13:10:34.999Z</time></trkpt><trkpt lat="44.831692498496594" lon="9.50731957588518"><ele>236.5</ele><time>2026-03-22T13:10:35.998Z</time></trkpt><trkpt lat="44.83163660223326" lon="9.507198463214374"><ele>236.75</ele><time>2026-03-22T13:10:36.998Z</time></trkpt><trkpt lat="44.831600017005" lon="9.507030201468687"><ele>237.0</ele><time>2026-03-22T13:10:37.998Z</time></trkpt><trkpt lat="44.83159990750345" lon="9.506813658620965"><ele>237.0</ele><time>2026-03-22T13:10:38.998Z</time></trkpt><trkpt lat="44.83156674479413" lon="9.506626436917458"><ele>237.0</ele><time>2026-03-22T13:10:39.998Z</time></trkpt><trkpt lat="44.83146414241685" lon="9.506474357496014"><ele>237.0</ele><time>2026-03-22T13:10:40.998Z</time></trkpt><trkpt lat="44.83129103981263" lon="9.506341430407083"><ele>239.75</ele><time>2026-03-22T13:10:41.998Z</time></trkpt><trkpt lat="44.831169847535534" lon="9.5061959552603"><ele>242.5</ele><time>2026-03-22T13:10:42.998Z</time></trkpt><trkpt lat="44.831120098385995" lon="9.50604574715962"><ele>245.25</ele><time>2026-03-22T13:10:43.998Z</time></trkpt><trkpt lat="44.83109905837108" lon="9.50587146861511"><ele>248.0</ele><time>2026-03-22T13:10:44.998Z</time></trkpt><trkpt lat="44.83106915849238" lon="9.505721645137914"><ele>248.0</ele><time>2026-03-22T13:10:45.998Z</time></trkpt><trkpt lat="44.83102340082584" lon="9.505614927301696"><ele>248.0</ele><time>2026-03-22T13:10:46.998Z</time></trkpt><trkpt lat="44.830951542088066" lon="9.50549214326705"><ele>248.0</ele><time>2026-03-22T13:10:47.998Z</time></trkpt><trkpt lat="44.83087617801334" lon="9.505336201908984"><ele>248.0</ele><time>2026-03-22T13:10:48.998Z</time></trkpt><trkpt lat="44.83081764058402" lon="9.505152524151912"><ele>247.33333333333334</ele><time>2026-03-22T13:10:49.998Z</time></trkpt><trkpt lat="44.830777346742984" lon="9.504948782745656"><ele>246.66666666666669</ele><time>2026-03-22T13:10:50.998Z</time></trkpt><trkpt lat="44.8307472186008" lon="9.504711505081135"><ele>246.0</ele><time>2026-03-22T13:10:51.998Z</time></trkpt><trkpt lat="44.830699760925164" lon="9.504459449018"><ele>246.0</ele><time>2026-03-22T13:10:52.998Z</time></trkpt><trkpt lat="44.83066148397379" lon="9.50421042307126"><ele>246.0</ele><time>2026-03-22T13:10:53.998Z</time></trkpt><trkpt lat="44.83062733467658" lon="9.503945352435467"><ele>246.0</ele><time>2026-03-22T13:10:54.998Z</time></trkpt><trkpt lat="44.83055792840968" lon="9.503691890700313"><ele>249.66666666666669</ele><time>2026-03-22T13:10:55.998Z</time></trkpt><trkpt lat="44.83047977628414" lon="9.503435001659787"><ele>253.33333333333334</ele><time>2026-03-22T13:10:56.998Z</time></trkpt><trkpt lat="44.830409341538235" lon="9.503196441623514"><ele>257.0</ele><time>2026-03-22T13:10:57.998Z</time></trkpt><trkpt lat="44.83035706567943" lon="9.50300749784832"><ele>259.5</ele><time>2026-03-22T13:10:58.998Z</time></trkpt><trkpt lat="44.830310979834955" lon="9.502801845264596"><ele>262.0</ele><time>2026-03-22T13:10:59.998Z</time></trkpt><trkpt lat="44.830269104966355" lon="9.50262956195216"><ele>264.5</ele><time>2026-03-22T13:11:00.998Z</time></trkpt><trkpt lat="44.83022163715222" lon="9.502486626330748"><ele>267.0</ele><time>2026-03-22T13:11:01.998Z</time></trkpt><trkpt lat="44.830193298476836" lon="9.50236373840122"><ele>267.0</ele><time>2026-03-22T13:11:02.998Z</time></trkpt><trkpt lat="44.83018320049751" lon="9.502216776796022"><ele>267.0</ele><time>2026-03-22T13:11:03.998Z</time></trkpt><trkpt lat="44.830254768635484" lon="9.502055610788293"><ele>267.0</ele><time>2026-03-22T13:11:04.998Z</time></trkpt><trkpt lat="44.8302840497119" lon="9.50188299654122"><ele>267.0</ele><time>2026-03-22T13:11:05.998Z</time></trkpt><trkpt lat="44.8302669410039" lon="9.501707130475532"><ele>269.0</ele><time>2026-03-22T13:11:06.998Z</time></trkpt><trkpt lat="44.830262318497326" lon="9.501487204470141"><ele>271.0</ele><time>2026-03-22T13:11:07.998Z</time></trkpt><trkpt lat="44.83030993475712" lon="9.501272101799408"><ele>273.0</ele><time>2026-03-22T13:11:08.998Z</time></trkpt><trkpt lat="44.83037550440585" lon="9.501107429388048"><ele>273.5</ele><time>2026-03-22T13:11:09.998Z</time></trkpt><trkpt lat="44.83041812454434" lon="9.500996591748477"><ele>274.0</ele><time>2026-03-22T13:11:10.998Z</time></trkpt><trkpt lat="44.83043587527547" lon="9.500846550370508"><ele>274.5</ele><time>2026-03-22T13:11:12.998Z</time></trkpt><trkpt lat="44.83032487692503" lon="9.500742471472492"><ele>275.0</ele><time>2026-03-22T13:11:14.998Z</time></trkpt><trkpt lat="44.83019890709109" lon="9.500834569767335"><ele>271.0</ele><time>2026-03-22T13:11:15.998Z</time></trkpt><trkpt lat="44.830082358654415" lon="9.500963440769434"><ele>267.0</ele><time>2026-03-22T13:11:16.998Z</time></trkpt><trkpt lat="44.829947724294904" lon="9.501078375535577"><ele>263.0</ele><time>2026-03-22T13:11:17.998Z</time></trkpt><trkpt lat="44.82981331754992" lon="9.501209364955624"><ele>260.75</ele><time>2026-03-22T13:11:18.998Z</time></trkpt><trkpt lat="44.82970223495521" lon="9.501385295924766"><ele>258.5</ele><time>2026-03-22T13:11:19.998Z</time></trkpt><trkpt lat="44.829604993102386" lon="9.501541968875012"><ele>256.25</ele><time>2026-03-22T13:11:20.998Z</time></trkpt><trkpt lat="44.829520204771725" lon="9.50166501628861"><ele>254.0</ele><time>2026-03-22T13:11:21.997Z</time></trkpt><trkpt lat="44.829455694747196" lon="9.501740872203376"><ele>254.0</ele><time>2026-03-22T13:11:22.997Z</time></trkpt><trkpt lat="44.82933721325373" lon="9.501766472514603"><ele>254.0</ele><time>2026-03-22T13:11:24.997Z</time></trkpt><trkpt lat="44.82922702834828" lon="9.501733634802283"><ele>254.0</ele><time>2026-03-22T13:11:25.997Z</time></trkpt><trkpt lat="44.829113473619856" lon="9.501683309913739"><ele>254.0</ele><time>2026-03-22T13:11:26.997Z</time></trkpt><trkpt lat="44.82900971207079" lon="9.50163737368213"><ele>255.5</ele><time>2026-03-22T13:11:27.997Z</time></trkpt><trkpt lat="44.82890610792576" lon="9.501580075896575"><ele>257.0</ele><time>2026-03-22T13:11:28.997Z</time></trkpt><trkpt lat="44.828794917723194" lon="9.501495262330911"><ele>258.5</ele><time>2026-03-22T13:11:30Z</time></trkpt><trkpt lat="44.82867559526913" lon="9.50138912278062"><ele>260.0</ele><time>2026-03-22T13:11:31Z</time></trkpt><trkpt lat="44.828573612680806" lon="9.501296487085302"><ele>260.1666666666667</ele><time>2026-03-22T13:11:32Z</time></trkpt><trkpt lat="44.828486392397075" lon="9.501215681927102"><ele>260.33333333333337</ele><time>2026-03-22T13:11:33Z</time></trkpt><trkpt lat="44.82840462582067" lon="9.501152661122006"><ele>260.5</ele><time>2026-03-22T13:11:34Z</time></trkpt><trkpt lat="44.828353540417275" lon="9.501061153749818"><ele>260.6666666666667</ele><time>2026-03-22T13:11:35Z</time></trkpt><trkpt lat="44.82834286208307" lon="9.500951356704824"><ele>260.8333333333333</ele><time>2026-03-22T13:11:36Z</time></trkpt><trkpt lat="44.82833000353748" lon="9.500856205926016"><ele>261.0</ele><time>2026-03-22T13:11:37Z</time></trkpt><trkpt lat="44.828365148960266" lon="9.500747621482917"><ele>261.0</ele><time>2026-03-22T13:11:38Z</time></trkpt><trkpt lat="44.82840430499805" lon="9.500655814163506"><ele>261.0</ele><time>2026-03-22T13:11:39Z</time></trkpt><trkpt lat="44.82845740172193" lon="9.500546587553723"><ele>261.0</ele><time>2026-03-22T13:11:40Z</time></trkpt><trkpt lat="44.82852150489855" lon="9.500426106514682"><ele>261.0</ele><time>2026-03-22T13:11:41Z</time></trkpt><trkpt lat="44.82859360299393" lon="9.500295363670006"><ele>261.0</ele><time>2026-03-22T13:11:42Z</time></trkpt><trkpt lat="44.82867501491211" lon="9.500148788138535"><ele>264.6666666666667</ele><time>2026-03-22T13:11:43Z</time></trkpt><trkpt lat="44.82877355605736" lon="9.499970821861979"><ele>268.33333333333337</ele><time>2026-03-22T13:11:44Z</time></trkpt><trkpt lat="44.82886385061406" lon="9.499792038259598"><ele>272.0</ele><time>2026-03-22T13:11:45Z</time></trkpt><trkpt lat="44.82894874069958" lon="9.499625638121744"><ele>271.0</ele><time>2026-03-22T13:11:46Z</time></trkpt><trkpt lat="44.82902786661341" lon="9.499479768764122"><ele>270.0</ele><time>2026-03-22T13:11:47Z</time></trkpt><trkpt lat="44.829140661925" lon="9.499309256247898"><ele>269.0</ele><time>2026-03-22T13:11:48Z</time></trkpt><trkpt lat="44.8292485030744" lon="9.499139755631308"><ele>270.75</ele><time>2026-03-22T13:11:49Z</time></trkpt><trkpt lat="44.8293310445521" lon="9.498986388984394"><ele>272.5</ele><time>2026-03-22T13:11:50Z</time></trkpt><trkpt lat="44.82941124633843" lon="9.498854470144382"><ele>274.25</ele><time>2026-03-22T13:11:51Z</time></trkpt><trkpt lat="44.82950679808825" lon="9.498768798110154"><ele>276.0</ele><time>2026-03-22T13:11:52Z</time></trkpt><trkpt lat="44.829600472795626" lon="9.498694676660289"><ele>276.0</ele><time>2026-03-22T13:11:53Z</time></trkpt><trkpt lat="44.82970650909817" lon="9.498620356731694"><ele>276.0</ele><time>2026-03-22T13:11:54Z</time></trkpt><trkpt lat="44.829790490417466" lon="9.498556223716216"><ele>276.0</ele><time>2026-03-22T13:11:55Z</time></trkpt><trkpt lat="44.829852801093786" lon="9.498487904794164"><ele>276.0</ele><time>2026-03-22T13:11:56Z</time></trkpt><trkpt lat="44.82987920298151" lon="9.498366678581077"><ele>276.0</ele><time>2026-03-22T13:11:58Z</time></trkpt><trkpt lat="44.82971283788126" lon="9.498246987280844"><ele>276.0</ele><time>2026-03-22T13:12:00Z</time></trkpt><trkpt lat="44.82955981832714" lon="9.498227251568867"><ele>276.0</ele><time>2026-03-22T13:12:01Z</time></trkpt><trkpt lat="44.82943797048578" lon="9.498187648220425"><ele>276.0</ele><time>2026-03-22T13:12:02Z</time></trkpt><trkpt lat="44.829359008256084" lon="9.498148698538577"><ele>276.0</ele><time>2026-03-22T13:12:03Z</time></trkpt><trkpt lat="44.829292669822635" lon="9.498093019989984"><ele>276.0</ele><time>2026-03-22T13:12:05Z</time></trkpt><trkpt lat="44.82914967199559" lon="9.498056894421707"><ele>275.0</ele><time>2026-03-22T13:12:07.999Z</time></trkpt><trkpt lat="44.82908337952385" lon="9.49809943737683"><ele>274.0</ele><time>2026-03-22T13:12:08.999Z</time></trkpt><trkpt lat="44.82897654575181" lon="9.498160807186524"><ele>273.0</ele><time>2026-03-22T13:12:10.999Z</time></trkpt><trkpt lat="44.82887817050716" lon="9.498206489834278"><ele>272.0</ele><time>2026-03-22T13:12:12.999Z</time></trkpt><trkpt lat="44.82874824563801" lon="9.498192848500706"><ele>271.0</ele><time>2026-03-22T13:12:14.999Z</time></trkpt><trkpt lat="44.828658427644434" lon="9.498126128847106"><ele>271.0</ele><time>2026-03-22T13:12:15.999Z</time></trkpt><trkpt lat="44.828573712378756" lon="9.498053220002861"><ele>271.0</ele><time>2026-03-22T13:12:16.999Z</time></trkpt><trkpt lat="44.828501319045806" lon="9.497993906634003"><ele>271.0</ele><time>2026-03-22T13:12:17.999Z</time></trkpt><trkpt lat="44.82842664237853" lon="9.49794974619987"><ele>271.0</ele><time>2026-03-22T13:12:18.999Z</time></trkpt><trkpt lat="44.8283864763158" lon="9.497848179440407"><ele>271.0</ele><time>2026-03-22T13:12:19.999Z</time></trkpt><trkpt lat="44.828350629309185" lon="9.497713864902641"><ele>271.0</ele><time>2026-03-22T13:12:20.999Z</time></trkpt><trkpt lat="44.8283404042332" lon="9.497569229604856"><ele>270.3333333333333</ele><time>2026-03-22T13:12:21.999Z</time></trkpt><trkpt lat="44.82832849858548" lon="9.497454102237146"><ele>269.66666666666663</ele><time>2026-03-22T13:12:22.999Z</time></trkpt><trkpt lat="44.82831205727241" lon="9.497336967192773"><ele>269.0</ele><time>2026-03-22T13:12:23.999Z</time></trkpt><trkpt lat="44.82827845362967" lon="9.49722008111143"><ele>268.3333333333333</ele><time>2026-03-22T13:12:24.999Z</time></trkpt><trkpt lat="44.82824885850087" lon="9.497108020312005"><ele>267.6666666666667</ele><time>2026-03-22T13:12:25.999Z</time></trkpt><trkpt lat="44.82819858655456" lon="9.497019228436278"><ele>267.0</ele><time>2026-03-22T13:12:26.999Z</time></trkpt><trkpt lat="44.828144578590745" lon="9.496952635699405"><ele>266.6</ele><time>2026-03-22T13:12:27.999Z</time></trkpt><trkpt lat="44.82806272745818" lon="9.496911154950464"><ele>266.2</ele><time>2026-03-22T13:12:28.999Z</time></trkpt><trkpt lat="44.827937566896225" lon="9.496935779760596"><ele>265.8</ele><time>2026-03-22T13:12:29.999Z</time></trkpt><trkpt lat="44.82782152962866" lon="9.496971841681928"><ele>265.4</ele><time>2026-03-22T13:12:30.999Z</time></trkpt><trkpt lat="44.827712115732005" lon="9.497004649263253"><ele>265.0</ele><time>2026-03-22T13:12:31.999Z</time></trkpt><trkpt lat="44.827606734306954" lon="9.497035644135819"><ele>262.25</ele><time>2026-03-22T13:12:32.999Z</time></trkpt><trkpt lat="44.827506430093585" lon="9.49707819928227"><ele>259.5</ele><time>2026-03-22T13:12:33.999Z</time></trkpt><trkpt lat="44.82741152680214" lon="9.497151543052686"><ele>256.75</ele><time>2026-03-22T13:12:34.999Z</time></trkpt><trkpt lat="44.82732641660255" lon="9.497287436397883"><ele>254.0</ele><time>2026-03-22T13:12:35.999Z</time></trkpt><trkpt lat="44.82724553038902" lon="9.497436860386811"><ele>254.0</ele><time>2026-03-22T13:12:36.999Z</time></trkpt><trkpt lat="44.82717472173084" lon="9.497535729149174"><ele>253.99999999999997</ele><time>2026-03-22T13:12:37.999Z</time></trkpt><trkpt lat="44.8270904363612" lon="9.497597018740132"><ele>253.99999999999997</ele><time>2026-03-22T13:12:38.999Z</time></trkpt><trkpt lat="44.8269965849472" lon="9.497615913105708"><ele>254.0</ele><time>2026-03-22T13:12:39.999Z</time></trkpt><trkpt lat="44.826878175475215" lon="9.49765616681402"><ele>254.0</ele><time>2026-03-22T13:12:40.999Z</time></trkpt><trkpt lat="44.82676670495461" lon="9.497711067823511"><ele>252.25</ele><time>2026-03-22T13:12:41.999Z</time></trkpt><trkpt lat="44.82665272819397" lon="9.497807657996875"><ele>250.5</ele><time>2026-03-22T13:12:42.999Z</time></trkpt><trkpt lat="44.826547245309634" lon="9.497902095563063"><ele>248.75</ele><time>2026-03-22T13:12:43.999Z</time></trkpt><trkpt lat="44.82643985976521" lon="9.497997126369473"><ele>247.0</ele><time>2026-03-22T13:12:44.999Z</time></trkpt><trkpt lat="44.8263482049534" lon="9.498073271946923"><ele>247.0</ele><time>2026-03-22T13:12:45.999Z</time></trkpt><trkpt lat="44.82626090898528" lon="9.49812429399689"><ele>247.0</ele><time>2026-03-22T13:12:46.999Z</time></trkpt><trkpt lat="44.82617710102328" lon="9.498158548742117"><ele>247.0</ele><time>2026-03-22T13:12:47.999Z</time></trkpt><trkpt lat="44.82609217908753" lon="9.498167607611792"><ele>247.0</ele><time>2026-03-22T13:12:48.999Z</time></trkpt><trkpt lat="44.82600699244252" lon="9.49814236155606"><ele>247.0</ele><time>2026-03-22T13:12:49.999Z</time></trkpt><trkpt lat="44.825902408676434" lon="9.49809862684698"><ele>243.5</ele><time>2026-03-22T13:12:50.999Z</time></trkpt><trkpt lat="44.825792898197754" lon="9.498040987297124"><ele>240.0</ele><time>2026-03-22T13:12:51.998Z</time></trkpt><trkpt lat="44.825686472559376" lon="9.497974774018417"><ele>236.5</ele><time>2026-03-22T13:12:52.998Z</time></trkpt><trkpt lat="44.82558655538328" lon="9.497902500702105"><ele>233.0</ele><time>2026-03-22T13:12:53.998Z</time></trkpt><trkpt lat="44.82548523422391" lon="9.497829234569112"><ele>232.4</ele><time>2026-03-22T13:12:54.998Z</time></trkpt><trkpt lat="44.825388600765194" lon="9.497762618659543"><ele>231.8</ele><time>2026-03-22T13:12:55.998Z</time></trkpt><trkpt lat="44.82529746366467" lon="9.497697756361488"><ele>231.2</ele><time>2026-03-22T13:12:56.998Z</time></trkpt><trkpt lat="44.825211227685394" lon="9.497635684466536"><ele>230.6</ele><time>2026-03-22T13:12:57.998Z</time></trkpt><trkpt lat="44.82517395712202" lon="9.497508859767082"><ele>230.0</ele><time>2026-03-22T13:12:58.998Z</time></trkpt><trkpt lat="44.825162541211895" lon="9.497387874425375"><ele>226.8</ele><time>2026-03-22T13:12:59.998Z</time></trkpt><trkpt lat="44.825119303880285" lon="9.497304626516229"><ele>223.6</ele><time>2026-03-22T13:13:00.998Z</time></trkpt><trkpt lat="44.8250580299501" lon="9.497218924372449"><ele>220.39999999999998</ele><time>2026-03-22T13:13:01.998Z</time></trkpt><trkpt lat="44.82494217742633" lon="9.497216888440654"><ele>217.2</ele><time>2026-03-22T13:13:02.998Z</time></trkpt><trkpt lat="44.82484783139333" lon="9.497257550500375"><ele>214.0</ele><time>2026-03-22T13:13:03.998Z</time></trkpt><trkpt lat="44.82477157444448" lon="9.497366406218466"><ele>214.0</ele><time>2026-03-22T13:13:04.998Z</time></trkpt><trkpt lat="44.82472456294079" lon="9.49745051832371"><ele>213.99999999999997</ele><time>2026-03-22T13:13:05.998Z</time></trkpt><trkpt lat="44.8247089747326" lon="9.497611651911644"><ele>213.99999999999997</ele><time>2026-03-22T13:13:06.998Z</time></trkpt><trkpt lat="44.8247203178272" lon="9.497738099010194"><ele>214.0</ele><time>2026-03-22T13:13:07.998Z</time></trkpt><trkpt lat="44.824721974720546" lon="9.497932417633816"><ele>214.0</ele><time>2026-03-22T13:13:09.998Z</time></trkpt><trkpt lat="44.82471718498919" lon="9.498135074083386"><ele>213.39999999999998</ele><time>2026-03-22T13:13:11.998Z</time></trkpt><trkpt lat="44.82470539481423" lon="9.498276853147413"><ele>212.79999999999998</ele><time>2026-03-22T13:13:12.998Z</time></trkpt><trkpt lat="44.82468674457182" lon="9.498427319634704"><ele>212.2</ele><time>2026-03-22T13:13:13.998Z</time></trkpt><trkpt lat="44.824668908976506" lon="9.498590469985679"><ele>211.60000000000002</ele><time>2026-03-22T13:13:14.998Z</time></trkpt><trkpt lat="44.824662392481194" lon="9.498741826694877"><ele>211.0</ele><time>2026-03-22T13:13:15.998Z</time></trkpt><trkpt lat="44.824661153121156" lon="9.498887093029104"><ele>210.60000000000002</ele><time>2026-03-22T13:13:16.998Z</time></trkpt><trkpt lat="44.82467553360853" lon="9.499030267484994"><ele>210.2</ele><time>2026-03-22T13:13:17.998Z</time></trkpt><trkpt lat="44.82468066104079" lon="9.499136916175583"><ele>209.8</ele><time>2026-03-22T13:13:18.998Z</time></trkpt><trkpt lat="44.82466563351537" lon="9.49925707449485"><ele>209.39999999999998</ele><time>2026-03-22T13:13:20.998Z</time></trkpt><trkpt lat="44.824611807838565" lon="9.499314886272291"><ele>209.0</ele><time>2026-03-22T13:13:24.998Z</time></trkpt><trkpt lat="44.82477118684279" lon="9.499283894524542"><ele>209.0</ele><time>2026-03-22T13:13:28.998Z</time></trkpt><trkpt lat="44.824759197026566" lon="9.499179496873227"><ele>209.0</ele><time>2026-03-22T13:13:31.998Z</time></trkpt><trkpt lat="44.82475216054915" lon="9.499030851203946"><ele>209.0</ele><time>2026-03-22T13:13:33.998Z</time></trkpt><trkpt lat="44.824742662528884" lon="9.49890900423138"><ele>209.0</ele><time>2026-03-22T13:13:35Z</time></trkpt><trkpt lat="44.82474267814362" lon="9.498768533587668"><ele>209.0</ele><time>2026-03-22T13:13:36Z</time></trkpt><trkpt lat="44.82474983858686" lon="9.498610333169374"><ele>209.5</ele><time>2026-03-22T13:13:37Z</time></trkpt><trkpt lat="44.824768387978196" lon="9.498445270698355"><ele>210.0</ele><time>2026-03-22T13:13:38Z</time></trkpt><trkpt lat="44.824792636640126" lon="9.498290357316645"><ele>210.5</ele><time>2026-03-22T13:13:39Z</time></trkpt><trkpt lat="44.824804752915725" lon="9.498132880037321"><ele>211.0</ele><time>2026-03-22T13:13:40Z</time></trkpt><trkpt lat="44.82480187904066" lon="9.497976016661372"><ele>211.49999999999997</ele><time>2026-03-22T13:13:41Z</time></trkpt><trkpt lat="44.82479786130942" lon="9.497819117419674"><ele>212.0</ele><time>2026-03-22T13:13:42Z</time></trkpt><trkpt lat="44.82479893713915" lon="9.497685018857991"><ele>212.5</ele><time>2026-03-22T13:13:43Z</time></trkpt><trkpt lat="44.82480339028327" lon="9.497586510314845"><ele>213.0</ele><time>2026-03-22T13:13:44Z</time></trkpt><trkpt lat="44.82483378344818" lon="9.497465438773833"><ele>213.49999999999997</ele><time>2026-03-22T13:13:46Z</time></trkpt><trkpt lat="44.82482747089499" lon="9.49736662920919"><ele>214.0</ele><time>2026-03-22T13:13:48Z</time></trkpt><trkpt lat="44.824763446857986" lon="9.497290141887005"><ele>214.0</ele><time>2026-03-22T13:13:49Z</time></trkpt><trkpt lat="44.82467384732538" lon="9.497165443632095"><ele>214.0</ele><time>2026-03-22T13:13:50Z</time></trkpt><trkpt lat="44.82457445776735" lon="9.497039533340047"><ele>214.0</ele><time>2026-03-22T13:13:51Z</time></trkpt><trkpt lat="44.824486941227214" lon="9.496917139542912"><ele>214.0</ele><time>2026-03-22T13:13:52Z</time></trkpt><trkpt lat="44.824413774409464" lon="9.496778905654526"><ele>213.25</ele><time>2026-03-22T13:13:53Z</time></trkpt><trkpt lat="44.824341909680015" lon="9.496658919100994"><ele>212.5</ele><time>2026-03-22T13:13:54Z</time></trkpt><trkpt lat="44.824260301932824" lon="9.496570635016786"><ele>211.75</ele><time>2026-03-22T13:13:55Z</time></trkpt><trkpt lat="44.82415977545798" lon="9.496455259648782"><ele>211.0</ele><time>2026-03-22T13:13:56Z</time></trkpt><trkpt lat="44.82405377150744" lon="9.49635569686616"><ele>207.66666666666666</ele><time>2026-03-22T13:13:57Z</time></trkpt><trkpt lat="44.823929827844104" lon="9.49627777208081"><ele>204.33333333333331</ele><time>2026-03-22T13:13:58Z</time></trkpt><trkpt lat="44.82377610462593" lon="9.496249226181664"><ele>201.0</ele><time>2026-03-22T13:13:59Z</time></trkpt><trkpt lat="44.82360941904699" lon="9.496289110830292"><ele>198.66666666666669</ele><time>2026-03-22T13:14:00Z</time></trkpt><trkpt lat="44.823458258987685" lon="9.496379947151349"><ele>196.33333333333334</ele><time>2026-03-22T13:14:01Z</time></trkpt><trkpt lat="44.82330033911538" lon="9.496479814955336"><ele>194.0</ele><time>2026-03-22T13:14:02Z</time></trkpt><trkpt lat="44.82317564170959" lon="9.496551503219841"><ele>194.0</ele><time>2026-03-22T13:14:03Z</time></trkpt><trkpt lat="44.82305662233741" lon="9.496591818197276"><ele>194.0</ele><time>2026-03-22T13:14:04Z</time></trkpt><trkpt lat="44.82292218591277" lon="9.49661033862851"><ele>194.0</ele><time>2026-03-22T13:14:05Z</time></trkpt><trkpt lat="44.822788732335134" lon="9.496575183420932"><ele>194.0</ele><time>2026-03-22T13:14:06Z</time></trkpt><trkpt lat="44.82266344724417" lon="9.496523611258617"><ele>194.0</ele><time>2026-03-22T13:14:07Z</time></trkpt><trkpt lat="44.82254410175628" lon="9.496466964049329"><ele>194.0</ele><time>2026-03-22T13:14:08Z</time></trkpt><trkpt lat="44.82242041442066" lon="9.496404112521178"><ele>194.0</ele><time>2026-03-22T13:14:09Z</time></trkpt><trkpt lat="44.82229857515166" lon="9.496342189491214"><ele>194.0</ele><time>2026-03-22T13:14:10Z</time></trkpt><trkpt lat="44.822174137046645" lon="9.496278945674439"><ele>194.0</ele><time>2026-03-22T13:14:11Z</time></trkpt><trkpt lat="44.82207106206476" lon="9.496231181435547"><ele>194.0</ele><time>2026-03-22T13:14:12Z</time></trkpt><trkpt lat="44.82197678498374" lon="9.49619605875293"><ele>194.0</ele><time>2026-03-22T13:14:13Z</time></trkpt><trkpt lat="44.821879988932" lon="9.496189209223022"><ele>194.0</ele><time>2026-03-22T13:14:14Z</time></trkpt><trkpt lat="44.82174147375976" lon="9.496266534216094"><ele>194.0</ele><time>2026-03-22T13:14:15Z</time></trkpt><trkpt lat="44.821617593979184" lon="9.496345572759123"><ele>194.0</ele><time>2026-03-22T13:14:16Z</time></trkpt><trkpt lat="44.82147967780994" lon="9.496437523461474"><ele>194.0</ele><time>2026-03-22T13:14:17Z</time></trkpt><trkpt lat="44.821327080038756" lon="9.496539575406329"><ele>194.0</ele><time>2026-03-22T13:14:18Z</time></trkpt><trkpt lat="44.82119567745011" lon="9.496627546752077"><ele>194.0</ele><time>2026-03-22T13:14:19Z</time></trkpt><trkpt lat="44.821072824160794" lon="9.496708775359538"><ele>194.0</ele><time>2026-03-22T13:14:20Z</time></trkpt><trkpt lat="44.82093786645868" lon="9.496797679923915"><ele>194.0</ele><time>2026-03-22T13:14:21Z</time></trkpt><trkpt lat="44.82080395300457" lon="9.496885922694519"><ele>193.25</ele><time>2026-03-22T13:14:22Z</time></trkpt><trkpt lat="44.82067912983263" lon="9.496970483579886"><ele>192.5</ele><time>2026-03-22T13:14:22.999Z</time></trkpt><trkpt lat="44.82056175986821" lon="9.497049995326872"><ele>191.75</ele><time>2026-03-22T13:14:23.999Z</time></trkpt><trkpt lat="44.82046189503833" lon="9.497119392285585"><ele>191.0</ele><time>2026-03-22T13:14:24.999Z</time></trkpt><trkpt lat="44.82037721679256" lon="9.497178297108938"><ele>191.0</ele><time>2026-03-22T13:14:25.999Z</time></trkpt><trkpt lat="44.82031411752486" lon="9.497222191067621"><ele>191.0</ele><time>2026-03-22T13:14:26.999Z</time></trkpt><trkpt lat="44.820232822182554" lon="9.497276951436703"><ele>191.0</ele><time>2026-03-22T13:14:28.999Z</time></trkpt><trkpt lat="44.82022452871069" lon="9.49761937194703"><ele>191.0</ele><time>2026-03-22T13:14:45.999Z</time></trkpt><trkpt lat="44.82029242946583" lon="9.497822462869467"><ele>191.33333333333331</ele><time>2026-03-22T13:14:46.999Z</time></trkpt><trkpt lat="44.82036614951041" lon="9.498061516197849"><ele>191.66666666666666</ele><time>2026-03-22T13:14:47.999Z</time></trkpt><trkpt lat="44.82044918367753" lon="9.498284983378007"><ele>192.0</ele><time>2026-03-22T13:14:48.999Z</time></trkpt><trkpt lat="44.820492920619884" lon="9.498510679227202"><ele>192.33333333333331</ele><time>2026-03-22T13:14:49.999Z</time></trkpt><trkpt lat="44.820558573916045" lon="9.49875884636793"><ele>192.66666666666666</ele><time>2026-03-22T13:14:50.999Z</time></trkpt><trkpt lat="44.82062257618917" lon="9.499003245793958"><ele>193.0</ele><time>2026-03-22T13:14:51.999Z</time></trkpt><trkpt lat="44.82068513154507" lon="9.499249166080416"><ele>193.0</ele><time>2026-03-22T13:14:52.999Z</time></trkpt><trkpt lat="44.820748427506736" lon="9.499502131837806"><ele>193.0</ele><time>2026-03-22T13:14:53.999Z</time></trkpt><trkpt lat="44.82081383352335" lon="9.499753909112279"><ele>193.0</ele><time>2026-03-22T13:14:54.999Z</time></trkpt><trkpt lat="44.82088542628415" lon="9.500002482382616"><ele>193.0</ele><time>2026-03-22T13:14:55.999Z</time></trkpt><trkpt lat="44.8209604571942" lon="9.500244183102328"><ele>193.0</ele><time>2026-03-22T13:14:56.999Z</time></trkpt><trkpt lat="44.82103107613335" lon="9.500451963477637"><ele>193.0</ele><time>2026-03-22T13:14:57.999Z</time></trkpt><trkpt lat="44.821100929554675" lon="9.500635016820627"><ele>192.75</ele><time>2026-03-22T13:14:58.999Z</time></trkpt><trkpt lat="44.82117493197383" lon="9.500809704368908"><ele>192.5</ele><time>2026-03-22T13:14:59.999Z</time></trkpt><trkpt lat="44.82125849199208" lon="9.500986412650994"><ele>192.25</ele><time>2026-03-22T13:15:00.999Z</time></trkpt><trkpt lat="44.82135190543579" lon="9.501152641667497"><ele>192.0</ele><time>2026-03-22T13:15:01.999Z</time></trkpt><trkpt lat="44.82143991356766" lon="9.501326144702999"><ele>192.0</ele><time>2026-03-22T13:15:02.999Z</time></trkpt><trkpt lat="44.821518520966784" lon="9.501504044609357"><ele>192.0</ele><time>2026-03-22T13:15:03.999Z</time></trkpt><trkpt lat="44.82159759186939" lon="9.501667723809541"><ele>192.0</ele><time>2026-03-22T13:15:04.999Z</time></trkpt><trkpt lat="44.821685370477475" lon="9.501791822752027"><ele>192.0</ele><time>2026-03-22T13:15:05.999Z</time></trkpt><trkpt lat="44.821762881786206" lon="9.501918340231228"><ele>192.39999999999998</ele><time>2026-03-22T13:15:06.999Z</time></trkpt><trkpt lat="44.821819457142965" lon="9.502053991733582"><ele>192.79999999999998</ele><time>2026-03-22T13:15:07.999Z</time></trkpt><trkpt lat="44.821844755119805" lon="9.50220263337907"><ele>193.2</ele><time>2026-03-22T13:15:08.998Z</time></trkpt><trkpt lat="44.82175132344957" lon="9.502337295549655"><ele>193.6</ele><time>2026-03-22T13:15:09.998Z</time></trkpt><trkpt lat="44.82175132344981" lon="9.502453413851201"><ele>194.0</ele><time>2026-03-22T13:15:10.998Z</time></trkpt><trkpt lat="44.821509438001684" lon="9.502463403292836"><ele>194.0</ele><time>2026-03-22T13:15:12.998Z</time></trkpt><trkpt lat="44.82140455132922" lon="9.502535820397215"><ele>194.0</ele><time>2026-03-22T13:15:13.998Z</time></trkpt><trkpt lat="44.8212898168744" lon="9.502614797415662"><ele>194.0</ele><time>2026-03-22T13:15:14.998Z</time></trkpt><trkpt lat="44.82116751021088" lon="9.502689137792327"><ele>194.0</ele><time>2026-03-22T13:15:15.998Z</time></trkpt><trkpt lat="44.82102552392422" lon="9.502755272370287"><ele>194.0</ele><time>2026-03-22T13:15:16.998Z</time></trkpt><trkpt lat="44.820869776999054" lon="9.502833756174462"><ele>194.0</ele><time>2026-03-22T13:15:17.998Z</time></trkpt><trkpt lat="44.82073968108059" lon="9.50291468649992"><ele>194.0</ele><time>2026-03-22T13:15:18.998Z</time></trkpt><trkpt lat="44.820614547938774" lon="9.503000669481695"><ele>194.0</ele><time>2026-03-22T13:15:19.998Z</time></trkpt><trkpt lat="44.82049246364982" lon="9.503086423882014"><ele>194.0</ele><time>2026-03-22T13:15:20.998Z</time></trkpt><trkpt lat="44.820378353964585" lon="9.50316678057083"><ele>194.0</ele><time>2026-03-22T13:15:21.998Z</time></trkpt><trkpt lat="44.82028523573805" lon="9.503233482497352"><ele>194.0</ele><time>2026-03-22T13:15:22.998Z</time></trkpt><trkpt lat="44.82018523057884" lon="9.503306355577994"><ele>194.0</ele><time>2026-03-22T13:15:23.998Z</time></trkpt><trkpt lat="44.820122177714616" lon="9.503352301788071"><ele>194.0</ele><time>2026-03-22T13:15:25.998Z</time></trkpt><trkpt lat="44.82006588796844" lon="9.503393319737546"><ele>195.42857142857142</ele><time>2026-03-22T13:15:31.998Z</time></trkpt><trkpt lat="44.820003306667715" lon="9.503438922390451"><ele>196.85714285714286</ele><time>2026-03-22T13:15:35.998Z</time></trkpt><trkpt lat="44.81996374117616" lon="9.503366942389526"><ele>198.28571428571428</ele><time>2026-03-22T13:17:52Z</time></trkpt><trkpt lat="44.81990732423247" lon="9.503314149468155"><ele>199.71428571428572</ele><time>2026-03-22T13:57:35.998Z</time></trkpt><trkpt lat="44.819942449035864" lon="9.503389570473239"><ele>201.14285714285717</ele><time>2026-03-22T14:06:36.999Z</time></trkpt><trkpt lat="44.81988125440895" lon="9.5034396574354"><ele>202.57142857142858</ele><time>2026-03-22T14:07:25.998Z</time></trkpt><trkpt lat="44.81998352509423" lon="9.503440083622781"><ele>204.0</ele><time>2026-03-22T14:08:29Z</time></trkpt><trkpt lat="44.820098199271605" lon="9.503445773134095"><ele>202.0</ele><time>2026-03-22T14:17:20.999Z</time></trkpt><trkpt lat="44.82021224577599" lon="9.503383736487493"><ele>200.0</ele><time>2026-03-22T14:17:22.999Z</time></trkpt><trkpt lat="44.82028981615897" lon="9.503336993279484"><ele>198.0</ele><time>2026-03-22T14:17:23.999Z</time></trkpt><trkpt lat="44.820371830157924" lon="9.503276555917225"><ele>196.0</ele><time>2026-03-22T14:17:24.999Z</time></trkpt><trkpt lat="44.820455533861846" lon="9.50319081606319"><ele>194.0</ele><time>2026-03-22T14:17:25.999Z</time></trkpt><trkpt lat="44.82054694223411" lon="9.503126609032778"><ele>194.0</ele><time>2026-03-22T14:17:26.999Z</time></trkpt><trkpt lat="44.82062955038814" lon="9.503068583446677"><ele>194.0</ele><time>2026-03-22T14:17:27.999Z</time></trkpt><trkpt lat="44.82072368062354" lon="9.503003257086588"><ele>194.0</ele><time>2026-03-22T14:17:28.999Z</time></trkpt><trkpt lat="44.82082940137899" lon="9.502934473351576"><ele>194.0</ele><time>2026-03-22T14:17:29.999Z</time></trkpt><trkpt lat="44.82093392006945" lon="9.502896582397328"><ele>194.0</ele><time>2026-03-22T14:17:30.999Z</time></trkpt><trkpt lat="44.82102093254087" lon="9.502838451356197"><ele>194.0</ele><time>2026-03-22T14:17:31.999Z</time></trkpt><trkpt lat="44.821104288652826" lon="9.50280346194043"><ele>194.0</ele><time>2026-03-22T14:17:32.999Z</time></trkpt><trkpt lat="44.82119239874651" lon="9.502755698867936"><ele>194.0</ele><time>2026-03-22T14:17:33.999Z</time></trkpt><trkpt lat="44.82129810843176" lon="9.502700822483286"><ele>194.0</ele><time>2026-03-22T14:17:34.999Z</time></trkpt><trkpt lat="44.8214159291372" lon="9.502629254666834"><ele>194.0</ele><time>2026-03-22T14:17:35.999Z</time></trkpt><trkpt lat="44.82153049186171" lon="9.50255268351706"><ele>194.00000000000003</ele><time>2026-03-22T14:17:36.999Z</time></trkpt><trkpt lat="44.82163012659931" lon="9.50247898584075"><ele>194.0</ele><time>2026-03-22T14:17:37.999Z</time></trkpt><trkpt lat="44.82171177196733" lon="9.502416453731135"><ele>194.0</ele><time>2026-03-22T14:17:38.999Z</time></trkpt><trkpt lat="44.82176728946282" lon="9.502330930648702"><ele>194.0</ele><time>2026-03-22T14:17:39.999Z</time></trkpt><trkpt lat="44.821824864912074" lon="9.502270922180326"><ele>194.00000000000003</ele><time>2026-03-22T14:17:40.999Z</time></trkpt><trkpt lat="44.82189679736443" lon="9.502271319353428"><ele>194.0</ele><time>2026-03-22T14:17:41.999Z</time></trkpt><trkpt lat="44.82195369087058" lon="9.502190136617948"><ele>193.6</ele><time>2026-03-22T14:17:43.999Z</time></trkpt><trkpt lat="44.82193949204533" lon="9.502027362212804"><ele>193.2</ele><time>2026-03-22T14:17:48.998Z</time></trkpt><trkpt lat="44.821966943440316" lon="9.501919881592237"><ele>192.79999999999998</ele><time>2026-03-22T14:17:50.998Z</time></trkpt><trkpt lat="44.82186058290228" lon="9.501807511528176"><ele>192.39999999999998</ele><time>2026-03-22T14:17:51.998Z</time></trkpt><trkpt lat="44.82180907741521" lon="9.501734528872145"><ele>192.0</ele><time>2026-03-22T14:17:53.998Z</time></trkpt><trkpt lat="44.82175549197143" lon="9.501641091347558"><ele>192.0</ele><time>2026-03-22T14:17:56.998Z</time></trkpt><trkpt lat="44.82171129817698" lon="9.501577099710104"><ele>192.0</ele><time>2026-03-22T14:17:59.998Z</time></trkpt><trkpt lat="44.8216555329602" lon="9.501502893420092"><ele>192.0</ele><time>2026-03-22T14:18:06.998Z</time></trkpt><trkpt lat="44.821603945742126" lon="9.501430294732474"><ele>192.0</ele><time>2026-03-22T14:18:11.998Z</time></trkpt><trkpt lat="44.821527848083356" lon="9.501321781062504"><ele>192.0</ele><time>2026-03-22T14:18:14.998Z</time></trkpt><trkpt lat="44.82147868099201" lon="9.501241673946565"><ele>192.0</ele><time>2026-03-22T14:18:15.998Z</time></trkpt><trkpt lat="44.821422933579925" lon="9.501143518839251"><ele>191.39999999999998</ele><time>2026-03-22T14:18:16.998Z</time></trkpt><trkpt lat="44.82137011937321" lon="9.501038242826452"><ele>190.79999999999998</ele><time>2026-03-22T14:18:17.998Z</time></trkpt><trkpt lat="44.821311356342974" lon="9.500922772006142"><ele>190.2</ele><time>2026-03-22T14:18:18.998Z</time></trkpt><trkpt lat="44.82125080259736" lon="9.500796831479143"><ele>189.6</ele><time>2026-03-22T14:18:19.998Z</time></trkpt><trkpt lat="44.82118949612491" lon="9.500660320217005"><ele>189.0</ele><time>2026-03-22T14:18:20.998Z</time></trkpt><trkpt lat="44.82113171373551" lon="9.5005195835535"><ele>188.5</ele><time>2026-03-22T14:18:21.998Z</time></trkpt><trkpt lat="44.82107429398864" lon="9.50037150534398"><ele>188.0</ele><time>2026-03-22T14:18:22.998Z</time></trkpt><trkpt lat="44.82101243882945" lon="9.500209677141834"><ele>187.5</ele><time>2026-03-22T14:18:23.998Z</time></trkpt><trkpt lat="44.82095669900751" lon="9.50003414770911"><ele>187.0</ele><time>2026-03-22T14:18:24.998Z</time></trkpt><trkpt lat="44.82091056417644" lon="9.499860457143622"><ele>188.5</ele><time>2026-03-22T14:18:25.998Z</time></trkpt><trkpt lat="44.82086315821433" lon="9.499676538269982"><ele>190.0</ele><time>2026-03-22T14:18:26.998Z</time></trkpt><trkpt lat="44.82081555851934" lon="9.49948355624218"><ele>191.5</ele><time>2026-03-22T14:18:27.998Z</time></trkpt><trkpt lat="44.820765532046" lon="9.499291621114672"><ele>193.0</ele><time>2026-03-22T14:18:28.998Z</time></trkpt><trkpt lat="44.82071425229027" lon="9.499090001971089"><ele>193.0</ele><time>2026-03-22T14:18:29.998Z</time></trkpt><trkpt lat="44.82066132858888" lon="9.498889015902213"><ele>193.0</ele><time>2026-03-22T14:18:30.998Z</time></trkpt><trkpt lat="44.82060787219699" lon="9.498685836885649"><ele>193.0</ele><time>2026-03-22T14:18:31.998Z</time></trkpt><trkpt lat="44.820555260943514" lon="9.498473242287698"><ele>192.66666666666666</ele><time>2026-03-22T14:18:32.998Z</time></trkpt><trkpt lat="44.82050232125055" lon="9.498260724694306"><ele>192.33333333333331</ele><time>2026-03-22T14:18:33.998Z</time></trkpt><trkpt lat="44.82044561259207" lon="9.498042560647662"><ele>192.0</ele><time>2026-03-22T14:18:34.998Z</time></trkpt><trkpt lat="44.82038163383717" lon="9.49783282971878"><ele>191.66666666666666</ele><time>2026-03-22T14:18:36Z</time></trkpt><trkpt lat="44.820307746902664" lon="9.49761339654774"><ele>191.33333333333331</ele><time>2026-03-22T14:18:37Z</time></trkpt><trkpt lat="44.820232824850734" lon="9.497403410187447"><ele>191.0</ele><time>2026-03-22T14:18:38Z</time></trkpt><trkpt lat="44.82015614976942" lon="9.497182313010171"><ele>193.33333333333331</ele><time>2026-03-22T14:18:39Z</time></trkpt><trkpt lat="44.82008151994746" lon="9.496961573506429"><ele>195.66666666666666</ele><time>2026-03-22T14:18:40Z</time></trkpt><trkpt lat="44.8200075139289" lon="9.496739815984009"><ele>198.0</ele><time>2026-03-22T14:18:41Z</time></trkpt><trkpt lat="44.81993157257091" lon="9.496511642130779"><ele>198.0</ele><time>2026-03-22T14:18:42Z</time></trkpt><trkpt lat="44.81985871454009" lon="9.496278770588672"><ele>198.0</ele><time>2026-03-22T14:18:43Z</time></trkpt><trkpt lat="44.819790141717846" lon="9.496050155517677"><ele>198.0</ele><time>2026-03-22T14:18:44Z</time></trkpt><trkpt lat="44.81971847741461" lon="9.495812341528552"><ele>196.33333333333331</ele><time>2026-03-22T14:18:45Z</time></trkpt><trkpt lat="44.819651925875455" lon="9.495579688753633"><ele>194.66666666666666</ele><time>2026-03-22T14:18:46Z</time></trkpt><trkpt lat="44.81958086862648" lon="9.49534092930524"><ele>193.0</ele><time>2026-03-22T14:18:47Z</time></trkpt><trkpt lat="44.81951346457574" lon="9.49510796349327"><ele>192.0</ele><time>2026-03-22T14:18:48Z</time></trkpt><trkpt lat="44.81944502518101" lon="9.494863612481742"><ele>191.0</ele><time>2026-03-22T14:18:49Z</time></trkpt><trkpt lat="44.819375965534" lon="9.494623560689476"><ele>190.0</ele><time>2026-03-22T14:18:50Z</time></trkpt><trkpt lat="44.819309811872884" lon="9.494381039448871"><ele>191.33333333333334</ele><time>2026-03-22T14:18:51Z</time></trkpt><trkpt lat="44.81924585927843" lon="9.494138802215979"><ele>192.66666666666669</ele><time>2026-03-22T14:18:52Z</time></trkpt><trkpt lat="44.81918630282251" lon="9.493892893055893"><ele>194.0</ele><time>2026-03-22T14:18:53Z</time></trkpt><trkpt lat="44.819133675380684" lon="9.493646886561939"><ele>194.0</ele><time>2026-03-22T14:18:54Z</time></trkpt><trkpt lat="44.819090190117784" lon="9.493399293531866"><ele>194.0</ele><time>2026-03-22T14:18:55Z</time></trkpt><trkpt lat="44.81905711311282" lon="9.493142836285521"><ele>194.0</ele><time>2026-03-22T14:18:56Z</time></trkpt><trkpt lat="44.81902871881196" lon="9.492883852392508"><ele>194.0</ele><time>2026-03-22T14:18:57Z</time></trkpt><trkpt lat="44.819005642293945" lon="9.492622446814542"><ele>194.0</ele><time>2026-03-22T14:18:58Z</time></trkpt><trkpt lat="44.81898818524019" lon="9.492359908761381"><ele>194.0</ele><time>2026-03-22T14:18:59Z</time></trkpt><trkpt lat="44.81897783703457" lon="9.492095802287215"><ele>194.0</ele><time>2026-03-22T14:19:00Z</time></trkpt><trkpt lat="44.818969626963515" lon="9.491817546790164"><ele>194.0</ele><time>2026-03-22T14:19:01Z</time></trkpt><trkpt lat="44.818966932103834" lon="9.491551449247927"><ele>194.0</ele><time>2026-03-22T14:19:02Z</time></trkpt><trkpt lat="44.81896153590318" lon="9.491280068630099"><ele>194.33333333333334</ele><time>2026-03-22T14:19:03Z</time></trkpt><trkpt lat="44.81895372136193" lon="9.491007292577084"><ele>194.66666666666669</ele><time>2026-03-22T14:19:04Z</time></trkpt><trkpt lat="44.818945320589535" lon="9.490740953809109"><ele>195.0</ele><time>2026-03-22T14:19:05Z</time></trkpt><trkpt lat="44.818935134870806" lon="9.490466410067834"><ele>195.0</ele><time>2026-03-22T14:19:06Z</time></trkpt><trkpt lat="44.81892834714453" lon="9.490202716384166"><ele>195.0</ele><time>2026-03-22T14:19:07Z</time></trkpt><trkpt lat="44.818920453986344" lon="9.489921277754014"><ele>195.0</ele><time>2026-03-22T14:19:08Z</time></trkpt><trkpt lat="44.81891466740959" lon="9.489647207210883"><ele>195.0</ele><time>2026-03-22T14:19:09Z</time></trkpt><trkpt lat="44.81890778243755" lon="9.489366806823318"><ele>195.0</ele><time>2026-03-22T14:19:10Z</time></trkpt><trkpt lat="44.81889877083169" lon="9.489089507158871"><ele>195.0</ele><time>2026-03-22T14:19:11Z</time></trkpt><trkpt lat="44.818890784366495" lon="9.488811384961922"><ele>194.66666666666669</ele><time>2026-03-22T14:19:12Z</time></trkpt><trkpt lat="44.818886384177894" lon="9.48853352660655"><ele>194.33333333333334</ele><time>2026-03-22T14:19:13Z</time></trkpt><trkpt lat="44.818877157883215" lon="9.488248261831389"><ele>194.0</ele><time>2026-03-22T14:19:14Z</time></trkpt><trkpt lat="44.81887071174278" lon="9.487965791585026"><ele>194.66666666666669</ele><time>2026-03-22T14:19:15Z</time></trkpt><trkpt lat="44.81886571294655" lon="9.487683097204952"><ele>195.33333333333331</ele><time>2026-03-22T14:19:16Z</time></trkpt><trkpt lat="44.81886071943729" lon="9.487401603812932"><ele>196.0</ele><time>2026-03-22T14:19:17Z</time></trkpt><trkpt lat="44.81885237617083" lon="9.487119674567321"><ele>196.66666666666666</ele><time>2026-03-22T14:19:18Z</time></trkpt><trkpt lat="44.81884053482495" lon="9.486837068802258"><ele>197.33333333333331</ele><time>2026-03-22T14:19:19Z</time></trkpt><trkpt lat="44.818818070656164" lon="9.486559745085668"><ele>198.0</ele><time>2026-03-22T14:19:20Z</time></trkpt><trkpt lat="44.81877791504272" lon="9.486282501792804"><ele>198.33333333333331</ele><time>2026-03-22T14:19:21Z</time></trkpt><trkpt lat="44.818721227830196" lon="9.486007735579854"><ele>198.66666666666666</ele><time>2026-03-22T14:19:22Z</time></trkpt><trkpt lat="44.81865732180605" lon="9.485753816525444"><ele>199.0</ele><time>2026-03-22T14:19:23Z</time></trkpt><trkpt lat="44.81857459261217" lon="9.485494778269043"><ele>200.33333333333331</ele><time>2026-03-22T14:19:24Z</time></trkpt><trkpt lat="44.81848499913984" lon="9.48524720874025"><ele>201.66666666666669</ele><time>2026-03-22T14:19:25Z</time></trkpt><trkpt lat="44.81838949255258" lon="9.484998820843437"><ele>203.0</ele><time>2026-03-22T14:19:26Z</time></trkpt><trkpt lat="44.81829510673116" lon="9.484748813134068"><ele>209.33333333333334</ele><time>2026-03-22T14:19:27Z</time></trkpt><trkpt lat="44.818208587863786" lon="9.484503110579496"><ele>215.66666666666669</ele><time>2026-03-22T14:19:28Z</time></trkpt><trkpt lat="44.81812249478206" lon="9.484257765858978"><ele>222.0</ele><time>2026-03-22T14:19:29Z</time></trkpt><trkpt lat="44.81804244035448" lon="9.484009156506843"><ele>222.0</ele><time>2026-03-22T14:19:30Z</time></trkpt><trkpt lat="44.817959574322394" lon="9.483773132879541"><ele>222.0</ele><time>2026-03-22T14:19:31Z</time></trkpt><trkpt lat="44.817872489804195" lon="9.48350754742251"><ele>222.0</ele><time>2026-03-22T14:19:32Z</time></trkpt><trkpt lat="44.817787077895474" lon="9.48325246494909"><ele>220.66666666666669</ele><time>2026-03-22T14:19:33Z</time></trkpt><trkpt lat="44.81771130724028" lon="9.483015176098183"><ele>219.33333333333334</ele><time>2026-03-22T14:19:34.079Z</time></trkpt><trkpt lat="44.817641944953884" lon="9.48282185673004"><ele>218.0</ele><time>2026-03-22T14:19:35.069Z</time></trkpt><trkpt lat="44.81754669145174" lon="9.482604616008912"><ele>216.5</ele><time>2026-03-22T14:19:36.056Z</time></trkpt><trkpt lat="44.81743864960168" lon="9.482311969279785"><ele>215.0</ele><time>2026-03-22T14:19:37.039Z</time></trkpt><trkpt lat="44.81717913778342" lon="9.481790770383457"><ele>211.33333333333334</ele><time>2026-03-22T14:19:39Z</time></trkpt><trkpt lat="44.81708389606009" lon="9.481543810986949"><ele>207.66666666666669</ele><time>2026-03-22T14:19:40Z</time></trkpt><trkpt lat="44.81700406727435" lon="9.481296510160387"><ele>204.0</ele><time>2026-03-22T14:19:41Z</time></trkpt><trkpt lat="44.816936725730486" lon="9.481035214414302"><ele>205.0</ele><time>2026-03-22T14:19:42Z</time></trkpt><trkpt lat="44.816872309459406" lon="9.480775205009925"><ele>206.0</ele><time>2026-03-22T14:19:42.999Z</time></trkpt><trkpt lat="44.81682387825917" lon="9.480506124737152"><ele>207.0</ele><time>2026-03-22T14:19:43.999Z</time></trkpt><trkpt lat="44.81677261031764" lon="9.480233662296955"><ele>207.0</ele><time>2026-03-22T14:19:44.999Z</time></trkpt><trkpt lat="44.81673556625379" lon="9.479964398346997"><ele>207.0</ele><time>2026-03-22T14:19:45.999Z</time></trkpt><trkpt lat="44.816706177071865" lon="9.479683307257373"><ele>207.0</ele><time>2026-03-22T14:19:46.999Z</time></trkpt><trkpt lat="44.81668695089329" lon="9.479402613173324"><ele>207.66666666666669</ele><time>2026-03-22T14:19:47.999Z</time></trkpt><trkpt lat="44.816677145496634" lon="9.479124956475642"><ele>208.33333333333334</ele><time>2026-03-22T14:19:48.999Z</time></trkpt><trkpt lat="44.81667542920658" lon="9.478857650902063"><ele>209.0</ele><time>2026-03-22T14:19:49.999Z</time></trkpt><trkpt lat="44.81667555724937" lon="9.478586653223914"><ele>209.33333333333334</ele><time>2026-03-22T14:19:50.999Z</time></trkpt><trkpt lat="44.81667695571625" lon="9.478318054304856"><ele>209.66666666666669</ele><time>2026-03-22T14:19:51.999Z</time></trkpt><trkpt lat="44.81667739587791" lon="9.478050151146016"><ele>210.0</ele><time>2026-03-22T14:19:52.999Z</time></trkpt><trkpt lat="44.81667986004812" lon="9.47778283365708"><ele>210.33333333333331</ele><time>2026-03-22T14:19:53.999Z</time></trkpt><trkpt lat="44.81667727127679" lon="9.47751307496659"><ele>210.66666666666666</ele><time>2026-03-22T14:19:54.999Z</time></trkpt><trkpt lat="44.816677782798216" lon="9.477245301699588"><ele>211.0</ele><time>2026-03-22T14:19:55.999Z</time></trkpt><trkpt lat="44.8166781640089" lon="9.476974048316904"><ele>212.66666666666666</ele><time>2026-03-22T14:19:56.999Z</time></trkpt><trkpt lat="44.81667972280844" lon="9.47670313418803"><ele>214.33333333333331</ele><time>2026-03-22T14:19:57.999Z</time></trkpt><trkpt lat="44.81668317278501" lon="9.476431139885758"><ele>216.0</ele><time>2026-03-22T14:19:58.999Z</time></trkpt><trkpt lat="44.81668343367284" lon="9.476152590322478"><ele>217.66666666666669</ele><time>2026-03-22T14:19:59.999Z</time></trkpt><trkpt lat="44.81668490867227" lon="9.475877402902867"><ele>219.33333333333334</ele><time>2026-03-22T14:20:00.999Z</time></trkpt><trkpt lat="44.81668529384584" lon="9.47560132207192"><ele>221.0</ele><time>2026-03-22T14:20:01.999Z</time></trkpt><trkpt lat="44.816683478711006" lon="9.47532497094203"><ele>222.33333333333334</ele><time>2026-03-22T14:20:02.999Z</time></trkpt><trkpt lat="44.81668286903874" lon="9.475063427567806"><ele>223.66666666666669</ele><time>2026-03-22T14:20:03.998Z</time></trkpt><trkpt lat="44.816680291267645" lon="9.474823649097"><ele>225.0</ele><time>2026-03-22T14:20:04.998Z</time></trkpt><trkpt lat="44.816684902138945" lon="9.474578395110468"><ele>226.0</ele><time>2026-03-22T14:20:05.998Z</time></trkpt><trkpt lat="44.816690916023425" lon="9.474330366292053"><ele>227.0</ele><time>2026-03-22T14:20:06.998Z</time></trkpt><trkpt lat="44.816701646820434" lon="9.47409233777588"><ele>228.0</ele><time>2026-03-22T14:20:07.998Z</time></trkpt><trkpt lat="44.816709517502005" lon="9.473868516555319"><ele>228.0</ele><time>2026-03-22T14:20:08.998Z</time></trkpt><trkpt lat="44.81671536009247" lon="9.47365897863632"><ele>228.0</ele><time>2026-03-22T14:20:09.998Z</time></trkpt><trkpt lat="44.81672514874409" lon="9.47346777741824"><ele>228.0</ele><time>2026-03-22T14:20:10.998Z</time></trkpt><trkpt lat="44.81674171635855" lon="9.473293507525373"><ele>228.0</ele><time>2026-03-22T14:20:11.998Z</time></trkpt><trkpt lat="44.816774365295714" lon="9.473125820127311"><ele>226.33333333333331</ele><time>2026-03-22T14:20:12.998Z</time></trkpt><trkpt lat="44.81680715655753" lon="9.472925970163063"><ele>224.66666666666666</ele><time>2026-03-22T14:20:13.998Z</time></trkpt><trkpt lat="44.816909366112526" lon="9.472726839731179"><ele>223.0</ele><time>2026-03-22T14:20:14.998Z</time></trkpt><trkpt lat="44.81698551529181" lon="9.472501500607768"><ele>223.0</ele><time>2026-03-22T14:20:15.998Z</time></trkpt><trkpt lat="44.817122451208455" lon="9.472324220156901"><ele>223.0</ele><time>2026-03-22T14:20:16.998Z</time></trkpt><trkpt lat="44.81724578872732" lon="9.472161369517844"><ele>223.0</ele><time>2026-03-22T14:20:17.998Z</time></trkpt><trkpt lat="44.817362640220246" lon="9.472024351694253"><ele>225.0</ele><time>2026-03-22T14:20:18.998Z</time></trkpt><trkpt lat="44.817466471273455" lon="9.471874810700287"><ele>227.0</ele><time>2026-03-22T14:20:19.998Z</time></trkpt><trkpt lat="44.81754317498209" lon="9.471700130261253"><ele>229.0</ele><time>2026-03-22T14:20:20.998Z</time></trkpt><trkpt lat="44.81760048903121" lon="9.471504838210958"><ele>231.0</ele><time>2026-03-22T14:20:21.998Z</time></trkpt><trkpt lat="44.817638997814896" lon="9.471285858998943"><ele>232.0</ele><time>2026-03-22T14:20:22.998Z</time></trkpt><trkpt lat="44.81765402826429" lon="9.471067377246841"><ele>233.0</ele><time>2026-03-22T14:20:23.998Z</time></trkpt><trkpt lat="44.81765429859622" lon="9.470831830398287"><ele>234.0</ele><time>2026-03-22T14:20:24.998Z</time></trkpt><trkpt lat="44.8176301651187" lon="9.470578034623157"><ele>232.66666666666669</ele><time>2026-03-22T14:20:25.998Z</time></trkpt><trkpt lat="44.8175844098905" lon="9.470332020287042"><ele>231.33333333333334</ele><time>2026-03-22T14:20:26.998Z</time></trkpt><trkpt lat="44.817527166642854" lon="9.470086361625945"><ele>230.0</ele><time>2026-03-22T14:20:27.998Z</time></trkpt><trkpt lat="44.81747345869524" lon="9.46982976476287"><ele>226.66666666666669</ele><time>2026-03-22T14:20:28.998Z</time></trkpt><trkpt lat="44.81742255471043" lon="9.469563914954783"><ele>223.33333333333331</ele><time>2026-03-22T14:20:29.998Z</time></trkpt><trkpt lat="44.81737370343832" lon="9.469298108975389"><ele>220.0</ele><time>2026-03-22T14:20:30.998Z</time></trkpt><trkpt lat="44.81732209849775" lon="9.469026666145727"><ele>219.33333333333331</ele><time>2026-03-22T14:20:31.998Z</time></trkpt><trkpt lat="44.817269866189186" lon="9.468751952503618"><ele>218.66666666666669</ele><time>2026-03-22T14:20:32.998Z</time></trkpt><trkpt lat="44.817215323263355" lon="9.468472320552829"><ele>218.0</ele><time>2026-03-22T14:20:33.998Z</time></trkpt><trkpt lat="44.81715810101283" lon="9.468194326368883"><ele>217.66666666666669</ele><time>2026-03-22T14:20:34.998Z</time></trkpt><trkpt lat="44.817096874699246" lon="9.467909106850135"><ele>217.33333333333331</ele><time>2026-03-22T14:20:35.998Z</time></trkpt><trkpt lat="44.81703189574256" lon="9.467628247135263"><ele>217.0</ele><time>2026-03-22T14:20:36.998Z</time></trkpt><trkpt lat="44.81695562337879" lon="9.467343166380918"><ele>214.66666666666666</ele><time>2026-03-22T14:20:37.998Z</time></trkpt><trkpt lat="44.816865105336746" lon="9.46706231331224"><ele>212.33333333333331</ele><time>2026-03-22T14:20:38.998Z</time></trkpt><trkpt lat="44.81676203940031" lon="9.466789240760434"><ele>210.0</ele><time>2026-03-22T14:20:39.998Z</time></trkpt><trkpt lat="44.816650248484784" lon="9.466527145619297"><ele>213.0</ele><time>2026-03-22T14:20:41Z</time></trkpt><trkpt lat="44.816539301478215" lon="9.466266295606841"><ele>216.0</ele><time>2026-03-22T14:20:42Z</time></trkpt><trkpt lat="44.81642671623985" lon="9.46600927593731"><ele>219.0</ele><time>2026-03-22T14:20:43Z</time></trkpt><trkpt lat="44.816309312763565" lon="9.465749557571044"><ele>219.0</ele><time>2026-03-22T14:20:44Z</time></trkpt><trkpt lat="44.816212287467906" lon="9.465485272106502"><ele>219.0</ele><time>2026-03-22T14:20:45Z</time></trkpt><trkpt lat="44.81614306825223" lon="9.465190841520702"><ele>219.0</ele><time>2026-03-22T14:20:46Z</time></trkpt><trkpt lat="44.81611436430306" lon="9.464885773866643"><ele>216.33333333333331</ele><time>2026-03-22T14:20:47Z</time></trkpt><trkpt lat="44.816104145802996" lon="9.464583310691431"><ele>213.66666666666666</ele><time>2026-03-22T14:20:48Z</time></trkpt><trkpt lat="44.81608330426062" lon="9.464278403534056"><ele>211.0</ele><time>2026-03-22T14:20:49Z</time></trkpt><trkpt lat="44.81604964922686" lon="9.463977221137256"><ele>211.66666666666666</ele><time>2026-03-22T14:20:50Z</time></trkpt><trkpt lat="44.81601049060872" lon="9.463671340720875"><ele>212.33333333333331</ele><time>2026-03-22T14:20:51Z</time></trkpt><trkpt lat="44.815970612051714" lon="9.463372653607843"><ele>213.0</ele><time>2026-03-22T14:20:52Z</time></trkpt><trkpt lat="44.815925876349766" lon="9.463075559296861"><ele>218.33333333333331</ele><time>2026-03-22T14:20:53Z</time></trkpt><trkpt lat="44.81587789451833" lon="9.462773739187066"><ele>223.66666666666666</ele><time>2026-03-22T14:20:54Z</time></trkpt><trkpt lat="44.815827168682596" lon="9.46248137994223"><ele>229.0</ele><time>2026-03-22T14:20:55Z</time></trkpt><trkpt lat="44.815776063488265" lon="9.462188351698456"><ele>228.0</ele><time>2026-03-22T14:20:56Z</time></trkpt><trkpt lat="44.815719890300784" lon="9.461893155875117"><ele>227.0</ele><time>2026-03-22T14:20:57Z</time></trkpt><trkpt lat="44.815669710097154" lon="9.46159707369213"><ele>226.0</ele><time>2026-03-22T14:20:58Z</time></trkpt><trkpt lat="44.815637164004585" lon="9.46129709647171"><ele>225.33333333333331</ele><time>2026-03-22T14:20:59Z</time></trkpt><trkpt lat="44.815617185895285" lon="9.4609910736457"><ele>224.66666666666669</ele><time>2026-03-22T14:21:00Z</time></trkpt><trkpt lat="44.815597301270664" lon="9.460690896389375"><ele>224.0</ele><time>2026-03-22T14:21:01Z</time></trkpt><trkpt lat="44.815572422510705" lon="9.460392044827058"><ele>223.66666666666669</ele><time>2026-03-22T14:21:02Z</time></trkpt><trkpt lat="44.81554541231464" lon="9.46009158329038"><ele>223.33333333333331</ele><time>2026-03-22T14:21:03Z</time></trkpt><trkpt lat="44.815520011856414" lon="9.459786774064638"><ele>223.0</ele><time>2026-03-22T14:21:04Z</time></trkpt><trkpt lat="44.81549351080019" lon="9.459487212763236"><ele>223.0</ele><time>2026-03-22T14:21:05Z</time></trkpt><trkpt lat="44.8154668304682" lon="9.459215161512454"><ele>223.0</ele><time>2026-03-22T14:21:06Z</time></trkpt><trkpt lat="44.81543903116062" lon="9.45898472933182"><ele>223.0</ele><time>2026-03-22T14:21:07Z</time></trkpt><trkpt lat="44.81540438726682" lon="9.458798478366147"><ele>222.83333333333331</ele><time>2026-03-22T14:21:08Z</time></trkpt><trkpt lat="44.815362541115235" lon="9.45866050189153"><ele>222.66666666666666</ele><time>2026-03-22T14:21:09Z</time></trkpt><trkpt lat="44.81532704540974" lon="9.45857049052904"><ele>222.5</ele><time>2026-03-22T14:21:10Z</time></trkpt><trkpt lat="44.8152753110785" lon="9.458423564319034"><ele>222.33333333333331</ele><time>2026-03-22T14:21:29.999Z</time></trkpt><trkpt lat="44.81524354778189" lon="9.458323779862951"><ele>222.16666666666666</ele><time>2026-03-22T14:21:30.999Z</time></trkpt><trkpt lat="44.81521569890964" lon="9.458237890869146"><ele>222.0</ele><time>2026-03-22T14:21:31.999Z</time></trkpt><trkpt lat="44.815177522227664" lon="9.458134733117681"><ele>222.66666666666666</ele><time>2026-03-22T14:21:33.999Z</time></trkpt><trkpt lat="44.81513081580415" lon="9.458027054248006"><ele>223.33333333333331</ele><time>2026-03-22T14:22:00.999Z</time></trkpt><trkpt lat="44.815101453366054" lon="9.45793642158068"><ele>224.0</ele><time>2026-03-22T14:22:01.999Z</time></trkpt><trkpt lat="44.81507497025674" lon="9.457842040914963"><ele>224.66666666666666</ele><time>2026-03-22T14:22:02.999Z</time></trkpt><trkpt lat="44.815043271771614" lon="9.457745708645373"><ele>225.33333333333331</ele><time>2026-03-22T14:22:03.999Z</time></trkpt><trkpt lat="44.814993373582375" lon="9.457631168976713"><ele>226.0</ele><time>2026-03-22T14:22:04.999Z</time></trkpt><trkpt lat="44.814935930351695" lon="9.457511231469669"><ele>226.0</ele><time>2026-03-22T14:22:05.999Z</time></trkpt><trkpt lat="44.814875641214776" lon="9.45738017172792"><ele>226.0</ele><time>2026-03-22T14:22:06.999Z</time></trkpt><trkpt lat="44.81480772248358" lon="9.45722808781328"><ele>226.0</ele><time>2026-03-22T14:22:07.999Z</time></trkpt><trkpt lat="44.81473445424561" lon="9.457057908218747"><ele>226.0</ele><time>2026-03-22T14:22:08.999Z</time></trkpt><trkpt lat="44.8146568203514" lon="9.456882892725332"><ele>224.0</ele><time>2026-03-22T14:22:09.999Z</time></trkpt><trkpt lat="44.81456570399568" lon="9.456675858770916"><ele>222.0</ele><time>2026-03-22T14:22:10.999Z</time></trkpt><trkpt lat="44.814445777513846" lon="9.456410972237883"><ele>220.0</ele><time>2026-03-22T14:22:11.999Z</time></trkpt><trkpt lat="44.81431185676142" lon="9.456109105426767"><ele>220.0</ele><time>2026-03-22T14:22:12.999Z</time></trkpt><trkpt lat="44.81417023240507" lon="9.455825577460939"><ele>220.0</ele><time>2026-03-22T14:22:13.999Z</time></trkpt><trkpt lat="44.81405590253801" lon="9.455555310372175"><ele>218.33333333333331</ele><time>2026-03-22T14:22:14.999Z</time></trkpt><trkpt lat="44.813950274447116" lon="9.455323275610382"><ele>216.66666666666669</ele><time>2026-03-22T14:22:15.999Z</time></trkpt><trkpt lat="44.81386789156051" lon="9.45510532704113"><ele>215.0</ele><time>2026-03-22T14:22:16.999Z</time></trkpt><trkpt lat="44.813759506048186" lon="9.454891152390486"><ele>215.0</ele><time>2026-03-22T14:22:17.999Z</time></trkpt><trkpt lat="44.81366919941285" lon="9.454693328053311"><ele>215.0</ele><time>2026-03-22T14:22:18.999Z</time></trkpt><trkpt lat="44.81358729916975" lon="9.454512186221327"><ele>215.0</ele><time>2026-03-22T14:22:19.999Z</time></trkpt><trkpt lat="44.81349747163408" lon="9.454300473803075"><ele>214.66666666666669</ele><time>2026-03-22T14:22:20.999Z</time></trkpt><trkpt lat="44.81339988700167" lon="9.454081759270357"><ele>214.33333333333331</ele><time>2026-03-22T14:22:21.999Z</time></trkpt><trkpt lat="44.813291885860906" lon="9.453844393595977"><ele>214.0</ele><time>2026-03-22T14:22:22.999Z</time></trkpt><trkpt lat="44.8131853057974" lon="9.453606725540293"><ele>214.0</ele><time>2026-03-22T14:22:23.999Z</time></trkpt><trkpt lat="44.8130753579412" lon="9.453362724722385"><ele>214.0</ele><time>2026-03-22T14:22:24.999Z</time></trkpt><trkpt lat="44.812961092591706" lon="9.453107247099718"><ele>214.0</ele><time>2026-03-22T14:22:25.999Z</time></trkpt><trkpt lat="44.81284688979213" lon="9.452851694070933"><ele>213.33333333333331</ele><time>2026-03-22T14:22:26.999Z</time></trkpt><trkpt lat="44.812735000825505" lon="9.45259693563686"><ele>212.66666666666669</ele><time>2026-03-22T14:22:27.999Z</time></trkpt><trkpt lat="44.81262324438062" lon="9.452330212393694"><ele>212.0</ele><time>2026-03-22T14:22:28.999Z</time></trkpt><trkpt lat="44.812531363570116" lon="9.452063520619895"><ele>214.33333333333334</ele><time>2026-03-22T14:22:29.999Z</time></trkpt><trkpt lat="44.81247203078854" lon="9.45180248384377"><ele>216.66666666666669</ele><time>2026-03-22T14:22:30.998Z</time></trkpt><trkpt lat="44.81242005089389" lon="9.451518149803244"><ele>219.0</ele><time>2026-03-22T14:22:31.998Z</time></trkpt><trkpt lat="44.81238567739866" lon="9.451240181136244"><ele>219.0</ele><time>2026-03-22T14:22:32.998Z</time></trkpt><trkpt lat="44.81235011779793" lon="9.45094173354041"><ele>219.0</ele><time>2026-03-22T14:22:33.998Z</time></trkpt><trkpt lat="44.8123158990786" lon="9.450601599182118"><ele>219.0</ele><time>2026-03-22T14:22:34.998Z</time></trkpt><trkpt lat="44.81227372612945" lon="9.450241562722127"><ele>219.0</ele><time>2026-03-22T14:22:35.998Z</time></trkpt><trkpt lat="44.812235666790585" lon="9.44991520042084"><ele>217.66666666666669</ele><time>2026-03-22T14:22:36.998Z</time></trkpt><trkpt lat="44.812200306913866" lon="9.449623638665567"><ele>216.33333333333334</ele><time>2026-03-22T14:22:37.998Z</time></trkpt><trkpt lat="44.812166096912065" lon="9.449347774651837"><ele>215.0</ele><time>2026-03-22T14:22:38.998Z</time></trkpt><trkpt lat="44.81213061119353" lon="9.449060859456253"><ele>214.66666666666669</ele><time>2026-03-22T14:22:39.998Z</time></trkpt><trkpt lat="44.812095016451345" lon="9.448766283136079"><ele>214.33333333333331</ele><time>2026-03-22T14:22:40.998Z</time></trkpt><trkpt lat="44.81205836458856" lon="9.448467157232468"><ele>214.0</ele><time>2026-03-22T14:22:41.998Z</time></trkpt><trkpt lat="44.81202105937834" lon="9.448169210085442"><ele>213.66666666666666</ele><time>2026-03-22T14:22:42.998Z</time></trkpt><trkpt lat="44.81198162323174" lon="9.447865024006607"><ele>213.33333333333331</ele><time>2026-03-22T14:22:43.998Z</time></trkpt><trkpt lat="44.81194417752622" lon="9.447557462207838"><ele>213.0</ele><time>2026-03-22T14:22:44.998Z</time></trkpt><trkpt lat="44.81190658013697" lon="9.447248798623551"><ele>213.66666666666669</ele><time>2026-03-22T14:22:45.998Z</time></trkpt><trkpt lat="44.811870938037046" lon="9.44694114282606"><ele>214.33333333333334</ele><time>2026-03-22T14:22:47.001Z</time></trkpt><trkpt lat="44.811833811021664" lon="9.446630806454236"><ele>215.0</ele><time>2026-03-22T14:22:48.001Z</time></trkpt><trkpt lat="44.811798383402525" lon="9.446322911443584"><ele>216.66666666666669</ele><time>2026-03-22T14:22:49.001Z</time></trkpt><trkpt lat="44.81176250496519" lon="9.446019699376178"><ele>218.33333333333331</ele><time>2026-03-22T14:22:50.001Z</time></trkpt><trkpt lat="44.81172676104956" lon="9.445715122041767"><ele>220.0</ele><time>2026-03-22T14:22:51.001Z</time></trkpt><trkpt lat="44.81169004727014" lon="9.445409928164612"><ele>220.66666666666666</ele><time>2026-03-22T14:22:52.001Z</time></trkpt><trkpt lat="44.81165453680846" lon="9.445107441078353"><ele>221.33333333333331</ele><time>2026-03-22T14:22:53.001Z</time></trkpt><trkpt lat="44.811618150093786" lon="9.444805677081455"><ele>222.0</ele><time>2026-03-22T14:22:54.001Z</time></trkpt><trkpt lat="44.81158005249067" lon="9.444499981496675"><ele>222.0</ele><time>2026-03-22T14:22:55.001Z</time></trkpt><trkpt lat="44.811544618403836" lon="9.44420321725202"><ele>222.0</ele><time>2026-03-22T14:22:56.001Z</time></trkpt><trkpt lat="44.811506905190576" lon="9.443899657294534"><ele>222.0</ele><time>2026-03-22T14:22:57.001Z</time></trkpt><trkpt lat="44.81147092149318" lon="9.443600217474398"><ele>221.66666666666669</ele><time>2026-03-22T14:22:58.001Z</time></trkpt><trkpt lat="44.81143551387906" lon="9.443297650002048"><ele>221.33333333333334</ele><time>2026-03-22T14:22:59.001Z</time></trkpt><trkpt lat="44.811402258658084" lon="9.442997431242949"><ele>221.0</ele><time>2026-03-22T14:23:00.001Z</time></trkpt><trkpt lat="44.81136666275396" lon="9.442694861522854"><ele>221.0</ele><time>2026-03-22T14:23:01.001Z</time></trkpt><trkpt lat="44.81133047953346" lon="9.442396384028086"><ele>221.0</ele><time>2026-03-22T14:23:02.001Z</time></trkpt><trkpt lat="44.81129406879143" lon="9.442098361647522"><ele>221.0</ele><time>2026-03-22T14:23:03.001Z</time></trkpt><trkpt lat="44.811254997051236" lon="9.44179486986451"><ele>220.33333333333334</ele><time>2026-03-22T14:23:04.001Z</time></trkpt><trkpt lat="44.811217336332454" lon="9.441493525585871"><ele>219.66666666666669</ele><time>2026-03-22T14:23:05.001Z</time></trkpt><trkpt lat="44.811177510341864" lon="9.441191213776971"><ele>219.0</ele><time>2026-03-22T14:23:06.001Z</time></trkpt><trkpt lat="44.81113261513298" lon="9.440893505010491"><ele>218.33333333333331</ele><time>2026-03-22T14:23:07.001Z</time></trkpt><trkpt lat="44.81107451477516" lon="9.440596319330517"><ele>217.66666666666666</ele><time>2026-03-22T14:23:08.001Z</time></trkpt><trkpt lat="44.81100362173221" lon="9.440302520504712"><ele>217.0</ele><time>2026-03-22T14:23:09.001Z</time></trkpt><trkpt lat="44.81090692055829" lon="9.440025377218243"><ele>218.33333333333331</ele><time>2026-03-22T14:23:10Z</time></trkpt><trkpt lat="44.81079375203185" lon="9.439766519829442"><ele>219.66666666666669</ele><time>2026-03-22T14:23:11Z</time></trkpt><trkpt lat="44.810659463361674" lon="9.439512724996945"><ele>221.0</ele><time>2026-03-22T14:23:12Z</time></trkpt><trkpt lat="44.81052325997946" lon="9.43928105489513"><ele>221.0</ele><time>2026-03-22T14:23:13Z</time></trkpt><trkpt lat="44.81037486193072" lon="9.43905996952324"><ele>221.0</ele><time>2026-03-22T14:23:14Z</time></trkpt><trkpt lat="44.810223293664805" lon="9.438841183164126"><ele>221.0</ele><time>2026-03-22T14:23:15Z</time></trkpt><trkpt lat="44.81007054987993" lon="9.43861906131709"><ele>221.33333333333334</ele><time>2026-03-22T14:23:16Z</time></trkpt><trkpt lat="44.80992062534066" lon="9.438401098062272"><ele>221.66666666666669</ele><time>2026-03-22T14:23:17Z</time></trkpt><trkpt lat="44.80976927333255" lon="9.438181365256192"><ele>222.0</ele><time>2026-03-22T14:23:18Z</time></trkpt><trkpt lat="44.80962038567954" lon="9.437963691085276"><ele>222.0</ele><time>2026-03-22T14:23:19Z</time></trkpt><trkpt lat="44.80947614732998" lon="9.437741441807098"><ele>222.0</ele><time>2026-03-22T14:23:20Z</time></trkpt><trkpt lat="44.80932737764996" lon="9.437513189473638"><ele>222.0</ele><time>2026-03-22T14:23:21Z</time></trkpt><trkpt lat="44.80918630282936" lon="9.437282237766365"><ele>222.0</ele><time>2026-03-22T14:23:22Z</time></trkpt><trkpt lat="44.809050676113486" lon="9.437039254679368"><ele>222.0</ele><time>2026-03-22T14:23:23Z</time></trkpt><trkpt lat="44.8089369642195" lon="9.436778741949315"><ele>222.0</ele><time>2026-03-22T14:23:24Z</time></trkpt><trkpt lat="44.80881439308945" lon="9.436540871767797"><ele>222.0</ele><time>2026-03-22T14:23:25Z</time></trkpt><trkpt lat="44.808684606662915" lon="9.436308094450652"><ele>222.0</ele><time>2026-03-22T14:23:26Z</time></trkpt><trkpt lat="44.80866709937875" lon="9.435946091328331"><ele>220.66666666666669</ele><time>2026-03-22T14:23:27Z</time></trkpt><trkpt lat="44.80856797131403" lon="9.435666166904207"><ele>219.33333333333334</ele><time>2026-03-22T14:23:28Z</time></trkpt><trkpt lat="44.80847065352186" lon="9.435389929500255"><ele>218.0</ele><time>2026-03-22T14:23:29Z</time></trkpt><trkpt lat="44.80837455235416" lon="9.435111659714174"><ele>218.0</ele><time>2026-03-22T14:23:30Z</time></trkpt><trkpt lat="44.808276793688165" lon="9.434828122112268"><ele>218.0</ele><time>2026-03-22T14:23:31Z</time></trkpt><trkpt lat="44.8081804399722" lon="9.43455776343822"><ele>218.0</ele><time>2026-03-22T14:23:32Z</time></trkpt><trkpt lat="44.80808180217547" lon="9.434277124815205"><ele>218.66666666666669</ele><time>2026-03-22T14:23:33Z</time></trkpt><trkpt lat="44.807985935876225" lon="9.434007199661766"><ele>219.33333333333331</ele><time>2026-03-22T14:23:34Z</time></trkpt><trkpt lat="44.807888106287486" lon="9.433731315037413"><ele>220.0</ele><time>2026-03-22T14:23:35Z</time></trkpt><trkpt lat="44.807792869833875" lon="9.433460203344989"><ele>220.0</ele><time>2026-03-22T14:23:36Z</time></trkpt><trkpt lat="44.80769662054285" lon="9.433183508278699"><ele>220.0</ele><time>2026-03-22T14:23:37Z</time></trkpt><trkpt lat="44.807603108835" lon="9.432911882867625"><ele>220.0</ele><time>2026-03-22T14:23:38Z</time></trkpt><trkpt lat="44.80750878300664" lon="9.432636932746199"><ele>221.66666666666666</ele><time>2026-03-22T14:23:39Z</time></trkpt><trkpt lat="44.807414275870876" lon="9.432363286431448"><ele>223.33333333333331</ele><time>2026-03-22T14:23:40Z</time></trkpt><trkpt lat="44.80731628373649" lon="9.43208772424487"><ele>225.0</ele><time>2026-03-22T14:23:41Z</time></trkpt><trkpt lat="44.80721685845534" lon="9.431816005619"><ele>228.0</ele><time>2026-03-22T14:23:42Z</time></trkpt><trkpt lat="44.80711212492812" lon="9.431548133307505"><ele>231.0</ele><time>2026-03-22T14:23:43Z</time></trkpt><trkpt lat="44.80699941043153" lon="9.431289343855134"><ele>234.0</ele><time>2026-03-22T14:23:44Z</time></trkpt><trkpt lat="44.80686855334985" lon="9.431043955415678"><ele>232.33333333333331</ele><time>2026-03-22T14:23:45Z</time></trkpt><trkpt lat="44.80673685998031" lon="9.430800161059347"><ele>230.66666666666666</ele><time>2026-03-22T14:23:46Z</time></trkpt><trkpt lat="44.8065999516918" lon="9.430560678463257"><ele>229.0</ele><time>2026-03-22T14:23:47Z</time></trkpt><trkpt lat="44.806467678813725" lon="9.430319321256569"><ele>229.0</ele><time>2026-03-22T14:23:48Z</time></trkpt><trkpt lat="44.80632407510567" lon="9.430088417343605"><ele>229.0</ele><time>2026-03-22T14:23:49Z</time></trkpt><trkpt lat="44.80617454040299" lon="9.429862077095606"><ele>229.0</ele><time>2026-03-22T14:23:50Z</time></trkpt><trkpt lat="44.80602323040299" lon="9.429654217593502"><ele>228.0</ele><time>2026-03-22T14:23:51Z</time></trkpt><trkpt lat="44.80585939251552" lon="9.429435756886988"><ele>227.0</ele><time>2026-03-22T14:23:52Z</time></trkpt><trkpt lat="44.80570492790203" lon="9.429233514972953"><ele>226.0</ele><time>2026-03-22T14:23:53Z</time></trkpt><trkpt lat="44.805553042281126" lon="9.42903706085474"><ele>226.0</ele><time>2026-03-22T14:23:54Z</time></trkpt><trkpt lat="44.805390357682946" lon="9.42884207151569"><ele>226.0</ele><time>2026-03-22T14:23:55Z</time></trkpt><trkpt lat="44.805227525592386" lon="9.428626619650435"><ele>226.0</ele><time>2026-03-22T14:23:56Z</time></trkpt><trkpt lat="44.80508146476361" lon="9.428426058335994"><ele>226.0</ele><time>2026-03-22T14:23:56.999Z</time></trkpt><trkpt lat="44.80492337791855" lon="9.428226071370494"><ele>226.0</ele><time>2026-03-22T14:23:57.999Z</time></trkpt><trkpt lat="44.80477131593452" lon="9.428025682140861"><ele>226.0</ele><time>2026-03-22T14:23:58.999Z</time></trkpt><trkpt lat="44.80461382871562" lon="9.427812715425892"><ele>226.0</ele><time>2026-03-22T14:23:59.999Z</time></trkpt><trkpt lat="44.80447192560452" lon="9.427624183423312"><ele>226.0</ele><time>2026-03-22T14:24:00.999Z</time></trkpt><trkpt lat="44.804307415096766" lon="9.427405830489446"><ele>226.0</ele><time>2026-03-22T14:24:01.999Z</time></trkpt><trkpt lat="44.804146036664605" lon="9.4271935241078"><ele>227.33333333333331</ele><time>2026-03-22T14:24:02.999Z</time></trkpt><trkpt lat="44.8039858275152" lon="9.426986723287845"><ele>228.66666666666669</ele><time>2026-03-22T14:24:03.999Z</time></trkpt><trkpt lat="44.8038143551984" lon="9.42676914055377"><ele>230.0</ele><time>2026-03-22T14:24:04.999Z</time></trkpt><trkpt lat="44.803650569263276" lon="9.426555855932591"><ele>229.33333333333334</ele><time>2026-03-22T14:24:05.999Z</time></trkpt><trkpt lat="44.803482915610374" lon="9.426344264898473"><ele>228.66666666666669</ele><time>2026-03-22T14:24:06.999Z</time></trkpt><trkpt lat="44.80331176991956" lon="9.426150497532323"><ele>228.0</ele><time>2026-03-22T14:24:07.999Z</time></trkpt><trkpt lat="44.80315563655308" lon="9.425967917704115"><ele>227.66666666666669</ele><time>2026-03-22T14:24:08.999Z</time></trkpt><trkpt lat="44.802983313504306" lon="9.425777267535036"><ele>227.33333333333334</ele><time>2026-03-22T14:24:09.999Z</time></trkpt><trkpt lat="44.802814967828084" lon="9.425596586849428"><ele>227.0</ele><time>2026-03-22T14:24:10.999Z</time></trkpt><trkpt lat="44.80260996634392" lon="9.425467355647038"><ele>228.33333333333334</ele><time>2026-03-22T14:24:11.999Z</time></trkpt><trkpt lat="44.802422490104995" lon="9.425327524315023"><ele>229.66666666666669</ele><time>2026-03-22T14:24:12.999Z</time></trkpt><trkpt lat="44.802229276259226" lon="9.425199036650989"><ele>231.0</ele><time>2026-03-22T14:24:13.999Z</time></trkpt><trkpt lat="44.802034325048915" lon="9.42506473324668"><ele>231.0</ele><time>2026-03-22T14:24:14.999Z</time></trkpt><trkpt lat="44.80184468265175" lon="9.424922543676296"><ele>231.0</ele><time>2026-03-22T14:24:15.999Z</time></trkpt><trkpt lat="44.80165327100952" lon="9.424782246408787"><ele>231.0</ele><time>2026-03-22T14:24:16.999Z</time></trkpt><trkpt lat="44.801458595948255" lon="9.424648434643462"><ele>230.33333333333331</ele><time>2026-03-22T14:24:17.999Z</time></trkpt><trkpt lat="44.80126376207686" lon="9.424504835654725"><ele>229.66666666666666</ele><time>2026-03-22T14:24:18.999Z</time></trkpt><trkpt lat="44.8010712903809" lon="9.424362132758947"><ele>229.0</ele><time>2026-03-22T14:24:19.999Z</time></trkpt><trkpt lat="44.80087498287044" lon="9.42422546121643"><ele>229.0</ele><time>2026-03-22T14:24:20.999Z</time></trkpt><trkpt lat="44.80067831875509" lon="9.424086815659182"><ele>229.0</ele><time>2026-03-22T14:24:21.999Z</time></trkpt><trkpt lat="44.80048039657123" lon="9.423951420064286"><ele>229.0</ele><time>2026-03-22T14:24:22.999Z</time></trkpt><trkpt lat="44.800281942720744" lon="9.423814002942324"><ele>230.66666666666666</ele><time>2026-03-22T14:24:23.999Z</time></trkpt><trkpt lat="44.80007940556619" lon="9.423683309828812"><ele>232.33333333333331</ele><time>2026-03-22T14:24:24.999Z</time></trkpt><trkpt lat="44.79987363399752" lon="9.423565536306652"><ele>234.0</ele><time>2026-03-22T14:24:25.999Z</time></trkpt><trkpt lat="44.79967123079387" lon="9.423474003557823"><ele>234.0</ele><time>2026-03-22T14:24:26.999Z</time></trkpt><trkpt lat="44.799454090574486" lon="9.423401977373588"><ele>234.0</ele><time>2026-03-22T14:24:27.999Z</time></trkpt><trkpt lat="44.79923665207789" lon="9.423343777478806"><ele>234.0</ele><time>2026-03-22T14:24:28.999Z</time></trkpt><trkpt lat="44.7990198417584" lon="9.423303989768637"><ele>234.66666666666669</ele><time>2026-03-22T14:24:29.999Z</time></trkpt><trkpt lat="44.79880416171067" lon="9.423279281758555"><ele>235.33333333333334</ele><time>2026-03-22T14:24:30.999Z</time></trkpt><trkpt lat="44.798581214156115" lon="9.423255864942286"><ele>236.0</ele><time>2026-03-22T14:24:31.999Z</time></trkpt><trkpt lat="44.79836292769545" lon="9.423231530305472"><ele>237.66666666666669</ele><time>2026-03-22T14:24:32.999Z</time></trkpt><trkpt lat="44.79814494433331" lon="9.423202764121658"><ele>239.33333333333331</ele><time>2026-03-22T14:24:33.999Z</time></trkpt><trkpt lat="44.797925942261635" lon="9.423163009693196"><ele>241.0</ele><time>2026-03-22T14:24:34.999Z</time></trkpt><trkpt lat="44.797712030450775" lon="9.423077998529369"><ele>241.33333333333331</ele><time>2026-03-22T14:24:35.999Z</time></trkpt><trkpt lat="44.79750336356416" lon="9.423030309570626"><ele>241.66666666666669</ele><time>2026-03-22T14:24:36.999Z</time></trkpt><trkpt lat="44.79731047528049" lon="9.422968421177629"><ele>242.0</ele><time>2026-03-22T14:24:37.999Z</time></trkpt><trkpt lat="44.79712795987514" lon="9.422894656619063"><ele>241.33333333333334</ele><time>2026-03-22T14:24:38.999Z</time></trkpt><trkpt lat="44.79694282876129" lon="9.422821072556317"><ele>240.66666666666669</ele><time>2026-03-22T14:24:39.999Z</time></trkpt><trkpt lat="44.796768131269936" lon="9.422709745836197"><ele>240.0</ele><time>2026-03-22T14:24:40.999Z</time></trkpt><trkpt lat="44.79660375758648" lon="9.422577569292034"><ele>240.0</ele><time>2026-03-22T14:24:41.999Z</time></trkpt><trkpt lat="44.7964369621891" lon="9.422431656981283"><ele>240.0</ele><time>2026-03-22T14:24:42.999Z</time></trkpt><trkpt lat="44.796279424660156" lon="9.42227411623361"><ele>240.0</ele><time>2026-03-22T14:24:43.999Z</time></trkpt><trkpt lat="44.7961260376367" lon="9.422100949520576"><ele>242.33333333333331</ele><time>2026-03-22T14:24:44.999Z</time></trkpt><trkpt lat="44.795990498956925" lon="9.421915524799534"><ele>244.66666666666666</ele><time>2026-03-22T14:24:45.999Z</time></trkpt><trkpt lat="44.7958496280407" lon="9.421719644448592"><ele>247.0</ele><time>2026-03-22T14:24:46.999Z</time></trkpt><trkpt lat="44.79571482953384" lon="9.421528025689978"><ele>247.0</ele><time>2026-03-22T14:24:47.999Z</time></trkpt><trkpt lat="44.79557045261333" lon="9.421338679121439"><ele>247.0</ele><time>2026-03-22T14:24:48.999Z</time></trkpt><trkpt lat="44.795427047437904" lon="9.421151480833084"><ele>247.0</ele><time>2026-03-22T14:24:49.999Z</time></trkpt><trkpt lat="44.795297181369925" lon="9.42096963552212"><ele>245.33333333333331</ele><time>2026-03-22T14:24:50.999Z</time></trkpt><trkpt lat="44.795175870533825" lon="9.420795284146642"><ele>243.66666666666669</ele><time>2026-03-22T14:24:51.999Z</time></trkpt><trkpt lat="44.79506397428001" lon="9.420632395936453"><ele>242.0</ele><time>2026-03-22T14:24:53Z</time></trkpt><trkpt lat="44.79494310632684" lon="9.420457636159705"><ele>255.0</ele><time>2026-03-22T14:24:54Z</time></trkpt><trkpt lat="44.79482869458718" lon="9.42029402554669"><ele>268.0</ele><time>2026-03-22T14:24:55Z</time></trkpt><trkpt lat="44.7946589704216" lon="9.42005030988916"><ele>281.0</ele><time>2026-03-22T14:24:56Z</time></trkpt><trkpt lat="44.794526932628024" lon="9.419858832302436"><ele>281.0</ele><time>2026-03-22T14:24:57Z</time></trkpt><trkpt lat="44.79438695373906" lon="9.419657166766122"><ele>281.0</ele><time>2026-03-22T14:24:58Z</time></trkpt><trkpt lat="44.794233191038124" lon="9.41948618756899"><ele>281.0</ele><time>2026-03-22T14:24:59Z</time></trkpt><trkpt lat="44.79409226650527" lon="9.419300678662426"><ele>295.33333333333337</ele><time>2026-03-22T14:25:00Z</time></trkpt><trkpt lat="44.79395295956289" lon="9.41911578298966"><ele>309.6666666666667</ele><time>2026-03-22T14:25:01Z</time></trkpt><trkpt lat="44.79381249890749" lon="9.418929802338003"><ele>324.0</ele><time>2026-03-22T14:25:02Z</time></trkpt><trkpt lat="44.793670555133275" lon="9.41874311300454"><ele>325.3333333333333</ele><time>2026-03-22T14:25:03Z</time></trkpt><trkpt lat="44.79352742451537" lon="9.41855466091392"><ele>326.66666666666663</ele><time>2026-03-22T14:25:04Z</time></trkpt><trkpt lat="44.79338539041856" lon="9.418367419206843"><ele>328.0</ele><time>2026-03-22T14:25:05Z</time></trkpt><trkpt lat="44.79323752552661" lon="9.418323925821625"><ele>338.3333333333333</ele><time>2026-03-22T14:25:06Z</time></trkpt><trkpt lat="44.79311568050311" lon="9.418164928732796"><ele>348.6666666666667</ele><time>2026-03-22T14:25:07Z</time></trkpt><trkpt lat="44.79299572442742" lon="9.418014261758918"><ele>359.0</ele><time>2026-03-22T14:25:08Z</time></trkpt><trkpt lat="44.792877754042514" lon="9.41785772271587"><ele>359.0</ele><time>2026-03-22T14:25:09Z</time></trkpt><trkpt lat="44.79276714906362" lon="9.417708309167061"><ele>359.0</ele><time>2026-03-22T14:25:10Z</time></trkpt><trkpt lat="44.79265694304197" lon="9.417567296268327"><ele>359.0</ele><time>2026-03-22T14:25:11Z</time></trkpt><trkpt lat="44.79255194935999" lon="9.417433523367645"><ele>359.0</ele><time>2026-03-22T14:25:12Z</time></trkpt><trkpt lat="44.79245715353909" lon="9.417309646521344"><ele>366.25</ele><time>2026-03-22T14:25:13Z</time></trkpt><trkpt lat="44.79235281007894" lon="9.417185461746254"><ele>373.5</ele><time>2026-03-22T14:25:14Z</time></trkpt><trkpt lat="44.79226398694731" lon="9.417062551199045"><ele>380.75</ele><time>2026-03-22T14:25:15Z</time></trkpt><trkpt lat="44.792175641786194" lon="9.416938177148907"><ele>388.0</ele><time>2026-03-22T14:25:16Z</time></trkpt><trkpt lat="44.79209111021844" lon="9.416822102420875"><ele>388.0</ele><time>2026-03-22T14:25:17Z</time></trkpt><trkpt lat="44.792009659559405" lon="9.416713664115512"><ele>388.0</ele><time>2026-03-22T14:25:18Z</time></trkpt><trkpt lat="44.79192546334151" lon="9.416604610301354"><ele>388.0</ele><time>2026-03-22T14:25:19Z</time></trkpt><trkpt lat="44.791845909353206" lon="9.416502125009966"><ele>388.0</ele><time>2026-03-22T14:25:20Z</time></trkpt><trkpt lat="44.79176852513717" lon="9.416401853140744"><ele>388.0</ele><time>2026-03-22T14:25:21Z</time></trkpt><trkpt lat="44.79169287447663" lon="9.416303836987296"><ele>372.75</ele><time>2026-03-22T14:25:22Z</time></trkpt><trkpt lat="44.79162413799997" lon="9.41621543277244"><ele>357.5</ele><time>2026-03-22T14:25:23Z</time></trkpt><trkpt lat="44.79155303888059" lon="9.416123993154017"><ele>342.25</ele><time>2026-03-22T14:25:24Z</time></trkpt><trkpt lat="44.79148731197395" lon="9.416038618196467"><ele>327.0</ele><time>2026-03-22T14:25:25Z</time></trkpt><trkpt lat="44.78986097243575" lon="9.413893648825074"><ele>281.5</ele><time>2026-03-22T14:25:26Z</time></trkpt><trkpt lat="44.78961059205484" lon="9.413561036566971"><ele>236.0</ele><time>2026-03-22T14:25:27Z</time></trkpt><trkpt lat="44.78946505685353" lon="9.413365590736289"><ele>236.33333333333334</ele><time>2026-03-22T14:25:28Z</time></trkpt><trkpt lat="44.78931516398105" lon="9.413191717454469"><ele>236.66666666666669</ele><time>2026-03-22T14:25:29Z</time></trkpt><trkpt lat="44.78916530246013" lon="9.412985739736927"><ele>237.0</ele><time>2026-03-22T14:25:30Z</time></trkpt><trkpt lat="44.789015205133325" lon="9.412779788367988"><ele>237.0</ele><time>2026-03-22T14:25:31Z</time></trkpt><trkpt lat="44.78886110338446" lon="9.412576488078741"><ele>237.0</ele><time>2026-03-22T14:25:32Z</time></trkpt><trkpt lat="44.78870556602703" lon="9.412367981628378"><ele>237.0</ele><time>2026-03-22T14:25:33Z</time></trkpt><trkpt lat="44.78857249952578" lon="9.41215133287108"><ele>237.33333333333331</ele><time>2026-03-22T14:25:34Z</time></trkpt><trkpt lat="44.78841963462256" lon="9.411941190892186"><ele>237.66666666666666</ele><time>2026-03-22T14:25:35Z</time></trkpt><trkpt lat="44.78825891272905" lon="9.411730520775619"><ele>238.0</ele><time>2026-03-22T14:25:36Z</time></trkpt><trkpt lat="44.78810130016525" lon="9.411522283900643"><ele>237.66666666666666</ele><time>2026-03-22T14:25:37Z</time></trkpt><trkpt lat="44.78794016113843" lon="9.411310759714812"><ele>237.33333333333331</ele><time>2026-03-22T14:25:38Z</time></trkpt><trkpt lat="44.787780344235046" lon="9.4110995234683"><ele>237.0</ele><time>2026-03-22T14:25:39Z</time></trkpt><trkpt lat="44.78762011000449" lon="9.410887427371854"><ele>237.0</ele><time>2026-03-22T14:25:40Z</time></trkpt><trkpt lat="44.78745616455799" lon="9.410675630865668"><ele>237.0</ele><time>2026-03-22T14:25:41Z</time></trkpt><trkpt lat="44.787295240439995" lon="9.410466632202533"><ele>237.0</ele><time>2026-03-22T14:25:42Z</time></trkpt><trkpt lat="44.78713407544349" lon="9.410257570867616"><ele>237.0</ele><time>2026-03-22T14:25:43Z</time></trkpt><trkpt lat="44.78697208729712" lon="9.410049623999372"><ele>237.0</ele><time>2026-03-22T14:25:44Z</time></trkpt><trkpt lat="44.78681301700071" lon="9.409840303816805"><ele>237.0</ele><time>2026-03-22T14:25:45Z</time></trkpt><trkpt lat="44.786651076257876" lon="9.409630407820554"><ele>240.0</ele><time>2026-03-22T14:25:46Z</time></trkpt><trkpt lat="44.78648985540661" lon="9.409422416164027"><ele>243.0</ele><time>2026-03-22T14:25:47Z</time></trkpt><trkpt lat="44.78632791253421" lon="9.409210955433533"><ele>246.0</ele><time>2026-03-22T14:25:48Z</time></trkpt><trkpt lat="44.786171587597366" lon="9.409000060557048"><ele>246.0</ele><time>2026-03-22T14:25:49Z</time></trkpt><trkpt lat="44.78601450293229" lon="9.408790322501954"><ele>246.0</ele><time>2026-03-22T14:25:50Z</time></trkpt><trkpt lat="44.7858561608488" lon="9.408582560279118"><ele>246.0</ele><time>2026-03-22T14:25:51Z</time></trkpt><trkpt lat="44.785697843174034" lon="9.40837367831169"><ele>246.0</ele><time>2026-03-22T14:25:52Z</time></trkpt><trkpt lat="44.785537553307925" lon="9.408164893051199"><ele>246.0</ele><time>2026-03-22T14:25:52.999Z</time></trkpt><trkpt lat="44.785380510184545" lon="9.407957915737706"><ele>246.0</ele><time>2026-03-22T14:25:53.999Z</time></trkpt><trkpt lat="44.78522585791525" lon="9.407748257452877"><ele>246.0</ele><time>2026-03-22T14:25:54.999Z</time></trkpt><trkpt lat="44.78506774466957" lon="9.40753681549362"><ele>246.0</ele><time>2026-03-22T14:25:55.999Z</time></trkpt><trkpt lat="44.78491404985675" lon="9.40732145656727"><ele>246.0</ele><time>2026-03-22T14:25:56.999Z</time></trkpt><trkpt lat="44.784758787425766" lon="9.407103888350674"><ele>246.0</ele><time>2026-03-22T14:25:57.999Z</time></trkpt><trkpt lat="44.78460978587269" lon="9.406882903725558"><ele>246.0</ele><time>2026-03-22T14:25:58.999Z</time></trkpt><trkpt lat="44.784457097638565" lon="9.406660305877407"><ele>246.0</ele><time>2026-03-22T14:25:59.999Z</time></trkpt><trkpt lat="44.78430619623089" lon="9.406439193642392"><ele>245.33333333333331</ele><time>2026-03-22T14:26:00.999Z</time></trkpt><trkpt lat="44.78415241183471" lon="9.406217426995426"><ele>244.66666666666666</ele><time>2026-03-22T14:26:01.999Z</time></trkpt><trkpt lat="44.784002428868405" lon="9.405996952122498"><ele>244.0</ele><time>2026-03-22T14:26:02.999Z</time></trkpt><trkpt lat="44.78384991313137" lon="9.405776375630714"><ele>244.0</ele><time>2026-03-22T14:26:03.999Z</time></trkpt><trkpt lat="44.78369744443293" lon="9.40555891306744"><ele>244.0</ele><time>2026-03-22T14:26:04.999Z</time></trkpt><trkpt lat="44.78354532945541" lon="9.405340065670494"><ele>244.0</ele><time>2026-03-22T14:26:05.999Z</time></trkpt><trkpt lat="44.78339178848071" lon="9.405121696320428"><ele>243.0</ele><time>2026-03-22T14:26:06.999Z</time></trkpt><trkpt lat="44.783239590051394" lon="9.404903969908299"><ele>242.0</ele><time>2026-03-22T14:26:07.999Z</time></trkpt><trkpt lat="44.78308459519051" lon="9.404685043851892"><ele>241.0</ele><time>2026-03-22T14:26:08.999Z</time></trkpt><trkpt lat="44.7829325559475" lon="9.404466438802395"><ele>241.0</ele><time>2026-03-22T14:26:09.999Z</time></trkpt><trkpt lat="44.78278011975109" lon="9.404244137747728"><ele>241.0</ele><time>2026-03-22T14:26:10.999Z</time></trkpt><trkpt lat="44.78262953588956" lon="9.404020211208524"><ele>241.0</ele><time>2026-03-22T14:26:11.999Z</time></trkpt><trkpt lat="44.782475925717335" lon="9.403800135333077"><ele>242.0</ele><time>2026-03-22T14:26:12.999Z</time></trkpt><trkpt lat="44.782321397023956" lon="9.40358252169284"><ele>243.0</ele><time>2026-03-22T14:26:13.999Z</time></trkpt><trkpt lat="44.782167579701046" lon="9.403362363615798"><ele>244.0</ele><time>2026-03-22T14:26:14.999Z</time></trkpt><trkpt lat="44.78201393948519" lon="9.403142293553811"><ele>244.66666666666666</ele><time>2026-03-22T14:26:15.999Z</time></trkpt><trkpt lat="44.781865158590946" lon="9.402922115795839"><ele>245.33333333333331</ele><time>2026-03-22T14:26:16.999Z</time></trkpt><trkpt lat="44.781713555544485" lon="9.402705600671352"><ele>246.0</ele><time>2026-03-22T14:26:17.999Z</time></trkpt><trkpt lat="44.781558678858055" lon="9.402489734557225"><ele>246.33333333333331</ele><time>2026-03-22T14:26:18.999Z</time></trkpt><trkpt lat="44.78140714354697" lon="9.402274155237647"><ele>246.66666666666666</ele><time>2026-03-22T14:26:19.999Z</time></trkpt><trkpt lat="44.781256490928676" lon="9.402056116696551"><ele>247.0</ele><time>2026-03-22T14:26:20.999Z</time></trkpt><trkpt lat="44.78110180735669" lon="9.401838411956104"><ele>247.33333333333331</ele><time>2026-03-22T14:26:21.999Z</time></trkpt><trkpt lat="44.780953255140055" lon="9.4016165788951"><ele>247.66666666666669</ele><time>2026-03-22T14:26:22.999Z</time></trkpt><trkpt lat="44.78080483581818" lon="9.401391348037414"><ele>248.0</ele><time>2026-03-22T14:26:23.999Z</time></trkpt><trkpt lat="44.780663633508766" lon="9.401159197360828"><ele>250.33333333333334</ele><time>2026-03-22T14:26:24.999Z</time></trkpt><trkpt lat="44.78052834645815" lon="9.400916712466955"><ele>252.66666666666669</ele><time>2026-03-22T14:26:25.999Z</time></trkpt><trkpt lat="44.78040512724705" lon="9.400661429268352"><ele>255.0</ele><time>2026-03-22T14:26:26.999Z</time></trkpt><trkpt lat="44.780301465825154" lon="9.400391085547739"><ele>255.66666666666669</ele><time>2026-03-22T14:26:27.999Z</time></trkpt><trkpt lat="44.7802045449676" lon="9.40011268452822"><ele>256.33333333333337</ele><time>2026-03-22T14:26:28.999Z</time></trkpt><trkpt lat="44.780122447244274" lon="9.399831041123194"><ele>257.0</ele><time>2026-03-22T14:26:29.999Z</time></trkpt><trkpt lat="44.7800495008312" lon="9.399541902041154"><ele>257.0</ele><time>2026-03-22T14:26:30.999Z</time></trkpt><trkpt lat="44.77999428532703" lon="9.399250000855002"><ele>257.0</ele><time>2026-03-22T14:26:31.999Z</time></trkpt><trkpt lat="44.77994777640899" lon="9.398953638987264"><ele>257.0</ele><time>2026-03-22T14:26:32.999Z</time></trkpt><trkpt lat="44.77990954231327" lon="9.398654585401816"><ele>258.0</ele><time>2026-03-22T14:26:33.999Z</time></trkpt><trkpt lat="44.77989007199377" lon="9.398354455013344"><ele>259.0</ele><time>2026-03-22T14:26:34.999Z</time></trkpt><trkpt lat="44.779878951300645" lon="9.398051571645276"><ele>260.0</ele><time>2026-03-22T14:26:35.999Z</time></trkpt><trkpt lat="44.77986047138709" lon="9.397751498897334"><ele>260.33333333333337</ele><time>2026-03-22T14:26:36.999Z</time></trkpt><trkpt lat="44.77983529901568" lon="9.397447465234746"><ele>260.6666666666667</ele><time>2026-03-22T14:26:37.999Z</time></trkpt><trkpt lat="44.77980823744095" lon="9.397148582008358"><ele>261.0</ele><time>2026-03-22T14:26:38.999Z</time></trkpt><trkpt lat="44.77977644696546" lon="9.396849104079536"><ele>263.0</ele><time>2026-03-22T14:26:39.999Z</time></trkpt><trkpt lat="44.779739845003846" lon="9.396547093366694"><ele>265.0</ele><time>2026-03-22T14:26:40.999Z</time></trkpt><trkpt lat="44.77969656381386" lon="9.396249741394776"><ele>267.0</ele><time>2026-03-22T14:26:41.999Z</time></trkpt><trkpt lat="44.77964383965646" lon="9.39595413116492"><ele>269.6666666666667</ele><time>2026-03-22T14:26:42.999Z</time></trkpt><trkpt lat="44.77958109069974" lon="9.395653973640359"><ele>272.33333333333337</ele><time>2026-03-22T14:26:43.999Z</time></trkpt><trkpt lat="44.77951234586636" lon="9.395362535366504"><ele>275.0</ele><time>2026-03-22T14:26:44.999Z</time></trkpt><trkpt lat="44.779432465445375" lon="9.395074099317439"><ele>267.6666666666667</ele><time>2026-03-22T14:26:45.999Z</time></trkpt><trkpt lat="44.77934961106521" lon="9.394784832464259"><ele>260.3333333333333</ele><time>2026-03-22T14:26:46.999Z</time></trkpt><trkpt lat="44.77926345416949" lon="9.39450407586963"><ele>253.0</ele><time>2026-03-22T14:26:47.999Z</time></trkpt><trkpt lat="44.779166304907655" lon="9.394222099874634"><ele>253.0</ele><time>2026-03-22T14:26:48.999Z</time></trkpt><trkpt lat="44.77906555837039" lon="9.393948820647246"><ele>253.0</ele><time>2026-03-22T14:26:49.999Z</time></trkpt><trkpt lat="44.77895424986739" lon="9.393680546095487"><ele>253.0</ele><time>2026-03-22T14:26:50.999Z</time></trkpt><trkpt lat="44.77883851443103" lon="9.393423395234413"><ele>253.66666666666666</ele><time>2026-03-22T14:26:51.998Z</time></trkpt><trkpt lat="44.77871227326694" lon="9.393167106851108"><ele>254.33333333333331</ele><time>2026-03-22T14:26:52.998Z</time></trkpt><trkpt lat="44.778582412247154" lon="9.392925338534216"><ele>255.0</ele><time>2026-03-22T14:26:53.998Z</time></trkpt><trkpt lat="44.778443941347994" lon="9.392688094161594"><ele>255.0</ele><time>2026-03-22T14:26:54.998Z</time></trkpt><trkpt lat="44.778331182339976" lon="9.392435345013869"><ele>255.0</ele><time>2026-03-22T14:26:55.998Z</time></trkpt><trkpt lat="44.77814981587931" lon="9.392251605218757"><ele>255.0</ele><time>2026-03-22T14:26:56.998Z</time></trkpt><trkpt lat="44.777993616077026" lon="9.39203500277268"><ele>255.33333333333331</ele><time>2026-03-22T14:26:57.998Z</time></trkpt><trkpt lat="44.77783108573704" lon="9.391828093327012"><ele>255.66666666666666</ele><time>2026-03-22T14:26:59.001Z</time></trkpt><trkpt lat="44.77767343367734" lon="9.391648831772565"><ele>256.0</ele><time>2026-03-22T14:27:00.001Z</time></trkpt><trkpt lat="44.77752467584605" lon="9.391491676945197"><ele>256.0</ele><time>2026-03-22T14:27:01.001Z</time></trkpt><trkpt lat="44.77738270602156" lon="9.391345671606231"><ele>256.0</ele><time>2026-03-22T14:27:02.001Z</time></trkpt><trkpt lat="44.7772494172331" lon="9.391213422267656"><ele>256.0</ele><time>2026-03-22T14:27:03.001Z</time></trkpt><trkpt lat="44.77712512247535" lon="9.391095066070289"><ele>256.75</ele><time>2026-03-22T14:27:04.001Z</time></trkpt><trkpt lat="44.77701448911279" lon="9.390985336206134"><ele>257.5</ele><time>2026-03-22T14:27:05.001Z</time></trkpt><trkpt lat="44.77690500049766" lon="9.39087404504054"><ele>258.25</ele><time>2026-03-22T14:27:06.001Z</time></trkpt><trkpt lat="44.776823863803216" lon="9.390763656107703"><ele>259.0</ele><time>2026-03-22T14:27:07.001Z</time></trkpt><trkpt lat="44.77675753920161" lon="9.390613741501845"><ele>261.75</ele><time>2026-03-22T14:27:08.001Z</time></trkpt><trkpt lat="44.776722903575944" lon="9.390432941119256"><ele>264.5</ele><time>2026-03-22T14:27:09Z</time></trkpt><trkpt lat="44.77670428088831" lon="9.390250597402517"><ele>267.25</ele><time>2026-03-22T14:27:10Z</time></trkpt><trkpt lat="44.776645975393954" lon="9.390116602056889"><ele>270.0</ele><time>2026-03-22T14:27:11Z</time></trkpt><trkpt lat="44.776546126832784" lon="9.390069516105775"><ele>270.0</ele><time>2026-03-22T14:27:12Z</time></trkpt><trkpt lat="44.77641524859593" lon="9.390060260319425"><ele>270.0</ele><time>2026-03-22T14:27:13Z</time></trkpt><trkpt lat="44.776283638131225" lon="9.390014218740799"><ele>270.0</ele><time>2026-03-22T14:27:14Z</time></trkpt><trkpt lat="44.77616102769635" lon="9.38990672835701"><ele>270.0</ele><time>2026-03-22T14:27:15Z</time></trkpt><trkpt lat="44.77605469564118" lon="9.389754880031422"><ele>269.6666666666667</ele><time>2026-03-22T14:27:16Z</time></trkpt><trkpt lat="44.7759544227989" lon="9.389591250755409"><ele>269.33333333333337</ele><time>2026-03-22T14:27:17Z</time></trkpt><trkpt lat="44.775843596891896" lon="9.389438968135416"><ele>269.0</ele><time>2026-03-22T14:27:18Z</time></trkpt><trkpt lat="44.77573703209485" lon="9.389288013073573"><ele>269.0</ele><time>2026-03-22T14:27:19Z</time></trkpt><trkpt lat="44.775649583519844" lon="9.389147743186815"><ele>269.0</ele><time>2026-03-22T14:27:20Z</time></trkpt><trkpt lat="44.77558386185397" lon="9.389008802875317"><ele>269.0</ele><time>2026-03-22T14:27:21Z</time></trkpt><trkpt lat="44.775526550318546" lon="9.388832052263862"><ele>269.0</ele><time>2026-03-22T14:27:22Z</time></trkpt><trkpt lat="44.7754704047653" lon="9.388602055107663"><ele>271.33333333333337</ele><time>2026-03-22T14:27:23Z</time></trkpt><trkpt lat="44.77540947191236" lon="9.38835484152747"><ele>273.6666666666667</ele><time>2026-03-22T14:27:24Z</time></trkpt><trkpt lat="44.77534927890588" lon="9.38814624408624"><ele>276.0</ele><time>2026-03-22T14:27:25Z</time></trkpt><trkpt lat="44.77529039465606" lon="9.387960777018291"><ele>277.25</ele><time>2026-03-22T14:27:26Z</time></trkpt><trkpt lat="44.77523736970667" lon="9.38779146141487"><ele>278.5</ele><time>2026-03-22T14:27:27Z</time></trkpt><trkpt lat="44.7751817415819" lon="9.387633255994409"><ele>279.75</ele><time>2026-03-22T14:27:28Z</time></trkpt><trkpt lat="44.77512760832532" lon="9.387491708410346"><ele>281.0</ele><time>2026-03-22T14:27:29Z</time></trkpt><trkpt lat="44.77506435665347" lon="9.38734795759011"><ele>280.0</ele><time>2026-03-22T14:27:30Z</time></trkpt><trkpt lat="44.77498215131542" lon="9.387204313282874"><ele>279.0</ele><time>2026-03-22T14:27:31Z</time></trkpt><trkpt lat="44.77487680176761" lon="9.387083477544186"><ele>278.0</ele><time>2026-03-22T14:27:32Z</time></trkpt><trkpt lat="44.774751322347235" lon="9.386991508834972"><ele>277.0</ele><time>2026-03-22T14:27:32.999Z</time></trkpt><trkpt lat="44.77461745476255" lon="9.386922774347324"><ele>277.0</ele><time>2026-03-22T14:27:33.999Z</time></trkpt><trkpt lat="44.774486068960044" lon="9.386890149588082"><ele>277.0</ele><time>2026-03-22T14:27:34.999Z</time></trkpt><trkpt lat="44.77435689945568" lon="9.386876401494588"><ele>277.0</ele><time>2026-03-22T14:27:35.999Z</time></trkpt><trkpt lat="44.77422006794948" lon="9.38687316560414"><ele>277.0</ele><time>2026-03-22T14:27:36.999Z</time></trkpt><trkpt lat="44.77407987981508" lon="9.386864773434086"><ele>273.5</ele><time>2026-03-22T14:27:37.999Z</time></trkpt><trkpt lat="44.77395255750974" lon="9.386852905064995"><ele>270.0</ele><time>2026-03-22T14:27:38.999Z</time></trkpt><trkpt lat="44.77382727583384" lon="9.386839435412186"><ele>266.5</ele><time>2026-03-22T14:27:39.999Z</time></trkpt><trkpt lat="44.77370519614889" lon="9.386822881770225"><ele>263.0</ele><time>2026-03-22T14:27:40.999Z</time></trkpt><trkpt lat="44.77358345306187" lon="9.386800306143064"><ele>264.0</ele><time>2026-03-22T14:27:41.999Z</time></trkpt><trkpt lat="44.77346452961477" lon="9.38677613804104"><ele>265.0</ele><time>2026-03-22T14:27:42.999Z</time></trkpt><trkpt lat="44.77334439487484" lon="9.38674881391971"><ele>266.0</ele><time>2026-03-22T14:27:43.999Z</time></trkpt><trkpt lat="44.77322144578155" lon="9.386720897796897"><ele>267.0</ele><time>2026-03-22T14:27:44.999Z</time></trkpt><trkpt lat="44.77309545911541" lon="9.386693430689702"><ele>267.0</ele><time>2026-03-22T14:27:45.999Z</time></trkpt><trkpt lat="44.772970618717984" lon="9.386665644893798"><ele>267.0</ele><time>2026-03-22T14:27:46.999Z</time></trkpt><trkpt lat="44.7728480057956" lon="9.386638026214547"><ele>267.0</ele><time>2026-03-22T14:27:47.999Z</time></trkpt><trkpt lat="44.77272840692461" lon="9.386608895756556"><ele>267.0</ele><time>2026-03-22T14:27:48.999Z</time></trkpt><trkpt lat="44.77261525364147" lon="9.386581628210344"><ele>268.0</ele><time>2026-03-22T14:27:49.999Z</time></trkpt><trkpt lat="44.772514063164024" lon="9.386556639992937"><ele>269.0</ele><time>2026-03-22T14:27:50.999Z</time></trkpt><trkpt lat="44.772421341270466" lon="9.386536069565256"><ele>270.0</ele><time>2026-03-22T14:27:51.999Z</time></trkpt><trkpt lat="44.77228681776759" lon="9.386503966143845"><ele>271.0</ele><time>2026-03-22T14:27:52.999Z</time></trkpt><trkpt lat="44.77215872204523" lon="9.38647496375849"><ele>271.0</ele><time>2026-03-22T14:27:53.999Z</time></trkpt><trkpt lat="44.77205635203768" lon="9.386450167065611"><ele>271.0</ele><time>2026-03-22T14:27:54.999Z</time></trkpt><trkpt lat="44.7719710822964" lon="9.386432929626967"><ele>271.0</ele><time>2026-03-22T14:27:55.999Z</time></trkpt><trkpt lat="44.77192147133312" lon="9.386534363400024"><ele>271.0</ele><time>2026-03-22T14:27:57.999Z</time></trkpt><trkpt lat="44.7720117004691" lon="9.386615628462131"><ele>271.0</ele><time>2026-03-22T14:27:59.999Z</time></trkpt><trkpt lat="44.77208784948127" lon="9.38660550163299"><ele>271.0</ele><time>2026-03-22T14:28:00.999Z</time></trkpt><trkpt lat="44.772170809771325" lon="9.386627793401818"><ele>271.0</ele><time>2026-03-22T14:28:02.999Z</time></trkpt><trkpt lat="44.77223514275092" lon="9.386645157079947"><ele>271.0</ele><time>2026-03-22T14:32:02Z</time></trkpt><trkpt lat="44.77227935178795" lon="9.386576304983265"><ele>271.0</ele><time>2026-03-22T14:32:04Z</time></trkpt><trkpt lat="44.772267796091334" lon="9.386687875487151"><ele>271.0</ele><time>2026-03-22T14:32:06Z</time></trkpt><trkpt lat="44.772283294290325" lon="9.386577242985254"><ele>271.0</ele><time>2026-03-22T14:32:10Z</time></trkpt><trkpt lat="44.772379167116505" lon="9.386568347174428"><ele>271.0</ele><time>2026-03-22T14:32:48.999Z</time></trkpt><trkpt lat="44.77244523792931" lon="9.386568615125148"><ele>271.0</ele><time>2026-03-22T14:32:49.999Z</time></trkpt><trkpt lat="44.77253400777536" lon="9.386597575933573"><ele>271.0</ele><time>2026-03-22T14:32:50.999Z</time></trkpt><trkpt lat="44.7726343366799" lon="9.386624196389052"><ele>271.0</ele><time>2026-03-22T14:32:51.999Z</time></trkpt><trkpt lat="44.77274758668299" lon="9.38665209015308"><ele>271.0</ele><time>2026-03-22T14:32:52.999Z</time></trkpt><trkpt lat="44.7728642336443" lon="9.386680066653541"><ele>270.2</ele><time>2026-03-22T14:32:53.999Z</time></trkpt><trkpt lat="44.772965493156605" lon="9.386700920274645"><ele>269.40000000000003</ele><time>2026-03-22T14:32:54.999Z</time></trkpt><trkpt lat="44.7730537073126" lon="9.38671361009889"><ele>268.6</ele><time>2026-03-22T14:32:55.999Z</time></trkpt><trkpt lat="44.77312839435845" lon="9.386724506019727"><ele>267.8</ele><time>2026-03-22T14:32:56.999Z</time></trkpt><trkpt lat="44.77318179245247" lon="9.386787299461133"><ele>267.0</ele><time>2026-03-22T14:32:57.999Z</time></trkpt><trkpt lat="44.77311787343658" lon="9.386992831724813"><ele>267.0</ele><time>2026-03-22T14:32:59.999Z</time></trkpt><trkpt lat="44.773102980571274" lon="9.387125608327382"><ele>267.0</ele><time>2026-03-22T14:33:00.999Z</time></trkpt><trkpt lat="44.77308721203661" lon="9.387266191922055"><ele>267.0</ele><time>2026-03-22T14:33:01.999Z</time></trkpt><trkpt lat="44.77307109656892" lon="9.387409868585497"><ele>267.0</ele><time>2026-03-22T14:33:02.998Z</time></trkpt><trkpt lat="44.77305446774906" lon="9.387558121811134"><ele>267.0</ele><time>2026-03-22T14:33:03.998Z</time></trkpt><trkpt lat="44.773039230269625" lon="9.38770003774298"><ele>266.4</ele><time>2026-03-22T14:33:04.998Z</time></trkpt><trkpt lat="44.77302402085416" lon="9.387837297754347"><ele>265.79999999999995</ele><time>2026-03-22T14:33:05.998Z</time></trkpt><trkpt lat="44.77300880230318" lon="9.387972763797244"><ele>265.2</ele><time>2026-03-22T14:33:06.998Z</time></trkpt><trkpt lat="44.772994014364755" lon="9.388105234356226"><ele>264.59999999999997</ele><time>2026-03-22T14:33:07.998Z</time></trkpt><trkpt lat="44.77298075598651" lon="9.388224003029409"><ele>264.0</ele><time>2026-03-22T14:33:08.998Z</time></trkpt><trkpt lat="44.77296517685527" lon="9.388362980332214"><ele>263.8</ele><time>2026-03-22T14:33:09.998Z</time></trkpt><trkpt lat="44.77295148095539" lon="9.38850374978778"><ele>263.59999999999997</ele><time>2026-03-22T14:33:10.998Z</time></trkpt><trkpt lat="44.772939165389815" lon="9.388630331862549"><ele>263.4</ele><time>2026-03-22T14:33:11.998Z</time></trkpt><trkpt lat="44.772926025120306" lon="9.388765390428999"><ele>263.2</ele><time>2026-03-22T14:33:12.998Z</time></trkpt><trkpt lat="44.77291147370853" lon="9.38891495301753"><ele>263.0</ele><time>2026-03-22T14:33:13.998Z</time></trkpt><trkpt lat="44.7728982049271" lon="9.389051332319992"><ele>262.4</ele><time>2026-03-22T14:33:14.998Z</time></trkpt><trkpt lat="44.772886777524604" lon="9.389169753075976"><ele>261.8</ele><time>2026-03-22T14:33:16.001Z</time></trkpt><trkpt lat="44.772877288001574" lon="9.389267756107744"><ele>261.2</ele><time>2026-03-22T14:33:17.001Z</time></trkpt><trkpt lat="44.77287936149769" lon="9.389388965832893"><ele>260.6</ele><time>2026-03-22T14:33:19.001Z</time></trkpt><trkpt lat="44.77267359666873" lon="9.389360974177302"><ele>260.0</ele><time>2026-03-22T14:33:22.001Z</time></trkpt><trkpt lat="44.772514925026975" lon="9.389301336408511"><ele>259.6666666666667</ele><time>2026-03-22T14:33:23.001Z</time></trkpt><trkpt lat="44.7723668566825" lon="9.389265332565861"><ele>259.3333333333333</ele><time>2026-03-22T14:33:24.001Z</time></trkpt><trkpt lat="44.772227707168355" lon="9.389200301544452"><ele>259.0</ele><time>2026-03-22T14:33:25.001Z</time></trkpt><trkpt lat="44.772079697059716" lon="9.389138216019973"><ele>259.0</ele><time>2026-03-22T14:33:26.001Z</time></trkpt><trkpt lat="44.771936187700724" lon="9.389076619458944"><ele>259.0</ele><time>2026-03-22T14:33:27.001Z</time></trkpt><trkpt lat="44.771787212357026" lon="9.38901593550169"><ele>259.0</ele><time>2026-03-22T14:33:28.001Z</time></trkpt><trkpt lat="44.77163801947861" lon="9.388956948279953"><ele>257.66666666666663</ele><time>2026-03-22T14:33:29.001Z</time></trkpt><trkpt lat="44.771488893629595" lon="9.38889556921315"><ele>256.3333333333333</ele><time>2026-03-22T14:33:30.001Z</time></trkpt><trkpt lat="44.77133535847989" lon="9.388832978214928"><ele>255.0</ele><time>2026-03-22T14:33:31.001Z</time></trkpt><trkpt lat="44.77118288141069" lon="9.388764536969978"><ele>257.3333333333333</ele><time>2026-03-22T14:33:32.001Z</time></trkpt><trkpt lat="44.77103026440022" lon="9.38870139902713"><ele>259.66666666666663</ele><time>2026-03-22T14:33:33.001Z</time></trkpt><trkpt lat="44.770874242228615" lon="9.388634865785932"><ele>262.0</ele><time>2026-03-22T14:33:34.001Z</time></trkpt><trkpt lat="44.770711645396204" lon="9.388574264323998"><ele>262.0</ele><time>2026-03-22T14:33:35.001Z</time></trkpt><trkpt lat="44.77054749062958" lon="9.388525118337249"><ele>262.0</ele><time>2026-03-22T14:33:36.001Z</time></trkpt><trkpt lat="44.77037336862272" lon="9.38848465698891"><ele>262.0</ele><time>2026-03-22T14:33:37.001Z</time></trkpt><trkpt lat="44.77020145634762" lon="9.388430204913885"><ele>261.0</ele><time>2026-03-22T14:33:38.001Z</time></trkpt><trkpt lat="44.77002688414006" lon="9.388405743595936"><ele>260.0</ele><time>2026-03-22T14:33:39.001Z</time></trkpt><trkpt lat="44.76984946901752" lon="9.38839231111055"><ele>259.0</ele><time>2026-03-22T14:33:40.001Z</time></trkpt><trkpt lat="44.76967308967237" lon="9.38838753012642"><ele>259.0</ele><time>2026-03-22T14:33:41.001Z</time></trkpt><trkpt lat="44.76949249733246" lon="9.388390831447955"><ele>259.0</ele><time>2026-03-22T14:33:42Z</time></trkpt><trkpt lat="44.76931424791655" lon="9.388408276990205"><ele>259.0</ele><time>2026-03-22T14:33:43Z</time></trkpt><trkpt lat="44.76915203090233" lon="9.388436686804157"><ele>260.25</ele><time>2026-03-22T14:33:44Z</time></trkpt><trkpt lat="44.76900804910922" lon="9.388468308500595"><ele>261.5</ele><time>2026-03-22T14:33:45Z</time></trkpt><trkpt lat="44.76886768072745" lon="9.388502885672143"><ele>262.75</ele><time>2026-03-22T14:33:46Z</time></trkpt><trkpt lat="44.76872288533511" lon="9.388543511240218"><ele>264.0</ele><time>2026-03-22T14:33:47Z</time></trkpt><trkpt lat="44.76857574608443" lon="9.388585774259774"><ele>263.5</ele><time>2026-03-22T14:33:48Z</time></trkpt><trkpt lat="44.768437716511336" lon="9.388626520630458"><ele>263.0</ele><time>2026-03-22T14:33:49Z</time></trkpt><trkpt lat="44.768309491739934" lon="9.388664372619633"><ele>262.5</ele><time>2026-03-22T14:33:50Z</time></trkpt><trkpt lat="44.768195036643526" lon="9.388698159797995"><ele>262.0</ele><time>2026-03-22T14:33:51Z</time></trkpt><trkpt lat="44.76808594909211" lon="9.388730359084192"><ele>262.0</ele><time>2026-03-22T14:33:52Z</time></trkpt><trkpt lat="44.767980947156886" lon="9.388760878771464"><ele>262.0</ele><time>2026-03-22T14:33:53Z</time></trkpt><trkpt lat="44.76788581379713" lon="9.388788530047623"><ele>262.0</ele><time>2026-03-22T14:33:54Z</time></trkpt><trkpt lat="44.76779716642738" lon="9.388814296289418"><ele>262.0</ele><time>2026-03-22T14:33:55Z</time></trkpt><trkpt lat="44.76773101948245" lon="9.388833522399805"><ele>262.0</ele><time>2026-03-22T14:33:56Z</time></trkpt><trkpt lat="44.767661054475624" lon="9.38885385833966"><ele>262.0</ele><time>2026-03-22T14:33:58Z</time></trkpt><trkpt lat="44.767582117557986" lon="9.388946532207989"><ele>261.0</ele><time>2026-03-22T14:38:20.999Z</time></trkpt><trkpt lat="44.767414026383" lon="9.388985478080087"><ele>260.0</ele><time>2026-03-22T14:38:21.999Z</time></trkpt><trkpt lat="44.76722744046836" lon="9.38904169349176"><ele>259.0</ele><time>2026-03-22T14:38:22.999Z</time></trkpt><trkpt lat="44.767037300803736" lon="9.389120241784903"><ele>259.0</ele><time>2026-03-22T14:38:23.999Z</time></trkpt><trkpt lat="44.76688210768227" lon="9.389193722845766"><ele>259.0</ele><time>2026-03-22T14:38:24.999Z</time></trkpt><trkpt lat="44.7667470345151" lon="9.389240151705927"><ele>259.0</ele><time>2026-03-22T14:38:25.999Z</time></trkpt><trkpt lat="44.76659195177562" lon="9.38915843397351"><ele>259.0</ele><time>2026-03-22T14:38:26.999Z</time></trkpt><trkpt lat="44.76645338928256" lon="9.389173887667718"><ele>259.0</ele><time>2026-03-22T14:38:27.999Z</time></trkpt><trkpt lat="44.766308707896016" lon="9.389166476362444"><ele>259.0</ele><time>2026-03-22T14:38:28.999Z</time></trkpt><trkpt lat="44.76615679492276" lon="9.389138014946944"><ele>259.0</ele><time>2026-03-22T14:38:29.999Z</time></trkpt><trkpt lat="44.766003445906975" lon="9.389087526178605"><ele>258.3333333333333</ele><time>2026-03-22T14:38:30.999Z</time></trkpt><trkpt lat="44.765860787132326" lon="9.389009049376421"><ele>257.6666666666667</ele><time>2026-03-22T14:38:31.999Z</time></trkpt><trkpt lat="44.76571001944079" lon="9.388896568302671"><ele>257.0</ele><time>2026-03-22T14:38:32.999Z</time></trkpt><trkpt lat="44.765575040972536" lon="9.388766273296538"><ele>258.33333333333337</ele><time>2026-03-22T14:38:33.999Z</time></trkpt><trkpt lat="44.765455192392295" lon="9.38860436475436"><ele>259.6666666666667</ele><time>2026-03-22T14:38:34.999Z</time></trkpt><trkpt lat="44.7653496672586" lon="9.388426969766854"><ele>261.0</ele><time>2026-03-22T14:38:35.999Z</time></trkpt><trkpt lat="44.76524140531743" lon="9.388236967593183"><ele>259.6666666666667</ele><time>2026-03-22T14:38:36.999Z</time></trkpt><trkpt lat="44.7651486151138" lon="9.388018492110014"><ele>258.33333333333337</ele><time>2026-03-22T14:38:37.999Z</time></trkpt><trkpt lat="44.765040089556386" lon="9.387791374743262"><ele>257.0</ele><time>2026-03-22T14:38:38.999Z</time></trkpt><trkpt lat="44.7649300164095" lon="9.387562917583182"><ele>257.0</ele><time>2026-03-22T14:38:39.999Z</time></trkpt><trkpt lat="44.764828057212945" lon="9.387365440294476"><ele>257.0</ele><time>2026-03-22T14:38:40.999Z</time></trkpt><trkpt lat="44.76473384548683" lon="9.387174924574435"><ele>257.0</ele><time>2026-03-22T14:38:41.999Z</time></trkpt><trkpt lat="44.76464147318083" lon="9.386990444610815"><ele>259.0</ele><time>2026-03-22T14:38:42.999Z</time></trkpt><trkpt lat="44.76455833597143" lon="9.386816884995323"><ele>261.0</ele><time>2026-03-22T14:38:43.999Z</time></trkpt><trkpt lat="44.76447972017313" lon="9.386637222941223"><ele>263.0</ele><time>2026-03-22T14:38:44.999Z</time></trkpt><trkpt lat="44.76440577170477" lon="9.386437780410686"><ele>264.0</ele><time>2026-03-22T14:38:45.999Z</time></trkpt><trkpt lat="44.764322040876955" lon="9.386238468296286"><ele>265.0</ele><time>2026-03-22T14:38:46.999Z</time></trkpt><trkpt lat="44.7642267355776" lon="9.38604544232031"><ele>266.0</ele><time>2026-03-22T14:38:47.999Z</time></trkpt><trkpt lat="44.76412941516688" lon="9.385854505734883"><ele>266.0</ele><time>2026-03-22T14:38:48.999Z</time></trkpt><trkpt lat="44.764044425794715" lon="9.385692373456797"><ele>266.0</ele><time>2026-03-22T14:38:49.999Z</time></trkpt><trkpt lat="44.76396250709553" lon="9.385534717470476"><ele>266.0</ele><time>2026-03-22T14:38:50.999Z</time></trkpt><trkpt lat="44.76387247636443" lon="9.385342478765727"><ele>266.0</ele><time>2026-03-22T14:38:51.999Z</time></trkpt><trkpt lat="44.76377099801501" lon="9.385114646823855"><ele>266.6666666666667</ele><time>2026-03-22T14:38:52.999Z</time></trkpt><trkpt lat="44.763666497717026" lon="9.384872946256275"><ele>267.3333333333333</ele><time>2026-03-22T14:38:53.998Z</time></trkpt><trkpt lat="44.763558670595906" lon="9.384627088357494"><ele>268.0</ele><time>2026-03-22T14:38:54.998Z</time></trkpt><trkpt lat="44.76344276787028" lon="9.38438382256331"><ele>268.0</ele><time>2026-03-22T14:38:55.998Z</time></trkpt><trkpt lat="44.76331869084441" lon="9.384140199921985"><ele>268.0</ele><time>2026-03-22T14:38:56.998Z</time></trkpt><trkpt lat="44.76318318337237" lon="9.383910042493032"><ele>268.0</ele><time>2026-03-22T14:38:57.998Z</time></trkpt><trkpt lat="44.76303316217526" lon="9.383695010958874"><ele>266.3333333333333</ele><time>2026-03-22T14:38:58.998Z</time></trkpt><trkpt lat="44.76286818952166" lon="9.38349842472769"><ele>264.6666666666667</ele><time>2026-03-22T14:38:59.998Z</time></trkpt><trkpt lat="44.76268629325598" lon="9.383326629057532"><ele>263.0</ele><time>2026-03-22T14:39:00.998Z</time></trkpt><trkpt lat="44.76249459531975" lon="9.383191623941482"><ele>263.0</ele><time>2026-03-22T14:39:01.998Z</time></trkpt><trkpt lat="44.76229895171879" lon="9.383070468138863"><ele>263.0</ele><time>2026-03-22T14:39:02.998Z</time></trkpt><trkpt lat="44.76211096551666" lon="9.382946498350236"><ele>263.0</ele><time>2026-03-22T14:39:03.998Z</time></trkpt><trkpt lat="44.76192724375233" lon="9.382816489371091"><ele>263.0</ele><time>2026-03-22T14:39:04.998Z</time></trkpt><trkpt lat="44.76174225970908" lon="9.382689107376093"><ele>263.0</ele><time>2026-03-22T14:39:05.998Z</time></trkpt><trkpt lat="44.76155836352885" lon="9.38256410473911"><ele>263.0</ele><time>2026-03-22T14:39:06.998Z</time></trkpt><trkpt lat="44.76137379558369" lon="9.382438376560403"><ele>263.0</ele><time>2026-03-22T14:39:07.998Z</time></trkpt><trkpt lat="44.76119059016292" lon="9.382314156988567"><ele>263.0</ele><time>2026-03-22T14:39:08.998Z</time></trkpt><trkpt lat="44.76100925780883" lon="9.38219107974277"><ele>263.0</ele><time>2026-03-22T14:39:09.998Z</time></trkpt><trkpt lat="44.76083167019944" lon="9.382071159209838"><ele>264.6666666666667</ele><time>2026-03-22T14:39:10.998Z</time></trkpt><trkpt lat="44.7606618706237" lon="9.381959565037231"><ele>266.3333333333333</ele><time>2026-03-22T14:39:11.998Z</time></trkpt><trkpt lat="44.760493361039124" lon="9.38185499597422"><ele>268.0</ele><time>2026-03-22T14:39:12.998Z</time></trkpt><trkpt lat="44.76032000573839" lon="9.381767659688746"><ele>267.3333333333333</ele><time>2026-03-22T14:39:13.998Z</time></trkpt><trkpt lat="44.76014404555808" lon="9.381678196650213"><ele>266.6666666666667</ele><time>2026-03-22T14:39:14.998Z</time></trkpt><trkpt lat="44.759945471475966" lon="9.381665543412678"><ele>266.0</ele><time>2026-03-22T14:39:15.998Z</time></trkpt><trkpt lat="44.75977459833586" lon="9.381661963456338"><ele>266.0</ele><time>2026-03-22T14:39:16.998Z</time></trkpt><trkpt lat="44.75961382645382" lon="9.38168696030477"><ele>266.0</ele><time>2026-03-22T14:39:17.998Z</time></trkpt><trkpt lat="44.759455202049715" lon="9.38171680787954"><ele>266.0</ele><time>2026-03-22T14:39:18.998Z</time></trkpt><trkpt lat="44.759276313069115" lon="9.38167818124119"><ele>266.0</ele><time>2026-03-22T14:39:19.998Z</time></trkpt><trkpt lat="44.759093101123746" lon="9.381708609565814"><ele>266.0</ele><time>2026-03-22T14:39:20.998Z</time></trkpt><trkpt lat="44.75889769210683" lon="9.381741273988395"><ele>266.0</ele><time>2026-03-22T14:39:21.998Z</time></trkpt><trkpt lat="44.75869573912101" lon="9.38177582237271"><ele>266.33333333333337</ele><time>2026-03-22T14:39:22.998Z</time></trkpt><trkpt lat="44.75848931021435" lon="9.381811634394355"><ele>266.6666666666667</ele><time>2026-03-22T14:39:23.998Z</time></trkpt><trkpt lat="44.758282197772374" lon="9.381848788017951"><ele>267.0</ele><time>2026-03-22T14:39:24.998Z</time></trkpt><trkpt lat="44.75806738299642" lon="9.381887110922122"><ele>267.0</ele><time>2026-03-22T14:39:25.998Z</time></trkpt><trkpt lat="44.75786444735585" lon="9.381921899888235"><ele>267.0</ele><time>2026-03-22T14:39:26.998Z</time></trkpt><trkpt lat="44.757676551233146" lon="9.381954110652089"><ele>267.0</ele><time>2026-03-22T14:39:27.998Z</time></trkpt><trkpt lat="44.75748858059314" lon="9.382063899359613"><ele>267.6666666666667</ele><time>2026-03-22T14:39:28.998Z</time></trkpt><trkpt lat="44.75729435253177" lon="9.382092491765313"><ele>268.33333333333337</ele><time>2026-03-22T14:39:29.998Z</time></trkpt><trkpt lat="44.757100283927755" lon="9.382116071065791"><ele>269.0</ele><time>2026-03-22T14:39:30.998Z</time></trkpt><trkpt lat="44.756917404582445" lon="9.382131168176729"><ele>269.4</ele><time>2026-03-22T14:39:32.001Z</time></trkpt><trkpt lat="44.75675962992729" lon="9.382129200639778"><ele>269.79999999999995</ele><time>2026-03-22T14:39:33.001Z</time></trkpt><trkpt lat="44.75663988353238" lon="9.382060026491434"><ele>270.20000000000005</ele><time>2026-03-22T14:39:34.001Z</time></trkpt><trkpt lat="44.7565612749249" lon="9.382044462380124"><ele>270.6</ele><time>2026-03-22T14:39:35.001Z</time></trkpt><trkpt lat="44.7565001927155" lon="9.382074679236517"><ele>271.0</ele><time>2026-03-22T14:39:37.001Z</time></trkpt><trkpt lat="44.75643432634715" lon="9.382037532943334"><ele>271.0</ele><time>2026-03-22T14:39:44.001Z</time></trkpt><trkpt lat="44.756327746633104" lon="9.38216125168828"><ele>271.0</ele><time>2026-03-22T14:39:45.001Z</time></trkpt><trkpt lat="44.75623416558368" lon="9.382187074026215"><ele>271.0</ele><time>2026-03-22T14:39:46.001Z</time></trkpt><trkpt lat="44.75611371778988" lon="9.382209244557112"><ele>271.0</ele><time>2026-03-22T14:39:47.001Z</time></trkpt><trkpt lat="44.755980077444086" lon="9.38223058920459"><ele>269.5</ele><time>2026-03-22T14:39:48Z</time></trkpt><trkpt lat="44.75585257499406" lon="9.382252554026424"><ele>268.0</ele><time>2026-03-22T14:39:49Z</time></trkpt><trkpt lat="44.7557470577437" lon="9.382284707447988"><ele>266.5</ele><time>2026-03-22T14:39:50Z</time></trkpt><trkpt lat="44.75565851145887" lon="9.382348469185143"><ele>265.0</ele><time>2026-03-22T14:39:51Z</time></trkpt><trkpt lat="44.75556980241025" lon="9.382501015553341"><ele>265.0</ele><time>2026-03-22T14:39:52Z</time></trkpt><trkpt lat="44.755509656832835" lon="9.382669793918495"><ele>265.0</ele><time>2026-03-22T14:39:53Z</time></trkpt><trkpt lat="44.755458047022465" lon="9.382810558168929"><ele>265.0</ele><time>2026-03-22T14:39:54Z</time></trkpt><trkpt lat="44.75541115825928" lon="9.382939427835877"><ele>265.0</ele><time>2026-03-22T14:39:55Z</time></trkpt><trkpt lat="44.755353903593594" lon="9.383096787474775"><ele>263.75</ele><time>2026-03-22T14:39:56Z</time></trkpt><trkpt lat="44.755293852447856" lon="9.383261832915933"><ele>262.5</ele><time>2026-03-22T14:39:57Z</time></trkpt><trkpt lat="44.755242467597824" lon="9.383403059821678"><ele>261.25</ele><time>2026-03-22T14:39:58Z</time></trkpt><trkpt lat="44.755187557086956" lon="9.383553976676899"><ele>260.0</ele><time>2026-03-22T14:39:59Z</time></trkpt><trkpt lat="44.75512814694032" lon="9.383717260451192"><ele>261.6</ele><time>2026-03-22T14:40:00Z</time></trkpt><trkpt lat="44.755067157690625" lon="9.38388310938792"><ele>263.2</ele><time>2026-03-22T14:40:01Z</time></trkpt><trkpt lat="44.755010847667165" lon="9.384032569658842"><ele>264.8</ele><time>2026-03-22T14:40:02Z</time></trkpt><trkpt lat="44.754967413484906" lon="9.384178985163606"><ele>266.4</ele><time>2026-03-22T14:40:03Z</time></trkpt><trkpt lat="44.754955514492536" lon="9.384278875643515"><ele>268.0</ele><time>2026-03-22T14:40:04Z</time></trkpt><trkpt lat="44.75500480025924" lon="9.384384033628747"><ele>268.0</ele><time>2026-03-22T14:40:05Z</time></trkpt><trkpt lat="44.75515400856405" lon="9.38440526450201"><ele>268.0</ele><time>2026-03-22T14:40:06Z</time></trkpt><trkpt lat="44.755270958064884" lon="9.384444711970785"><ele>268.0</ele><time>2026-03-22T14:40:07Z</time></trkpt><trkpt lat="44.75540893931237" lon="9.384493313595605"><ele>268.0</ele><time>2026-03-22T14:40:08Z</time></trkpt><trkpt lat="44.755539938101094" lon="9.384548480616004"><ele>267.25</ele><time>2026-03-22T14:40:09Z</time></trkpt><trkpt lat="44.75565694176544" lon="9.384549863082816"><ele>266.5</ele><time>2026-03-22T14:40:10Z</time></trkpt><trkpt lat="44.75577241233334" lon="9.384554528090657"><ele>265.75</ele><time>2026-03-22T14:40:11Z</time></trkpt><trkpt lat="44.755895272991125" lon="9.384547570352645"><ele>265.0</ele><time>2026-03-22T14:40:12Z</time></trkpt><trkpt lat="44.75601723372042" lon="9.384564552973245"><ele>263.8</ele><time>2026-03-22T14:40:13Z</time></trkpt><trkpt lat="44.7561223630861" lon="9.384570604605619"><ele>262.6</ele><time>2026-03-22T14:40:14Z</time></trkpt><trkpt lat="44.756195716777356" lon="9.38464669465974"><ele>261.4</ele><time>2026-03-22T14:40:15Z</time></trkpt><trkpt lat="44.75626789687897" lon="9.384744525774964"><ele>260.2</ele><time>2026-03-22T14:40:16Z</time></trkpt><trkpt lat="44.75634965887566" lon="9.384876892420554"><ele>259.0</ele><time>2026-03-22T14:40:17Z</time></trkpt><trkpt lat="44.75639345009846" lon="9.385028402626563"><ele>262.0</ele><time>2026-03-22T14:40:18Z</time></trkpt><trkpt lat="44.7564189240921" lon="9.385197701841847"><ele>265.0</ele><time>2026-03-22T14:40:19Z</time></trkpt><trkpt lat="44.75642785531721" lon="9.38537381878651"><ele>268.0</ele><time>2026-03-22T14:40:20Z</time></trkpt><trkpt lat="44.756418427223714" lon="9.385535826335177"><ele>271.0</ele><time>2026-03-22T14:40:21Z</time></trkpt><trkpt lat="44.756398626673565" lon="9.385681550336388"><ele>272.2</ele><time>2026-03-22T14:40:22Z</time></trkpt><trkpt lat="44.7563917521863" lon="9.385778517780558"><ele>273.40000000000003</ele><time>2026-03-22T14:40:23Z</time></trkpt><trkpt lat="44.756403419724606" lon="9.385890999281331"><ele>274.6</ele><time>2026-03-22T14:40:24Z</time></trkpt><trkpt lat="44.75651462924583" lon="9.386044035050245"><ele>275.8</ele><time>2026-03-22T14:40:25Z</time></trkpt><trkpt lat="44.75663622712968" lon="9.386140840018928"><ele>277.0</ele><time>2026-03-22T14:40:26Z</time></trkpt><trkpt lat="44.75674119956696" lon="9.386220432088662"><ele>277.0</ele><time>2026-03-22T14:40:27Z</time></trkpt><trkpt lat="44.75681077113109" lon="9.386312944451989"><ele>277.0</ele><time>2026-03-22T14:40:27.999Z</time></trkpt><trkpt lat="44.75686605126264" lon="9.386430222933898"><ele>277.0</ele><time>2026-03-22T14:40:28.999Z</time></trkpt><trkpt lat="44.756918254410785" lon="9.386570381208424"><ele>277.0</ele><time>2026-03-22T14:40:29.999Z</time></trkpt><trkpt lat="44.756961156484806" lon="9.38672621331393"><ele>277.0</ele><time>2026-03-22T14:40:30.999Z</time></trkpt><trkpt lat="44.75702407031071" lon="9.386896555831031"><ele>276.75</ele><time>2026-03-22T14:40:31.999Z</time></trkpt><trkpt lat="44.75710448298581" lon="9.38703810924437"><ele>276.5</ele><time>2026-03-22T14:40:32.999Z</time></trkpt><trkpt lat="44.75721481827136" lon="9.387137815605763"><ele>276.25</ele><time>2026-03-22T14:40:33.999Z</time></trkpt><trkpt lat="44.757332206954004" lon="9.3872328853285"><ele>276.0</ele><time>2026-03-22T14:40:34.999Z</time></trkpt><trkpt lat="44.757469966643285" lon="9.387311358857529"><ele>277.0</ele><time>2026-03-22T14:40:35.999Z</time></trkpt><trkpt lat="44.757597896758234" lon="9.387406360175362"><ele>278.0</ele><time>2026-03-22T14:40:36.999Z</time></trkpt><trkpt lat="44.75771292961285" lon="9.38749214689834"><ele>279.0</ele><time>2026-03-22T14:40:37.999Z</time></trkpt><trkpt lat="44.757828220464354" lon="9.387561966638353"><ele>280.0</ele><time>2026-03-22T14:40:38.999Z</time></trkpt><trkpt lat="44.75794990333026" lon="9.38764587730385"><ele>280.0</ele><time>2026-03-22T14:40:39.999Z</time></trkpt><trkpt lat="44.758059949282696" lon="9.387717427892245"><ele>280.0</ele><time>2026-03-22T14:40:40.999Z</time></trkpt><trkpt lat="44.75817407223635" lon="9.387731150384885"><ele>280.0</ele><time>2026-03-22T14:40:41.999Z</time></trkpt><trkpt lat="44.75820818475996" lon="9.387873319769636"><ele>280.0</ele><time>2026-03-22T14:40:42.999Z</time></trkpt><trkpt lat="44.758246615700436" lon="9.388010986460856"><ele>280.0</ele><time>2026-03-22T14:40:43.999Z</time></trkpt><trkpt lat="44.758267496493715" lon="9.388186615716847"><ele>281.5</ele><time>2026-03-22T14:40:44.999Z</time></trkpt><trkpt lat="44.758297245931125" lon="9.388368392866024"><ele>283.0</ele><time>2026-03-22T14:40:45.999Z</time></trkpt><trkpt lat="44.758319808582634" lon="9.388565706454125"><ele>284.5</ele><time>2026-03-22T14:40:46.999Z</time></trkpt><trkpt lat="44.75839638480381" lon="9.38874052237382"><ele>286.0</ele><time>2026-03-22T14:40:47.999Z</time></trkpt><trkpt lat="44.758495758926244" lon="9.388909578822647"><ele>286.25</ele><time>2026-03-22T14:40:48.999Z</time></trkpt><trkpt lat="44.75858676415512" lon="9.38905398871763"><ele>286.5</ele><time>2026-03-22T14:40:49.999Z</time></trkpt><trkpt lat="44.75867415336072" lon="9.38920538177605"><ele>286.75</ele><time>2026-03-22T14:40:50.999Z</time></trkpt><trkpt lat="44.758732513934696" lon="9.389353996247024"><ele>287.0</ele><time>2026-03-22T14:40:51.999Z</time></trkpt><trkpt lat="44.758772745156826" lon="9.389495340794555"><ele>287.0</ele><time>2026-03-22T14:40:52.999Z</time></trkpt><trkpt lat="44.75877764530479" lon="9.389618677803377"><ele>287.0</ele><time>2026-03-22T14:40:53.999Z</time></trkpt><trkpt lat="44.75873950478416" lon="9.389709549173057"><ele>287.0</ele><time>2026-03-22T14:40:54.999Z</time></trkpt><trkpt lat="44.75867362818066" lon="9.389734257758205"><ele>287.0</ele><time>2026-03-22T14:40:55.999Z</time></trkpt><trkpt lat="44.758602099403" lon="9.38973726619493"><ele>287.0</ele><time>2026-03-22T14:40:56.999Z</time></trkpt><trkpt lat="44.758514959700534" lon="9.38971258680644"><ele>287.0</ele><time>2026-03-22T14:40:57.999Z</time></trkpt><trkpt lat="44.758387883466376" lon="9.389676429609827"><ele>289.0</ele><time>2026-03-22T14:40:58.999Z</time></trkpt><trkpt lat="44.75824292221693" lon="9.389636122862237"><ele>291.0</ele><time>2026-03-22T14:40:59.999Z</time></trkpt><trkpt lat="44.75809238597005" lon="9.389598752443591"><ele>293.0</ele><time>2026-03-22T14:41:00.999Z</time></trkpt><trkpt lat="44.757938367614024" lon="9.389562350847713"><ele>293.0</ele><time>2026-03-22T14:41:01.999Z</time></trkpt><trkpt lat="44.75778725282173" lon="9.389530956926425"><ele>293.0</ele><time>2026-03-22T14:41:02.999Z</time></trkpt><trkpt lat="44.75765483049918" lon="9.389508530699707"><ele>293.0</ele><time>2026-03-22T14:41:03.999Z</time></trkpt><trkpt lat="44.75751992536068" lon="9.389490077865"><ele>293.0</ele><time>2026-03-22T14:41:04.999Z</time></trkpt><trkpt lat="44.75738470892402" lon="9.389481925915653"><ele>296.33333333333337</ele><time>2026-03-22T14:41:05.999Z</time></trkpt><trkpt lat="44.75723652212535" lon="9.389484807527221"><ele>299.6666666666667</ele><time>2026-03-22T14:41:06.999Z</time></trkpt><trkpt lat="44.75709144672882" lon="9.389477700725703"><ele>303.0</ele><time>2026-03-22T14:41:07.998Z</time></trkpt><trkpt lat="44.75694044131202" lon="9.389408461547085"><ele>306.25</ele><time>2026-03-22T14:41:08.998Z</time></trkpt><trkpt lat="44.75680130249097" lon="9.389286901231925"><ele>309.5</ele><time>2026-03-22T14:41:09.998Z</time></trkpt><trkpt lat="44.756671523876975" lon="9.389182510109517"><ele>312.75</ele><time>2026-03-22T14:41:10.997Z</time></trkpt><trkpt lat="44.75657695475179" lon="9.38906585381056"><ele>316.0</ele><time>2026-03-22T14:41:11.997Z</time></trkpt><trkpt lat="44.7564662301424" lon="9.388943603970093"><ele>316.5</ele><time>2026-03-22T14:41:12.997Z</time></trkpt><trkpt lat="44.7563509079857" lon="9.388828910787343"><ele>317.0</ele><time>2026-03-22T14:41:13.997Z</time></trkpt><trkpt lat="44.756232769603265" lon="9.38872579609233"><ele>317.5</ele><time>2026-03-22T14:41:14.997Z</time></trkpt><trkpt lat="44.75611043410464" lon="9.388634620413344"><ele>318.0</ele><time>2026-03-22T14:41:15.997Z</time></trkpt><trkpt lat="44.755993038994276" lon="9.388533902916954"><ele>318.0</ele><time>2026-03-22T14:41:16.997Z</time></trkpt><trkpt lat="44.75586656707647" lon="9.388460908760807"><ele>318.0</ele><time>2026-03-22T14:41:17.997Z</time></trkpt><trkpt lat="44.7557419825805" lon="9.388389003930692"><ele>318.0</ele><time>2026-03-22T14:41:18.997Z</time></trkpt><trkpt lat="44.755616538746985" lon="9.388316603155134"><ele>318.0</ele><time>2026-03-22T14:41:19.997Z</time></trkpt><trkpt lat="44.75548979394385" lon="9.388240461034915"><ele>318.0</ele><time>2026-03-22T14:41:20.997Z</time></trkpt><trkpt lat="44.75535860756665" lon="9.388157918995473"><ele>318.0</ele><time>2026-03-22T14:41:21.997Z</time></trkpt><trkpt lat="44.75522488532436" lon="9.388070359655348"><ele>318.0</ele><time>2026-03-22T14:41:22.997Z</time></trkpt><trkpt lat="44.755095144915956" lon="9.387995697207655"><ele>318.0</ele><time>2026-03-22T14:41:23.997Z</time></trkpt><trkpt lat="44.75500899842727" lon="9.387877138491424"><ele>319.0</ele><time>2026-03-22T14:41:24.997Z</time></trkpt><trkpt lat="44.754953775232046" lon="9.38772928167329"><ele>320.0</ele><time>2026-03-22T14:41:25.997Z</time></trkpt><trkpt lat="44.754937063388866" lon="9.387566967932232"><ele>321.0</ele><time>2026-03-22T14:41:26.997Z</time></trkpt><trkpt lat="44.75490367789787" lon="9.387442351750353"><ele>322.0</ele><time>2026-03-22T14:41:27.997Z</time></trkpt><trkpt lat="44.7548717415849" lon="9.387332441819499"><ele>323.0</ele><time>2026-03-22T14:41:28.997Z</time></trkpt><trkpt lat="44.754799773235675" lon="9.387275737089723"><ele>323.0</ele><time>2026-03-22T14:41:29.997Z</time></trkpt><trkpt lat="44.75469165727852" lon="9.387259312758383"><ele>323.0</ele><time>2026-03-22T14:41:30.997Z</time></trkpt><trkpt lat="44.75456043420401" lon="9.387404780815684"><ele>323.0</ele><time>2026-03-22T14:41:31.997Z</time></trkpt><trkpt lat="44.75442721007021" lon="9.387552374589495"><ele>323.0</ele><time>2026-03-22T14:41:32.997Z</time></trkpt><trkpt lat="44.75432312286323" lon="9.38766475018026"><ele>324.33333333333337</ele><time>2026-03-22T14:41:33.997Z</time></trkpt><trkpt lat="44.75424365145891" lon="9.387744581615056"><ele>325.6666666666667</ele><time>2026-03-22T14:41:34.997Z</time></trkpt><trkpt lat="44.75418096734532" lon="9.387793859746667"><ele>327.0</ele><time>2026-03-22T14:41:35.997Z</time></trkpt><trkpt lat="44.754118764185414" lon="9.38789101076809"><ele>328.3333333333333</ele><time>2026-03-22T14:41:36.997Z</time></trkpt><trkpt lat="44.75403895552543" lon="9.387992255252836"><ele>329.66666666666663</ele><time>2026-03-22T14:41:39Z</time></trkpt><trkpt lat="44.754004735593234" lon="9.388082493879514"><ele>331.0</ele><time>2026-03-22T14:41:41Z</time></trkpt><trkpt lat="44.754016139257644" lon="9.388172424115483"><ele>331.0</ele><time>2026-03-22T14:44:32.999Z</time></trkpt><trkpt lat="44.75403574319536" lon="9.388082318606449"><ele>331.0</ele><time>2026-03-22T14:44:39.999Z</time></trkpt><trkpt lat="44.754078102312384" lon="9.38801427445333"><ele>331.0</ele><time>2026-03-22T14:44:43.999Z</time></trkpt><trkpt lat="44.754125532975365" lon="9.387943504168437"><ele>331.0</ele><time>2026-03-22T14:44:51.999Z</time></trkpt><trkpt lat="44.75417460242788" lon="9.387878116656069"><ele>331.0</ele><time>2026-03-22T14:45:11.998Z</time></trkpt><trkpt lat="44.75427014032779" lon="9.387777052795885"><ele>331.0</ele><time>2026-03-22T14:45:13.998Z</time></trkpt><trkpt lat="44.7543691440187" lon="9.38767414753709"><ele>329.4</ele><time>2026-03-22T14:45:14.998Z</time></trkpt><trkpt lat="44.754464297544715" lon="9.387570672123664"><ele>327.8</ele><time>2026-03-22T14:45:15.998Z</time></trkpt><trkpt lat="44.754554915787246" lon="9.387469782372952"><ele>326.2</ele><time>2026-03-22T14:45:16.998Z</time></trkpt><trkpt lat="44.754632785513564" lon="9.387383612040557"><ele>324.59999999999997</ele><time>2026-03-22T14:45:17.998Z</time></trkpt><trkpt lat="44.75470431063158" lon="9.387306456947504"><ele>323.0</ele><time>2026-03-22T14:45:18.998Z</time></trkpt><trkpt lat="44.75477619394541" lon="9.387274898452963"><ele>323.0</ele><time>2026-03-22T14:45:19.998Z</time></trkpt><trkpt lat="44.75484553858909" lon="9.387312655202551"><ele>323.0</ele><time>2026-03-22T14:45:20.998Z</time></trkpt><trkpt lat="44.75488763097711" lon="9.387444123291411"><ele>323.0</ele><time>2026-03-22T14:45:21.998Z</time></trkpt><trkpt lat="44.75488501203276" lon="9.387600659883338"><ele>323.0</ele><time>2026-03-22T14:45:22.998Z</time></trkpt><trkpt lat="44.754918753928685" lon="9.387762246446032"><ele>323.0</ele><time>2026-03-22T14:45:23.998Z</time></trkpt><trkpt lat="44.75498043288698" lon="9.387872725353878"><ele>323.0</ele><time>2026-03-22T14:45:24.998Z</time></trkpt><trkpt lat="44.75504669606988" lon="9.387983128718421"><ele>323.0</ele><time>2026-03-22T14:45:25.998Z</time></trkpt><trkpt lat="44.75515663067965" lon="9.38808361477534"><ele>323.0</ele><time>2026-03-22T14:45:26.998Z</time></trkpt><trkpt lat="44.75528366045736" lon="9.38815844713958"><ele>323.0</ele><time>2026-03-22T14:45:27.998Z</time></trkpt><trkpt lat="44.75541805104993" lon="9.388230851120397"><ele>321.75</ele><time>2026-03-22T14:45:28.998Z</time></trkpt><trkpt lat="44.75555152568098" lon="9.388315707206043"><ele>320.5</ele><time>2026-03-22T14:45:29.998Z</time></trkpt><trkpt lat="44.75567127889194" lon="9.388384878457696"><ele>319.25</ele><time>2026-03-22T14:45:30.998Z</time></trkpt><trkpt lat="44.75578195558622" lon="9.388446807496672"><ele>318.0</ele><time>2026-03-22T14:45:31.998Z</time></trkpt><trkpt lat="44.75589986876831" lon="9.38851264671361"><ele>318.0</ele><time>2026-03-22T14:45:32.998Z</time></trkpt><trkpt lat="44.756032573178466" lon="9.388585845368933"><ele>318.0</ele><time>2026-03-22T14:45:33.998Z</time></trkpt><trkpt lat="44.756138947631854" lon="9.388684691946036"><ele>318.0</ele><time>2026-03-22T14:45:34.998Z</time></trkpt><trkpt lat="44.75624449606791" lon="9.38877350313497"><ele>318.0</ele><time>2026-03-22T14:45:35.998Z</time></trkpt><trkpt lat="44.75638114194292" lon="9.388883702581632"><ele>317.3333333333333</ele><time>2026-03-22T14:45:36.998Z</time></trkpt><trkpt lat="44.75652788898434" lon="9.389044220336734"><ele>316.66666666666663</ele><time>2026-03-22T14:45:37.998Z</time></trkpt><trkpt lat="44.75668363944078" lon="9.38921862909132"><ele>316.0</ele><time>2026-03-22T14:45:38.998Z</time></trkpt><trkpt lat="44.756824558438474" lon="9.389358717641677"><ele>311.66666666666663</ele><time>2026-03-22T14:45:39.998Z</time></trkpt><trkpt lat="44.756961849647304" lon="9.389468187635766"><ele>307.3333333333333</ele><time>2026-03-22T14:45:40.997Z</time></trkpt><trkpt lat="44.757110808331824" lon="9.389527689876513"><ele>303.0</ele><time>2026-03-22T14:45:41.997Z</time></trkpt><trkpt lat="44.75730820880959" lon="9.38952546948253"><ele>303.0</ele><time>2026-03-22T14:45:42.997Z</time></trkpt><trkpt lat="44.75754782668321" lon="9.389540346472154"><ele>303.0</ele><time>2026-03-22T14:45:43.997Z</time></trkpt><trkpt lat="44.757753404163225" lon="9.389571835136259"><ele>303.0</ele><time>2026-03-22T14:45:44.997Z</time></trkpt><trkpt lat="44.75793959852489" lon="9.389609997646506"><ele>303.0</ele><time>2026-03-22T14:45:45.997Z</time></trkpt><trkpt lat="44.75810677046364" lon="9.389631566957249"><ele>303.0</ele><time>2026-03-22T14:45:46.997Z</time></trkpt><trkpt lat="44.75825679925692" lon="9.389678152144768"><ele>303.0</ele><time>2026-03-22T14:45:47.997Z</time></trkpt><trkpt lat="44.75839316013766" lon="9.389718025286479"><ele>303.0</ele><time>2026-03-22T14:45:48.997Z</time></trkpt><trkpt lat="44.7585126566191" lon="9.38975025597253"><ele>303.0</ele><time>2026-03-22T14:45:50Z</time></trkpt><trkpt lat="44.75860542067412" lon="9.389773672959901"><ele>303.0</ele><time>2026-03-22T14:45:51Z</time></trkpt><trkpt lat="44.75868589944601" lon="9.389776767537256"><ele>303.0</ele><time>2026-03-22T14:45:52Z</time></trkpt><trkpt lat="44.758760152815064" lon="9.389736921646996"><ele>303.0</ele><time>2026-03-22T14:45:53Z</time></trkpt><trkpt lat="44.75880584050101" lon="9.389643578816173"><ele>299.0</ele><time>2026-03-22T14:45:54Z</time></trkpt><trkpt lat="44.758816707586945" lon="9.389516833245047"><ele>295.0</ele><time>2026-03-22T14:45:55Z</time></trkpt><trkpt lat="44.75878851912573" lon="9.389369150902873"><ele>291.0</ele><time>2026-03-22T14:45:56Z</time></trkpt><trkpt lat="44.7587235609545" lon="9.389213222168797"><ele>287.0</ele><time>2026-03-22T14:45:57Z</time></trkpt><trkpt lat="44.758636702692414" lon="9.389074315823732"><ele>287.0</ele><time>2026-03-22T14:45:58Z</time></trkpt><trkpt lat="44.758544608769796" lon="9.388940210383915"><ele>287.0</ele><time>2026-03-22T14:45:59Z</time></trkpt><trkpt lat="44.75847072702665" lon="9.388824224217059"><ele>287.0</ele><time>2026-03-22T14:46:00Z</time></trkpt><trkpt lat="44.75841199236267" lon="9.388714324213316"><ele>287.0</ele><time>2026-03-22T14:46:01Z</time></trkpt><trkpt lat="44.758364708376284" lon="9.38861660935328"><ele>287.0</ele><time>2026-03-22T14:46:02Z</time></trkpt><trkpt lat="44.75832810483084" lon="9.38852702076861"><ele>286.83333333333337</ele><time>2026-03-22T14:46:03Z</time></trkpt><trkpt lat="44.758287247725264" lon="9.388414777832306"><ele>286.6666666666667</ele><time>2026-03-22T14:46:05Z</time></trkpt><trkpt lat="44.75825022407602" lon="9.388319769558496"><ele>286.5</ele><time>2026-03-22T14:46:08Z</time></trkpt><trkpt lat="44.75822877871532" lon="9.388235208940767"><ele>286.3333333333333</ele><time>2026-03-22T14:46:10Z</time></trkpt><trkpt lat="44.75820580421857" lon="9.38811303958617"><ele>286.16666666666663</ele><time>2026-03-22T14:46:12Z</time></trkpt><trkpt lat="44.75818092900666" lon="9.387969672278079"><ele>286.0</ele><time>2026-03-22T14:46:14Z</time></trkpt><trkpt lat="44.758149367177566" lon="9.387818915871138"><ele>284.8</ele><time>2026-03-22T14:46:16Z</time></trkpt><trkpt lat="44.7580698615422" lon="9.387707616005743"><ele>283.6</ele><time>2026-03-22T14:46:18Z</time></trkpt><trkpt lat="44.75799286644564" lon="9.387625437684555"><ele>282.4</ele><time>2026-03-22T14:46:20Z</time></trkpt><trkpt lat="44.757901043719436" lon="9.38756646073251"><ele>281.2</ele><time>2026-03-22T14:46:22Z</time></trkpt><trkpt lat="44.757799765082616" lon="9.387504189125593"><ele>280.0</ele><time>2026-03-22T14:46:24Z</time></trkpt><trkpt lat="44.75789960433283" lon="9.387540068742346"><ele>280.0</ele><time>2026-03-22T14:46:28Z</time></trkpt><trkpt lat="44.75799790570328" lon="9.3876005092296"><ele>280.0</ele><time>2026-03-22T14:46:30Z</time></trkpt><trkpt lat="44.75805593644134" lon="9.387648274797439"><ele>280.0</ele><time>2026-03-22T14:46:31Z</time></trkpt><trkpt lat="44.75812252433826" lon="9.387707968558788"><ele>280.0</ele><time>2026-03-22T14:46:32Z</time></trkpt><trkpt lat="44.75817388649974" lon="9.38779370466966"><ele>280.0</ele><time>2026-03-22T14:46:33Z</time></trkpt><trkpt lat="44.758199278633285" lon="9.387878272286105"><ele>280.0</ele><time>2026-03-22T14:46:34Z</time></trkpt><trkpt lat="44.758370021304955" lon="9.38786987282935"><ele>280.0</ele><time>2026-03-22T14:46:34.999Z</time></trkpt><trkpt lat="44.75844353324073" lon="9.387937440483855"><ele>280.0</ele><time>2026-03-22T14:46:35.999Z</time></trkpt><trkpt lat="44.75850893674329" lon="9.387992123473811"><ele>280.0</ele><time>2026-03-22T14:46:36.999Z</time></trkpt><trkpt lat="44.758571259870436" lon="9.388022948695859"><ele>280.0</ele><time>2026-03-22T14:46:37.999Z</time></trkpt><trkpt lat="44.75865109729537" lon="9.388038636500804"><ele>280.0</ele><time>2026-03-22T14:46:38.999Z</time></trkpt><trkpt lat="44.75876119231464" lon="9.388038059024652"><ele>280.0</ele><time>2026-03-22T14:46:39.999Z</time></trkpt><trkpt lat="44.75887830746308" lon="9.388033422390073"><ele>279.4</ele><time>2026-03-22T14:46:40.999Z</time></trkpt><trkpt lat="44.75898670380322" lon="9.388045315277255"><ele>278.8</ele><time>2026-03-22T14:46:41.999Z</time></trkpt><trkpt lat="44.759097896757815" lon="9.388090014949425"><ele>278.2</ele><time>2026-03-22T14:46:42.999Z</time></trkpt><trkpt lat="44.759204996185886" lon="9.38814569860279"><ele>277.6</ele><time>2026-03-22T14:46:43.999Z</time></trkpt><trkpt lat="44.75930787728981" lon="9.388185853312262"><ele>277.0</ele><time>2026-03-22T14:46:44.999Z</time></trkpt><trkpt lat="44.75940672331869" lon="9.388200213397955"><ele>276.0</ele><time>2026-03-22T14:46:45.999Z</time></trkpt><trkpt lat="44.75950223729088" lon="9.388206380957861"><ele>275.0</ele><time>2026-03-22T14:46:46.999Z</time></trkpt><trkpt lat="44.75958994886925" lon="9.388217008426349"><ele>274.0</ele><time>2026-03-22T14:46:47.999Z</time></trkpt><trkpt lat="44.75967385892535" lon="9.388241586136715"><ele>273.0</ele><time>2026-03-22T14:46:48.999Z</time></trkpt><trkpt lat="44.75976128600704" lon="9.388237296576253"><ele>272.0</ele><time>2026-03-22T14:46:49.999Z</time></trkpt><trkpt lat="44.75984938224929" lon="9.3882368185428"><ele>271.0</ele><time>2026-03-22T14:46:50.999Z</time></trkpt><trkpt lat="44.75993620943433" lon="9.388226397950284"><ele>271.0</ele><time>2026-03-22T14:46:51.999Z</time></trkpt><trkpt lat="44.76003173151294" lon="9.38825514565729"><ele>271.0</ele><time>2026-03-22T14:46:52.999Z</time></trkpt><trkpt lat="44.76013034472273" lon="9.388290917551863"><ele>271.0</ele><time>2026-03-22T14:46:53.999Z</time></trkpt><trkpt lat="44.760242800596814" lon="9.388331690142662"><ele>271.0</ele><time>2026-03-22T14:46:54.999Z</time></trkpt><trkpt lat="44.76034884503954" lon="9.388374910497246"><ele>271.0</ele><time>2026-03-22T14:46:55.999Z</time></trkpt><trkpt lat="44.76044583083898" lon="9.388415717408078"><ele>270.6</ele><time>2026-03-22T14:46:56.999Z</time></trkpt><trkpt lat="44.76053139038841" lon="9.388458551606439"><ele>270.20000000000005</ele><time>2026-03-22T14:46:57.999Z</time></trkpt><trkpt lat="44.76061588622144" lon="9.38851564187295"><ele>269.79999999999995</ele><time>2026-03-22T14:46:58.999Z</time></trkpt><trkpt lat="44.76071283992414" lon="9.388607684011944"><ele>269.4</ele><time>2026-03-22T14:46:59.999Z</time></trkpt><trkpt lat="44.76082412235695" lon="9.388724913790202"><ele>269.0</ele><time>2026-03-22T14:47:00.999Z</time></trkpt><trkpt lat="44.760941608233736" lon="9.388875744707338"><ele>267.25</ele><time>2026-03-22T14:47:01.999Z</time></trkpt><trkpt lat="44.761057500107455" lon="9.389031256476214"><ele>265.5</ele><time>2026-03-22T14:47:02.999Z</time></trkpt><trkpt lat="44.76115649904309" lon="9.38916255664622"><ele>263.75</ele><time>2026-03-22T14:47:03.999Z</time></trkpt><trkpt lat="44.76123846799288" lon="9.38928239834433"><ele>262.0</ele><time>2026-03-22T14:47:04.999Z</time></trkpt><trkpt lat="44.761309230715035" lon="9.38939927696072"><ele>262.0</ele><time>2026-03-22T14:47:05.999Z</time></trkpt><trkpt lat="44.76135552156873" lon="9.389513972895378"><ele>262.0</ele><time>2026-03-22T14:47:06.999Z</time></trkpt><trkpt lat="44.76140821548768" lon="9.389642612682314"><ele>262.0</ele><time>2026-03-22T14:47:07.999Z</time></trkpt><trkpt lat="44.761463148930346" lon="9.389784909983018"><ele>262.0</ele><time>2026-03-22T14:47:08.999Z</time></trkpt><trkpt lat="44.76150964505581" lon="9.389941501048995"><ele>262.0</ele><time>2026-03-22T14:47:09.999Z</time></trkpt><trkpt lat="44.76154224660295" lon="9.390116142721114"><ele>262.5</ele><time>2026-03-22T14:47:10.999Z</time></trkpt><trkpt lat="44.7615713783789" lon="9.390285876567644"><ele>263.0</ele><time>2026-03-22T14:47:11.999Z</time></trkpt><trkpt lat="44.76162072647391" lon="9.390434514380939"><ele>263.5</ele><time>2026-03-22T14:47:12.999Z</time></trkpt><trkpt lat="44.761661904509175" lon="9.390580292009648"><ele>264.0</ele><time>2026-03-22T14:47:13.999Z</time></trkpt><trkpt lat="44.761701179633086" lon="9.390755545140783"><ele>264.25</ele><time>2026-03-22T14:47:14.999Z</time></trkpt><trkpt lat="44.76175537439675" lon="9.390912517675764"><ele>264.5</ele><time>2026-03-22T14:47:15.999Z</time></trkpt><trkpt lat="44.761810934289024" lon="9.391060054283907"><ele>264.75</ele><time>2026-03-22T14:47:16.999Z</time></trkpt><trkpt lat="44.761869734043984" lon="9.391205345850134"><ele>265.0</ele><time>2026-03-22T14:47:17.998Z</time></trkpt><trkpt lat="44.76192852099106" lon="9.391355016442615"><ele>264.5</ele><time>2026-03-22T14:47:18.998Z</time></trkpt><trkpt lat="44.76198027201978" lon="9.391516325670553"><ele>264.0</ele><time>2026-03-22T14:47:19.998Z</time></trkpt><trkpt lat="44.76205135815041" lon="9.391668612496678"><ele>263.5</ele><time>2026-03-22T14:47:20.998Z</time></trkpt><trkpt lat="44.76213854839461" lon="9.391791889708216"><ele>263.0</ele><time>2026-03-22T14:47:21.998Z</time></trkpt><trkpt lat="44.762177092957" lon="9.391955964528085"><ele>263.0</ele><time>2026-03-22T14:47:22.998Z</time></trkpt><trkpt lat="44.76223109253459" lon="9.392104615186518"><ele>263.0</ele><time>2026-03-22T14:47:23.998Z</time></trkpt><trkpt lat="44.762292651287595" lon="9.392249476037028"><ele>263.0</ele><time>2026-03-22T14:47:24.998Z</time></trkpt><trkpt lat="44.76237463296851" lon="9.392379529762069"><ele>263.0</ele><time>2026-03-22T14:47:25.998Z</time></trkpt><trkpt lat="44.76246699346061" lon="9.392501893923095"><ele>263.25</ele><time>2026-03-22T14:47:26.998Z</time></trkpt><trkpt lat="44.76256554898942" lon="9.392616138403737"><ele>263.5</ele><time>2026-03-22T14:47:27.998Z</time></trkpt><trkpt lat="44.76266556393209" lon="9.392710725440695"><ele>263.75</ele><time>2026-03-22T14:47:28.998Z</time></trkpt><trkpt lat="44.76276838681565" lon="9.39278010412028"><ele>264.0</ele><time>2026-03-22T14:47:29.998Z</time></trkpt><trkpt lat="44.762879419739534" lon="9.392810211709227"><ele>264.0</ele><time>2026-03-22T14:47:30.998Z</time></trkpt><trkpt lat="44.76298907730941" lon="9.392877650607781"><ele>264.0</ele><time>2026-03-22T14:47:31.998Z</time></trkpt><trkpt lat="44.763086722609245" lon="9.392925828348755"><ele>264.0</ele><time>2026-03-22T14:47:32.998Z</time></trkpt><trkpt lat="44.76316119161709" lon="9.39298683662249"><ele>264.0</ele><time>2026-03-22T14:47:33.998Z</time></trkpt><trkpt lat="44.76322064792689" lon="9.393059021130654"><ele>264.0</ele><time>2026-03-22T14:47:34.998Z</time></trkpt><trkpt lat="44.76327475519873" lon="9.393130652202572"><ele>265.8</ele><time>2026-03-22T14:47:35.998Z</time></trkpt><trkpt lat="44.76326688077481" lon="9.393237580977383"><ele>267.59999999999997</ele><time>2026-03-22T14:47:36.998Z</time></trkpt><trkpt lat="44.763376405577894" lon="9.393313144791763"><ele>269.4</ele><time>2026-03-22T14:47:38.998Z</time></trkpt><trkpt lat="44.76345509669071" lon="9.39328160217019"><ele>271.2</ele><time>2026-03-22T14:47:39.998Z</time></trkpt><trkpt lat="44.76352834001982" lon="9.393236787440753"><ele>273.0</ele><time>2026-03-22T14:47:40.998Z</time></trkpt><trkpt lat="44.763611474267734" lon="9.39314421097119"><ele>273.0</ele><time>2026-03-22T14:47:41.998Z</time></trkpt><trkpt lat="44.763709512255794" lon="9.39305815338662"><ele>273.0</ele><time>2026-03-22T14:47:42.998Z</time></trkpt><trkpt lat="44.76378664038229" lon="9.393079290652311"><ele>273.0</ele><time>2026-03-22T14:47:43.998Z</time></trkpt><trkpt lat="44.76390759117501" lon="9.393095448070943"><ele>273.0</ele><time>2026-03-22T14:47:45.998Z</time></trkpt><trkpt lat="44.76398384306269" lon="9.39313260924564"><ele>273.0</ele><time>2026-03-22T14:47:46.998Z</time></trkpt><trkpt lat="44.76407337483854" lon="9.393180175850793"><ele>273.0</ele><time>2026-03-22T14:47:47.998Z</time></trkpt><trkpt lat="44.76415051783119" lon="9.393239673549663"><ele>273.0</ele><time>2026-03-22T14:47:48.998Z</time></trkpt><trkpt lat="44.76423229519123" lon="9.393320364276757"><ele>273.0</ele><time>2026-03-22T14:47:49.998Z</time></trkpt><trkpt lat="44.76431433786262" lon="9.393415367118939"><ele>273.0</ele><time>2026-03-22T14:47:50.998Z</time></trkpt><trkpt lat="44.7643984799773" lon="9.393514069401343"><ele>273.0</ele><time>2026-03-22T14:47:51.998Z</time></trkpt><trkpt lat="44.76449625641589" lon="9.393601502301664"><ele>273.6</ele><time>2026-03-22T14:47:52.998Z</time></trkpt><trkpt lat="44.76458025591111" lon="9.393710526663027"><ele>274.20000000000005</ele><time>2026-03-22T14:47:53.998Z</time></trkpt><trkpt lat="44.76465329940857" lon="9.393789074073863"><ele>274.8</ele><time>2026-03-22T14:47:54.998Z</time></trkpt><trkpt lat="44.76473403245809" lon="9.393873643809007"><ele>275.40000000000003</ele><time>2026-03-22T14:47:56Z</time></trkpt><trkpt lat="44.76481582658878" lon="9.393962251273022"><ele>276.0</ele><time>2026-03-22T14:47:57.001Z</time></trkpt><trkpt lat="44.76489468036189" lon="9.394043070417972"><ele>276.0</ele><time>2026-03-22T14:47:58Z</time></trkpt><trkpt lat="44.76495605238547" lon="9.39410407066688"><ele>276.0</ele><time>2026-03-22T14:47:59.001Z</time></trkpt><trkpt lat="44.76501579695966" lon="9.394149312862636"><ele>276.0</ele><time>2026-03-22T14:48:00.001Z</time></trkpt><trkpt lat="44.7651148217322" lon="9.394219459725331"><ele>276.0</ele><time>2026-03-22T14:48:02.001Z</time></trkpt><trkpt lat="44.76519230734503" lon="9.394223289309267"><ele>276.0</ele><time>2026-03-22T14:48:04.001Z</time></trkpt><trkpt lat="44.765246612016206" lon="9.394143272685705"><ele>276.0</ele><time>2026-03-22T14:48:06.001Z</time></trkpt><trkpt lat="44.76529299242579" lon="9.393977947656374"><ele>277.0</ele><time>2026-03-22T14:48:08Z</time></trkpt><trkpt lat="44.765324973451456" lon="9.393877613789533"><ele>278.0</ele><time>2026-03-22T14:48:09Z</time></trkpt><trkpt lat="44.76537573835747" lon="9.393722050942223"><ele>279.0</ele><time>2026-03-22T14:48:10Z</time></trkpt><trkpt lat="44.76538505282676" lon="9.393572949983161"><ele>280.0</ele><time>2026-03-22T14:48:10.999Z</time></trkpt><trkpt lat="44.76541722106057" lon="9.393436669985652"><ele>281.0</ele><time>2026-03-22T14:48:11.999Z</time></trkpt><trkpt lat="44.76543287215129" lon="9.393306420788916"><ele>281.0</ele><time>2026-03-22T14:48:12.999Z</time></trkpt><trkpt lat="44.765451540188266" lon="9.393182189569874"><ele>281.0</ele><time>2026-03-22T14:48:13.999Z</time></trkpt><trkpt lat="44.76547889903046" lon="9.393060139336281"><ele>281.0</ele><time>2026-03-22T14:48:14.999Z</time></trkpt><trkpt lat="44.765515483752324" lon="9.392947653350493"><ele>281.0</ele><time>2026-03-22T14:48:15.999Z</time></trkpt><trkpt lat="44.76557209701888" lon="9.392844255762949"><ele>281.0</ele><time>2026-03-22T14:48:16.999Z</time></trkpt><trkpt lat="44.76564228039017" lon="9.392730821838741"><ele>278.0</ele><time>2026-03-22T14:48:17.999Z</time></trkpt><trkpt lat="44.765703012863725" lon="9.392640078059713"><ele>275.0</ele><time>2026-03-22T14:48:18.999Z</time></trkpt><trkpt lat="44.76575651776308" lon="9.392588229352537"><ele>272.0</ele><time>2026-03-22T14:48:19.999Z</time></trkpt><trkpt lat="44.765899743507674" lon="9.392570618867648"><ele>269.0</ele><time>2026-03-22T14:48:21.999Z</time></trkpt><trkpt lat="44.766004872850196" lon="9.392561932469691"><ele>266.0</ele><time>2026-03-22T14:48:22.999Z</time></trkpt><trkpt lat="44.76610873115162" lon="9.392571659377909"><ele>265.33333333333337</ele><time>2026-03-22T14:48:23.999Z</time></trkpt><trkpt lat="44.76621215872245" lon="9.392603167679864"><ele>264.6666666666667</ele><time>2026-03-22T14:48:24.999Z</time></trkpt><trkpt lat="44.76631219204355" lon="9.392644006323096"><ele>264.0</ele><time>2026-03-22T14:48:25.999Z</time></trkpt><trkpt lat="44.76639006192898" lon="9.392685269693466"><ele>263.3333333333333</ele><time>2026-03-22T14:48:26.999Z</time></trkpt><trkpt lat="44.76645509744154" lon="9.392740784233425"><ele>262.66666666666663</ele><time>2026-03-22T14:48:27.999Z</time></trkpt><trkpt lat="44.766513762913426" lon="9.392812457475513"><ele>262.0</ele><time>2026-03-22T14:48:28.999Z</time></trkpt><trkpt lat="44.766575086365734" lon="9.39286246353142"><ele>262.0</ele><time>2026-03-22T14:48:29.999Z</time></trkpt><trkpt lat="44.766623837178386" lon="9.392924633640794"><ele>262.0</ele><time>2026-03-22T14:48:30.999Z</time></trkpt><trkpt lat="44.766664809280066" lon="9.392994780083761"><ele>262.0</ele><time>2026-03-22T14:48:31.999Z</time></trkpt><trkpt lat="44.766733219554375" lon="9.393030482669595"><ele>262.0</ele><time>2026-03-22T14:48:32.999Z</time></trkpt><trkpt lat="44.766808109788506" lon="9.393034331839186"><ele>262.0</ele><time>2026-03-22T14:48:33.999Z</time></trkpt><trkpt lat="44.76687639189519" lon="9.393040810438453"><ele>262.0</ele><time>2026-03-22T14:48:34.999Z</time></trkpt><trkpt lat="44.767001218144145" lon="9.393020104516692"><ele>261.16666666666663</ele><time>2026-03-22T14:48:36.999Z</time></trkpt><trkpt lat="44.767059855804455" lon="9.39294979534178"><ele>260.3333333333333</ele><time>2026-03-22T14:48:37.999Z</time></trkpt><trkpt lat="44.767114560122316" lon="9.392889068835954"><ele>259.5</ele><time>2026-03-22T14:48:38.999Z</time></trkpt><trkpt lat="44.76716483456892" lon="9.392828375851991"><ele>258.6666666666667</ele><time>2026-03-22T14:48:39.999Z</time></trkpt><trkpt lat="44.76724145720669" lon="9.392769701498167"><ele>257.83333333333337</ele><time>2026-03-22T14:48:41.999Z</time></trkpt><trkpt lat="44.76734409041381" lon="9.392756018713781"><ele>257.0</ele><time>2026-03-22T14:48:43.999Z</time></trkpt><trkpt lat="44.76743947207217" lon="9.392785927404658"><ele>257.0</ele><time>2026-03-22T14:48:44.999Z</time></trkpt><trkpt lat="44.76757674193963" lon="9.392806605183054"><ele>257.0</ele><time>2026-03-22T14:48:45.999Z</time></trkpt><trkpt lat="44.76776665738862" lon="9.392846060921563"><ele>257.0</ele><time>2026-03-22T14:48:46.999Z</time></trkpt><trkpt lat="44.76798950634668" lon="9.392896632815537"><ele>257.0</ele><time>2026-03-22T14:48:47.999Z</time></trkpt><trkpt lat="44.76817519818471" lon="9.392919465643025"><ele>257.0</ele><time>2026-03-22T14:48:48.999Z</time></trkpt><trkpt lat="44.76835358211135" lon="9.39292643365755"><ele>257.0</ele><time>2026-03-22T14:48:49.999Z</time></trkpt><trkpt lat="44.768529149456825" lon="9.392944966495758"><ele>257.33333333333337</ele><time>2026-03-22T14:48:50.999Z</time></trkpt><trkpt lat="44.76869654459805" lon="9.392946699548379"><ele>257.6666666666667</ele><time>2026-03-22T14:48:51.999Z</time></trkpt><trkpt lat="44.76885557515083" lon="9.392951182837178"><ele>258.0</ele><time>2026-03-22T14:48:52.999Z</time></trkpt><trkpt lat="44.76900335791977" lon="9.39296333766137"><ele>258.0</ele><time>2026-03-22T14:48:53.999Z</time></trkpt><trkpt lat="44.769128509547386" lon="9.392990488753712"><ele>258.0</ele><time>2026-03-22T14:48:54.998Z</time></trkpt><trkpt lat="44.769223058613164" lon="9.393071091858953"><ele>258.0</ele><time>2026-03-22T14:48:55.998Z</time></trkpt><trkpt lat="44.76929790906073" lon="9.393169858917686"><ele>258.0</ele><time>2026-03-22T14:48:56.998Z</time></trkpt><trkpt lat="44.769370072849675" lon="9.393277939985037"><ele>258.0</ele><time>2026-03-22T14:48:57.998Z</time></trkpt><trkpt lat="44.769450637227166" lon="9.393338621780721"><ele>262.2</ele><time>2026-03-22T14:48:58.998Z</time></trkpt><trkpt lat="44.769513150583094" lon="9.393398914421518"><ele>266.4</ele><time>2026-03-22T14:48:59.998Z</time></trkpt><trkpt lat="44.76959277514196" lon="9.393434641054917"><ele>270.59999999999997</ele><time>2026-03-22T14:49:01.998Z</time></trkpt><trkpt lat="44.76969197974411" lon="9.3934906727154"><ele>274.8</ele><time>2026-03-22T14:49:03.998Z</time></trkpt><trkpt lat="44.769812357831995" lon="9.393504579286905"><ele>279.0</ele><time>2026-03-22T14:49:04.998Z</time></trkpt><trkpt lat="44.7699250702555" lon="9.393518587810835"><ele>279.0</ele><time>2026-03-22T14:49:05.998Z</time></trkpt><trkpt lat="44.77001202302617" lon="9.393504964243292"><ele>279.0</ele><time>2026-03-22T14:49:06.998Z</time></trkpt><trkpt lat="44.770075802906554" lon="9.393510315782196"><ele>279.0</ele><time>2026-03-22T14:49:07.998Z</time></trkpt><trkpt lat="44.7701923445594" lon="9.393534275859702"><ele>279.0</ele><time>2026-03-22T14:49:09.998Z</time></trkpt><trkpt lat="44.77031206931709" lon="9.39357788915135"><ele>279.0</ele><time>2026-03-22T14:49:11.998Z</time></trkpt><trkpt lat="44.77043093236372" lon="9.393649727195024"><ele>279.5</ele><time>2026-03-22T14:49:13.998Z</time></trkpt><trkpt lat="44.770497640481004" lon="9.39368933567629"><ele>280.0</ele><time>2026-03-22T14:49:14.998Z</time></trkpt><trkpt lat="44.77055749604108" lon="9.393734950449174"><ele>280.5</ele><time>2026-03-22T14:49:15.998Z</time></trkpt><trkpt lat="44.770624196946244" lon="9.393779854459446"><ele>281.0</ele><time>2026-03-22T14:49:16.998Z</time></trkpt><trkpt lat="44.7706654902797" lon="9.393871934584036"><ele>281.5</ele><time>2026-03-22T14:49:17.998Z</time></trkpt><trkpt lat="44.77070092726585" lon="9.39404157706528"><ele>282.0</ele><time>2026-03-22T14:49:19.998Z</time></trkpt><trkpt lat="44.77072857389816" lon="9.39414669278544"><ele>284.3333333333333</ele><time>2026-03-22T14:49:21.998Z</time></trkpt><trkpt lat="44.77079385811055" lon="9.394221100939374"><ele>286.6666666666667</ele><time>2026-03-22T14:50:31.999Z</time></trkpt><trkpt lat="44.77084311596129" lon="9.394280248275962"><ele>289.0</ele><time>2026-03-22T14:50:33.999Z</time></trkpt><trkpt lat="44.77091941618364" lon="9.394381779422416"><ele>291.33333333333337</ele><time>2026-03-22T14:50:36.999Z</time></trkpt><trkpt lat="44.7709659882136" lon="9.394449890815299"><ele>293.6666666666667</ele><time>2026-03-22T14:50:38.999Z</time></trkpt><trkpt lat="44.771031982954334" lon="9.394490503001448"><ele>296.0</ele><time>2026-03-22T14:50:41.999Z</time></trkpt><trkpt lat="44.77110764090382" lon="9.394536893776431"><ele>296.0</ele><time>2026-03-22T14:50:44.999Z</time></trkpt><trkpt lat="44.77115661230663" lon="9.394602863947277"><ele>296.0</ele><time>2026-03-22T14:50:45.999Z</time></trkpt><trkpt lat="44.77122887488803" lon="9.394646832264922"><ele>296.0</ele><time>2026-03-22T14:50:46.999Z</time></trkpt><trkpt lat="44.771297559154974" lon="9.39468695797581"><ele>296.0</ele><time>2026-03-22T14:50:47.999Z</time></trkpt><trkpt lat="44.77136325956436" lon="9.394730836918756"><ele>296.0</ele><time>2026-03-22T14:50:48.999Z</time></trkpt><trkpt lat="44.77142159647879" lon="9.394796520797085"><ele>296.0</ele><time>2026-03-22T14:50:49.999Z</time></trkpt><trkpt lat="44.771467952391774" lon="9.39489965195223"><ele>299.0</ele><time>2026-03-22T14:50:50.999Z</time></trkpt><trkpt lat="44.771522829975495" lon="9.395029218833669"><ele>302.0</ele><time>2026-03-22T14:50:51.999Z</time></trkpt><trkpt lat="44.77158087138766" lon="9.395179765695111"><ele>305.0</ele><time>2026-03-22T14:50:52.999Z</time></trkpt><trkpt lat="44.77161682033131" lon="9.395289081689837"><ele>308.0</ele><time>2026-03-22T14:50:53.999Z</time></trkpt><trkpt lat="44.77163923142925" lon="9.395382285842565"><ele>311.0</ele><time>2026-03-22T14:50:54.999Z</time></trkpt><trkpt lat="44.771636259752164" lon="9.395515993234717"><ele>313.4</ele><time>2026-03-22T14:50:55.999Z</time></trkpt><trkpt lat="44.77162655753522" lon="9.395714610727481"><ele>315.8</ele><time>2026-03-22T14:50:56.999Z</time></trkpt><trkpt lat="44.77163427330687" lon="9.395888524266523"><ele>318.2</ele><time>2026-03-22T14:50:57.999Z</time></trkpt><trkpt lat="44.771639368548676" lon="9.396004741568404"><ele>320.59999999999997</ele><time>2026-03-22T14:50:58.999Z</time></trkpt><trkpt lat="44.771656110477856" lon="9.39611512075889"><ele>323.0</ele><time>2026-03-22T14:50:59.999Z</time></trkpt><trkpt lat="44.77175181687352" lon="9.396225692316769"><ele>322.75</ele><time>2026-03-22T14:51:00.999Z</time></trkpt><trkpt lat="44.77185278351153" lon="9.396366539342663"><ele>322.5</ele><time>2026-03-22T14:51:01.999Z</time></trkpt><trkpt lat="44.771964468571305" lon="9.396521589804756"><ele>322.25</ele><time>2026-03-22T14:51:02.999Z</time></trkpt><trkpt lat="44.77206922031399" lon="9.396667759819506"><ele>322.0</ele><time>2026-03-22T14:51:03.999Z</time></trkpt><trkpt lat="44.772187196884346" lon="9.396800010817792"><ele>322.0</ele><time>2026-03-22T14:51:04.998Z</time></trkpt><trkpt lat="44.77232146646907" lon="9.396889191597605"><ele>322.0</ele><time>2026-03-22T14:51:05.998Z</time></trkpt><trkpt lat="44.772395163690284" lon="9.397002351563298"><ele>322.0</ele><time>2026-03-22T14:51:06.998Z</time></trkpt><trkpt lat="44.772457462209836" lon="9.397105324348376"><ele>322.0</ele><time>2026-03-22T14:51:07.998Z</time></trkpt><trkpt lat="44.77248797446875" lon="9.397188874090682"><ele>322.0</ele><time>2026-03-22T14:51:08.998Z</time></trkpt><trkpt lat="44.772445074957204" lon="9.397371454124231"><ele>325.20000000000005</ele><time>2026-03-22T14:51:10.998Z</time></trkpt><trkpt lat="44.77240770858811" lon="9.397500325540717"><ele>328.4</ele><time>2026-03-22T14:51:11.998Z</time></trkpt><trkpt lat="44.772374350351434" lon="9.397641809660472"><ele>331.6</ele><time>2026-03-22T14:51:12.998Z</time></trkpt><trkpt lat="44.772361681800405" lon="9.397760658833322"><ele>334.79999999999995</ele><time>2026-03-22T14:51:13.998Z</time></trkpt><trkpt lat="44.772382981180954" lon="9.397910502117453"><ele>338.0</ele><time>2026-03-22T14:51:14.998Z</time></trkpt><trkpt lat="44.77244942775217" lon="9.398047734095465"><ele>337.25</ele><time>2026-03-22T14:51:15.998Z</time></trkpt><trkpt lat="44.77255310405786" lon="9.398144824628021"><ele>336.5</ele><time>2026-03-22T14:51:16.998Z</time></trkpt><trkpt lat="44.77264624436715" lon="9.398235649315406"><ele>335.75</ele><time>2026-03-22T14:51:17.998Z</time></trkpt><trkpt lat="44.77273824584936" lon="9.398332889278246"><ele>335.0</ele><time>2026-03-22T14:51:18.998Z</time></trkpt><trkpt lat="44.77284281578264" lon="9.39838014760413"><ele>335.0</ele><time>2026-03-22T14:51:19.998Z</time></trkpt><trkpt lat="44.772912039036065" lon="9.398457164197678"><ele>335.0</ele><time>2026-03-22T14:51:20.998Z</time></trkpt><trkpt lat="44.77295713856608" lon="9.398574866771716"><ele>335.0</ele><time>2026-03-22T14:51:21.998Z</time></trkpt><trkpt lat="44.77296552573852" lon="9.398723640439886"><ele>335.0</ele><time>2026-03-22T14:51:22.998Z</time></trkpt><trkpt lat="44.772908486288436" lon="9.39888583688434"><ele>335.0</ele><time>2026-03-22T14:51:23.998Z</time></trkpt><trkpt lat="44.77286467975679" lon="9.399045097279188"><ele>336.0</ele><time>2026-03-22T14:51:24.998Z</time></trkpt><trkpt lat="44.772789233544124" lon="9.399163054581559"><ele>337.0</ele><time>2026-03-22T14:51:25.998Z</time></trkpt><trkpt lat="44.77270660195296" lon="9.399289170067078"><ele>338.0</ele><time>2026-03-22T14:51:26.998Z</time></trkpt><trkpt lat="44.77263361982118" lon="9.39939586768654"><ele>339.0</ele><time>2026-03-22T14:51:27.998Z</time></trkpt><trkpt lat="44.77260337777155" lon="9.399498311300693"><ele>340.0</ele><time>2026-03-22T14:51:28.998Z</time></trkpt><trkpt lat="44.77257111333839" lon="9.399578754801302"><ele>340.5</ele><time>2026-03-22T14:51:29.998Z</time></trkpt><trkpt lat="44.77258872854328" lon="9.399725279975124"><ele>341.0</ele><time>2026-03-22T14:51:30.998Z</time></trkpt><trkpt lat="44.77270407898846" lon="9.399888975397744"><ele>341.5</ele><time>2026-03-22T14:51:31.998Z</time></trkpt><trkpt lat="44.77277250480524" lon="9.400123858319336"><ele>342.0</ele><time>2026-03-22T14:51:32.998Z</time></trkpt><trkpt lat="44.77286583837105" lon="9.400402532235638"><ele>347.3333333333333</ele><time>2026-03-22T14:51:33.998Z</time></trkpt><trkpt lat="44.77295548891429" lon="9.400664921126216"><ele>352.66666666666663</ele><time>2026-03-22T14:51:34.998Z</time></trkpt><trkpt lat="44.773038964432345" lon="9.400910833087615"><ele>358.0</ele><time>2026-03-22T14:51:35.998Z</time></trkpt><trkpt lat="44.77309949927077" lon="9.401102993916151"><ele>358.0</ele><time>2026-03-22T14:51:36.998Z</time></trkpt><trkpt lat="44.773153968173894" lon="9.401287735741741"><ele>358.0</ele><time>2026-03-22T14:51:37.998Z</time></trkpt><trkpt lat="44.77320598095339" lon="9.401458135115242"><ele>358.0</ele><time>2026-03-22T14:51:38.998Z</time></trkpt><trkpt lat="44.77324948336393" lon="9.40160419597625"><ele>358.0</ele><time>2026-03-22T14:51:39.998Z</time></trkpt><trkpt lat="44.77328275929951" lon="9.401745977119349"><ele>360.4</ele><time>2026-03-22T14:51:40.998Z</time></trkpt><trkpt lat="44.773304849128436" lon="9.401890617990322"><ele>362.79999999999995</ele><time>2026-03-22T14:51:41.998Z</time></trkpt><trkpt lat="44.773307767852664" lon="9.402024302101875"><ele>365.2</ele><time>2026-03-22T14:51:42.998Z</time></trkpt><trkpt lat="44.773309032644" lon="9.402144240743961"><ele>367.6</ele><time>2026-03-22T14:51:43.998Z</time></trkpt><trkpt lat="44.77333396386808" lon="9.402235036850335"><ele>370.0</ele><time>2026-03-22T14:51:44.998Z</time></trkpt><trkpt lat="44.77336747598695" lon="9.40236525731992"><ele>368.0</ele><time>2026-03-22T14:51:46.998Z</time></trkpt><trkpt lat="44.773450374460445" lon="9.402459307141571"><ele>366.0</ele><time>2026-03-22T14:51:48.997Z</time></trkpt><trkpt lat="44.77355263771623" lon="9.402554798261129"><ele>364.0</ele><time>2026-03-22T14:51:50.997Z</time></trkpt><trkpt lat="44.77360289844815" lon="9.40263769863202"><ele>362.0</ele><time>2026-03-22T14:51:51.997Z</time></trkpt><trkpt lat="44.77360957688905" lon="9.40278875304518"><ele>360.0</ele><time>2026-03-22T14:51:52.997Z</time></trkpt><trkpt lat="44.77363462827845" lon="9.40294370684635"><ele>365.6</ele><time>2026-03-22T14:51:53.997Z</time></trkpt><trkpt lat="44.77365686529141" lon="9.40307180666795"><ele>371.2</ele><time>2026-03-22T14:51:54.997Z</time></trkpt><trkpt lat="44.77367530604186" lon="9.403167424140694"><ele>376.79999999999995</ele><time>2026-03-22T14:51:55.997Z</time></trkpt><trkpt lat="44.77372407683509" lon="9.403276448132365"><ele>382.4</ele><time>2026-03-22T14:51:56.997Z</time></trkpt><trkpt lat="44.77382124415402" lon="9.403358308205789"><ele>388.0</ele><time>2026-03-22T14:51:57.997Z</time></trkpt><trkpt lat="44.773900138037725" lon="9.403441379553197"><ele>388.0</ele><time>2026-03-22T14:51:58.997Z</time></trkpt><trkpt lat="44.7739869926165" lon="9.403490246963413"><ele>388.0</ele><time>2026-03-22T14:51:59.997Z</time></trkpt><trkpt lat="44.77410340163702" lon="9.403427822817095"><ele>388.0</ele><time>2026-03-22T14:52:00.997Z</time></trkpt><trkpt lat="44.774208781444074" lon="9.403397185212079"><ele>388.0</ele><time>2026-03-22T14:52:01.997Z</time></trkpt><trkpt lat="44.77428089100699" lon="9.403413972566593"><ele>388.0</ele><time>2026-03-22T14:52:02.997Z</time></trkpt><trkpt lat="44.77434363320403" lon="9.403550765597911"><ele>388.0</ele><time>2026-03-22T14:52:04.997Z</time></trkpt><trkpt lat="44.774323868908795" lon="9.40367417205322"><ele>388.0</ele><time>2026-03-22T14:52:05.997Z</time></trkpt><trkpt lat="44.77436063573355" lon="9.40384521355767"><ele>388.0</ele><time>2026-03-22T14:52:06.997Z</time></trkpt><trkpt lat="44.77438640643456" lon="9.404018660206562"><ele>388.0</ele><time>2026-03-22T14:52:08Z</time></trkpt><trkpt lat="44.774400279545745" lon="9.404155073723736"><ele>388.0</ele><time>2026-03-22T14:52:09Z</time></trkpt><trkpt lat="44.77441458440122" lon="9.404244544851121"><ele>388.0</ele><time>2026-03-22T14:52:10Z</time></trkpt><trkpt lat="44.77435241628816" lon="9.404217144850472"><ele>388.0</ele><time>2026-03-22T14:52:13Z</time></trkpt><trkpt lat="44.77431670136969" lon="9.404064876719962"><ele>388.0</ele><time>2026-03-22T14:52:15Z</time></trkpt><trkpt lat="44.77429906595868" lon="9.403928237481592"><ele>388.0</ele><time>2026-03-22T14:52:16Z</time></trkpt><trkpt lat="44.77425785081907" lon="9.403824202310807"><ele>388.0</ele><time>2026-03-22T14:52:17Z</time></trkpt><trkpt lat="44.77419391409127" lon="9.403739510329956"><ele>388.0</ele><time>2026-03-22T14:52:18Z</time></trkpt><trkpt lat="44.77410946916636" lon="9.403692446559049"><ele>388.0</ele><time>2026-03-22T14:52:19Z</time></trkpt><trkpt lat="44.77399398660106" lon="9.403689391085422"><ele>388.0</ele><time>2026-03-22T14:52:20Z</time></trkpt><trkpt lat="44.773853980719515" lon="9.403702741680993"><ele>388.0</ele><time>2026-03-22T14:52:21Z</time></trkpt><trkpt lat="44.77370829557971" lon="9.403683306335243"><ele>388.0</ele><time>2026-03-22T14:52:22Z</time></trkpt><trkpt lat="44.77358752856594" lon="9.403595578717129"><ele>388.0</ele><time>2026-03-22T14:52:23Z</time></trkpt><trkpt lat="44.77348589555066" lon="9.403488970861392"><ele>388.0</ele><time>2026-03-22T14:52:24Z</time></trkpt><trkpt lat="44.77339052976542" lon="9.40341109297943"><ele>388.0</ele><time>2026-03-22T14:52:25Z</time></trkpt><trkpt lat="44.773324160348096" lon="9.40331688681393"><ele>391.33333333333337</ele><time>2026-03-22T14:52:26Z</time></trkpt><trkpt lat="44.77325186195516" lon="9.40326464589809"><ele>394.6666666666667</ele><time>2026-03-22T14:52:27Z</time></trkpt><trkpt lat="44.77318775193696" lon="9.403225814849066"><ele>398.0</ele><time>2026-03-22T14:52:28Z</time></trkpt><trkpt lat="44.77311684449956" lon="9.403233620010111"><ele>401.33333333333337</ele><time>2026-03-22T14:52:29Z</time></trkpt><trkpt lat="44.77304641786875" lon="9.403273414029615"><ele>404.6666666666667</ele><time>2026-03-22T14:52:30Z</time></trkpt><trkpt lat="44.77298477632519" lon="9.403379730293501"><ele>408.0</ele><time>2026-03-22T14:52:31Z</time></trkpt><trkpt lat="44.77291691799378" lon="9.403508964485813"><ele>408.0</ele><time>2026-03-22T14:52:32Z</time></trkpt><trkpt lat="44.772859716644426" lon="9.40362714246362"><ele>408.0</ele><time>2026-03-22T14:52:33Z</time></trkpt><trkpt lat="44.77281481003266" lon="9.403719920282663"><ele>408.0</ele><time>2026-03-22T14:52:34Z</time></trkpt><trkpt lat="44.772755665255005" lon="9.40380164706183"><ele>408.0</ele><time>2026-03-22T14:52:36Z</time></trkpt><trkpt lat="44.77266327521939" lon="9.403912914631615"><ele>408.0</ele><time>2026-03-22T14:52:38Z</time></trkpt><trkpt lat="44.772591431411776" lon="9.403998838105482"><ele>411.59999999999997</ele><time>2026-03-22T14:52:39Z</time></trkpt><trkpt lat="44.772508345224225" lon="9.404103786570927"><ele>415.2</ele><time>2026-03-22T14:52:39.999Z</time></trkpt><trkpt lat="44.77242409128483" lon="9.40420867792863"><ele>418.8</ele><time>2026-03-22T14:52:40.999Z</time></trkpt><trkpt lat="44.77234591976485" lon="9.40430196996276"><ele>422.4</ele><time>2026-03-22T14:52:41.999Z</time></trkpt><trkpt lat="44.77226914633586" lon="9.404389063019744"><ele>426.0</ele><time>2026-03-22T14:52:42.999Z</time></trkpt><trkpt lat="44.772188229774514" lon="9.40447494778794"><ele>426.0</ele><time>2026-03-22T14:52:43.999Z</time></trkpt><trkpt lat="44.77211278690054" lon="9.404525305441386"><ele>426.0</ele><time>2026-03-22T14:52:44.999Z</time></trkpt><trkpt lat="44.77203353869564" lon="9.404522213395758"><ele>426.0</ele><time>2026-03-22T14:52:45.999Z</time></trkpt><trkpt lat="44.77195966090179" lon="9.404512330771984"><ele>426.0</ele><time>2026-03-22T14:52:46.999Z</time></trkpt><trkpt lat="44.771888965604674" lon="9.404505511688145"><ele>426.0</ele><time>2026-03-22T14:52:47.999Z</time></trkpt><trkpt lat="44.771809672785075" lon="9.404516263430919"><ele>426.0</ele><time>2026-03-22T14:52:48.999Z</time></trkpt><trkpt lat="44.77171711896905" lon="9.404562071379933"><ele>426.5</ele><time>2026-03-22T14:52:49.999Z</time></trkpt><trkpt lat="44.771613020941935" lon="9.404648250565629"><ele>427.0</ele><time>2026-03-22T14:52:50.999Z</time></trkpt><trkpt lat="44.77149200011579" lon="9.404756736195635"><ele>427.5</ele><time>2026-03-22T14:52:51.999Z</time></trkpt><trkpt lat="44.77138148749296" lon="9.40481653635024"><ele>428.0</ele><time>2026-03-22T14:52:52.999Z</time></trkpt><trkpt lat="44.77128723153925" lon="9.404821608194421"><ele>430.5</ele><time>2026-03-22T14:52:53.999Z</time></trkpt><trkpt lat="44.77117701661333" lon="9.404767333314764"><ele>433.0</ele><time>2026-03-22T14:52:54.999Z</time></trkpt><trkpt lat="44.77104116291015" lon="9.404729001729745"><ele>435.5</ele><time>2026-03-22T14:52:55.999Z</time></trkpt><trkpt lat="44.770917135210816" lon="9.404675394920556"><ele>438.0</ele><time>2026-03-22T14:52:56.999Z</time></trkpt><trkpt lat="44.77085197872723" lon="9.404543538584795"><ele>438.0</ele><time>2026-03-22T14:52:57.999Z</time></trkpt><trkpt lat="44.770758151463944" lon="9.404393577389838"><ele>438.0</ele><time>2026-03-22T14:52:58.999Z</time></trkpt><trkpt lat="44.770647041137074" lon="9.404259612639171"><ele>438.0</ele><time>2026-03-22T14:52:59.999Z</time></trkpt><trkpt lat="44.7705569119142" lon="9.404147666889383"><ele>438.0</ele><time>2026-03-22T14:53:00.999Z</time></trkpt><trkpt lat="44.7704475761516" lon="9.404036711032228"><ele>438.0</ele><time>2026-03-22T14:53:01.999Z</time></trkpt><trkpt lat="44.77033424011909" lon="9.403935709966483"><ele>438.0</ele><time>2026-03-22T14:53:02.999Z</time></trkpt><trkpt lat="44.77022681103703" lon="9.403833035171495"><ele>438.0</ele><time>2026-03-22T14:53:03.999Z</time></trkpt><trkpt lat="44.77011057494963" lon="9.403721196655342"><ele>438.0</ele><time>2026-03-22T14:53:04.999Z</time></trkpt><trkpt lat="44.76997703510711" lon="9.403610394921273"><ele>439.33333333333337</ele><time>2026-03-22T14:53:05.999Z</time></trkpt><trkpt lat="44.76980129606058" lon="9.40349435753987"><ele>440.6666666666667</ele><time>2026-03-22T14:53:06.999Z</time></trkpt><trkpt lat="44.76964708850391" lon="9.403378504118503"><ele>442.0</ele><time>2026-03-22T14:53:07.999Z</time></trkpt><trkpt lat="44.76953281774129" lon="9.403289697455806"><ele>442.0</ele><time>2026-03-22T14:53:08.999Z</time></trkpt><trkpt lat="44.769435983511684" lon="9.403248509680566"><ele>442.0</ele><time>2026-03-22T14:53:09.999Z</time></trkpt><trkpt lat="44.76932735672986" lon="9.403211473998535"><ele>442.0</ele><time>2026-03-22T14:53:10.999Z</time></trkpt><trkpt lat="44.769142298885534" lon="9.403135952657829"><ele>442.0</ele><time>2026-03-22T14:53:11.999Z</time></trkpt><trkpt lat="44.76905037465821" lon="9.40300713609522"><ele>443.83333333333337</ele><time>2026-03-22T14:53:12.999Z</time></trkpt><trkpt lat="44.76897398337962" lon="9.402947501177575"><ele>445.6666666666667</ele><time>2026-03-22T14:53:13.999Z</time></trkpt><trkpt lat="44.7688980072014" lon="9.402951261430863"><ele>447.5</ele><time>2026-03-22T14:53:15.999Z</time></trkpt><trkpt lat="44.768850780931565" lon="9.403013754394319"><ele>449.33333333333337</ele><time>2026-03-22T14:53:16.999Z</time></trkpt><trkpt lat="44.76884724770387" lon="9.403140704846198"><ele>451.1666666666667</ele><time>2026-03-22T14:53:17.999Z</time></trkpt><trkpt lat="44.76894779053133" lon="9.403242252054202"><ele>453.0</ele><time>2026-03-22T14:53:18.999Z</time></trkpt><trkpt lat="44.76906681825517" lon="9.403369384065531"><ele>449.33333333333337</ele><time>2026-03-22T14:53:19.999Z</time></trkpt><trkpt lat="44.76919513665762" lon="9.403542528769085"><ele>445.6666666666667</ele><time>2026-03-22T14:53:20.999Z</time></trkpt><trkpt lat="44.769359136089626" lon="9.403702315852174"><ele>442.0</ele><time>2026-03-22T14:53:21.999Z</time></trkpt><trkpt lat="44.769511771671866" lon="9.403811975611125"><ele>448.5</ele><time>2026-03-22T14:53:22.999Z</time></trkpt><trkpt lat="44.76964119511863" lon="9.403872878271079"><ele>455.0</ele><time>2026-03-22T14:53:23.999Z</time></trkpt><trkpt lat="44.76974467345155" lon="9.403941086803625"><ele>461.5</ele><time>2026-03-22T14:53:24.999Z</time></trkpt><trkpt lat="44.76984082900959" lon="9.40401391644378"><ele>468.0</ele><time>2026-03-22T14:53:25.998Z</time></trkpt><trkpt lat="44.76991545659639" lon="9.404124593880404"><ele>468.0</ele><time>2026-03-22T14:53:26.998Z</time></trkpt><trkpt lat="44.76999571837917" lon="9.404239827538918"><ele>468.0</ele><time>2026-03-22T14:53:27.998Z</time></trkpt><trkpt lat="44.770085521449786" lon="9.404387988028615"><ele>468.0</ele><time>2026-03-22T14:53:28.998Z</time></trkpt><trkpt lat="44.77016442242081" lon="9.404520847311542"><ele>468.0</ele><time>2026-03-22T14:53:29.998Z</time></trkpt><trkpt lat="44.77021859967148" lon="9.404596433710676"><ele>466.5</ele><time>2026-03-22T14:53:30.998Z</time></trkpt><trkpt lat="44.77024930469079" lon="9.404712887908556"><ele>465.0</ele><time>2026-03-22T14:53:32.998Z</time></trkpt><trkpt lat="44.77014448982376" lon="9.404861593644364"><ele>463.5</ele><time>2026-03-22T14:53:34.998Z</time></trkpt><trkpt lat="44.77004158675948" lon="9.40490363882597"><ele>462.0</ele><time>2026-03-22T14:53:35.998Z</time></trkpt><trkpt lat="44.769937691624776" lon="9.404944020602041"><ele>465.6666666666667</ele><time>2026-03-22T14:53:36.998Z</time></trkpt><trkpt lat="44.76984345352854" lon="9.404970231046569"><ele>469.33333333333337</ele><time>2026-03-22T14:53:37.998Z</time></trkpt><trkpt lat="44.76976118100469" lon="9.404998376433227"><ele>473.0</ele><time>2026-03-22T14:53:38.998Z</time></trkpt><trkpt lat="44.769702615538584" lon="9.405068364249924"><ele>476.6666666666667</ele><time>2026-03-22T14:53:39.998Z</time></trkpt><trkpt lat="44.76966380348439" lon="9.40514760615954"><ele>480.33333333333337</ele><time>2026-03-22T14:53:40.998Z</time></trkpt><trkpt lat="44.76967645371059" lon="9.40529400812391"><ele>484.0</ele><time>2026-03-22T14:53:41.998Z</time></trkpt><trkpt lat="44.769735790739304" lon="9.405434293125914"><ele>485.2</ele><time>2026-03-22T14:53:42.998Z</time></trkpt><trkpt lat="44.76978555305719" lon="9.40558028351263"><ele>486.4</ele><time>2026-03-22T14:53:43.998Z</time></trkpt><trkpt lat="44.7697977942268" lon="9.405693428129275"><ele>487.6</ele><time>2026-03-22T14:53:44.998Z</time></trkpt><trkpt lat="44.769748872755486" lon="9.405828046155332"><ele>488.8</ele><time>2026-03-22T14:53:46.998Z</time></trkpt><trkpt lat="44.76970900777479" lon="9.40597349718359"><ele>490.0</ele><time>2026-03-22T14:53:48.998Z</time></trkpt><trkpt lat="44.76964786096931" lon="9.406081723128604"><ele>490.0</ele><time>2026-03-22T14:53:49.998Z</time></trkpt><trkpt lat="44.769599076432485" lon="9.406198657275487"><ele>490.0</ele><time>2026-03-22T14:53:50.998Z</time></trkpt><trkpt lat="44.76953528773701" lon="9.406284514869126"><ele>490.0</ele><time>2026-03-22T14:53:51.998Z</time></trkpt><trkpt lat="44.76943865379446" lon="9.406353367680465"><ele>490.0</ele><time>2026-03-22T14:53:52.998Z</time></trkpt><trkpt lat="44.76931261929585" lon="9.406401630133535"><ele>490.0</ele><time>2026-03-22T14:53:53.998Z</time></trkpt><trkpt lat="44.76920496673773" lon="9.406430962097309"><ele>492.4</ele><time>2026-03-22T14:53:54.998Z</time></trkpt><trkpt lat="44.7691340845439" lon="9.406431729463307"><ele>494.8</ele><time>2026-03-22T14:53:55.998Z</time></trkpt><trkpt lat="44.76908970803784" lon="9.406334846753062"><ele>497.20000000000005</ele><time>2026-03-22T14:53:56.998Z</time></trkpt><trkpt lat="44.769064207435356" lon="9.406183292453724"><ele>499.6</ele><time>2026-03-22T14:53:57.998Z</time></trkpt><trkpt lat="44.769036029924855" lon="9.40599683742538"><ele>502.0</ele><time>2026-03-22T14:53:58.998Z</time></trkpt><trkpt lat="44.769018491080224" lon="9.405858217383047"><ele>501.6</ele><time>2026-03-22T14:53:59.998Z</time></trkpt><trkpt lat="44.76900494865158" lon="9.405755423844827"><ele>501.20000000000005</ele><time>2026-03-22T14:54:00.998Z</time></trkpt><trkpt lat="44.768990612509675" lon="9.405643167432276"><ele>500.8</ele><time>2026-03-22T14:54:01.998Z</time></trkpt><trkpt lat="44.768972103641005" lon="9.40548269985529"><ele>500.4</ele><time>2026-03-22T14:54:02.998Z</time></trkpt><trkpt lat="44.768948857934696" lon="9.405334950636192"><ele>500.0</ele><time>2026-03-22T14:54:03.998Z</time></trkpt><trkpt lat="44.76892454865908" lon="9.405219889758202"><ele>500.0</ele><time>2026-03-22T14:54:04.998Z</time></trkpt><trkpt lat="44.76886046684696" lon="9.405134110934517"><ele>500.0</ele><time>2026-03-22T14:54:05.998Z</time></trkpt><trkpt lat="44.768774882572096" lon="9.405088644320573"><ele>500.0</ele><time>2026-03-22T14:54:06.998Z</time></trkpt><trkpt lat="44.76865740310232" lon="9.405079093653928"><ele>500.0</ele><time>2026-03-22T14:54:07.998Z</time></trkpt><trkpt lat="44.768501483662426" lon="9.405077830828594"><ele>504.66666666666663</ele><time>2026-03-22T14:54:08.998Z</time></trkpt><trkpt lat="44.76831056894217" lon="9.405071008288953"><ele>509.33333333333337</ele><time>2026-03-22T14:54:09.998Z</time></trkpt><trkpt lat="44.76813168208679" lon="9.405064408879118"><ele>514.0</ele><time>2026-03-22T14:54:10.997Z</time></trkpt><trkpt lat="44.767991729369946" lon="9.405064365621318"><ele>514.0</ele><time>2026-03-22T14:54:11.997Z</time></trkpt><trkpt lat="44.76787963334378" lon="9.405059398322328"><ele>514.0</ele><time>2026-03-22T14:54:12.997Z</time></trkpt><trkpt lat="44.76773668711799" lon="9.40511426287717"><ele>514.0</ele><time>2026-03-22T14:54:14Z</time></trkpt><trkpt lat="44.767590089746186" lon="9.405205208664498"><ele>514.0</ele><time>2026-03-22T14:54:15Z</time></trkpt><trkpt lat="44.76744960545513" lon="9.405227727069915"><ele>516.0</ele><time>2026-03-22T14:54:16Z</time></trkpt><trkpt lat="44.76730674370884" lon="9.405208599737842"><ele>518.0</ele><time>2026-03-22T14:54:17Z</time></trkpt><trkpt lat="44.767197546496256" lon="9.405132420020756"><ele>520.0</ele><time>2026-03-22T14:54:18Z</time></trkpt><trkpt lat="44.76710230711635" lon="9.405070832673672"><ele>522.0</ele><time>2026-03-22T14:54:19Z</time></trkpt><trkpt lat="44.76702721149353" lon="9.405048047423655"><ele>524.0</ele><time>2026-03-22T14:54:20Z</time></trkpt><trkpt lat="44.76695882618172" lon="9.405044732460322"><ele>524.0</ele><time>2026-03-22T14:54:21Z</time></trkpt><trkpt lat="44.76687692020271" lon="9.40512950559405"><ele>524.0</ele><time>2026-03-22T14:54:22Z</time></trkpt><trkpt lat="44.76680576795814" lon="9.405328358239982"><ele>524.0</ele><time>2026-03-22T14:54:23Z</time></trkpt><trkpt lat="44.76670970219958" lon="9.405462762488858"><ele>524.0</ele><time>2026-03-22T14:54:24Z</time></trkpt><trkpt lat="44.766594021318355" lon="9.405533266487403"><ele>528.4</ele><time>2026-03-22T14:54:25Z</time></trkpt><trkpt lat="44.76647111811604" lon="9.405520887461405"><ele>532.8</ele><time>2026-03-22T14:54:26Z</time></trkpt><trkpt lat="44.76637222901069" lon="9.405533556291939"><ele>537.2</ele><time>2026-03-22T14:54:27Z</time></trkpt><trkpt lat="44.76629821156526" lon="9.405617094061197"><ele>541.6</ele><time>2026-03-22T14:54:28Z</time></trkpt><trkpt lat="44.766229799816486" lon="9.405724392638241"><ele>546.0</ele><time>2026-03-22T14:54:29Z</time></trkpt><trkpt lat="44.76614406283559" lon="9.405857417532944"><ele>547.6666666666666</ele><time>2026-03-22T14:54:30Z</time></trkpt><trkpt lat="44.76601557381378" lon="9.405997502561828"><ele>549.3333333333333</ele><time>2026-03-22T14:54:31Z</time></trkpt><trkpt lat="44.765853613451725" lon="9.406062378438895"><ele>551.0</ele><time>2026-03-22T14:54:32Z</time></trkpt><trkpt lat="44.76566015014106" lon="9.406106755096598"><ele>551.0</ele><time>2026-03-22T14:54:33Z</time></trkpt><trkpt lat="44.76545906478262" lon="9.406148085919693"><ele>551.0</ele><time>2026-03-22T14:54:34Z</time></trkpt><trkpt lat="44.76530191789085" lon="9.406201282049269"><ele>551.0</ele><time>2026-03-22T14:54:35Z</time></trkpt><trkpt lat="44.7651726479459" lon="9.406239442055588"><ele>553.0</ele><time>2026-03-22T14:54:36Z</time></trkpt><trkpt lat="44.765058351763024" lon="9.406271364341999"><ele>555.0</ele><time>2026-03-22T14:54:37Z</time></trkpt><trkpt lat="44.764959092136294" lon="9.406307789982906"><ele>557.0</ele><time>2026-03-22T14:54:38Z</time></trkpt><trkpt lat="44.76485053602317" lon="9.406393988190992"><ele>559.0</ele><time>2026-03-22T14:54:39Z</time></trkpt><trkpt lat="44.764719358460944" lon="9.406457127666387"><ele>560.0</ele><time>2026-03-22T14:54:40Z</time></trkpt><trkpt lat="44.76460736834322" lon="9.406530298643004"><ele>561.0</ele><time>2026-03-22T14:54:41Z</time></trkpt><trkpt lat="44.76452227814213" lon="9.406604944917303"><ele>562.0</ele><time>2026-03-22T14:54:42Z</time></trkpt><trkpt lat="44.7644552102307" lon="9.40666829791068"><ele>563.0</ele><time>2026-03-22T14:54:43Z</time></trkpt><trkpt lat="44.764367131480945" lon="9.406761961600724"><ele>564.0</ele><time>2026-03-22T14:54:44Z</time></trkpt><trkpt lat="44.76425497685568" lon="9.406917015958454"><ele>566.3333333333334</ele><time>2026-03-22T14:54:45Z</time></trkpt><trkpt lat="44.76413517795366" lon="9.407091539328626"><ele>568.6666666666667</ele><time>2026-03-22T14:54:46Z</time></trkpt><trkpt lat="44.764015361788864" lon="9.407279714353887"><ele>571.0</ele><time>2026-03-22T14:54:47Z</time></trkpt><trkpt lat="44.76387686169235" lon="9.407499287318748"><ele>574.3333333333334</ele><time>2026-03-22T14:54:48Z</time></trkpt><trkpt lat="44.76374487854854" lon="9.407713843557126"><ele>577.6666666666666</ele><time>2026-03-22T14:54:49Z</time></trkpt><trkpt lat="44.763652261102195" lon="9.407893505498281"><ele>581.0</ele><time>2026-03-22T14:54:50Z</time></trkpt><trkpt lat="44.76357252227339" lon="9.408037724708308"><ele>582.75</ele><time>2026-03-22T14:54:51Z</time></trkpt><trkpt lat="44.76348365200069" lon="9.408148093880277"><ele>584.5</ele><time>2026-03-22T14:54:52Z</time></trkpt><trkpt lat="44.763371103738734" lon="9.408248110648623"><ele>586.25</ele><time>2026-03-22T14:54:53Z</time></trkpt><trkpt lat="44.763255092466565" lon="9.408352846164357"><ele>588.0</ele><time>2026-03-22T14:54:54Z</time></trkpt><trkpt lat="44.7631642652276" lon="9.408443348820443"><ele>588.0</ele><time>2026-03-22T14:54:55Z</time></trkpt><trkpt lat="44.76307009151826" lon="9.408527468877502"><ele>588.0</ele><time>2026-03-22T14:54:56Z</time></trkpt><trkpt lat="44.76293980567458" lon="9.40857660783821"><ele>588.0</ele><time>2026-03-22T14:54:57Z</time></trkpt><trkpt lat="44.7627855690245" lon="9.408570934616757"><ele>588.0</ele><time>2026-03-22T14:54:58Z</time></trkpt><trkpt lat="44.76265903466425" lon="9.40857720603625"><ele>589.3333333333334</ele><time>2026-03-22T14:54:59Z</time></trkpt><trkpt lat="44.76254433986583" lon="9.408668841484467"><ele>590.6666666666667</ele><time>2026-03-22T14:55:00Z</time></trkpt><trkpt lat="44.7623682671284" lon="9.408761177218928"><ele>592.0</ele><time>2026-03-22T14:55:01Z</time></trkpt><trkpt lat="44.76218382604211" lon="9.408888078708884"><ele>595.0</ele><time>2026-03-22T14:55:02Z</time></trkpt><trkpt lat="44.761994819907315" lon="9.40905493947109"><ele>598.0</ele><time>2026-03-22T14:55:02.999Z</time></trkpt><trkpt lat="44.761835848099814" lon="9.409186818500016"><ele>601.0</ele><time>2026-03-22T14:55:03.999Z</time></trkpt><trkpt lat="44.76171210436137" lon="9.409261872007436"><ele>602.25</ele><time>2026-03-22T14:55:04.999Z</time></trkpt><trkpt lat="44.76159085358123" lon="9.40929608891548"><ele>603.5</ele><time>2026-03-22T14:55:06Z</time></trkpt><trkpt lat="44.761480621934965" lon="9.409277305218541"><ele>604.75</ele><time>2026-03-22T14:55:06.999Z</time></trkpt><trkpt lat="44.76135464589829" lon="9.409328495049799"><ele>606.0</ele><time>2026-03-22T14:55:07.999Z</time></trkpt><trkpt lat="44.761205105876456" lon="9.409428342767841"><ele>606.0</ele><time>2026-03-22T14:55:08.999Z</time></trkpt><trkpt lat="44.761070001298656" lon="9.409502077128813"><ele>606.0</ele><time>2026-03-22T14:55:09.999Z</time></trkpt><trkpt lat="44.760973080286675" lon="9.409568489355262"><ele>606.0</ele><time>2026-03-22T14:55:10.998Z</time></trkpt><trkpt lat="44.76086699418118" lon="9.409607836954539"><ele>606.0</ele><time>2026-03-22T14:55:11.998Z</time></trkpt><trkpt lat="44.76072129278506" lon="9.409602802894039"><ele>609.0</ele><time>2026-03-22T14:55:12.998Z</time></trkpt><trkpt lat="44.76055437891914" lon="9.409565494408914"><ele>612.0</ele><time>2026-03-22T14:55:13.998Z</time></trkpt><trkpt lat="44.76038329642603" lon="9.409574831946896"><ele>615.0</ele><time>2026-03-22T14:55:14.998Z</time></trkpt><trkpt lat="44.76020980080547" lon="9.409586788268243"><ele>615.4</ele><time>2026-03-22T14:55:15.998Z</time></trkpt><trkpt lat="44.760062867065535" lon="9.409596903054572"><ele>615.8</ele><time>2026-03-22T14:55:16.998Z</time></trkpt><trkpt lat="44.75993941506191" lon="9.409596032345451"><ele>616.2</ele><time>2026-03-22T14:55:17.998Z</time></trkpt><trkpt lat="44.75983378283126" lon="9.409586853664429"><ele>616.6</ele><time>2026-03-22T14:55:18.998Z</time></trkpt><trkpt lat="44.7597622889319" lon="9.409579324257313"><ele>617.0</ele><time>2026-03-22T14:55:19.998Z</time></trkpt><trkpt lat="44.75964653906191" lon="9.409668820724471"><ele>619.4</ele><time>2026-03-22T14:55:21.998Z</time></trkpt><trkpt lat="44.75961224003761" lon="9.409819088883253"><ele>621.8000000000001</ele><time>2026-03-22T14:55:22.998Z</time></trkpt><trkpt lat="44.7595925320804" lon="9.409943984472285"><ele>624.2</ele><time>2026-03-22T14:55:23.998Z</time></trkpt><trkpt lat="44.759600589253246" lon="9.410056425665797"><ele>626.6</ele><time>2026-03-22T14:55:24.998Z</time></trkpt><trkpt lat="44.75963660521029" lon="9.410187545549624"><ele>629.0</ele><time>2026-03-22T14:55:25.998Z</time></trkpt><trkpt lat="44.75972688321596" lon="9.410352002572221"><ele>629.0</ele><time>2026-03-22T14:55:26.998Z</time></trkpt><trkpt lat="44.7598096983371" lon="9.410488657397602"><ele>629.0</ele><time>2026-03-22T14:55:27.998Z</time></trkpt><trkpt lat="44.75988918217835" lon="9.410573072737781"><ele>629.0</ele><time>2026-03-22T14:55:28.998Z</time></trkpt><trkpt lat="44.75998916983636" lon="9.410691496637737"><ele>629.0</ele><time>2026-03-22T14:55:29.998Z</time></trkpt><trkpt lat="44.76012252060677" lon="9.410833990014398"><ele>631.0</ele><time>2026-03-22T14:55:30.998Z</time></trkpt><trkpt lat="44.76024673109674" lon="9.410965162456952"><ele>633.0</ele><time>2026-03-22T14:55:31.998Z</time></trkpt><trkpt lat="44.76034193378893" lon="9.411060715637806"><ele>635.0</ele><time>2026-03-22T14:55:32.998Z</time></trkpt><trkpt lat="44.76038849872376" lon="9.41116703832861"><ele>637.0</ele><time>2026-03-22T14:55:33.998Z</time></trkpt><trkpt lat="44.76040598096774" lon="9.411286310129244"><ele>639.0</ele><time>2026-03-22T14:55:34.998Z</time></trkpt><trkpt lat="44.76037174318958" lon="9.41139798337872"><ele>641.75</ele><time>2026-03-22T14:55:35.998Z</time></trkpt><trkpt lat="44.76034775515522" lon="9.411559099013733"><ele>644.5</ele><time>2026-03-22T14:55:36.998Z</time></trkpt><trkpt lat="44.760312822572615" lon="9.411719837070903"><ele>647.25</ele><time>2026-03-22T14:55:37.998Z</time></trkpt><trkpt lat="44.76026771141381" lon="9.411887388770475"><ele>650.0</ele><time>2026-03-22T14:55:38.998Z</time></trkpt><trkpt lat="44.760183055390314" lon="9.412065285004982"><ele>653.75</ele><time>2026-03-22T14:55:39.998Z</time></trkpt><trkpt lat="44.76010476873705" lon="9.412227288412922"><ele>657.5</ele><time>2026-03-22T14:55:40.998Z</time></trkpt><trkpt lat="44.760053041717924" lon="9.412356775436951"><ele>661.25</ele><time>2026-03-22T14:55:41.998Z</time></trkpt><trkpt lat="44.76002869086356" lon="9.412493914980475"><ele>665.0</ele><time>2026-03-22T14:55:42.998Z</time></trkpt><trkpt lat="44.76000166188924" lon="9.412650604875545"><ele>665.0</ele><time>2026-03-22T14:55:43.998Z</time></trkpt><trkpt lat="44.75996993074169" lon="9.412806929501553"><ele>665.0</ele><time>2026-03-22T14:55:44.998Z</time></trkpt><trkpt lat="44.75994533647948" lon="9.41292809431202"><ele>665.0</ele><time>2026-03-22T14:55:45.998Z</time></trkpt><trkpt lat="44.759922553429945" lon="9.413018850031948"><ele>665.0</ele><time>2026-03-22T14:55:46.998Z</time></trkpt><trkpt lat="44.75982107929561" lon="9.413147911562554"><ele>665.0</ele><time>2026-03-22T14:55:48.997Z</time></trkpt><trkpt lat="44.75971431468222" lon="9.413232690054775"><ele>666.0</ele><time>2026-03-22T14:55:49.997Z</time></trkpt><trkpt lat="44.75962690055184" lon="9.413348631391036"><ele>667.0</ele><time>2026-03-22T14:55:50.997Z</time></trkpt><trkpt lat="44.75955879086792" lon="9.413448507217941"><ele>668.0</ele><time>2026-03-22T14:55:51.997Z</time></trkpt><trkpt lat="44.75947670511102" lon="9.413516171349032"><ele>669.0</ele><time>2026-03-22T14:55:52.997Z</time></trkpt><trkpt lat="44.759380105873866" lon="9.413585322543621"><ele>670.0</ele><time>2026-03-22T14:55:53.997Z</time></trkpt><trkpt lat="44.75927996992258" lon="9.413638713623858"><ele>670.0</ele><time>2026-03-22T14:55:54.997Z</time></trkpt><trkpt lat="44.75920341335883" lon="9.413663551532695"><ele>670.0</ele><time>2026-03-22T14:55:55.997Z</time></trkpt><trkpt lat="44.75909871654898" lon="9.413712327924747"><ele>670.0</ele><time>2026-03-22T14:55:57.997Z</time></trkpt><trkpt lat="44.75902886793443" lon="9.413773494732846"><ele>670.0</ele><time>2026-03-22T14:55:58.997Z</time></trkpt><trkpt lat="44.758949476989294" lon="9.413858704428884"><ele>670.0</ele><time>2026-03-22T14:55:59.997Z</time></trkpt><trkpt lat="44.75886109160742" lon="9.413952473253604"><ele>671.2</ele><time>2026-03-22T14:56:00.997Z</time></trkpt><trkpt lat="44.75877206718385" lon="9.414038551343578"><ele>672.4</ele><time>2026-03-22T14:56:01.997Z</time></trkpt><trkpt lat="44.7586896211696" lon="9.414093564436023"><ele>673.5999999999999</ele><time>2026-03-22T14:56:02.997Z</time></trkpt><trkpt lat="44.7586083946777" lon="9.414082236851456"><ele>674.8</ele><time>2026-03-22T14:56:03.997Z</time></trkpt><trkpt lat="44.75852656043801" lon="9.414075444675158"><ele>676.0</ele><time>2026-03-22T14:56:04.997Z</time></trkpt><trkpt lat="44.75845299907727" lon="9.413989270293724"><ele>676.0</ele><time>2026-03-22T14:56:06.997Z</time></trkpt><trkpt lat="44.75834654628012" lon="9.413846057215258"><ele>676.0</ele><time>2026-03-22T14:56:08.997Z</time></trkpt><trkpt lat="44.758267572093025" lon="9.413735197719019"><ele>676.0</ele><time>2026-03-22T14:56:09.997Z</time></trkpt><trkpt lat="44.758187167710624" lon="9.4136018979044"><ele>676.0</ele><time>2026-03-22T14:56:10.997Z</time></trkpt><trkpt lat="44.75810334765602" lon="9.413459659223326"><ele>676.6666666666667</ele><time>2026-03-22T14:56:11.997Z</time></trkpt><trkpt lat="44.75800455820719" lon="9.41334349242513"><ele>677.3333333333334</ele><time>2026-03-22T14:56:12.997Z</time></trkpt><trkpt lat="44.75786430679328" lon="9.41326062991458"><ele>678.0</ele><time>2026-03-22T14:56:13.997Z</time></trkpt><trkpt lat="44.7576930329914" lon="9.413186077117823"><ele>678.0</ele><time>2026-03-22T14:56:14.997Z</time></trkpt><trkpt lat="44.75753922537976" lon="9.41308321847134"><ele>678.0</ele><time>2026-03-22T14:56:15.997Z</time></trkpt><trkpt lat="44.75740315607523" lon="9.412998216030907"><ele>678.0</ele><time>2026-03-22T14:56:16.997Z</time></trkpt><trkpt lat="44.7572835712539" lon="9.412940603307453"><ele>678.0</ele><time>2026-03-22T14:56:17.997Z</time></trkpt><trkpt lat="44.75720144757285" lon="9.412869721961888"><ele>678.4</ele><time>2026-03-22T14:56:18.997Z</time></trkpt><trkpt lat="44.75712741406115" lon="9.41277494388709"><ele>678.8</ele><time>2026-03-22T14:56:20Z</time></trkpt><trkpt lat="44.75706895107203" lon="9.412661582191962"><ele>679.2</ele><time>2026-03-22T14:56:21Z</time></trkpt><trkpt lat="44.75702244054543" lon="9.412557031774506"><ele>679.6</ele><time>2026-03-22T14:56:22Z</time></trkpt><trkpt lat="44.75697509368536" lon="9.412462331432337"><ele>680.0</ele><time>2026-03-22T14:56:23Z</time></trkpt><trkpt lat="44.756912164450625" lon="9.412375678188091"><ele>681.8</ele><time>2026-03-22T14:56:24Z</time></trkpt><trkpt lat="44.756842445963194" lon="9.412307120562382"><ele>683.6</ele><time>2026-03-22T14:56:25Z</time></trkpt><trkpt lat="44.75677228050348" lon="9.412253361398056"><ele>685.4000000000001</ele><time>2026-03-22T14:56:26Z</time></trkpt><trkpt lat="44.756661569367765" lon="9.412211136906636"><ele>687.2</ele><time>2026-03-22T14:56:28Z</time></trkpt><trkpt lat="44.756565496193616" lon="9.412253290000569"><ele>689.0</ele><time>2026-03-22T14:56:30Z</time></trkpt><trkpt lat="44.75648150612191" lon="9.412294757344574"><ele>689.0</ele><time>2026-03-22T14:56:32Z</time></trkpt><trkpt lat="44.75638704043762" lon="9.41233177572294"><ele>689.0</ele><time>2026-03-22T14:56:34Z</time></trkpt><trkpt lat="44.75628266202204" lon="9.412408486406123"><ele>689.0</ele><time>2026-03-22T14:56:36Z</time></trkpt><trkpt lat="44.7562371801881" lon="9.412513944892954"><ele>689.0</ele><time>2026-03-22T14:56:37Z</time></trkpt><trkpt lat="44.756168232447685" lon="9.412581338300924"><ele>689.0</ele><time>2026-03-22T14:56:38Z</time></trkpt><trkpt lat="44.75608687565432" lon="9.412633477335111"><ele>689.8000000000001</ele><time>2026-03-22T14:56:39Z</time></trkpt><trkpt lat="44.75601739299661" lon="9.412696727473156"><ele>690.6</ele><time>2026-03-22T14:56:40Z</time></trkpt><trkpt lat="44.75594382173575" lon="9.41282526037205"><ele>691.4</ele><time>2026-03-22T14:56:40.999Z</time></trkpt><trkpt lat="44.75587375500349" lon="9.412989432436605"><ele>692.2</ele><time>2026-03-22T14:56:41.999Z</time></trkpt><trkpt lat="44.755798379098046" lon="9.413100701776708"><ele>693.0</ele><time>2026-03-22T14:56:42.999Z</time></trkpt><trkpt lat="44.7557248607965" lon="9.41315144004842"><ele>694.25</ele><time>2026-03-22T14:56:43.999Z</time></trkpt><trkpt lat="44.75561887694969" lon="9.413167505559567"><ele>695.5</ele><time>2026-03-22T14:56:44.999Z</time></trkpt><trkpt lat="44.75546265401203" lon="9.413192209342144"><ele>696.75</ele><time>2026-03-22T14:56:45.999Z</time></trkpt><trkpt lat="44.755293515971665" lon="9.413228556438662"><ele>698.0</ele><time>2026-03-22T14:56:46.999Z</time></trkpt><trkpt lat="44.75515854802204" lon="9.413259871832897"><ele>699.25</ele><time>2026-03-22T14:56:47.999Z</time></trkpt><trkpt lat="44.755042795203806" lon="9.413279143973599"><ele>700.5</ele><time>2026-03-22T14:56:48.999Z</time></trkpt><trkpt lat="44.75489414388895" lon="9.413272237092299"><ele>701.75</ele><time>2026-03-22T14:56:49.999Z</time></trkpt><trkpt lat="44.754717051317996" lon="9.41327152657982"><ele>703.0</ele><time>2026-03-22T14:56:50.999Z</time></trkpt><trkpt lat="44.75457246531729" lon="9.413274530770781"><ele>703.0</ele><time>2026-03-22T14:56:51.999Z</time></trkpt><trkpt lat="44.754460667332346" lon="9.413259781389646"><ele>703.0</ele><time>2026-03-22T14:56:52.999Z</time></trkpt><trkpt lat="44.75436846700182" lon="9.413212608250141"><ele>703.0</ele><time>2026-03-22T14:56:53.999Z</time></trkpt><trkpt lat="44.75429054806305" lon="9.41317399788361"><ele>703.0</ele><time>2026-03-22T14:56:54.999Z</time></trkpt><trkpt lat="44.75419737452999" lon="9.413094441598837"><ele>703.0</ele><time>2026-03-22T14:56:56.999Z</time></trkpt><trkpt lat="44.75407670564667" lon="9.41328317188569"><ele>704.2</ele><time>2026-03-22T14:56:59.999Z</time></trkpt><trkpt lat="44.75407199617288" lon="9.413413883561207"><ele>705.4</ele><time>2026-03-22T14:57:00.999Z</time></trkpt><trkpt lat="44.75406962327639" lon="9.413508955259635"><ele>706.6</ele><time>2026-03-22T14:57:01.999Z</time></trkpt><trkpt lat="44.75406591440355" lon="9.413657554238847"><ele>707.8000000000001</ele><time>2026-03-22T14:57:02.999Z</time></trkpt><trkpt lat="44.754064554242255" lon="9.413871799142413"><ele>709.0</ele><time>2026-03-22T14:57:03.999Z</time></trkpt><trkpt lat="44.75407329812004" lon="9.414111871484392"><ele>709.3333333333334</ele><time>2026-03-22T14:57:04.999Z</time></trkpt><trkpt lat="44.754108085820015" lon="9.414314296011904"><ele>709.6666666666666</ele><time>2026-03-22T14:57:05.999Z</time></trkpt><trkpt lat="44.75416078510603" lon="9.414541896441289"><ele>710.0</ele><time>2026-03-22T14:57:06.999Z</time></trkpt><trkpt lat="44.75421792259947" lon="9.41472642596866"><ele>710.8</ele><time>2026-03-22T14:57:07.999Z</time></trkpt><trkpt lat="44.75428027066322" lon="9.414872031034102"><ele>711.6</ele><time>2026-03-22T14:57:08.999Z</time></trkpt><trkpt lat="44.75435770634642" lon="9.41497486418757"><ele>712.4000000000001</ele><time>2026-03-22T14:57:09.999Z</time></trkpt><trkpt lat="44.754427160658054" lon="9.415073316367302"><ele>713.2</ele><time>2026-03-22T14:57:10.999Z</time></trkpt><trkpt lat="44.754504792461844" lon="9.415153872720676"><ele>714.0</ele><time>2026-03-22T14:57:11.999Z</time></trkpt><trkpt lat="44.75458911083722" lon="9.415221395841636"><ele>714.0</ele><time>2026-03-22T14:57:12.999Z</time></trkpt><trkpt lat="44.7546807752095" lon="9.41527365148451"><ele>714.0</ele><time>2026-03-22T14:57:13.999Z</time></trkpt><trkpt lat="44.75477571759547" lon="9.415303759942658"><ele>714.0</ele><time>2026-03-22T14:57:14.999Z</time></trkpt><trkpt lat="44.75487199339295" lon="9.415317193160442"><ele>714.0</ele><time>2026-03-22T14:57:15.999Z</time></trkpt><trkpt lat="44.75494700238321" lon="9.415318608189796"><ele>714.0</ele><time>2026-03-22T14:57:16.999Z</time></trkpt><trkpt lat="44.75506481207953" lon="9.41533321332743"><ele>714.0</ele><time>2026-03-22T14:57:18.999Z</time></trkpt><trkpt lat="44.75511276890373" lon="9.415394088110755"><ele>714.0</ele><time>2026-03-22T14:57:19.999Z</time></trkpt><trkpt lat="44.75517167274249" lon="9.415483959422593"><ele>714.0</ele><time>2026-03-22T14:57:21.999Z</time></trkpt><trkpt lat="44.75524454927435" lon="9.415588004804274"><ele>714.0</ele><time>2026-03-22T14:57:23.999Z</time></trkpt><trkpt lat="44.755298052514796" lon="9.415666844651525"><ele>714.0</ele><time>2026-03-22T14:57:24.999Z</time></trkpt><trkpt lat="44.755351847497074" lon="9.415748667387515"><ele>714.0</ele><time>2026-03-22T14:57:25.998Z</time></trkpt><trkpt lat="44.75540537394236" lon="9.415832339706949"><ele>714.4000000000001</ele><time>2026-03-22T14:57:26.998Z</time></trkpt><trkpt lat="44.755454563696006" lon="9.415913682572933"><ele>714.8</ele><time>2026-03-22T14:57:27.998Z</time></trkpt><trkpt lat="44.75550214831467" lon="9.415988564051148"><ele>715.2</ele><time>2026-03-22T14:57:28.998Z</time></trkpt><trkpt lat="44.75557451402753" lon="9.416101499255971"><ele>715.5999999999999</ele><time>2026-03-22T14:57:30.998Z</time></trkpt><trkpt lat="44.755655532220835" lon="9.416231454128843"><ele>716.0</ele><time>2026-03-22T14:57:32.998Z</time></trkpt><trkpt lat="44.75570404447542" lon="9.416319749397429"><ele>716.8333333333333</ele><time>2026-03-22T14:57:33.998Z</time></trkpt><trkpt lat="44.755730388129564" lon="9.416429564988123"><ele>717.6666666666666</ele><time>2026-03-22T14:57:34.998Z</time></trkpt><trkpt lat="44.75572549457844" lon="9.416550025776845"><ele>718.5</ele><time>2026-03-22T14:57:35.998Z</time></trkpt><trkpt lat="44.755713399502795" lon="9.41666209716888"><ele>719.3333333333334</ele><time>2026-03-22T14:57:36.998Z</time></trkpt><trkpt lat="44.75568913117449" lon="9.416759436642245"><ele>720.1666666666667</ele><time>2026-03-22T14:57:37.998Z</time></trkpt><trkpt lat="44.755639004476535" lon="9.416885044192341"><ele>721.0</ele><time>2026-03-22T14:57:38.998Z</time></trkpt><trkpt lat="44.75554576212309" lon="9.417040327454433"><ele>722.3333333333334</ele><time>2026-03-22T14:57:39.998Z</time></trkpt><trkpt lat="44.75542298306582" lon="9.417229843313471"><ele>723.6666666666666</ele><time>2026-03-22T14:57:40.998Z</time></trkpt><trkpt lat="44.75529291788683" lon="9.417429037714072"><ele>725.0</ele><time>2026-03-22T14:57:41.998Z</time></trkpt><trkpt lat="44.75517017605824" lon="9.417626216054284"><ele>727.3333333333333</ele><time>2026-03-22T14:57:42.998Z</time></trkpt><trkpt lat="44.75506862263347" lon="9.417819114335192"><ele>729.6666666666666</ele><time>2026-03-22T14:57:43.998Z</time></trkpt><trkpt lat="44.75498313972451" lon="9.41803164060175"><ele>732.0</ele><time>2026-03-22T14:57:44.998Z</time></trkpt><trkpt lat="44.754897947280305" lon="9.418243727163269"><ele>733.3333333333334</ele><time>2026-03-22T14:57:45.998Z</time></trkpt><trkpt lat="44.754810065858365" lon="9.418451978968635"><ele>734.6666666666667</ele><time>2026-03-22T14:57:46.998Z</time></trkpt><trkpt lat="44.75469955850561" lon="9.418655669218916"><ele>736.0</ele><time>2026-03-22T14:57:47.998Z</time></trkpt><trkpt lat="44.75455535162519" lon="9.418889103446494"><ele>737.5</ele><time>2026-03-22T14:57:48.998Z</time></trkpt><trkpt lat="44.75439841574948" lon="9.419136531646206"><ele>739.0</ele><time>2026-03-22T14:57:49.998Z</time></trkpt><trkpt lat="44.75424520994542" lon="9.41937059336837"><ele>739.6666666666667</ele><time>2026-03-22T14:57:50.998Z</time></trkpt><trkpt lat="44.754110569697716" lon="9.419579464152557"><ele>740.3333333333334</ele><time>2026-03-22T14:57:51.998Z</time></trkpt><trkpt lat="44.7539924265269" lon="9.419770029370858"><ele>741.0</ele><time>2026-03-22T14:57:52.998Z</time></trkpt><trkpt lat="44.75388650596624" lon="9.419940478011595"><ele>742.0</ele><time>2026-03-22T14:57:53.998Z</time></trkpt><trkpt lat="44.753790556186935" lon="9.42008737361148"><ele>743.0</ele><time>2026-03-22T14:57:54.998Z</time></trkpt><trkpt lat="44.7536908392964" lon="9.42022762176233"><ele>744.0</ele><time>2026-03-22T14:57:55.998Z</time></trkpt><trkpt lat="44.753557236189685" lon="9.420350404492455"><ele>745.0</ele><time>2026-03-22T14:57:56.998Z</time></trkpt><trkpt lat="44.75339929693173" lon="9.420420733757577"><ele>746.0</ele><time>2026-03-22T14:57:57.998Z</time></trkpt><trkpt lat="44.75326999867928" lon="9.420477658959722"><ele>747.0</ele><time>2026-03-22T14:57:58.998Z</time></trkpt><trkpt lat="44.75316377720155" lon="9.4205303720409"><ele>748.0</ele><time>2026-03-22T14:57:59.998Z</time></trkpt><trkpt lat="44.75308320762343" lon="9.420588852561881"><ele>749.0</ele><time>2026-03-22T14:58:00.998Z</time></trkpt><trkpt lat="44.753027784145594" lon="9.420684542182707"><ele>750.0</ele><time>2026-03-22T14:58:01.998Z</time></trkpt><trkpt lat="44.75298818048335" lon="9.420797666849445"><ele>751.5</ele><time>2026-03-22T14:58:02.998Z</time></trkpt><trkpt lat="44.752952619160666" lon="9.420947422316008"><ele>753.0</ele><time>2026-03-22T14:58:03.998Z</time></trkpt><trkpt lat="44.7529513222917" lon="9.421123795620396"><ele>754.5</ele><time>2026-03-22T14:58:04.998Z</time></trkpt><trkpt lat="44.75295898222134" lon="9.421317012451713"><ele>756.0</ele><time>2026-03-22T14:58:05.998Z</time></trkpt><trkpt lat="44.75296639473425" lon="9.421512793993378"><ele>758.5999999999999</ele><time>2026-03-22T14:58:06.998Z</time></trkpt><trkpt lat="44.75297314874901" lon="9.421691182685262"><ele>761.2</ele><time>2026-03-22T14:58:07.998Z</time></trkpt><trkpt lat="44.75298231147354" lon="9.421828380041683"><ele>763.8</ele><time>2026-03-22T14:58:08.998Z</time></trkpt><trkpt lat="44.75300427635461" lon="9.421936992115736"><ele>766.4000000000001</ele><time>2026-03-22T14:58:09.998Z</time></trkpt><trkpt lat="44.75307785066306" lon="9.422031814160112"><ele>769.0</ele><time>2026-03-22T14:58:10.997Z</time></trkpt><trkpt lat="44.75317881276525" lon="9.422115490965428"><ele>770.4999999999999</ele><time>2026-03-22T14:58:11.997Z</time></trkpt><trkpt lat="44.75326169449977" lon="9.422226629268774"><ele>772.0</ele><time>2026-03-22T14:58:12.997Z</time></trkpt><trkpt lat="44.75329228269696" lon="9.42233350599456"><ele>773.5</ele><time>2026-03-22T14:58:13.997Z</time></trkpt><trkpt lat="44.75328437859156" lon="9.422428528000966"><ele>775.0</ele><time>2026-03-22T14:58:14.997Z</time></trkpt><trkpt lat="44.753234450141484" lon="9.422496809965239"><ele>776.4999999999999</ele><time>2026-03-22T14:58:15.997Z</time></trkpt><trkpt lat="44.753149124878334" lon="9.422538358537864"><ele>778.0</ele><time>2026-03-22T14:58:16.997Z</time></trkpt><trkpt lat="44.75303703897277" lon="9.422568364799671"><ele>778.0</ele><time>2026-03-22T14:58:17.997Z</time></trkpt><trkpt lat="44.75294522980731" lon="9.422568547839978"><ele>778.0</ele><time>2026-03-22T14:58:18.997Z</time></trkpt><trkpt lat="44.75287870811936" lon="9.422474682947964"><ele>778.0</ele><time>2026-03-22T14:58:19.997Z</time></trkpt><trkpt lat="44.75279669055533" lon="9.422307338046505"><ele>778.0</ele><time>2026-03-22T14:58:20.997Z</time></trkpt><trkpt lat="44.75269937274585" lon="9.422099828577098"><ele>778.5</ele><time>2026-03-22T14:58:21.997Z</time></trkpt><trkpt lat="44.75262352347872" lon="9.42190378177208"><ele>779.0</ele><time>2026-03-22T14:58:22.997Z</time></trkpt><trkpt lat="44.75255708258278" lon="9.42176441309251"><ele>779.5</ele><time>2026-03-22T14:58:23.997Z</time></trkpt><trkpt lat="44.752498716772436" lon="9.421636424588863"><ele>780.0</ele><time>2026-03-22T14:58:24.997Z</time></trkpt><trkpt lat="44.75245112082288" lon="9.421529485597741"><ele>780.0</ele><time>2026-03-22T14:58:26Z</time></trkpt><trkpt lat="44.75240179359827" lon="9.42144662853267"><ele>780.0</ele><time>2026-03-22T14:58:27Z</time></trkpt><trkpt lat="44.752342352132615" lon="9.421411055722348"><ele>780.0</ele><time>2026-03-22T14:58:28Z</time></trkpt><trkpt lat="44.752267529528815" lon="9.421389588453314"><ele>780.0</ele><time>2026-03-22T14:58:29Z</time></trkpt><trkpt lat="44.752180258891855" lon="9.421439006475094"><ele>780.0</ele><time>2026-03-22T14:58:30Z</time></trkpt><trkpt lat="44.75213728363745" lon="9.421587511357226"><ele>780.0</ele><time>2026-03-22T14:58:31Z</time></trkpt><trkpt lat="44.75217900733848" lon="9.42179391141761"><ele>780.0</ele><time>2026-03-22T14:58:32Z</time></trkpt><trkpt lat="44.752228139542446" lon="9.42202155540234"><ele>780.0</ele><time>2026-03-22T14:58:33Z</time></trkpt><trkpt lat="44.75228587543271" lon="9.42227315381244"><ele>780.0</ele><time>2026-03-22T14:58:34Z</time></trkpt><trkpt lat="44.752337515502816" lon="9.422547915546996"><ele>782.0</ele><time>2026-03-22T14:58:35Z</time></trkpt><trkpt lat="44.75236896427165" lon="9.422827201478652"><ele>784.0</ele><time>2026-03-22T14:58:36Z</time></trkpt><trkpt lat="44.7523950493672" lon="9.423122676372875"><ele>786.0</ele><time>2026-03-22T14:58:37Z</time></trkpt><trkpt lat="44.75242011245322" lon="9.423394091409952"><ele>789.3333333333333</ele><time>2026-03-22T14:58:38Z</time></trkpt><trkpt lat="44.75244305790943" lon="9.423673449471439"><ele>792.6666666666666</ele><time>2026-03-22T14:58:39Z</time></trkpt><trkpt lat="44.75246205493388" lon="9.42394364264581"><ele>796.0</ele><time>2026-03-22T14:58:40Z</time></trkpt><trkpt lat="44.752479977855984" lon="9.424207879359743"><ele>798.5</ele><time>2026-03-22T14:58:41Z</time></trkpt><trkpt lat="44.7524962530323" lon="9.42444971665306"><ele>801.0</ele><time>2026-03-22T14:58:42Z</time></trkpt><trkpt lat="44.752507918607535" lon="9.424651809978135"><ele>803.5</ele><time>2026-03-22T14:58:43Z</time></trkpt><trkpt lat="44.75251820136961" lon="9.424836728794494"><ele>806.0</ele><time>2026-03-22T14:58:44Z</time></trkpt><trkpt lat="44.75252776931581" lon="9.425008792701421"><ele>807.8</ele><time>2026-03-22T14:58:45Z</time></trkpt><trkpt lat="44.752538451861206" lon="9.425185301874174"><ele>809.5999999999999</ele><time>2026-03-22T14:58:46Z</time></trkpt><trkpt lat="44.752555863541595" lon="9.425327901763913"><ele>811.4</ele><time>2026-03-22T14:58:47Z</time></trkpt><trkpt lat="44.75259440267765" lon="9.425445314112984"><ele>813.2</ele><time>2026-03-22T14:58:48Z</time></trkpt><trkpt lat="44.75266513652363" lon="9.425512408791821"><ele>815.0</ele><time>2026-03-22T14:58:49Z</time></trkpt><trkpt lat="44.75278585644682" lon="9.425548085109247"><ele>815.25</ele><time>2026-03-22T14:58:50Z</time></trkpt><trkpt lat="44.75288985817424" lon="9.425653165910422"><ele>815.5</ele><time>2026-03-22T14:58:51Z</time></trkpt><trkpt lat="44.75297476501121" lon="9.425778595996874"><ele>815.75</ele><time>2026-03-22T14:58:52Z</time></trkpt><trkpt lat="44.75301739426981" lon="9.425942540540937"><ele>816.0</ele><time>2026-03-22T14:58:53Z</time></trkpt><trkpt lat="44.7530293734847" lon="9.426141769397125"><ele>819.0</ele><time>2026-03-22T14:58:54Z</time></trkpt><trkpt lat="44.75303562412141" lon="9.426365675332772"><ele>822.0</ele><time>2026-03-22T14:58:55Z</time></trkpt><trkpt lat="44.75301749324242" lon="9.426561692715108"><ele>825.0</ele><time>2026-03-22T14:58:56Z</time></trkpt><trkpt lat="44.752973670335784" lon="9.426701327971617"><ele>828.0</ele><time>2026-03-22T14:58:57Z</time></trkpt><trkpt lat="44.752923802294596" lon="9.426792064482145"><ele>828.0</ele><time>2026-03-22T14:58:58Z</time></trkpt><trkpt lat="44.75284388964008" lon="9.426866480863831"><ele>828.0</ele><time>2026-03-22T14:58:59Z</time></trkpt><trkpt lat="44.75275019520661" lon="9.42689233383214"><ele>828.0</ele><time>2026-03-22T14:59:00Z</time></trkpt><trkpt lat="44.75263629439579" lon="9.426862433234023"><ele>828.0</ele><time>2026-03-22T14:59:01Z</time></trkpt><trkpt lat="44.7524825211375" lon="9.426827065633614"><ele>829.25</ele><time>2026-03-22T14:59:02Z</time></trkpt><trkpt lat="44.75231674473464" lon="9.426767062933521"><ele>830.5</ele><time>2026-03-22T14:59:03Z</time></trkpt><trkpt lat="44.75216392595121" lon="9.426730782058549"><ele>831.75</ele><time>2026-03-22T14:59:04Z</time></trkpt><trkpt lat="44.75206083306753" lon="9.426709862284696"><ele>833.0</ele><time>2026-03-22T14:59:05Z</time></trkpt><trkpt lat="44.751990158551706" lon="9.426680343672835"><ele>833.0</ele><time>2026-03-22T14:59:06Z</time></trkpt><trkpt lat="44.75190966529352" lon="9.426659974046364"><ele>833.0</ele><time>2026-03-22T14:59:07Z</time></trkpt><trkpt lat="44.75183255630135" lon="9.426686606524356"><ele>833.0</ele><time>2026-03-22T14:59:07.999Z</time></trkpt><trkpt lat="44.751748828991246" lon="9.426741950551627"><ele>833.0</ele><time>2026-03-22T14:59:08.999Z</time></trkpt><trkpt lat="44.75168997619713" lon="9.426861922176005"><ele>833.0</ele><time>2026-03-22T14:59:09.999Z</time></trkpt><trkpt lat="44.75167158688152" lon="9.427008386954125"><ele>832.75</ele><time>2026-03-22T14:59:10.999Z</time></trkpt><trkpt lat="44.751734899452295" lon="9.42714354492388"><ele>832.5</ele><time>2026-03-22T14:59:11.999Z</time></trkpt><trkpt lat="44.751819899399884" lon="9.427274675883366"><ele>832.25</ele><time>2026-03-22T14:59:12.999Z</time></trkpt><trkpt lat="44.75191620456819" lon="9.427445468355804"><ele>832.0</ele><time>2026-03-22T14:59:13.999Z</time></trkpt><trkpt lat="44.752012777051775" lon="9.427630393578632"><ele>836.5</ele><time>2026-03-22T14:59:14.999Z</time></trkpt><trkpt lat="44.75211364898859" lon="9.427795996463225"><ele>841.0</ele><time>2026-03-22T14:59:15.999Z</time></trkpt><trkpt lat="44.752206272652295" lon="9.427914395489498"><ele>845.5</ele><time>2026-03-22T14:59:16.999Z</time></trkpt><trkpt lat="44.752302634836525" lon="9.427967127649106"><ele>850.0</ele><time>2026-03-22T14:59:17.999Z</time></trkpt><trkpt lat="44.75242428708099" lon="9.428007677896948"><ele>853.5</ele><time>2026-03-22T14:59:18.999Z</time></trkpt><trkpt lat="44.75257321302241" lon="9.4280217052705"><ele>857.0</ele><time>2026-03-22T14:59:19.999Z</time></trkpt><trkpt lat="44.75270675703225" lon="9.428039068127479"><ele>860.5</ele><time>2026-03-22T14:59:20.999Z</time></trkpt><trkpt lat="44.752811488851734" lon="9.428068706260648"><ele>864.0</ele><time>2026-03-22T14:59:21.999Z</time></trkpt><trkpt lat="44.75291123846229" lon="9.428155446380842"><ele>864.0</ele><time>2026-03-22T14:59:22.999Z</time></trkpt><trkpt lat="44.75303850787942" lon="9.428256501591463"><ele>864.0</ele><time>2026-03-22T14:59:23.999Z</time></trkpt><trkpt lat="44.75313650045408" lon="9.428361061720677"><ele>864.0</ele><time>2026-03-22T14:59:24.999Z</time></trkpt><trkpt lat="44.753202920158145" lon="9.428493313141677"><ele>864.0</ele><time>2026-03-22T14:59:25.999Z</time></trkpt><trkpt lat="44.753257859972514" lon="9.428651206273166"><ele>864.0</ele><time>2026-03-22T14:59:26.999Z</time></trkpt><trkpt lat="44.75330439779013" lon="9.428760242530748"><ele>864.0000000000001</ele><time>2026-03-22T14:59:27.999Z</time></trkpt><trkpt lat="44.753284314515106" lon="9.428920944020305"><ele>864.0000000000001</ele><time>2026-03-22T14:59:29.999Z</time></trkpt><trkpt lat="44.7532869689497" lon="9.429017391320661"><ele>864.0</ele><time>2026-03-22T14:59:30.999Z</time></trkpt><trkpt lat="44.7532861800512" lon="9.42912179819151"><ele>864.0</ele><time>2026-03-22T14:59:31.999Z</time></trkpt><trkpt lat="44.7532811739931" lon="9.42926336189634"><ele>867.75</ele><time>2026-03-22T14:59:32.999Z</time></trkpt><trkpt lat="44.7532717171227" lon="9.429408600737833"><ele>871.5</ele><time>2026-03-22T14:59:33.999Z</time></trkpt><trkpt lat="44.75325262161953" lon="9.429567406119245"><ele>875.25</ele><time>2026-03-22T14:59:34.999Z</time></trkpt><trkpt lat="44.753212130298365" lon="9.429726961907715"><ele>879.0</ele><time>2026-03-22T14:59:35.999Z</time></trkpt><trkpt lat="44.753137279457405" lon="9.429880545097532"><ele>881.0</ele><time>2026-03-22T14:59:36.999Z</time></trkpt><trkpt lat="44.753038879659634" lon="9.430054257306434"><ele>883.0</ele><time>2026-03-22T14:59:37.999Z</time></trkpt><trkpt lat="44.75295694945342" lon="9.43025132849409"><ele>885.0</ele><time>2026-03-22T14:59:38.999Z</time></trkpt><trkpt lat="44.752883605659335" lon="9.430442510112215"><ele>884.5</ele><time>2026-03-22T14:59:39.999Z</time></trkpt><trkpt lat="44.75281419378683" lon="9.430592885442234"><ele>884.0</ele><time>2026-03-22T14:59:40.999Z</time></trkpt><trkpt lat="44.752735897996956" lon="9.430727269838545"><ele>883.5</ele><time>2026-03-22T14:59:41.999Z</time></trkpt><trkpt lat="44.75264488993969" lon="9.430880047990915"><ele>883.0</ele><time>2026-03-22T14:59:42.999Z</time></trkpt><trkpt lat="44.75256214280341" lon="9.4310488809969"><ele>886.5</ele><time>2026-03-22T14:59:43.999Z</time></trkpt><trkpt lat="44.75249007956825" lon="9.431229117690823"><ele>890.0</ele><time>2026-03-22T14:59:44.999Z</time></trkpt><trkpt lat="44.75244329171879" lon="9.43140624369517"><ele>893.5</ele><time>2026-03-22T14:59:45.999Z</time></trkpt><trkpt lat="44.752397907689144" lon="9.431557071976725"><ele>897.0</ele><time>2026-03-22T14:59:46.999Z</time></trkpt><trkpt lat="44.75233554055179" lon="9.431702941290386"><ele>897.0</ele><time>2026-03-22T14:59:47.999Z</time></trkpt><trkpt lat="44.75226880672854" lon="9.431830183939658"><ele>897.0</ele><time>2026-03-22T14:59:48.999Z</time></trkpt><trkpt lat="44.7522047696865" lon="9.431949315741834"><ele>897.0</ele><time>2026-03-22T14:59:49.999Z</time></trkpt><trkpt lat="44.75213830341819" lon="9.432069150211607"><ele>897.0</ele><time>2026-03-22T14:59:50.999Z</time></trkpt><trkpt lat="44.75207079232285" lon="9.43218528620309"><ele>897.0</ele><time>2026-03-22T14:59:51.998Z</time></trkpt><trkpt lat="44.75200010748923" lon="9.432289333067494"><ele>897.6</ele><time>2026-03-22T14:59:52.998Z</time></trkpt><trkpt lat="44.751923932976254" lon="9.432390576436562"><ele>898.2</ele><time>2026-03-22T14:59:53.998Z</time></trkpt><trkpt lat="44.7518467060176" lon="9.43248117141103"><ele>898.8</ele><time>2026-03-22T14:59:54.998Z</time></trkpt><trkpt lat="44.751767871318094" lon="9.432568425074715"><ele>899.4</ele><time>2026-03-22T14:59:55.998Z</time></trkpt><trkpt lat="44.75169783351048" lon="9.43264294804799"><ele>900.0</ele><time>2026-03-22T14:59:56.998Z</time></trkpt><trkpt lat="44.75163918067107" lon="9.432697974921522"><ele>900.0</ele><time>2026-03-22T14:59:57.998Z</time></trkpt><trkpt lat="44.75158366393381" lon="9.432743639980455"><ele>900.0</ele><time>2026-03-22T14:59:58.998Z</time></trkpt><trkpt lat="44.75151426738287" lon="9.43280038903549"><ele>900.0</ele><time>2026-03-22T15:00:00.998Z</time></trkpt><trkpt lat="44.75156452093548" lon="9.432979132974344"><ele>900.0</ele><time>2026-03-22T15:00:03.998Z</time></trkpt><trkpt lat="44.75161870524184" lon="9.433053351390592"><ele>900.0</ele><time>2026-03-22T15:00:05.998Z</time></trkpt><trkpt lat="44.75169846363368" lon="9.433160576857995"><ele>901.6666666666666</ele><time>2026-03-22T15:00:07.998Z</time></trkpt><trkpt lat="44.751751858043555" lon="9.433220028892777"><ele>903.3333333333333</ele><time>2026-03-22T15:00:08.998Z</time></trkpt><trkpt lat="44.75182110304417" lon="9.433276963367106"><ele>905.0</ele><time>2026-03-22T15:00:10.998Z</time></trkpt><trkpt lat="44.7518656576964" lon="9.433340476393608"><ele>906.6666666666666</ele><time>2026-03-22T15:00:38.001Z</time></trkpt><trkpt lat="44.751854856124154" lon="9.433521614571985"><ele>908.3333333333333</ele><time>2026-03-22T15:01:45.999Z</time></trkpt><trkpt lat="44.75184665749812" lon="9.433612770581483"><ele>910.0</ele><time>2026-03-22T15:01:46.999Z</time></trkpt><trkpt lat="44.75184955075972" lon="9.433719794063249"><ele>910.4999999999999</ele><time>2026-03-22T15:01:47.999Z</time></trkpt><trkpt lat="44.751855021612364" lon="9.433851484922242"><ele>911.0</ele><time>2026-03-22T15:01:48.999Z</time></trkpt><trkpt lat="44.751855130316905" lon="9.433972046224932"><ele>911.5</ele><time>2026-03-22T15:01:49.999Z</time></trkpt><trkpt lat="44.75185111690139" lon="9.434100536733549"><ele>912.0</ele><time>2026-03-22T15:01:50.999Z</time></trkpt><trkpt lat="44.75184356743476" lon="9.434218578733118"><ele>912.4999999999999</ele><time>2026-03-22T15:01:51.999Z</time></trkpt><trkpt lat="44.75183328899763" lon="9.434317341917671"><ele>913.0</ele><time>2026-03-22T15:01:52.999Z</time></trkpt><trkpt lat="44.75181342506944" lon="9.434437916080421"><ele>912.9999999999999</ele><time>2026-03-22T15:01:54.999Z</time></trkpt><trkpt lat="44.751785162624" lon="9.434565985652432"><ele>913.0</ele><time>2026-03-22T15:01:58.999Z</time></trkpt><trkpt lat="44.751779476022826" lon="9.434656113930243"><ele>913.0</ele><time>2026-03-22T15:01:59.999Z</time></trkpt><trkpt lat="44.75176837886032" lon="9.434763029372442"><ele>913.0</ele><time>2026-03-22T15:02:00.999Z</time></trkpt><trkpt lat="44.75175058033516" lon="9.434864347061076"><ele>912.9999999999999</ele><time>2026-03-22T15:02:01.999Z</time></trkpt><trkpt lat="44.75174569408806" lon="9.435030533687675"><ele>913.0</ele><time>2026-03-22T15:02:03.999Z</time></trkpt><trkpt lat="44.75174640053614" lon="9.435125641662552"><ele>912.4999999999999</ele><time>2026-03-22T15:02:04.999Z</time></trkpt><trkpt lat="44.751746578006276" lon="9.43523176971137"><ele>912.0</ele><time>2026-03-22T15:02:05.999Z</time></trkpt><trkpt lat="44.75174483549312" lon="9.43537334879763"><ele>911.5</ele><time>2026-03-22T15:02:07.999Z</time></trkpt><trkpt lat="44.75175360033286" lon="9.435461244876736"><ele>911.0</ele><time>2026-03-22T15:02:10.997Z</time></trkpt><trkpt lat="44.75175879328819" lon="9.435609509598732"><ele>910.4999999999999</ele><time>2026-03-22T15:02:12.997Z</time></trkpt><trkpt lat="44.751777391424405" lon="9.435749694482181"><ele>910.0</ele><time>2026-03-22T15:02:14.997Z</time></trkpt><trkpt lat="44.75182741385102" lon="9.435909476292547"><ele>909.9999999999999</ele><time>2026-03-22T15:02:16.997Z</time></trkpt><trkpt lat="44.751783994323375" lon="9.435831946700931"><ele>910.0</ele><time>2026-03-22T15:03:31.999Z</time></trkpt><trkpt lat="44.75175034141094" lon="9.435707822442495"><ele>910.0</ele><time>2026-03-22T15:03:34.999Z</time></trkpt><trkpt lat="44.751731283538426" lon="9.435604919646078"><ele>910.0</ele><time>2026-03-22T15:03:36.999Z</time></trkpt><trkpt lat="44.751726120128616" lon="9.43550578954313"><ele>909.9999999999999</ele><time>2026-03-22T15:03:38.999Z</time></trkpt><trkpt lat="44.7517080071076" lon="9.43537806166345"><ele>910.0</ele><time>2026-03-22T15:03:41.999Z</time></trkpt><trkpt lat="44.75171000721623" lon="9.435243861945507"><ele>910.0</ele><time>2026-03-22T15:03:43.999Z</time></trkpt><trkpt lat="44.75170767959695" lon="9.435111732708283"><ele>910.0</ele><time>2026-03-22T15:03:45.998Z</time></trkpt><trkpt lat="44.751717777992695" lon="9.434989638370348"><ele>910.0</ele><time>2026-03-22T15:03:47.998Z</time></trkpt><trkpt lat="44.75172120510279" lon="9.434854747563547"><ele>910.0</ele><time>2026-03-22T15:03:49.998Z</time></trkpt><trkpt lat="44.75174008022373" lon="9.434706894895541"><ele>910.0</ele><time>2026-03-22T15:03:51.998Z</time></trkpt><trkpt lat="44.75176729439557" lon="9.434569175450356"><ele>910.6</ele><time>2026-03-22T15:03:53.998Z</time></trkpt><trkpt lat="44.75179830419979" lon="9.434439141963564"><ele>911.2</ele><time>2026-03-22T15:03:56.998Z</time></trkpt><trkpt lat="44.751812492568014" lon="9.434345566224264"><ele>911.8</ele><time>2026-03-22T15:03:58.998Z</time></trkpt><trkpt lat="44.751837155543576" lon="9.43423218562185"><ele>912.4</ele><time>2026-03-22T15:03:59.998Z</time></trkpt><trkpt lat="44.7518559771273" lon="9.434087404631242"><ele>913.0</ele><time>2026-03-22T15:04:01.998Z</time></trkpt><trkpt lat="44.75185192590949" lon="9.433909493843775"><ele>912.4</ele><time>2026-03-22T15:04:03.998Z</time></trkpt><trkpt lat="44.75183072279934" lon="9.43375715706613"><ele>911.8</ele><time>2026-03-22T15:04:05.998Z</time></trkpt><trkpt lat="44.751837519934995" lon="9.433606069782984"><ele>911.2</ele><time>2026-03-22T15:04:07.998Z</time></trkpt><trkpt lat="44.75184135107845" lon="9.433515471593987"><ele>910.6</ele><time>2026-03-22T15:04:08.998Z</time></trkpt><trkpt lat="44.751824867199986" lon="9.433352961373627"><ele>910.0</ele><time>2026-03-22T15:04:10.998Z</time></trkpt><trkpt lat="44.75178435759827" lon="9.433203699971731"><ele>910.0</ele><time>2026-03-22T15:04:12.998Z</time></trkpt><trkpt lat="44.75170222877373" lon="9.433106674503021"><ele>910.0</ele><time>2026-03-22T15:04:14.998Z</time></trkpt><trkpt lat="44.75164587257857" lon="9.433065019785055"><ele>910.0</ele><time>2026-03-22T15:04:15.998Z</time></trkpt><trkpt lat="44.751577882194155" lon="9.432953175247142"><ele>910.0</ele><time>2026-03-22T15:04:17.998Z</time></trkpt><trkpt lat="44.75152534788913" lon="9.432871491063928"><ele>910.0</ele><time>2026-03-22T15:04:19.998Z</time></trkpt><trkpt lat="44.75134962989736" lon="9.43294483002775"><ele>909.9999999999999</ele><time>2026-03-22T15:04:20.998Z</time></trkpt><trkpt lat="44.751292412668214" lon="9.432997204015393"><ele>910.0</ele><time>2026-03-22T15:04:22.998Z</time></trkpt><trkpt lat="44.751209880401404" lon="9.433072753622554"><ele>910.0</ele><time>2026-03-22T15:04:24.998Z</time></trkpt><trkpt lat="44.75114727403897" lon="9.433115456087364"><ele>910.0</ele><time>2026-03-22T15:04:25.998Z</time></trkpt><trkpt lat="44.751075785913955" lon="9.433163663540483"><ele>909.9999999999999</ele><time>2026-03-22T15:04:26.998Z</time></trkpt><trkpt lat="44.75099529209969" lon="9.433206241253286"><ele>910.0</ele><time>2026-03-22T15:04:27.997Z</time></trkpt><trkpt lat="44.75091325254751" lon="9.433243660382358"><ele>909.0</ele><time>2026-03-22T15:04:28.997Z</time></trkpt><trkpt lat="44.750830415229615" lon="9.43327580923986"><ele>908.0</ele><time>2026-03-22T15:04:29.997Z</time></trkpt><trkpt lat="44.75072887871022" lon="9.433314566594817"><ele>907.0</ele><time>2026-03-22T15:04:30.997Z</time></trkpt><trkpt lat="44.75061330361197" lon="9.433360364565491"><ele>906.0</ele><time>2026-03-22T15:04:31.997Z</time></trkpt><trkpt lat="44.75049553469607" lon="9.433417586178356"><ele>905.0</ele><time>2026-03-22T15:04:32.997Z</time></trkpt><trkpt lat="44.750385532113235" lon="9.433480765761825"><ele>905.0</ele><time>2026-03-22T15:04:33.997Z</time></trkpt><trkpt lat="44.75027503367368" lon="9.43354787229306"><ele>905.0</ele><time>2026-03-22T15:04:34.997Z</time></trkpt><trkpt lat="44.75017135775431" lon="9.433618294469806"><ele>905.0</ele><time>2026-03-22T15:04:35.997Z</time></trkpt><trkpt lat="44.75007601851872" lon="9.433693790177013"><ele>905.0</ele><time>2026-03-22T15:04:36.997Z</time></trkpt><trkpt lat="44.74996776331423" lon="9.433784351245565"><ele>909.3333333333334</ele><time>2026-03-22T15:04:37.997Z</time></trkpt><trkpt lat="44.74984210874667" lon="9.433906014888123"><ele>913.6666666666667</ele><time>2026-03-22T15:04:38.997Z</time></trkpt><trkpt lat="44.74969651894036" lon="9.434026197029873"><ele>918.0</ele><time>2026-03-22T15:04:39.997Z</time></trkpt><trkpt lat="44.749577913722796" lon="9.434107315384031"><ele>918.0</ele><time>2026-03-22T15:04:40.997Z</time></trkpt><trkpt lat="44.74946170627981" lon="9.434157675557872"><ele>918.0</ele><time>2026-03-22T15:04:42Z</time></trkpt><trkpt lat="44.74934230049519" lon="9.434183312460112"><ele>918.0</ele><time>2026-03-22T15:04:43Z</time></trkpt><trkpt lat="44.74921685573638" lon="9.434199554695782"><ele>918.0</ele><time>2026-03-22T15:04:44Z</time></trkpt><trkpt lat="44.74908341786887" lon="9.43421498473126"><ele>916.8</ele><time>2026-03-22T15:04:45Z</time></trkpt><trkpt lat="44.74895501883882" lon="9.434222318160025"><ele>915.5999999999999</ele><time>2026-03-22T15:04:46Z</time></trkpt><trkpt lat="44.74884335081066" lon="9.43422470259925"><ele>914.4000000000001</ele><time>2026-03-22T15:04:47Z</time></trkpt><trkpt lat="44.748755626354615" lon="9.434223394031635"><ele>913.2</ele><time>2026-03-22T15:04:48Z</time></trkpt><trkpt lat="44.74868241077256" lon="9.434247793442367"><ele>912.0</ele><time>2026-03-22T15:04:49Z</time></trkpt><trkpt lat="44.748574405495106" lon="9.434274370805728"><ele>911.0</ele><time>2026-03-22T15:04:51Z</time></trkpt><trkpt lat="44.74851774292703" lon="9.434343245930775"><ele>910.0</ele><time>2026-03-22T15:04:52Z</time></trkpt><trkpt lat="44.74847640676358" lon="9.434445784350338"><ele>909.0</ele><time>2026-03-22T15:04:53Z</time></trkpt><trkpt lat="44.74847023972718" lon="9.434545298877469"><ele>908.0</ele><time>2026-03-22T15:04:54Z</time></trkpt><trkpt lat="44.74849412856907" lon="9.434645880339643"><ele>907.0</ele><time>2026-03-22T15:04:55Z</time></trkpt><trkpt lat="44.74855038242835" lon="9.43476754821772"><ele>906.0</ele><time>2026-03-22T15:04:56Z</time></trkpt><trkpt lat="44.74859229900277" lon="9.434903510181384"><ele>908.4</ele><time>2026-03-22T15:04:57Z</time></trkpt><trkpt lat="44.748598941846296" lon="9.435017733585568"><ele>910.8</ele><time>2026-03-22T15:04:58Z</time></trkpt><trkpt lat="44.74859071978528" lon="9.43512638888131"><ele>913.1999999999999</ele><time>2026-03-22T15:04:59Z</time></trkpt><trkpt lat="44.74856238147238" lon="9.435246253983099"><ele>915.5999999999999</ele><time>2026-03-22T15:05:00Z</time></trkpt><trkpt lat="44.74849289013031" lon="9.435343430375239"><ele>918.0</ele><time>2026-03-22T15:05:01Z</time></trkpt><trkpt lat="44.74840153066078" lon="9.435475054210919"><ele>920.4</ele><time>2026-03-22T15:05:02Z</time></trkpt><trkpt lat="44.74831388695049" lon="9.435613943387088"><ele>922.8</ele><time>2026-03-22T15:05:03Z</time></trkpt><trkpt lat="44.748241961926" lon="9.435746592929425"><ele>925.2</ele><time>2026-03-22T15:05:04Z</time></trkpt><trkpt lat="44.74820216553612" lon="9.435858770917914"><ele>927.6</ele><time>2026-03-22T15:05:05Z</time></trkpt><trkpt lat="44.74819415029379" lon="9.435981160192"><ele>930.0</ele><time>2026-03-22T15:05:06Z</time></trkpt><trkpt lat="44.74819967223149" lon="9.43613464541268"><ele>930.0</ele><time>2026-03-22T15:05:07Z</time></trkpt><trkpt lat="44.74822263218778" lon="9.436301947233874"><ele>930.0</ele><time>2026-03-22T15:05:08Z</time></trkpt><trkpt lat="44.748229644797185" lon="9.4364657163011"><ele>930.0</ele><time>2026-03-22T15:05:09Z</time></trkpt><trkpt lat="44.74819091268689" lon="9.43659581206936"><ele>930.0</ele><time>2026-03-22T15:05:10Z</time></trkpt><trkpt lat="44.74812139178493" lon="9.436724165730148"><ele>932.0</ele><time>2026-03-22T15:05:11Z</time></trkpt><trkpt lat="44.748082993279425" lon="9.43690747941449"><ele>934.0</ele><time>2026-03-22T15:05:12Z</time></trkpt><trkpt lat="44.74807591250668" lon="9.437063312402307"><ele>936.0</ele><time>2026-03-22T15:05:13Z</time></trkpt><trkpt lat="44.74804690736365" lon="9.437174760514289"><ele>938.0</ele><time>2026-03-22T15:05:14Z</time></trkpt><trkpt lat="44.74794278669426" lon="9.437246344105446"><ele>940.0</ele><time>2026-03-22T15:05:16Z</time></trkpt><trkpt lat="44.747825228523226" lon="9.437259668035102"><ele>942.0</ele><time>2026-03-22T15:05:17Z</time></trkpt><trkpt lat="44.74764991582152" lon="9.437289391944926"><ele>944.0</ele><time>2026-03-22T15:05:18Z</time></trkpt><trkpt lat="44.74748541459251" lon="9.437317500330137"><ele>946.0</ele><time>2026-03-22T15:05:19Z</time></trkpt><trkpt lat="44.74737289381286" lon="9.437338980639712"><ele>946.0</ele><time>2026-03-22T15:05:19.999Z</time></trkpt><trkpt lat="44.74727654059546" lon="9.43737814668014"><ele>946.0</ele><time>2026-03-22T15:05:20.999Z</time></trkpt><trkpt lat="44.74716240463646" lon="9.437476525684273"><ele>946.0</ele><time>2026-03-22T15:05:21.999Z</time></trkpt><trkpt lat="44.7470243505742" lon="9.437583115193119"><ele>946.0</ele><time>2026-03-22T15:05:22.999Z</time></trkpt><trkpt lat="44.74688367062796" lon="9.43765072534647"><ele>944.25</ele><time>2026-03-22T15:05:23.999Z</time></trkpt><trkpt lat="44.74674317002781" lon="9.437694572909688"><ele>942.5</ele><time>2026-03-22T15:05:24.999Z</time></trkpt><trkpt lat="44.7466032964354" lon="9.437731152576585"><ele>940.75</ele><time>2026-03-22T15:05:25.999Z</time></trkpt><trkpt lat="44.74649559812812" lon="9.437770404727418"><ele>939.0</ele><time>2026-03-22T15:05:26.999Z</time></trkpt><trkpt lat="44.74637146413418" lon="9.437838486684262"><ele>939.0</ele><time>2026-03-22T15:05:27.999Z</time></trkpt><trkpt lat="44.74626568393703" lon="9.437937159414501"><ele>939.0000000000001</ele><time>2026-03-22T15:05:28.999Z</time></trkpt><trkpt lat="44.74618128895549" lon="9.43802411651897"><ele>939.0000000000001</ele><time>2026-03-22T15:05:29.999Z</time></trkpt><trkpt lat="44.74612793286588" lon="9.438090262808204"><ele>939.0</ele><time>2026-03-22T15:05:30.999Z</time></trkpt><trkpt lat="44.74609148980267" lon="9.438170683692366"><ele>939.0</ele><time>2026-03-22T15:05:31.999Z</time></trkpt><trkpt lat="44.74610345664458" lon="9.43830256712164"><ele>943.2</ele><time>2026-03-22T15:05:32.999Z</time></trkpt><trkpt lat="44.74610613185325" lon="9.43843068547704"><ele>947.4000000000001</ele><time>2026-03-22T15:05:33.999Z</time></trkpt><trkpt lat="44.74610944991958" lon="9.438566934626557"><ele>951.6</ele><time>2026-03-22T15:05:34.999Z</time></trkpt><trkpt lat="44.74609759838232" lon="9.438704797591647"><ele>955.8</ele><time>2026-03-22T15:05:35.999Z</time></trkpt><trkpt lat="44.746068535084696" lon="9.43884447726049"><ele>960.0</ele><time>2026-03-22T15:05:36.999Z</time></trkpt><trkpt lat="44.74604392703414" lon="9.438967940250741"><ele>960.0</ele><time>2026-03-22T15:05:37.999Z</time></trkpt><trkpt lat="44.746025304481655" lon="9.439071226223996"><ele>960.0</ele><time>2026-03-22T15:05:38.999Z</time></trkpt><trkpt lat="44.746015648622645" lon="9.43917066537106"><ele>960.0</ele><time>2026-03-22T15:05:39.999Z</time></trkpt><trkpt lat="44.74601041419829" lon="9.439265365599631"><ele>960.0</ele><time>2026-03-22T15:05:40.999Z</time></trkpt><trkpt lat="44.74599975982917" lon="9.439371219516973"><ele>960.0</ele><time>2026-03-22T15:05:41.999Z</time></trkpt><trkpt lat="44.7459731262378" lon="9.439477973153524"><ele>960.0</ele><time>2026-03-22T15:05:42.999Z</time></trkpt><trkpt lat="44.74594026361876" lon="9.439636799138341"><ele>962.75</ele><time>2026-03-22T15:05:43.999Z</time></trkpt><trkpt lat="44.74592106179998" lon="9.439849010462245"><ele>965.5</ele><time>2026-03-22T15:05:44.999Z</time></trkpt><trkpt lat="44.74588447673849" lon="9.440081016441313"><ele>968.25</ele><time>2026-03-22T15:05:45.999Z</time></trkpt><trkpt lat="44.74586213781456" lon="9.440249401160864"><ele>971.0</ele><time>2026-03-22T15:05:46.999Z</time></trkpt><trkpt lat="44.74583746158522" lon="9.440414356959232"><ele>974.0</ele><time>2026-03-22T15:05:47.999Z</time></trkpt><trkpt lat="44.74580069219426" lon="9.440526812795644"><ele>976.9999999999999</ele><time>2026-03-22T15:05:48.999Z</time></trkpt><trkpt lat="44.74570530207087" lon="9.440628321761311"><ele>979.9999999999999</ele><time>2026-03-22T15:05:50.999Z</time></trkpt><trkpt lat="44.745617145889206" lon="9.440709896129118"><ele>983.0</ele><time>2026-03-22T15:05:52.999Z</time></trkpt><trkpt lat="44.745541884997174" lon="9.44075214332191"><ele>986.0</ele><time>2026-03-22T15:05:54.999Z</time></trkpt><trkpt lat="44.74545490892992" lon="9.44079875192574"><ele>986.0000000000001</ele><time>2026-03-22T15:06:22.998Z</time></trkpt><trkpt lat="44.7453775092583" lon="9.44086074594578"><ele>986.0</ele><time>2026-03-22T15:06:24.998Z</time></trkpt><trkpt lat="44.74528233093495" lon="9.440942324558382"><ele>986.0</ele><time>2026-03-22T15:06:26.998Z</time></trkpt><trkpt lat="44.74521935207701" lon="9.440959068790312"><ele>986.0</ele><time>2026-03-22T15:06:27.998Z</time></trkpt><trkpt lat="44.74515048802981" lon="9.441018368451104"><ele>986.0000000000001</ele><time>2026-03-22T15:06:28.998Z</time></trkpt><trkpt lat="44.745067556505425" lon="9.44104527272206"><ele>986.0</ele><time>2026-03-22T15:06:29.998Z</time></trkpt><trkpt lat="44.74498452106141" lon="9.441146319634468"><ele>985.8333333333334</ele><time>2026-03-22T15:06:31.998Z</time></trkpt><trkpt lat="44.74498009258338" lon="9.441268049982872"><ele>985.6666666666667</ele><time>2026-03-22T15:06:33.998Z</time></trkpt><trkpt lat="44.745040942745355" lon="9.441352079460959"><ele>985.5</ele><time>2026-03-22T15:06:34.998Z</time></trkpt><trkpt lat="44.74514137371167" lon="9.441348124344819"><ele>985.3333333333333</ele><time>2026-03-22T15:06:35.998Z</time></trkpt><trkpt lat="44.745233432233036" lon="9.441365240982485"><ele>985.1666666666666</ele><time>2026-03-22T15:06:36.998Z</time></trkpt><trkpt lat="44.74528912652963" lon="9.441409198659137"><ele>985.0</ele><time>2026-03-22T15:06:37.998Z</time></trkpt><trkpt lat="44.745297672941525" lon="9.441570954326679"><ele>988.8</ele><time>2026-03-22T15:06:39.998Z</time></trkpt><trkpt lat="44.745261520003254" lon="9.441661803067579"><ele>992.6</ele><time>2026-03-22T15:06:40.998Z</time></trkpt><trkpt lat="44.74520208148217" lon="9.44175523237245"><ele>996.4000000000001</ele><time>2026-03-22T15:06:41.998Z</time></trkpt><trkpt lat="44.74511938831403" lon="9.44183717138616"><ele>1000.2</ele><time>2026-03-22T15:06:42.998Z</time></trkpt><trkpt lat="44.745012258383746" lon="9.441929730989914"><ele>1004.0</ele><time>2026-03-22T15:06:43.998Z</time></trkpt><trkpt lat="44.744896303154654" lon="9.442009208732767"><ele>1004.0</ele><time>2026-03-22T15:06:44.997Z</time></trkpt><trkpt lat="44.74481252719122" lon="9.442080543589796"><ele>1004.0000000000001</ele><time>2026-03-22T15:06:45.997Z</time></trkpt><trkpt lat="44.74472041257544" lon="9.44210751050348"><ele>1004.0000000000001</ele><time>2026-03-22T15:06:46.997Z</time></trkpt><trkpt lat="44.744609356488304" lon="9.442101103300287"><ele>1004.0</ele><time>2026-03-22T15:06:48Z</time></trkpt><trkpt lat="44.744528665231826" lon="9.442103842088347"><ele>1004.0</ele><time>2026-03-22T15:06:49Z</time></trkpt><trkpt lat="44.7444301822749" lon="9.442150833180756"><ele>1003.8000000000001</ele><time>2026-03-22T15:06:51Z</time></trkpt><trkpt lat="44.74433862121789" lon="9.442297844304989"><ele>1003.6000000000001</ele><time>2026-03-22T15:06:53Z</time></trkpt><trkpt lat="44.74428271858898" lon="9.442397724465744"><ele>1003.4</ele><time>2026-03-22T15:06:54Z</time></trkpt><trkpt lat="44.74420986620699" lon="9.442485195742172"><ele>1003.2</ele><time>2026-03-22T15:06:55Z</time></trkpt><trkpt lat="44.74413067386181" lon="9.442562124289749"><ele>1003.0</ele><time>2026-03-22T15:06:56Z</time></trkpt><trkpt lat="44.7440786833788" lon="9.44264439511567"><ele>1003.0</ele><time>2026-03-22T15:06:57Z</time></trkpt><trkpt lat="44.74405275360947" lon="9.442764033491846"><ele>1003.0</ele><time>2026-03-22T15:06:58Z</time></trkpt><trkpt lat="44.74407983688335" lon="9.442915779539879"><ele>1003.0</ele><time>2026-03-22T15:06:59Z</time></trkpt><trkpt lat="44.74409249677701" lon="9.443038101089064"><ele>1003.0</ele><time>2026-03-22T15:07:00Z</time></trkpt><trkpt lat="44.74409777475781" lon="9.443140603268306"><ele>1003.0</ele><time>2026-03-22T15:07:01Z</time></trkpt><trkpt lat="44.74407466940934" lon="9.443265722588741"><ele>1004.5</ele><time>2026-03-22T15:07:02Z</time></trkpt><trkpt lat="44.744024796701325" lon="9.443408314607346"><ele>1006.0</ele><time>2026-03-22T15:07:03Z</time></trkpt><trkpt lat="44.7439491737505" lon="9.443586705925751"><ele>1007.5</ele><time>2026-03-22T15:07:04Z</time></trkpt><trkpt lat="44.743897013236335" lon="9.443793834338724"><ele>1009.0</ele><time>2026-03-22T15:07:05Z</time></trkpt><trkpt lat="44.7438696591989" lon="9.443996532046082"><ele>1009.0</ele><time>2026-03-22T15:07:06Z</time></trkpt><trkpt lat="44.743869155003345" lon="9.444196306959888"><ele>1009.0</ele><time>2026-03-22T15:07:07Z</time></trkpt><trkpt lat="44.74387758864525" lon="9.444369931252588"><ele>1009.0</ele><time>2026-03-22T15:07:08Z</time></trkpt><trkpt lat="44.74388616189397" lon="9.444525964618036"><ele>1009.0</ele><time>2026-03-22T15:07:09Z</time></trkpt><trkpt lat="44.74389478596735" lon="9.444682922695087"><ele>1010.5</ele><time>2026-03-22T15:07:10Z</time></trkpt><trkpt lat="44.743896954558686" lon="9.444860406138991"><ele>1012.0</ele><time>2026-03-22T15:07:11Z</time></trkpt><trkpt lat="44.74389002892818" lon="9.445044795328812"><ele>1013.5</ele><time>2026-03-22T15:07:12Z</time></trkpt><trkpt lat="44.74387204725781" lon="9.445250699769934"><ele>1015.0</ele><time>2026-03-22T15:07:13Z</time></trkpt><trkpt lat="44.743827029958425" lon="9.445446195527861"><ele>1020.0</ele><time>2026-03-22T15:07:14Z</time></trkpt><trkpt lat="44.74376668203905" lon="9.445648185858108"><ele>1025.0</ele><time>2026-03-22T15:07:15Z</time></trkpt><trkpt lat="44.74369308014576" lon="9.445850225409844"><ele>1030.0</ele><time>2026-03-22T15:07:16Z</time></trkpt><trkpt lat="44.743616039611084" lon="9.446026358555384"><ele>1024.5</ele><time>2026-03-22T15:07:17Z</time></trkpt><trkpt lat="44.7435416925882" lon="9.446205294776567"><ele>1019.0</ele><time>2026-03-22T15:07:18Z</time></trkpt><trkpt lat="44.74347649752002" lon="9.44637820989757"><ele>1013.5</ele><time>2026-03-22T15:07:19Z</time></trkpt><trkpt lat="44.74343032255104" lon="9.44655161411899"><ele>1008.0</ele><time>2026-03-22T15:07:20Z</time></trkpt><trkpt lat="44.74338782350486" lon="9.446701556421228"><ele>1008.0</ele><time>2026-03-22T15:07:21Z</time></trkpt><trkpt lat="44.74333060367526" lon="9.446816137322735"><ele>1008.0</ele><time>2026-03-22T15:07:22Z</time></trkpt><trkpt lat="44.74322122479334" lon="9.446897576263115"><ele>1008.0</ele><time>2026-03-22T15:07:23Z</time></trkpt><trkpt lat="44.74310933773544" lon="9.447034240255615"><ele>1008.0</ele><time>2026-03-22T15:07:24Z</time></trkpt><trkpt lat="44.74302554480186" lon="9.447190602515366"><ele>1008.4</ele><time>2026-03-22T15:07:25Z</time></trkpt><trkpt lat="44.74296719528934" lon="9.447321516666364"><ele>1008.8</ele><time>2026-03-22T15:07:26Z</time></trkpt><trkpt lat="44.74291450230493" lon="9.447394666089936"><ele>1009.2</ele><time>2026-03-22T15:07:27Z</time></trkpt><trkpt lat="44.74285169916053" lon="9.447415842619511"><ele>1009.6</ele><time>2026-03-22T15:07:28Z</time></trkpt><trkpt lat="44.74275217862237" lon="9.44739885302665"><ele>1010.0</ele><time>2026-03-22T15:07:29Z</time></trkpt><trkpt lat="44.742601040850346" lon="9.447386379081378"><ele>1010.0</ele><time>2026-03-22T15:07:30Z</time></trkpt><trkpt lat="44.74243688615191" lon="9.44737926693555"><ele>1010.0</ele><time>2026-03-22T15:07:31Z</time></trkpt><trkpt lat="44.74226686741446" lon="9.447377015840443"><ele>1010.0</ele><time>2026-03-22T15:07:32Z</time></trkpt><trkpt lat="44.74210911212332" lon="9.447398692482194"><ele>1010.0</ele><time>2026-03-22T15:07:33Z</time></trkpt><trkpt lat="44.74197588199657" lon="9.447374242732614"><ele>1010.0</ele><time>2026-03-22T15:07:34Z</time></trkpt><trkpt lat="44.741862635557" lon="9.447387383007516"><ele>1010.0</ele><time>2026-03-22T15:07:35Z</time></trkpt><trkpt lat="44.741760668211704" lon="9.44735644397122"><ele>1010.0</ele><time>2026-03-22T15:07:35.999Z</time></trkpt><trkpt lat="44.74166705677184" lon="9.447385267885357"><ele>1010.0</ele><time>2026-03-22T15:07:36.999Z</time></trkpt><trkpt lat="44.741581253108635" lon="9.44741855946465"><ele>1010.0</ele><time>2026-03-22T15:07:37.999Z</time></trkpt><trkpt lat="44.741486024409824" lon="9.44745331397034"><ele>1010.0</ele><time>2026-03-22T15:07:38.999Z</time></trkpt><trkpt lat="44.741397258725456" lon="9.447522676614442"><ele>1010.0</ele><time>2026-03-22T15:07:39.999Z</time></trkpt><trkpt lat="44.741327948240844" lon="9.447612870311639"><ele>1010.0</ele><time>2026-03-22T15:07:40.999Z</time></trkpt><trkpt lat="44.741285446865064" lon="9.447712644296983"><ele>1010.0</ele><time>2026-03-22T15:07:41.999Z</time></trkpt><trkpt lat="44.74129221743662" lon="9.447871302846101"><ele>1012.6</ele><time>2026-03-22T15:07:42.999Z</time></trkpt><trkpt lat="44.74131636184774" lon="9.448008208628341"><ele>1015.2</ele><time>2026-03-22T15:07:43.999Z</time></trkpt><trkpt lat="44.74133058127419" lon="9.448160757735838"><ele>1017.8</ele><time>2026-03-22T15:07:44.999Z</time></trkpt><trkpt lat="44.74130997990868" lon="9.448295698340212"><ele>1020.4</ele><time>2026-03-22T15:07:45.999Z</time></trkpt><trkpt lat="44.74125466054048" lon="9.448389212509955"><ele>1023.0</ele><time>2026-03-22T15:07:46.999Z</time></trkpt><trkpt lat="44.74117701434509" lon="9.448465601264614"><ele>1023.0</ele><time>2026-03-22T15:07:47.999Z</time></trkpt><trkpt lat="44.74108959608865" lon="9.44852632026621"><ele>1023.0</ele><time>2026-03-22T15:07:48.999Z</time></trkpt><trkpt lat="44.74100115973957" lon="9.448538045026817"><ele>1023.0</ele><time>2026-03-22T15:07:49.999Z</time></trkpt><trkpt lat="44.74091892206531" lon="9.44848429602799"><ele>1023.0</ele><time>2026-03-22T15:07:50.999Z</time></trkpt><trkpt lat="44.74083704582503" lon="9.448401010894592"><ele>1023.0</ele><time>2026-03-22T15:07:51.999Z</time></trkpt><trkpt lat="44.74077064823016" lon="9.44829296640199"><ele>1021.4</ele><time>2026-03-22T15:07:52.999Z</time></trkpt><trkpt lat="44.74071179401373" lon="9.448235596713575"><ele>1019.8</ele><time>2026-03-22T15:07:53.999Z</time></trkpt><trkpt lat="44.74058512111934" lon="9.448232784534342"><ele>1018.2</ele><time>2026-03-22T15:07:55.999Z</time></trkpt><trkpt lat="44.74050874061083" lon="9.448306724802636"><ele>1016.6</ele><time>2026-03-22T15:07:56.999Z</time></trkpt><trkpt lat="44.740435304638545" lon="9.448404700225124"><ele>1015.0</ele><time>2026-03-22T15:07:57.999Z</time></trkpt><trkpt lat="44.74037002237981" lon="9.448519274783418"><ele>1015.0</ele><time>2026-03-22T15:07:58.999Z</time></trkpt><trkpt lat="44.74030701504767" lon="9.44863393258003"><ele>1015.0</ele><time>2026-03-22T15:07:59.999Z</time></trkpt><trkpt lat="44.74022476300366" lon="9.448727842285551"><ele>1015.0</ele><time>2026-03-22T15:08:00.999Z</time></trkpt><trkpt lat="44.74011758462728" lon="9.448760793079167"><ele>1015.0</ele><time>2026-03-22T15:08:01.999Z</time></trkpt><trkpt lat="44.74000056070953" lon="9.448789310469188"><ele>1015.0</ele><time>2026-03-22T15:08:02.999Z</time></trkpt><trkpt lat="44.73989166444402" lon="9.448832523439197"><ele>1020.2</ele><time>2026-03-22T15:08:03.999Z</time></trkpt><trkpt lat="44.73978023789168" lon="9.448880116208217"><ele>1025.4</ele><time>2026-03-22T15:08:04.999Z</time></trkpt><trkpt lat="44.73966239821487" lon="9.448924051897299"><ele>1030.6</ele><time>2026-03-22T15:08:05.999Z</time></trkpt><trkpt lat="44.73955831058069" lon="9.448964074041834"><ele>1035.8</ele><time>2026-03-22T15:08:06.999Z</time></trkpt><trkpt lat="44.73945950635703" lon="9.448965911002025"><ele>1041.0</ele><time>2026-03-22T15:08:07.999Z</time></trkpt><trkpt lat="44.739350301965736" lon="9.448933308623419"><ele>1041.0</ele><time>2026-03-22T15:08:08.999Z</time></trkpt><trkpt lat="44.73924323084308" lon="9.448945419096313"><ele>1041.0</ele><time>2026-03-22T15:08:09.999Z</time></trkpt><trkpt lat="44.73915030020604" lon="9.448969198299972"><ele>1041.0</ele><time>2026-03-22T15:08:10.999Z</time></trkpt><trkpt lat="44.73904631565851" lon="9.448980090557987"><ele>1041.0</ele><time>2026-03-22T15:08:11.999Z</time></trkpt><trkpt lat="44.73895554794408" lon="9.448993736307484"><ele>1041.0</ele><time>2026-03-22T15:08:12.999Z</time></trkpt><trkpt lat="44.738872724929685" lon="9.449022850390572"><ele>1041.0</ele><time>2026-03-22T15:08:13.999Z</time></trkpt><trkpt lat="44.73878052690802" lon="9.449126555213564"><ele>1041.0</ele><time>2026-03-22T15:08:14.999Z</time></trkpt><trkpt lat="44.73868568917061" lon="9.449255365158278"><ele>1041.0</ele><time>2026-03-22T15:08:15.999Z</time></trkpt><trkpt lat="44.73860694269312" lon="9.449405463330185"><ele>1041.0</ele><time>2026-03-22T15:08:16.999Z</time></trkpt><trkpt lat="44.73852112153086" lon="9.449532994425004"><ele>1040.3999999999999</ele><time>2026-03-22T15:08:17.998Z</time></trkpt><trkpt lat="44.73844357853596" lon="9.449638059083485"><ele>1039.8</ele><time>2026-03-22T15:08:18.998Z</time></trkpt><trkpt lat="44.738371545709846" lon="9.449735657985864"><ele>1039.1999999999998</ele><time>2026-03-22T15:08:19.998Z</time></trkpt><trkpt lat="44.73830443749084" lon="9.4498330707416"><ele>1038.6</ele><time>2026-03-22T15:08:20.998Z</time></trkpt><trkpt lat="44.7382407814136" lon="9.449936400868795"><ele>1038.0</ele><time>2026-03-22T15:08:21.998Z</time></trkpt><trkpt lat="44.738185874994585" lon="9.450044049782083"><ele>1038.0</ele><time>2026-03-22T15:08:22.998Z</time></trkpt><trkpt lat="44.738144476322844" lon="9.450154583051836"><ele>1038.0</ele><time>2026-03-22T15:08:23.998Z</time></trkpt><trkpt lat="44.73812974367312" lon="9.450277624361902"><ele>1038.0</ele><time>2026-03-22T15:08:24.998Z</time></trkpt><trkpt lat="44.73811090164617" lon="9.450363527041238"><ele>1038.0</ele><time>2026-03-22T15:08:25.998Z</time></trkpt><trkpt lat="44.73806592977258" lon="9.450432814200596"><ele>1038.0</ele><time>2026-03-22T15:08:26.998Z</time></trkpt><trkpt lat="44.73800222893178" lon="9.450438012342845"><ele>1038.0</ele><time>2026-03-22T15:08:27.998Z</time></trkpt><trkpt lat="44.73793197973183" lon="9.450489052306839"><ele>1034.0</ele><time>2026-03-22T15:08:28.998Z</time></trkpt><trkpt lat="44.737863285616385" lon="9.450597667274828"><ele>1030.0</ele><time>2026-03-22T15:08:29.998Z</time></trkpt><trkpt lat="44.737805437766006" lon="9.45074210733327"><ele>1026.0</ele><time>2026-03-22T15:08:30.998Z</time></trkpt><trkpt lat="44.73774618835479" lon="9.450888430105541"><ele>1022.0</ele><time>2026-03-22T15:08:31.998Z</time></trkpt><trkpt lat="44.73768615488993" lon="9.45103062678785"><ele>1022.0</ele><time>2026-03-22T15:08:32.998Z</time></trkpt><trkpt lat="44.73763220054603" lon="9.45115632582755"><ele>1022.0</ele><time>2026-03-22T15:08:33.998Z</time></trkpt><trkpt lat="44.73757627635195" lon="9.451275957051843"><ele>1022.0</ele><time>2026-03-22T15:08:34.998Z</time></trkpt><trkpt lat="44.73751444779358" lon="9.451399252683352"><ele>1022.0</ele><time>2026-03-22T15:08:35.998Z</time></trkpt><trkpt lat="44.73745691745118" lon="9.451510670965657"><ele>1022.0</ele><time>2026-03-22T15:08:36.998Z</time></trkpt><trkpt lat="44.73739297017115" lon="9.451625705181197"><ele>1024.4</ele><time>2026-03-22T15:08:37.998Z</time></trkpt><trkpt lat="44.73732998466729" lon="9.451725139564122"><ele>1026.8000000000002</ele><time>2026-03-22T15:08:38.998Z</time></trkpt><trkpt lat="44.7372734280715" lon="9.451789904973563"><ele>1029.2</ele><time>2026-03-22T15:08:39.998Z</time></trkpt><trkpt lat="44.737201993333876" lon="9.451797354801094"><ele>1031.6000000000001</ele><time>2026-03-22T15:08:41.998Z</time></trkpt><trkpt lat="44.737068428293284" lon="9.451767706548868"><ele>1034.0</ele><time>2026-03-22T15:08:43.998Z</time></trkpt><trkpt lat="44.736990243947304" lon="9.451753724218419"><ele>1034.0</ele><time>2026-03-22T15:08:44.998Z</time></trkpt><trkpt lat="44.73691656211223" lon="9.451746059215274"><ele>1034.0</ele><time>2026-03-22T15:08:45.998Z</time></trkpt><trkpt lat="44.736844587637215" lon="9.451805374349895"><ele>1034.0</ele><time>2026-03-22T15:08:46.998Z</time></trkpt><trkpt lat="44.7367972613674" lon="9.451893554478149"><ele>1034.0</ele><time>2026-03-22T15:08:47.998Z</time></trkpt><trkpt lat="44.73679335937446" lon="9.45198553175449"><ele>1034.0</ele><time>2026-03-22T15:08:48.998Z</time></trkpt><trkpt lat="44.73681367989203" lon="9.452112175773197"><ele>1034.0</ele><time>2026-03-22T15:08:50.998Z</time></trkpt><trkpt lat="44.736847277458075" lon="9.452252973315053"><ele>1034.0</ele><time>2026-03-22T15:08:52.998Z</time></trkpt><trkpt lat="44.73687802233832" lon="9.452369239606819"><ele>1034.0</ele><time>2026-03-22T15:11:33.999Z</time></trkpt><trkpt lat="44.73691738776852" lon="9.45252259063507"><ele>1034.0</ele><time>2026-03-22T15:11:35.999Z</time></trkpt><trkpt lat="44.736941380565014" lon="9.452640021109112"><ele>1034.0</ele><time>2026-03-22T15:11:37.999Z</time></trkpt><trkpt lat="44.73695036774751" lon="9.452793789554294"><ele>1034.0</ele><time>2026-03-22T15:11:39.999Z</time></trkpt><trkpt lat="44.736904896576775" lon="9.45288051580389"><ele>1035.1666666666667</ele><time>2026-03-22T15:11:41.999Z</time></trkpt><trkpt lat="44.73682729835999" lon="9.453027261016073"><ele>1036.3333333333335</ele><time>2026-03-22T15:11:43.999Z</time></trkpt><trkpt lat="44.736791848322845" lon="9.453127543503076"><ele>1037.5</ele><time>2026-03-22T15:11:44.999Z</time></trkpt><trkpt lat="44.73679246251518" lon="9.453225856208974"><ele>1038.6666666666667</ele><time>2026-03-22T15:11:45.999Z</time></trkpt><trkpt lat="44.736822236441185" lon="9.453323679425434"><ele>1039.8333333333333</ele><time>2026-03-22T15:11:46.999Z</time></trkpt><trkpt lat="44.736854476465915" lon="9.453417202658768"><ele>1041.0</ele><time>2026-03-22T15:11:47.999Z</time></trkpt><trkpt lat="44.736889215262224" lon="9.453520772588146"><ele>1042.8333333333333</ele><time>2026-03-22T15:11:48.999Z</time></trkpt><trkpt lat="44.73691231056651" lon="9.453637564308552"><ele>1044.6666666666667</ele><time>2026-03-22T15:11:49.999Z</time></trkpt><trkpt lat="44.73694494758205" lon="9.453743468084232"><ele>1046.5</ele><time>2026-03-22T15:11:50.999Z</time></trkpt><trkpt lat="44.73698571837827" lon="9.453819646512788"><ele>1048.3333333333335</ele><time>2026-03-22T15:11:51.999Z</time></trkpt><trkpt lat="44.737073910696814" lon="9.453895241184705"><ele>1050.1666666666667</ele><time>2026-03-22T15:11:52.999Z</time></trkpt><trkpt lat="44.73713995270711" lon="9.453992651254637"><ele>1052.0</ele><time>2026-03-22T15:11:53.999Z</time></trkpt><trkpt lat="44.73716910469744" lon="9.454080293281077"><ele>1051.3333333333335</ele><time>2026-03-22T15:11:54.999Z</time></trkpt><trkpt lat="44.737177457725295" lon="9.454171119391829"><ele>1050.6666666666667</ele><time>2026-03-22T15:11:55.999Z</time></trkpt><trkpt lat="44.737150095984845" lon="9.454291343079735"><ele>1050.0</ele><time>2026-03-22T15:11:57.999Z</time></trkpt><trkpt lat="44.73704106588062" lon="9.454290441812688"><ele>1049.3333333333333</ele><time>2026-03-22T15:11:59.999Z</time></trkpt><trkpt lat="44.736954357599004" lon="9.454256167487333"><ele>1048.6666666666665</ele><time>2026-03-22T15:12:00.999Z</time></trkpt><trkpt lat="44.73687462326073" lon="9.454263659568207"><ele>1048.0</ele><time>2026-03-22T15:12:01.999Z</time></trkpt><trkpt lat="44.73681335415987" lon="9.454300494675318"><ele>1048.0</ele><time>2026-03-22T15:12:02.999Z</time></trkpt><trkpt lat="44.73676209906584" lon="9.454374079153244"><ele>1048.0</ele><time>2026-03-22T15:12:03.999Z</time></trkpt><trkpt lat="44.736749725181106" lon="9.4545110494081"><ele>1048.0</ele><time>2026-03-22T15:12:04.999Z</time></trkpt><trkpt lat="44.73679848381604" lon="9.454621451075848"><ele>1048.0</ele><time>2026-03-22T15:12:05.998Z</time></trkpt><trkpt lat="44.736886508298674" lon="9.45465190204868"><ele>1048.0</ele><time>2026-03-22T15:12:06.998Z</time></trkpt><trkpt lat="44.736989079627115" lon="9.454614998363535"><ele>1052.4</ele><time>2026-03-22T15:12:07.998Z</time></trkpt><trkpt lat="44.73709166769881" lon="9.454650598781633"><ele>1056.8</ele><time>2026-03-22T15:12:08.998Z</time></trkpt><trkpt lat="44.73719582293621" lon="9.454685774714271"><ele>1061.2</ele><time>2026-03-22T15:12:09.998Z</time></trkpt><trkpt lat="44.73730466874927" lon="9.454721298733004"><ele>1065.6</ele><time>2026-03-22T15:12:10.998Z</time></trkpt><trkpt lat="44.737416116740484" lon="9.454726602277747"><ele>1070.0</ele><time>2026-03-22T15:12:11.998Z</time></trkpt><trkpt lat="44.73752673254105" lon="9.454712565255672"><ele>1070.0</ele><time>2026-03-22T15:12:12.998Z</time></trkpt><trkpt lat="44.73761558081822" lon="9.4546751516842"><ele>1070.0</ele><time>2026-03-22T15:12:13.998Z</time></trkpt><trkpt lat="44.737685516362646" lon="9.4546848539083"><ele>1070.0</ele><time>2026-03-22T15:12:14.998Z</time></trkpt><trkpt lat="44.73775683477629" lon="9.454722380405219"><ele>1070.0</ele><time>2026-03-22T15:12:15.998Z</time></trkpt><trkpt lat="44.737826410747545" lon="9.454787603819357"><ele>1070.0</ele><time>2026-03-22T15:12:16.998Z</time></trkpt><trkpt lat="44.737889841571594" lon="9.454838769229005"><ele>1070.0</ele><time>2026-03-22T15:12:17.998Z</time></trkpt><trkpt lat="44.73789116430855" lon="9.454965376669282"><ele>1070.0</ele><time>2026-03-22T15:12:19.998Z</time></trkpt><trkpt lat="44.737769958551084" lon="9.455010896600108"><ele>1070.0</ele><time>2026-03-22T15:12:21.998Z</time></trkpt><trkpt lat="44.737666127818066" lon="9.455029675490328"><ele>1070.0</ele><time>2026-03-22T15:12:22.998Z</time></trkpt><trkpt lat="44.73756052168575" lon="9.455078870152915"><ele>1070.0</ele><time>2026-03-22T15:12:23.998Z</time></trkpt><trkpt lat="44.73745612221687" lon="9.455080443842144"><ele>1070.0</ele><time>2026-03-22T15:12:24.998Z</time></trkpt><trkpt lat="44.73734648512136" lon="9.455136832119761"><ele>1070.0</ele><time>2026-03-22T15:12:25.998Z</time></trkpt><trkpt lat="44.73722563810033" lon="9.455182261980616"><ele>1070.0</ele><time>2026-03-22T15:12:26.998Z</time></trkpt><trkpt lat="44.737105319581396" lon="9.455272682427744"><ele>1070.0</ele><time>2026-03-22T15:12:27.998Z</time></trkpt><trkpt lat="44.73699838461941" lon="9.45537280875298"><ele>1070.0</ele><time>2026-03-22T15:12:28.998Z</time></trkpt><trkpt lat="44.73691760454974" lon="9.455446446539431"><ele>1069.4</ele><time>2026-03-22T15:12:29.998Z</time></trkpt><trkpt lat="44.736841540622265" lon="9.455493503070873"><ele>1068.8</ele><time>2026-03-22T15:12:30.998Z</time></trkpt><trkpt lat="44.73676546822817" lon="9.455419099230289"><ele>1068.2</ele><time>2026-03-22T15:12:31.998Z</time></trkpt><trkpt lat="44.73666969541814" lon="9.455370530777612"><ele>1067.6</ele><time>2026-03-22T15:12:32.998Z</time></trkpt><trkpt lat="44.73658471276839" lon="9.455341022886078"><ele>1067.0</ele><time>2026-03-22T15:12:33.998Z</time></trkpt><trkpt lat="44.73649537775183" lon="9.455384484274413"><ele>1067.0</ele><time>2026-03-22T15:12:34.998Z</time></trkpt><trkpt lat="44.736375939570465" lon="9.455430997440118"><ele>1067.0</ele><time>2026-03-22T15:12:35.998Z</time></trkpt><trkpt lat="44.736257089523185" lon="9.45538148185505"><ele>1067.0</ele><time>2026-03-22T15:12:36.998Z</time></trkpt><trkpt lat="44.73614030720441" lon="9.455326103035377"><ele>1067.0</ele><time>2026-03-22T15:12:37.998Z</time></trkpt><trkpt lat="44.736022219425976" lon="9.45526419150569"><ele>1068.6666666666667</ele><time>2026-03-22T15:12:38.998Z</time></trkpt><trkpt lat="44.73593584908268" lon="9.455188272650988"><ele>1070.3333333333335</ele><time>2026-03-22T15:12:39.998Z</time></trkpt><trkpt lat="44.735867625182486" lon="9.455135398927027"><ele>1072.0</ele><time>2026-03-22T15:12:40.998Z</time></trkpt><trkpt lat="44.735801509788224" lon="9.455127674273454"><ele>1073.6666666666667</ele><time>2026-03-22T15:12:41.998Z</time></trkpt><trkpt lat="44.73572575990149" lon="9.45514447617394"><ele>1075.3333333333333</ele><time>2026-03-22T15:12:42.998Z</time></trkpt><trkpt lat="44.73565377636404" lon="9.455249059846304"><ele>1077.0</ele><time>2026-03-22T15:12:43.998Z</time></trkpt><trkpt lat="44.735571521378446" lon="9.45529235552091"><ele>1077.0</ele><time>2026-03-22T15:12:44.998Z</time></trkpt><trkpt lat="44.73549243607555" lon="9.455372739275518"><ele>1077.0</ele><time>2026-03-22T15:12:45.998Z</time></trkpt><trkpt lat="44.73539534641451" lon="9.455444913457901"><ele>1077.0</ele><time>2026-03-22T15:12:46.998Z</time></trkpt><trkpt lat="44.73530617362073" lon="9.45550594958419"><ele>1077.0</ele><time>2026-03-22T15:12:47.997Z</time></trkpt><trkpt lat="44.73523992494183" lon="9.455584650543413"><ele>1077.0</ele><time>2026-03-22T15:12:48.997Z</time></trkpt><trkpt lat="44.73517361553384" lon="9.455684183208476"><ele>1081.75</ele><time>2026-03-22T15:12:49.997Z</time></trkpt><trkpt lat="44.73510945466666" lon="9.455815651202501"><ele>1086.5</ele><time>2026-03-22T15:12:50.997Z</time></trkpt><trkpt lat="44.735033314462" lon="9.455941268180476"><ele>1091.25</ele><time>2026-03-22T15:12:51.997Z</time></trkpt><trkpt lat="44.73495243344115" lon="9.456068995164864"><ele>1096.0</ele><time>2026-03-22T15:12:52.997Z</time></trkpt><trkpt lat="44.73487963565621" lon="9.456183957211701"><ele>1096.0</ele><time>2026-03-22T15:12:53.997Z</time></trkpt><trkpt lat="44.73482123817008" lon="9.456277081135099"><ele>1096.0</ele><time>2026-03-22T15:12:54.997Z</time></trkpt><trkpt lat="44.7347701617572" lon="9.456353664899606"><ele>1096.0</ele><time>2026-03-22T15:12:55.997Z</time></trkpt><trkpt lat="44.73471165319784" lon="9.456423725689644"><ele>1096.0</ele><time>2026-03-22T15:12:56.997Z</time></trkpt><trkpt lat="44.734636523996095" lon="9.456479236618229"><ele>1096.0</ele><time>2026-03-22T15:12:57.997Z</time></trkpt><trkpt lat="44.73454858685475" lon="9.456516150698144"><ele>1096.0</ele><time>2026-03-22T15:12:58.997Z</time></trkpt><trkpt lat="44.73445099542144" lon="9.456547462797847"><ele>1096.3333333333333</ele><time>2026-03-22T15:12:59.997Z</time></trkpt><trkpt lat="44.734356643062235" lon="9.45658195036587"><ele>1096.6666666666665</ele><time>2026-03-22T15:13:00.997Z</time></trkpt><trkpt lat="44.73427904534549" lon="9.45663276104915"><ele>1097.0</ele><time>2026-03-22T15:13:01.997Z</time></trkpt><trkpt lat="44.73421383642347" lon="9.456696075539893"><ele>1097.3333333333333</ele><time>2026-03-22T15:13:02.997Z</time></trkpt><trkpt lat="44.7341672129388" lon="9.456768531405697"><ele>1097.6666666666667</ele><time>2026-03-22T15:13:03.997Z</time></trkpt><trkpt lat="44.734133072780864" lon="9.456872337962261"><ele>1098.0</ele><time>2026-03-22T15:13:05Z</time></trkpt><trkpt lat="44.73411217682733" lon="9.457043601892453"><ele>1098.6</ele><time>2026-03-22T15:13:06Z</time></trkpt><trkpt lat="44.73409063875327" lon="9.457193161654306"><ele>1099.1999999999998</ele><time>2026-03-22T15:13:07Z</time></trkpt><trkpt lat="44.73405946001398" lon="9.457343997650232"><ele>1099.8</ele><time>2026-03-22T15:13:08Z</time></trkpt><trkpt lat="44.73401196375185" lon="9.457477463509688"><ele>1100.3999999999999</ele><time>2026-03-22T15:13:09Z</time></trkpt><trkpt lat="44.73396806691567" lon="9.457576169156615"><ele>1101.0</ele><time>2026-03-22T15:13:10Z</time></trkpt><trkpt lat="44.733921190493064" lon="9.457653457094269"><ele>1101.0</ele><time>2026-03-22T15:13:11Z</time></trkpt><trkpt lat="44.73385849207157" lon="9.457713151073285"><ele>1101.0</ele><time>2026-03-22T15:13:12Z</time></trkpt><trkpt lat="44.733807486278536" lon="9.457784843697379"><ele>1101.0</ele><time>2026-03-22T15:13:13Z</time></trkpt><trkpt lat="44.73376909516396" lon="9.45786744308959"><ele>1101.0</ele><time>2026-03-22T15:13:14Z</time></trkpt><trkpt lat="44.733750796369186" lon="9.457967038137488"><ele>1101.0</ele><time>2026-03-22T15:13:15Z</time></trkpt><trkpt lat="44.733785485871394" lon="9.458088676677892"><ele>1101.0</ele><time>2026-03-22T15:13:16Z</time></trkpt><trkpt lat="44.73383332847763" lon="9.458193050396234"><ele>1102.0</ele><time>2026-03-22T15:13:17Z</time></trkpt><trkpt lat="44.733906357525655" lon="9.458269124124698"><ele>1103.0</ele><time>2026-03-22T15:13:18Z</time></trkpt><trkpt lat="44.7339506231434" lon="9.458361411790756"><ele>1104.0</ele><time>2026-03-22T15:13:19Z</time></trkpt><trkpt lat="44.73389362543609" lon="9.458476595651797"><ele>1105.0</ele><time>2026-03-22T15:13:21Z</time></trkpt><trkpt lat="44.73378738431039" lon="9.458484482260566"><ele>1106.0</ele><time>2026-03-22T15:13:23Z</time></trkpt><trkpt lat="44.73370985656127" lon="9.458448952864318"><ele>1106.0</ele><time>2026-03-22T15:13:24Z</time></trkpt><trkpt lat="44.73362836914738" lon="9.458321136903924"><ele>1106.0</ele><time>2026-03-22T15:13:25Z</time></trkpt><trkpt lat="44.7334970868821" lon="9.45820305362821"><ele>1106.0</ele><time>2026-03-22T15:13:26Z</time></trkpt><trkpt lat="44.73340707503634" lon="9.458104064046585"><ele>1106.0</ele><time>2026-03-22T15:13:27Z</time></trkpt><trkpt lat="44.733308015846845" lon="9.458031744641628"><ele>1106.6</ele><time>2026-03-22T15:13:28Z</time></trkpt><trkpt lat="44.73321237188199" lon="9.457991760222237"><ele>1107.1999999999998</ele><time>2026-03-22T15:13:29Z</time></trkpt><trkpt lat="44.7330955803888" lon="9.457953170737493"><ele>1107.8000000000002</ele><time>2026-03-22T15:13:30Z</time></trkpt><trkpt lat="44.73298287542933" lon="9.457943727231267"><ele>1108.4</ele><time>2026-03-22T15:13:31Z</time></trkpt><trkpt lat="44.73290378196151" lon="9.457899002767597"><ele>1109.0</ele><time>2026-03-22T15:13:32Z</time></trkpt><trkpt lat="44.732835629654446" lon="9.457825131518728"><ele>1109.0</ele><time>2026-03-22T15:13:33Z</time></trkpt><trkpt lat="44.73276217054722" lon="9.457775232198202"><ele>1109.0</ele><time>2026-03-22T15:13:34Z</time></trkpt><trkpt lat="44.73265125669325" lon="9.45772484291728"><ele>1109.0</ele><time>2026-03-22T15:13:36Z</time></trkpt><trkpt lat="44.73258212538559" lon="9.457751459812108"><ele>1109.0</ele><time>2026-03-22T15:13:37Z</time></trkpt><trkpt lat="44.732487054541934" lon="9.457808226897885"><ele>1109.0</ele><time>2026-03-22T15:13:38Z</time></trkpt><trkpt lat="44.732412065820505" lon="9.457883311436632"><ele>1113.8</ele><time>2026-03-22T15:13:39Z</time></trkpt><trkpt lat="44.73232581785367" lon="9.457975696706933"><ele>1118.6000000000001</ele><time>2026-03-22T15:13:40Z</time></trkpt><trkpt lat="44.73222595385456" lon="9.458041762996348"><ele>1123.4</ele><time>2026-03-22T15:13:41Z</time></trkpt><trkpt lat="44.732139510115786" lon="9.458084244436751"><ele>1128.2</ele><time>2026-03-22T15:13:42Z</time></trkpt><trkpt lat="44.73203334394652" lon="9.458054247109947"><ele>1133.0</ele><time>2026-03-22T15:13:44Z</time></trkpt><trkpt lat="44.73199932722377" lon="9.457973189068774"><ele>1134.1666666666667</ele><time>2026-03-22T15:13:45Z</time></trkpt><trkpt lat="44.73196133390269" lon="9.457850391631546"><ele>1135.3333333333335</ele><time>2026-03-22T15:13:45.999Z</time></trkpt><trkpt lat="44.73195008062064" lon="9.457735474883219"><ele>1136.5</ele><time>2026-03-22T15:13:46.999Z</time></trkpt><trkpt lat="44.731875382534284" lon="9.457643267585349"><ele>1137.6666666666667</ele><time>2026-03-22T15:13:48.999Z</time></trkpt><trkpt lat="44.731800806077636" lon="9.457648349912093"><ele>1138.8333333333333</ele><time>2026-03-22T15:13:49.999Z</time></trkpt><trkpt lat="44.731739324292136" lon="9.457732379491661"><ele>1140.0</ele><time>2026-03-22T15:13:50.999Z</time></trkpt><trkpt lat="44.73174664310147" lon="9.457887122460049"><ele>1140.5</ele><time>2026-03-22T15:13:51.999Z</time></trkpt><trkpt lat="44.73173336985569" lon="9.458038785858509"><ele>1141.0</ele><time>2026-03-22T15:13:52.999Z</time></trkpt><trkpt lat="44.73169825374318" lon="9.458255505312563"><ele>1141.5</ele><time>2026-03-22T15:13:53.999Z</time></trkpt><trkpt lat="44.73168550048628" lon="9.45845813933119"><ele>1142.0</ele><time>2026-03-22T15:13:54.999Z</time></trkpt><trkpt lat="44.731695955305476" lon="9.458613491227911"><ele>1142.0</ele><time>2026-03-22T15:13:55.999Z</time></trkpt><trkpt lat="44.7316939136917" lon="9.45874116901602"><ele>1142.0</ele><time>2026-03-22T15:13:56.999Z</time></trkpt><trkpt lat="44.731681411137515" lon="9.458862555515985"><ele>1142.0</ele><time>2026-03-22T15:13:57.999Z</time></trkpt><trkpt lat="44.73162117214814" lon="9.458980491728328"><ele>1142.0</ele><time>2026-03-22T15:13:59.999Z</time></trkpt><trkpt lat="44.73153064529019" lon="9.458966423188459"><ele>1142.0</ele><time>2026-03-22T15:14:01.999Z</time></trkpt><trkpt lat="44.731443576376115" lon="9.458929307653893"><ele>1142.2</ele><time>2026-03-22T15:14:02.999Z</time></trkpt><trkpt lat="44.73137283615147" lon="9.458908978012099"><ele>1142.4</ele><time>2026-03-22T15:14:03.999Z</time></trkpt><trkpt lat="44.73129426696554" lon="9.458909601328346"><ele>1142.6</ele><time>2026-03-22T15:14:04.999Z</time></trkpt><trkpt lat="44.73119286639822" lon="9.458951803387606"><ele>1142.8</ele><time>2026-03-22T15:14:05.999Z</time></trkpt><trkpt lat="44.731091997124366" lon="9.45901787313495"><ele>1143.0</ele><time>2026-03-22T15:14:06.999Z</time></trkpt><trkpt lat="44.7310161940426" lon="9.45909789690593"><ele>1144.6</ele><time>2026-03-22T15:14:07.999Z</time></trkpt><trkpt lat="44.7309702524699" lon="9.459203243174718"><ele>1146.1999999999998</ele><time>2026-03-22T15:14:08.999Z</time></trkpt><trkpt lat="44.73095715988106" lon="9.459330096959636"><ele>1147.8</ele><time>2026-03-22T15:14:09.999Z</time></trkpt><trkpt lat="44.73097871831251" lon="9.459471224662117"><ele>1149.3999999999999</ele><time>2026-03-22T15:14:10.999Z</time></trkpt><trkpt lat="44.731016043777345" lon="9.459610532751913"><ele>1151.0</ele><time>2026-03-22T15:14:11.999Z</time></trkpt><trkpt lat="44.73104290757558" lon="9.459760410977717"><ele>1149.6</ele><time>2026-03-22T15:14:12.999Z</time></trkpt><trkpt lat="44.73106740218103" lon="9.459921573798008"><ele>1148.1999999999998</ele><time>2026-03-22T15:14:13.999Z</time></trkpt><trkpt lat="44.73109102654004" lon="9.460080141769396"><ele>1146.8000000000002</ele><time>2026-03-22T15:14:14.999Z</time></trkpt><trkpt lat="44.73111839971065" lon="9.460205544369092"><ele>1145.4</ele><time>2026-03-22T15:14:15.999Z</time></trkpt><trkpt lat="44.73114094908493" lon="9.460296777764386"><ele>1144.0</ele><time>2026-03-22T15:14:16.999Z</time></trkpt><trkpt lat="44.73116667607492" lon="9.460378366723777"><ele>1144.0</ele><time>2026-03-22T15:14:17.999Z</time></trkpt><trkpt lat="44.73119298080675" lon="9.460492405337863"><ele>1144.0</ele><time>2026-03-22T15:14:19.999Z</time></trkpt><trkpt lat="44.731102302333426" lon="9.460500512397775"><ele>1144.0</ele><time>2026-03-22T15:14:24.999Z</time></trkpt><trkpt lat="44.731074766258054" lon="9.460419032645708"><ele>1144.0</ele><time>2026-03-22T15:14:26.999Z</time></trkpt><trkpt lat="44.73105380109998" lon="9.460333820174835"><ele>1144.0</ele><time>2026-03-22T15:14:28.998Z</time></trkpt><trkpt lat="44.731006490893456" lon="9.460238066938865"><ele>1144.0</ele><time>2026-03-22T15:14:29.998Z</time></trkpt><trkpt lat="44.730938662707885" lon="9.460092959708742"><ele>1146.3333333333333</ele><time>2026-03-22T15:14:30.998Z</time></trkpt><trkpt lat="44.73084150831645" lon="9.459898817842179"><ele>1148.6666666666667</ele><time>2026-03-22T15:14:31.998Z</time></trkpt><trkpt lat="44.730722256364935" lon="9.459699792745086"><ele>1151.0</ele><time>2026-03-22T15:14:32.998Z</time></trkpt><trkpt lat="44.730619557483394" lon="9.459541662478252"><ele>1151.0</ele><time>2026-03-22T15:14:33.998Z</time></trkpt><trkpt lat="44.73053065228524" lon="9.45940433425852"><ele>1151.0</ele><time>2026-03-22T15:14:34.998Z</time></trkpt><trkpt lat="44.73046528390466" lon="9.459291100318547"><ele>1151.0</ele><time>2026-03-22T15:14:35.998Z</time></trkpt><trkpt lat="44.73041606385702" lon="9.459198095772074"><ele>1151.0</ele><time>2026-03-22T15:14:36.998Z</time></trkpt><trkpt lat="44.73037210234723" lon="9.459119407540612"><ele>1151.0</ele><time>2026-03-22T15:14:37.998Z</time></trkpt><trkpt lat="44.730300423451865" lon="9.459095005491005"><ele>1154.5</ele><time>2026-03-22T15:14:38.998Z</time></trkpt><trkpt lat="44.73021121105144" lon="9.45914477573697"><ele>1158.0</ele><time>2026-03-22T15:14:39.998Z</time></trkpt><trkpt lat="44.730174806205646" lon="9.459301628772794"><ele>1161.5</ele><time>2026-03-22T15:14:40.998Z</time></trkpt><trkpt lat="44.73015691243377" lon="9.459475539839474"><ele>1165.0</ele><time>2026-03-22T15:14:41.998Z</time></trkpt><trkpt lat="44.730082746610655" lon="9.459637369239104"><ele>1165.0</ele><time>2026-03-22T15:14:42.998Z</time></trkpt><trkpt lat="44.73000788307322" lon="9.459853869671239"><ele>1165.0</ele><time>2026-03-22T15:14:43.998Z</time></trkpt><trkpt lat="44.729953187355896" lon="9.460102570050779"><ele>1165.0</ele><time>2026-03-22T15:14:44.998Z</time></trkpt><trkpt lat="44.7298973059808" lon="9.460291059510867"><ele>1165.0</ele><time>2026-03-22T15:14:45.998Z</time></trkpt><trkpt lat="44.72981924789559" lon="9.460438786936907"><ele>1165.0</ele><time>2026-03-22T15:14:46.998Z</time></trkpt><trkpt lat="44.72968989495861" lon="9.460626052248653"><ele>1165.0</ele><time>2026-03-22T15:14:47.998Z</time></trkpt><trkpt lat="44.72955667202576" lon="9.460841468387354"><ele>1163.6666666666665</ele><time>2026-03-22T15:14:48.998Z</time></trkpt><trkpt lat="44.72944696558202" lon="9.461020261510837"><ele>1162.3333333333333</ele><time>2026-03-22T15:14:49.998Z</time></trkpt><trkpt lat="44.72934797141795" lon="9.461172705152572"><ele>1161.0</ele><time>2026-03-22T15:14:50.998Z</time></trkpt><trkpt lat="44.729238121406794" lon="9.461295385191809"><ele>1161.0</ele><time>2026-03-22T15:14:51.998Z</time></trkpt><trkpt lat="44.72912528774694" lon="9.461359649998473"><ele>1161.0</ele><time>2026-03-22T15:14:52.998Z</time></trkpt><trkpt lat="44.728977149148406" lon="9.4613823229735"><ele>1161.0</ele><time>2026-03-22T15:14:53.998Z</time></trkpt><trkpt lat="44.72877272861191" lon="9.461449144729308"><ele>1161.0</ele><time>2026-03-22T15:14:54.998Z</time></trkpt><trkpt lat="44.72858256027264" lon="9.461553518418803"><ele>1161.0</ele><time>2026-03-22T15:14:55.998Z</time></trkpt><trkpt lat="44.728373284975746" lon="9.461636779025556"><ele>1161.0</ele><time>2026-03-22T15:14:56.998Z</time></trkpt><trkpt lat="44.72817638549208" lon="9.461728218323046"><ele>1164.25</ele><time>2026-03-22T15:14:57.998Z</time></trkpt><trkpt lat="44.72801331151367" lon="9.46181097700455"><ele>1167.5</ele><time>2026-03-22T15:14:58.998Z</time></trkpt><trkpt lat="44.7278788693131" lon="9.461908898233744"><ele>1170.75</ele><time>2026-03-22T15:14:59.998Z</time></trkpt><trkpt lat="44.72777949983758" lon="9.462006174541855"><ele>1174.0</ele><time>2026-03-22T15:15:00.998Z</time></trkpt><trkpt lat="44.72768475241729" lon="9.462077180190487"><ele>1173.2</ele><time>2026-03-22T15:15:01.998Z</time></trkpt><trkpt lat="44.72757671032548" lon="9.462133815064181"><ele>1172.4</ele><time>2026-03-22T15:15:02.998Z</time></trkpt><trkpt lat="44.72747994276625" lon="9.462125863442052"><ele>1171.6</ele><time>2026-03-22T15:15:03.998Z</time></trkpt><trkpt lat="44.72739047741612" lon="9.462083167662687"><ele>1170.8</ele><time>2026-03-22T15:15:04.998Z</time></trkpt><trkpt lat="44.72728279134721" lon="9.461972028058476"><ele>1170.0</ele><time>2026-03-22T15:15:05.998Z</time></trkpt><trkpt lat="44.72714156482886" lon="9.46185375910592"><ele>1176.0</ele><time>2026-03-22T15:15:06.998Z</time></trkpt><trkpt lat="44.72698516523317" lon="9.461741464901682"><ele>1182.0</ele><time>2026-03-22T15:15:07.998Z</time></trkpt><trkpt lat="44.72684926494338" lon="9.461576734753137"><ele>1188.0</ele><time>2026-03-22T15:15:08.998Z</time></trkpt><trkpt lat="44.72666743487445" lon="9.461513612703502"><ele>1188.5</ele><time>2026-03-22T15:15:10Z</time></trkpt><trkpt lat="44.726524306906065" lon="9.461417486399712"><ele>1189.0</ele><time>2026-03-22T15:15:11Z</time></trkpt><trkpt lat="44.726409269294976" lon="9.46133529687116"><ele>1189.5</ele><time>2026-03-22T15:15:12Z</time></trkpt><trkpt lat="44.726313410795" lon="9.46125219078445"><ele>1190.0</ele><time>2026-03-22T15:15:13Z</time></trkpt><trkpt lat="44.72623074669714" lon="9.46117135252395"><ele>1192.2</ele><time>2026-03-22T15:15:14Z</time></trkpt><trkpt lat="44.72615621846836" lon="9.461083881107484"><ele>1194.4</ele><time>2026-03-22T15:15:15Z</time></trkpt><trkpt lat="44.72608367012944" lon="9.46098976430794"><ele>1196.6</ele><time>2026-03-22T15:15:16Z</time></trkpt><trkpt lat="44.72600339191877" lon="9.460904483235826"><ele>1198.8</ele><time>2026-03-22T15:15:17Z</time></trkpt><trkpt lat="44.72593604340071" lon="9.460802392446379"><ele>1201.0</ele><time>2026-03-22T15:15:18Z</time></trkpt><trkpt lat="44.72588293103103" lon="9.460725596331628"><ele>1201.0</ele><time>2026-03-22T15:15:19Z</time></trkpt><trkpt lat="44.725814677831735" lon="9.460634418836584"><ele>1201.0</ele><time>2026-03-22T15:15:21Z</time></trkpt><trkpt lat="44.72572899012213" lon="9.460532029734606"><ele>1201.0</ele><time>2026-03-22T15:15:23Z</time></trkpt><trkpt lat="44.725673797902566" lon="9.460464049429783"><ele>1201.0</ele><time>2026-03-22T15:15:24Z</time></trkpt><trkpt lat="44.725623405004136" lon="9.460408354935476"><ele>1201.0</ele><time>2026-03-22T15:15:25Z</time></trkpt><trkpt lat="44.72555717658524" lon="9.460329423291492"><ele>1201.0</ele><time>2026-03-22T15:15:27Z</time></trkpt><trkpt lat="44.725489523756806" lon="9.46025713816961"><ele>1201.0</ele><time>2026-03-22T15:15:30Z</time></trkpt><trkpt lat="44.72565278530376" lon="9.460457547863543"><ele>1201.0</ele><time>2026-03-22T15:15:41Z</time></trkpt><trkpt lat="44.72575681140095" lon="9.460592926056302"><ele>1201.0</ele><time>2026-03-22T15:15:42Z</time></trkpt><trkpt lat="44.72587544296054" lon="9.460747272661196"><ele>1201.0</ele><time>2026-03-22T15:15:43Z</time></trkpt><trkpt lat="44.725986801502444" lon="9.460886625264285"><ele>1201.0</ele><time>2026-03-22T15:15:43.999Z</time></trkpt><trkpt lat="44.72608370562998" lon="9.4610117493985"><ele>1201.0</ele><time>2026-03-22T15:15:44.999Z</time></trkpt><trkpt lat="44.72617184597482" lon="9.461128557752348"><ele>1201.0</ele><time>2026-03-22T15:15:45.999Z</time></trkpt><trkpt lat="44.726254299295434" lon="9.461233306202702"><ele>1198.8</ele><time>2026-03-22T15:15:46.999Z</time></trkpt><trkpt lat="44.726337055482006" lon="9.461323810078916"><ele>1196.6</ele><time>2026-03-22T15:15:47.999Z</time></trkpt><trkpt lat="44.72642729414673" lon="9.461397291449698"><ele>1194.4</ele><time>2026-03-22T15:15:48.999Z</time></trkpt><trkpt lat="44.72650856264213" lon="9.461446818554867"><ele>1192.2</ele><time>2026-03-22T15:15:49.999Z</time></trkpt><trkpt lat="44.72660579085579" lon="9.461497719060212"><ele>1190.0</ele><time>2026-03-22T15:15:50.999Z</time></trkpt><trkpt lat="44.72669257699114" lon="9.461542524933234"><ele>1190.0</ele><time>2026-03-22T15:15:51.999Z</time></trkpt><trkpt lat="44.72676065303807" lon="9.461576071712546"><ele>1190.0</ele><time>2026-03-22T15:15:52.999Z</time></trkpt><trkpt lat="44.72682174739549" lon="9.461609161575218"><ele>1190.0</ele><time>2026-03-22T15:15:54.999Z</time></trkpt><trkpt lat="44.72664017614539" lon="9.46174547653258"><ele>1190.0</ele><time>2026-03-22T15:16:01.999Z</time></trkpt><trkpt lat="44.72654324616987" lon="9.461817045768111"><ele>1190.0</ele><time>2026-03-22T15:16:03.998Z</time></trkpt><trkpt lat="44.72643853773913" lon="9.461886187458383"><ele>1190.0</ele><time>2026-03-22T15:16:05.998Z</time></trkpt><trkpt lat="44.72636815893968" lon="9.461915201757648"><ele>1190.0</ele><time>2026-03-22T15:16:06.998Z</time></trkpt><trkpt lat="44.726266625598925" lon="9.461906279190694"><ele>1190.0</ele><time>2026-03-22T15:16:08.998Z</time></trkpt><trkpt lat="44.726200327447266" lon="9.461907142645355"><ele>1190.0</ele><time>2026-03-22T15:16:09.998Z</time></trkpt><trkpt lat="44.72612867628963" lon="9.461912839265437"><ele>1190.0</ele><time>2026-03-22T15:16:10.998Z</time></trkpt><trkpt lat="44.7260556601476" lon="9.46191629107952"><ele>1190.1666666666667</ele><time>2026-03-22T15:16:11.998Z</time></trkpt><trkpt lat="44.72594216199488" lon="9.461912356088352"><ele>1190.3333333333335</ele><time>2026-03-22T15:16:13.998Z</time></trkpt><trkpt lat="44.72587355520201" lon="9.461924614890036"><ele>1190.5</ele><time>2026-03-22T15:16:14.998Z</time></trkpt><trkpt lat="44.72576503725384" lon="9.46194570172755"><ele>1190.6666666666667</ele><time>2026-03-22T15:16:16.998Z</time></trkpt><trkpt lat="44.725679243752815" lon="9.461967740784448"><ele>1190.8333333333333</ele><time>2026-03-22T15:16:18.998Z</time></trkpt><trkpt lat="44.725613893875384" lon="9.461986397658393"><ele>1191.0</ele><time>2026-03-22T15:16:20.998Z</time></trkpt><trkpt lat="44.7255461097309" lon="9.462003565246697"><ele>1191.0</ele><time>2026-03-22T15:16:22.998Z</time></trkpt><trkpt lat="44.725470613751014" lon="9.461999387455464"><ele>1191.0</ele><time>2026-03-22T15:16:24.998Z</time></trkpt><trkpt lat="44.72538610120117" lon="9.46200376465349"><ele>1191.0</ele><time>2026-03-22T15:16:26.998Z</time></trkpt><trkpt lat="44.72530669654223" lon="9.462009211887471"><ele>1191.0</ele><time>2026-03-22T15:16:28.998Z</time></trkpt><trkpt lat="44.725232446766526" lon="9.462020110602886"><ele>1191.0</ele><time>2026-03-22T15:16:30.998Z</time></trkpt><trkpt lat="44.72514929219043" lon="9.462035435244031"><ele>1191.0</ele><time>2026-03-22T15:16:32.998Z</time></trkpt><trkpt lat="44.725084856086276" lon="9.462040242233547"><ele>1191.1666666666667</ele><time>2026-03-22T15:16:34.998Z</time></trkpt><trkpt lat="44.72501800135" lon="9.462041815707792"><ele>1191.3333333333333</ele><time>2026-03-22T15:16:37.998Z</time></trkpt><trkpt lat="44.72495178013402" lon="9.462095255218495"><ele>1191.5</ele><time>2026-03-22T15:16:39.998Z</time></trkpt><trkpt lat="44.724844705657425" lon="9.462135282470832"><ele>1191.6666666666665</ele><time>2026-03-22T15:16:42.998Z</time></trkpt><trkpt lat="44.724746965956086" lon="9.462175687377943"><ele>1191.8333333333333</ele><time>2026-03-22T15:16:44.998Z</time></trkpt><trkpt lat="44.724665257981776" lon="9.462196824541916"><ele>1192.0</ele><time>2026-03-22T15:16:46.997Z</time></trkpt><trkpt lat="44.724598103609864" lon="9.462218942168159"><ele>1192.5</ele><time>2026-03-22T15:16:48.997Z</time></trkpt><trkpt lat="44.724541901614636" lon="9.46227128906421"><ele>1193.0</ele><time>2026-03-22T15:16:50.997Z</time></trkpt><trkpt lat="44.72448124231841" lon="9.462318872542772"><ele>1193.5</ele><time>2026-03-22T15:16:53.997Z</time></trkpt><trkpt lat="44.724393385863856" lon="9.462398293214735"><ele>1194.0</ele><time>2026-03-22T15:16:56.997Z</time></trkpt><trkpt lat="44.7243459002785" lon="9.462456826759427"><ele>1194.5</ele><time>2026-03-22T15:17:10.997Z</time></trkpt><trkpt lat="44.724417430415514" lon="9.462394520382695"><ele>1195.0</ele><time>2026-03-22T15:17:38Z</time></trkpt><trkpt lat="44.72442543673359" lon="9.462298810893415"><ele>1194.5</ele><time>2026-03-22T15:17:40.999Z</time></trkpt><trkpt lat="44.724461796742006" lon="9.462202884552882"><ele>1194.0</ele><time>2026-03-22T15:18:11.999Z</time></trkpt><trkpt lat="44.72455552393943" lon="9.462168284908634"><ele>1193.5</ele><time>2026-03-22T15:18:13.999Z</time></trkpt><trkpt lat="44.724646021339204" lon="9.462158513732344"><ele>1193.0</ele><time>2026-03-22T15:18:16.999Z</time></trkpt><trkpt lat="44.724709456001655" lon="9.462134733823568"><ele>1192.5</ele><time>2026-03-22T15:18:19.999Z</time></trkpt><trkpt lat="44.724801661058635" lon="9.46211520141679"><ele>1192.0</ele><time>2026-03-22T15:18:21.999Z</time></trkpt><trkpt lat="44.72486606062403" lon="9.462094719168894"><ele>1192.0</ele><time>2026-03-22T15:18:23.998Z</time></trkpt><trkpt lat="44.724943695245926" lon="9.462048407230977"><ele>1192.0</ele><time>2026-03-22T15:18:26.998Z</time></trkpt><trkpt lat="44.7250491779221" lon="9.46201358797597"><ele>1192.0</ele><time>2026-03-22T15:18:29.998Z</time></trkpt><trkpt lat="44.725137193866324" lon="9.46199039557264"><ele>1192.0</ele><time>2026-03-22T15:18:31.998Z</time></trkpt><trkpt lat="44.72523122860468" lon="9.461966175028461"><ele>1192.0</ele><time>2026-03-22T15:18:33.998Z</time></trkpt><trkpt lat="44.72533052477557" lon="9.4619559494234"><ele>1191.8333333333333</ele><time>2026-03-22T15:18:35.998Z</time></trkpt><trkpt lat="44.7253972972527" lon="9.46194294143437"><ele>1191.6666666666665</ele><time>2026-03-22T15:18:37.998Z</time></trkpt><trkpt lat="44.72546264448646" lon="9.461946232974517"><ele>1191.5</ele><time>2026-03-22T15:18:39.998Z</time></trkpt><trkpt lat="44.725532225912524" lon="9.461937662299931"><ele>1191.3333333333333</ele><time>2026-03-22T15:18:43.998Z</time></trkpt><trkpt lat="44.7256026454851" lon="9.461939943438681"><ele>1191.1666666666667</ele><time>2026-03-22T15:18:46.998Z</time></trkpt><trkpt lat="44.72570428604524" lon="9.46193546149047"><ele>1191.0</ele><time>2026-03-22T15:18:49.998Z</time></trkpt><trkpt lat="44.72582123749602" lon="9.461921715324143"><ele>1191.0</ele><time>2026-03-22T15:18:51.998Z</time></trkpt><trkpt lat="44.725884366211226" lon="9.461930237573846"><ele>1191.0</ele><time>2026-03-22T15:18:52.998Z</time></trkpt><trkpt lat="44.726020203594025" lon="9.461916347904353"><ele>1191.0</ele><time>2026-03-22T15:18:54.998Z</time></trkpt><trkpt lat="44.7261184342198" lon="9.461905199807896"><ele>1191.0</ele><time>2026-03-22T15:18:55.998Z</time></trkpt><trkpt lat="44.72621622686535" lon="9.461909779143795"><ele>1191.0</ele><time>2026-03-22T15:18:56.998Z</time></trkpt><trkpt lat="44.72628086802095" lon="9.461911988028765"><ele>1190.8333333333333</ele><time>2026-03-22T15:18:57.998Z</time></trkpt><trkpt lat="44.72634932092333" lon="9.461905747543053"><ele>1190.6666666666667</ele><time>2026-03-22T15:18:58.998Z</time></trkpt><trkpt lat="44.7264490228109" lon="9.461884789659392"><ele>1190.5</ele><time>2026-03-22T15:19:00.998Z</time></trkpt><trkpt lat="44.72652886345228" lon="9.461836534361355"><ele>1190.3333333333335</ele><time>2026-03-22T15:19:02.998Z</time></trkpt><trkpt lat="44.72661281220111" lon="9.46177281876572"><ele>1190.1666666666667</ele><time>2026-03-22T15:19:04.997Z</time></trkpt><trkpt lat="44.72667833532554" lon="9.461729385165363"><ele>1190.0</ele><time>2026-03-22T15:19:06.997Z</time></trkpt><trkpt lat="44.726740653050406" lon="9.461703781516082"><ele>1190.0</ele><time>2026-03-22T15:19:07.997Z</time></trkpt><trkpt lat="44.7268048832091" lon="9.461678227492706"><ele>1190.0</ele><time>2026-03-22T15:19:08.997Z</time></trkpt><trkpt lat="44.72685766784915" lon="9.461616318044035"><ele>1190.0</ele><time>2026-03-22T15:19:10.997Z</time></trkpt><trkpt lat="44.72680155735173" lon="9.461561875338134"><ele>1190.0</ele><time>2026-03-22T15:19:13.997Z</time></trkpt><trkpt lat="44.72670428184535" lon="9.461564952039321"><ele>1190.0</ele><time>2026-03-22T15:19:17.997Z</time></trkpt><trkpt lat="44.72662825347998" lon="9.461518751451933"><ele>1190.0</ele><time>2026-03-22T15:19:18.997Z</time></trkpt><trkpt lat="44.72652304359672" lon="9.461440747116509"><ele>1190.0</ele><time>2026-03-22T15:19:19.997Z</time></trkpt><trkpt lat="44.72639284628385" lon="9.461351669522523"><ele>1190.0</ele><time>2026-03-22T15:19:21Z</time></trkpt><trkpt lat="44.72627276988495" lon="9.461213461373879"><ele>1190.0</ele><time>2026-03-22T15:19:22Z</time></trkpt><trkpt lat="44.72613798074738" lon="9.461086930777181"><ele>1193.6666666666667</ele><time>2026-03-22T15:19:23Z</time></trkpt><trkpt lat="44.726019419199254" lon="9.46093223081819"><ele>1197.3333333333333</ele><time>2026-03-22T15:19:24Z</time></trkpt><trkpt lat="44.72589685379815" lon="9.460761874525984"><ele>1201.0</ele><time>2026-03-22T15:19:25Z</time></trkpt><trkpt lat="44.72577398995748" lon="9.46059396518732"><ele>1201.0</ele><time>2026-03-22T15:19:26Z</time></trkpt><trkpt lat="44.72565937294159" lon="9.460450476270994"><ele>1201.0</ele><time>2026-03-22T15:19:27Z</time></trkpt><trkpt lat="44.72555676028073" lon="9.460334172689729"><ele>1201.0</ele><time>2026-03-22T15:19:28Z</time></trkpt><trkpt lat="44.725464679085356" lon="9.460224668096624"><ele>1201.0</ele><time>2026-03-22T15:19:29Z</time></trkpt><trkpt lat="44.72534690206057" lon="9.460154044377706"><ele>1204.25</ele><time>2026-03-22T15:19:30Z</time></trkpt><trkpt lat="44.72522986114225" lon="9.460097535296883"><ele>1207.5</ele><time>2026-03-22T15:19:31Z</time></trkpt><trkpt lat="44.7251078987324" lon="9.460048299049259"><ele>1210.75</ele><time>2026-03-22T15:19:32Z</time></trkpt><trkpt lat="44.72497736900078" lon="9.460003247943336"><ele>1214.0</ele><time>2026-03-22T15:19:33Z</time></trkpt><trkpt lat="44.72481946432166" lon="9.459956601701693"><ele>1214.0</ele><time>2026-03-22T15:19:34Z</time></trkpt><trkpt lat="44.724640554138375" lon="9.459906178603296"><ele>1214.0</ele><time>2026-03-22T15:19:35Z</time></trkpt><trkpt lat="44.7244821939949" lon="9.459862178293776"><ele>1214.0</ele><time>2026-03-22T15:19:36Z</time></trkpt><trkpt lat="44.72431807224925" lon="9.459817255056942"><ele>1214.25</ele><time>2026-03-22T15:19:37Z</time></trkpt><trkpt lat="44.72419404150198" lon="9.459722651059808"><ele>1214.5</ele><time>2026-03-22T15:19:38Z</time></trkpt><trkpt lat="44.7240744352029" lon="9.459618226795088"><ele>1214.75</ele><time>2026-03-22T15:19:39Z</time></trkpt><trkpt lat="44.72395343430048" lon="9.459507983866992"><ele>1215.0</ele><time>2026-03-22T15:19:40Z</time></trkpt><trkpt lat="44.72386487382786" lon="9.459341708648026"><ele>1218.25</ele><time>2026-03-22T15:19:41Z</time></trkpt><trkpt lat="44.723808327503676" lon="9.459188082686264"><ele>1221.5</ele><time>2026-03-22T15:19:42Z</time></trkpt><trkpt lat="44.723754361658415" lon="9.459045431777387"><ele>1224.75</ele><time>2026-03-22T15:19:43Z</time></trkpt><trkpt lat="44.72371006400923" lon="9.458911270864025"><ele>1228.0</ele><time>2026-03-22T15:19:44Z</time></trkpt><trkpt lat="44.723573910388104" lon="9.458872861101629"><ele>1228.5</ele><time>2026-03-22T15:19:45Z</time></trkpt><trkpt lat="44.72345882766719" lon="9.458827722627973"><ele>1229.0</ele><time>2026-03-22T15:19:46Z</time></trkpt><trkpt lat="44.72334924722545" lon="9.458820706862097"><ele>1229.5</ele><time>2026-03-22T15:19:47Z</time></trkpt><trkpt lat="44.723244457333955" lon="9.458850329735046"><ele>1230.0</ele><time>2026-03-22T15:19:48Z</time></trkpt><trkpt lat="44.72309508475093" lon="9.458896267041972"><ele>1230.0</ele><time>2026-03-22T15:19:49Z</time></trkpt><trkpt lat="44.72297601499483" lon="9.458933789108494"><ele>1230.0</ele><time>2026-03-22T15:19:50Z</time></trkpt><trkpt lat="44.72287829261809" lon="9.458952638030048"><ele>1230.0</ele><time>2026-03-22T15:19:51Z</time></trkpt><trkpt lat="44.722783236907034" lon="9.458966302398343"><ele>1230.0</ele><time>2026-03-22T15:19:52Z</time></trkpt><trkpt lat="44.722692805678456" lon="9.458977086860408"><ele>1230.0</ele><time>2026-03-22T15:19:53Z</time></trkpt><trkpt lat="44.72260690181176" lon="9.458986809421646"><ele>1230.6</ele><time>2026-03-22T15:19:54Z</time></trkpt><trkpt lat="44.72251522117455" lon="9.458998895919102"><ele>1231.2</ele><time>2026-03-22T15:19:55Z</time></trkpt><trkpt lat="44.72241237415969" lon="9.459019186889474"><ele>1231.8</ele><time>2026-03-22T15:19:56Z</time></trkpt><trkpt lat="44.72230174505932" lon="9.459058606835159"><ele>1232.4</ele><time>2026-03-22T15:19:57Z</time></trkpt><trkpt lat="44.722180246234146" lon="9.459113862308527"><ele>1233.0</ele><time>2026-03-22T15:19:58Z</time></trkpt><trkpt lat="44.722049532906325" lon="9.45915346012443"><ele>1233.0</ele><time>2026-03-22T15:19:59Z</time></trkpt><trkpt lat="44.721902367819645" lon="9.45917860617481"><ele>1233.0</ele><time>2026-03-22T15:19:59.999Z</time></trkpt><trkpt lat="44.72175703668996" lon="9.459191096910434"><ele>1233.0</ele><time>2026-03-22T15:20:00.999Z</time></trkpt><trkpt lat="44.721621522681346" lon="9.459201369821496"><ele>1233.0</ele><time>2026-03-22T15:20:01.999Z</time></trkpt><trkpt lat="44.721499360223206" lon="9.459204091844157"><ele>1232.25</ele><time>2026-03-22T15:20:02.999Z</time></trkpt><trkpt lat="44.72137984672021" lon="9.459190286320945"><ele>1231.5</ele><time>2026-03-22T15:20:03.999Z</time></trkpt><trkpt lat="44.72127050204227" lon="9.459147409423263"><ele>1230.75</ele><time>2026-03-22T15:20:04.999Z</time></trkpt><trkpt lat="44.72116938052424" lon="9.459104107237618"><ele>1230.0</ele><time>2026-03-22T15:20:05.999Z</time></trkpt><trkpt lat="44.7210412231275" lon="9.459098933320604"><ele>1228.0</ele><time>2026-03-22T15:20:06.999Z</time></trkpt><trkpt lat="44.7208988628782" lon="9.459133273324744"><ele>1226.0</ele><time>2026-03-22T15:20:07.999Z</time></trkpt><trkpt lat="44.72077482701006" lon="9.459185775095918"><ele>1224.0</ele><time>2026-03-22T15:20:08.999Z</time></trkpt><trkpt lat="44.72066666208998" lon="9.45926817395293"><ele>1222.0</ele><time>2026-03-22T15:20:09.999Z</time></trkpt><trkpt lat="44.7205890578624" lon="9.459404722239867"><ele>1222.0</ele><time>2026-03-22T15:20:10.999Z</time></trkpt><trkpt lat="44.72051908711729" lon="9.459554174670075"><ele>1222.0</ele><time>2026-03-22T15:20:11.999Z</time></trkpt><trkpt lat="44.72041510273545" lon="9.45965589928229"><ele>1222.0</ele><time>2026-03-22T15:20:12.999Z</time></trkpt><trkpt lat="44.72029392726714" lon="9.45969552791954"><ele>1222.0</ele><time>2026-03-22T15:20:13.999Z</time></trkpt><trkpt lat="44.720192542411745" lon="9.459701145277114"><ele>1221.1666666666665</ele><time>2026-03-22T15:20:14.999Z</time></trkpt><trkpt lat="44.720112364640116" lon="9.459676666542316"><ele>1220.3333333333333</ele><time>2026-03-22T15:20:15.999Z</time></trkpt><trkpt lat="44.720067454383184" lon="9.459605300208672"><ele>1219.5</ele><time>2026-03-22T15:20:16.999Z</time></trkpt><trkpt lat="44.72003952016809" lon="9.459509021257096"><ele>1218.6666666666667</ele><time>2026-03-22T15:20:18.999Z</time></trkpt><trkpt lat="44.719999036133004" lon="9.459439527380976"><ele>1217.8333333333335</ele><time>2026-03-22T15:20:21.999Z</time></trkpt><trkpt lat="44.71995309944447" lon="9.459534580293237"><ele>1217.0</ele><time>2026-03-22T15:22:14Z</time></trkpt><trkpt lat="44.720030616394915" lon="9.459590185072432"><ele>1217.0</ele><time>2026-03-22T15:22:16Z</time></trkpt><trkpt lat="44.720103078318196" lon="9.459667041888707"><ele>1217.0</ele><time>2026-03-22T15:22:17.999Z</time></trkpt><trkpt lat="44.720198169752145" lon="9.45969512965542"><ele>1217.0</ele><time>2026-03-22T15:22:52.998Z</time></trkpt><trkpt lat="44.720323539713995" lon="9.459673369161898"><ele>1217.0</ele><time>2026-03-22T15:23:03.997Z</time></trkpt><trkpt lat="44.7204359952841" lon="9.459634797252988"><ele>1217.0</ele><time>2026-03-22T15:23:04.997Z</time></trkpt><trkpt lat="44.72050404011403" lon="9.459569075796862"><ele>1218.25</ele><time>2026-03-22T15:23:05.997Z</time></trkpt><trkpt lat="44.720574164600485" lon="9.459461532342804"><ele>1219.5</ele><time>2026-03-22T15:23:06.997Z</time></trkpt><trkpt lat="44.72064928767084" lon="9.459315647624475"><ele>1220.75</ele><time>2026-03-22T15:23:07.997Z</time></trkpt><trkpt lat="44.72075292863233" lon="9.459175681942849"><ele>1222.0</ele><time>2026-03-22T15:23:08.997Z</time></trkpt><trkpt lat="44.720882287914876" lon="9.459129039214424"><ele>1222.0</ele><time>2026-03-22T15:23:09.997Z</time></trkpt><trkpt lat="44.72104723808781" lon="9.459072810154396"><ele>1222.0</ele><time>2026-03-22T15:23:10.997Z</time></trkpt><trkpt lat="44.72121847128485" lon="9.459092402590873"><ele>1222.0</ele><time>2026-03-22T15:23:11.997Z</time></trkpt><trkpt lat="44.72134381954595" lon="9.45919258128211"><ele>1224.6666666666665</ele><time>2026-03-22T15:23:12.997Z</time></trkpt><trkpt lat="44.72147476666774" lon="9.459219487388491"><ele>1227.3333333333333</ele><time>2026-03-22T15:23:13.997Z</time></trkpt><trkpt lat="44.721677177075634" lon="9.459212313928397"><ele>1230.0</ele><time>2026-03-22T15:23:14.997Z</time></trkpt><trkpt lat="44.72188116926602" lon="9.459178193555259"><ele>1230.75</ele><time>2026-03-22T15:23:15.997Z</time></trkpt><trkpt lat="44.72204581162409" lon="9.459149808264577"><ele>1231.5</ele><time>2026-03-22T15:23:16.997Z</time></trkpt><trkpt lat="44.722181053454754" lon="9.459123319904087"><ele>1232.25</ele><time>2026-03-22T15:23:17.997Z</time></trkpt><trkpt lat="44.72230129715811" lon="9.459078347049594"><ele>1233.0</ele><time>2026-03-22T15:23:18.997Z</time></trkpt><trkpt lat="44.72239843803863" lon="9.459019924960444"><ele>1233.0</ele><time>2026-03-22T15:23:19.997Z</time></trkpt><trkpt lat="44.722484153889894" lon="9.458974905425753"><ele>1233.0</ele><time>2026-03-22T15:23:20.997Z</time></trkpt><trkpt lat="44.72255871839621" lon="9.458965185898363"><ele>1233.0</ele><time>2026-03-22T15:23:21.997Z</time></trkpt><trkpt lat="44.722662362763856" lon="9.458963713637422"><ele>1233.0</ele><time>2026-03-22T15:23:23.997Z</time></trkpt><trkpt lat="44.72273306023676" lon="9.458975808450043"><ele>1233.0</ele><time>2026-03-22T15:23:26.997Z</time></trkpt><trkpt lat="44.72264522410302" lon="9.459009068429976"><ele>1233.0</ele><time>2026-03-22T15:23:29.997Z</time></trkpt><trkpt lat="44.72259389996265" lon="9.459191608284893"><ele>1233.0</ele><time>2026-03-22T15:23:30.997Z</time></trkpt><trkpt lat="44.72254211004262" lon="9.459249155813948"><ele>1233.0</ele><time>2026-03-22T15:23:44Z</time></trkpt><trkpt lat="44.72249667572298" lon="9.4593153650701"><ele>1233.0</ele><time>2026-03-22T15:23:45Z</time></trkpt><trkpt lat="44.7224490467023" lon="9.459384877211132"><ele>1233.0</ele><time>2026-03-22T15:23:46Z</time></trkpt><trkpt lat="44.72239772145998" lon="9.459461914584443"><ele>1233.0</ele><time>2026-03-22T15:23:47Z</time></trkpt><trkpt lat="44.722349062851535" lon="9.459546916830195"><ele>1233.0</ele><time>2026-03-22T15:23:48Z</time></trkpt><trkpt lat="44.72231288796492" lon="9.459624298150901"><ele>1233.0</ele><time>2026-03-22T15:23:49Z</time></trkpt><trkpt lat="44.722254474178015" lon="9.459752898094987"><ele>1233.5</ele><time>2026-03-22T15:23:51Z</time></trkpt><trkpt lat="44.722194330642424" lon="9.459837412771309"><ele>1234.0</ele><time>2026-03-22T15:23:52.999Z</time></trkpt><trkpt lat="44.7221617129285" lon="9.45993157510484"><ele>1234.5</ele><time>2026-03-22T15:23:55.999Z</time></trkpt><trkpt lat="44.72211191346255" lon="9.460028792403865"><ele>1235.0</ele><time>2026-03-22T15:23:58.999Z</time></trkpt><trkpt lat="44.72205887174603" lon="9.460110760060802"><ele>1235.5</ele><time>2026-03-22T15:24:00.999Z</time></trkpt><trkpt lat="44.72198803819868" lon="9.46020586345464"><ele>1236.0</ele><time>2026-03-22T15:24:02.999Z</time></trkpt><trkpt lat="44.72189892721661" lon="9.460278710173824"><ele>1236.0</ele><time>2026-03-22T15:24:04.999Z</time></trkpt><trkpt lat="44.72181769225835" lon="9.46034974160069"><ele>1236.0</ele><time>2026-03-22T15:24:06.999Z</time></trkpt><trkpt lat="44.721741193735916" lon="9.460391505050055"><ele>1236.0</ele><time>2026-03-22T15:24:09.999Z</time></trkpt><trkpt lat="44.721691353835325" lon="9.460448711024098"><ele>1236.0</ele><time>2026-03-22T15:24:11.999Z</time></trkpt><trkpt lat="44.72163371843193" lon="9.460537449238164"><ele>1236.0</ele><time>2026-03-22T15:24:14.999Z</time></trkpt><trkpt lat="44.72160384454829" lon="9.460645439573868"><ele>1236.0</ele><time>2026-03-22T15:24:16.999Z</time></trkpt><trkpt lat="44.721598305039365" lon="9.460743026182252"><ele>1236.0000000000002</ele><time>2026-03-22T15:24:18.999Z</time></trkpt><trkpt lat="44.72159669653273" lon="9.460837338035205"><ele>1236.0</ele><time>2026-03-22T15:24:20.999Z</time></trkpt><trkpt lat="44.72166247147822" lon="9.460874418894855"><ele>1236.0</ele><time>2026-03-22T15:25:07.998Z</time></trkpt><trkpt lat="44.721706012318684" lon="9.460792119200725"><ele>1236.0</ele><time>2026-03-22T15:25:09.998Z</time></trkpt><trkpt lat="44.72173796526179" lon="9.460683329114568"><ele>1236.0</ele><time>2026-03-22T15:25:11.998Z</time></trkpt><trkpt lat="44.721767314547776" lon="9.46057685378073"><ele>1236.0000000000002</ele><time>2026-03-22T15:25:13.998Z</time></trkpt><trkpt lat="44.72177451979813" lon="9.460481733310152"><ele>1236.0</ele><time>2026-03-22T15:25:15.998Z</time></trkpt><trkpt lat="44.721825060681454" lon="9.460335648785378"><ele>1236.0</ele><time>2026-03-22T15:25:18.998Z</time></trkpt><trkpt lat="44.72189676304869" lon="9.460263041087853"><ele>1236.0</ele><time>2026-03-22T15:25:20.997Z</time></trkpt><trkpt lat="44.72195580270116" lon="9.460207466811653"><ele>1236.0</ele><time>2026-03-22T15:25:21.997Z</time></trkpt><trkpt lat="44.722026417871014" lon="9.460150322581995"><ele>1236.0</ele><time>2026-03-22T15:25:22.997Z</time></trkpt><trkpt lat="44.7220903331295" lon="9.460082463547263"><ele>1236.0</ele><time>2026-03-22T15:25:23.997Z</time></trkpt><trkpt lat="44.72215160017229" lon="9.459960415582662"><ele>1236.0</ele><time>2026-03-22T15:25:25.997Z</time></trkpt><trkpt lat="44.72222988152861" lon="9.45983641247758"><ele>1236.0</ele><time>2026-03-22T15:25:28.997Z</time></trkpt><trkpt lat="44.72227348941281" lon="9.459769570301791"><ele>1236.0</ele><time>2026-03-22T15:25:29.997Z</time></trkpt><trkpt lat="44.722322855453044" lon="9.45964731950289"><ele>1236.0</ele><time>2026-03-22T15:25:31.997Z</time></trkpt><trkpt lat="44.72237503054893" lon="9.4595262255207"><ele>1236.0</ele><time>2026-03-22T15:25:34.997Z</time></trkpt><trkpt lat="44.72244128707941" lon="9.459410785159646"><ele>1236.0</ele><time>2026-03-22T15:25:36.997Z</time></trkpt><trkpt lat="44.7225125057817" lon="9.459284750676336"><ele>1235.5</ele><time>2026-03-22T15:25:39Z</time></trkpt><trkpt lat="44.7225846909551" lon="9.459190761862029"><ele>1235.0</ele><time>2026-03-22T15:25:41Z</time></trkpt><trkpt lat="44.722638995922196" lon="9.459120108092172"><ele>1234.5</ele><time>2026-03-22T15:25:43Z</time></trkpt><trkpt lat="44.72268604179946" lon="9.459047838806459"><ele>1234.0</ele><time>2026-03-22T15:25:45Z</time></trkpt><trkpt lat="44.72271396831219" lon="9.458954706546889"><ele>1233.5</ele><time>2026-03-22T15:25:48Z</time></trkpt><trkpt lat="44.72263571970534" lon="9.458941242448434"><ele>1233.0</ele><time>2026-03-22T15:25:51Z</time></trkpt><trkpt lat="44.7225614558431" lon="9.459004264678924"><ele>1233.0</ele><time>2026-03-22T15:44:26.997Z</time></trkpt><trkpt lat="44.72248099953188" lon="9.459027828168665"><ele>1233.0</ele><time>2026-03-22T15:44:30Z</time></trkpt><trkpt lat="44.722409340090685" lon="9.459027299788367"><ele>1233.0</ele><time>2026-03-22T15:44:33Z</time></trkpt><trkpt lat="44.72232097333061" lon="9.459077656829772"><ele>1233.0</ele><time>2026-03-22T15:44:36Z</time></trkpt><trkpt lat="44.72225371119325" lon="9.459101544641646"><ele>1233.0</ele><time>2026-03-22T15:44:38Z</time></trkpt><trkpt lat="44.72219004044784" lon="9.459125751314376"><ele>1233.0</ele><time>2026-03-22T15:44:40Z</time></trkpt><trkpt lat="44.72211424530716" lon="9.459153142181806"><ele>1233.0</ele><time>2026-03-22T15:44:42Z</time></trkpt><trkpt lat="44.722047540324965" lon="9.459175320411694"><ele>1233.0</ele><time>2026-03-22T15:44:44Z</time></trkpt><trkpt lat="44.721932056128644" lon="9.45918974462478"><ele>1233.0</ele><time>2026-03-22T15:44:46Z</time></trkpt><trkpt lat="44.721848349003594" lon="9.459199171486139"><ele>1233.0</ele><time>2026-03-22T15:44:47Z</time></trkpt><trkpt lat="44.72174667247091" lon="9.459207064478573"><ele>1233.0</ele><time>2026-03-22T15:44:48Z</time></trkpt><trkpt lat="44.72163257706817" lon="9.459144715608586"><ele>1232.4</ele><time>2026-03-22T15:44:49Z</time></trkpt><trkpt lat="44.721536566948515" lon="9.459150950029395"><ele>1231.8</ele><time>2026-03-22T15:44:50Z</time></trkpt><trkpt lat="44.72145306466729" lon="9.459154154705658"><ele>1231.2</ele><time>2026-03-22T15:44:51Z</time></trkpt><trkpt lat="44.72136588172007" lon="9.459149194821704"><ele>1230.6</ele><time>2026-03-22T15:44:52Z</time></trkpt><trkpt lat="44.72126803469073" lon="9.459124918711924"><ele>1230.0</ele><time>2026-03-22T15:44:53Z</time></trkpt><trkpt lat="44.72118077413417" lon="9.45906642387534"><ele>1228.0</ele><time>2026-03-22T15:44:54Z</time></trkpt><trkpt lat="44.72105468919165" lon="9.459037554692806"><ele>1226.0</ele><time>2026-03-22T15:44:55Z</time></trkpt><trkpt lat="44.72092428649698" lon="9.459070316229447"><ele>1224.0</ele><time>2026-03-22T15:44:56Z</time></trkpt><trkpt lat="44.72082699595398" lon="9.459096253011005"><ele>1222.0</ele><time>2026-03-22T15:44:57Z</time></trkpt><trkpt lat="44.720722208311805" lon="9.459133253870634"><ele>1222.0</ele><time>2026-03-22T15:44:58Z</time></trkpt><trkpt lat="44.72060683128408" lon="9.459244609970991"><ele>1222.0</ele><time>2026-03-22T15:44:59Z</time></trkpt><trkpt lat="44.720547334382914" lon="9.459389878297083"><ele>1222.0</ele><time>2026-03-22T15:45:00Z</time></trkpt><trkpt lat="44.72050007384984" lon="9.459484535870917"><ele>1222.0</ele><time>2026-03-22T15:45:01Z</time></trkpt><trkpt lat="44.72043474888142" lon="9.459560914309261"><ele>1222.0</ele><time>2026-03-22T15:45:02Z</time></trkpt><trkpt lat="44.72034084362266" lon="9.459601937387804"><ele>1222.3333333333333</ele><time>2026-03-22T15:45:03Z</time></trkpt><trkpt lat="44.720246706345165" lon="9.459636738825372"><ele>1222.6666666666665</ele><time>2026-03-22T15:45:04Z</time></trkpt><trkpt lat="44.720162176323655" lon="9.459653726719427"><ele>1223.0</ele><time>2026-03-22T15:45:05Z</time></trkpt><trkpt lat="44.72009552386179" lon="9.459620495510553"><ele>1223.3333333333333</ele><time>2026-03-22T15:45:06Z</time></trkpt><trkpt lat="44.72004433757727" lon="9.459559079389674"><ele>1223.6666666666667</ele><time>2026-03-22T15:45:07Z</time></trkpt><trkpt lat="44.72003751746653" lon="9.459425114609877"><ele>1224.0</ele><time>2026-03-22T15:45:07.999Z</time></trkpt><trkpt lat="44.72006527073699" lon="9.45925848199802"><ele>1222.3333333333333</ele><time>2026-03-22T15:45:08.999Z</time></trkpt><trkpt lat="44.72011999270789" lon="9.459063480866767"><ele>1220.6666666666665</ele><time>2026-03-22T15:45:09.999Z</time></trkpt><trkpt lat="44.72018756526646" lon="9.458857973442887"><ele>1219.0</ele><time>2026-03-22T15:45:10.999Z</time></trkpt><trkpt lat="44.720265827901294" lon="9.458665545179148"><ele>1219.0</ele><time>2026-03-22T15:45:11.999Z</time></trkpt><trkpt lat="44.72034448527807" lon="9.458493592575268"><ele>1219.0</ele><time>2026-03-22T15:45:12.999Z</time></trkpt><trkpt lat="44.72038512247537" lon="9.45830510312541"><ele>1219.0</ele><time>2026-03-22T15:45:13.999Z</time></trkpt><trkpt lat="44.72044074105676" lon="9.458134662064307"><ele>1219.0</ele><time>2026-03-22T15:45:14.999Z</time></trkpt><trkpt lat="44.72048292701115" lon="9.457958649071164"><ele>1216.25</ele><time>2026-03-22T15:45:15.999Z</time></trkpt><trkpt lat="44.72055307425343" lon="9.45779653962712"><ele>1213.5</ele><time>2026-03-22T15:45:16.999Z</time></trkpt><trkpt lat="44.72062451561975" lon="9.457615888387618"><ele>1210.75</ele><time>2026-03-22T15:45:17.999Z</time></trkpt><trkpt lat="44.72068038930964" lon="9.457415222395367"><ele>1208.0</ele><time>2026-03-22T15:45:18.999Z</time></trkpt><trkpt lat="44.72072855299427" lon="9.45719958398132"><ele>1203.6666666666667</ele><time>2026-03-22T15:45:19.999Z</time></trkpt><trkpt lat="44.720777231997424" lon="9.456979438730288"><ele>1199.3333333333333</ele><time>2026-03-22T15:45:20.999Z</time></trkpt><trkpt lat="44.72082415577663" lon="9.456753153588936"><ele>1195.0</ele><time>2026-03-22T15:45:21.999Z</time></trkpt><trkpt lat="44.72087264027185" lon="9.456534132392813"><ele>1195.0</ele><time>2026-03-22T15:45:22.999Z</time></trkpt><trkpt lat="44.72092309913379" lon="9.456318676354897"><ele>1195.0</ele><time>2026-03-22T15:45:23.999Z</time></trkpt><trkpt lat="44.720964716048" lon="9.456115071768503"><ele>1195.0</ele><time>2026-03-22T15:45:24.999Z</time></trkpt><trkpt lat="44.720997384718956" lon="9.45591871762514"><ele>1195.0</ele><time>2026-03-22T15:45:25.999Z</time></trkpt><trkpt lat="44.72104051653398" lon="9.455719974136922"><ele>1195.0</ele><time>2026-03-22T15:45:26.999Z</time></trkpt><trkpt lat="44.72109652213785" lon="9.455524062478606"><ele>1195.0</ele><time>2026-03-22T15:45:27.999Z</time></trkpt><trkpt lat="44.721163556224745" lon="9.455330473741698"><ele>1195.0</ele><time>2026-03-22T15:45:28.999Z</time></trkpt><trkpt lat="44.72122881956855" lon="9.455153205121587"><ele>1195.0</ele><time>2026-03-22T15:45:29.999Z</time></trkpt><trkpt lat="44.72129605724134" lon="9.454990556408584"><ele>1195.0</ele><time>2026-03-22T15:45:30.999Z</time></trkpt><trkpt lat="44.72135609565039" lon="9.454840761832328"><ele>1195.0</ele><time>2026-03-22T15:45:31.999Z</time></trkpt><trkpt lat="44.72140079800469" lon="9.454694710998734"><ele>1195.25</ele><time>2026-03-22T15:45:32.999Z</time></trkpt><trkpt lat="44.721413796189594" lon="9.454548610000353"><ele>1195.5</ele><time>2026-03-22T15:45:33.999Z</time></trkpt><trkpt lat="44.72138626763794" lon="9.454399847744819"><ele>1195.75</ele><time>2026-03-22T15:45:34.999Z</time></trkpt><trkpt lat="44.72130537315523" lon="9.4542583748539"><ele>1196.0</ele><time>2026-03-22T15:45:35.999Z</time></trkpt><trkpt lat="44.72120034688661" lon="9.45414195184069"><ele>1196.0</ele><time>2026-03-22T15:45:36.999Z</time></trkpt><trkpt lat="44.721111202931624" lon="9.454023111554585"><ele>1196.0</ele><time>2026-03-22T15:45:37.999Z</time></trkpt><trkpt lat="44.72103670430463" lon="9.453897977563956"><ele>1196.0</ele><time>2026-03-22T15:45:38.999Z</time></trkpt><trkpt lat="44.720971913296864" lon="9.453755776216209"><ele>1196.0</ele><time>2026-03-22T15:45:39.999Z</time></trkpt><trkpt lat="44.72092091083942" lon="9.453604809170804"><ele>1192.0</ele><time>2026-03-22T15:45:40.999Z</time></trkpt><trkpt lat="44.72088590635804" lon="9.453452517650124"><ele>1188.0</ele><time>2026-03-22T15:45:41.999Z</time></trkpt><trkpt lat="44.72085841781983" lon="9.453281707124502"><ele>1184.0</ele><time>2026-03-22T15:45:42.999Z</time></trkpt><trkpt lat="44.72084353528869" lon="9.453089606532227"><ele>1180.0</ele><time>2026-03-22T15:45:43.999Z</time></trkpt><trkpt lat="44.720839814515706" lon="9.45290295791175"><ele>1178.2</ele><time>2026-03-22T15:45:44.999Z</time></trkpt><trkpt lat="44.72084318277077" lon="9.452737415279124"><ele>1176.4</ele><time>2026-03-22T15:45:45.999Z</time></trkpt><trkpt lat="44.720839418852336" lon="9.452585283834418"><ele>1174.6</ele><time>2026-03-22T15:45:46.999Z</time></trkpt><trkpt lat="44.72084089642391" lon="9.452438492465976"><ele>1172.8</ele><time>2026-03-22T15:45:47.999Z</time></trkpt><trkpt lat="44.72087423835463" lon="9.452283014803598"><ele>1171.0</ele><time>2026-03-22T15:45:48.999Z</time></trkpt><trkpt lat="44.72092647559895" lon="9.4521371318355"><ele>1171.8</ele><time>2026-03-22T15:45:49.999Z</time></trkpt><trkpt lat="44.72098129992018" lon="9.452008042679648"><ele>1172.6</ele><time>2026-03-22T15:45:50.999Z</time></trkpt><trkpt lat="44.72103823921558" lon="9.451893108245791"><ele>1173.4</ele><time>2026-03-22T15:45:51.999Z</time></trkpt><trkpt lat="44.72111176351106" lon="9.451784930048502"><ele>1174.2</ele><time>2026-03-22T15:45:52.999Z</time></trkpt><trkpt lat="44.72121175630129" lon="9.451696058375882"><ele>1175.0</ele><time>2026-03-22T15:45:53.999Z</time></trkpt><trkpt lat="44.72133097658004" lon="9.451631441561766"><ele>1175.0</ele><time>2026-03-22T15:45:54.999Z</time></trkpt><trkpt lat="44.72144636288762" lon="9.451562180819838"><ele>1175.0</ele><time>2026-03-22T15:45:55.999Z</time></trkpt><trkpt lat="44.72155387011703" lon="9.451474815036365"><ele>1175.0</ele><time>2026-03-22T15:45:56.999Z</time></trkpt><trkpt lat="44.721660043872795" lon="9.451371806511851"><ele>1175.0</ele><time>2026-03-22T15:45:57.999Z</time></trkpt><trkpt lat="44.72175640857814" lon="9.451247272764634"><ele>1174.25</ele><time>2026-03-22T15:45:58.999Z</time></trkpt><trkpt lat="44.72186095233074" lon="9.451155127151079"><ele>1173.5</ele><time>2026-03-22T15:45:59.999Z</time></trkpt><trkpt lat="44.721946313681194" lon="9.451016147075261"><ele>1172.75</ele><time>2026-03-22T15:46:00.999Z</time></trkpt><trkpt lat="44.72200426267036" lon="9.450850551854758"><ele>1172.0</ele><time>2026-03-22T15:46:01.999Z</time></trkpt><trkpt lat="44.72202873755857" lon="9.450671035126032"><ele>1172.0</ele><time>2026-03-22T15:46:02.999Z</time></trkpt><trkpt lat="44.72202352699033" lon="9.450463628447196"><ele>1172.0</ele><time>2026-03-22T15:46:03.999Z</time></trkpt><trkpt lat="44.72198029634614" lon="9.450233902025191"><ele>1172.0</ele><time>2026-03-22T15:46:04.998Z</time></trkpt><trkpt lat="44.721936624355635" lon="9.450015382860341"><ele>1171.5</ele><time>2026-03-22T15:46:05.998Z</time></trkpt><trkpt lat="44.721903705608874" lon="9.449816598085178"><ele>1171.0</ele><time>2026-03-22T15:46:06.998Z</time></trkpt><trkpt lat="44.721884593951174" lon="9.449623414426533"><ele>1170.5</ele><time>2026-03-22T15:46:07.998Z</time></trkpt><trkpt lat="44.72186938824746" lon="9.449436557555552"><ele>1170.0</ele><time>2026-03-22T15:46:08.998Z</time></trkpt><trkpt lat="44.721856016664454" lon="9.449250776644897"><ele>1161.0</ele><time>2026-03-22T15:46:09.998Z</time></trkpt><trkpt lat="44.721850087931614" lon="9.449050392982501"><ele>1152.0</ele><time>2026-03-22T15:46:10.998Z</time></trkpt><trkpt lat="44.721860917969714" lon="9.44883174358349"><ele>1143.0</ele><time>2026-03-22T15:46:11.998Z</time></trkpt><trkpt lat="44.72189721851157" lon="9.448592100024845"><ele>1145.6666666666667</ele><time>2026-03-22T15:46:12.998Z</time></trkpt><trkpt lat="44.72192743676198" lon="9.448367456677083"><ele>1148.3333333333335</ele><time>2026-03-22T15:46:13.998Z</time></trkpt><trkpt lat="44.72193393192684" lon="9.448158668110976"><ele>1151.0</ele><time>2026-03-22T15:46:14.998Z</time></trkpt><trkpt lat="44.72192933847708" lon="9.44795620988484"><ele>1147.0</ele><time>2026-03-22T15:46:15.998Z</time></trkpt><trkpt lat="44.72193909256961" lon="9.447760850995474"><ele>1143.0</ele><time>2026-03-22T15:46:16.998Z</time></trkpt><trkpt lat="44.72197348479519" lon="9.44756810700283"><ele>1139.0</ele><time>2026-03-22T15:46:17.998Z</time></trkpt><trkpt lat="44.72201371345548" lon="9.447397522674173"><ele>1135.0</ele><time>2026-03-22T15:46:18.998Z</time></trkpt><trkpt lat="44.7220417508067" lon="9.447247178245103"><ele>1131.8</ele><time>2026-03-22T15:46:19.998Z</time></trkpt><trkpt lat="44.72206429014214" lon="9.447109025333999"><ele>1128.6</ele><time>2026-03-22T15:46:20.998Z</time></trkpt><trkpt lat="44.722098216251766" lon="9.446984569907366"><ele>1125.4</ele><time>2026-03-22T15:46:21.998Z</time></trkpt><trkpt lat="44.722163402143714" lon="9.446883888142795"><ele>1122.2</ele><time>2026-03-22T15:46:22.998Z</time></trkpt><trkpt lat="44.72225862262995" lon="9.446824633137759"><ele>1119.0</ele><time>2026-03-22T15:46:23.998Z</time></trkpt><trkpt lat="44.72237202075097" lon="9.446802793636413"><ele>1119.0</ele><time>2026-03-22T15:46:24.998Z</time></trkpt><trkpt lat="44.722495444116646" lon="9.446796117456525"><ele>1119.0</ele><time>2026-03-22T15:46:25.998Z</time></trkpt><trkpt lat="44.72260003061188" lon="9.446764214987729"><ele>1119.0</ele><time>2026-03-22T15:46:26.998Z</time></trkpt><trkpt lat="44.72269114037273" lon="9.44669072586024"><ele>1119.0</ele><time>2026-03-22T15:46:27.998Z</time></trkpt><trkpt lat="44.722771966303526" lon="9.446561981697474"><ele>1114.25</ele><time>2026-03-22T15:46:28.998Z</time></trkpt><trkpt lat="44.72283216232923" lon="9.44638514519128"><ele>1109.5</ele><time>2026-03-22T15:46:29.998Z</time></trkpt><trkpt lat="44.72288119976649" lon="9.446199458782907"><ele>1104.75</ele><time>2026-03-22T15:46:30.998Z</time></trkpt><trkpt lat="44.722918236872" lon="9.446028567047692"><ele>1100.0</ele><time>2026-03-22T15:46:31.998Z</time></trkpt><trkpt lat="44.722949324176206" lon="9.445867653691362"><ele>1097.75</ele><time>2026-03-22T15:46:32.998Z</time></trkpt><trkpt lat="44.72298891721203" lon="9.445702639327084"><ele>1095.5</ele><time>2026-03-22T15:46:33.998Z</time></trkpt><trkpt lat="44.72303925158342" lon="9.445532977009819"><ele>1093.25</ele><time>2026-03-22T15:46:35Z</time></trkpt><trkpt lat="44.723088795306666" lon="9.445363209814781"><ele>1091.0</ele><time>2026-03-22T15:46:36Z</time></trkpt><trkpt lat="44.72312875516561" lon="9.445197198465042"><ele>1090.75</ele><time>2026-03-22T15:46:37Z</time></trkpt><trkpt lat="44.72315918101886" lon="9.445035824096522"><ele>1090.5</ele><time>2026-03-22T15:46:38Z</time></trkpt><trkpt lat="44.72320350351648" lon="9.444874754633272"><ele>1090.25</ele><time>2026-03-22T15:46:39Z</time></trkpt><trkpt lat="44.72328200186232" lon="9.444727249821854"><ele>1090.0</ele><time>2026-03-22T15:46:40Z</time></trkpt><trkpt lat="44.723384414539254" lon="9.444613462833573"><ele>1090.75</ele><time>2026-03-22T15:46:41Z</time></trkpt><trkpt lat="44.72349503853166" lon="9.444517429351341"><ele>1091.5</ele><time>2026-03-22T15:46:42Z</time></trkpt><trkpt lat="44.723589993546625" lon="9.444425191130188"><ele>1092.25</ele><time>2026-03-22T15:46:43Z</time></trkpt><trkpt lat="44.72367615111386" lon="9.44433555449383"><ele>1093.0</ele><time>2026-03-22T15:46:44Z</time></trkpt><trkpt lat="44.72375639389444" lon="9.444253517163038"><ele>1088.6</ele><time>2026-03-22T15:46:45Z</time></trkpt><trkpt lat="44.72383217704278" lon="9.44416532789886"><ele>1084.1999999999998</ele><time>2026-03-22T15:46:46Z</time></trkpt><trkpt lat="44.72389335926828" lon="9.444060300555893"><ele>1079.8</ele><time>2026-03-22T15:46:47Z</time></trkpt><trkpt lat="44.723920571072156" lon="9.443928845322299"><ele>1075.3999999999999</ele><time>2026-03-22T15:46:48Z</time></trkpt><trkpt lat="44.723929647580725" lon="9.443772491957695"><ele>1071.0</ele><time>2026-03-22T15:46:49Z</time></trkpt><trkpt lat="44.723924188165405" lon="9.443617124861907"><ele>1070.3999999999999</ele><time>2026-03-22T15:46:50Z</time></trkpt><trkpt lat="44.72390986046366" lon="9.443472037523108"><ele>1069.8</ele><time>2026-03-22T15:46:51Z</time></trkpt><trkpt lat="44.723894575971855" lon="9.443338808674925"><ele>1069.1999999999998</ele><time>2026-03-22T15:46:52Z</time></trkpt><trkpt lat="44.72388164143598" lon="9.443209588808344"><ele>1068.6</ele><time>2026-03-22T15:46:53Z</time></trkpt><trkpt lat="44.7238656139041" lon="9.443084945764918"><ele>1068.0</ele><time>2026-03-22T15:46:54Z</time></trkpt><trkpt lat="44.72383868758877" lon="9.442969802579219"><ele>1067.4</ele><time>2026-03-22T15:46:55Z</time></trkpt><trkpt lat="44.72379316235936" lon="9.442862610786452"><ele>1066.8</ele><time>2026-03-22T15:46:56Z</time></trkpt><trkpt lat="44.72373491967563" lon="9.442772619622147"><ele>1066.2</ele><time>2026-03-22T15:46:57Z</time></trkpt><trkpt lat="44.72365330397349" lon="9.442722724076184"><ele>1065.6</ele><time>2026-03-22T15:46:58Z</time></trkpt><trkpt lat="44.72355257183578" lon="9.442717890468874"><ele>1065.0</ele><time>2026-03-22T15:46:59Z</time></trkpt><trkpt lat="44.7234491475861" lon="9.442759026626407"><ele>1065.0</ele><time>2026-03-22T15:47:00Z</time></trkpt><trkpt lat="44.7233499812336" lon="9.442834116303274"><ele>1065.0</ele><time>2026-03-22T15:47:01Z</time></trkpt><trkpt lat="44.72325964146795" lon="9.44295582581397"><ele>1065.0</ele><time>2026-03-22T15:47:02Z</time></trkpt><trkpt lat="44.723170093094566" lon="9.443106273666167"><ele>1065.0</ele><time>2026-03-22T15:47:03Z</time></trkpt><trkpt lat="44.723086808594914" lon="9.443251875330235"><ele>1070.0</ele><time>2026-03-22T15:47:04Z</time></trkpt><trkpt lat="44.7230098744628" lon="9.443377358724039"><ele>1075.0</ele><time>2026-03-22T15:47:05Z</time></trkpt><trkpt lat="44.722933159613845" lon="9.44349946898411"><ele>1080.0</ele><time>2026-03-22T15:47:06Z</time></trkpt><trkpt lat="44.72285283307984" lon="9.443626977687591"><ele>1085.0</ele><time>2026-03-22T15:47:07Z</time></trkpt><trkpt lat="44.722759471780115" lon="9.443748053497332"><ele>1083.5</ele><time>2026-03-22T15:47:08Z</time></trkpt><trkpt lat="44.72265380709396" lon="9.443837208906311"><ele>1082.0</ele><time>2026-03-22T15:47:09Z</time></trkpt><trkpt lat="44.7225470214448" lon="9.443900198952708"><ele>1080.5</ele><time>2026-03-22T15:47:10Z</time></trkpt><trkpt lat="44.72243363629914" lon="9.443950732023843"><ele>1079.0</ele><time>2026-03-22T15:47:11Z</time></trkpt><trkpt lat="44.722309988740854" lon="9.443994049670202"><ele>1079.0</ele><time>2026-03-22T15:47:12Z</time></trkpt><trkpt lat="44.72217831465742" lon="9.444013233624766"><ele>1079.0</ele><time>2026-03-22T15:47:13Z</time></trkpt><trkpt lat="44.72204293615208" lon="9.44400008557533"><ele>1079.0</ele><time>2026-03-22T15:47:14Z</time></trkpt><trkpt lat="44.72191329953882" lon="9.44395527407823"><ele>1079.0</ele><time>2026-03-22T15:47:15Z</time></trkpt><trkpt lat="44.72179134470758" lon="9.443908275019071"><ele>1078.75</ele><time>2026-03-22T15:47:16Z</time></trkpt><trkpt lat="44.72167303371839" lon="9.443866962028697"><ele>1078.5</ele><time>2026-03-22T15:47:17Z</time></trkpt><trkpt lat="44.72156566177741" lon="9.443807379174125"><ele>1078.25</ele><time>2026-03-22T15:47:18Z</time></trkpt><trkpt lat="44.72146690183967" lon="9.443726483157501"><ele>1078.0</ele><time>2026-03-22T15:47:19Z</time></trkpt><trkpt lat="44.72137730575991" lon="9.443615625239165"><ele>1073.25</ele><time>2026-03-22T15:47:20Z</time></trkpt><trkpt lat="44.72129049694362" lon="9.443491183654464"><ele>1068.5</ele><time>2026-03-22T15:47:21Z</time></trkpt><trkpt lat="44.721217190935356" lon="9.443355852538286"><ele>1063.75</ele><time>2026-03-22T15:47:22Z</time></trkpt><trkpt lat="44.721149624213794" lon="9.443223539711584"><ele>1059.0</ele><time>2026-03-22T15:47:23Z</time></trkpt><trkpt lat="44.72108674690848" lon="9.443091874338531"><ele>1059.2</ele><time>2026-03-22T15:47:24Z</time></trkpt><trkpt lat="44.72104593741928" lon="9.442962068210681"><ele>1059.4</ele><time>2026-03-22T15:47:25Z</time></trkpt><trkpt lat="44.721042718371386" lon="9.442833683369047"><ele>1059.6</ele><time>2026-03-22T15:47:26Z</time></trkpt><trkpt lat="44.721078125350694" lon="9.442701047930004"><ele>1059.8</ele><time>2026-03-22T15:47:27Z</time></trkpt><trkpt lat="44.721149914539794" lon="9.442587929426404"><ele>1060.0</ele><time>2026-03-22T15:47:28Z</time></trkpt><trkpt lat="44.721223205811896" lon="9.442483800516996"><ele>1056.25</ele><time>2026-03-22T15:47:29Z</time></trkpt><trkpt lat="44.72127258669295" lon="9.442359912420129"><ele>1052.5</ele><time>2026-03-22T15:47:30Z</time></trkpt><trkpt lat="44.72128768227359" lon="9.442203058363011"><ele>1048.75</ele><time>2026-03-22T15:47:31Z</time></trkpt><trkpt lat="44.72126974707483" lon="9.44202335932265"><ele>1045.0</ele><time>2026-03-22T15:47:32Z</time></trkpt><trkpt lat="44.721241694214314" lon="9.44185223164966"><ele>1043.0</ele><time>2026-03-22T15:47:33Z</time></trkpt><trkpt lat="44.72122048483309" lon="9.441695829967266"><ele>1041.0</ele><time>2026-03-22T15:47:34Z</time></trkpt><trkpt lat="44.72123781734236" lon="9.441546547547725"><ele>1039.0</ele><time>2026-03-22T15:47:34.999Z</time></trkpt><trkpt lat="44.72129376137485" lon="9.441406928803532"><ele>1037.0</ele><time>2026-03-22T15:47:35.999Z</time></trkpt><trkpt lat="44.72139203125456" lon="9.44129098622524"><ele>1036.25</ele><time>2026-03-22T15:47:36.999Z</time></trkpt><trkpt lat="44.72149967999286" lon="9.441194860504755"><ele>1035.5</ele><time>2026-03-22T15:47:37.999Z</time></trkpt><trkpt lat="44.7215856638868" lon="9.441078410646185"><ele>1034.75</ele><time>2026-03-22T15:47:38.999Z</time></trkpt><trkpt lat="44.72166086366203" lon="9.44092435878711"><ele>1034.0</ele><time>2026-03-22T15:47:39.999Z</time></trkpt><trkpt lat="44.72173867781964" lon="9.440750253672597"><ele>1034.0</ele><time>2026-03-22T15:47:40.999Z</time></trkpt><trkpt lat="44.72182379646504" lon="9.440588963622098"><ele>1034.0</ele><time>2026-03-22T15:47:41.999Z</time></trkpt><trkpt lat="44.72192227805314" lon="9.440460191265766"><ele>1034.0</ele><time>2026-03-22T15:47:42.999Z</time></trkpt><trkpt lat="44.722034585521804" lon="9.440350270717566"><ele>1034.0</ele><time>2026-03-22T15:47:43.999Z</time></trkpt><trkpt lat="44.7221551363707" lon="9.440238219695303"><ele>1029.75</ele><time>2026-03-22T15:47:44.999Z</time></trkpt><trkpt lat="44.722273893379686" lon="9.44012876381857"><ele>1025.5</ele><time>2026-03-22T15:47:45.999Z</time></trkpt><trkpt lat="44.72238338649882" lon="9.440042490527246"><ele>1021.25</ele><time>2026-03-22T15:47:46.999Z</time></trkpt><trkpt lat="44.722482823069875" lon="9.439965749677695"><ele>1017.0</ele><time>2026-03-22T15:47:47.999Z</time></trkpt><trkpt lat="44.722575337735044" lon="9.439891059031963"><ele>1017.0</ele><time>2026-03-22T15:47:48.999Z</time></trkpt><trkpt lat="44.722671204123884" lon="9.4398461856254"><ele>1017.0</ele><time>2026-03-22T15:47:49.999Z</time></trkpt><trkpt lat="44.72277132095006" lon="9.439836837891251"><ele>1017.0</ele><time>2026-03-22T15:47:50.999Z</time></trkpt><trkpt lat="44.72286126309551" lon="9.439835758850377"><ele>1017.0</ele><time>2026-03-22T15:47:51.999Z</time></trkpt><trkpt lat="44.722923638518125" lon="9.439798569182305"><ele>1017.0</ele><time>2026-03-22T15:47:52.999Z</time></trkpt><trkpt lat="44.72295949559039" lon="9.439723011434712"><ele>1017.0</ele><time>2026-03-22T15:47:53.999Z</time></trkpt><trkpt lat="44.72295994710081" lon="9.439625828735998"><ele>1012.4000000000001</ele><time>2026-03-22T15:47:54.999Z</time></trkpt><trkpt lat="44.72294779144571" lon="9.439507031916706"><ele>1007.8000000000001</ele><time>2026-03-22T15:47:55.999Z</time></trkpt><trkpt lat="44.722948000859084" lon="9.439368117690842"><ele>1003.2</ele><time>2026-03-22T15:47:56.999Z</time></trkpt><trkpt lat="44.722954803818034" lon="9.43922958754985"><ele>998.6</ele><time>2026-03-22T15:47:57.999Z</time></trkpt><trkpt lat="44.72297511855583" lon="9.439087173953018"><ele>994.0</ele><time>2026-03-22T15:47:58.999Z</time></trkpt><trkpt lat="44.72298991493625" lon="9.438922404224886"><ele>993.25</ele><time>2026-03-22T15:47:59.999Z</time></trkpt><trkpt lat="44.72300148716007" lon="9.438744297872399"><ele>992.5</ele><time>2026-03-22T15:48:00.999Z</time></trkpt><trkpt lat="44.72303378424684" lon="9.438568265679606"><ele>991.75</ele><time>2026-03-22T15:48:01.999Z</time></trkpt><trkpt lat="44.72308269894592" lon="9.438407113301695"><ele>991.0</ele><time>2026-03-22T15:48:02.999Z</time></trkpt><trkpt lat="44.723130789309145" lon="9.438251511707447"><ele>991.0</ele><time>2026-03-22T15:48:03.999Z</time></trkpt><trkpt lat="44.723180117845736" lon="9.438102893089567"><ele>991.0</ele><time>2026-03-22T15:48:04.999Z</time></trkpt><trkpt lat="44.723241597888816" lon="9.437965205299122"><ele>991.0</ele><time>2026-03-22T15:48:05.999Z</time></trkpt><trkpt lat="44.7233224566507" lon="9.437849117928137"><ele>991.0</ele><time>2026-03-22T15:48:06.998Z</time></trkpt><trkpt lat="44.723421510870665" lon="9.437768348905399"><ele>991.8333333333333</ele><time>2026-03-22T15:48:07.998Z</time></trkpt><trkpt lat="44.72352003460039" lon="9.437724494993585"><ele>992.6666666666666</ele><time>2026-03-22T15:48:08.998Z</time></trkpt><trkpt lat="44.72360567290259" lon="9.437693130681497"><ele>993.5</ele><time>2026-03-22T15:48:09.998Z</time></trkpt><trkpt lat="44.72368121909985" lon="9.437652149618552"><ele>994.3333333333333</ele><time>2026-03-22T15:48:10.998Z</time></trkpt><trkpt lat="44.7237330431059" lon="9.4375781915741"><ele>995.1666666666666</ele><time>2026-03-22T15:48:11.998Z</time></trkpt><trkpt lat="44.72376493976907" lon="9.437458928116346"><ele>996.0</ele><time>2026-03-22T15:48:12.998Z</time></trkpt><trkpt lat="44.72376265070537" lon="9.43733796035115"><ele>991.3333333333334</ele><time>2026-03-22T15:48:13.998Z</time></trkpt><trkpt lat="44.723733746773085" lon="9.43721925726916"><ele>986.6666666666667</ele><time>2026-03-22T15:48:14.998Z</time></trkpt><trkpt lat="44.72370732617833" lon="9.437111480788328"><ele>982.0</ele><time>2026-03-22T15:48:15.998Z</time></trkpt><trkpt lat="44.72373445432713" lon="9.437024478525666"><ele>977.3333333333334</ele><time>2026-03-22T15:48:16.998Z</time></trkpt><trkpt lat="44.7238045597067" lon="9.436984879983033"><ele>972.6666666666667</ele><time>2026-03-22T15:48:17.998Z</time></trkpt><trkpt lat="44.723875846887026" lon="9.437023626886827"><ele>968.0</ele><time>2026-03-22T15:48:18.998Z</time></trkpt><trkpt lat="44.72394499384922" lon="9.437116340388288"><ele>967.8</ele><time>2026-03-22T15:48:19.998Z</time></trkpt><trkpt lat="44.7240263188832" lon="9.437202214422305"><ele>967.5999999999999</ele><time>2026-03-22T15:48:20.998Z</time></trkpt><trkpt lat="44.72409825052183" lon="9.437261888658181"><ele>967.4000000000001</ele><time>2026-03-22T15:48:21.998Z</time></trkpt><trkpt lat="44.72415735525147" lon="9.43731433881907"><ele>967.2</ele><time>2026-03-22T15:48:22.998Z</time></trkpt><trkpt lat="44.724194543476585" lon="9.437476723964402"><ele>967.0</ele><time>2026-03-22T15:48:24.998Z</time></trkpt><trkpt lat="44.72416718424043" lon="9.43762111405656"><ele>967.0</ele><time>2026-03-22T15:48:25.998Z</time></trkpt><trkpt lat="44.72413576348293" lon="9.437788307124428"><ele>967.0</ele><time>2026-03-22T15:48:26.998Z</time></trkpt><trkpt lat="44.72411082509141" lon="9.437975099330782"><ele>967.0</ele><time>2026-03-22T15:48:27.998Z</time></trkpt><trkpt lat="44.72408918192469" lon="9.438175173219346"><ele>967.0</ele><time>2026-03-22T15:48:28.998Z</time></trkpt><trkpt lat="44.72405822786842" lon="9.438383715092904"><ele>966.75</ele><time>2026-03-22T15:48:29.997Z</time></trkpt><trkpt lat="44.72402794867942" lon="9.438587072021779"><ele>966.5</ele><time>2026-03-22T15:48:30.997Z</time></trkpt><trkpt lat="44.72399977878134" lon="9.438772484577532"><ele>966.25</ele><time>2026-03-22T15:48:31.997Z</time></trkpt><trkpt lat="44.72397156231432" lon="9.438939474909496"><ele>966.0</ele><time>2026-03-22T15:48:32.997Z</time></trkpt><trkpt lat="44.72394627555181" lon="9.439093246967273"><ele>966.0</ele><time>2026-03-22T15:48:33.997Z</time></trkpt><trkpt lat="44.72392594979669" lon="9.439233157361626"><ele>966.0</ele><time>2026-03-22T15:48:34.997Z</time></trkpt><trkpt lat="44.72391685694002" lon="9.43935109816905"><ele>966.0</ele><time>2026-03-22T15:48:35.997Z</time></trkpt><trkpt lat="44.723937184413245" lon="9.439454564208601"><ele>966.0</ele><time>2026-03-22T15:48:36.997Z</time></trkpt><trkpt lat="44.72399653641248" lon="9.43953226582586"><ele>966.0</ele><time>2026-03-22T15:48:37.997Z</time></trkpt><trkpt lat="44.724094294043105" lon="9.439567454592297"><ele>966.0</ele><time>2026-03-22T15:48:38.997Z</time></trkpt><trkpt lat="44.72420547583037" lon="9.439544141497052"><ele>966.0</ele><time>2026-03-22T15:48:39.997Z</time></trkpt><trkpt lat="44.7243165590364" lon="9.439460250693175"><ele>966.0</ele><time>2026-03-22T15:48:41Z</time></trkpt><trkpt lat="44.72442016688866" lon="9.4393502729548"><ele>966.0</ele><time>2026-03-22T15:48:42Z</time></trkpt><trkpt lat="44.7245304512951" lon="9.439239912803064"><ele>966.0</ele><time>2026-03-22T15:48:43Z</time></trkpt><trkpt lat="44.72464672737943" lon="9.439172137863396"><ele>963.0</ele><time>2026-03-22T15:48:44Z</time></trkpt><trkpt lat="44.72476671758322" lon="9.439154197077244"><ele>960.0</ele><time>2026-03-22T15:48:45Z</time></trkpt><trkpt lat="44.72488755018429" lon="9.439172510833949"><ele>957.0</ele><time>2026-03-22T15:48:46Z</time></trkpt><trkpt lat="44.72501937995723" lon="9.43922346672246"><ele>954.0</ele><time>2026-03-22T15:48:47Z</time></trkpt><trkpt lat="44.725154474891035" lon="9.439288702489229"><ele>949.5</ele><time>2026-03-22T15:48:48Z</time></trkpt><trkpt lat="44.72529016333459" lon="9.439350163957295"><ele>945.0</ele><time>2026-03-22T15:48:49Z</time></trkpt><trkpt lat="44.72541635392925" lon="9.43940321090669"><ele>940.5</ele><time>2026-03-22T15:48:50Z</time></trkpt><trkpt lat="44.72553191724748" lon="9.439451888922688"><ele>936.0</ele><time>2026-03-22T15:48:51Z</time></trkpt><trkpt lat="44.72564292878448" lon="9.439503809678603"><ele>936.0</ele><time>2026-03-22T15:48:52Z</time></trkpt><trkpt lat="44.725750845685205" lon="9.439579187024387"><ele>936.0</ele><time>2026-03-22T15:48:53Z</time></trkpt><trkpt lat="44.72585798417093" lon="9.439695882928863"><ele>936.0</ele><time>2026-03-22T15:48:54Z</time></trkpt><trkpt lat="44.72594643374034" lon="9.439850665385757"><ele>936.0</ele><time>2026-03-22T15:48:55Z</time></trkpt><trkpt lat="44.72602944037564" lon="9.440025803514782"><ele>937.0</ele><time>2026-03-22T15:48:56Z</time></trkpt><trkpt lat="44.726112892660446" lon="9.440203441913225"><ele>938.0</ele><time>2026-03-22T15:48:57Z</time></trkpt><trkpt lat="44.726201676014966" lon="9.440378178818447"><ele>939.0</ele><time>2026-03-22T15:48:58Z</time></trkpt><trkpt lat="44.726287785948344" lon="9.440551426407728"><ele>939.0</ele><time>2026-03-22T15:48:59Z</time></trkpt><trkpt lat="44.72636984274424" lon="9.440706054567757"><ele>939.0</ele><time>2026-03-22T15:49:00Z</time></trkpt><trkpt lat="44.72645620433023" lon="9.440838332974248"><ele>939.0</ele><time>2026-03-22T15:49:01Z</time></trkpt><trkpt lat="44.726555731333306" lon="9.44093513348486"><ele>939.0</ele><time>2026-03-22T15:49:02Z</time></trkpt><trkpt lat="44.726660713544625" lon="9.441008518168331"><ele>939.0</ele><time>2026-03-22T15:49:03Z</time></trkpt><trkpt lat="44.7267597444217" lon="9.441070307015824"><ele>939.0</ele><time>2026-03-22T15:49:04Z</time></trkpt><trkpt lat="44.72686788054516" lon="9.44116362745131"><ele>939.0</ele><time>2026-03-22T15:49:05Z</time></trkpt><trkpt lat="44.72696354705071" lon="9.441278531578217"><ele>939.0</ele><time>2026-03-22T15:49:06Z</time></trkpt><trkpt lat="44.72704784148649" lon="9.441391533085433"><ele>935.4000000000001</ele><time>2026-03-22T15:49:07Z</time></trkpt><trkpt lat="44.72711471597883" lon="9.441507458480046"><ele>931.8000000000001</ele><time>2026-03-22T15:49:08Z</time></trkpt><trkpt lat="44.72715788805134" lon="9.441641301818054"><ele>928.1999999999999</ele><time>2026-03-22T15:49:08.999Z</time></trkpt><trkpt lat="44.7271715679626" lon="9.44179007706478"><ele>924.5999999999999</ele><time>2026-03-22T15:49:09.999Z</time></trkpt><trkpt lat="44.72715493066031" lon="9.441951054901612"><ele>921.0</ele><time>2026-03-22T15:49:10.999Z</time></trkpt><trkpt lat="44.72712233904847" lon="9.442100572121046"><ele>922.75</ele><time>2026-03-22T15:49:11.999Z</time></trkpt><trkpt lat="44.727107817290154" lon="9.442238536530054"><ele>924.5</ele><time>2026-03-22T15:49:12.999Z</time></trkpt><trkpt lat="44.72714635985239" lon="9.442406779278947"><ele>926.25</ele><time>2026-03-22T15:49:13.999Z</time></trkpt><trkpt lat="44.72723258700335" lon="9.442563040291837"><ele>928.0</ele><time>2026-03-22T15:49:14.999Z</time></trkpt><trkpt lat="44.72732879503469" lon="9.44266618438679"><ele>928.0</ele><time>2026-03-22T15:49:15.999Z</time></trkpt><trkpt lat="44.7274352334792" lon="9.442723238394382"><ele>928.0</ele><time>2026-03-22T15:49:16.999Z</time></trkpt><trkpt lat="44.727542316284676" lon="9.442723316009939"><ele>928.0</ele><time>2026-03-22T15:49:17.999Z</time></trkpt><trkpt lat="44.72763690132392" lon="9.442666373812118"><ele>928.0</ele><time>2026-03-22T15:49:18.999Z</time></trkpt><trkpt lat="44.72771044956305" lon="9.442571874578231"><ele>928.0</ele><time>2026-03-22T15:49:19.999Z</time></trkpt><trkpt lat="44.72777338499669" lon="9.442489699739006"><ele>927.2</ele><time>2026-03-22T15:49:20.999Z</time></trkpt><trkpt lat="44.72785688084173" lon="9.44243645349854"><ele>926.4</ele><time>2026-03-22T15:49:21.999Z</time></trkpt><trkpt lat="44.727967256893116" lon="9.442413157756384"><ele>925.6000000000001</ele><time>2026-03-22T15:49:22.999Z</time></trkpt><trkpt lat="44.728079766567284" lon="9.44240123348392"><ele>924.8000000000001</ele><time>2026-03-22T15:49:23.999Z</time></trkpt><trkpt lat="44.72818020772402" lon="9.4423697363838"><ele>924.0</ele><time>2026-03-22T15:49:24.999Z</time></trkpt><trkpt lat="44.72826336786557" lon="9.442304102313953"><ele>924.0</ele><time>2026-03-22T15:49:25.999Z</time></trkpt><trkpt lat="44.728318489205364" lon="9.442196381247783"><ele>924.0</ele><time>2026-03-22T15:49:26.999Z</time></trkpt><trkpt lat="44.72832487429372" lon="9.442038310090963"><ele>924.0</ele><time>2026-03-22T15:49:27.999Z</time></trkpt><trkpt lat="44.72828077065559" lon="9.441869326989906"><ele>924.0</ele><time>2026-03-22T15:49:28.999Z</time></trkpt><trkpt lat="44.728227715557324" lon="9.441720774327433"><ele>922.2</ele><time>2026-03-22T15:49:29.999Z</time></trkpt><trkpt lat="44.72821652374755" lon="9.44158506930235"><ele>920.4000000000001</ele><time>2026-03-22T15:49:30.999Z</time></trkpt><trkpt lat="44.7282434646762" lon="9.441443436165745"><ele>918.6</ele><time>2026-03-22T15:49:31.999Z</time></trkpt><trkpt lat="44.728294388480464" lon="9.441291273122424"><ele>916.8</ele><time>2026-03-22T15:49:32.999Z</time></trkpt><trkpt lat="44.72837796213408" lon="9.441156872336894"><ele>915.0</ele><time>2026-03-22T15:49:33.999Z</time></trkpt><trkpt lat="44.72848767342899" lon="9.441056722434203"><ele>911.5</ele><time>2026-03-22T15:49:34.999Z</time></trkpt><trkpt lat="44.72861131620218" lon="9.440996720126323"><ele>908.0</ele><time>2026-03-22T15:49:35.999Z</time></trkpt><trkpt lat="44.728742173764765" lon="9.44099689371988"><ele>904.5</ele><time>2026-03-22T15:49:36.999Z</time></trkpt><trkpt lat="44.72888983425312" lon="9.441054625404734"><ele>901.0</ele><time>2026-03-22T15:49:37.999Z</time></trkpt><trkpt lat="44.729032253856616" lon="9.441121002876244"><ele>901.0</ele><time>2026-03-22T15:49:38.999Z</time></trkpt><trkpt lat="44.729160129089216" lon="9.44116864075738"><ele>901.0</ele><time>2026-03-22T15:49:39.999Z</time></trkpt><trkpt lat="44.729275131149784" lon="9.441210390751765"><ele>901.0</ele><time>2026-03-22T15:49:40.999Z</time></trkpt><trkpt lat="44.72937975313355" lon="9.441259397532674"><ele>901.0</ele><time>2026-03-22T15:49:41.999Z</time></trkpt><trkpt lat="44.7294730644303" lon="9.441287868157692"><ele>903.25</ele><time>2026-03-22T15:49:42.999Z</time></trkpt><trkpt lat="44.7295635229369" lon="9.441246784999596"><ele>905.5</ele><time>2026-03-22T15:49:43.999Z</time></trkpt><trkpt lat="44.72964538423428" lon="9.441109606026915"><ele>907.75</ele><time>2026-03-22T15:49:44.999Z</time></trkpt><trkpt lat="44.72969701144137" lon="9.440927346537753"><ele>910.0</ele><time>2026-03-22T15:49:45.999Z</time></trkpt><trkpt lat="44.7297071954229" lon="9.440723123573544"><ele>910.0</ele><time>2026-03-22T15:49:46.999Z</time></trkpt><trkpt lat="44.72968015681713" lon="9.440526871117928"><ele>910.0</ele><time>2026-03-22T15:49:47.999Z</time></trkpt><trkpt lat="44.72964128849768" lon="9.44035691274672"><ele>910.0</ele><time>2026-03-22T15:49:48.999Z</time></trkpt><trkpt lat="44.729603650524304" lon="9.440200984465879"><ele>910.0</ele><time>2026-03-22T15:49:49.999Z</time></trkpt><trkpt lat="44.72957397448611" lon="9.440054173042665"><ele>910.0</ele><time>2026-03-22T15:49:50.999Z</time></trkpt><trkpt lat="44.72956786962022" lon="9.439886673541972"><ele>910.0</ele><time>2026-03-22T15:49:51.999Z</time></trkpt><trkpt lat="44.72961617395231" lon="9.439718528681116"><ele>910.0</ele><time>2026-03-22T15:49:52.999Z</time></trkpt><trkpt lat="44.72971047359693" lon="9.439596587242729"><ele>910.0</ele><time>2026-03-22T15:49:53.999Z</time></trkpt><trkpt lat="44.72981221128583" lon="9.43953407049384"><ele>908.2</ele><time>2026-03-22T15:49:54.998Z</time></trkpt><trkpt lat="44.72990094383218" lon="9.439502750883646"><ele>906.4</ele><time>2026-03-22T15:49:55.998Z</time></trkpt><trkpt lat="44.72997201179671" lon="9.439425971190996"><ele>904.5999999999999</ele><time>2026-03-22T15:49:56.998Z</time></trkpt><trkpt lat="44.730000336851084" lon="9.439279654053033"><ele>902.8</ele><time>2026-03-22T15:49:57.998Z</time></trkpt><trkpt lat="44.72997574130541" lon="9.439100058801563"><ele>901.0</ele><time>2026-03-22T15:49:58.998Z</time></trkpt><trkpt lat="44.72993482586055" lon="9.438910935184772"><ele>896.75</ele><time>2026-03-22T15:49:59.998Z</time></trkpt><trkpt lat="44.729923402649455" lon="9.438729729151744"><ele>892.5</ele><time>2026-03-22T15:50:00.998Z</time></trkpt><trkpt lat="44.729938329961946" lon="9.43856570070826"><ele>888.25</ele><time>2026-03-22T15:50:01.998Z</time></trkpt><trkpt lat="44.72997402165791" lon="9.438422682114886"><ele>884.0</ele><time>2026-03-22T15:50:02.998Z</time></trkpt><trkpt lat="44.73004043451703" lon="9.438283686926841"><ele>884.0</ele><time>2026-03-22T15:50:03.998Z</time></trkpt><trkpt lat="44.73013620585679" lon="9.438162033207234"><ele>884.0</ele><time>2026-03-22T15:50:04.998Z</time></trkpt><trkpt lat="44.730241348082785" lon="9.438078156163568"><ele>884.0</ele><time>2026-03-22T15:50:05.998Z</time></trkpt><trkpt lat="44.730342508428166" lon="9.438057285361667"><ele>884.0</ele><time>2026-03-22T15:50:06.998Z</time></trkpt><trkpt lat="44.73045089784025" lon="9.438075562541991"><ele>885.4000000000001</ele><time>2026-03-22T15:50:07.998Z</time></trkpt><trkpt lat="44.73055168335453" lon="9.438102597737592"><ele>886.8000000000001</ele><time>2026-03-22T15:50:08.998Z</time></trkpt><trkpt lat="44.73063999255019" lon="9.438091599965809"><ele>888.1999999999999</ele><time>2026-03-22T15:50:09.998Z</time></trkpt><trkpt lat="44.730705034047375" lon="9.438005341219247"><ele>889.5999999999999</ele><time>2026-03-22T15:50:10.998Z</time></trkpt><trkpt lat="44.7307241419409" lon="9.437850348944014"><ele>891.0</ele><time>2026-03-22T15:50:11.998Z</time></trkpt><trkpt lat="44.730705168846704" lon="9.437665297650826"><ele>891.0</ele><time>2026-03-22T15:50:12.998Z</time></trkpt><trkpt lat="44.730714361911495" lon="9.43748667476877"><ele>891.0</ele><time>2026-03-22T15:50:13.998Z</time></trkpt><trkpt lat="44.73076065931975" lon="9.437329332809616"><ele>891.0</ele><time>2026-03-22T15:50:14.998Z</time></trkpt><trkpt lat="44.73082474620973" lon="9.437184727542737"><ele>891.0</ele><time>2026-03-22T15:50:15.998Z</time></trkpt><trkpt lat="44.7309080475019" lon="9.437060800792642"><ele>891.0</ele><time>2026-03-22T15:50:16.998Z</time></trkpt><trkpt lat="44.731005266315144" lon="9.43697787213493"><ele>891.0</ele><time>2026-03-22T15:50:17.998Z</time></trkpt><trkpt lat="44.73109945381796" lon="9.436900992539837"><ele>891.0</ele><time>2026-03-22T15:50:18.998Z</time></trkpt><trkpt lat="44.7311640119382" lon="9.436764974890327"><ele>891.0</ele><time>2026-03-22T15:50:19.998Z</time></trkpt><trkpt lat="44.731197023385064" lon="9.436570834718763"><ele>891.0</ele><time>2026-03-22T15:50:20.998Z</time></trkpt><trkpt lat="44.73122114778616" lon="9.436392842235932"><ele>890.9999999999999</ele><time>2026-03-22T15:50:21.998Z</time></trkpt><trkpt lat="44.73125660974578" lon="9.43624004974005"><ele>890.9999999999999</ele><time>2026-03-22T15:50:22.998Z</time></trkpt><trkpt lat="44.73131158188943" lon="9.436143872802045"><ele>891.0</ele><time>2026-03-22T15:50:23.998Z</time></trkpt><trkpt lat="44.73138792401738" lon="9.436106961548347"><ele>891.0</ele><time>2026-03-22T15:50:24.998Z</time></trkpt><trkpt lat="44.73147972055966" lon="9.436127353429653"><ele>891.0</ele><time>2026-03-22T15:50:25.998Z</time></trkpt><trkpt lat="44.731576204365915" lon="9.436216855438836"><ele>891.0</ele><time>2026-03-22T15:50:26.998Z</time></trkpt><trkpt lat="44.731660683059914" lon="9.43631474604782"><ele>891.0</ele><time>2026-03-22T15:50:27.998Z</time></trkpt><trkpt lat="44.73175634503965" lon="9.43635113661726"><ele>891.0</ele><time>2026-03-22T15:50:28.998Z</time></trkpt><trkpt lat="44.73188193060781" lon="9.436306882822151"><ele>885.75</ele><time>2026-03-22T15:50:29.998Z</time></trkpt><trkpt lat="44.73201239596021" lon="9.436220346331169"><ele>880.5</ele><time>2026-03-22T15:50:30.998Z</time></trkpt><trkpt lat="44.732117222039875" lon="9.436148479417483"><ele>875.25</ele><time>2026-03-22T15:50:31.998Z</time></trkpt><trkpt lat="44.732205120043396" lon="9.436080829899193"><ele>870.0</ele><time>2026-03-22T15:50:32.998Z</time></trkpt><trkpt lat="44.73225842502645" lon="9.435941499360757"><ele>870.0</ele><time>2026-03-22T15:50:33.998Z</time></trkpt><trkpt lat="44.73227092862459" lon="9.4357636823841"><ele>870.0</ele><time>2026-03-22T15:50:34.998Z</time></trkpt><trkpt lat="44.73228828561056" lon="9.43562544396978"><ele>870.0</ele><time>2026-03-22T15:50:35.998Z</time></trkpt><trkpt lat="44.73234767210232" lon="9.435563264549947"><ele>870.0</ele><time>2026-03-22T15:50:36.998Z</time></trkpt><trkpt lat="44.7324381333547" lon="9.435546731418551"><ele>870.0</ele><time>2026-03-22T15:50:37.998Z</time></trkpt><trkpt lat="44.73255367356996" lon="9.435574921671073"><ele>870.0</ele><time>2026-03-22T15:50:38.998Z</time></trkpt><trkpt lat="44.732665202672734" lon="9.435628757339583"><ele>870.0</ele><time>2026-03-22T15:50:39.998Z</time></trkpt><trkpt lat="44.73276889749827" lon="9.435609017249819"><ele>870.0</ele><time>2026-03-22T15:50:40.998Z</time></trkpt><trkpt lat="44.73287876559879" lon="9.435506356377699"><ele>870.0</ele><time>2026-03-22T15:50:41.998Z</time></trkpt><trkpt lat="44.732958337271185" lon="9.435364520413506"><ele>867.0</ele><time>2026-03-22T15:50:42.998Z</time></trkpt><trkpt lat="44.7330310856746" lon="9.435269172559558"><ele>864.0</ele><time>2026-03-22T15:50:43.998Z</time></trkpt><trkpt lat="44.73311078468504" lon="9.435264319038204"><ele>861.0</ele><time>2026-03-22T15:50:44.998Z</time></trkpt><trkpt lat="44.73319068804017" lon="9.435338744297523"><ele>858.0</ele><time>2026-03-22T15:50:45.998Z</time></trkpt><trkpt lat="44.73327843967009" lon="9.435479741166093"><ele>855.0</ele><time>2026-03-22T15:50:47Z</time></trkpt><trkpt lat="44.733374266702945" lon="9.435637170970747"><ele>855.0</ele><time>2026-03-22T15:50:48Z</time></trkpt><trkpt lat="44.7334589801859" lon="9.435795796784584"><ele>855.0</ele><time>2026-03-22T15:50:49Z</time></trkpt><trkpt lat="44.73349938768684" lon="9.435979338276496"><ele>855.0</ele><time>2026-03-22T15:50:50Z</time></trkpt><trkpt lat="44.73350789053014" lon="9.436177720657794"><ele>855.0</ele><time>2026-03-22T15:50:51Z</time></trkpt><trkpt lat="44.733514680030765" lon="9.436354975905708"><ele>856.4</ele><time>2026-03-22T15:50:52Z</time></trkpt><trkpt lat="44.73352800104368" lon="9.436514980978544"><ele>857.8</ele><time>2026-03-22T15:50:53Z</time></trkpt><trkpt lat="44.733539557593545" lon="9.436667755453758"><ele>859.2</ele><time>2026-03-22T15:50:54Z</time></trkpt><trkpt lat="44.733545256686284" lon="9.436818390578667"><ele>860.6</ele><time>2026-03-22T15:50:55Z</time></trkpt><trkpt lat="44.733529050417786" lon="9.436967548739188"><ele>862.0</ele><time>2026-03-22T15:50:56Z</time></trkpt><trkpt lat="44.73350350231167" lon="9.437100940932087"><ele>863.6</ele><time>2026-03-22T15:50:57Z</time></trkpt><trkpt lat="44.73350109859528" lon="9.437221150109439"><ele>865.2</ele><time>2026-03-22T15:50:58Z</time></trkpt><trkpt lat="44.733552860333866" lon="9.437311757560284"><ele>866.8</ele><time>2026-03-22T15:50:59Z</time></trkpt><trkpt lat="44.733661318591224" lon="9.43736964138531"><ele>868.4</ele><time>2026-03-22T15:51:00Z</time></trkpt><trkpt lat="44.73379248292671" lon="9.437386192410246"><ele>870.0</ele><time>2026-03-22T15:51:01Z</time></trkpt><trkpt lat="44.73390619407547" lon="9.4374421109882"><ele>866.6</ele><time>2026-03-22T15:51:02Z</time></trkpt><trkpt lat="44.73398717297264" lon="9.437537994586247"><ele>863.2</ele><time>2026-03-22T15:51:03Z</time></trkpt><trkpt lat="44.73405239435025" lon="9.437592999550855"><ele>859.8</ele><time>2026-03-22T15:51:04Z</time></trkpt><trkpt lat="44.73413728794084" lon="9.4375553230417"><ele>856.4</ele><time>2026-03-22T15:51:05Z</time></trkpt><trkpt lat="44.73422723155947" lon="9.437428573841798"><ele>853.0</ele><time>2026-03-22T15:51:06Z</time></trkpt><trkpt lat="44.73430181710775" lon="9.437280434122941"><ele>853.75</ele><time>2026-03-22T15:51:07Z</time></trkpt><trkpt lat="44.73440808984808" lon="9.437193114412851"><ele>854.5</ele><time>2026-03-22T15:51:08Z</time></trkpt><trkpt lat="44.73455736986218" lon="9.437164538927169"><ele>855.25</ele><time>2026-03-22T15:51:09Z</time></trkpt><trkpt lat="44.734715098385045" lon="9.437156242305635"><ele>856.0</ele><time>2026-03-22T15:51:10Z</time></trkpt><trkpt lat="44.734874014090806" lon="9.437133757485899"><ele>847.0</ele><time>2026-03-22T15:51:11Z</time></trkpt><trkpt lat="44.735024183667186" lon="9.437106467335283"><ele>838.0</ele><time>2026-03-22T15:51:12Z</time></trkpt><trkpt lat="44.73516235768039" lon="9.437092224153261"><ele>829.0</ele><time>2026-03-22T15:51:13Z</time></trkpt><trkpt lat="44.73529765271806" lon="9.437098909028855"><ele>820.0</ele><time>2026-03-22T15:51:14Z</time></trkpt><trkpt lat="44.73543679371573" lon="9.437125279286096"><ele>822.75</ele><time>2026-03-22T15:51:15Z</time></trkpt><trkpt lat="44.735575156858516" lon="9.437181602481239"><ele>825.5</ele><time>2026-03-22T15:51:16Z</time></trkpt><trkpt lat="44.73570421797724" lon="9.437243898005576"><ele>828.25</ele><time>2026-03-22T15:51:17Z</time></trkpt><trkpt lat="44.73582705952783" lon="9.43730398448746"><ele>831.0</ele><time>2026-03-22T15:51:18Z</time></trkpt><trkpt lat="44.73594976753724" lon="9.437355549808816"><ele>823.25</ele><time>2026-03-22T15:51:19Z</time></trkpt><trkpt lat="44.736073030833715" lon="9.437404310961595"><ele>815.5</ele><time>2026-03-22T15:51:20Z</time></trkpt><trkpt lat="44.736194722007404" lon="9.437437204199911"><ele>807.75</ele><time>2026-03-22T15:51:21Z</time></trkpt><trkpt lat="44.736301678586365" lon="9.437469921774252"><ele>800.0</ele><time>2026-03-22T15:51:22Z</time></trkpt><trkpt lat="44.736377580037534" lon="9.437557293048965"><ele>800.0</ele><time>2026-03-22T15:51:23Z</time></trkpt><trkpt lat="44.73641624623125" lon="9.437690023479583"><ele>800.0</ele><time>2026-03-22T15:51:24Z</time></trkpt><trkpt lat="44.73641246807108" lon="9.437835203564097"><ele>800.0</ele><time>2026-03-22T15:51:25Z</time></trkpt><trkpt lat="44.73635437087121" lon="9.437974219167936"><ele>800.0</ele><time>2026-03-22T15:51:26Z</time></trkpt><trkpt lat="44.736261612069086" lon="9.438050508578103"><ele>800.0</ele><time>2026-03-22T15:51:27Z</time></trkpt><trkpt lat="44.736151572763895" lon="9.438049582812885"><ele>806.0</ele><time>2026-03-22T15:51:28Z</time></trkpt><trkpt lat="44.73604580900605" lon="9.438026783604057"><ele>812.0</ele><time>2026-03-22T15:51:29Z</time></trkpt><trkpt lat="44.735944125405375" lon="9.438031890063048"><ele>818.0</ele><time>2026-03-22T15:51:30Z</time></trkpt><trkpt lat="44.73583445480229" lon="9.438094343739182"><ele>824.0</ele><time>2026-03-22T15:51:31Z</time></trkpt><trkpt lat="44.735728694467916" lon="9.43820533074587"><ele>824.0</ele><time>2026-03-22T15:51:32Z</time></trkpt><trkpt lat="44.7356267528515" lon="9.43836007818401"><ele>824.0</ele><time>2026-03-22T15:51:33Z</time></trkpt><trkpt lat="44.73553731324757" lon="9.438525806173457"><ele>824.0</ele><time>2026-03-22T15:51:34Z</time></trkpt><trkpt lat="44.735463708805675" lon="9.438669281283499"><ele>824.0</ele><time>2026-03-22T15:51:35Z</time></trkpt><trkpt lat="44.73539616194305" lon="9.438802315677092"><ele>823.0</ele><time>2026-03-22T15:51:36Z</time></trkpt><trkpt lat="44.73533799550355" lon="9.438917788842268"><ele>822.0</ele><time>2026-03-22T15:51:37Z</time></trkpt><trkpt lat="44.73531262822126" lon="9.439032492146534"><ele>821.0</ele><time>2026-03-22T15:51:38Z</time></trkpt><trkpt lat="44.73533777267991" lon="9.439147015257968"><ele>820.0</ele><time>2026-03-22T15:51:38.999Z</time></trkpt><trkpt lat="44.735412861606996" lon="9.43924024743048"><ele>819.0</ele><time>2026-03-22T15:51:39.999Z</time></trkpt><trkpt lat="44.73553448778915" lon="9.439332960784048"><ele>819.0</ele><time>2026-03-22T15:51:40.999Z</time></trkpt><trkpt lat="44.73565941750375" lon="9.439411387813163"><ele>819.0</ele><time>2026-03-22T15:51:41.999Z</time></trkpt><trkpt lat="44.73576817941475" lon="9.439476758504354"><ele>819.0</ele><time>2026-03-22T15:51:42.999Z</time></trkpt><trkpt lat="44.73588712696951" lon="9.439487221999475"><ele>819.0</ele><time>2026-03-22T15:51:43.999Z</time></trkpt><trkpt lat="44.73602247470747" lon="9.439428389588272"><ele>817.5</ele><time>2026-03-22T15:51:44.999Z</time></trkpt><trkpt lat="44.736144783446505" lon="9.439336660102342"><ele>816.0</ele><time>2026-03-22T15:51:45.999Z</time></trkpt><trkpt lat="44.73626257835531" lon="9.439270453046548"><ele>814.5</ele><time>2026-03-22T15:51:46.999Z</time></trkpt><trkpt lat="44.7363947829676" lon="9.439276114111989"><ele>813.0</ele><time>2026-03-22T15:51:47.999Z</time></trkpt><trkpt lat="44.73652150994994" lon="9.439336292708834"><ele>813.0</ele><time>2026-03-22T15:51:48.999Z</time></trkpt><trkpt lat="44.73663107995433" lon="9.439371448525458"><ele>813.0</ele><time>2026-03-22T15:51:49.999Z</time></trkpt><trkpt lat="44.7367377536174" lon="9.439362375772694"><ele>813.0</ele><time>2026-03-22T15:51:50.999Z</time></trkpt><trkpt lat="44.736836476133895" lon="9.439285209699548"><ele>813.0</ele><time>2026-03-22T15:51:51.999Z</time></trkpt><trkpt lat="44.73691163784242" lon="9.439141676822915"><ele>812.0</ele><time>2026-03-22T15:51:52.999Z</time></trkpt><trkpt lat="44.73694585856171" lon="9.438964924931849"><ele>811.0</ele><time>2026-03-22T15:51:53.999Z</time></trkpt><trkpt lat="44.73699533066183" lon="9.43881359340659"><ele>810.0</ele><time>2026-03-22T15:51:54.999Z</time></trkpt><trkpt lat="44.73710057100836" lon="9.438726233551883"><ele>809.0</ele><time>2026-03-22T15:51:55.999Z</time></trkpt><trkpt lat="44.73723532034249" lon="9.438709885776465"><ele>806.5</ele><time>2026-03-22T15:51:56.999Z</time></trkpt><trkpt lat="44.73738179888948" lon="9.438733511923932"><ele>804.0</ele><time>2026-03-22T15:51:57.999Z</time></trkpt><trkpt lat="44.73752872058119" lon="9.438739138441862"><ele>801.5</ele><time>2026-03-22T15:51:58.999Z</time></trkpt><trkpt lat="44.73767235107697" lon="9.438721979040196"><ele>799.0</ele><time>2026-03-22T15:51:59.999Z</time></trkpt><trkpt lat="44.73780797971401" lon="9.438700450609169"><ele>799.0</ele><time>2026-03-22T15:52:00.999Z</time></trkpt><trkpt lat="44.737930487881066" lon="9.438654069311333"><ele>799.0</ele><time>2026-03-22T15:52:01.999Z</time></trkpt><trkpt lat="44.738041396986645" lon="9.438589241541289"><ele>799.0</ele><time>2026-03-22T15:52:02.999Z</time></trkpt><trkpt lat="44.738141404798974" lon="9.438502371981032"><ele>799.0</ele><time>2026-03-22T15:52:03.999Z</time></trkpt><trkpt lat="44.73823136739009" lon="9.438381728008604"><ele>799.0</ele><time>2026-03-22T15:52:04.999Z</time></trkpt><trkpt lat="44.73831334173999" lon="9.43821156367"><ele>799.0</ele><time>2026-03-22T15:52:05.999Z</time></trkpt><trkpt lat="44.73838296173524" lon="9.438028132888249"><ele>799.0</ele><time>2026-03-22T15:52:06.999Z</time></trkpt><trkpt lat="44.7384640176177" lon="9.437875870555205"><ele>799.0</ele><time>2026-03-22T15:52:07.999Z</time></trkpt><trkpt lat="44.738579895966225" lon="9.437760686591552"><ele>798.0</ele><time>2026-03-22T15:52:08.999Z</time></trkpt><trkpt lat="44.73870305055821" lon="9.437677326850885"><ele>797.0</ele><time>2026-03-22T15:52:09.999Z</time></trkpt><trkpt lat="44.73880652031156" lon="9.4375976428519"><ele>796.0</ele><time>2026-03-22T15:52:10.999Z</time></trkpt><trkpt lat="44.738876725409916" lon="9.437491890509742"><ele>795.0</ele><time>2026-03-22T15:52:11.999Z</time></trkpt><trkpt lat="44.73891469878112" lon="9.437351679310126"><ele>795.0</ele><time>2026-03-22T15:52:12.999Z</time></trkpt><trkpt lat="44.738933692431345" lon="9.437191059855571"><ele>795.0</ele><time>2026-03-22T15:52:13.999Z</time></trkpt><trkpt lat="44.73896165576877" lon="9.436995665849032"><ele>795.0</ele><time>2026-03-22T15:52:14.999Z</time></trkpt><trkpt lat="44.73900657295222" lon="9.436782436369496"><ele>795.0</ele><time>2026-03-22T15:52:15.999Z</time></trkpt><trkpt lat="44.73906345939602" lon="9.43657727221524"><ele>792.5</ele><time>2026-03-22T15:52:16.999Z</time></trkpt><trkpt lat="44.73911971160265" lon="9.436373230425811"><ele>790.0</ele><time>2026-03-22T15:52:17.999Z</time></trkpt><trkpt lat="44.73916367998733" lon="9.436171644065988"><ele>787.5</ele><time>2026-03-22T15:52:18.999Z</time></trkpt><trkpt lat="44.73919261131965" lon="9.435979481890673"><ele>785.0</ele><time>2026-03-22T15:52:19.999Z</time></trkpt><trkpt lat="44.73921952799678" lon="9.435796539079913"><ele>783.6</ele><time>2026-03-22T15:52:20.999Z</time></trkpt><trkpt lat="44.73925357787105" lon="9.435628735005738"><ele>782.2</ele><time>2026-03-22T15:52:21.999Z</time></trkpt><trkpt lat="44.739299170084315" lon="9.435468874107666"><ele>780.8</ele><time>2026-03-22T15:52:22.999Z</time></trkpt><trkpt lat="44.73935392701068" lon="9.435335680918818"><ele>779.4</ele><time>2026-03-22T15:52:23.999Z</time></trkpt><trkpt lat="44.73941945999509" lon="9.435245462919141"><ele>778.0</ele><time>2026-03-22T15:52:24.999Z</time></trkpt><trkpt lat="44.73949710652142" lon="9.435213802552656"><ele>776.4</ele><time>2026-03-22T15:52:25.999Z</time></trkpt><trkpt lat="44.73958404990141" lon="9.43525702584695"><ele>774.8</ele><time>2026-03-22T15:52:26.999Z</time></trkpt><trkpt lat="44.73968127187938" lon="9.435325533563502"><ele>773.2</ele><time>2026-03-22T15:52:27.999Z</time></trkpt><trkpt lat="44.73977012425618" lon="9.43537970538235"><ele>771.6</ele><time>2026-03-22T15:52:28.998Z</time></trkpt><trkpt lat="44.739853967413985" lon="9.435394736158052"><ele>770.0</ele><time>2026-03-22T15:52:29.998Z</time></trkpt><trkpt lat="44.73994535898764" lon="9.435371811295989"><ele>770.0</ele><time>2026-03-22T15:52:30.998Z</time></trkpt><trkpt lat="44.74001204607626" lon="9.435289075503617"><ele>770.0</ele><time>2026-03-22T15:52:31.998Z</time></trkpt><trkpt lat="44.74003060211203" lon="9.435160583026239"><ele>770.0</ele><time>2026-03-22T15:52:32.998Z</time></trkpt><trkpt lat="44.74000668083863" lon="9.43500075464971"><ele>770.0</ele><time>2026-03-22T15:52:33.998Z</time></trkpt><trkpt lat="44.7399649230152" lon="9.43485869416132"><ele>770.0</ele><time>2026-03-22T15:52:34.998Z</time></trkpt><trkpt lat="44.73994019089341" lon="9.43474572862577"><ele>770.2</ele><time>2026-03-22T15:52:35.998Z</time></trkpt><trkpt lat="44.73993671521364" lon="9.434637166699803"><ele>770.4</ele><time>2026-03-22T15:52:36.998Z</time></trkpt><trkpt lat="44.73996810289872" lon="9.43450891162575"><ele>770.5999999999999</ele><time>2026-03-22T15:52:37.998Z</time></trkpt><trkpt lat="44.74005083643805" lon="9.43438093304006"><ele>770.8</ele><time>2026-03-22T15:52:38.998Z</time></trkpt><trkpt lat="44.7401676450059" lon="9.434288940501052"><ele>771.0</ele><time>2026-03-22T15:52:39.998Z</time></trkpt><trkpt lat="44.74028153320809" lon="9.434199447292935"><ele>771.0</ele><time>2026-03-22T15:52:40.998Z</time></trkpt><trkpt lat="44.74038985583409" lon="9.43408819195496"><ele>771.0</ele><time>2026-03-22T15:52:41.998Z</time></trkpt><trkpt lat="44.740502874502326" lon="9.43397489510596"><ele>771.0</ele><time>2026-03-22T15:52:42.998Z</time></trkpt><trkpt lat="44.74062028137994" lon="9.433874177945409"><ele>771.0</ele><time>2026-03-22T15:52:43.998Z</time></trkpt><trkpt lat="44.740737705255455" lon="9.433775190046177"><ele>767.5</ele><time>2026-03-22T15:52:44.998Z</time></trkpt><trkpt lat="44.74084357184467" lon="9.433666622693378"><ele>764.0</ele><time>2026-03-22T15:52:45.998Z</time></trkpt><trkpt lat="44.74092632586316" lon="9.433532552449188"><ele>760.5</ele><time>2026-03-22T15:52:46.998Z</time></trkpt><trkpt lat="44.740982664131906" lon="9.43338872408208"><ele>757.0</ele><time>2026-03-22T15:52:47.998Z</time></trkpt><trkpt lat="44.74099522363201" lon="9.433237710099947"><ele>757.0</ele><time>2026-03-22T15:52:48.998Z</time></trkpt><trkpt lat="44.7409559278174" lon="9.43305868007771"><ele>757.0</ele><time>2026-03-22T15:52:49.998Z</time></trkpt><trkpt lat="44.74088205399631" lon="9.43290952739429"><ele>757.0</ele><time>2026-03-22T15:52:50.998Z</time></trkpt><trkpt lat="44.74083103566754" lon="9.43283998321751"><ele>757.0</ele><time>2026-03-22T15:52:51.998Z</time></trkpt><trkpt lat="44.74081985599613" lon="9.43267476116644"><ele>755.0</ele><time>2026-03-22T15:52:53.001Z</time></trkpt><trkpt lat="44.740834596333876" lon="9.432453415176587"><ele>753.0</ele><time>2026-03-22T15:52:54.001Z</time></trkpt><trkpt lat="44.74086831896805" lon="9.432236403388147"><ele>751.0</ele><time>2026-03-22T15:52:55.001Z</time></trkpt><trkpt lat="44.740905607998116" lon="9.432036337209679"><ele>748.25</ele><time>2026-03-22T15:52:56.001Z</time></trkpt><trkpt lat="44.740917519525325" lon="9.431858101390507"><ele>745.5</ele><time>2026-03-22T15:52:57.001Z</time></trkpt><trkpt lat="44.740907944005265" lon="9.431689441632452"><ele>742.75</ele><time>2026-03-22T15:52:58.001Z</time></trkpt><trkpt lat="44.74090657230566" lon="9.4315356900911"><ele>740.0</ele><time>2026-03-22T15:52:59.001Z</time></trkpt><trkpt lat="44.740949396900724" lon="9.431399141567736"><ele>738.2</ele><time>2026-03-22T15:53:00.001Z</time></trkpt><trkpt lat="44.74104065553254" lon="9.43128631459871"><ele>736.4</ele><time>2026-03-22T15:53:01.001Z</time></trkpt><trkpt lat="44.74115742007794" lon="9.431241936698084"><ele>734.5999999999999</ele><time>2026-03-22T15:53:02.001Z</time></trkpt><trkpt lat="44.741262768512094" lon="9.43126242970895"><ele>732.8</ele><time>2026-03-22T15:53:03.001Z</time></trkpt><trkpt lat="44.74133775545897" lon="9.431245739184554"><ele>731.0</ele><time>2026-03-22T15:53:04.001Z</time></trkpt><trkpt lat="44.741397464900025" lon="9.431143194491494"><ele>736.25</ele><time>2026-03-22T15:53:05.001Z</time></trkpt><trkpt lat="44.74140344620142" lon="9.430979279954164"><ele>741.5</ele><time>2026-03-22T15:53:06.001Z</time></trkpt><trkpt lat="44.74137101694132" lon="9.430786302984066"><ele>746.75</ele><time>2026-03-22T15:53:07.001Z</time></trkpt><trkpt lat="44.74134356145543" lon="9.430570320540326"><ele>752.0</ele><time>2026-03-22T15:53:08.001Z</time></trkpt><trkpt lat="44.741350317888624" lon="9.430357528096271"><ele>752.0</ele><time>2026-03-22T15:53:09.001Z</time></trkpt><trkpt lat="44.741364579296594" lon="9.430167265905917"><ele>752.0</ele><time>2026-03-22T15:53:10.001Z</time></trkpt><trkpt lat="44.741370949502006" lon="9.429998017016409"><ele>752.0</ele><time>2026-03-22T15:53:11.001Z</time></trkpt><trkpt lat="44.74135629711529" lon="9.429847188083306"><ele>752.0</ele><time>2026-03-22T15:53:12.001Z</time></trkpt><trkpt lat="44.74130231889208" lon="9.429703920583865"><ele>752.5</ele><time>2026-03-22T15:53:13.001Z</time></trkpt><trkpt lat="44.74118865978961" lon="9.429587048330315"><ele>753.0</ele><time>2026-03-22T15:53:14.001Z</time></trkpt><trkpt lat="44.74105141885715" lon="9.429509921095795"><ele>753.5</ele><time>2026-03-22T15:53:15Z</time></trkpt><trkpt lat="44.74094515673001" lon="9.429421684292977"><ele>754.0</ele><time>2026-03-22T15:53:16Z</time></trkpt><trkpt lat="44.740869424475626" lon="9.429276728274287"><ele>749.5</ele><time>2026-03-22T15:53:17Z</time></trkpt><trkpt lat="44.74083225646678" lon="9.429106209000452"><ele>745.0</ele><time>2026-03-22T15:53:18Z</time></trkpt><trkpt lat="44.74083653209725" lon="9.428911203119828"><ele>740.5</ele><time>2026-03-22T15:53:19Z</time></trkpt><trkpt lat="44.74086998160889" lon="9.428706278030733"><ele>736.0</ele><time>2026-03-22T15:53:20Z</time></trkpt><trkpt lat="44.740908092178444" lon="9.428514274973924"><ele>736.0</ele><time>2026-03-22T15:53:21Z</time></trkpt><trkpt lat="44.7409419050579" lon="9.428343945081624"><ele>736.0</ele><time>2026-03-22T15:53:22Z</time></trkpt><trkpt lat="44.74094630318062" lon="9.428141747408642"><ele>736.0</ele><time>2026-03-22T15:53:23Z</time></trkpt><trkpt lat="44.74088532372956" lon="9.427920758534833"><ele>736.0</ele><time>2026-03-22T15:53:24Z</time></trkpt><trkpt lat="44.74080058331356" lon="9.427753106180893"><ele>735.25</ele><time>2026-03-22T15:53:25Z</time></trkpt><trkpt lat="44.740772765088614" lon="9.427593273428691"><ele>734.5</ele><time>2026-03-22T15:53:26Z</time></trkpt><trkpt lat="44.740817164303515" lon="9.427410136957361"><ele>733.75</ele><time>2026-03-22T15:53:27Z</time></trkpt><trkpt lat="44.740867680500926" lon="9.42726081541506"><ele>733.0</ele><time>2026-03-22T15:53:28Z</time></trkpt><trkpt lat="44.74088081473177" lon="9.427087726311726"><ele>731.25</ele><time>2026-03-22T15:53:29Z</time></trkpt><trkpt lat="44.74084455195675" lon="9.426874647039984"><ele>729.5</ele><time>2026-03-22T15:53:30Z</time></trkpt><trkpt lat="44.740790729683084" lon="9.426670427895289"><ele>727.75</ele><time>2026-03-22T15:53:31Z</time></trkpt><trkpt lat="44.74073948460812" lon="9.42649172513494"><ele>726.0</ele><time>2026-03-22T15:53:32Z</time></trkpt><trkpt lat="44.74069841726033" lon="9.426319105300179"><ele>725.0</ele><time>2026-03-22T15:53:33Z</time></trkpt><trkpt lat="44.74068377698228" lon="9.42613821740966"><ele>724.0</ele><time>2026-03-22T15:53:34Z</time></trkpt><trkpt lat="44.74070319661618" lon="9.425966374326972"><ele>723.0</ele><time>2026-03-22T15:53:35Z</time></trkpt><trkpt lat="44.7406994589457" lon="9.42577587250196"><ele>722.0</ele><time>2026-03-22T15:53:36Z</time></trkpt><trkpt lat="44.74064851809668" lon="9.425565173248005"><ele>720.75</ele><time>2026-03-22T15:53:37Z</time></trkpt><trkpt lat="44.7405848921824" lon="9.425357290963202"><ele>719.5</ele><time>2026-03-22T15:53:38Z</time></trkpt><trkpt lat="44.740532338608794" lon="9.425172069623724"><ele>718.25</ele><time>2026-03-22T15:53:39Z</time></trkpt><trkpt lat="44.74048873405748" lon="9.425020815596085"><ele>717.0</ele><time>2026-03-22T15:53:40Z</time></trkpt><trkpt lat="44.74045083826568" lon="9.42490449614837"><ele>717.0</ele><time>2026-03-22T15:53:41Z</time></trkpt><trkpt lat="44.74045122459142" lon="9.42475215807662"><ele>717.0</ele><time>2026-03-22T15:53:43Z</time></trkpt><trkpt lat="44.74051734713768" lon="9.424714344808871"><ele>717.0</ele><time>2026-03-22T15:53:44Z</time></trkpt><trkpt lat="44.74058688340096" lon="9.424754807087748"><ele>717.0</ele><time>2026-03-22T15:53:45Z</time></trkpt><trkpt lat="44.74063813379207" lon="9.424864037403022"><ele>717.0</ele><time>2026-03-22T15:53:46Z</time></trkpt><trkpt lat="44.74068727970295" lon="9.425026087850622"><ele>717.0</ele><time>2026-03-22T15:53:47Z</time></trkpt><trkpt lat="44.740745852287176" lon="9.425185871908022"><ele>717.0</ele><time>2026-03-22T15:53:48Z</time></trkpt><trkpt lat="44.74081541316597" lon="9.425340733024473"><ele>717.0</ele><time>2026-03-22T15:53:49Z</time></trkpt><trkpt lat="44.74087283114073" lon="9.425475214072899"><ele>717.0</ele><time>2026-03-22T15:53:50Z</time></trkpt><trkpt lat="44.74093972334124" lon="9.425592426939401"><ele>714.75</ele><time>2026-03-22T15:53:51Z</time></trkpt><trkpt lat="44.74105484728214" lon="9.425690126682136"><ele>712.5</ele><time>2026-03-22T15:53:52Z</time></trkpt><trkpt lat="44.74120400488444" lon="9.425741824576486"><ele>710.25</ele><time>2026-03-22T15:53:53Z</time></trkpt><trkpt lat="44.74134659539311" lon="9.425733015447728"><ele>708.0</ele><time>2026-03-22T15:53:54Z</time></trkpt><trkpt lat="44.7414614691251" lon="9.425696955374711"><ele>708.0</ele><time>2026-03-22T15:53:55Z</time></trkpt><trkpt lat="44.74156642762974" lon="9.42571477468965"><ele>708.0</ele><time>2026-03-22T15:53:56Z</time></trkpt><trkpt lat="44.74165136441761" lon="9.425819855928324"><ele>708.0</ele><time>2026-03-22T15:53:57Z</time></trkpt><trkpt lat="44.74171707356163" lon="9.425989799671806"><ele>708.0</ele><time>2026-03-22T15:53:58Z</time></trkpt><trkpt lat="44.741791629106075" lon="9.426151648861815"><ele>709.25</ele><time>2026-03-22T15:53:58.999Z</time></trkpt><trkpt lat="44.741887455553986" lon="9.426289893708727"><ele>710.5</ele><time>2026-03-22T15:53:59.999Z</time></trkpt><trkpt lat="44.741996690196686" lon="9.426413428183512"><ele>711.75</ele><time>2026-03-22T15:54:00.999Z</time></trkpt><trkpt lat="44.74210152480621" lon="9.426528153543176"><ele>713.0</ele><time>2026-03-22T15:54:01.999Z</time></trkpt><trkpt lat="44.74219831651742" lon="9.42662101926408"><ele>713.0</ele><time>2026-03-22T15:54:02.999Z</time></trkpt><trkpt lat="44.7423178852235" lon="9.426673646572652"><ele>713.0</ele><time>2026-03-22T15:54:03.999Z</time></trkpt><trkpt lat="44.742471123502526" lon="9.426658541877504"><ele>713.0</ele><time>2026-03-22T15:54:04.999Z</time></trkpt><trkpt lat="44.74262786781773" lon="9.426600535610964"><ele>713.0</ele><time>2026-03-22T15:54:05.999Z</time></trkpt><trkpt lat="44.74277058416121" lon="9.42652199145055"><ele>712.5</ele><time>2026-03-22T15:54:06.999Z</time></trkpt><trkpt lat="44.74290132017557" lon="9.426431549562013"><ele>712.0</ele><time>2026-03-22T15:54:07.999Z</time></trkpt><trkpt lat="44.74301614391797" lon="9.426340754698515"><ele>711.5</ele><time>2026-03-22T15:54:08.999Z</time></trkpt><trkpt lat="44.74313125334036" lon="9.42624457965213"><ele>711.0</ele><time>2026-03-22T15:54:09.999Z</time></trkpt><trkpt lat="44.7432376333111" lon="9.426135741583506"><ele>711.0</ele><time>2026-03-22T15:54:10.999Z</time></trkpt><trkpt lat="44.74333105299102" lon="9.42601157467342"><ele>711.0</ele><time>2026-03-22T15:54:11.999Z</time></trkpt><trkpt lat="44.74340476944546" lon="9.42584598072557"><ele>711.0</ele><time>2026-03-22T15:54:12.999Z</time></trkpt><trkpt lat="44.74344663712869" lon="9.425650053711797"><ele>711.0</ele><time>2026-03-22T15:54:13.999Z</time></trkpt><trkpt lat="44.74347518478197" lon="9.425456917792962"><ele>710.5</ele><time>2026-03-22T15:54:14.999Z</time></trkpt><trkpt lat="44.74351166456629" lon="9.425288084981858"><ele>710.0</ele><time>2026-03-22T15:54:15.999Z</time></trkpt><trkpt lat="44.74357191810798" lon="9.425127826747408"><ele>709.5</ele><time>2026-03-22T15:54:16.999Z</time></trkpt><trkpt lat="44.74365490217876" lon="9.424999055548671"><ele>709.0</ele><time>2026-03-22T15:54:17.999Z</time></trkpt><trkpt lat="44.74376555313943" lon="9.42490211804483"><ele>709.0</ele><time>2026-03-22T15:54:18.999Z</time></trkpt><trkpt lat="44.74390323248672" lon="9.424863571139882"><ele>709.0</ele><time>2026-03-22T15:54:19.999Z</time></trkpt><trkpt lat="44.74403435647649" lon="9.424853262096738"><ele>709.0</ele><time>2026-03-22T15:54:20.999Z</time></trkpt><trkpt lat="44.744154765735544" lon="9.424794472644955"><ele>709.0</ele><time>2026-03-22T15:54:21.999Z</time></trkpt><trkpt lat="44.74426485691411" lon="9.424667781494371"><ele>706.75</ele><time>2026-03-22T15:54:22.999Z</time></trkpt><trkpt lat="44.74436696901232" lon="9.424529159984859"><ele>704.5</ele><time>2026-03-22T15:54:23.999Z</time></trkpt><trkpt lat="44.74445308845519" lon="9.42439661663304"><ele>702.25</ele><time>2026-03-22T15:54:24.999Z</time></trkpt><trkpt lat="44.744529790514434" lon="9.424265753175252"><ele>700.0</ele><time>2026-03-22T15:54:25.999Z</time></trkpt><trkpt lat="44.74461416544824" lon="9.424135446056717"><ele>700.0</ele><time>2026-03-22T15:54:26.999Z</time></trkpt><trkpt lat="44.74471249075428" lon="9.424006226800712"><ele>700.0</ele><time>2026-03-22T15:54:27.999Z</time></trkpt><trkpt lat="44.744819007066496" lon="9.423899536261377"><ele>700.0</ele><time>2026-03-22T15:54:28.999Z</time></trkpt><trkpt lat="44.744919542044904" lon="9.423803266760313"><ele>700.0</ele><time>2026-03-22T15:54:29.999Z</time></trkpt><trkpt lat="44.745012496444275" lon="9.42369467310376"><ele>698.25</ele><time>2026-03-22T15:54:30.999Z</time></trkpt><trkpt lat="44.74511936106028" lon="9.423578957472248"><ele>696.5</ele><time>2026-03-22T15:54:31.999Z</time></trkpt><trkpt lat="44.74524722979273" lon="9.423500863284051"><ele>694.75</ele><time>2026-03-22T15:54:32.999Z</time></trkpt><trkpt lat="44.7453852879054" lon="9.423452497647252"><ele>693.0</ele><time>2026-03-22T15:54:33.999Z</time></trkpt><trkpt lat="44.74549836113489" lon="9.423370518100734"><ele>693.0</ele><time>2026-03-22T15:54:34.999Z</time></trkpt><trkpt lat="44.745596111355795" lon="9.423271244058748"><ele>693.0</ele><time>2026-03-22T15:54:35.999Z</time></trkpt><trkpt lat="44.74570015442915" lon="9.423183081606204"><ele>693.0</ele><time>2026-03-22T15:54:36.999Z</time></trkpt><trkpt lat="44.745791728673616" lon="9.423089469026632"><ele>693.0</ele><time>2026-03-22T15:54:37.999Z</time></trkpt><trkpt lat="44.74589847049067" lon="9.423045581208397"><ele>693.0</ele><time>2026-03-22T15:54:38.999Z</time></trkpt><trkpt lat="44.7460240940243" lon="9.423048070727763"><ele>693.0</ele><time>2026-03-22T15:54:39.998Z</time></trkpt><trkpt lat="44.746151811569746" lon="9.423075016565955"><ele>693.0</ele><time>2026-03-22T15:54:40.998Z</time></trkpt><trkpt lat="44.74627492331284" lon="9.423093456118284"><ele>693.0</ele><time>2026-03-22T15:54:41.998Z</time></trkpt><trkpt lat="44.74638442237777" lon="9.423104052408728"><ele>694.25</ele><time>2026-03-22T15:54:42.998Z</time></trkpt><trkpt lat="44.74648899487349" lon="9.423110412378291"><ele>695.5</ele><time>2026-03-22T15:54:43.998Z</time></trkpt><trkpt lat="44.74658021913862" lon="9.423067453233998"><ele>696.75</ele><time>2026-03-22T15:54:44.998Z</time></trkpt><trkpt lat="44.74665257789629" lon="9.422916283125495"><ele>698.0</ele><time>2026-03-22T15:54:45.998Z</time></trkpt><trkpt lat="44.74672032222149" lon="9.422740439438249"><ele>698.0</ele><time>2026-03-22T15:54:46.998Z</time></trkpt><trkpt lat="44.746805001710946" lon="9.422596501507455"><ele>698.0</ele><time>2026-03-22T15:54:47.997Z</time></trkpt><trkpt lat="44.746885123690575" lon="9.422462628847509"><ele>698.0</ele><time>2026-03-22T15:54:48.997Z</time></trkpt><trkpt lat="44.74699357019669" lon="9.422355983176526"><ele>698.0</ele><time>2026-03-22T15:54:49.997Z</time></trkpt><trkpt lat="44.74710700994282" lon="9.422270555590494"><ele>698.0</ele><time>2026-03-22T15:54:50.997Z</time></trkpt><trkpt lat="44.74721426858113" lon="9.422204518808275"><ele>698.0</ele><time>2026-03-22T15:54:51.997Z</time></trkpt><trkpt lat="44.7473161686009" lon="9.42215507685843"><ele>698.0</ele><time>2026-03-22T15:54:52.997Z</time></trkpt><trkpt lat="44.747437453940904" lon="9.422124994757148"><ele>698.0</ele><time>2026-03-22T15:54:53.997Z</time></trkpt><trkpt lat="44.747559521276294" lon="9.422115191747462"><ele>695.75</ele><time>2026-03-22T15:54:54.997Z</time></trkpt><trkpt lat="44.74766476930773" lon="9.422042901749737"><ele>693.5</ele><time>2026-03-22T15:54:55.997Z</time></trkpt><trkpt lat="44.747744206676956" lon="9.421910371260132"><ele>691.25</ele><time>2026-03-22T15:54:56.997Z</time></trkpt><trkpt lat="44.74783848165745" lon="9.421760190407255"><ele>689.0</ele><time>2026-03-22T15:54:57.997Z</time></trkpt><trkpt lat="44.74791272895501" lon="9.421617756045068"><ele>689.0</ele><time>2026-03-22T15:54:59Z</time></trkpt><trkpt lat="44.74798278805979" lon="9.421459349540324"><ele>689.0</ele><time>2026-03-22T15:55:00Z</time></trkpt><trkpt lat="44.74803809417129" lon="9.421301492492"><ele>689.0</ele><time>2026-03-22T15:55:01Z</time></trkpt><trkpt lat="44.74807842762479" lon="9.42114817911114"><ele>689.0</ele><time>2026-03-22T15:55:02Z</time></trkpt><trkpt lat="44.748061229799006" lon="9.420973690025374"><ele>688.0</ele><time>2026-03-22T15:55:03Z</time></trkpt><trkpt lat="44.7480177282404" lon="9.420800704086343"><ele>687.0</ele><time>2026-03-22T15:55:04Z</time></trkpt><trkpt lat="44.747982393820074" lon="9.420624714281617"><ele>686.0</ele><time>2026-03-22T15:55:05Z</time></trkpt><trkpt lat="44.74796307675826" lon="9.420454582852946"><ele>685.0</ele><time>2026-03-22T15:55:06Z</time></trkpt><trkpt lat="44.74794972239727" lon="9.420286310027707"><ele>684.8</ele><time>2026-03-22T15:55:07Z</time></trkpt><trkpt lat="44.74794179768813" lon="9.420120452511568"><ele>684.6</ele><time>2026-03-22T15:55:08Z</time></trkpt><trkpt lat="44.74794660969173" lon="9.41996441002776"><ele>684.4000000000001</ele><time>2026-03-22T15:55:09Z</time></trkpt><trkpt lat="44.74797586079034" lon="9.419835429848018"><ele>684.2</ele><time>2026-03-22T15:55:10Z</time></trkpt><trkpt lat="44.74801862565579" lon="9.419725397598722"><ele>684.0</ele><time>2026-03-22T15:55:11Z</time></trkpt><trkpt lat="44.74812835435463" lon="9.419652780071383"><ele>684.0</ele><time>2026-03-22T15:55:12Z</time></trkpt><trkpt lat="44.74823885256427" lon="9.419660705823768"><ele>684.0</ele><time>2026-03-22T15:55:13Z</time></trkpt><trkpt lat="44.7483500415142" lon="9.419704952179991"><ele>684.0</ele><time>2026-03-22T15:55:14Z</time></trkpt><trkpt lat="44.74847288209603" lon="9.419759067845131"><ele>684.0</ele><time>2026-03-22T15:55:15Z</time></trkpt><trkpt lat="44.74860314664167" lon="9.419798123726007"><ele>684.25</ele><time>2026-03-22T15:55:16Z</time></trkpt><trkpt lat="44.74872098712319" lon="9.419821362916176"><ele>684.5</ele><time>2026-03-22T15:55:17Z</time></trkpt><trkpt lat="44.74883314134338" lon="9.419797233084848"><ele>684.75</ele><time>2026-03-22T15:55:18Z</time></trkpt><trkpt lat="44.74892081889856" lon="9.419661971904247"><ele>685.0</ele><time>2026-03-22T15:55:19Z</time></trkpt><trkpt lat="44.749020514744" lon="9.419549951623267"><ele>683.75</ele><time>2026-03-22T15:55:20Z</time></trkpt><trkpt lat="44.74909164443343" lon="9.419426271257919"><ele>682.5</ele><time>2026-03-22T15:55:21Z</time></trkpt><trkpt lat="44.749123766242256" lon="9.41928422667371"><ele>681.25</ele><time>2026-03-22T15:55:22Z</time></trkpt><trkpt lat="44.749121248227034" lon="9.419098501087802"><ele>680.0</ele><time>2026-03-22T15:55:23Z</time></trkpt><trkpt lat="44.7491079978062" lon="9.418881550236044"><ele>681.0</ele><time>2026-03-22T15:55:24Z</time></trkpt><trkpt lat="44.74908281109409" lon="9.418653374568542"><ele>682.0</ele><time>2026-03-22T15:55:25Z</time></trkpt><trkpt lat="44.74906872959269" lon="9.418415072575083"><ele>683.0</ele><time>2026-03-22T15:55:26Z</time></trkpt><trkpt lat="44.74905895405876" lon="9.418199687217886"><ele>683.0</ele><time>2026-03-22T15:55:27Z</time></trkpt><trkpt lat="44.74903802990635" lon="9.418000150818296"><ele>683.0</ele><time>2026-03-22T15:55:28Z</time></trkpt><trkpt lat="44.748991819253504" lon="9.41783083378507"><ele>683.0</ele><time>2026-03-22T15:55:29Z</time></trkpt><trkpt lat="44.74892789460368" lon="9.417684227367166"><ele>683.0</ele><time>2026-03-22T15:55:29.999Z</time></trkpt><trkpt lat="44.74884798249689" lon="9.417539945981291"><ele>682.2</ele><time>2026-03-22T15:55:30.999Z</time></trkpt><trkpt lat="44.74876283374071" lon="9.417406835689329"><ele>681.4</ele><time>2026-03-22T15:55:31.999Z</time></trkpt><trkpt lat="44.74868735219252" lon="9.417286479127549"><ele>680.6</ele><time>2026-03-22T15:55:32.999Z</time></trkpt><trkpt lat="44.74861907523209" lon="9.417179318449593"><ele>679.8000000000001</ele><time>2026-03-22T15:55:33.999Z</time></trkpt><trkpt lat="44.74856815817022" lon="9.417072515850442"><ele>679.0</ele><time>2026-03-22T15:55:34.999Z</time></trkpt><trkpt lat="44.74853775415265" lon="9.41695089420239"><ele>679.0</ele><time>2026-03-22T15:55:35.999Z</time></trkpt><trkpt lat="44.748526763030334" lon="9.416812124056642"><ele>679.0</ele><time>2026-03-22T15:55:36.999Z</time></trkpt><trkpt lat="44.74854306638923" lon="9.416649521193342"><ele>679.0</ele><time>2026-03-22T15:55:37.999Z</time></trkpt><trkpt lat="44.74855959898155" lon="9.416474371964565"><ele>679.0</ele><time>2026-03-22T15:55:38.999Z</time></trkpt><trkpt lat="44.74856545714318" lon="9.416318450810584"><ele>678.8000000000001</ele><time>2026-03-22T15:55:39.999Z</time></trkpt><trkpt lat="44.7485533195159" lon="9.416152900859366"><ele>678.6</ele><time>2026-03-22T15:55:40.999Z</time></trkpt><trkpt lat="44.748533826632794" lon="9.416003101746153"><ele>678.4</ele><time>2026-03-22T15:55:41.999Z</time></trkpt><trkpt lat="44.74852310145666" lon="9.415855523267975"><ele>678.2</ele><time>2026-03-22T15:55:42.999Z</time></trkpt><trkpt lat="44.748500070037515" lon="9.415710401190704"><ele>678.0</ele><time>2026-03-22T15:55:43.999Z</time></trkpt><trkpt lat="44.74843271569352" lon="9.415576372237716"><ele>680.25</ele><time>2026-03-22T15:55:44.999Z</time></trkpt><trkpt lat="44.748309406248765" lon="9.415468509124494"><ele>682.5</ele><time>2026-03-22T15:55:45.999Z</time></trkpt><trkpt lat="44.7481903524539" lon="9.41533750820084"><ele>684.75</ele><time>2026-03-22T15:55:46.999Z</time></trkpt><trkpt lat="44.74807583211837" lon="9.415235056667823"><ele>687.0</ele><time>2026-03-22T15:55:47.999Z</time></trkpt><trkpt lat="44.74795910634835" lon="9.41514592335156"><ele>687.0</ele><time>2026-03-22T15:55:48.999Z</time></trkpt><trkpt lat="44.74781521213228" lon="9.415098188076811"><ele>687.0</ele><time>2026-03-22T15:55:49.999Z</time></trkpt><trkpt lat="44.747643116835285" lon="9.415136382950786"><ele>687.0</ele><time>2026-03-22T15:55:50.999Z</time></trkpt><trkpt lat="44.74748719027516" lon="9.41523457654687"><ele>683.25</ele><time>2026-03-22T15:55:51.999Z</time></trkpt><trkpt lat="44.747357590281" lon="9.415334416911199"><ele>679.5</ele><time>2026-03-22T15:55:52.999Z</time></trkpt><trkpt lat="44.74727165332869" lon="9.41550340523114"><ele>675.75</ele><time>2026-03-22T15:55:53.999Z</time></trkpt><trkpt lat="44.74715270843888" lon="9.41557232867439"><ele>672.0</ele><time>2026-03-22T15:55:54.999Z</time></trkpt><trkpt lat="44.74702295879473" lon="9.415616456950236"><ele>669.0</ele><time>2026-03-22T15:55:55.999Z</time></trkpt><trkpt lat="44.746892793574766" lon="9.415622616684486"><ele>666.0</ele><time>2026-03-22T15:55:56.999Z</time></trkpt><trkpt lat="44.746760077140664" lon="9.415532323869522"><ele>663.0</ele><time>2026-03-22T15:55:57.999Z</time></trkpt><trkpt lat="44.746620472908134" lon="9.415531934321901"><ele>660.0</ele><time>2026-03-22T15:55:58.999Z</time></trkpt><trkpt lat="44.74647878695509" lon="9.415584615548253"><ele>660.2</ele><time>2026-03-22T15:55:59.999Z</time></trkpt><trkpt lat="44.74636317271807" lon="9.415625172430612"><ele>660.4</ele><time>2026-03-22T15:56:00.999Z</time></trkpt><trkpt lat="44.74625981823704" lon="9.415628138198047"><ele>660.5999999999999</ele><time>2026-03-22T15:56:01.999Z</time></trkpt><trkpt lat="44.74616506529449" lon="9.415565969491944"><ele>660.8</ele><time>2026-03-22T15:56:02.999Z</time></trkpt><trkpt lat="44.746071462411734" lon="9.415456424699299"><ele>661.0</ele><time>2026-03-22T15:56:03.999Z</time></trkpt><trkpt lat="44.74596496415319" lon="9.415346080535972"><ele>656.75</ele><time>2026-03-22T15:56:04.999Z</time></trkpt><trkpt lat="44.74586863873941" lon="9.415215645177858"><ele>652.5</ele><time>2026-03-22T15:56:05.999Z</time></trkpt><trkpt lat="44.74578666846303" lon="9.415076477520744"><ele>648.25</ele><time>2026-03-22T15:56:06.999Z</time></trkpt><trkpt lat="44.74569225932416" lon="9.414958832938499"><ele>644.0</ele><time>2026-03-22T15:56:07.999Z</time></trkpt><trkpt lat="44.745587519049636" lon="9.414863188942626"><ele>644.0</ele><time>2026-03-22T15:56:08.999Z</time></trkpt><trkpt lat="44.74545803240246" lon="9.414795290201143"><ele>644.0</ele><time>2026-03-22T15:56:09.999Z</time></trkpt><trkpt lat="44.745330218624275" lon="9.414733821869268"><ele>644.0</ele><time>2026-03-22T15:56:10.999Z</time></trkpt><trkpt lat="44.74520454765787" lon="9.414683151896208"><ele>644.0</ele><time>2026-03-22T15:56:11.999Z</time></trkpt><trkpt lat="44.74508898707751" lon="9.414641551580331"><ele>643.2</ele><time>2026-03-22T15:56:12.999Z</time></trkpt><trkpt lat="44.74498497433379" lon="9.41461852159486"><ele>642.4000000000001</ele><time>2026-03-22T15:56:13.998Z</time></trkpt><trkpt lat="44.74489117067945" lon="9.41461604276575"><ele>641.6</ele><time>2026-03-22T15:56:14.998Z</time></trkpt><trkpt lat="44.74480657475206" lon="9.414664988872183"><ele>640.8</ele><time>2026-03-22T15:56:15.998Z</time></trkpt><trkpt lat="44.74473726396437" lon="9.41480507726648"><ele>640.0</ele><time>2026-03-22T15:56:16.998Z</time></trkpt><trkpt lat="44.74466682782455" lon="9.414891551852067"><ele>640.0</ele><time>2026-03-22T15:56:17.998Z</time></trkpt><trkpt lat="44.744564453334355" lon="9.414849708667393"><ele>640.0</ele><time>2026-03-22T15:56:19.998Z</time></trkpt><trkpt lat="44.74454510200728" lon="9.414728596100431"><ele>640.0</ele><time>2026-03-22T15:56:20.998Z</time></trkpt><trkpt lat="44.74455620578777" lon="9.41460574321486"><ele>640.0</ele><time>2026-03-22T15:56:21.998Z</time></trkpt><trkpt lat="44.74463653190843" lon="9.414513710409368"><ele>640.0</ele><time>2026-03-22T15:56:22.998Z</time></trkpt><trkpt lat="44.744703866704334" lon="9.414409285898511"><ele>640.0</ele><time>2026-03-22T15:56:23.998Z</time></trkpt><trkpt lat="44.744793513040726" lon="9.414317040191039"><ele>640.0</ele><time>2026-03-22T15:56:24.998Z</time></trkpt><trkpt lat="44.744891747157354" lon="9.41420282014701"><ele>640.0</ele><time>2026-03-22T15:56:25.998Z</time></trkpt><trkpt lat="44.74501332542463" lon="9.414055555663984"><ele>640.0</ele><time>2026-03-22T15:56:26.998Z</time></trkpt><trkpt lat="44.745158705155404" lon="9.41386994218707"><ele>638.0</ele><time>2026-03-22T15:56:27.998Z</time></trkpt><trkpt lat="44.745320819186375" lon="9.413667296995108"><ele>636.0</ele><time>2026-03-22T15:56:28.998Z</time></trkpt><trkpt lat="44.74547904608803" lon="9.413430323942263"><ele>634.0</ele><time>2026-03-22T15:56:29.998Z</time></trkpt><trkpt lat="44.74562756346718" lon="9.413190640163949"><ele>632.0</ele><time>2026-03-22T15:56:30.998Z</time></trkpt><trkpt lat="44.745767551232134" lon="9.412974501121544"><ele>630.0</ele><time>2026-03-22T15:56:31.998Z</time></trkpt><trkpt lat="44.74589487598054" lon="9.412776371685942"><ele>628.0</ele><time>2026-03-22T15:56:32.998Z</time></trkpt><trkpt lat="44.74601548337648" lon="9.412591116940865"><ele>630.6666666666667</ele><time>2026-03-22T15:56:33.998Z</time></trkpt><trkpt lat="44.74612764691524" lon="9.412409126765269"><ele>633.3333333333334</ele><time>2026-03-22T15:56:34.998Z</time></trkpt><trkpt lat="44.74623552252831" lon="9.412235589801625"><ele>636.0</ele><time>2026-03-22T15:56:35.998Z</time></trkpt><trkpt lat="44.74633745546154" lon="9.412069638423345"><ele>636.0</ele><time>2026-03-22T15:56:36.998Z</time></trkpt><trkpt lat="44.74643856236619" lon="9.411910687896507"><ele>636.0</ele><time>2026-03-22T15:56:37.998Z</time></trkpt><trkpt lat="44.74654675430203" lon="9.411762001373724"><ele>636.0</ele><time>2026-03-22T15:56:38.998Z</time></trkpt><trkpt lat="44.74664350613091" lon="9.411602651973142"><ele>636.0</ele><time>2026-03-22T15:56:39.998Z</time></trkpt><trkpt lat="44.746748934094" lon="9.411461068719104"><ele>636.0</ele><time>2026-03-22T15:56:40.998Z</time></trkpt><trkpt lat="44.74683434175777" lon="9.411325718009177"><ele>636.0</ele><time>2026-03-22T15:56:41.998Z</time></trkpt><trkpt lat="44.74690467671887" lon="9.411193777520868"><ele>636.0</ele><time>2026-03-22T15:56:42.998Z</time></trkpt><trkpt lat="44.746930237231055" lon="9.411042304539787"><ele>636.0</ele><time>2026-03-22T15:56:43.998Z</time></trkpt><trkpt lat="44.74690215054599" lon="9.410847472542125"><ele>636.0</ele><time>2026-03-22T15:56:44.998Z</time></trkpt><trkpt lat="44.74686433253524" lon="9.410622699755145"><ele>636.0</ele><time>2026-03-22T15:56:45.998Z</time></trkpt><trkpt lat="44.746825114562874" lon="9.410396480072638"><ele>636.0</ele><time>2026-03-22T15:56:46.998Z</time></trkpt><trkpt lat="44.74676085375324" lon="9.410189723638354"><ele>636.0</ele><time>2026-03-22T15:56:47.998Z</time></trkpt><trkpt lat="44.74667815358374" lon="9.410005370231843"><ele>636.0</ele><time>2026-03-22T15:56:48.998Z</time></trkpt><trkpt lat="44.74657357701817" lon="9.409841857554055"><ele>636.0</ele><time>2026-03-22T15:56:49.998Z</time></trkpt><trkpt lat="44.746463406582" lon="9.409703055207297"><ele>636.0</ele><time>2026-03-22T15:56:50.998Z</time></trkpt><trkpt lat="44.746386081562804" lon="9.409546033642595"><ele>636.0</ele><time>2026-03-22T15:56:51.998Z</time></trkpt><trkpt lat="44.746342954323744" lon="9.409339633806287"><ele>636.0</ele><time>2026-03-22T15:56:52.998Z</time></trkpt><trkpt lat="44.74631961120429" lon="9.409114053137486"><ele>637.75</ele><time>2026-03-22T15:56:53.998Z</time></trkpt><trkpt lat="44.74630394838172" lon="9.408915746340357"><ele>639.5</ele><time>2026-03-22T15:56:54.998Z</time></trkpt><trkpt lat="44.74627487824423" lon="9.408745098868037"><ele>641.25</ele><time>2026-03-22T15:56:55.998Z</time></trkpt><trkpt lat="44.746208826244526" lon="9.408573781589762"><ele>643.0</ele><time>2026-03-22T15:56:56.998Z</time></trkpt><trkpt lat="44.74611211393047" lon="9.408394984255057"><ele>639.0</ele><time>2026-03-22T15:56:57.998Z</time></trkpt><trkpt lat="44.74600240519911" lon="9.40821529004279"><ele>635.0</ele><time>2026-03-22T15:56:58.998Z</time></trkpt><trkpt lat="44.7458813652901" lon="9.408023687386745"><ele>631.0</ele><time>2026-03-22T15:56:59.998Z</time></trkpt><trkpt lat="44.745770885610845" lon="9.407845522821624"><ele>631.0</ele><time>2026-03-22T15:57:00.997Z</time></trkpt><trkpt lat="44.745672858461454" lon="9.407682491633839"><ele>631.0</ele><time>2026-03-22T15:57:01.997Z</time></trkpt><trkpt lat="44.74556215296935" lon="9.407539378805792"><ele>631.0</ele><time>2026-03-22T15:57:02.997Z</time></trkpt><trkpt lat="44.74542823847222" lon="9.407413833519955"><ele>631.0</ele><time>2026-03-22T15:57:03.997Z</time></trkpt><trkpt lat="44.74525512716743" lon="9.407346225679463"><ele>631.0</ele><time>2026-03-22T15:57:05Z</time></trkpt><trkpt lat="44.74509356698946" lon="9.4073010374744"><ele>631.0</ele><time>2026-03-22T15:57:06Z</time></trkpt><trkpt lat="44.74494440881033" lon="9.407279212120718"><ele>632.6</ele><time>2026-03-22T15:57:07Z</time></trkpt><trkpt lat="44.744819877854475" lon="9.407259710311347"><ele>634.2</ele><time>2026-03-22T15:57:08Z</time></trkpt><trkpt lat="44.74472295829015" lon="9.40721951183047"><ele>635.8</ele><time>2026-03-22T15:57:09Z</time></trkpt><trkpt lat="44.744654040517965" lon="9.407150568682514"><ele>637.4</ele><time>2026-03-22T15:57:10Z</time></trkpt><trkpt lat="44.74457480792449" lon="9.407029663674214"><ele>639.0</ele><time>2026-03-22T15:57:11Z</time></trkpt><trkpt lat="44.74452180395108" lon="9.40684973571182"><ele>639.0</ele><time>2026-03-22T15:57:12Z</time></trkpt><trkpt lat="44.74444924821577" lon="9.406682831183913"><ele>639.0</ele><time>2026-03-22T15:57:13Z</time></trkpt><trkpt lat="44.74433672635821" lon="9.406549248056258"><ele>639.0</ele><time>2026-03-22T15:57:14Z</time></trkpt><trkpt lat="44.74420407119052" lon="9.40640294147507"><ele>633.6666666666666</ele><time>2026-03-22T15:57:15Z</time></trkpt><trkpt lat="44.74404608829215" lon="9.40628203618752"><ele>628.3333333333333</ele><time>2026-03-22T15:57:16Z</time></trkpt><trkpt lat="44.743885140542545" lon="9.40619276871162"><ele>623.0</ele><time>2026-03-22T15:57:17Z</time></trkpt><trkpt lat="44.743767355501404" lon="9.406050359015579"><ele>623.0</ele><time>2026-03-22T15:57:18Z</time></trkpt><trkpt lat="44.74365392242386" lon="9.405910467385244"><ele>623.0</ele><time>2026-03-22T15:57:19Z</time></trkpt><trkpt lat="44.7435343859384" lon="9.405790988271459"><ele>623.0</ele><time>2026-03-22T15:57:20Z</time></trkpt><trkpt lat="44.74341728972349" lon="9.405677555617867"><ele>623.0</ele><time>2026-03-22T15:57:21Z</time></trkpt><trkpt lat="44.74330509623202" lon="9.40556887234063"><ele>615.8</ele><time>2026-03-22T15:57:22Z</time></trkpt><trkpt lat="44.743210894956896" lon="9.40547752768294"><ele>608.5999999999999</ele><time>2026-03-22T15:57:23Z</time></trkpt><trkpt lat="44.74313432811971" lon="9.405401287483269"><ele>601.4000000000001</ele><time>2026-03-22T15:57:24Z</time></trkpt><trkpt lat="44.743085362271096" lon="9.40524593996353"><ele>594.2</ele><time>2026-03-22T15:57:26Z</time></trkpt><trkpt lat="44.74309771370239" lon="9.405137771052459"><ele>587.0</ele><time>2026-03-22T15:57:27Z</time></trkpt><trkpt lat="44.7432281811766" lon="9.405081359301674"><ele>587.0</ele><time>2026-03-22T15:57:28Z</time></trkpt><trkpt lat="44.74336391920886" lon="9.405093671273756"><ele>587.0</ele><time>2026-03-22T15:57:29Z</time></trkpt><trkpt lat="44.743501993620775" lon="9.405099289403635"><ele>587.0</ele><time>2026-03-22T15:57:30Z</time></trkpt><trkpt lat="44.743637833256415" lon="9.405104961380776"><ele>587.0</ele><time>2026-03-22T15:57:31Z</time></trkpt><trkpt lat="44.74377115089755" lon="9.405108885853991"><ele>589.5</ele><time>2026-03-22T15:57:32Z</time></trkpt><trkpt lat="44.74390769115017" lon="9.405113441666892"><ele>592.0</ele><time>2026-03-22T15:57:33Z</time></trkpt><trkpt lat="44.74404143081239" lon="9.405116420019164"><ele>594.5</ele><time>2026-03-22T15:57:34Z</time></trkpt><trkpt lat="44.74417848003782" lon="9.40511727862361"><ele>597.0</ele><time>2026-03-22T15:57:35Z</time></trkpt><trkpt lat="44.74430911080455" lon="9.405122259678611"><ele>601.2</ele><time>2026-03-22T15:57:36Z</time></trkpt><trkpt lat="44.74444035886905" lon="9.405129217804008"><ele>605.4000000000001</ele><time>2026-03-22T15:57:37Z</time></trkpt><trkpt lat="44.74456050154942" lon="9.405133870146484"><ele>609.5999999999999</ele><time>2026-03-22T15:57:38Z</time></trkpt><trkpt lat="44.74465872524099" lon="9.405136752087323"><ele>613.8</ele><time>2026-03-22T15:57:39Z</time></trkpt><trkpt lat="44.744731845936336" lon="9.405093157844828"><ele>618.0</ele><time>2026-03-22T15:57:40Z</time></trkpt><trkpt lat="44.744788681658385" lon="9.405044974535027"><ele>618.0</ele><time>2026-03-22T15:57:41Z</time></trkpt><trkpt lat="44.7448174291057" lon="9.404941282681204"><ele>618.0</ele><time>2026-03-22T15:57:42Z</time></trkpt><trkpt lat="44.74484653661585" lon="9.404803622514525"><ele>618.0</ele><time>2026-03-22T15:57:43Z</time></trkpt><trkpt lat="44.744831027471825" lon="9.404662922407391"><ele>618.0</ele><time>2026-03-22T15:57:44Z</time></trkpt><trkpt lat="44.744798243722194" lon="9.404505864879866"><ele>618.0</ele><time>2026-03-22T15:57:44.999Z</time></trkpt><trkpt lat="44.744725231728324" lon="9.404343158709377"><ele>620.6666666666666</ele><time>2026-03-22T15:57:45.999Z</time></trkpt><trkpt lat="44.74463487786427" lon="9.404188472582033"><ele>623.3333333333333</ele><time>2026-03-22T15:57:46.999Z</time></trkpt><trkpt lat="44.74452123299884" lon="9.404041830815322"><ele>626.0</ele><time>2026-03-22T15:57:47.999Z</time></trkpt><trkpt lat="44.74440373639612" lon="9.40388985236763"><ele>620.75</ele><time>2026-03-22T15:57:48.999Z</time></trkpt><trkpt lat="44.744291053662145" lon="9.403746923030239"><ele>615.5</ele><time>2026-03-22T15:57:49.999Z</time></trkpt><trkpt lat="44.744186759744466" lon="9.403622601622885"><ele>610.25</ele><time>2026-03-22T15:57:50.999Z</time></trkpt><trkpt lat="44.7440650901217" lon="9.403517928154633"><ele>605.0</ele><time>2026-03-22T15:57:51.999Z</time></trkpt><trkpt lat="44.743929392458185" lon="9.40339113613602"><ele>605.0</ele><time>2026-03-22T15:57:52.999Z</time></trkpt><trkpt lat="44.743779391082825" lon="9.403281125332152"><ele>605.0</ele><time>2026-03-22T15:57:53.999Z</time></trkpt><trkpt lat="44.743634191143464" lon="9.403174261516057"><ele>605.0</ele><time>2026-03-22T15:57:54.999Z</time></trkpt><trkpt lat="44.74349059897562" lon="9.403065841164299"><ele>602.6666666666666</ele><time>2026-03-22T15:57:55.999Z</time></trkpt><trkpt lat="44.74334320066766" lon="9.402963716030722"><ele>600.3333333333334</ele><time>2026-03-22T15:57:56.999Z</time></trkpt><trkpt lat="44.74320011076228" lon="9.40289788662232"><ele>598.0</ele><time>2026-03-22T15:57:57.999Z</time></trkpt><trkpt lat="44.74306475829257" lon="9.402842596789167"><ele>598.0</ele><time>2026-03-22T15:57:58.999Z</time></trkpt><trkpt lat="44.74294316515426" lon="9.402777022315236"><ele>598.0</ele><time>2026-03-22T15:57:59.999Z</time></trkpt><trkpt lat="44.742836375422" lon="9.402687776390508"><ele>598.0</ele><time>2026-03-22T15:58:00.999Z</time></trkpt><trkpt lat="44.742733798934424" lon="9.402584140503008"><ele>598.0</ele><time>2026-03-22T15:58:01.999Z</time></trkpt><trkpt lat="44.74259754395851" lon="9.402520984926255"><ele>596.0</ele><time>2026-03-22T15:58:02.999Z</time></trkpt><trkpt lat="44.74243975389378" lon="9.402539486873373"><ele>594.0</ele><time>2026-03-22T15:58:03.999Z</time></trkpt><trkpt lat="44.74228672677784" lon="9.402517840309171"><ele>592.0</ele><time>2026-03-22T15:58:04.999Z</time></trkpt><trkpt lat="44.74214659048104" lon="9.402483118532324"><ele>592.0</ele><time>2026-03-22T15:58:05.999Z</time></trkpt><trkpt lat="44.74201659838442" lon="9.402450229292693"><ele>592.0</ele><time>2026-03-22T15:58:06.999Z</time></trkpt><trkpt lat="44.74190209675505" lon="9.402420914985314"><ele>592.0</ele><time>2026-03-22T15:58:07.999Z</time></trkpt><trkpt lat="44.741800491847066" lon="9.40238648957028"><ele>592.0</ele><time>2026-03-22T15:58:08.999Z</time></trkpt><trkpt lat="44.741727759129745" lon="9.402309977017532"><ele>592.0</ele><time>2026-03-22T15:58:09.999Z</time></trkpt><trkpt lat="44.741647174980564" lon="9.402180863277517"><ele>591.25</ele><time>2026-03-22T15:58:10.999Z</time></trkpt><trkpt lat="44.74156457257976" lon="9.402022489547592"><ele>590.5</ele><time>2026-03-22T15:58:11.999Z</time></trkpt><trkpt lat="44.741446215883045" lon="9.401900330278943"><ele>589.75</ele><time>2026-03-22T15:58:12.999Z</time></trkpt><trkpt lat="44.74133351991593" lon="9.40178340724863"><ele>589.0</ele><time>2026-03-22T15:58:13.999Z</time></trkpt><trkpt lat="44.74122851835088" lon="9.401707601616925"><ele>589.0</ele><time>2026-03-22T15:58:14.999Z</time></trkpt><trkpt lat="44.7411464254148" lon="9.40164843482266"><ele>589.0</ele><time>2026-03-22T15:58:15.999Z</time></trkpt><trkpt lat="44.74108312754471" lon="9.401601652361663"><ele>589.0</ele><time>2026-03-22T15:58:16.999Z</time></trkpt><trkpt lat="44.74107741631409" lon="9.40148884866728"><ele>589.0</ele><time>2026-03-22T15:58:17.999Z</time></trkpt><trkpt lat="44.741103985763345" lon="9.401364249825036"><ele>589.0</ele><time>2026-03-22T15:58:18.999Z</time></trkpt><trkpt lat="44.74122531867283" lon="9.401279510966964"><ele>585.5</ele><time>2026-03-22T15:58:19.999Z</time></trkpt><trkpt lat="44.74133809083884" lon="9.40118432044853"><ele>582.0</ele><time>2026-03-22T15:58:20.999Z</time></trkpt><trkpt lat="44.741441199846506" lon="9.401089129202942"><ele>578.5</ele><time>2026-03-22T15:58:21.999Z</time></trkpt><trkpt lat="44.741533049223044" lon="9.400996676505663"><ele>575.0</ele><time>2026-03-22T15:58:22.999Z</time></trkpt><trkpt lat="44.741630554411024" lon="9.400942180981996"><ele>575.0</ele><time>2026-03-22T15:58:23.999Z</time></trkpt><trkpt lat="44.74175221560877" lon="9.400931485137448"><ele>575.0</ele><time>2026-03-22T15:58:24.999Z</time></trkpt><trkpt lat="44.74189292763604" lon="9.40099158460504"><ele>575.0</ele><time>2026-03-22T15:58:25.999Z</time></trkpt><trkpt lat="44.742026285226615" lon="9.401060071474845"><ele>575.0</ele><time>2026-03-22T15:58:26.999Z</time></trkpt><trkpt lat="44.74214644888051" lon="9.401093292469929"><ele>574.6</ele><time>2026-03-22T15:58:27.999Z</time></trkpt><trkpt lat="44.742258056539946" lon="9.40111951994871"><ele>574.2</ele><time>2026-03-22T15:58:28.999Z</time></trkpt><trkpt lat="44.74236409353463" lon="9.401147489668729"><ele>573.8</ele><time>2026-03-22T15:58:29.998Z</time></trkpt><trkpt lat="44.74246091743345" lon="9.40112202919676"><ele>573.4</ele><time>2026-03-22T15:58:30.998Z</time></trkpt><trkpt lat="44.74254243968641" lon="9.401020245779169"><ele>573.0</ele><time>2026-03-22T15:58:31.998Z</time></trkpt><trkpt lat="44.74256285731473" lon="9.400836474113317"><ele>573.0</ele><time>2026-03-22T15:58:32.998Z</time></trkpt><trkpt lat="44.74261075850713" lon="9.400688182000493"><ele>573.0</ele><time>2026-03-22T15:58:33.998Z</time></trkpt><trkpt lat="44.74265430747108" lon="9.400584170406283"><ele>573.0</ele><time>2026-03-22T15:58:34.998Z</time></trkpt><trkpt lat="44.742748428454654" lon="9.40055016417191"><ele>573.0</ele><time>2026-03-22T15:58:35.998Z</time></trkpt><trkpt lat="44.74286986989109" lon="9.400593980718915"><ele>573.0</ele><time>2026-03-22T15:58:36.998Z</time></trkpt><trkpt lat="44.743000429839604" lon="9.400689435932936"><ele>572.5</ele><time>2026-03-22T15:58:37.998Z</time></trkpt><trkpt lat="44.74312031827368" lon="9.40075410840829"><ele>572.0</ele><time>2026-03-22T15:58:38.998Z</time></trkpt><trkpt lat="44.74322441580213" lon="9.400757692738246"><ele>571.5</ele><time>2026-03-22T15:58:39.998Z</time></trkpt><trkpt lat="44.74334316241935" lon="9.400792639769307"><ele>571.0</ele><time>2026-03-22T15:58:40.998Z</time></trkpt><trkpt lat="44.743462292743764" lon="9.400796277137676"><ele>567.8</ele><time>2026-03-22T15:58:41.998Z</time></trkpt><trkpt lat="44.74357444264022" lon="9.400722718844188"><ele>564.6</ele><time>2026-03-22T15:58:42.998Z</time></trkpt><trkpt lat="44.74367719909514" lon="9.40066294720754"><ele>561.4</ele><time>2026-03-22T15:58:43.998Z</time></trkpt><trkpt lat="44.74376113959162" lon="9.400620897495141"><ele>558.2</ele><time>2026-03-22T15:58:44.998Z</time></trkpt><trkpt lat="44.74378847412967" lon="9.400509889159041"><ele>555.0</ele><time>2026-03-22T15:58:45.998Z</time></trkpt><trkpt lat="44.74379246451256" lon="9.400406336460103"><ele>554.0</ele><time>2026-03-22T15:58:46.998Z</time></trkpt><trkpt lat="44.74372215856029" lon="9.400299196332478"><ele>553.0</ele><time>2026-03-22T15:58:47.998Z</time></trkpt><trkpt lat="44.74361315462558" lon="9.40025008713226"><ele>552.0</ele><time>2026-03-22T15:58:48.998Z</time></trkpt><trkpt lat="44.74346843128287" lon="9.400183641688544"><ele>551.0</ele><time>2026-03-22T15:58:49.998Z</time></trkpt><trkpt lat="44.74333225060514" lon="9.40012622569132"><ele>551.0</ele><time>2026-03-22T15:58:50.998Z</time></trkpt><trkpt lat="44.74321703998317" lon="9.40007804636706"><ele>551.0</ele><time>2026-03-22T15:58:51.998Z</time></trkpt><trkpt lat="44.74311039778036" lon="9.400034559534362"><ele>551.0</ele><time>2026-03-22T15:58:52.998Z</time></trkpt><trkpt lat="44.743003493364" lon="9.399990965745245"><ele>551.0</ele><time>2026-03-22T15:58:53.998Z</time></trkpt><trkpt lat="44.74289040775456" lon="9.399946597522657"><ele>551.0</ele><time>2026-03-22T15:58:54.998Z</time></trkpt><trkpt lat="44.74279224510611" lon="9.399910739736436"><ele>551.0</ele><time>2026-03-22T15:58:55.998Z</time></trkpt><trkpt lat="44.742732080733354" lon="9.399863996131414"><ele>551.0</ele><time>2026-03-22T15:58:56.998Z</time></trkpt><trkpt lat="44.742706976426746" lon="9.399776569757083"><ele>551.0</ele><time>2026-03-22T15:58:57.998Z</time></trkpt><trkpt lat="44.74273170687726" lon="9.399651252770475"><ele>551.0</ele><time>2026-03-22T15:58:58.998Z</time></trkpt><trkpt lat="44.742857650356406" lon="9.399541716013857"><ele>547.25</ele><time>2026-03-22T15:58:59.998Z</time></trkpt><trkpt lat="44.742985690770894" lon="9.399447772442976"><ele>543.5</ele><time>2026-03-22T15:59:00.998Z</time></trkpt><trkpt lat="44.74310057230677" lon="9.399323309911402"><ele>539.75</ele><time>2026-03-22T15:59:01.998Z</time></trkpt><trkpt lat="44.743220250808015" lon="9.399225358098095"><ele>536.0</ele><time>2026-03-22T15:59:02.998Z</time></trkpt><trkpt lat="44.743346483384684" lon="9.39919029418205"><ele>536.0</ele><time>2026-03-22T15:59:03.998Z</time></trkpt><trkpt lat="44.74346788158529" lon="9.39919583876751"><ele>536.0</ele><time>2026-03-22T15:59:04.998Z</time></trkpt><trkpt lat="44.74358194097178" lon="9.399252833205791"><ele>536.0</ele><time>2026-03-22T15:59:05.998Z</time></trkpt><trkpt lat="44.743697195397935" lon="9.399371713541285"><ele>536.0</ele><time>2026-03-22T15:59:06.998Z</time></trkpt><trkpt lat="44.74381483329237" lon="9.399509627712366"><ele>534.5</ele><time>2026-03-22T15:59:07.998Z</time></trkpt><trkpt lat="44.74392797458069" lon="9.399613464550452"><ele>533.0</ele><time>2026-03-22T15:59:08.998Z</time></trkpt><trkpt lat="44.74404108232407" lon="9.399674469470412"><ele>531.5</ele><time>2026-03-22T15:59:10Z</time></trkpt><trkpt lat="44.744152846486536" lon="9.399658515255163"><ele>530.0</ele><time>2026-03-22T15:59:11Z</time></trkpt><trkpt lat="44.74424699618127" lon="9.39960953632152"><ele>530.0</ele><time>2026-03-22T15:59:12Z</time></trkpt><trkpt lat="44.744326308389105" lon="9.399539056789807"><ele>530.0</ele><time>2026-03-22T15:59:13Z</time></trkpt><trkpt lat="44.74435679494448" lon="9.399409919702638"><ele>530.0</ele><time>2026-03-22T15:59:14Z</time></trkpt><trkpt lat="44.74436320164635" lon="9.399246627759602"><ele>530.0</ele><time>2026-03-22T15:59:15Z</time></trkpt><trkpt lat="44.74434734280195" lon="9.399073659654741"><ele>530.0</ele><time>2026-03-22T15:59:16Z</time></trkpt><trkpt lat="44.74437358776898" lon="9.39893059013528"><ele>530.2</ele><time>2026-03-22T15:59:17Z</time></trkpt><trkpt lat="44.74444833914291" lon="9.398826806286605"><ele>530.4</ele><time>2026-03-22T15:59:18Z</time></trkpt><trkpt lat="44.74454583895792" lon="9.398762382519248"><ele>530.6</ele><time>2026-03-22T15:59:19Z</time></trkpt><trkpt lat="44.74465976151264" lon="9.398750006384784"><ele>530.8</ele><time>2026-03-22T15:59:20Z</time></trkpt><trkpt lat="44.74476244054702" lon="9.398775619893582"><ele>531.0</ele><time>2026-03-22T15:59:21Z</time></trkpt><trkpt lat="44.74485113417366" lon="9.398807756291154"><ele>531.0</ele><time>2026-03-22T15:59:22Z</time></trkpt><trkpt lat="44.74493128621289" lon="9.39880308397116"><ele>531.0</ele><time>2026-03-22T15:59:23Z</time></trkpt><trkpt lat="44.74500111290979" lon="9.398745557114617"><ele>531.0</ele><time>2026-03-22T15:59:24Z</time></trkpt><trkpt lat="44.745046422527494" lon="9.398638949121636"><ele>531.0</ele><time>2026-03-22T15:59:25Z</time></trkpt><trkpt lat="44.74508796036282" lon="9.398562884995238"><ele>531.0</ele><time>2026-03-22T15:59:26Z</time></trkpt><trkpt lat="44.74507101264083" lon="9.398447282157052"><ele>531.0</ele><time>2026-03-22T15:59:27Z</time></trkpt><trkpt lat="44.74502914576549" lon="9.398344279538826"><ele>531.0</ele><time>2026-03-22T15:59:28Z</time></trkpt><trkpt lat="44.744991033627755" lon="9.398235652620196"><ele>531.0</ele><time>2026-03-22T15:59:29Z</time></trkpt><trkpt lat="44.74496908894566" lon="9.398137618016825"><ele>531.0</ele><time>2026-03-22T15:59:30Z</time></trkpt><trkpt lat="44.74495140166026" lon="9.39802789738955"><ele>531.0</ele><time>2026-03-22T15:59:31Z</time></trkpt><trkpt lat="44.74494178063519" lon="9.39791304815366"><ele>531.0</ele><time>2026-03-22T15:59:32Z</time></trkpt><trkpt lat="44.74493628845756" lon="9.397796847411445"><ele>531.0</ele><time>2026-03-22T15:59:33Z</time></trkpt><trkpt lat="44.74491178074931" lon="9.397689927634886"><ele>529.5</ele><time>2026-03-22T15:59:34Z</time></trkpt><trkpt lat="44.74487315612912" lon="9.39758983622864"><ele>528.0</ele><time>2026-03-22T15:59:35Z</time></trkpt><trkpt lat="44.74482329945381" lon="9.397497510003582"><ele>526.5</ele><time>2026-03-22T15:59:36Z</time></trkpt><trkpt lat="44.7447678961808" lon="9.397407053590477"><ele>525.0</ele><time>2026-03-22T15:59:37Z</time></trkpt><trkpt lat="44.74470476998834" lon="9.397307319324497"><ele>523.5</ele><time>2026-03-22T15:59:38Z</time></trkpt><trkpt lat="44.744654783202144" lon="9.397206199696916"><ele>522.0</ele><time>2026-03-22T15:59:39Z</time></trkpt><trkpt lat="44.744624304983574" lon="9.39708560352542"><ele>518.75</ele><time>2026-03-22T15:59:40Z</time></trkpt><trkpt lat="44.74460362427801" lon="9.396955822655388"><ele>515.5</ele><time>2026-03-22T15:59:41Z</time></trkpt><trkpt lat="44.74458291790701" lon="9.396822650785552"><ele>512.25</ele><time>2026-03-22T15:59:42Z</time></trkpt><trkpt lat="44.74452807893793" lon="9.396606372624728"><ele>509.0</ele><time>2026-03-22T15:59:43Z</time></trkpt><trkpt lat="44.744444834093464" lon="9.39636934345464"><ele>506.25</ele><time>2026-03-22T15:59:44Z</time></trkpt><trkpt lat="44.74440020654896" lon="9.396162250317893"><ele>503.5</ele><time>2026-03-22T15:59:45Z</time></trkpt><trkpt lat="44.74440401869237" lon="9.395945890007395"><ele>500.75</ele><time>2026-03-22T15:59:46Z</time></trkpt><trkpt lat="44.74441015553617" lon="9.3958165411515"><ele>498.0</ele><time>2026-03-22T15:59:47Z</time></trkpt><trkpt lat="44.744393797726914" lon="9.395645101067275"><ele>499.4</ele><time>2026-03-22T15:59:48Z</time></trkpt><trkpt lat="44.74437444692668" lon="9.395472472116042"><ele>500.79999999999995</ele><time>2026-03-22T15:59:49Z</time></trkpt><trkpt lat="44.74433681982755" lon="9.395338549596396"><ele>502.2</ele><time>2026-03-22T15:59:50Z</time></trkpt><trkpt lat="44.74429623243837" lon="9.39521547101399"><ele>503.6</ele><time>2026-03-22T15:59:51Z</time></trkpt><trkpt lat="44.74426297992632" lon="9.395087985674149"><ele>505.0</ele><time>2026-03-22T15:59:52Z</time></trkpt><trkpt lat="44.744224102074185" lon="9.39495575847527"><ele>505.0</ele><time>2026-03-22T15:59:53Z</time></trkpt><trkpt lat="44.744182188359865" lon="9.394817034775873"><ele>505.0</ele><time>2026-03-22T15:59:54Z</time></trkpt><trkpt lat="44.74414405551327" lon="9.394680008698638"><ele>505.0</ele><time>2026-03-22T15:59:55Z</time></trkpt><trkpt lat="44.74410224113995" lon="9.394534287915274"><ele>505.0</ele><time>2026-03-22T15:59:56Z</time></trkpt><trkpt lat="44.74406407259228" lon="9.394426358729444"><ele>505.0</ele><time>2026-03-22T15:59:57Z</time></trkpt><trkpt lat="44.74402280751787" lon="9.394333080318757"><ele>503.33333333333337</ele><time>2026-03-22T15:59:58Z</time></trkpt><trkpt lat="44.74398294908299" lon="9.394227573824358"><ele>501.6666666666667</ele><time>2026-03-22T15:59:59Z</time></trkpt><trkpt lat="44.743940167450624" lon="9.394150095764164"><ele>500.0</ele><time>2026-03-22T16:00:00Z</time></trkpt><trkpt lat="44.743905076804296" lon="9.394061107674533"><ele>498.33333333333337</ele><time>2026-03-22T16:00:01Z</time></trkpt><trkpt lat="44.74386019850221" lon="9.393921997205178"><ele>496.6666666666667</ele><time>2026-03-22T16:00:02.999Z</time></trkpt><trkpt lat="44.743921664754474" lon="9.39385735665471"><ele>495.0</ele><time>2026-03-22T16:00:03.999Z</time></trkpt><trkpt lat="44.74400177549782" lon="9.393871531915952"><ele>495.0</ele><time>2026-03-22T16:00:04.999Z</time></trkpt><trkpt lat="44.744034396187295" lon="9.393982422690899"><ele>495.0</ele><time>2026-03-22T16:00:05.999Z</time></trkpt><trkpt lat="44.74405817024302" lon="9.394088859994504"><ele>495.0</ele><time>2026-03-22T16:00:06.999Z</time></trkpt><trkpt lat="44.744088319312795" lon="9.39418692988053"><ele>495.0</ele><time>2026-03-22T16:00:07.999Z</time></trkpt><trkpt lat="44.74414411302144" lon="9.394322336927962"><ele>495.0</ele><time>2026-03-22T16:00:09.999Z</time></trkpt><trkpt lat="44.744234128655116" lon="9.394465831240714"><ele>494.99999999999994</ele><time>2026-03-22T16:00:11.999Z</time></trkpt><trkpt lat="44.74428750570444" lon="9.394515843742706"><ele>495.0</ele><time>2026-03-22T16:00:12.999Z</time></trkpt><trkpt lat="44.74433065990443" lon="9.394581494561885"><ele>494.99999999999994</ele><time>2026-03-22T16:00:13.999Z</time></trkpt><trkpt lat="44.74437806124764" lon="9.394643482722108"><ele>494.99999999999994</ele><time>2026-03-22T16:00:14.999Z</time></trkpt><trkpt lat="44.74443335458814" lon="9.394718889728374"><ele>495.0</ele><time>2026-03-22T16:00:15.999Z</time></trkpt><trkpt lat="44.74449145567287" lon="9.394800327510225"><ele>494.99999999999994</ele><time>2026-03-22T16:00:16.999Z</time></trkpt><trkpt lat="44.74455528776834" lon="9.394890325229921"><ele>494.99999999999994</ele><time>2026-03-22T16:00:17.999Z</time></trkpt><trkpt lat="44.7446298163686" lon="9.395003987993098"><ele>493.6</ele><time>2026-03-22T16:00:18.999Z</time></trkpt><trkpt lat="44.74471128950864" lon="9.395123687520574"><ele>492.2</ele><time>2026-03-22T16:00:19.999Z</time></trkpt><trkpt lat="44.74480594707131" lon="9.39522011480431"><ele>490.79999999999995</ele><time>2026-03-22T16:00:20.999Z</time></trkpt><trkpt lat="44.74490940462159" lon="9.39525690341836"><ele>489.4</ele><time>2026-03-22T16:00:21.999Z</time></trkpt><trkpt lat="44.74501340947807" lon="9.395219844097698"><ele>488.0</ele><time>2026-03-22T16:00:22.999Z</time></trkpt><trkpt lat="44.7450817914315" lon="9.395068312845847"><ele>488.0</ele><time>2026-03-22T16:00:23.999Z</time></trkpt><trkpt lat="44.745136080083626" lon="9.39491114272351"><ele>488.0</ele><time>2026-03-22T16:00:24.999Z</time></trkpt><trkpt lat="44.7451952880274" lon="9.394732684545316"><ele>488.0</ele><time>2026-03-22T16:00:25.999Z</time></trkpt><trkpt lat="44.74526041867831" lon="9.394582281763915"><ele>488.0</ele><time>2026-03-22T16:00:26.999Z</time></trkpt><trkpt lat="44.745308683429144" lon="9.394439446520364"><ele>484.75</ele><time>2026-03-22T16:00:27.999Z</time></trkpt><trkpt lat="44.74536795994013" lon="9.394314472155298"><ele>481.5</ele><time>2026-03-22T16:00:28.999Z</time></trkpt><trkpt lat="44.74545879014042" lon="9.394236003855463"><ele>478.25</ele><time>2026-03-22T16:00:29.999Z</time></trkpt><trkpt lat="44.74557154984019" lon="9.394215535751577"><ele>475.0</ele><time>2026-03-22T16:00:30.999Z</time></trkpt><trkpt lat="44.74569693710263" lon="9.394254640610896"><ele>475.0</ele><time>2026-03-22T16:00:31.999Z</time></trkpt><trkpt lat="44.74583410562314" lon="9.394313277409312"><ele>475.0</ele><time>2026-03-22T16:00:32.999Z</time></trkpt><trkpt lat="44.74597449838147" lon="9.394393171555514"><ele>475.0</ele><time>2026-03-22T16:00:33.999Z</time></trkpt><trkpt lat="44.746102471785086" lon="9.39449639655754"><ele>475.0</ele><time>2026-03-22T16:00:34.999Z</time></trkpt><trkpt lat="44.74621673314507" lon="9.394584510583606"><ele>473.75</ele><time>2026-03-22T16:00:35.999Z</time></trkpt><trkpt lat="44.74634292508062" lon="9.394643321812357"><ele>472.5</ele><time>2026-03-22T16:00:36.999Z</time></trkpt><trkpt lat="44.7464809261325" lon="9.394673404242583"><ele>471.25</ele><time>2026-03-22T16:00:37.999Z</time></trkpt><trkpt lat="44.746609418406685" lon="9.394701330421004"><ele>470.0</ele><time>2026-03-22T16:00:38.999Z</time></trkpt><trkpt lat="44.74672781262607" lon="9.394730611577973"><ele>472.75</ele><time>2026-03-22T16:00:39.999Z</time></trkpt><trkpt lat="44.74683957762622" lon="9.394728531397847"><ele>475.5</ele><time>2026-03-22T16:00:40.999Z</time></trkpt><trkpt lat="44.74694730169898" lon="9.394635440392264"><ele>478.25</ele><time>2026-03-22T16:00:41.999Z</time></trkpt><trkpt lat="44.74702708274505" lon="9.39448121893941"><ele>481.0</ele><time>2026-03-22T16:00:42.999Z</time></trkpt><trkpt lat="44.74710939868973" lon="9.39429926573747"><ele>483.0</ele><time>2026-03-22T16:00:43.999Z</time></trkpt><trkpt lat="44.74719023184703" lon="9.394128209815236"><ele>485.0</ele><time>2026-03-22T16:00:44.999Z</time></trkpt><trkpt lat="44.74724806249065" lon="9.39396848957508"><ele>487.0</ele><time>2026-03-22T16:00:45.998Z</time></trkpt><trkpt lat="44.747274272091246" lon="9.393807335598641"><ele>489.0</ele><time>2026-03-22T16:00:46.998Z</time></trkpt><trkpt lat="44.74730985522901" lon="9.393651334203762"><ele>483.79999999999995</ele><time>2026-03-22T16:00:47.998Z</time></trkpt><trkpt lat="44.747335692053916" lon="9.393502656963575"><ele>478.59999999999997</ele><time>2026-03-22T16:00:48.998Z</time></trkpt><trkpt lat="44.74739068066758" lon="9.393382378618979"><ele>473.4</ele><time>2026-03-22T16:00:49.998Z</time></trkpt><trkpt lat="44.74747244873826" lon="9.393297096238317"><ele>468.2</ele><time>2026-03-22T16:00:50.998Z</time></trkpt><trkpt lat="44.747574813486054" lon="9.393269122875841"><ele>463.0</ele><time>2026-03-22T16:00:51.998Z</time></trkpt><trkpt lat="44.74768246268039" lon="9.39328151219754"><ele>461.75</ele><time>2026-03-22T16:00:52.998Z</time></trkpt><trkpt lat="44.74777990742481" lon="9.393212089106033"><ele>460.5</ele><time>2026-03-22T16:00:53.998Z</time></trkpt><trkpt lat="44.74787649136495" lon="9.393096968060815"><ele>459.25</ele><time>2026-03-22T16:00:54.998Z</time></trkpt><trkpt lat="44.747956874439396" lon="9.39292807151879"><ele>458.0</ele><time>2026-03-22T16:00:55.998Z</time></trkpt><trkpt lat="44.7480606585839" lon="9.392804718245301"><ele>458.0</ele><time>2026-03-22T16:00:56.998Z</time></trkpt><trkpt lat="44.74812836584528" lon="9.392682698755547"><ele>457.99999999999994</ele><time>2026-03-22T16:00:57.998Z</time></trkpt><trkpt lat="44.74818167250019" lon="9.392561120785029"><ele>457.99999999999994</ele><time>2026-03-22T16:00:58.998Z</time></trkpt><trkpt lat="44.74826338748904" lon="9.39246870837436"><ele>458.0</ele><time>2026-03-22T16:00:59.998Z</time></trkpt><trkpt lat="44.74837798462705" lon="9.392419575205649"><ele>458.0</ele><time>2026-03-22T16:01:00.998Z</time></trkpt><trkpt lat="44.7484743462152" lon="9.39235367448433"><ele>458.0</ele><time>2026-03-22T16:01:01.998Z</time></trkpt><trkpt lat="44.74851379480406" lon="9.392209665052317"><ele>457.99999999999994</ele><time>2026-03-22T16:01:02.998Z</time></trkpt><trkpt lat="44.748586695172456" lon="9.392130043196028"><ele>457.99999999999994</ele><time>2026-03-22T16:01:03.998Z</time></trkpt><trkpt lat="44.74867421509799" lon="9.392099644014715"><ele>458.0</ele><time>2026-03-22T16:01:04.998Z</time></trkpt><trkpt lat="44.74876036089572" lon="9.392133761185157"><ele>458.0</ele><time>2026-03-22T16:01:05.998Z</time></trkpt><trkpt lat="44.74879257148104" lon="9.392283741945928"><ele>459.79999999999995</ele><time>2026-03-22T16:01:06.998Z</time></trkpt><trkpt lat="44.74888403532947" lon="9.392372390442606"><ele>461.59999999999997</ele><time>2026-03-22T16:01:07.998Z</time></trkpt><trkpt lat="44.74896200780983" lon="9.392446068129656"><ele>463.40000000000003</ele><time>2026-03-22T16:01:08.998Z</time></trkpt><trkpt lat="44.74904456279426" lon="9.392468364020061"><ele>465.20000000000005</ele><time>2026-03-22T16:01:09.998Z</time></trkpt><trkpt lat="44.7491282172323" lon="9.392427062604305"><ele>467.0</ele><time>2026-03-22T16:01:10.998Z</time></trkpt><trkpt lat="44.749209311770116" lon="9.392309184409013"><ele>468.25</ele><time>2026-03-22T16:01:11.998Z</time></trkpt><trkpt lat="44.74925484725297" lon="9.392124134762948"><ele>469.5</ele><time>2026-03-22T16:01:12.998Z</time></trkpt><trkpt lat="44.749272123583175" lon="9.39192423401794"><ele>470.75</ele><time>2026-03-22T16:01:13.998Z</time></trkpt><trkpt lat="44.749322952299686" lon="9.391730603789957"><ele>472.0</ele><time>2026-03-22T16:01:14.998Z</time></trkpt><trkpt lat="44.74939359247275" lon="9.391573687056269"><ele>472.0</ele><time>2026-03-22T16:01:16Z</time></trkpt><trkpt lat="44.74946759822334" lon="9.391419966886009"><ele>472.0</ele><time>2026-03-22T16:01:17Z</time></trkpt><trkpt lat="44.74946995332163" lon="9.39120733618097"><ele>472.0</ele><time>2026-03-22T16:01:18Z</time></trkpt><trkpt lat="44.74947568220508" lon="9.390984931663253"><ele>472.0</ele><time>2026-03-22T16:01:19Z</time></trkpt><trkpt lat="44.74948977111759" lon="9.390785169988899"><ele>468.25</ele><time>2026-03-22T16:01:20Z</time></trkpt><trkpt lat="44.749553549461695" lon="9.390607595396945"><ele>464.5</ele><time>2026-03-22T16:01:21Z</time></trkpt><trkpt lat="44.74960813413869" lon="9.390439932122822"><ele>460.75</ele><time>2026-03-22T16:01:22Z</time></trkpt><trkpt lat="44.749631668602284" lon="9.390262856851322"><ele>457.0</ele><time>2026-03-22T16:01:23Z</time></trkpt><trkpt lat="44.74962556026221" lon="9.39006502605529"><ele>452.5</ele><time>2026-03-22T16:01:24Z</time></trkpt><trkpt lat="44.749606892765755" lon="9.389869604432258"><ele>448.0</ele><time>2026-03-22T16:01:25Z</time></trkpt><trkpt lat="44.74959411163281" lon="9.389690606461398"><ele>443.5</ele><time>2026-03-22T16:01:26Z</time></trkpt><trkpt lat="44.74958338176744" lon="9.389526165406501"><ele>439.0</ele><time>2026-03-22T16:01:27Z</time></trkpt><trkpt lat="44.749597136971104" lon="9.38938431677747"><ele>435.2</ele><time>2026-03-22T16:01:28Z</time></trkpt><trkpt lat="44.7496551121195" lon="9.389274811469706"><ele>431.4</ele><time>2026-03-22T16:01:29Z</time></trkpt><trkpt lat="44.74974248474481" lon="9.38917713994031"><ele>427.6</ele><time>2026-03-22T16:01:30Z</time></trkpt><trkpt lat="44.749863601751635" lon="9.389186091921188"><ele>423.8</ele><time>2026-03-22T16:01:31Z</time></trkpt><trkpt lat="44.74996265580046" lon="9.389252225289356"><ele>420.0</ele><time>2026-03-22T16:01:32Z</time></trkpt><trkpt lat="44.75006752653144" lon="9.389361664888956"><ele>420.0</ele><time>2026-03-22T16:01:33Z</time></trkpt><trkpt lat="44.750172095949125" lon="9.389443240135039"><ele>420.0</ele><time>2026-03-22T16:01:34Z</time></trkpt><trkpt lat="44.75031742441933" lon="9.389457238573598"><ele>420.0</ele><time>2026-03-22T16:01:35Z</time></trkpt><trkpt lat="44.750478861498436" lon="9.389423727107035"><ele>420.0</ele><time>2026-03-22T16:01:36Z</time></trkpt><trkpt lat="44.75062360302906" lon="9.38939333632127"><ele>420.5</ele><time>2026-03-22T16:01:36.999Z</time></trkpt><trkpt lat="44.750750055899985" lon="9.389376705852925"><ele>421.0</ele><time>2026-03-22T16:01:37.999Z</time></trkpt><trkpt lat="44.75086142085742" lon="9.38935364835995"><ele>421.5</ele><time>2026-03-22T16:01:38.999Z</time></trkpt><trkpt lat="44.75095537922441" lon="9.38928558191894"><ele>422.0</ele><time>2026-03-22T16:01:39.999Z</time></trkpt><trkpt lat="44.751041395260046" lon="9.38915182707537"><ele>422.0</ele><time>2026-03-22T16:01:40.999Z</time></trkpt><trkpt lat="44.751065464959744" lon="9.38897446680611"><ele>422.0</ele><time>2026-03-22T16:01:41.999Z</time></trkpt><trkpt lat="44.751128875449616" lon="9.38881302765655"><ele>422.0</ele><time>2026-03-22T16:01:42.999Z</time></trkpt><trkpt lat="44.751192690315456" lon="9.388685188600249"><ele>422.0</ele><time>2026-03-22T16:01:43.999Z</time></trkpt><trkpt lat="44.75124125119247" lon="9.388583324192988"><ele>418.0</ele><time>2026-03-22T16:01:44.999Z</time></trkpt><trkpt lat="44.75128461921798" lon="9.388486512357181"><ele>414.0</ele><time>2026-03-22T16:01:45.999Z</time></trkpt><trkpt lat="44.751293288353544" lon="9.388372721265483"><ele>410.0</ele><time>2026-03-22T16:01:46.999Z</time></trkpt><trkpt lat="44.75122850130586" lon="9.388233809497137"><ele>406.0</ele><time>2026-03-22T16:01:47.999Z</time></trkpt><trkpt lat="44.75113843024324" lon="9.388125523404485"><ele>402.0</ele><time>2026-03-22T16:01:48.999Z</time></trkpt><trkpt lat="44.7510558659994" lon="9.388061208138954"><ele>400.75</ele><time>2026-03-22T16:01:49.999Z</time></trkpt><trkpt lat="44.75097318918943" lon="9.388007464547139"><ele>399.5</ele><time>2026-03-22T16:01:50.999Z</time></trkpt><trkpt lat="44.75085214939098" lon="9.388046910278447"><ele>398.25</ele><time>2026-03-22T16:01:51.999Z</time></trkpt><trkpt lat="44.75075468068112" lon="9.388241385843346"><ele>397.0</ele><time>2026-03-22T16:01:52.999Z</time></trkpt><trkpt lat="44.75065207350247" lon="9.388407988918493"><ele>399.40000000000003</ele><time>2026-03-22T16:01:54.999Z</time></trkpt><trkpt lat="44.75053554692556" lon="9.388425471359694"><ele>401.8</ele><time>2026-03-22T16:01:55.999Z</time></trkpt><trkpt lat="44.75042405463526" lon="9.388413431492872"><ele>404.2</ele><time>2026-03-22T16:01:56.999Z</time></trkpt><trkpt lat="44.750321703186025" lon="9.388392767110355"><ele>406.6</ele><time>2026-03-22T16:01:57.999Z</time></trkpt><trkpt lat="44.750229701725765" lon="9.388364240752034"><ele>409.0</ele><time>2026-03-22T16:01:58.999Z</time></trkpt><trkpt lat="44.750173547170334" lon="9.388272994522168"><ele>409.0</ele><time>2026-03-22T16:01:59.999Z</time></trkpt><trkpt lat="44.750181230039374" lon="9.388145962040996"><ele>409.0</ele><time>2026-03-22T16:02:00.999Z</time></trkpt><trkpt lat="44.750271345358854" lon="9.388083010612917"><ele>409.0</ele><time>2026-03-22T16:02:01.999Z</time></trkpt><trkpt lat="44.75037366637817" lon="9.388160634110674"><ele>409.0</ele><time>2026-03-22T16:02:02.999Z</time></trkpt><trkpt lat="44.750487234379236" lon="9.388150906554538"><ele>409.0</ele><time>2026-03-22T16:02:03.999Z</time></trkpt><trkpt lat="44.750589185283594" lon="9.388073300978856"><ele>406.0</ele><time>2026-03-22T16:02:04.999Z</time></trkpt><trkpt lat="44.75065996076481" lon="9.387901208016276"><ele>403.0</ele><time>2026-03-22T16:02:05.999Z</time></trkpt><trkpt lat="44.750717527820896" lon="9.387698965230081"><ele>400.0</ele><time>2026-03-22T16:02:06.999Z</time></trkpt><trkpt lat="44.7507738384198" lon="9.38754110483616"><ele>397.0</ele><time>2026-03-22T16:02:07.999Z</time></trkpt><trkpt lat="44.750850053268714" lon="9.387410481761448"><ele>397.0</ele><time>2026-03-22T16:02:08.999Z</time></trkpt><trkpt lat="44.75097353826737" lon="9.387320658623198"><ele>397.0</ele><time>2026-03-22T16:02:09.999Z</time></trkpt><trkpt lat="44.75110256019892" lon="9.387284858588798"><ele>397.0</ele><time>2026-03-22T16:02:10.999Z</time></trkpt><trkpt lat="44.75122296197574" lon="9.387322611195259"><ele>397.0</ele><time>2026-03-22T16:02:11.999Z</time></trkpt><trkpt lat="44.75133558083495" lon="9.38742194291581"><ele>391.6666666666667</ele><time>2026-03-22T16:02:12.999Z</time></trkpt><trkpt lat="44.75144981531313" lon="9.387578356757736"><ele>386.33333333333337</ele><time>2026-03-22T16:02:13.999Z</time></trkpt><trkpt lat="44.75156207668458" lon="9.387755924793307"><ele>381.0</ele><time>2026-03-22T16:02:14.999Z</time></trkpt><trkpt lat="44.75163834721182" lon="9.387983777035798"><ele>380.75</ele><time>2026-03-22T16:02:15.999Z</time></trkpt><trkpt lat="44.75175684974422" lon="9.388131458816968"><ele>380.5</ele><time>2026-03-22T16:02:16.999Z</time></trkpt><trkpt lat="44.75187678369219" lon="9.388259224864271"><ele>380.25</ele><time>2026-03-22T16:02:17.999Z</time></trkpt><trkpt lat="44.75199168520039" lon="9.3883707469785"><ele>380.0</ele><time>2026-03-22T16:02:18.999Z</time></trkpt><trkpt lat="44.75208609415136" lon="9.388461628558243"><ele>380.0</ele><time>2026-03-22T16:02:19.998Z</time></trkpt><trkpt lat="44.752162917646835" lon="9.388527368651433"><ele>380.0</ele><time>2026-03-22T16:02:20.998Z</time></trkpt><trkpt lat="44.752250485740156" lon="9.388537347409754"><ele>380.0</ele><time>2026-03-22T16:02:21.998Z</time></trkpt><trkpt lat="44.75232296214506" lon="9.38851847238603"><ele>380.0</ele><time>2026-03-22T16:02:22.998Z</time></trkpt><trkpt lat="44.752358756903774" lon="9.388402006046618"><ele>380.0</ele><time>2026-03-22T16:02:23.998Z</time></trkpt><trkpt lat="44.75235830676312" lon="9.388298689445849"><ele>380.0</ele><time>2026-03-22T16:02:24.998Z</time></trkpt><trkpt lat="44.752331445755885" lon="9.388215533749078"><ele>380.0</ele><time>2026-03-22T16:02:25.998Z</time></trkpt><trkpt lat="44.75211745945423" lon="9.388123196532224"><ele>380.0</ele><time>2026-03-22T16:02:26.998Z</time></trkpt><trkpt lat="44.752009631769745" lon="9.388026483374825"><ele>380.0</ele><time>2026-03-22T16:02:27.998Z</time></trkpt><trkpt lat="44.75189960152483" lon="9.387922587408564"><ele>380.25</ele><time>2026-03-22T16:02:28.998Z</time></trkpt><trkpt lat="44.75179452050206" lon="9.387796450599565"><ele>380.5</ele><time>2026-03-22T16:02:29.998Z</time></trkpt><trkpt lat="44.751721792641646" lon="9.387613479592794"><ele>380.75</ele><time>2026-03-22T16:02:30.998Z</time></trkpt><trkpt lat="44.75165457700091" lon="9.387424314386928"><ele>381.0</ele><time>2026-03-22T16:02:31.998Z</time></trkpt><trkpt lat="44.75158285580154" lon="9.387249492594544"><ele>376.5</ele><time>2026-03-22T16:02:32.998Z</time></trkpt><trkpt lat="44.751505105031015" lon="9.387108039820712"><ele>372.0</ele><time>2026-03-22T16:02:33.998Z</time></trkpt><trkpt lat="44.75140516129892" lon="9.386983898189165"><ele>367.5</ele><time>2026-03-22T16:02:34.998Z</time></trkpt><trkpt lat="44.751274453421104" lon="9.386869158348063"><ele>363.0</ele><time>2026-03-22T16:02:35.998Z</time></trkpt><trkpt lat="44.751129594764556" lon="9.386758709782361"><ele>367.25</ele><time>2026-03-22T16:02:36.998Z</time></trkpt><trkpt lat="44.75099214805785" lon="9.386652585566631"><ele>371.5</ele><time>2026-03-22T16:02:37.998Z</time></trkpt><trkpt lat="44.75087246306809" lon="9.386548467671387"><ele>375.75</ele><time>2026-03-22T16:02:38.998Z</time></trkpt><trkpt lat="44.75076711606044" lon="9.386451949288599"><ele>380.0</ele><time>2026-03-22T16:02:39.998Z</time></trkpt><trkpt lat="44.75065781440955" lon="9.386363615824916"><ele>376.25</ele><time>2026-03-22T16:02:40.998Z</time></trkpt><trkpt lat="44.750544061588634" lon="9.386279138893144"><ele>372.5</ele><time>2026-03-22T16:02:41.998Z</time></trkpt><trkpt lat="44.75042601057044" lon="9.38620418269189"><ele>368.75</ele><time>2026-03-22T16:02:42.998Z</time></trkpt><trkpt lat="44.7503158155026" lon="9.386113648675545"><ele>365.0</ele><time>2026-03-22T16:02:43.998Z</time></trkpt><trkpt lat="44.75020907816254" lon="9.386045744998222"><ele>364.0</ele><time>2026-03-22T16:02:44.998Z</time></trkpt><trkpt lat="44.75011656059855" lon="9.385973488551489"><ele>363.0</ele><time>2026-03-22T16:02:45.998Z</time></trkpt><trkpt lat="44.75004389896273" lon="9.385879178804009"><ele>362.0</ele><time>2026-03-22T16:02:46.998Z</time></trkpt><trkpt lat="44.750034216795655" lon="9.385722806076608"><ele>361.0</ele><time>2026-03-22T16:02:47.998Z</time></trkpt><trkpt lat="44.750071938121415" lon="9.385550373295969"><ele>360.0</ele><time>2026-03-22T16:02:48.998Z</time></trkpt><trkpt lat="44.75012922589327" lon="9.385393548444481"><ele>359.0</ele><time>2026-03-22T16:02:49.998Z</time></trkpt><trkpt lat="44.750192614525346" lon="9.38526357368731"><ele>358.0</ele><time>2026-03-22T16:02:50.998Z</time></trkpt><trkpt lat="44.7502609580016" lon="9.385154288247056"><ele>357.0</ele><time>2026-03-22T16:02:51.998Z</time></trkpt><trkpt lat="44.7503747647561" lon="9.385127649089462"><ele>356.0</ele><time>2026-03-22T16:02:52.998Z</time></trkpt><trkpt lat="44.75047954395843" lon="9.385126447653635"><ele>355.0</ele><time>2026-03-22T16:02:53.998Z</time></trkpt><trkpt lat="44.75057149093984" lon="9.385168406163345"><ele>353.75</ele><time>2026-03-22T16:02:54.998Z</time></trkpt><trkpt lat="44.750640266451306" lon="9.385283805621299"><ele>352.5</ele><time>2026-03-22T16:02:55.998Z</time></trkpt><trkpt lat="44.750713194586694" lon="9.38543225459253"><ele>351.25</ele><time>2026-03-22T16:02:56.998Z</time></trkpt><trkpt lat="44.75076083992524" lon="9.385608753497408"><ele>350.0</ele><time>2026-03-22T16:02:57.998Z</time></trkpt><trkpt lat="44.75082184255506" lon="9.385788927789118"><ele>349.25</ele><time>2026-03-22T16:02:58.998Z</time></trkpt><trkpt lat="44.75091091529848" lon="9.385930996040248"><ele>348.5</ele><time>2026-03-22T16:02:59.998Z</time></trkpt><trkpt lat="44.75102897243279" lon="9.386054561315126"><ele>347.75</ele><time>2026-03-22T16:03:00.998Z</time></trkpt><trkpt lat="44.751172193618316" lon="9.386135717400686"><ele>347.0</ele><time>2026-03-22T16:03:01.998Z</time></trkpt><trkpt lat="44.751315704871786" lon="9.386202477073327"><ele>347.0</ele><time>2026-03-22T16:03:02.998Z</time></trkpt><trkpt lat="44.75143977537553" lon="9.386267177190014"><ele>347.0</ele><time>2026-03-22T16:03:03.997Z</time></trkpt><trkpt lat="44.7515591398928" lon="9.386332291600008"><ele>347.0</ele><time>2026-03-22T16:03:04.997Z</time></trkpt><trkpt lat="44.7516838847621" lon="9.38638648870411"><ele>347.0</ele><time>2026-03-22T16:03:05.997Z</time></trkpt><trkpt lat="44.75181211531021" lon="9.38641304256814"><ele>347.75</ele><time>2026-03-22T16:03:06.997Z</time></trkpt><trkpt lat="44.751943166438295" lon="9.386417352886228"><ele>348.5</ele><time>2026-03-22T16:03:07.997Z</time></trkpt><trkpt lat="44.75207631147022" lon="9.386441962054034"><ele>349.25</ele><time>2026-03-22T16:03:08.997Z</time></trkpt><trkpt lat="44.752187841232185" lon="9.38654469270771"><ele>350.0</ele><time>2026-03-22T16:03:09.997Z</time></trkpt><trkpt lat="44.75230602837175" lon="9.38664805835993"><ele>350.0</ele><time>2026-03-22T16:03:10.997Z</time></trkpt><trkpt lat="44.752425122833934" lon="9.386733085490986"><ele>350.0</ele><time>2026-03-22T16:03:11.997Z</time></trkpt><trkpt lat="44.75253744793395" lon="9.386815935625672"><ele>350.0</ele><time>2026-03-22T16:03:12.997Z</time></trkpt><trkpt lat="44.75267247845806" lon="9.386851029982296"><ele>350.0</ele><time>2026-03-22T16:03:13.997Z</time></trkpt><trkpt lat="44.75282625035467" lon="9.386830879191868"><ele>347.0</ele><time>2026-03-22T16:03:14.997Z</time></trkpt><trkpt lat="44.752963153403606" lon="9.386791076598039"><ele>344.0</ele><time>2026-03-22T16:03:15.997Z</time></trkpt><trkpt lat="44.75309764072017" lon="9.386782078778314"><ele>341.0</ele><time>2026-03-22T16:03:16.997Z</time></trkpt><trkpt lat="44.75324066676921" lon="9.386814151027934"><ele>338.0</ele><time>2026-03-22T16:03:17.997Z</time></trkpt><trkpt lat="44.75337289608419" lon="9.386919965154297"><ele>338.0</ele><time>2026-03-22T16:03:18.997Z</time></trkpt><trkpt lat="44.75350337486318" lon="9.386980825177028"><ele>338.0</ele><time>2026-03-22T16:03:19.997Z</time></trkpt><trkpt lat="44.753622818103494" lon="9.387068577637242"><ele>338.0</ele><time>2026-03-22T16:03:20.997Z</time></trkpt><trkpt lat="44.75371658651826" lon="9.387192334739416"><ele>338.0</ele><time>2026-03-22T16:03:22Z</time></trkpt><trkpt lat="44.75379794908284" lon="9.387319246819017"><ele>336.25</ele><time>2026-03-22T16:03:23Z</time></trkpt><trkpt lat="44.75388641457295" lon="9.387448442949932"><ele>334.5</ele><time>2026-03-22T16:03:24Z</time></trkpt><trkpt lat="44.75398242531723" lon="9.387561168290764"><ele>332.75</ele><time>2026-03-22T16:03:25Z</time></trkpt><trkpt lat="44.75405510776051" lon="9.38767586779984"><ele>331.0</ele><time>2026-03-22T16:03:26Z</time></trkpt><trkpt lat="44.75411835135865" lon="9.38777130870709"><ele>331.0</ele><time>2026-03-22T16:03:27Z</time></trkpt><trkpt lat="44.754170189081655" lon="9.387844767118564"><ele>331.0</ele><time>2026-03-22T16:03:28Z</time></trkpt><trkpt lat="44.75428965926372" lon="9.387846858718136"><ele>331.0</ele><time>2026-03-22T16:03:30Z</time></trkpt><trkpt lat="44.75437714289639" lon="9.387703601621936"><ele>331.0</ele><time>2026-03-22T16:03:31Z</time></trkpt><trkpt lat="44.75447039339663" lon="9.387587715261647"><ele>329.4</ele><time>2026-03-22T16:03:32Z</time></trkpt><trkpt lat="44.754566675178154" lon="9.387490293855468"><ele>327.8</ele><time>2026-03-22T16:03:33Z</time></trkpt><trkpt lat="44.75465084135307" lon="9.387396211124065"><ele>326.2</ele><time>2026-03-22T16:03:34Z</time></trkpt><trkpt lat="44.75472578025683" lon="9.38731313301353"><ele>324.59999999999997</ele><time>2026-03-22T16:03:35Z</time></trkpt><trkpt lat="44.75481268152496" lon="9.38729588111655"><ele>323.0</ele><time>2026-03-22T16:03:36Z</time></trkpt><trkpt lat="44.75489482563868" lon="9.387359957927867"><ele>323.0</ele><time>2026-03-22T16:03:37Z</time></trkpt><trkpt lat="44.75486929689766" lon="9.387518547093114"><ele>323.0</ele><time>2026-03-22T16:03:38Z</time></trkpt><trkpt lat="44.75490184835561" lon="9.387690920268673"><ele>323.0</ele><time>2026-03-22T16:03:39Z</time></trkpt><trkpt lat="44.75497404713947" lon="9.387851286791037"><ele>323.0</ele><time>2026-03-22T16:03:40Z</time></trkpt><trkpt lat="44.755053225469865" lon="9.388000629505083"><ele>321.33333333333337</ele><time>2026-03-22T16:03:41Z</time></trkpt><trkpt lat="44.75518242344969" lon="9.388109612731983"><ele>319.6666666666667</ele><time>2026-03-22T16:03:42Z</time></trkpt><trkpt lat="44.75532955325899" lon="9.388193696474827"><ele>318.0</ele><time>2026-03-22T16:03:43Z</time></trkpt><trkpt lat="44.75547251793732" lon="9.388271306715993"><ele>318.0</ele><time>2026-03-22T16:03:44Z</time></trkpt><trkpt lat="44.75560784955037" lon="9.388347379721209"><ele>318.0</ele><time>2026-03-22T16:03:45Z</time></trkpt><trkpt lat="44.75574087468185" lon="9.388423708410109"><ele>318.0</ele><time>2026-03-22T16:03:46Z</time></trkpt><trkpt lat="44.75586538294168" lon="9.388502598804077"><ele>318.0</ele><time>2026-03-22T16:03:47Z</time></trkpt><trkpt lat="44.75598310928854" lon="9.388571679087306"><ele>317.5</ele><time>2026-03-22T16:03:48Z</time></trkpt><trkpt lat="44.75610314165017" lon="9.388643410688564"><ele>317.0</ele><time>2026-03-22T16:03:49Z</time></trkpt><trkpt lat="44.75621338276981" lon="9.388719094143605"><ele>316.5</ele><time>2026-03-22T16:03:50Z</time></trkpt><trkpt lat="44.75630966372391" lon="9.388835706413099"><ele>316.0</ele><time>2026-03-22T16:03:51Z</time></trkpt><trkpt lat="44.75641728794567" lon="9.388949995024035"><ele>316.0</ele><time>2026-03-22T16:03:52Z</time></trkpt><trkpt lat="44.75653142523089" lon="9.389054075670003"><ele>316.0</ele><time>2026-03-22T16:03:53Z</time></trkpt><trkpt lat="44.756640476222216" lon="9.389172701874145"><ele>316.0</ele><time>2026-03-22T16:03:54Z</time></trkpt><trkpt lat="44.756755442059344" lon="9.389285344308366"><ele>316.0</ele><time>2026-03-22T16:03:54.999Z</time></trkpt><trkpt lat="44.75687032189047" lon="9.389398300343403"><ele>312.75</ele><time>2026-03-22T16:03:55.999Z</time></trkpt><trkpt lat="44.75699591116096" lon="9.389492081771749"><ele>309.5</ele><time>2026-03-22T16:03:56.999Z</time></trkpt><trkpt lat="44.75713258147799" lon="9.389543221465546"><ele>306.25</ele><time>2026-03-22T16:03:57.999Z</time></trkpt><trkpt lat="44.757279062801665" lon="9.389551204503833"><ele>303.0</ele><time>2026-03-22T16:03:58.999Z</time></trkpt><trkpt lat="44.757425305555046" lon="9.389539305858287"><ele>303.0</ele><time>2026-03-22T16:03:59.999Z</time></trkpt><trkpt lat="44.75757603246863" lon="9.389542044148378"><ele>303.0</ele><time>2026-03-22T16:04:00.999Z</time></trkpt><trkpt lat="44.757719281048374" lon="9.389567253938932"><ele>303.0</ele><time>2026-03-22T16:04:01.999Z</time></trkpt><trkpt lat="44.75785805907409" lon="9.389599399382938"><ele>303.0</ele><time>2026-03-22T16:04:02.999Z</time></trkpt><trkpt lat="44.75798902422843" lon="9.38963115785244"><ele>303.0</ele><time>2026-03-22T16:04:03.999Z</time></trkpt><trkpt lat="44.75811481196248" lon="9.389662728092437"><ele>303.0</ele><time>2026-03-22T16:04:04.999Z</time></trkpt><trkpt lat="44.75823425630025" lon="9.389693485783754"><ele>303.0</ele><time>2026-03-22T16:04:05.999Z</time></trkpt><trkpt lat="44.7583510187598" lon="9.38972718426428"><ele>303.0</ele><time>2026-03-22T16:04:06.999Z</time></trkpt><trkpt lat="44.75846228601387" lon="9.389759004538554"><ele>301.0</ele><time>2026-03-22T16:04:07.999Z</time></trkpt><trkpt lat="44.75856714791037" lon="9.389784502435038"><ele>299.0</ele><time>2026-03-22T16:04:08.999Z</time></trkpt><trkpt lat="44.758662664595825" lon="9.389806474632211"><ele>297.0</ele><time>2026-03-22T16:04:09.999Z</time></trkpt><trkpt lat="44.758739743684224" lon="9.389762469763127"><ele>295.0</ele><time>2026-03-22T16:04:10.999Z</time></trkpt><trkpt lat="44.75881397765671" lon="9.389719958380088"><ele>293.0</ele><time>2026-03-22T16:04:11.999Z</time></trkpt><trkpt lat="44.75884438870762" lon="9.389580480259887"><ele>293.0</ele><time>2026-03-22T16:04:12.999Z</time></trkpt><trkpt lat="44.758825984686176" lon="9.389398014370064"><ele>293.0</ele><time>2026-03-22T16:04:13.999Z</time></trkpt><trkpt lat="44.75875224264766" lon="9.389221169207849"><ele>293.0</ele><time>2026-03-22T16:04:14.999Z</time></trkpt><trkpt lat="44.75863721456396" lon="9.389055366726028"><ele>293.0</ele><time>2026-03-22T16:04:15.999Z</time></trkpt><trkpt lat="44.75851518547111" lon="9.388889143585471"><ele>290.6666666666667</ele><time>2026-03-22T16:04:16.999Z</time></trkpt><trkpt lat="44.75840541083294" lon="9.388702073046188"><ele>288.3333333333333</ele><time>2026-03-22T16:04:17.999Z</time></trkpt><trkpt lat="44.758322809152816" lon="9.388504533559917"><ele>286.0</ele><time>2026-03-22T16:04:18.999Z</time></trkpt><trkpt lat="44.7582641011412" lon="9.388298907135237"><ele>286.0</ele><time>2026-03-22T16:04:19.999Z</time></trkpt><trkpt lat="44.75822226206969" lon="9.388096881191025"><ele>286.0</ele><time>2026-03-22T16:04:20.999Z</time></trkpt><trkpt lat="44.758195263849295" lon="9.387929744774425"><ele>286.0</ele><time>2026-03-22T16:04:21.999Z</time></trkpt><trkpt lat="44.758164417253994" lon="9.387791249164634"><ele>286.0</ele><time>2026-03-22T16:04:22.999Z</time></trkpt><trkpt lat="44.75808050113115" lon="9.387679490965393"><ele>285.5</ele><time>2026-03-22T16:04:23.999Z</time></trkpt><trkpt lat="44.757943927371" lon="9.387596462889896"><ele>285.0</ele><time>2026-03-22T16:04:24.999Z</time></trkpt><trkpt lat="44.7578049189417" lon="9.387524663964586"><ele>284.5</ele><time>2026-03-22T16:04:25.999Z</time></trkpt><trkpt lat="44.757680954153166" lon="9.38744859124122"><ele>284.0</ele><time>2026-03-22T16:04:26.999Z</time></trkpt><trkpt lat="44.75756934389784" lon="9.387368016611997"><ele>284.0</ele><time>2026-03-22T16:04:27.999Z</time></trkpt><trkpt lat="44.75746500280231" lon="9.387294274794423"><ele>284.0</ele><time>2026-03-22T16:04:28.999Z</time></trkpt><trkpt lat="44.7573584165105" lon="9.387217915168923"><ele>284.0</ele><time>2026-03-22T16:04:29.999Z</time></trkpt><trkpt lat="44.757255224320915" lon="9.387111155601476"><ele>284.0</ele><time>2026-03-22T16:04:30.999Z</time></trkpt><trkpt lat="44.757146149537114" lon="9.387012017018082"><ele>282.0</ele><time>2026-03-22T16:04:31.999Z</time></trkpt><trkpt lat="44.757053771336" lon="9.386885796704629"><ele>280.0</ele><time>2026-03-22T16:04:32.999Z</time></trkpt><trkpt lat="44.756994285520754" lon="9.386702735520556"><ele>278.0</ele><time>2026-03-22T16:04:33.999Z</time></trkpt><trkpt lat="44.75694940381868" lon="9.38653468658397"><ele>276.0</ele><time>2026-03-22T16:04:34.999Z</time></trkpt><trkpt lat="44.75690124041563" lon="9.386389976536684"><ele>276.25</ele><time>2026-03-22T16:04:35.999Z</time></trkpt><trkpt lat="44.756820552010886" lon="9.386260133622137"><ele>276.5</ele><time>2026-03-22T16:04:36.999Z</time></trkpt><trkpt lat="44.756705002054005" lon="9.38614999445746"><ele>276.75</ele><time>2026-03-22T16:04:37.998Z</time></trkpt><trkpt lat="44.75658697010723" lon="9.386031133636221"><ele>277.0</ele><time>2026-03-22T16:04:38.998Z</time></trkpt><trkpt lat="44.75648583102524" lon="9.38594072312032"><ele>277.0</ele><time>2026-03-22T16:04:39.998Z</time></trkpt><trkpt lat="44.75644139055007" lon="9.385798535528624"><ele>277.0</ele><time>2026-03-22T16:04:40.998Z</time></trkpt><trkpt lat="44.75644619272791" lon="9.385645440179214"><ele>277.0</ele><time>2026-03-22T16:04:41.998Z</time></trkpt><trkpt lat="44.75648285825997" lon="9.385478787829461"><ele>277.0</ele><time>2026-03-22T16:04:42.998Z</time></trkpt><trkpt lat="44.756476581014844" lon="9.385284319433335"><ele>275.5</ele><time>2026-03-22T16:04:43.998Z</time></trkpt><trkpt lat="44.75647158156352" lon="9.385087630276693"><ele>274.0</ele><time>2026-03-22T16:04:44.998Z</time></trkpt><trkpt lat="44.756417455337065" lon="9.384901971264918"><ele>272.5</ele><time>2026-03-22T16:04:45.998Z</time></trkpt><trkpt lat="44.75633181329264" lon="9.384741960701945"><ele>271.0</ele><time>2026-03-22T16:04:46.998Z</time></trkpt><trkpt lat="44.75622519436913" lon="9.384618555208196"><ele>269.5</ele><time>2026-03-22T16:04:47.998Z</time></trkpt><trkpt lat="44.75612878079271" lon="9.384542072493595"><ele>268.0</ele><time>2026-03-22T16:04:48.998Z</time></trkpt><trkpt lat="44.756028316299115" lon="9.38447927283884"><ele>266.5</ele><time>2026-03-22T16:04:49.998Z</time></trkpt><trkpt lat="44.75586241812905" lon="9.384479310270885"><ele>265.0</ele><time>2026-03-22T16:04:50.998Z</time></trkpt><trkpt lat="44.755692795576415" lon="9.384482845314437"><ele>265.0</ele><time>2026-03-22T16:04:51.998Z</time></trkpt><trkpt lat="44.75555425558554" lon="9.3844627748651"><ele>265.0</ele><time>2026-03-22T16:04:52.998Z</time></trkpt><trkpt lat="44.75543107334304" lon="9.384428468797147"><ele>265.0</ele><time>2026-03-22T16:04:53.998Z</time></trkpt><trkpt lat="44.755322556889354" lon="9.384387040279936"><ele>265.0</ele><time>2026-03-22T16:04:54.998Z</time></trkpt><trkpt lat="44.75523025469129" lon="9.384349090501024"><ele>265.5</ele><time>2026-03-22T16:04:55.998Z</time></trkpt><trkpt lat="44.755149376760784" lon="9.384316770082975"><ele>266.0</ele><time>2026-03-22T16:04:56.998Z</time></trkpt><trkpt lat="44.75508309908942" lon="9.384288961193617"><ele>266.5</ele><time>2026-03-22T16:04:57.998Z</time></trkpt><trkpt lat="44.755020343057424" lon="9.384207250837328"><ele>267.0</ele><time>2026-03-22T16:04:59.998Z</time></trkpt><trkpt lat="44.75501839379896" lon="9.384116881774716"><ele>267.5</ele><time>2026-03-22T16:05:00.998Z</time></trkpt><trkpt lat="44.755082614613876" lon="9.38399340651458"><ele>268.0</ele><time>2026-03-22T16:05:01.998Z</time></trkpt><trkpt lat="44.75513491724617" lon="9.383852078092875"><ele>266.0</ele><time>2026-03-22T16:05:02.998Z</time></trkpt><trkpt lat="44.755191032906936" lon="9.383698542481284"><ele>264.0</ele><time>2026-03-22T16:05:03.998Z</time></trkpt><trkpt lat="44.75524743487617" lon="9.383543526447314"><ele>262.0</ele><time>2026-03-22T16:05:04.998Z</time></trkpt><trkpt lat="44.755306757012946" lon="9.383380484655474"><ele>260.0</ele><time>2026-03-22T16:05:05.998Z</time></trkpt><trkpt lat="44.75536846089077" lon="9.383210896721465"><ele>259.75</ele><time>2026-03-22T16:05:06.998Z</time></trkpt><trkpt lat="44.755428671135576" lon="9.38304541407407"><ele>259.5</ele><time>2026-03-22T16:05:07.998Z</time></trkpt><trkpt lat="44.75548857477702" lon="9.382880773901839"><ele>259.25</ele><time>2026-03-22T16:05:08.998Z</time></trkpt><trkpt lat="44.755540802773425" lon="9.382737229725725"><ele>259.0</ele><time>2026-03-22T16:05:09.998Z</time></trkpt><trkpt lat="44.7556010919243" lon="9.38261708389144"><ele>260.5</ele><time>2026-03-22T16:05:10.998Z</time></trkpt><trkpt lat="44.75565439624253" lon="9.382491169423298"><ele>262.0</ele><time>2026-03-22T16:05:11.998Z</time></trkpt><trkpt lat="44.75573716231019" lon="9.382359410912896"><ele>263.5</ele><time>2026-03-22T16:05:12.998Z</time></trkpt><trkpt lat="44.75587145916148" lon="9.382308258816115"><ele>265.0</ele><time>2026-03-22T16:05:13.998Z</time></trkpt><trkpt lat="44.75600544960822" lon="9.382284848794454"><ele>265.0</ele><time>2026-03-22T16:05:14.998Z</time></trkpt><trkpt lat="44.75613177037799" lon="9.382283568448283"><ele>265.0</ele><time>2026-03-22T16:05:15.998Z</time></trkpt><trkpt lat="44.756251922825065" lon="9.38227120186537"><ele>265.0</ele><time>2026-03-22T16:05:16.998Z</time></trkpt><trkpt lat="44.756361763677056" lon="9.382248669195135"><ele>265.0</ele><time>2026-03-22T16:05:17.998Z</time></trkpt><trkpt lat="44.75644224500981" lon="9.38218240526685"><ele>265.0</ele><time>2026-03-22T16:05:18.998Z</time></trkpt><trkpt lat="44.75650706735916" lon="9.382145683868895"><ele>265.0</ele><time>2026-03-22T16:05:19.998Z</time></trkpt><trkpt lat="44.75665866202259" lon="9.382182297611633"><ele>265.0</ele><time>2026-03-22T16:05:21.997Z</time></trkpt><trkpt lat="44.75677742151146" lon="9.382157336698837"><ele>265.0</ele><time>2026-03-22T16:05:22.997Z</time></trkpt><trkpt lat="44.7569059543208" lon="9.38214857157169"><ele>266.3333333333333</ele><time>2026-03-22T16:05:23.997Z</time></trkpt><trkpt lat="44.757046805167455" lon="9.382145979645122"><ele>267.6666666666667</ele><time>2026-03-22T16:05:24.997Z</time></trkpt><trkpt lat="44.75719926227695" lon="9.38212582819014"><ele>269.0</ele><time>2026-03-22T16:05:25.997Z</time></trkpt><trkpt lat="44.75736092345449" lon="9.382096089430826"><ele>269.0</ele><time>2026-03-22T16:05:26.997Z</time></trkpt><trkpt lat="44.75753325991139" lon="9.382062805158197"><ele>269.0</ele><time>2026-03-22T16:05:28Z</time></trkpt><trkpt lat="44.757704030981714" lon="9.382033023630092"><ele>269.0</ele><time>2026-03-22T16:05:29Z</time></trkpt><trkpt lat="44.75785419852153" lon="9.382003238177862"><ele>268.5</ele><time>2026-03-22T16:05:30Z</time></trkpt><trkpt lat="44.75799906896261" lon="9.381976212339834"><ele>268.0</ele><time>2026-03-22T16:05:31Z</time></trkpt><trkpt lat="44.758138575621295" lon="9.381949163572886"><ele>267.5</ele><time>2026-03-22T16:05:32Z</time></trkpt><trkpt lat="44.758282219408244" lon="9.381925218972128"><ele>267.0</ele><time>2026-03-22T16:05:33Z</time></trkpt><trkpt lat="44.75842866476825" lon="9.38190013104972"><ele>266.75</ele><time>2026-03-22T16:05:34Z</time></trkpt><trkpt lat="44.75857378049938" lon="9.381876493175307"><ele>266.5</ele><time>2026-03-22T16:05:35Z</time></trkpt><trkpt lat="44.75871716639445" lon="9.381854922318878"><ele>266.25</ele><time>2026-03-22T16:05:36Z</time></trkpt><trkpt lat="44.758859567883796" lon="9.381833317941991"><ele>266.0</ele><time>2026-03-22T16:05:37Z</time></trkpt><trkpt lat="44.758991255457715" lon="9.381809470025798"><ele>266.0</ele><time>2026-03-22T16:05:38Z</time></trkpt><trkpt lat="44.75911409902014" lon="9.381789877541816"><ele>266.0</ele><time>2026-03-22T16:05:39Z</time></trkpt><trkpt lat="44.75922386935101" lon="9.381778616386342"><ele>266.0</ele><time>2026-03-22T16:05:40Z</time></trkpt><trkpt lat="44.759329534198145" lon="9.381767946367535"><ele>266.0</ele><time>2026-03-22T16:05:41Z</time></trkpt><trkpt lat="44.75942658917325" lon="9.381748074212073"><ele>266.0</ele><time>2026-03-22T16:05:42Z</time></trkpt><trkpt lat="44.75952368605251" lon="9.381724600147294"><ele>266.0</ele><time>2026-03-22T16:05:43Z</time></trkpt><trkpt lat="44.759635824537135" lon="9.381704430919221"><ele>266.0</ele><time>2026-03-22T16:05:44Z</time></trkpt><trkpt lat="44.759744090775364" lon="9.38169131682843"><ele>266.0</ele><time>2026-03-22T16:05:45Z</time></trkpt><trkpt lat="44.75985260081844" lon="9.381693231591631"><ele>266.0</ele><time>2026-03-22T16:05:46Z</time></trkpt><trkpt lat="44.75996612554246" lon="9.381710217254549"><ele>266.0</ele><time>2026-03-22T16:05:47Z</time></trkpt><trkpt lat="44.76007847587088" lon="9.381737932157538"><ele>266.0</ele><time>2026-03-22T16:05:48Z</time></trkpt><trkpt lat="44.76019307519192" lon="9.381774533082199"><ele>266.0</ele><time>2026-03-22T16:05:49Z</time></trkpt><trkpt lat="44.76030730495363" lon="9.38181802575512"><ele>266.0</ele><time>2026-03-22T16:05:50Z</time></trkpt><trkpt lat="44.760417712462065" lon="9.38186988577468"><ele>266.0</ele><time>2026-03-22T16:05:51Z</time></trkpt><trkpt lat="44.76052395787392" lon="9.38192841054718"><ele>266.40000000000003</ele><time>2026-03-22T16:05:52Z</time></trkpt><trkpt lat="44.76061615528014" lon="9.381990995085687"><ele>266.8</ele><time>2026-03-22T16:05:53Z</time></trkpt><trkpt lat="44.7607029133184" lon="9.382049589107678"><ele>267.20000000000005</ele><time>2026-03-22T16:05:54Z</time></trkpt><trkpt lat="44.760791420394646" lon="9.382110915656426"><ele>267.6</ele><time>2026-03-22T16:05:55Z</time></trkpt><trkpt lat="44.760878792550955" lon="9.38217177094564"><ele>268.0</ele><time>2026-03-22T16:05:56Z</time></trkpt><trkpt lat="44.760968220795874" lon="9.382237939526313"><ele>266.75</ele><time>2026-03-22T16:05:57Z</time></trkpt><trkpt lat="44.761071437968646" lon="9.382310432384038"><ele>265.5</ele><time>2026-03-22T16:05:58Z</time></trkpt><trkpt lat="44.76118611420819" lon="9.38238851933332"><ele>264.25</ele><time>2026-03-22T16:05:59Z</time></trkpt><trkpt lat="44.761317677039784" lon="9.382478319381317"><ele>263.0</ele><time>2026-03-22T16:06:00Z</time></trkpt><trkpt lat="44.76146087672592" lon="9.382574343263242"><ele>263.0</ele><time>2026-03-22T16:06:01Z</time></trkpt><trkpt lat="44.761620292793175" lon="9.382677655554918"><ele>263.0</ele><time>2026-03-22T16:06:02Z</time></trkpt><trkpt lat="44.76178153145092" lon="9.382782884022804"><ele>263.0</ele><time>2026-03-22T16:06:03Z</time></trkpt><trkpt lat="44.76195265012357" lon="9.382897597747293"><ele>263.0</ele><time>2026-03-22T16:06:04Z</time></trkpt><trkpt lat="44.76211896121287" lon="9.383011459459105"><ele>263.0</ele><time>2026-03-22T16:06:05Z</time></trkpt><trkpt lat="44.762289289705265" lon="9.383127786599673"><ele>263.0</ele><time>2026-03-22T16:06:06Z</time></trkpt><trkpt lat="44.76246268846201" lon="9.383248900789756"><ele>263.0</ele><time>2026-03-22T16:06:07Z</time></trkpt><trkpt lat="44.76263507372009" lon="9.383385491965482"><ele>263.0</ele><time>2026-03-22T16:06:08Z</time></trkpt><trkpt lat="44.762793026661974" lon="9.383544201665758"><ele>263.0</ele><time>2026-03-22T16:06:09Z</time></trkpt><trkpt lat="44.762939134254495" lon="9.383722216674663"><ele>264.6666666666667</ele><time>2026-03-22T16:06:10Z</time></trkpt><trkpt lat="44.76307862628072" lon="9.383910464910795"><ele>266.3333333333333</ele><time>2026-03-22T16:06:11Z</time></trkpt><trkpt lat="44.76321234804404" lon="9.38410819803543"><ele>268.0</ele><time>2026-03-22T16:06:12Z</time></trkpt><trkpt lat="44.76330990580051" lon="9.384335652811957"><ele>268.0</ele><time>2026-03-22T16:06:12.999Z</time></trkpt><trkpt lat="44.76340783766002" lon="9.38454189988121"><ele>268.0</ele><time>2026-03-22T16:06:13.999Z</time></trkpt><trkpt lat="44.763489554598" lon="9.384725246286648"><ele>268.0</ele><time>2026-03-22T16:06:14.999Z</time></trkpt><trkpt lat="44.76356693843033" lon="9.384892104692915"><ele>267.5</ele><time>2026-03-22T16:06:15.999Z</time></trkpt><trkpt lat="44.763641703997095" lon="9.38505045547557"><ele>267.0</ele><time>2026-03-22T16:06:16.999Z</time></trkpt><trkpt lat="44.76371759140826" lon="9.385211700321213"><ele>266.5</ele><time>2026-03-22T16:06:17.999Z</time></trkpt><trkpt lat="44.76379042203285" lon="9.38536640568292"><ele>266.0</ele><time>2026-03-22T16:06:18.999Z</time></trkpt><trkpt lat="44.76386519473615" lon="9.385524895854765"><ele>266.0</ele><time>2026-03-22T16:06:19.999Z</time></trkpt><trkpt lat="44.763936150115796" lon="9.385673600457643"><ele>266.0</ele><time>2026-03-22T16:06:20.999Z</time></trkpt><trkpt lat="44.7640012873195" lon="9.385810111230338"><ele>266.0</ele><time>2026-03-22T16:06:21.999Z</time></trkpt><trkpt lat="44.764059873846044" lon="9.385928152897144"><ele>266.0</ele><time>2026-03-22T16:06:22.999Z</time></trkpt><trkpt lat="44.764106998905525" lon="9.386022932994548"><ele>266.0</ele><time>2026-03-22T16:06:23.999Z</time></trkpt><trkpt lat="44.764148042247236" lon="9.386099017349197"><ele>266.0</ele><time>2026-03-22T16:06:24.999Z</time></trkpt><trkpt lat="44.76418963111296" lon="9.386172241776753"><ele>266.0</ele><time>2026-03-22T16:06:25.999Z</time></trkpt><trkpt lat="44.76436874429898" lon="9.386085418218276"><ele>266.0</ele><time>2026-03-22T16:06:26.999Z</time></trkpt><trkpt lat="44.76448077392794" lon="9.386086472538969"><ele>266.0</ele><time>2026-03-22T16:06:27.999Z</time></trkpt><trkpt lat="44.76459389883576" lon="9.386109871378867"><ele>266.75</ele><time>2026-03-22T16:06:28.999Z</time></trkpt><trkpt lat="44.7647132412324" lon="9.386155997728855"><ele>267.5</ele><time>2026-03-22T16:06:29.999Z</time></trkpt><trkpt lat="44.76483034794874" lon="9.3861989498979"><ele>268.25</ele><time>2026-03-22T16:06:30.999Z</time></trkpt><trkpt lat="44.76493695460767" lon="9.386234942703709"><ele>269.0</ele><time>2026-03-22T16:06:31.999Z</time></trkpt><trkpt lat="44.76503597325859" lon="9.38626182062307"><ele>269.0</ele><time>2026-03-22T16:06:32.999Z</time></trkpt><trkpt lat="44.76513065747435" lon="9.38629630601268"><ele>269.0</ele><time>2026-03-22T16:06:33.999Z</time></trkpt><trkpt lat="44.765211366353775" lon="9.386323376683485"><ele>269.0</ele><time>2026-03-22T16:06:34.999Z</time></trkpt><trkpt lat="44.76528463316953" lon="9.386349017977604"><ele>269.0</ele><time>2026-03-22T16:06:35.999Z</time></trkpt><trkpt lat="44.76535252621352" lon="9.386374411823239"><ele>269.0</ele><time>2026-03-22T16:06:36.999Z</time></trkpt><trkpt lat="44.765424702512185" lon="9.386401186063608"><ele>269.0</ele><time>2026-03-22T16:06:37.999Z</time></trkpt><trkpt lat="44.76549659706554" lon="9.386425959332717"><ele>269.1666666666667</ele><time>2026-03-22T16:06:38.999Z</time></trkpt><trkpt lat="44.76556310631355" lon="9.386448116564981"><ele>269.33333333333337</ele><time>2026-03-22T16:06:39.999Z</time></trkpt><trkpt lat="44.765686549225435" lon="9.38648646413862"><ele>269.5</ele><time>2026-03-22T16:06:41.999Z</time></trkpt><trkpt lat="44.76575921562589" lon="9.38650339359624"><ele>269.6666666666667</ele><time>2026-03-22T16:06:42.999Z</time></trkpt><trkpt lat="44.76583300933425" lon="9.386534041745122"><ele>269.8333333333333</ele><time>2026-03-22T16:06:43.999Z</time></trkpt><trkpt lat="44.76589819563088" lon="9.386597022184855"><ele>270.0</ele><time>2026-03-22T16:06:44.999Z</time></trkpt><trkpt lat="44.76596255842159" lon="9.386654571675813"><ele>272.4</ele><time>2026-03-22T16:06:45.999Z</time></trkpt><trkpt lat="44.76603365747755" lon="9.386736918752153"><ele>274.8</ele><time>2026-03-22T16:06:47.999Z</time></trkpt><trkpt lat="44.766084227861676" lon="9.386556655019259"><ele>277.2</ele><time>2026-03-22T16:06:49.999Z</time></trkpt><trkpt lat="44.766117638208605" lon="9.386400109509122"><ele>279.6</ele><time>2026-03-22T16:06:51.999Z</time></trkpt><trkpt lat="44.766118205915504" lon="9.386301862857184"><ele>282.0</ele><time>2026-03-22T16:06:52.999Z</time></trkpt><trkpt lat="44.76611500234427" lon="9.386194386749612"><ele>282.2</ele><time>2026-03-22T16:06:53.999Z</time></trkpt><trkpt lat="44.766110273962866" lon="9.386070868014786"><ele>282.4</ele><time>2026-03-22T16:06:54.999Z</time></trkpt><trkpt lat="44.766120426974396" lon="9.385908536378924"><ele>282.6</ele><time>2026-03-22T16:06:55.998Z</time></trkpt><trkpt lat="44.76612203372481" lon="9.385743566878432"><ele>282.8</ele><time>2026-03-22T16:06:56.998Z</time></trkpt><trkpt lat="44.766143692467196" lon="9.38557840950836"><ele>283.0</ele><time>2026-03-22T16:06:57.998Z</time></trkpt><trkpt lat="44.766189518253974" lon="9.38539000926952"><ele>283.0</ele><time>2026-03-22T16:06:58.998Z</time></trkpt><trkpt lat="44.766234748956805" lon="9.385201318855014"><ele>283.0</ele><time>2026-03-22T16:06:59.998Z</time></trkpt><trkpt lat="44.766282216147076" lon="9.385046152937065"><ele>283.0</ele><time>2026-03-22T16:07:00.998Z</time></trkpt><trkpt lat="44.76631480691065" lon="9.38492055516697"><ele>283.0</ele><time>2026-03-22T16:07:01.998Z</time></trkpt><trkpt lat="44.76634442365787" lon="9.384837342054375"><ele>283.0</ele><time>2026-03-22T16:07:02.998Z</time></trkpt><trkpt lat="44.76632851002991" lon="9.384744311280013"><ele>283.0</ele><time>2026-03-22T16:07:06.998Z</time></trkpt><trkpt lat="44.76633726771637" lon="9.38463166694587"><ele>283.0</ele><time>2026-03-22T16:07:10.998Z</time></trkpt><trkpt lat="44.76636139606914" lon="9.384464378569586"><ele>283.0</ele><time>2026-03-22T16:07:12.998Z</time></trkpt><trkpt lat="44.76638455041345" lon="9.384357202691518"><ele>283.0</ele><time>2026-03-22T16:07:13.998Z</time></trkpt><trkpt lat="44.76641541302445" lon="9.384257289882466"><ele>283.0</ele><time>2026-03-22T16:07:14.998Z</time></trkpt><trkpt lat="44.766458398190316" lon="9.384128164115827"><ele>283.0</ele><time>2026-03-22T16:07:15.998Z</time></trkpt><trkpt lat="44.76648482761543" lon="9.383996114049806"><ele>283.0</ele><time>2026-03-22T16:07:16.998Z</time></trkpt><trkpt lat="44.766492392301714" lon="9.383850837358368"><ele>283.0</ele><time>2026-03-22T16:07:17.998Z</time></trkpt><trkpt lat="44.76652179942324" lon="9.383736013180844"><ele>283.0</ele><time>2026-03-22T16:07:18.998Z</time></trkpt><trkpt lat="44.76659213208966" lon="9.383673286497526"><ele>283.0</ele><time>2026-03-22T16:07:19.998Z</time></trkpt><trkpt lat="44.7666831991602" lon="9.383598638590453"><ele>282.8333333333333</ele><time>2026-03-22T16:07:20.998Z</time></trkpt><trkpt lat="44.76677411607533" lon="9.383521828007742"><ele>282.66666666666663</ele><time>2026-03-22T16:07:21.998Z</time></trkpt><trkpt lat="44.76685625362077" lon="9.383444631609503"><ele>282.5</ele><time>2026-03-22T16:07:22.998Z</time></trkpt><trkpt lat="44.766932347912494" lon="9.38337891093924"><ele>282.3333333333333</ele><time>2026-03-22T16:07:23.998Z</time></trkpt><trkpt lat="44.76698964677624" lon="9.383323872283539"><ele>282.1666666666667</ele><time>2026-03-22T16:07:24.998Z</time></trkpt><trkpt lat="44.767060201309135" lon="9.38326661967058"><ele>282.0</ele><time>2026-03-22T16:07:25.998Z</time></trkpt><trkpt lat="44.767126622657855" lon="9.383210334966641"><ele>285.0</ele><time>2026-03-22T16:07:26.998Z</time></trkpt><trkpt lat="44.76718199737958" lon="9.38314649555057"><ele>288.0</ele><time>2026-03-22T16:07:27.998Z</time></trkpt><trkpt lat="44.767293261241576" lon="9.383019550407358"><ele>291.0</ele><time>2026-03-22T16:07:29.998Z</time></trkpt><trkpt lat="44.767411839434594" lon="9.382893297627836"><ele>294.0</ele><time>2026-03-22T16:07:30.998Z</time></trkpt><trkpt lat="44.76757225050462" lon="9.38275572097778"><ele>297.25</ele><time>2026-03-22T16:07:31.998Z</time></trkpt><trkpt lat="44.767736578406016" lon="9.382609357185117"><ele>300.5</ele><time>2026-03-22T16:07:32.998Z</time></trkpt><trkpt lat="44.76784501831939" lon="9.38250948236862"><ele>303.75</ele><time>2026-03-22T16:07:34.001Z</time></trkpt><trkpt lat="44.7679241369035" lon="9.38243551958834"><ele>307.0</ele><time>2026-03-22T16:07:35.001Z</time></trkpt><trkpt lat="44.76799093795663" lon="9.382371116900933"><ele>307.0</ele><time>2026-03-22T16:07:36.001Z</time></trkpt><trkpt lat="44.76807013785392" lon="9.38218944893436"><ele>307.0</ele><time>2026-03-22T16:07:38.001Z</time></trkpt><trkpt lat="44.76814593554279" lon="9.382013759082799"><ele>307.0</ele><time>2026-03-22T16:07:39.001Z</time></trkpt><trkpt lat="44.76823812069027" lon="9.38183858602861"><ele>307.4</ele><time>2026-03-22T16:07:40.001Z</time></trkpt><trkpt lat="44.76832612709362" lon="9.381686163300987"><ele>307.79999999999995</ele><time>2026-03-22T16:07:41.001Z</time></trkpt><trkpt lat="44.7683971639035" lon="9.381566378733027"><ele>308.2</ele><time>2026-03-22T16:07:42.001Z</time></trkpt><trkpt lat="44.76845200833688" lon="9.381467622181423"><ele>308.59999999999997</ele><time>2026-03-22T16:07:43.001Z</time></trkpt><trkpt lat="44.76849865590171" lon="9.381383625378952"><ele>309.0</ele><time>2026-03-22T16:07:44.001Z</time></trkpt><trkpt lat="44.76854024746038" lon="9.381309505743987"><ele>312.25</ele><time>2026-03-22T16:07:46.001Z</time></trkpt><trkpt lat="44.768603896467205" lon="9.381201231522862"><ele>315.5</ele><time>2026-03-22T16:07:49.001Z</time></trkpt><trkpt lat="44.76861714185268" lon="9.381046554878411"><ele>318.75</ele><time>2026-03-22T16:07:50.001Z</time></trkpt><trkpt lat="44.76859706869291" lon="9.380838352961149"><ele>322.0</ele><time>2026-03-22T16:07:51Z</time></trkpt><trkpt lat="44.76857706034755" lon="9.380606765989498"><ele>324.3333333333333</ele><time>2026-03-22T16:07:52Z</time></trkpt><trkpt lat="44.768565101128" lon="9.38035209816638"><ele>326.6666666666667</ele><time>2026-03-22T16:07:53Z</time></trkpt><trkpt lat="44.76855515783103" lon="9.380118811911524"><ele>329.0</ele><time>2026-03-22T16:07:54Z</time></trkpt><trkpt lat="44.768529273453375" lon="9.379921080968368"><ele>327.0</ele><time>2026-03-22T16:07:55Z</time></trkpt><trkpt lat="44.768474246865935" lon="9.379739913666373"><ele>325.0</ele><time>2026-03-22T16:07:56Z</time></trkpt><trkpt lat="44.76841439753622" lon="9.379589528947353"><ele>323.0</ele><time>2026-03-22T16:07:56.999Z</time></trkpt><trkpt lat="44.76836524484442" lon="9.379432508370593"><ele>321.0</ele><time>2026-03-22T16:07:57.999Z</time></trkpt><trkpt lat="44.76832612067521" lon="9.379273801096453"><ele>321.0</ele><time>2026-03-22T16:07:58.999Z</time></trkpt><trkpt lat="44.768301114636024" lon="9.379115353320623"><ele>321.0</ele><time>2026-03-22T16:07:59.999Z</time></trkpt><trkpt lat="44.76831541476878" lon="9.3789409057521"><ele>321.0</ele><time>2026-03-22T16:08:00.999Z</time></trkpt><trkpt lat="44.76839197215535" lon="9.378763925414425"><ele>321.0</ele><time>2026-03-22T16:08:01.999Z</time></trkpt><trkpt lat="44.768507684471764" lon="9.378587974908505"><ele>326.6666666666667</ele><time>2026-03-22T16:08:02.999Z</time></trkpt><trkpt lat="44.76862467596183" lon="9.378404493976342"><ele>332.33333333333337</ele><time>2026-03-22T16:08:03.999Z</time></trkpt><trkpt lat="44.76868591998482" lon="9.378171171062208"><ele>338.0</ele><time>2026-03-22T16:08:04.999Z</time></trkpt><trkpt lat="44.76873712649778" lon="9.377961662422045"><ele>338.0</ele><time>2026-03-22T16:08:05.999Z</time></trkpt><trkpt lat="44.768761179265105" lon="9.377760863708906"><ele>338.0</ele><time>2026-03-22T16:08:06.999Z</time></trkpt><trkpt lat="44.7688356268685" lon="9.377590408100453"><ele>338.0</ele><time>2026-03-22T16:08:07.999Z</time></trkpt><trkpt lat="44.768961357320194" lon="9.377456338056401"><ele>338.0</ele><time>2026-03-22T16:08:08.999Z</time></trkpt><trkpt lat="44.769120367768195" lon="9.377324596054876"><ele>338.0</ele><time>2026-03-22T16:08:09.999Z</time></trkpt><trkpt lat="44.769263094413596" lon="9.377186658702128"><ele>338.0</ele><time>2026-03-22T16:08:10.999Z</time></trkpt><trkpt lat="44.769393370169944" lon="9.377039185275638"><ele>338.0</ele><time>2026-03-22T16:08:11.999Z</time></trkpt><trkpt lat="44.7695004727338" lon="9.376903213974767"><ele>340.25</ele><time>2026-03-22T16:08:12.999Z</time></trkpt><trkpt lat="44.769579648461104" lon="9.376743871480201"><ele>342.5</ele><time>2026-03-22T16:08:13.999Z</time></trkpt><trkpt lat="44.769589059628274" lon="9.37653498906094"><ele>344.75</ele><time>2026-03-22T16:08:14.999Z</time></trkpt><trkpt lat="44.7696275076328" lon="9.376326774456347"><ele>347.0</ele><time>2026-03-22T16:08:15.999Z</time></trkpt><trkpt lat="44.769668991673306" lon="9.376149242902157"><ele>347.0</ele><time>2026-03-22T16:08:16.999Z</time></trkpt><trkpt lat="44.7697689259603" lon="9.375972943074045"><ele>347.0</ele><time>2026-03-22T16:08:17.999Z</time></trkpt><trkpt lat="44.76991502724463" lon="9.375829893027758"><ele>347.0</ele><time>2026-03-22T16:08:18.999Z</time></trkpt><trkpt lat="44.77005497392653" lon="9.375689778786308"><ele>347.0</ele><time>2026-03-22T16:08:19.999Z</time></trkpt><trkpt lat="44.77014476466571" lon="9.375533820088307"><ele>347.0</ele><time>2026-03-22T16:08:20.999Z</time></trkpt><trkpt lat="44.77017981677885" lon="9.375353052083279"><ele>347.0</ele><time>2026-03-22T16:08:21.999Z</time></trkpt><trkpt lat="44.77021149520143" lon="9.375191604845975"><ele>347.0</ele><time>2026-03-22T16:08:22.999Z</time></trkpt><trkpt lat="44.77028612708882" lon="9.375100826211801"><ele>348.5</ele><time>2026-03-22T16:08:23.999Z</time></trkpt><trkpt lat="44.770401236588086" lon="9.375077761913069"><ele>350.0</ele><time>2026-03-22T16:08:24.999Z</time></trkpt><trkpt lat="44.77054866026984" lon="9.375105258808542"><ele>351.5</ele><time>2026-03-22T16:08:25.999Z</time></trkpt><trkpt lat="44.770706979803364" lon="9.375144542919905"><ele>353.0</ele><time>2026-03-22T16:08:26.999Z</time></trkpt><trkpt lat="44.77086592162521" lon="9.375162055412844"><ele>353.0</ele><time>2026-03-22T16:08:27.999Z</time></trkpt><trkpt lat="44.77101286358961" lon="9.375170608140362"><ele>353.0</ele><time>2026-03-22T16:08:28.999Z</time></trkpt><trkpt lat="44.77113965711014" lon="9.37517045484161"><ele>353.0</ele><time>2026-03-22T16:08:29.999Z</time></trkpt><trkpt lat="44.77124227335485" lon="9.375128407253559"><ele>353.0</ele><time>2026-03-22T16:08:30.998Z</time></trkpt><trkpt lat="44.77129581360024" lon="9.374991887228985"><ele>355.33333333333337</ele><time>2026-03-22T16:08:31.998Z</time></trkpt><trkpt lat="44.77133603294356" lon="9.37481801755126"><ele>357.6666666666667</ele><time>2026-03-22T16:08:32.998Z</time></trkpt><trkpt lat="44.7713824717622" lon="9.37459150927822"><ele>360.0</ele><time>2026-03-22T16:08:33.998Z</time></trkpt><trkpt lat="44.7714082917424" lon="9.374371437787914"><ele>360.0</ele><time>2026-03-22T16:08:34.998Z</time></trkpt><trkpt lat="44.77144394637916" lon="9.374198089524105"><ele>360.0</ele><time>2026-03-22T16:08:35.998Z</time></trkpt><trkpt lat="44.771515713423966" lon="9.374090098757467"><ele>360.0</ele><time>2026-03-22T16:08:36.998Z</time></trkpt><trkpt lat="44.77162338464836" lon="9.374043520307698"><ele>360.0</ele><time>2026-03-22T16:08:37.998Z</time></trkpt><trkpt lat="44.77176049646614" lon="9.374037879398431"><ele>364.3333333333333</ele><time>2026-03-22T16:08:38.998Z</time></trkpt><trkpt lat="44.77192009504137" lon="9.374040020822688"><ele>368.66666666666663</ele><time>2026-03-22T16:08:39.998Z</time></trkpt><trkpt lat="44.77207729025503" lon="9.374028192166687"><ele>373.0</ele><time>2026-03-22T16:08:40.998Z</time></trkpt><trkpt lat="44.77220967324887" lon="9.374000415628519"><ele>373.0</ele><time>2026-03-22T16:08:41.998Z</time></trkpt><trkpt lat="44.772328392202596" lon="9.373942569695968"><ele>373.0</ele><time>2026-03-22T16:08:42.998Z</time></trkpt><trkpt lat="44.772424501556586" lon="9.37379211348998"><ele>373.0</ele><time>2026-03-22T16:08:43.998Z</time></trkpt><trkpt lat="44.772512251552506" lon="9.373588092218851"><ele>373.0</ele><time>2026-03-22T16:08:44.998Z</time></trkpt><trkpt lat="44.77260074164674" lon="9.373380755480259"><ele>372.0</ele><time>2026-03-22T16:08:45.998Z</time></trkpt><trkpt lat="44.772670534271" lon="9.373159799199449"><ele>371.0</ele><time>2026-03-22T16:08:46.998Z</time></trkpt><trkpt lat="44.77273827433191" lon="9.37294755244887"><ele>370.0</ele><time>2026-03-22T16:08:47.998Z</time></trkpt><trkpt lat="44.772809946342626" lon="9.37274905004021"><ele>376.66666666666663</ele><time>2026-03-22T16:08:48.998Z</time></trkpt><trkpt lat="44.77288714982789" lon="9.372538950552398"><ele>383.3333333333333</ele><time>2026-03-22T16:08:49.998Z</time></trkpt><trkpt lat="44.77295542538658" lon="9.372337491425682"><ele>390.0</ele><time>2026-03-22T16:08:50.998Z</time></trkpt><trkpt lat="44.77299601904571" lon="9.3721397195548"><ele>391.66666666666663</ele><time>2026-03-22T16:08:51.998Z</time></trkpt><trkpt lat="44.77298293411742" lon="9.371930897968356"><ele>393.3333333333333</ele><time>2026-03-22T16:08:52.998Z</time></trkpt><trkpt lat="44.77293607019829" lon="9.371713600947878"><ele>395.0</ele><time>2026-03-22T16:08:53.998Z</time></trkpt><trkpt lat="44.77291360469786" lon="9.371494112549504"><ele>398.0</ele><time>2026-03-22T16:08:54.998Z</time></trkpt><trkpt lat="44.77291418860646" lon="9.3712911925554"><ele>401.0</ele><time>2026-03-22T16:08:55.998Z</time></trkpt><trkpt lat="44.772939075176076" lon="9.371107112175084"><ele>404.0</ele><time>2026-03-22T16:08:56.998Z</time></trkpt><trkpt lat="44.77290175254904" lon="9.370939049887047"><ele>407.0</ele><time>2026-03-22T16:08:57.998Z</time></trkpt><trkpt lat="44.77281354520428" lon="9.370792666839591"><ele>407.0</ele><time>2026-03-22T16:08:58.998Z</time></trkpt><trkpt lat="44.77269956293876" lon="9.370611880035751"><ele>407.0</ele><time>2026-03-22T16:08:59.998Z</time></trkpt><trkpt lat="44.772643506718815" lon="9.370406115048773"><ele>407.0</ele><time>2026-03-22T16:09:00.998Z</time></trkpt><trkpt lat="44.7726119967972" lon="9.37020986558224"><ele>402.66666666666663</ele><time>2026-03-22T16:09:01.998Z</time></trkpt><trkpt lat="44.77261708456353" lon="9.369995495981762"><ele>398.33333333333337</ele><time>2026-03-22T16:09:02.998Z</time></trkpt><trkpt lat="44.77263118345183" lon="9.369757451931813"><ele>394.0</ele><time>2026-03-22T16:09:03.998Z</time></trkpt><trkpt lat="44.77264096148091" lon="9.369513201082812"><ele>394.0</ele><time>2026-03-22T16:09:04.998Z</time></trkpt><trkpt lat="44.772649580282526" lon="9.369296113050078"><ele>394.0</ele><time>2026-03-22T16:09:05.998Z</time></trkpt><trkpt lat="44.77266215454365" lon="9.369110749993382"><ele>394.0</ele><time>2026-03-22T16:09:06.998Z</time></trkpt><trkpt lat="44.77268881038217" lon="9.36891676518559"><ele>394.0</ele><time>2026-03-22T16:09:07.998Z</time></trkpt><trkpt lat="44.772827692549114" lon="9.368718011893279"><ele>401.6666666666667</ele><time>2026-03-22T16:09:08.998Z</time></trkpt><trkpt lat="44.77293939300085" lon="9.368551307486051"><ele>409.33333333333337</ele><time>2026-03-22T16:09:09.998Z</time></trkpt><trkpt lat="44.773052856611294" lon="9.368366677276416"><ele>417.0</ele><time>2026-03-22T16:09:10.998Z</time></trkpt><trkpt lat="44.773161776834" lon="9.368191976427703"><ele>417.0</ele><time>2026-03-22T16:09:11.998Z</time></trkpt><trkpt lat="44.77323394605288" lon="9.368061181176289"><ele>417.0</ele><time>2026-03-22T16:09:12.998Z</time></trkpt><trkpt lat="44.77329752625431" lon="9.367905112628913"><ele>417.0</ele><time>2026-03-22T16:09:13.997Z</time></trkpt><trkpt lat="44.77329076336823" lon="9.367754864927159"><ele>417.0</ele><time>2026-03-22T16:09:14.997Z</time></trkpt><trkpt lat="44.77324210431248" lon="9.367560778065783"><ele>416.5</ele><time>2026-03-22T16:09:15.997Z</time></trkpt><trkpt lat="44.77319525401263" lon="9.367334010118572"><ele>416.0</ele><time>2026-03-22T16:09:16.997Z</time></trkpt><trkpt lat="44.773115154123595" lon="9.367193256172419"><ele>415.5</ele><time>2026-03-22T16:09:17.997Z</time></trkpt><trkpt lat="44.772987256381384" lon="9.367073653023137"><ele>415.0</ele><time>2026-03-22T16:09:18.997Z</time></trkpt><trkpt lat="44.772849663995544" lon="9.366992912208957"><ele>415.0</ele><time>2026-03-22T16:09:19.997Z</time></trkpt><trkpt lat="44.77272578416684" lon="9.3669390959912"><ele>415.0</ele><time>2026-03-22T16:09:20.997Z</time></trkpt><trkpt lat="44.77267060399049" lon="9.366853761550407"><ele>415.0</ele><time>2026-03-22T16:09:21.997Z</time></trkpt><trkpt lat="44.77265045805908" lon="9.366715409903598"><ele>415.0</ele><time>2026-03-22T16:09:22.997Z</time></trkpt><trkpt lat="44.77267419322031" lon="9.366508879236825"><ele>414.0</ele><time>2026-03-22T16:09:23.997Z</time></trkpt><trkpt lat="44.77268725291987" lon="9.366322829626233"><ele>413.0</ele><time>2026-03-22T16:09:24.997Z</time></trkpt><trkpt lat="44.77269273225842" lon="9.366106081486075"><ele>412.0</ele><time>2026-03-22T16:09:25.997Z</time></trkpt><trkpt lat="44.77273125465749" lon="9.365908882790228"><ele>411.0</ele><time>2026-03-22T16:09:26.997Z</time></trkpt><trkpt lat="44.772811018121025" lon="9.365737211518892"><ele>414.33333333333337</ele><time>2026-03-22T16:09:27.997Z</time></trkpt><trkpt lat="44.772944356234014" lon="9.365596129546779"><ele>417.6666666666667</ele><time>2026-03-22T16:09:28.997Z</time></trkpt><trkpt lat="44.77304363991486" lon="9.365423115504656"><ele>421.0</ele><time>2026-03-22T16:09:29.997Z</time></trkpt><trkpt lat="44.7731299131984" lon="9.365257901027231"><ele>422.0</ele><time>2026-03-22T16:09:30.997Z</time></trkpt><trkpt lat="44.77319886396586" lon="9.36511698504909"><ele>423.0</ele><time>2026-03-22T16:09:31.997Z</time></trkpt><trkpt lat="44.77323275278102" lon="9.364960450412516"><ele>424.0</ele><time>2026-03-22T16:09:32.997Z</time></trkpt><trkpt lat="44.77321597081757" lon="9.364765393700255"><ele>425.0</ele><time>2026-03-22T16:09:33.997Z</time></trkpt><trkpt lat="44.77315679355072" lon="9.364549234032754"><ele>425.5</ele><time>2026-03-22T16:09:34.997Z</time></trkpt><trkpt lat="44.77309391782085" lon="9.36435222996369"><ele>426.0</ele><time>2026-03-22T16:09:35.997Z</time></trkpt><trkpt lat="44.77304754829345" lon="9.364193181606774"><ele>426.5</ele><time>2026-03-22T16:09:36.997Z</time></trkpt><trkpt lat="44.773019306353746" lon="9.364042638591364"><ele>427.0</ele><time>2026-03-22T16:09:37.997Z</time></trkpt><trkpt lat="44.77304165144231" lon="9.363883717229426"><ele>426.75</ele><time>2026-03-22T16:09:38.997Z</time></trkpt><trkpt lat="44.773125423802554" lon="9.363770516461148"><ele>426.5</ele><time>2026-03-22T16:09:40Z</time></trkpt><trkpt lat="44.773251858063524" lon="9.363697877479723"><ele>426.25</ele><time>2026-03-22T16:09:41Z</time></trkpt><trkpt lat="44.77340616658933" lon="9.36362940534471"><ele>426.0</ele><time>2026-03-22T16:09:42Z</time></trkpt><trkpt lat="44.773561977230656" lon="9.3635471196559"><ele>430.33333333333337</ele><time>2026-03-22T16:09:43Z</time></trkpt><trkpt lat="44.77370734455736" lon="9.363451722720322"><ele>434.6666666666667</ele><time>2026-03-22T16:09:44Z</time></trkpt><trkpt lat="44.77386090886039" lon="9.36340051565727"><ele>439.0</ele><time>2026-03-22T16:09:45Z</time></trkpt><trkpt lat="44.77400507450784" lon="9.363460491865924"><ele>439.0</ele><time>2026-03-22T16:09:46Z</time></trkpt><trkpt lat="44.77416700066328" lon="9.363528422840522"><ele>439.0</ele><time>2026-03-22T16:09:47Z</time></trkpt><trkpt lat="44.774318173000864" lon="9.363626908443466"><ele>439.0</ele><time>2026-03-22T16:09:48Z</time></trkpt><trkpt lat="44.77447138060508" lon="9.363706331675923"><ele>440.75</ele><time>2026-03-22T16:09:49Z</time></trkpt><trkpt lat="44.77461743498315" lon="9.36377220534818"><ele>442.5</ele><time>2026-03-22T16:09:50Z</time></trkpt><trkpt lat="44.77474120457202" lon="9.3638533684009"><ele>444.25</ele><time>2026-03-22T16:09:51Z</time></trkpt><trkpt lat="44.77479748530805" lon="9.364051964080177"><ele>446.0</ele><time>2026-03-22T16:09:52Z</time></trkpt><trkpt lat="44.77487688367568" lon="9.364262931656548"><ele>446.0</ele><time>2026-03-22T16:09:53Z</time></trkpt><trkpt lat="44.77495112293957" lon="9.364467529067452"><ele>446.0</ele><time>2026-03-22T16:09:54Z</time></trkpt><trkpt lat="44.77501736191351" lon="9.364634477937145"><ele>446.0</ele><time>2026-03-22T16:09:55Z</time></trkpt><trkpt lat="44.775109886934736" lon="9.364763409041075"><ele>446.0</ele><time>2026-03-22T16:09:56Z</time></trkpt><trkpt lat="44.77520318281835" lon="9.364880418249994"><ele>449.0</ele><time>2026-03-22T16:09:57Z</time></trkpt><trkpt lat="44.77536230916222" lon="9.364959449901619"><ele>452.0</ele><time>2026-03-22T16:09:58Z</time></trkpt><trkpt lat="44.77551542146251" lon="9.365026746184572"><ele>455.0</ele><time>2026-03-22T16:09:59Z</time></trkpt><trkpt lat="44.7755720543224" lon="9.36518884319285"><ele>455.0</ele><time>2026-03-22T16:10:00Z</time></trkpt><trkpt lat="44.7755657072761" lon="9.365342610145829"><ele>455.0</ele><time>2026-03-22T16:10:01Z</time></trkpt><trkpt lat="44.775603092381516" lon="9.36552040892486"><ele>455.0</ele><time>2026-03-22T16:10:02Z</time></trkpt><trkpt lat="44.775691833526345" lon="9.365631707462155"><ele>455.0</ele><time>2026-03-22T16:10:03Z</time></trkpt><trkpt lat="44.77579104876039" lon="9.365698957551823"><ele>455.0</ele><time>2026-03-22T16:10:04Z</time></trkpt><trkpt lat="44.77590772694448" lon="9.365698023621908"><ele>455.0</ele><time>2026-03-22T16:10:05Z</time></trkpt><trkpt lat="44.77601005569965" lon="9.365617520520404"><ele>455.0</ele><time>2026-03-22T16:10:06Z</time></trkpt><trkpt lat="44.7760798499215" lon="9.365430357593969"><ele>455.0</ele><time>2026-03-22T16:10:07Z</time></trkpt><trkpt lat="44.77619718932371" lon="9.365245526299216"><ele>459.3333333333333</ele><time>2026-03-22T16:10:08Z</time></trkpt><trkpt lat="44.77629554899588" lon="9.365035923723385"><ele>463.66666666666663</ele><time>2026-03-22T16:10:09Z</time></trkpt><trkpt lat="44.77639802210225" lon="9.364845838113416"><ele>468.0</ele><time>2026-03-22T16:10:09.999Z</time></trkpt><trkpt lat="44.77650545424248" lon="9.364660748457709"><ele>468.0</ele><time>2026-03-22T16:10:10.999Z</time></trkpt><trkpt lat="44.7766083783602" lon="9.36446742959865"><ele>468.0</ele><time>2026-03-22T16:10:11.999Z</time></trkpt><trkpt lat="44.77670207537813" lon="9.36428488086671"><ele>468.0</ele><time>2026-03-22T16:10:12.999Z</time></trkpt><trkpt lat="44.77678409326693" lon="9.3641152078587"><ele>468.0</ele><time>2026-03-22T16:10:13.999Z</time></trkpt><trkpt lat="44.77683238044632" lon="9.36390963815124"><ele>468.0</ele><time>2026-03-22T16:10:14.999Z</time></trkpt><trkpt lat="44.77687528901922" lon="9.363671084070738"><ele>468.0</ele><time>2026-03-22T16:10:15.999Z</time></trkpt><trkpt lat="44.776922912288406" lon="9.363429772294028"><ele>474.66666666666663</ele><time>2026-03-22T16:10:16.999Z</time></trkpt><trkpt lat="44.77695861473127" lon="9.363182082056827"><ele>481.3333333333333</ele><time>2026-03-22T16:10:17.999Z</time></trkpt><trkpt lat="44.77699773566689" lon="9.362955528029332"><ele>488.0</ele><time>2026-03-22T16:10:18.999Z</time></trkpt><trkpt lat="44.7770327472174" lon="9.36275147995972"><ele>488.0</ele><time>2026-03-22T16:10:19.999Z</time></trkpt><trkpt lat="44.7770639622208" lon="9.36256962092121"><ele>488.0</ele><time>2026-03-22T16:10:20.999Z</time></trkpt><trkpt lat="44.77707918815788" lon="9.362401221778073"><ele>488.0</ele><time>2026-03-22T16:10:21.999Z</time></trkpt><trkpt lat="44.77704699255066" lon="9.362250226048898"><ele>488.0</ele><time>2026-03-22T16:10:22.999Z</time></trkpt><trkpt lat="44.77694284173503" lon="9.362126021416271"><ele>485.5</ele><time>2026-03-22T16:10:23.999Z</time></trkpt><trkpt lat="44.776802473958" lon="9.362005640007412"><ele>483.0</ele><time>2026-03-22T16:10:24.999Z</time></trkpt><trkpt lat="44.77668609288295" lon="9.361908433235435"><ele>480.5</ele><time>2026-03-22T16:10:25.999Z</time></trkpt><trkpt lat="44.77660306122519" lon="9.36176872500981"><ele>478.0</ele><time>2026-03-22T16:10:26.999Z</time></trkpt><trkpt lat="44.77657651664542" lon="9.361591069104609"><ele>478.0</ele><time>2026-03-22T16:10:27.999Z</time></trkpt><trkpt lat="44.7766089608247" lon="9.361429076900386"><ele>478.0</ele><time>2026-03-22T16:10:28.999Z</time></trkpt><trkpt lat="44.77668979776649" lon="9.361274892121202"><ele>478.0</ele><time>2026-03-22T16:10:29.999Z</time></trkpt><trkpt lat="44.776806620236805" lon="9.36113703311898"><ele>478.0</ele><time>2026-03-22T16:10:30.999Z</time></trkpt><trkpt lat="44.77692437945451" lon="9.36099630627488"><ele>482.5</ele><time>2026-03-22T16:10:31.999Z</time></trkpt><trkpt lat="44.77701484218251" lon="9.360851175797096"><ele>487.0</ele><time>2026-03-22T16:10:32.999Z</time></trkpt><trkpt lat="44.77705493975698" lon="9.360691073421346"><ele>491.5</ele><time>2026-03-22T16:10:33.999Z</time></trkpt><trkpt lat="44.777070609857596" lon="9.360536842577053"><ele>496.0</ele><time>2026-03-22T16:10:34.999Z</time></trkpt><trkpt lat="44.777062700532284" lon="9.360377722284353"><ele>497.0</ele><time>2026-03-22T16:10:35.999Z</time></trkpt><trkpt lat="44.77698626263295" lon="9.360233450113263"><ele>498.0</ele><time>2026-03-22T16:10:36.999Z</time></trkpt><trkpt lat="44.776855212519806" lon="9.360131917245281"><ele>499.0</ele><time>2026-03-22T16:10:37.999Z</time></trkpt><trkpt lat="44.776693263966855" lon="9.360064256334821"><ele>500.0</ele><time>2026-03-22T16:10:38.999Z</time></trkpt><trkpt lat="44.77653006311969" lon="9.359950055989998"><ele>497.66666666666663</ele><time>2026-03-22T16:10:39.999Z</time></trkpt><trkpt lat="44.77639783916517" lon="9.359812554111247"><ele>495.33333333333337</ele><time>2026-03-22T16:10:40.999Z</time></trkpt><trkpt lat="44.776274074289326" lon="9.35962863906362"><ele>493.0</ele><time>2026-03-22T16:10:41.999Z</time></trkpt><trkpt lat="44.77617721259468" lon="9.359408556164746"><ele>493.0</ele><time>2026-03-22T16:10:42.999Z</time></trkpt><trkpt lat="44.77606972909219" lon="9.359196017695009"><ele>493.0</ele><time>2026-03-22T16:10:43.999Z</time></trkpt><trkpt lat="44.77594998020847" lon="9.35899054546739"><ele>493.0</ele><time>2026-03-22T16:10:44.999Z</time></trkpt><trkpt lat="44.775833176215826" lon="9.358787988718948"><ele>493.0</ele><time>2026-03-22T16:10:45.999Z</time></trkpt><trkpt lat="44.77571863725572" lon="9.358617798120974"><ele>493.0</ele><time>2026-03-22T16:10:46.999Z</time></trkpt><trkpt lat="44.77559488733599" lon="9.358506856001352"><ele>493.0</ele><time>2026-03-22T16:10:47.999Z</time></trkpt><trkpt lat="44.77547044205169" lon="9.35846082808547"><ele>493.0</ele><time>2026-03-22T16:10:48.999Z</time></trkpt><trkpt lat="44.77535847831315" lon="9.358407728764448"><ele>493.0</ele><time>2026-03-22T16:10:49.999Z</time></trkpt><trkpt lat="44.77530756097463" lon="9.358290977914985"><ele>493.0</ele><time>2026-03-22T16:10:50.999Z</time></trkpt><trkpt lat="44.77530634090403" lon="9.358115825705568"><ele>493.0</ele><time>2026-03-22T16:10:51.999Z</time></trkpt><trkpt lat="44.77533285345493" lon="9.357899224599281"><ele>493.0</ele><time>2026-03-22T16:10:52.999Z</time></trkpt><trkpt lat="44.77535047872508" lon="9.357660303338466"><ele>495.33333333333337</ele><time>2026-03-22T16:10:53.998Z</time></trkpt><trkpt lat="44.77534058504838" lon="9.357411431657999"><ele>497.66666666666663</ele><time>2026-03-22T16:10:54.998Z</time></trkpt><trkpt lat="44.77529356584848" lon="9.357158589603987"><ele>500.0</ele><time>2026-03-22T16:10:55.998Z</time></trkpt><trkpt lat="44.775216226284186" lon="9.356878293240445"><ele>499.66666666666663</ele><time>2026-03-22T16:10:56.998Z</time></trkpt><trkpt lat="44.77514023237399" lon="9.356601650673477"><ele>499.33333333333337</ele><time>2026-03-22T16:10:57.998Z</time></trkpt><trkpt lat="44.775075093039824" lon="9.356331974879238"><ele>499.0</ele><time>2026-03-22T16:10:58.998Z</time></trkpt><trkpt lat="44.775017555127306" lon="9.356085851772676"><ele>499.0</ele><time>2026-03-22T16:10:59.998Z</time></trkpt><trkpt lat="44.77496037181228" lon="9.355846693823581"><ele>499.0</ele><time>2026-03-22T16:11:00.998Z</time></trkpt><trkpt lat="44.77490726658341" lon="9.355636400340831"><ele>499.0</ele><time>2026-03-22T16:11:01.998Z</time></trkpt><trkpt lat="44.77485913309779" lon="9.355436310858869"><ele>499.0</ele><time>2026-03-22T16:11:02.998Z</time></trkpt><trkpt lat="44.774811803113245" lon="9.355253316543257"><ele>499.0</ele><time>2026-03-22T16:11:03.998Z</time></trkpt><trkpt lat="44.77477757496681" lon="9.355058922378415"><ele>499.0</ele><time>2026-03-22T16:11:04.998Z</time></trkpt><trkpt lat="44.774808504019916" lon="9.354864962596638"><ele>499.0</ele><time>2026-03-22T16:11:05.998Z</time></trkpt><trkpt lat="44.774892766039756" lon="9.354689903937343"><ele>499.0</ele><time>2026-03-22T16:11:06.998Z</time></trkpt><trkpt lat="44.775005166681424" lon="9.35460602598514"><ele>499.0</ele><time>2026-03-22T16:11:07.998Z</time></trkpt><trkpt lat="44.77511145181182" lon="9.354612534286135"><ele>499.0</ele><time>2026-03-22T16:11:08.998Z</time></trkpt><trkpt lat="44.77520258489008" lon="9.354711548524962"><ele>499.0</ele><time>2026-03-22T16:11:09.998Z</time></trkpt><trkpt lat="44.775244328397434" lon="9.354896868968467"><ele>503.25</ele><time>2026-03-22T16:11:10.998Z</time></trkpt><trkpt lat="44.775245077448204" lon="9.355081849239275"><ele>507.5</ele><time>2026-03-22T16:11:11.998Z</time></trkpt><trkpt lat="44.77525995698355" lon="9.35526621379502"><ele>511.75</ele><time>2026-03-22T16:11:12.998Z</time></trkpt><trkpt lat="44.77528754110325" lon="9.355401562949693"><ele>516.0</ele><time>2026-03-22T16:11:13.998Z</time></trkpt><trkpt lat="44.77535106245051" lon="9.355508975975827"><ele>514.6666666666666</ele><time>2026-03-22T16:11:14.998Z</time></trkpt><trkpt lat="44.775491965723994" lon="9.355544359262087"><ele>513.3333333333333</ele><time>2026-03-22T16:11:15.998Z</time></trkpt><trkpt lat="44.77565416489588" lon="9.355588813735249"><ele>512.0</ele><time>2026-03-22T16:11:16.998Z</time></trkpt><trkpt lat="44.77582373262113" lon="9.35563808829406"><ele>512.0</ele><time>2026-03-22T16:11:17.998Z</time></trkpt><trkpt lat="44.775984951383315" lon="9.355703152284097"><ele>512.0</ele><time>2026-03-22T16:11:18.998Z</time></trkpt><trkpt lat="44.77613580030222" lon="9.355770749092358"><ele>512.0</ele><time>2026-03-22T16:11:19.998Z</time></trkpt><trkpt lat="44.776277284545586" lon="9.355824155212051"><ele>516.0</ele><time>2026-03-22T16:11:20.998Z</time></trkpt><trkpt lat="44.77641488628635" lon="9.355843204059742"><ele>520.0</ele><time>2026-03-22T16:11:21.998Z</time></trkpt><trkpt lat="44.77657206885842" lon="9.355817276261984"><ele>524.0</ele><time>2026-03-22T16:11:22.998Z</time></trkpt><trkpt lat="44.77674473024589" lon="9.355763728485867"><ele>528.6666666666666</ele><time>2026-03-22T16:11:23.998Z</time></trkpt><trkpt lat="44.77689741061577" lon="9.355736606792215"><ele>533.3333333333334</ele><time>2026-03-22T16:11:24.998Z</time></trkpt><trkpt lat="44.77704420473322" lon="9.355779251619088"><ele>538.0</ele><time>2026-03-22T16:11:25.998Z</time></trkpt><trkpt lat="44.777125093349056" lon="9.355972070916845"><ele>538.0</ele><time>2026-03-22T16:11:26.998Z</time></trkpt><trkpt lat="44.777241074028545" lon="9.356165727501418"><ele>538.0</ele><time>2026-03-22T16:11:27.998Z</time></trkpt><trkpt lat="44.777344593142345" lon="9.356338646350885"><ele>538.0</ele><time>2026-03-22T16:11:28.998Z</time></trkpt><trkpt lat="44.777448020099804" lon="9.356478218149755"><ele>539.25</ele><time>2026-03-22T16:11:29.998Z</time></trkpt><trkpt lat="44.77753125216621" lon="9.356613447721985"><ele>540.5</ele><time>2026-03-22T16:11:30.998Z</time></trkpt><trkpt lat="44.77761476679115" lon="9.356723239979962"><ele>541.75</ele><time>2026-03-22T16:11:31.998Z</time></trkpt><trkpt lat="44.77771199861416" lon="9.356780792933671"><ele>543.0</ele><time>2026-03-22T16:11:32.998Z</time></trkpt><trkpt lat="44.77784701191226" lon="9.356783506033938"><ele>543.0</ele><time>2026-03-22T16:11:33.998Z</time></trkpt><trkpt lat="44.77801198670807" lon="9.356745677137784"><ele>543.0</ele><time>2026-03-22T16:11:34.998Z</time></trkpt><trkpt lat="44.778191810479285" lon="9.356730077016415"><ele>543.0</ele><time>2026-03-22T16:11:35.997Z</time></trkpt><trkpt lat="44.77837998445031" lon="9.356778998555496"><ele>546.0</ele><time>2026-03-22T16:11:36.997Z</time></trkpt><trkpt lat="44.77856022882577" lon="9.35684828152264"><ele>549.0</ele><time>2026-03-22T16:11:37.997Z</time></trkpt><trkpt lat="44.77875062196837" lon="9.356912858752699"><ele>552.0</ele><time>2026-03-22T16:11:38.997Z</time></trkpt><trkpt lat="44.778934421787014" lon="9.356971421241814"><ele>552.0</ele><time>2026-03-22T16:11:39.997Z</time></trkpt><trkpt lat="44.77910819516595" lon="9.357025833731024"><ele>552.0</ele><time>2026-03-22T16:11:40.997Z</time></trkpt><trkpt lat="44.779258110864234" lon="9.357085225098439"><ele>552.0</ele><time>2026-03-22T16:11:41.997Z</time></trkpt><trkpt lat="44.77940302012515" lon="9.357170069245813"><ele>554.0</ele><time>2026-03-22T16:11:42.997Z</time></trkpt><trkpt lat="44.7795423924026" lon="9.357299674326056"><ele>556.0</ele><time>2026-03-22T16:11:43.997Z</time></trkpt><trkpt lat="44.77965253143151" lon="9.357479487793148"><ele>558.0</ele><time>2026-03-22T16:11:44.997Z</time></trkpt><trkpt lat="44.77978312550582" lon="9.357636846876197"><ele>558.0</ele><time>2026-03-22T16:11:46Z</time></trkpt><trkpt lat="44.77989283999133" lon="9.357807683919377"><ele>558.0</ele><time>2026-03-22T16:11:47Z</time></trkpt><trkpt lat="44.77998816851213" lon="9.357971428171583"><ele>558.0</ele><time>2026-03-22T16:11:48Z</time></trkpt><trkpt lat="44.780020119616836" lon="9.358172606920565"><ele>556.0</ele><time>2026-03-22T16:11:49Z</time></trkpt><trkpt lat="44.78009399696682" lon="9.35832886646133"><ele>554.0</ele><time>2026-03-22T16:11:50Z</time></trkpt><trkpt lat="44.78016888742375" lon="9.3584985016807"><ele>552.0</ele><time>2026-03-22T16:11:51Z</time></trkpt><trkpt lat="44.780298372379036" lon="9.358652412211626"><ele>550.0</ele><time>2026-03-22T16:11:52Z</time></trkpt><trkpt lat="44.78047263211899" lon="9.35879434596145"><ele>552.6666666666667</ele><time>2026-03-22T16:11:53Z</time></trkpt><trkpt lat="44.7806591296756" lon="9.358881803827272"><ele>555.3333333333334</ele><time>2026-03-22T16:11:54Z</time></trkpt><trkpt lat="44.78082088080853" lon="9.358907249606975"><ele>558.0</ele><time>2026-03-22T16:11:55Z</time></trkpt><trkpt lat="44.78095223997493" lon="9.358925501774678"><ele>561.5</ele><time>2026-03-22T16:11:56Z</time></trkpt><trkpt lat="44.78104154452741" lon="9.359043806068254"><ele>565.0</ele><time>2026-03-22T16:11:57Z</time></trkpt><trkpt lat="44.78111479082249" lon="9.359206043105853"><ele>568.5</ele><time>2026-03-22T16:11:58Z</time></trkpt><trkpt lat="44.78121318230343" lon="9.359364948231702"><ele>572.0</ele><time>2026-03-22T16:11:59Z</time></trkpt><trkpt lat="44.781282914065265" lon="9.359512534980693"><ele>572.0</ele><time>2026-03-22T16:12:00Z</time></trkpt><trkpt lat="44.78138883141845" lon="9.35961174789699"><ele>572.0</ele><time>2026-03-22T16:12:01Z</time></trkpt><trkpt lat="44.78152809523751" lon="9.359673727959459"><ele>572.0</ele><time>2026-03-22T16:12:02Z</time></trkpt><trkpt lat="44.781679737691384" lon="9.359726628404546"><ele>572.0</ele><time>2026-03-22T16:12:03Z</time></trkpt><trkpt lat="44.78182280109463" lon="9.35978221424974"><ele>573.0</ele><time>2026-03-22T16:12:04Z</time></trkpt><trkpt lat="44.78196146717192" lon="9.359848424187996"><ele>574.0</ele><time>2026-03-22T16:12:05Z</time></trkpt><trkpt lat="44.78209592586318" lon="9.359917714917396"><ele>575.0</ele><time>2026-03-22T16:12:06Z</time></trkpt><trkpt lat="44.782233112647816" lon="9.359989876254575"><ele>576.0</ele><time>2026-03-22T16:12:07Z</time></trkpt><trkpt lat="44.78237527306545" lon="9.360066493175712"><ele>576.0</ele><time>2026-03-22T16:12:08Z</time></trkpt><trkpt lat="44.78251010514713" lon="9.360137038386481"><ele>576.0</ele><time>2026-03-22T16:12:09Z</time></trkpt><trkpt lat="44.7826285342218" lon="9.360188690098832"><ele>576.0</ele><time>2026-03-22T16:12:10Z</time></trkpt><trkpt lat="44.78274567932471" lon="9.360196226834187"><ele>576.0</ele><time>2026-03-22T16:12:11Z</time></trkpt><trkpt lat="44.78285901519582" lon="9.3601305485135"><ele>577.5</ele><time>2026-03-22T16:12:12Z</time></trkpt><trkpt lat="44.78296512933956" lon="9.359989085776508"><ele>579.0</ele><time>2026-03-22T16:12:13Z</time></trkpt><trkpt lat="44.78304603540475" lon="9.359799293400181"><ele>580.5</ele><time>2026-03-22T16:12:14Z</time></trkpt><trkpt lat="44.78306591744167" lon="9.359617689974055"><ele>582.0</ele><time>2026-03-22T16:12:15Z</time></trkpt><trkpt lat="44.78304320822489" lon="9.359449097828271"><ele>582.5</ele><time>2026-03-22T16:12:16Z</time></trkpt><trkpt lat="44.78298084792932" lon="9.35930474105914"><ele>583.0</ele><time>2026-03-22T16:12:17Z</time></trkpt><trkpt lat="44.78287277496309" lon="9.359153897515005"><ele>583.5</ele><time>2026-03-22T16:12:18Z</time></trkpt><trkpt lat="44.78274477994348" lon="9.35900900513334"><ele>584.0</ele><time>2026-03-22T16:12:19Z</time></trkpt><trkpt lat="44.782639052064155" lon="9.358890803171553"><ele>585.25</ele><time>2026-03-22T16:12:20Z</time></trkpt><trkpt lat="44.78256183611549" lon="9.358764622592785"><ele>586.5</ele><time>2026-03-22T16:12:21Z</time></trkpt><trkpt lat="44.782543790068246" lon="9.35861288579455"><ele>587.75</ele><time>2026-03-22T16:12:22Z</time></trkpt><trkpt lat="44.782597663242484" lon="9.358469927494939"><ele>589.0</ele><time>2026-03-22T16:12:23Z</time></trkpt><trkpt lat="44.782708713385844" lon="9.358342017229191"><ele>591.6666666666667</ele><time>2026-03-22T16:12:24Z</time></trkpt><trkpt lat="44.782854007725035" lon="9.358210761522624"><ele>594.3333333333334</ele><time>2026-03-22T16:12:25Z</time></trkpt><trkpt lat="44.7829833194079" lon="9.35807858910443"><ele>597.0</ele><time>2026-03-22T16:12:26Z</time></trkpt><trkpt lat="44.78308800997554" lon="9.357949414164905"><ele>599.25</ele><time>2026-03-22T16:12:27Z</time></trkpt><trkpt lat="44.783162265227865" lon="9.357841649508451"><ele>601.5</ele><time>2026-03-22T16:12:27.999Z</time></trkpt><trkpt lat="44.7831889010533" lon="9.357706301305006"><ele>603.75</ele><time>2026-03-22T16:12:28.999Z</time></trkpt><trkpt lat="44.78315373319214" lon="9.357536326162027"><ele>606.0</ele><time>2026-03-22T16:12:29.999Z</time></trkpt><trkpt lat="44.78305303300223" lon="9.357339905689047"><ele>608.3333333333334</ele><time>2026-03-22T16:12:30.999Z</time></trkpt><trkpt lat="44.78292960476529" lon="9.35713854926613"><ele>610.6666666666667</ele><time>2026-03-22T16:12:31.999Z</time></trkpt><trkpt lat="44.78282982967719" lon="9.356942010712153"><ele>613.0</ele><time>2026-03-22T16:12:32.999Z</time></trkpt><trkpt lat="44.782754447581205" lon="9.356766694543182"><ele>613.0</ele><time>2026-03-22T16:12:33.999Z</time></trkpt><trkpt lat="44.782708957773885" lon="9.356609169012"><ele>613.0</ele><time>2026-03-22T16:12:34.999Z</time></trkpt><trkpt lat="44.782713015053" lon="9.356478164531557"><ele>613.0</ele><time>2026-03-22T16:12:35.999Z</time></trkpt><trkpt lat="44.78278041179711" lon="9.356375346564466"><ele>613.0</ele><time>2026-03-22T16:12:36.999Z</time></trkpt><trkpt lat="44.78290311196145" lon="9.35630414227497"><ele>613.0</ele><time>2026-03-22T16:12:37.999Z</time></trkpt><trkpt lat="44.78305339521833" lon="9.35631311449595"><ele>613.0</ele><time>2026-03-22T16:12:38.999Z</time></trkpt><trkpt lat="44.78319827224985" lon="9.3564289786971"><ele>613.0</ele><time>2026-03-22T16:12:39.999Z</time></trkpt><trkpt lat="44.78334255913519" lon="9.356530825687923"><ele>613.0</ele><time>2026-03-22T16:12:40.999Z</time></trkpt><trkpt lat="44.78348329101625" lon="9.35660722783088"><ele>615.0</ele><time>2026-03-22T16:12:41.999Z</time></trkpt><trkpt lat="44.78367569637278" lon="9.356592781028256"><ele>617.0</ele><time>2026-03-22T16:12:42.999Z</time></trkpt><trkpt lat="44.78388206734979" lon="9.356541354147213"><ele>619.0</ele><time>2026-03-22T16:12:43.999Z</time></trkpt><trkpt lat="44.78407459557132" lon="9.356510944735145"><ele>619.0</ele><time>2026-03-22T16:12:44.999Z</time></trkpt><trkpt lat="44.78424082498055" lon="9.356493621918936"><ele>619.0</ele><time>2026-03-22T16:12:45.999Z</time></trkpt><trkpt lat="44.784405236791734" lon="9.356527061483813"><ele>619.0</ele><time>2026-03-22T16:12:46.999Z</time></trkpt><trkpt lat="44.78453440388723" lon="9.356675322233603"><ele>620.0</ele><time>2026-03-22T16:12:47.999Z</time></trkpt><trkpt lat="44.78463228448015" lon="9.356855667382504"><ele>621.0</ele><time>2026-03-22T16:12:48.999Z</time></trkpt><trkpt lat="44.78473975978477" lon="9.357008830761835"><ele>622.0</ele><time>2026-03-22T16:12:49.999Z</time></trkpt><trkpt lat="44.78481801777578" lon="9.35713869256944"><ele>623.0</ele><time>2026-03-22T16:12:50.999Z</time></trkpt><trkpt lat="44.78491202205001" lon="9.357196677942913"><ele>623.0</ele><time>2026-03-22T16:12:51.999Z</time></trkpt><trkpt lat="44.78502800931336" lon="9.357172054286298"><ele>623.0</ele><time>2026-03-22T16:12:52.999Z</time></trkpt><trkpt lat="44.78515954531876" lon="9.357043856042695"><ele>623.0</ele><time>2026-03-22T16:12:53.999Z</time></trkpt><trkpt lat="44.78532628558771" lon="9.356923989314044"><ele>625.3333333333333</ele><time>2026-03-22T16:12:54.999Z</time></trkpt><trkpt lat="44.785475888412996" lon="9.356797146143577"><ele>627.6666666666666</ele><time>2026-03-22T16:12:55.999Z</time></trkpt><trkpt lat="44.785602542601055" lon="9.356659586377539"><ele>630.0</ele><time>2026-03-22T16:12:56.999Z</time></trkpt><trkpt lat="44.78571681652196" lon="9.35647376489529"><ele>631.3333333333334</ele><time>2026-03-22T16:12:57.999Z</time></trkpt><trkpt lat="44.78579873766191" lon="9.356273429121318"><ele>632.6666666666667</ele><time>2026-03-22T16:12:58.999Z</time></trkpt><trkpt lat="44.78588620071263" lon="9.356109158985742"><ele>634.0</ele><time>2026-03-22T16:12:59.999Z</time></trkpt><trkpt lat="44.78602734753875" lon="9.355987053190175"><ele>636.0</ele><time>2026-03-22T16:13:00.999Z</time></trkpt><trkpt lat="44.786200536191174" lon="9.355909340669944"><ele>638.0</ele><time>2026-03-22T16:13:01.999Z</time></trkpt><trkpt lat="44.78637120533515" lon="9.35584419379319"><ele>640.0</ele><time>2026-03-22T16:13:02.999Z</time></trkpt><trkpt lat="44.78653014340441" lon="9.355764180757282"><ele>640.0</ele><time>2026-03-22T16:13:03.999Z</time></trkpt><trkpt lat="44.78668687745545" lon="9.355677989385912"><ele>640.0</ele><time>2026-03-22T16:13:04.999Z</time></trkpt><trkpt lat="44.78684387707728" lon="9.355596032267794"><ele>640.0</ele><time>2026-03-22T16:13:05.999Z</time></trkpt><trkpt lat="44.78700037957243" lon="9.35551121286249"><ele>643.75</ele><time>2026-03-22T16:13:06.999Z</time></trkpt><trkpt lat="44.78713024027199" lon="9.355432927453187"><ele>647.5</ele><time>2026-03-22T16:13:07.999Z</time></trkpt><trkpt lat="44.78724853690412" lon="9.355381073188733"><ele>651.25</ele><time>2026-03-22T16:13:08.999Z</time></trkpt><trkpt lat="44.7873695004611" lon="9.355394952427561"><ele>655.0</ele><time>2026-03-22T16:13:09.999Z</time></trkpt><trkpt lat="44.78747256532627" lon="9.35549063843885"><ele>654.5</ele><time>2026-03-22T16:13:10.998Z</time></trkpt><trkpt lat="44.78749663233979" lon="9.355664513090609"><ele>654.0</ele><time>2026-03-22T16:13:11.998Z</time></trkpt><trkpt lat="44.7875080173025" lon="9.355852089812416"><ele>653.5</ele><time>2026-03-22T16:13:12.998Z</time></trkpt><trkpt lat="44.78753174096577" lon="9.356071301322107"><ele>653.0</ele><time>2026-03-22T16:13:13.998Z</time></trkpt><trkpt lat="44.78755199799535" lon="9.356284144802814"><ele>653.0</ele><time>2026-03-22T16:13:14.998Z</time></trkpt><trkpt lat="44.78757187543074" lon="9.356512692938612"><ele>653.0</ele><time>2026-03-22T16:13:15.998Z</time></trkpt><trkpt lat="44.78758489727191" lon="9.356733957316202"><ele>653.0</ele><time>2026-03-22T16:13:16.998Z</time></trkpt><trkpt lat="44.78759533487697" lon="9.356964987989661"><ele>653.0</ele><time>2026-03-22T16:13:17.998Z</time></trkpt><trkpt lat="44.78760579635933" lon="9.357196547308853"><ele>653.0</ele><time>2026-03-22T16:13:18.998Z</time></trkpt><trkpt lat="44.78761581057751" lon="9.357418206802398"><ele>653.0</ele><time>2026-03-22T16:13:19.998Z</time></trkpt><trkpt lat="44.78762426930367" lon="9.35760543768432"><ele>653.75</ele><time>2026-03-22T16:13:20.998Z</time></trkpt><trkpt lat="44.78764923298527" lon="9.357772093368032"><ele>654.5</ele><time>2026-03-22T16:13:21.998Z</time></trkpt><trkpt lat="44.78772160846319" lon="9.35794696100674"><ele>655.25</ele><time>2026-03-22T16:13:22.998Z</time></trkpt><trkpt lat="44.78782431589352" lon="9.358134847467108"><ele>656.0</ele><time>2026-03-22T16:13:23.998Z</time></trkpt><trkpt lat="44.787952966471146" lon="9.358314583388168"><ele>659.75</ele><time>2026-03-22T16:13:24.998Z</time></trkpt><trkpt lat="44.78807589602446" lon="9.358473786419353"><ele>663.5</ele><time>2026-03-22T16:13:25.998Z</time></trkpt><trkpt lat="44.788172889121206" lon="9.358607799619913"><ele>667.25</ele><time>2026-03-22T16:13:26.998Z</time></trkpt><trkpt lat="44.788251989159605" lon="9.358725689860439"><ele>671.0</ele><time>2026-03-22T16:13:27.998Z</time></trkpt><trkpt lat="44.78833546641478" lon="9.358796541351941"><ele>671.0</ele><time>2026-03-22T16:13:28.998Z</time></trkpt><trkpt lat="44.78844808269667" lon="9.358809371426412"><ele>671.0</ele><time>2026-03-22T16:13:29.998Z</time></trkpt><trkpt lat="44.788588450350176" lon="9.358753949003935"><ele>671.0</ele><time>2026-03-22T16:13:30.998Z</time></trkpt><trkpt lat="44.788742456362066" lon="9.358666500810234"><ele>671.0</ele><time>2026-03-22T16:13:31.998Z</time></trkpt><trkpt lat="44.78889970622744" lon="9.358585151413621"><ele>673.3333333333333</ele><time>2026-03-22T16:13:32.998Z</time></trkpt><trkpt lat="44.78906914280727" lon="9.358518994619335"><ele>675.6666666666666</ele><time>2026-03-22T16:13:33.998Z</time></trkpt><trkpt lat="44.78923038996919" lon="9.358458119395276"><ele>678.0</ele><time>2026-03-22T16:13:34.998Z</time></trkpt><trkpt lat="44.789385735754976" lon="9.358401437626737"><ele>681.6666666666666</ele><time>2026-03-22T16:13:35.998Z</time></trkpt><trkpt lat="44.78954883566841" lon="9.358390497415066"><ele>685.3333333333333</ele><time>2026-03-22T16:13:36.998Z</time></trkpt><trkpt lat="44.78971971344652" lon="9.358467412985743"><ele>689.0</ele><time>2026-03-22T16:13:37.998Z</time></trkpt><trkpt lat="44.78990204717498" lon="9.358626101876727"><ele>689.0</ele><time>2026-03-22T16:13:38.998Z</time></trkpt><trkpt lat="44.79006914411172" lon="9.358813291758192"><ele>689.0</ele><time>2026-03-22T16:13:39.998Z</time></trkpt><trkpt lat="44.790230692139396" lon="9.359024544098757"><ele>689.0</ele><time>2026-03-22T16:13:40.998Z</time></trkpt><trkpt lat="44.79040413743498" lon="9.359245095705447"><ele>690.3333333333333</ele><time>2026-03-22T16:13:41.998Z</time></trkpt><trkpt lat="44.79057183783964" lon="9.359471858928138"><ele>691.6666666666666</ele><time>2026-03-22T16:13:42.998Z</time></trkpt><trkpt lat="44.79072827782303" lon="9.359676384440883"><ele>693.0</ele><time>2026-03-22T16:13:43.998Z</time></trkpt><trkpt lat="44.79087245177174" lon="9.35988145076489"><ele>693.0</ele><time>2026-03-22T16:13:44.998Z</time></trkpt><trkpt lat="44.79097769240594" lon="9.36014981825631"><ele>693.0</ele><time>2026-03-22T16:13:45.998Z</time></trkpt><trkpt lat="44.79105826136447" lon="9.360441988192848"><ele>693.0</ele><time>2026-03-22T16:13:46.998Z</time></trkpt><trkpt lat="44.79116928025692" lon="9.360665774696932"><ele>698.3333333333334</ele><time>2026-03-22T16:13:47.998Z</time></trkpt><trkpt lat="44.79128767579375" lon="9.360898987192513"><ele>703.6666666666667</ele><time>2026-03-22T16:13:48.998Z</time></trkpt><trkpt lat="44.79145200079179" lon="9.36112154453098"><ele>709.0</ele><time>2026-03-22T16:13:49.998Z</time></trkpt><trkpt lat="44.79159077889322" lon="9.361321771516586"><ele>710.3333333333334</ele><time>2026-03-22T16:13:50.998Z</time></trkpt><trkpt lat="44.79169921246999" lon="9.361511197361668"><ele>711.6666666666666</ele><time>2026-03-22T16:13:52Z</time></trkpt><trkpt lat="44.79181102397425" lon="9.36167091271883"><ele>713.0</ele><time>2026-03-22T16:13:53Z</time></trkpt><trkpt lat="44.7919385991393" lon="9.361779589157525"><ele>713.0</ele><time>2026-03-22T16:13:54Z</time></trkpt><trkpt lat="44.79206925213671" lon="9.361826706113774"><ele>713.0</ele><time>2026-03-22T16:13:55Z</time></trkpt><trkpt lat="44.792199333741614" lon="9.361812252457264"><ele>713.0</ele><time>2026-03-22T16:13:56Z</time></trkpt><trkpt lat="44.792325011946204" lon="9.361713228962621"><ele>713.0</ele><time>2026-03-22T16:13:57Z</time></trkpt><trkpt lat="44.79246595824769" lon="9.361570232080576"><ele>713.0</ele><time>2026-03-22T16:13:58Z</time></trkpt><trkpt lat="44.79261657535646" lon="9.361377820221005"><ele>713.0</ele><time>2026-03-22T16:13:59Z</time></trkpt><trkpt lat="44.792745132385924" lon="9.361148726577321"><ele>713.0</ele><time>2026-03-22T16:14:00Z</time></trkpt><trkpt lat="44.7928719414965" lon="9.360942664139024"><ele>716.0</ele><time>2026-03-22T16:14:01Z</time></trkpt><trkpt lat="44.79299357499939" lon="9.360786641911188"><ele>719.0</ele><time>2026-03-22T16:14:02Z</time></trkpt><trkpt lat="44.793133921074826" lon="9.36068351986845"><ele>722.0</ele><time>2026-03-22T16:14:03Z</time></trkpt><trkpt lat="44.79327522430181" lon="9.360657965263407"><ele>722.0</ele><time>2026-03-22T16:14:04Z</time></trkpt><trkpt lat="44.79338333576679" lon="9.360745922135825"><ele>722.0</ele><time>2026-03-22T16:14:05Z</time></trkpt><trkpt lat="44.793443018278836" lon="9.360874713267139"><ele>722.0</ele><time>2026-03-22T16:14:06Z</time></trkpt><trkpt lat="44.79346888868838" lon="9.361044341667027"><ele>722.0</ele><time>2026-03-22T16:14:07Z</time></trkpt><trkpt lat="44.793515336480134" lon="9.36127754384423"><ele>725.6666666666666</ele><time>2026-03-22T16:14:08Z</time></trkpt><trkpt lat="44.793583283199695" lon="9.361541931988654"><ele>729.3333333333334</ele><time>2026-03-22T16:14:09Z</time></trkpt><trkpt lat="44.79364610429515" lon="9.361815803241404"><ele>733.0</ele><time>2026-03-22T16:14:10Z</time></trkpt><trkpt lat="44.79369680217238" lon="9.36209924100274"><ele>732.6666666666667</ele><time>2026-03-22T16:14:11Z</time></trkpt><trkpt lat="44.793756010024254" lon="9.362361820090465"><ele>732.3333333333334</ele><time>2026-03-22T16:14:12Z</time></trkpt><trkpt lat="44.793814820547794" lon="9.362634155444397"><ele>732.0</ele><time>2026-03-22T16:14:13Z</time></trkpt><trkpt lat="44.793870793543825" lon="9.36290027072906"><ele>731.3333333333334</ele><time>2026-03-22T16:14:14Z</time></trkpt><trkpt lat="44.79392772671873" lon="9.363170950958049"><ele>730.6666666666667</ele><time>2026-03-22T16:14:15Z</time></trkpt><trkpt lat="44.79398272159205" lon="9.363433630779307"><ele>730.0</ele><time>2026-03-22T16:14:16Z</time></trkpt><trkpt lat="44.794037176845464" lon="9.363698510084955"><ele>729.6666666666667</ele><time>2026-03-22T16:14:17Z</time></trkpt><trkpt lat="44.79408686614279" lon="9.363959277910904"><ele>729.3333333333334</ele><time>2026-03-22T16:14:18Z</time></trkpt><trkpt lat="44.794122070789925" lon="9.364211667825403"><ele>729.0</ele><time>2026-03-22T16:14:19Z</time></trkpt><trkpt lat="44.794141511167254" lon="9.364473397751166"><ele>731.0</ele><time>2026-03-22T16:14:20Z</time></trkpt><trkpt lat="44.79415224688841" lon="9.364736582150412"><ele>733.0</ele><time>2026-03-22T16:14:21Z</time></trkpt><trkpt lat="44.79413745196951" lon="9.364984377488907"><ele>735.0</ele><time>2026-03-22T16:14:22Z</time></trkpt><trkpt lat="44.794093408258654" lon="9.365223856474552"><ele>735.0</ele><time>2026-03-22T16:14:23Z</time></trkpt><trkpt lat="44.794032805854854" lon="9.365456602948997"><ele>735.0</ele><time>2026-03-22T16:14:24Z</time></trkpt><trkpt lat="44.793952711783824" lon="9.365667032817953"><ele>735.0</ele><time>2026-03-22T16:14:25Z</time></trkpt><trkpt lat="44.79386350969772" lon="9.365865161479613"><ele>739.6666666666666</ele><time>2026-03-22T16:14:26Z</time></trkpt><trkpt lat="44.79378470909625" lon="9.366040187614026"><ele>744.3333333333333</ele><time>2026-03-22T16:14:27Z</time></trkpt><trkpt lat="44.793718695996304" lon="9.366250747739787"><ele>749.0</ele><time>2026-03-22T16:14:28Z</time></trkpt><trkpt lat="44.7936849269109" lon="9.366520115091346"><ele>751.0</ele><time>2026-03-22T16:14:29Z</time></trkpt><trkpt lat="44.793681955743104" lon="9.3668031178623"><ele>753.0</ele><time>2026-03-22T16:14:30Z</time></trkpt><trkpt lat="44.7936355971268" lon="9.36706451876094"><ele>755.0</ele><time>2026-03-22T16:14:31Z</time></trkpt><trkpt lat="44.79357105785409" lon="9.367325461789006"><ele>756.6666666666666</ele><time>2026-03-22T16:14:32Z</time></trkpt><trkpt lat="44.79351849909344" lon="9.367596760539943"><ele>758.3333333333334</ele><time>2026-03-22T16:14:33Z</time></trkpt><trkpt lat="44.79347140232577" lon="9.367887206747264"><ele>760.0</ele><time>2026-03-22T16:14:34Z</time></trkpt><trkpt lat="44.79344967609003" lon="9.368182149413537"><ele>756.6666666666667</ele><time>2026-03-22T16:14:35Z</time></trkpt><trkpt lat="44.79342749416793" lon="9.368478456158433"><ele>753.3333333333334</ele><time>2026-03-22T16:14:36Z</time></trkpt><trkpt lat="44.79340995355423" lon="9.368778405286232"><ele>750.0</ele><time>2026-03-22T16:14:37Z</time></trkpt><trkpt lat="44.79342041295306" lon="9.369073850737367"><ele>750.0</ele><time>2026-03-22T16:14:38Z</time></trkpt><trkpt lat="44.793448938555215" lon="9.369355657421421"><ele>750.0</ele><time>2026-03-22T16:14:38.999Z</time></trkpt><trkpt lat="44.793460711922826" lon="9.369607828657694"><ele>750.0</ele><time>2026-03-22T16:14:39.999Z</time></trkpt><trkpt lat="44.79345261522587" lon="9.369841949609407"><ele>750.5</ele><time>2026-03-22T16:14:40.999Z</time></trkpt><trkpt lat="44.79343495966359" lon="9.370047917007279"><ele>751.0</ele><time>2026-03-22T16:14:41.999Z</time></trkpt><trkpt lat="44.7934126566431" lon="9.37023304124608"><ele>751.5</ele><time>2026-03-22T16:14:42.999Z</time></trkpt><trkpt lat="44.793399365022765" lon="9.37039684974012"><ele>752.0</ele><time>2026-03-22T16:14:43.999Z</time></trkpt><trkpt lat="44.79340455979877" lon="9.370527557529957"><ele>752.5</ele><time>2026-03-22T16:14:44.999Z</time></trkpt><trkpt lat="44.793485121710816" lon="9.370621680354416"><ele>753.0</ele><time>2026-03-22T16:14:45.999Z</time></trkpt><trkpt lat="44.79358152293492" lon="9.37067421564977"><ele>753.5</ele><time>2026-03-22T16:14:46.998Z</time></trkpt><trkpt lat="44.79370425172287" lon="9.370660972061833"><ele>754.0</ele><time>2026-03-22T16:14:47.998Z</time></trkpt><trkpt lat="44.7938418616061" lon="9.370579892305624"><ele>758.0</ele><time>2026-03-22T16:14:48.998Z</time></trkpt><trkpt lat="44.79399074689564" lon="9.370483595017864"><ele>762.0</ele><time>2026-03-22T16:14:49.998Z</time></trkpt><trkpt lat="44.79414793925164" lon="9.370393120418806"><ele>766.0</ele><time>2026-03-22T16:14:50.998Z</time></trkpt><trkpt lat="44.79430857248992" lon="9.37030983907422"><ele>768.6666666666667</ele><time>2026-03-22T16:14:51.998Z</time></trkpt><trkpt lat="44.79447337005998" lon="9.37021282728023"><ele>771.3333333333334</ele><time>2026-03-22T16:14:52.998Z</time></trkpt><trkpt lat="44.794648167464025" lon="9.370113517481636"><ele>774.0</ele><time>2026-03-22T16:14:53.998Z</time></trkpt><trkpt lat="44.79482356754136" lon="9.370021931161327"><ele>774.0</ele><time>2026-03-22T16:14:54.998Z</time></trkpt><trkpt lat="44.794970613372435" lon="9.36994154884453"><ele>774.0</ele><time>2026-03-22T16:14:55.998Z</time></trkpt><trkpt lat="44.7950976452992" lon="9.36987028977149"><ele>774.0</ele><time>2026-03-22T16:14:56.998Z</time></trkpt><trkpt lat="44.79520442683936" lon="9.36978627665211"><ele>774.0</ele><time>2026-03-22T16:14:57.998Z</time></trkpt><trkpt lat="44.795294112387715" lon="9.369741852001045"><ele>781.25</ele><time>2026-03-22T16:14:58.998Z</time></trkpt><trkpt lat="44.79532863741743" lon="9.369908198658383"><ele>788.5</ele><time>2026-03-22T16:15:00.998Z</time></trkpt><trkpt lat="44.79531794341113" lon="9.370031098085613"><ele>795.75</ele><time>2026-03-22T16:15:01.998Z</time></trkpt><trkpt lat="44.795278860076536" lon="9.370220777305732"><ele>803.0</ele><time>2026-03-22T16:15:02.998Z</time></trkpt><trkpt lat="44.795223725694996" lon="9.370423145766775"><ele>801.25</ele><time>2026-03-22T16:15:03.998Z</time></trkpt><trkpt lat="44.79517906498896" lon="9.370629683585813"><ele>799.5</ele><time>2026-03-22T16:15:04.998Z</time></trkpt><trkpt lat="44.79516042690568" lon="9.370830903789978"><ele>797.75</ele><time>2026-03-22T16:15:05.998Z</time></trkpt><trkpt lat="44.79519538832133" lon="9.371034791950096"><ele>796.0</ele><time>2026-03-22T16:15:06.998Z</time></trkpt><trkpt lat="44.7952589685546" lon="9.371186761726573"><ele>796.0</ele><time>2026-03-22T16:15:07.998Z</time></trkpt><trkpt lat="44.795326634276655" lon="9.371308441649443"><ele>796.0</ele><time>2026-03-22T16:15:08.998Z</time></trkpt><trkpt lat="44.79543022319476" lon="9.371386157564551"><ele>796.0</ele><time>2026-03-22T16:15:09.998Z</time></trkpt><trkpt lat="44.795585688676475" lon="9.371450769547952"><ele>796.0</ele><time>2026-03-22T16:15:10.998Z</time></trkpt><trkpt lat="44.79576393245068" lon="9.371519851935806"><ele>797.0</ele><time>2026-03-22T16:15:11.998Z</time></trkpt><trkpt lat="44.79591480914528" lon="9.371666048231111"><ele>798.0</ele><time>2026-03-22T16:15:12.998Z</time></trkpt><trkpt lat="44.7960814953811" lon="9.371792633645141"><ele>799.0</ele><time>2026-03-22T16:15:13.998Z</time></trkpt><trkpt lat="44.79624255311244" lon="9.371929780088639"><ele>799.0</ele><time>2026-03-22T16:15:14.998Z</time></trkpt><trkpt lat="44.79639741421005" lon="9.372065288824578"><ele>799.0</ele><time>2026-03-22T16:15:15.998Z</time></trkpt><trkpt lat="44.79651583854393" lon="9.372195661411373"><ele>799.0</ele><time>2026-03-22T16:15:16.998Z</time></trkpt><trkpt lat="44.796617921006394" lon="9.372321223470372"><ele>797.2</ele><time>2026-03-22T16:15:17.998Z</time></trkpt><trkpt lat="44.79671045333629" lon="9.372423922180086"><ele>795.4000000000001</ele><time>2026-03-22T16:15:18.998Z</time></trkpt><trkpt lat="44.79679959938079" lon="9.372482140940795"><ele>793.6</ele><time>2026-03-22T16:15:19.998Z</time></trkpt><trkpt lat="44.79689382266332" lon="9.372494172165863"><ele>791.8</ele><time>2026-03-22T16:15:20.998Z</time></trkpt><trkpt lat="44.796985661589204" lon="9.37242477921865"><ele>790.0</ele><time>2026-03-22T16:15:21.998Z</time></trkpt><trkpt lat="44.79708941276661" lon="9.3722936575223"><ele>794.6666666666666</ele><time>2026-03-22T16:15:22.998Z</time></trkpt><trkpt lat="44.797212197415256" lon="9.372159673864214"><ele>799.3333333333333</ele><time>2026-03-22T16:15:23.998Z</time></trkpt><trkpt lat="44.79735026371855" lon="9.372058288438913"><ele>804.0</ele><time>2026-03-22T16:15:24.998Z</time></trkpt><trkpt lat="44.797530719565785" lon="9.372044501889025"><ele>803.0</ele><time>2026-03-22T16:15:25.998Z</time></trkpt><trkpt lat="44.79767216509788" lon="9.372141137592322"><ele>802.0</ele><time>2026-03-22T16:15:26.998Z</time></trkpt><trkpt lat="44.79782586075225" lon="9.372245362788163"><ele>801.0</ele><time>2026-03-22T16:15:27.998Z</time></trkpt><trkpt lat="44.79797965866222" lon="9.372341913316557"><ele>801.0</ele><time>2026-03-22T16:15:28.998Z</time></trkpt><trkpt lat="44.7981083493404" lon="9.372420241187744"><ele>801.0</ele><time>2026-03-22T16:15:29.997Z</time></trkpt><trkpt lat="44.7982281555308" lon="9.372469644070211"><ele>801.0</ele><time>2026-03-22T16:15:30.997Z</time></trkpt><trkpt lat="44.79834297628497" lon="9.372472579885232"><ele>801.0</ele><time>2026-03-22T16:15:31.997Z</time></trkpt><trkpt lat="44.79847790134841" lon="9.372407265640291"><ele>802.6666666666667</ele><time>2026-03-22T16:15:32.997Z</time></trkpt><trkpt lat="44.79862714561164" lon="9.37230423565377"><ele>804.3333333333334</ele><time>2026-03-22T16:15:33.997Z</time></trkpt><trkpt lat="44.79879673455421" lon="9.372270624587657"><ele>806.0</ele><time>2026-03-22T16:15:34.997Z</time></trkpt><trkpt lat="44.798948228774236" lon="9.372378811123394"><ele>806.0</ele><time>2026-03-22T16:15:35.997Z</time></trkpt><trkpt lat="44.79910217492465" lon="9.372445151181289"><ele>806.0</ele><time>2026-03-22T16:15:36.997Z</time></trkpt><trkpt lat="44.79922555420132" lon="9.372519554789239"><ele>806.0</ele><time>2026-03-22T16:15:37.997Z</time></trkpt><trkpt lat="44.79933833030169" lon="9.372547834163598"><ele>806.0</ele><time>2026-03-22T16:15:38.997Z</time></trkpt><trkpt lat="44.79947267484804" lon="9.372529243730654"><ele>804.6666666666667</ele><time>2026-03-22T16:15:39.997Z</time></trkpt><trkpt lat="44.79963266765597" lon="9.372457477564726"><ele>803.3333333333333</ele><time>2026-03-22T16:15:40.997Z</time></trkpt><trkpt lat="44.79980849936295" lon="9.372384475873758"><ele>802.0</ele><time>2026-03-22T16:15:41.997Z</time></trkpt><trkpt lat="44.799987156555886" lon="9.372349619872775"><ele>802.0</ele><time>2026-03-22T16:15:42.997Z</time></trkpt><trkpt lat="44.800155269531786" lon="9.372332880955767"><ele>802.0</ele><time>2026-03-22T16:15:43.997Z</time></trkpt><trkpt lat="44.80031310086481" lon="9.372283666647057"><ele>802.0</ele><time>2026-03-22T16:15:44.997Z</time></trkpt><trkpt lat="44.80046286505346" lon="9.372197992181862"><ele>807.6666666666666</ele><time>2026-03-22T16:15:45.997Z</time></trkpt><trkpt lat="44.80062334791158" lon="9.372071700781103"><ele>813.3333333333333</ele><time>2026-03-22T16:15:46.997Z</time></trkpt><trkpt lat="44.80077964020499" lon="9.371918405837055"><ele>819.0</ele><time>2026-03-22T16:15:47.997Z</time></trkpt><trkpt lat="44.80093028257756" lon="9.371824966629108"><ele>816.75</ele><time>2026-03-22T16:15:48.997Z</time></trkpt><trkpt lat="44.80105799865981" lon="9.371780048860783"><ele>814.5</ele><time>2026-03-22T16:15:49.997Z</time></trkpt><trkpt lat="44.801173071263854" lon="9.37171671087728"><ele>812.25</ele><time>2026-03-22T16:15:50.997Z</time></trkpt><trkpt lat="44.8012656303237" lon="9.371576869489472"><ele>810.0</ele><time>2026-03-22T16:15:51.997Z</time></trkpt><trkpt lat="44.80136890819841" lon="9.371411985097437"><ele>817.0</ele><time>2026-03-22T16:15:52.997Z</time></trkpt><trkpt lat="44.801463340923085" lon="9.371230385119869"><ele>824.0</ele><time>2026-03-22T16:15:53.997Z</time></trkpt><trkpt lat="44.801601333338205" lon="9.371108483786413"><ele>831.0</ele><time>2026-03-22T16:15:54.997Z</time></trkpt><trkpt lat="44.80176093162577" lon="9.371057566474342"><ele>831.6666666666667</ele><time>2026-03-22T16:15:55.997Z</time></trkpt><trkpt lat="44.80191992130023" lon="9.371066754985424"><ele>832.3333333333334</ele><time>2026-03-22T16:15:57Z</time></trkpt><trkpt lat="44.80208978391717" lon="9.371095262532625"><ele>833.0</ele><time>2026-03-22T16:15:58Z</time></trkpt><trkpt lat="44.802256661150864" lon="9.37109519484269"><ele>833.0</ele><time>2026-03-22T16:15:59Z</time></trkpt><trkpt lat="44.80241714728333" lon="9.371074852461215"><ele>833.0</ele><time>2026-03-22T16:16:00Z</time></trkpt><trkpt lat="44.80255935591847" lon="9.371044126520204"><ele>833.0</ele><time>2026-03-22T16:16:01Z</time></trkpt><trkpt lat="44.802671146943666" lon="9.370958631268106"><ele>833.0</ele><time>2026-03-22T16:16:02Z</time></trkpt><trkpt lat="44.802764652515584" lon="9.370842621267341"><ele>829.25</ele><time>2026-03-22T16:16:03Z</time></trkpt><trkpt lat="44.80282659257183" lon="9.370689044515125"><ele>825.5</ele><time>2026-03-22T16:16:04Z</time></trkpt><trkpt lat="44.80287075998939" lon="9.370546650643435"><ele>821.75</ele><time>2026-03-22T16:16:05Z</time></trkpt><trkpt lat="44.802850508794585" lon="9.370376633710864"><ele>818.0</ele><time>2026-03-22T16:16:06Z</time></trkpt><trkpt lat="44.802780074571466" lon="9.3701806082197"><ele>818.0</ele><time>2026-03-22T16:16:07Z</time></trkpt><trkpt lat="44.802672497897454" lon="9.36997515202091"><ele>818.0</ele><time>2026-03-22T16:16:08Z</time></trkpt><trkpt lat="44.80258942246323" lon="9.369751245871026"><ele>818.0</ele><time>2026-03-22T16:16:09Z</time></trkpt><trkpt lat="44.802495313049306" lon="9.369543772548171"><ele>825.3333333333334</ele><time>2026-03-22T16:16:10Z</time></trkpt><trkpt lat="44.8024450480152" lon="9.369302643635393"><ele>832.6666666666667</ele><time>2026-03-22T16:16:11Z</time></trkpt><trkpt lat="44.8024406379666" lon="9.369050327124988"><ele>840.0</ele><time>2026-03-22T16:16:12Z</time></trkpt><trkpt lat="44.80242634280926" lon="9.368835606626423"><ele>840.3333333333333</ele><time>2026-03-22T16:16:13Z</time></trkpt><trkpt lat="44.80246700579875" lon="9.368606248270627"><ele>840.6666666666666</ele><time>2026-03-22T16:16:14Z</time></trkpt><trkpt lat="44.80253760856342" lon="9.368369966497328"><ele>841.0</ele><time>2026-03-22T16:16:15Z</time></trkpt><trkpt lat="44.80260481093842" lon="9.36812899524844"><ele>842.0</ele><time>2026-03-22T16:16:16Z</time></trkpt><trkpt lat="44.802661244021586" lon="9.367875844094007"><ele>843.0</ele><time>2026-03-22T16:16:17Z</time></trkpt><trkpt lat="44.80273226839237" lon="9.367626887296494"><ele>844.0</ele><time>2026-03-22T16:16:18Z</time></trkpt><trkpt lat="44.80283022182911" lon="9.367394082334913"><ele>846.3333333333333</ele><time>2026-03-22T16:16:18.999Z</time></trkpt><trkpt lat="44.80294690112662" lon="9.367185353152802"><ele>848.6666666666667</ele><time>2026-03-22T16:16:19.999Z</time></trkpt><trkpt lat="44.80307354608975" lon="9.367025879013337"><ele>851.0</ele><time>2026-03-22T16:16:20.999Z</time></trkpt><trkpt lat="44.80322992998304" lon="9.366966131551552"><ele>851.0</ele><time>2026-03-22T16:16:21.999Z</time></trkpt><trkpt lat="44.80338676192002" lon="9.36691015610458"><ele>851.0</ele><time>2026-03-22T16:16:22.999Z</time></trkpt><trkpt lat="44.80351835222108" lon="9.366888202206676"><ele>851.0</ele><time>2026-03-22T16:16:23.999Z</time></trkpt><trkpt lat="44.803636843100435" lon="9.366805081242441"><ele>851.0</ele><time>2026-03-22T16:16:24.999Z</time></trkpt><trkpt lat="44.80371766225737" lon="9.366616818020821"><ele>850.25</ele><time>2026-03-22T16:16:25.999Z</time></trkpt><trkpt lat="44.80379599606357" lon="9.366437530516817"><ele>849.5</ele><time>2026-03-22T16:16:26.999Z</time></trkpt><trkpt lat="44.803883113479294" lon="9.366289153138252"><ele>848.75</ele><time>2026-03-22T16:16:27.999Z</time></trkpt><trkpt lat="44.80400330463409" lon="9.366226474761014"><ele>848.0</ele><time>2026-03-22T16:16:28.999Z</time></trkpt><trkpt lat="44.804131860322926" lon="9.366250994286922"><ele>849.5</ele><time>2026-03-22T16:16:29.999Z</time></trkpt><trkpt lat="44.80426719232331" lon="9.36634378996016"><ele>851.0</ele><time>2026-03-22T16:16:30.999Z</time></trkpt><trkpt lat="44.804388144069094" lon="9.366446564010717"><ele>852.5</ele><time>2026-03-22T16:16:31.999Z</time></trkpt><trkpt lat="44.80449402917331" lon="9.36650737782749"><ele>854.0</ele><time>2026-03-22T16:16:32.999Z</time></trkpt><trkpt lat="44.80459684794131" lon="9.366513904476232"><ele>854.25</ele><time>2026-03-22T16:16:33.999Z</time></trkpt><trkpt lat="44.80470089975395" lon="9.366442987044854"><ele>854.5</ele><time>2026-03-22T16:16:34.999Z</time></trkpt><trkpt lat="44.80482957388956" lon="9.3663170787381"><ele>854.75</ele><time>2026-03-22T16:16:35.999Z</time></trkpt><trkpt lat="44.804944298310794" lon="9.366202316058711"><ele>855.0</ele><time>2026-03-22T16:16:36.999Z</time></trkpt><trkpt lat="44.805050114863306" lon="9.366121453846949"><ele>855.8</ele><time>2026-03-22T16:16:37.999Z</time></trkpt><trkpt lat="44.80515319111742" lon="9.366082867571631"><ele>856.6</ele><time>2026-03-22T16:16:38.999Z</time></trkpt><trkpt lat="44.80525117112612" lon="9.366124143884687"><ele>857.4000000000001</ele><time>2026-03-22T16:16:39.999Z</time></trkpt><trkpt lat="44.80529819670247" lon="9.36626182669309"><ele>858.2</ele><time>2026-03-22T16:16:40.999Z</time></trkpt><trkpt lat="44.80529644827426" lon="9.366398627016265"><ele>859.0</ele><time>2026-03-22T16:16:41.999Z</time></trkpt><trkpt lat="44.80532860180668" lon="9.366559585150123"><ele>860.75</ele><time>2026-03-22T16:16:42.999Z</time></trkpt><trkpt lat="44.805369520679754" lon="9.366738850289023"><ele>862.5</ele><time>2026-03-22T16:16:43.999Z</time></trkpt><trkpt lat="44.805425428931855" lon="9.366922937735092"><ele>864.25</ele><time>2026-03-22T16:16:44.999Z</time></trkpt><trkpt lat="44.8055074374692" lon="9.367095318169243"><ele>866.0</ele><time>2026-03-22T16:16:45.999Z</time></trkpt><trkpt lat="44.80556612026316" lon="9.367229381200918"><ele>866.0</ele><time>2026-03-22T16:16:46.999Z</time></trkpt><trkpt lat="44.80562883328356" lon="9.367309895050496"><ele>866.0</ele><time>2026-03-22T16:16:47.999Z</time></trkpt><trkpt lat="44.80573471255613" lon="9.367389988955724"><ele>866.0</ele><time>2026-03-22T16:16:48.999Z</time></trkpt><trkpt lat="44.80582094926181" lon="9.367547164795699"><ele>866.0</ele><time>2026-03-22T16:16:49.999Z</time></trkpt><trkpt lat="44.80588785343825" lon="9.367749718193107"><ele>866.0</ele><time>2026-03-22T16:16:50.999Z</time></trkpt><trkpt lat="44.80595320432126" lon="9.36797386824173"><ele>866.0</ele><time>2026-03-22T16:16:51.999Z</time></trkpt><trkpt lat="44.80602198933819" lon="9.368213241418317"><ele>866.0</ele><time>2026-03-22T16:16:52.999Z</time></trkpt><trkpt lat="44.80608699475833" lon="9.36844585872589"><ele>870.0</ele><time>2026-03-22T16:16:53.999Z</time></trkpt><trkpt lat="44.806133504287345" lon="9.368695611287551"><ele>874.0</ele><time>2026-03-22T16:16:54.999Z</time></trkpt><trkpt lat="44.80616187062479" lon="9.368953908847102"><ele>878.0</ele><time>2026-03-22T16:16:55.999Z</time></trkpt><trkpt lat="44.80618739162439" lon="9.369188539791152"><ele>878.0</ele><time>2026-03-22T16:16:56.999Z</time></trkpt><trkpt lat="44.806228365116255" lon="9.369388066942273"><ele>878.0</ele><time>2026-03-22T16:16:57.999Z</time></trkpt><trkpt lat="44.806295103955854" lon="9.369591665113596"><ele>878.0</ele><time>2026-03-22T16:16:58.999Z</time></trkpt><trkpt lat="44.80636436811434" lon="9.369803037960427"><ele>876.0</ele><time>2026-03-22T16:16:59.999Z</time></trkpt><trkpt lat="44.80642821227045" lon="9.369992373038855"><ele>874.0</ele><time>2026-03-22T16:17:00.999Z</time></trkpt><trkpt lat="44.80649032471951" lon="9.370136519624788"><ele>872.0</ele><time>2026-03-22T16:17:01.999Z</time></trkpt><trkpt lat="44.80657648567208" lon="9.370234472129574"><ele>870.0</ele><time>2026-03-22T16:17:02.998Z</time></trkpt><trkpt lat="44.80668393291901" lon="9.370312135851453"><ele>875.3333333333333</ele><time>2026-03-22T16:17:03.998Z</time></trkpt><trkpt lat="44.80683526694192" lon="9.370375205790921"><ele>880.6666666666666</ele><time>2026-03-22T16:17:04.998Z</time></trkpt><trkpt lat="44.80700978596161" lon="9.370425266003586"><ele>886.0</ele><time>2026-03-22T16:17:05.998Z</time></trkpt><trkpt lat="44.807178072457255" lon="9.370500745084557"><ele>881.0</ele><time>2026-03-22T16:17:06.998Z</time></trkpt><trkpt lat="44.80731110076869" lon="9.370660671025847"><ele>876.0</ele><time>2026-03-22T16:17:07.998Z</time></trkpt><trkpt lat="44.80743746763168" lon="9.370809996212845"><ele>871.0</ele><time>2026-03-22T16:17:08.998Z</time></trkpt><trkpt lat="44.80756594172032" lon="9.370931850333946"><ele>875.0</ele><time>2026-03-22T16:17:09.998Z</time></trkpt><trkpt lat="44.80771846745285" lon="9.371044913200661"><ele>879.0</ele><time>2026-03-22T16:17:10.998Z</time></trkpt><trkpt lat="44.80790425682465" lon="9.371136953654592"><ele>883.0</ele><time>2026-03-22T16:17:11.998Z</time></trkpt><trkpt lat="44.808084511123404" lon="9.37121427797471"><ele>883.0</ele><time>2026-03-22T16:17:12.998Z</time></trkpt><trkpt lat="44.80823334455087" lon="9.371287810667875"><ele>883.0</ele><time>2026-03-22T16:17:13.998Z</time></trkpt><trkpt lat="44.80836911774413" lon="9.371350168016905"><ele>883.0</ele><time>2026-03-22T16:17:14.998Z</time></trkpt><trkpt lat="44.8085379583445" lon="9.371325280326781"><ele>883.0</ele><time>2026-03-22T16:17:15.998Z</time></trkpt><trkpt lat="44.80872965053969" lon="9.371318558555702"><ele>883.0</ele><time>2026-03-22T16:17:16.998Z</time></trkpt><trkpt lat="44.80888825988801" lon="9.371305081578889"><ele>883.0</ele><time>2026-03-22T16:17:17.998Z</time></trkpt><trkpt lat="44.80902637274838" lon="9.371302214340062"><ele>883.0</ele><time>2026-03-22T16:17:18.998Z</time></trkpt><trkpt lat="44.809155655796495" lon="9.371238900847676"><ele>883.0</ele><time>2026-03-22T16:17:19.998Z</time></trkpt><trkpt lat="44.80928015692323" lon="9.371119961188972"><ele>883.0</ele><time>2026-03-22T16:17:20.998Z</time></trkpt><trkpt lat="44.80940785655576" lon="9.370990269489138"><ele>883.0</ele><time>2026-03-22T16:17:21.998Z</time></trkpt><trkpt lat="44.80951390539493" lon="9.370864150325216"><ele>884.5</ele><time>2026-03-22T16:17:22.998Z</time></trkpt><trkpt lat="44.80962570559761" lon="9.370821616719544"><ele>886.0</ele><time>2026-03-22T16:17:23.998Z</time></trkpt><trkpt lat="44.809726350893634" lon="9.37089615619819"><ele>887.5</ele><time>2026-03-22T16:17:24.998Z</time></trkpt><trkpt lat="44.80981160397241" lon="9.371014971649789"><ele>889.0</ele><time>2026-03-22T16:17:25.998Z</time></trkpt><trkpt lat="44.80990717083432" lon="9.371176621511903"><ele>886.0</ele><time>2026-03-22T16:17:26.998Z</time></trkpt><trkpt lat="44.80998394226857" lon="9.371376253381342"><ele>883.0</ele><time>2026-03-22T16:17:27.998Z</time></trkpt><trkpt lat="44.810070435180975" lon="9.371579490889877"><ele>880.0</ele><time>2026-03-22T16:17:28.998Z</time></trkpt><trkpt lat="44.81017506040493" lon="9.371712738495239"><ele>884.5</ele><time>2026-03-22T16:17:29.998Z</time></trkpt><trkpt lat="44.81024615941406" lon="9.37187159975717"><ele>889.0</ele><time>2026-03-22T16:17:30.998Z</time></trkpt><trkpt lat="44.81028996729184" lon="9.372017820846755"><ele>893.5</ele><time>2026-03-22T16:17:31.998Z</time></trkpt><trkpt lat="44.81026501336087" lon="9.372159769489608"><ele>898.0</ele><time>2026-03-22T16:17:32.998Z</time></trkpt><trkpt lat="44.81020148983058" lon="9.372300736088155"><ele>898.75</ele><time>2026-03-22T16:17:33.998Z</time></trkpt><trkpt lat="44.81015613615774" lon="9.37245766308402"><ele>899.5</ele><time>2026-03-22T16:17:34.998Z</time></trkpt><trkpt lat="44.81013584273239" lon="9.372622304571278"><ele>900.25</ele><time>2026-03-22T16:17:35.998Z</time></trkpt><trkpt lat="44.81016858202696" lon="9.372787507928695"><ele>901.0</ele><time>2026-03-22T16:17:36.998Z</time></trkpt><trkpt lat="44.81017949444668" lon="9.372928923116705"><ele>901.5</ele><time>2026-03-22T16:17:37.998Z</time></trkpt><trkpt lat="44.810182254843994" lon="9.373086326768872"><ele>902.0</ele><time>2026-03-22T16:17:38.998Z</time></trkpt><trkpt lat="44.810177420320954" lon="9.373262746146487"><ele>902.5</ele><time>2026-03-22T16:17:39.998Z</time></trkpt><trkpt lat="44.81016266813152" lon="9.373457333315827"><ele>903.0</ele><time>2026-03-22T16:17:40.998Z</time></trkpt><trkpt lat="44.81014567912893" lon="9.373672073460472"><ele>901.0</ele><time>2026-03-22T16:17:41.998Z</time></trkpt><trkpt lat="44.81014823037407" lon="9.373893112242381"><ele>899.0</ele><time>2026-03-22T16:17:42.998Z</time></trkpt><trkpt lat="44.81015880527445" lon="9.374085743637112"><ele>897.0</ele><time>2026-03-22T16:17:43.998Z</time></trkpt><trkpt lat="44.8101795259267" lon="9.37426423897119"><ele>895.0</ele><time>2026-03-22T16:17:44.998Z</time></trkpt><trkpt lat="44.810213981217046" lon="9.37442670286461"><ele>895.0</ele><time>2026-03-22T16:17:45.997Z</time></trkpt><trkpt lat="44.81029494922535" lon="9.374573432792225"><ele>895.0</ele><time>2026-03-22T16:17:46.997Z</time></trkpt><trkpt lat="44.810427530193415" lon="9.374702001031947"><ele>895.0</ele><time>2026-03-22T16:17:47.997Z</time></trkpt><trkpt lat="44.810514695851325" lon="9.37490854196722"><ele>891.0</ele><time>2026-03-22T16:17:48.997Z</time></trkpt><trkpt lat="44.81058113863633" lon="9.375120919116943"><ele>887.0</ele><time>2026-03-22T16:17:49.997Z</time></trkpt><trkpt lat="44.8106695701109" lon="9.375291995586988"><ele>883.0</ele><time>2026-03-22T16:17:50.997Z</time></trkpt><trkpt lat="44.81078935498032" lon="9.37541049977725"><ele>883.0</ele><time>2026-03-22T16:17:51.997Z</time></trkpt><trkpt lat="44.81089318651924" lon="9.375506769688716"><ele>883.0</ele><time>2026-03-22T16:17:52.997Z</time></trkpt><trkpt lat="44.81097754133838" lon="9.375633432884891"><ele>883.0</ele><time>2026-03-22T16:17:53.997Z</time></trkpt><trkpt lat="44.81110046241844" lon="9.37566496301033"><ele>883.0</ele><time>2026-03-22T16:17:54.997Z</time></trkpt><trkpt lat="44.811224131391874" lon="9.37558825968297"><ele>880.75</ele><time>2026-03-22T16:17:55.997Z</time></trkpt><trkpt lat="44.811356127522615" lon="9.375568245547019"><ele>878.5</ele><time>2026-03-22T16:17:56.997Z</time></trkpt><trkpt lat="44.81148447363536" lon="9.375554369371342"><ele>876.25</ele><time>2026-03-22T16:17:57.997Z</time></trkpt><trkpt lat="44.81161160667154" lon="9.375548106483558"><ele>874.0</ele><time>2026-03-22T16:17:58.997Z</time></trkpt><trkpt lat="44.81173949196573" lon="9.375540840667703"><ele>873.8000000000001</ele><time>2026-03-22T16:17:59.997Z</time></trkpt><trkpt lat="44.81186252939636" lon="9.375533656635119"><ele>873.6000000000001</ele><time>2026-03-22T16:18:00.997Z</time></trkpt><trkpt lat="44.81197822610596" lon="9.375522758642779"><ele>873.4</ele><time>2026-03-22T16:18:01.997Z</time></trkpt><trkpt lat="44.812079317375336" lon="9.375507322717988"><ele>873.2</ele><time>2026-03-22T16:18:03Z</time></trkpt><trkpt lat="44.81215651415215" lon="9.37545434390829"><ele>873.0</ele><time>2026-03-22T16:18:04Z</time></trkpt><trkpt lat="44.812202960407" lon="9.375342491309473"><ele>873.0</ele><time>2026-03-22T16:18:05Z</time></trkpt><trkpt lat="44.81224645775324" lon="9.375236621883095"><ele>873.0</ele><time>2026-03-22T16:18:06Z</time></trkpt><trkpt lat="44.81226455045027" lon="9.375108289109328"><ele>873.0</ele><time>2026-03-22T16:18:07Z</time></trkpt><trkpt lat="44.81228139075224" lon="9.374988287401523"><ele>873.0</ele><time>2026-03-22T16:18:08Z</time></trkpt><trkpt lat="44.812302654175895" lon="9.374869322439826"><ele>873.0</ele><time>2026-03-22T16:18:09Z</time></trkpt><trkpt lat="44.81233238014923" lon="9.374755782511363"><ele>873.0</ele><time>2026-03-22T16:18:10Z</time></trkpt><trkpt lat="44.81238720080033" lon="9.37464789125475"><ele>872.3333333333334</ele><time>2026-03-22T16:18:11Z</time></trkpt><trkpt lat="44.81247903157116" lon="9.374557188776985"><ele>871.6666666666667</ele><time>2026-03-22T16:18:12Z</time></trkpt><trkpt lat="44.812577799024304" lon="9.374502922042375"><ele>871.0</ele><time>2026-03-22T16:18:13Z</time></trkpt><trkpt lat="44.81264128608184" lon="9.374466873435763"><ele>870.3333333333334</ele><time>2026-03-22T16:18:14Z</time></trkpt><trkpt lat="44.81269739242843" lon="9.37440178049537"><ele>869.6666666666667</ele><time>2026-03-22T16:18:51.999Z</time></trkpt><trkpt lat="44.81275371524689" lon="9.374332523055712"><ele>869.0</ele><time>2026-03-22T16:18:56.999Z</time></trkpt><trkpt lat="44.812798862641074" lon="9.374269075151227"><ele>869.0000000000001</ele><time>2026-03-22T16:18:59.999Z</time></trkpt><trkpt lat="44.812855649471146" lon="9.374162501348666"><ele>869.0</ele><time>2026-03-22T16:19:02.999Z</time></trkpt><trkpt lat="44.81289059918889" lon="9.374085578187065"><ele>869.0</ele><time>2026-03-22T16:19:03.999Z</time></trkpt><trkpt lat="44.812936128826315" lon="9.374011776608953"><ele>869.0</ele><time>2026-03-22T16:19:04.999Z</time></trkpt><trkpt lat="44.81301307574288" lon="9.373901231474148"><ele>869.0000000000001</ele><time>2026-03-22T16:19:06.999Z</time></trkpt><trkpt lat="44.813096461070515" lon="9.373842589967955"><ele>869.0</ele><time>2026-03-22T16:19:07.999Z</time></trkpt><trkpt lat="44.81320714721948" lon="9.37381633222531"><ele>869.6</ele><time>2026-03-22T16:19:08.999Z</time></trkpt><trkpt lat="44.8133226444183" lon="9.373816929741324"><ele>870.2</ele><time>2026-03-22T16:19:09.999Z</time></trkpt><trkpt lat="44.81342216830641" lon="9.373816310477665"><ele>870.8000000000001</ele><time>2026-03-22T16:19:10.999Z</time></trkpt><trkpt lat="44.81351872405096" lon="9.373814843604979"><ele>871.4000000000001</ele><time>2026-03-22T16:19:11.999Z</time></trkpt><trkpt lat="44.813641384201446" lon="9.373813629496453"><ele>872.0</ele><time>2026-03-22T16:19:12.999Z</time></trkpt><trkpt lat="44.81376544395758" lon="9.373813519826946"><ele>872.0</ele><time>2026-03-22T16:19:13.999Z</time></trkpt><trkpt lat="44.8138803647138" lon="9.373801860415037"><ele>872.0</ele><time>2026-03-22T16:19:14.999Z</time></trkpt><trkpt lat="44.81398000174796" lon="9.373780024676211"><ele>872.0</ele><time>2026-03-22T16:19:15.999Z</time></trkpt><trkpt lat="44.814066378004306" lon="9.373745287676178"><ele>872.0</ele><time>2026-03-22T16:19:16.999Z</time></trkpt><trkpt lat="44.81415943359034" lon="9.373684363153314"><ele>872.0</ele><time>2026-03-22T16:19:17.998Z</time></trkpt><trkpt lat="44.81425217312685" lon="9.373608511601118"><ele>869.5</ele><time>2026-03-22T16:19:18.998Z</time></trkpt><trkpt lat="44.81434709139732" lon="9.373529306106107"><ele>867.0</ele><time>2026-03-22T16:19:19.998Z</time></trkpt><trkpt lat="44.81442857101155" lon="9.373442915622187"><ele>864.5</ele><time>2026-03-22T16:19:20.998Z</time></trkpt><trkpt lat="44.81449357447967" lon="9.373313740077588"><ele>862.0</ele><time>2026-03-22T16:19:21.998Z</time></trkpt><trkpt lat="44.814549336004816" lon="9.373113420014501"><ele>863.6666666666666</ele><time>2026-03-22T16:19:22.998Z</time></trkpt><trkpt lat="44.81458387973968" lon="9.372849433702074"><ele>865.3333333333333</ele><time>2026-03-22T16:19:23.998Z</time></trkpt><trkpt lat="44.81460887949399" lon="9.37259650858926"><ele>867.0</ele><time>2026-03-22T16:19:24.998Z</time></trkpt><trkpt lat="44.81464448476549" lon="9.372389405688077"><ele>867.0</ele><time>2026-03-22T16:19:25.998Z</time></trkpt><trkpt lat="44.814673080114005" lon="9.372201882428376"><ele>867.0</ele><time>2026-03-22T16:19:26.998Z</time></trkpt><trkpt lat="44.81470278928936" lon="9.372037046991212"><ele>867.0</ele><time>2026-03-22T16:19:27.998Z</time></trkpt><trkpt lat="44.814711631327825" lon="9.37189518633352"><ele>867.0</ele><time>2026-03-22T16:19:28.998Z</time></trkpt><trkpt lat="44.81472839361862" lon="9.371767522710098"><ele>867.0</ele><time>2026-03-22T16:19:29.998Z</time></trkpt><trkpt lat="44.81490980620598" lon="9.371710124590065"><ele>867.0</ele><time>2026-03-22T16:19:30.998Z</time></trkpt><trkpt lat="44.8150212717912" lon="9.371695364408215"><ele>867.0</ele><time>2026-03-22T16:19:31.998Z</time></trkpt><trkpt lat="44.81513689514514" lon="9.371748655396365"><ele>867.0</ele><time>2026-03-22T16:19:32.998Z</time></trkpt><trkpt lat="44.8152472082039" lon="9.371842412319173"><ele>867.0</ele><time>2026-03-22T16:19:33.998Z</time></trkpt><trkpt lat="44.815348581065386" lon="9.371930331891432"><ele>867.0</ele><time>2026-03-22T16:19:34.998Z</time></trkpt><trkpt lat="44.81545229004538" lon="9.371980999455836"><ele>867.0</ele><time>2026-03-22T16:19:35.998Z</time></trkpt><trkpt lat="44.815571720420934" lon="9.371974422725579"><ele>867.0</ele><time>2026-03-22T16:19:36.998Z</time></trkpt><trkpt lat="44.81568424147148" lon="9.371910656141019"><ele>867.0</ele><time>2026-03-22T16:19:37.998Z</time></trkpt><trkpt lat="44.81577193381857" lon="9.371810655296374"><ele>867.0</ele><time>2026-03-22T16:19:38.998Z</time></trkpt><trkpt lat="44.81583856401285" lon="9.37168584044659"><ele>867.0</ele><time>2026-03-22T16:19:39.998Z</time></trkpt><trkpt lat="44.81587276844274" lon="9.371538062543626"><ele>867.0</ele><time>2026-03-22T16:19:40.998Z</time></trkpt><trkpt lat="44.81587158769783" lon="9.37136089692014"><ele>869.0</ele><time>2026-03-22T16:19:41.998Z</time></trkpt><trkpt lat="44.81584483449369" lon="9.3711721742413"><ele>871.0</ele><time>2026-03-22T16:19:42.998Z</time></trkpt><trkpt lat="44.815824385856274" lon="9.371008854398166"><ele>873.0</ele><time>2026-03-22T16:19:43.998Z</time></trkpt><trkpt lat="44.815855195269975" lon="9.370865869586497"><ele>875.0</ele><time>2026-03-22T16:19:44.998Z</time></trkpt><trkpt lat="44.81592525186488" lon="9.370743944599452"><ele>874.0</ele><time>2026-03-22T16:19:45.998Z</time></trkpt><trkpt lat="44.81602844692865" lon="9.370661821741413"><ele>873.0</ele><time>2026-03-22T16:19:46.998Z</time></trkpt><trkpt lat="44.816160811835445" lon="9.370612824713211"><ele>872.0</ele><time>2026-03-22T16:19:47.998Z</time></trkpt><trkpt lat="44.81632501170182" lon="9.370612537043892"><ele>871.0</ele><time>2026-03-22T16:19:48.998Z</time></trkpt><trkpt lat="44.81648998216301" lon="9.370636021573029"><ele>871.0</ele><time>2026-03-22T16:19:49.998Z</time></trkpt><trkpt lat="44.81664764914319" lon="9.370646402344638"><ele>871.0</ele><time>2026-03-22T16:19:50.998Z</time></trkpt><trkpt lat="44.816787370058485" lon="9.370647017528267"><ele>871.0</ele><time>2026-03-22T16:19:51.998Z</time></trkpt><trkpt lat="44.8169174927769" lon="9.370677409382349"><ele>871.0</ele><time>2026-03-22T16:19:52.998Z</time></trkpt><trkpt lat="44.817045877266956" lon="9.370755373287725"><ele>872.75</ele><time>2026-03-22T16:19:53.998Z</time></trkpt><trkpt lat="44.81715553054373" lon="9.370884230176623"><ele>874.5</ele><time>2026-03-22T16:19:54.998Z</time></trkpt><trkpt lat="44.81724079376277" lon="9.37102287937357"><ele>876.25</ele><time>2026-03-22T16:19:55.998Z</time></trkpt><trkpt lat="44.81733070393293" lon="9.371139363789029"><ele>878.0</ele><time>2026-03-22T16:19:56.998Z</time></trkpt><trkpt lat="44.81744410961732" lon="9.371239566797739"><ele>878.0</ele><time>2026-03-22T16:19:57.998Z</time></trkpt><trkpt lat="44.81759578591302" lon="9.371323729560169"><ele>878.0</ele><time>2026-03-22T16:19:58.998Z</time></trkpt><trkpt lat="44.81777571202584" lon="9.371383463224348"><ele>878.0</ele><time>2026-03-22T16:19:59.998Z</time></trkpt><trkpt lat="44.81796610166532" lon="9.371442330279896"><ele>877.6666666666667</ele><time>2026-03-22T16:20:00.998Z</time></trkpt><trkpt lat="44.81815257295993" lon="9.371501121563883"><ele>877.3333333333333</ele><time>2026-03-22T16:20:01.997Z</time></trkpt><trkpt lat="44.81834588540078" lon="9.371567692782655"><ele>877.0</ele><time>2026-03-22T16:20:02.997Z</time></trkpt><trkpt lat="44.81853517904153" lon="9.371636172322152"><ele>877.0</ele><time>2026-03-22T16:20:03.997Z</time></trkpt><trkpt lat="44.81871063375339" lon="9.371713411249972"><ele>877.0</ele><time>2026-03-22T16:20:04.997Z</time></trkpt><trkpt lat="44.81887690276639" lon="9.371803488173516"><ele>877.0</ele><time>2026-03-22T16:20:05.997Z</time></trkpt><trkpt lat="44.81905040531582" lon="9.371923403792795"><ele>877.0</ele><time>2026-03-22T16:20:06.997Z</time></trkpt><trkpt lat="44.819206368726356" lon="9.372060000354452"><ele>877.0</ele><time>2026-03-22T16:20:07.997Z</time></trkpt><trkpt lat="44.81937229479778" lon="9.37220323905555"><ele>877.0</ele><time>2026-03-22T16:20:09Z</time></trkpt><trkpt lat="44.81953477494746" lon="9.37233268066884"><ele>877.0</ele><time>2026-03-22T16:20:10Z</time></trkpt><trkpt lat="44.8196987215571" lon="9.372459673749656"><ele>877.0</ele><time>2026-03-22T16:20:11Z</time></trkpt><trkpt lat="44.819861277684446" lon="9.372583600007067"><ele>877.0</ele><time>2026-03-22T16:20:12Z</time></trkpt><trkpt lat="44.82002155879199" lon="9.372708098584502"><ele>877.0</ele><time>2026-03-22T16:20:13Z</time></trkpt><trkpt lat="44.8201809834435" lon="9.372836252898994"><ele>877.0</ele><time>2026-03-22T16:20:14Z</time></trkpt><trkpt lat="44.820334454617054" lon="9.37296849643135"><ele>877.0</ele><time>2026-03-22T16:20:15Z</time></trkpt><trkpt lat="44.820471869134316" lon="9.373126958787163"><ele>877.0</ele><time>2026-03-22T16:20:16Z</time></trkpt><trkpt lat="44.820581346307115" lon="9.37329991673796"><ele>877.0</ele><time>2026-03-22T16:20:17Z</time></trkpt><trkpt lat="44.82067075788412" lon="9.373463609975868"><ele>877.0</ele><time>2026-03-22T16:20:18Z</time></trkpt><trkpt lat="44.82075931678137" lon="9.373614092549252"><ele>877.0</ele><time>2026-03-22T16:20:19Z</time></trkpt><trkpt lat="44.82086165979279" lon="9.373743516768316"><ele>877.0</ele><time>2026-03-22T16:20:20Z</time></trkpt><trkpt lat="44.820980349356745" lon="9.373855183288207"><ele>877.0</ele><time>2026-03-22T16:20:21Z</time></trkpt><trkpt lat="44.82111235957853" lon="9.373960645586276"><ele>877.0</ele><time>2026-03-22T16:20:22Z</time></trkpt><trkpt lat="44.82125151013959" lon="9.374080422913233"><ele>878.0</ele><time>2026-03-22T16:20:23Z</time></trkpt><trkpt lat="44.82137574522133" lon="9.374192811138245"><ele>879.0</ele><time>2026-03-22T16:20:24Z</time></trkpt><trkpt lat="44.821485175572164" lon="9.374299210843642"><ele>880.0</ele><time>2026-03-22T16:20:25Z</time></trkpt><trkpt lat="44.821583672627746" lon="9.374383238527104"><ele>881.0</ele><time>2026-03-22T16:20:26Z</time></trkpt><trkpt lat="44.82169445237759" lon="9.37446280548637"><ele>883.3333333333334</ele><time>2026-03-22T16:20:27Z</time></trkpt><trkpt lat="44.8218348345692" lon="9.374517090949116"><ele>885.6666666666667</ele><time>2026-03-22T16:20:28Z</time></trkpt><trkpt lat="44.8220023339765" lon="9.37453366251271"><ele>888.0</ele><time>2026-03-22T16:20:29Z</time></trkpt><trkpt lat="44.822175409297344" lon="9.374549359137504"><ele>888.0</ele><time>2026-03-22T16:20:30Z</time></trkpt><trkpt lat="44.82234833504776" lon="9.37460128238033"><ele>888.0</ele><time>2026-03-22T16:20:31Z</time></trkpt><trkpt lat="44.82251572832383" lon="9.374681849190152"><ele>888.0</ele><time>2026-03-22T16:20:32Z</time></trkpt><trkpt lat="44.822678920937506" lon="9.374776371405524"><ele>885.6666666666667</ele><time>2026-03-22T16:20:33Z</time></trkpt><trkpt lat="44.82282940508888" lon="9.374896592989906"><ele>883.3333333333334</ele><time>2026-03-22T16:20:34Z</time></trkpt><trkpt lat="44.822959406723" lon="9.37504978064278"><ele>881.0</ele><time>2026-03-22T16:20:35Z</time></trkpt><trkpt lat="44.82307012218932" lon="9.3752281877"><ele>881.0</ele><time>2026-03-22T16:20:36Z</time></trkpt><trkpt lat="44.82317964737693" lon="9.3754065401972"><ele>881.0</ele><time>2026-03-22T16:20:37Z</time></trkpt><trkpt lat="44.82328029251457" lon="9.375557286790563"><ele>881.0</ele><time>2026-03-22T16:20:38Z</time></trkpt><trkpt lat="44.82337322830846" lon="9.375697856067895"><ele>880.25</ele><time>2026-03-22T16:20:39Z</time></trkpt><trkpt lat="44.82346032846173" lon="9.375829726759337"><ele>879.5</ele><time>2026-03-22T16:20:40Z</time></trkpt><trkpt lat="44.823545859032144" lon="9.375934058815643"><ele>878.75</ele><time>2026-03-22T16:20:41Z</time></trkpt><trkpt lat="44.82364995970353" lon="9.375996862460234"><ele>878.0</ele><time>2026-03-22T16:20:42Z</time></trkpt><trkpt lat="44.82379994687877" lon="9.375999193332724"><ele>878.0</ele><time>2026-03-22T16:20:43Z</time></trkpt><trkpt lat="44.823971155316826" lon="9.375954705758543"><ele>878.0</ele><time>2026-03-22T16:20:44Z</time></trkpt><trkpt lat="44.82413297378533" lon="9.375891349277932"><ele>878.0</ele><time>2026-03-22T16:20:45Z</time></trkpt><trkpt lat="44.824275788467396" lon="9.375840075771675"><ele>881.0</ele><time>2026-03-22T16:20:46Z</time></trkpt><trkpt lat="44.82441225487778" lon="9.375858928663359"><ele>884.0</ele><time>2026-03-22T16:20:47Z</time></trkpt><trkpt lat="44.82455618252166" lon="9.375965160604833"><ele>887.0</ele><time>2026-03-22T16:20:48Z</time></trkpt><trkpt lat="44.82469095632504" lon="9.37613746894827"><ele>887.0</ele><time>2026-03-22T16:20:49Z</time></trkpt><trkpt lat="44.82481535244772" lon="9.376332067408757"><ele>887.0</ele><time>2026-03-22T16:20:50Z</time></trkpt><trkpt lat="44.824931886931275" lon="9.376548101288385"><ele>887.0</ele><time>2026-03-22T16:20:51Z</time></trkpt><trkpt lat="44.82501394187799" lon="9.376758661845306"><ele>884.6666666666667</ele><time>2026-03-22T16:20:52Z</time></trkpt><trkpt lat="44.82506519106357" lon="9.376964833409836"><ele>882.3333333333333</ele><time>2026-03-22T16:20:53Z</time></trkpt><trkpt lat="44.82507786187791" lon="9.37720351621453"><ele>880.0</ele><time>2026-03-22T16:20:54Z</time></trkpt><trkpt lat="44.82504834167514" lon="9.377440632516102"><ele>879.0</ele><time>2026-03-22T16:20:55Z</time></trkpt><trkpt lat="44.82500990418874" lon="9.37766229838527"><ele>878.0</ele><time>2026-03-22T16:20:55.999Z</time></trkpt><trkpt lat="44.82498771452379" lon="9.3778558518017"><ele>877.0</ele><time>2026-03-22T16:20:56.999Z</time></trkpt><trkpt lat="44.824981038995574" lon="9.378038281292415"><ele>876.0</ele><time>2026-03-22T16:20:57.999Z</time></trkpt><trkpt lat="44.82500356258444" lon="9.378241177788299"><ele>875.3333333333333</ele><time>2026-03-22T16:20:58.999Z</time></trkpt><trkpt lat="44.825069509896935" lon="9.37846905377223"><ele>874.6666666666666</ele><time>2026-03-22T16:20:59.999Z</time></trkpt><trkpt lat="44.82514366818327" lon="9.378712036077326"><ele>874.0</ele><time>2026-03-22T16:21:00.999Z</time></trkpt><trkpt lat="44.825198766403346" lon="9.37896250315718"><ele>879.6666666666666</ele><time>2026-03-22T16:21:01.999Z</time></trkpt><trkpt lat="44.82522344450855" lon="9.379211405761488"><ele>885.3333333333333</ele><time>2026-03-22T16:21:02.999Z</time></trkpt><trkpt lat="44.82521199842787" lon="9.379465376762436"><ele>891.0</ele><time>2026-03-22T16:21:03.999Z</time></trkpt><trkpt lat="44.82517874338568" lon="9.379691607835868"><ele>891.0</ele><time>2026-03-22T16:21:04.999Z</time></trkpt><trkpt lat="44.82515070433811" lon="9.379899890714443"><ele>891.0</ele><time>2026-03-22T16:21:05.999Z</time></trkpt><trkpt lat="44.82513059616322" lon="9.380079865708993"><ele>891.0</ele><time>2026-03-22T16:21:06.999Z</time></trkpt><trkpt lat="44.825109959347635" lon="9.380257239706186"><ele>891.0</ele><time>2026-03-22T16:21:07.999Z</time></trkpt><trkpt lat="44.825108417072286" lon="9.380456617294794"><ele>889.75</ele><time>2026-03-22T16:21:08.999Z</time></trkpt><trkpt lat="44.82513087032968" lon="9.380658954633045"><ele>888.5</ele><time>2026-03-22T16:21:09.998Z</time></trkpt><trkpt lat="44.825159995072006" lon="9.380843491683162"><ele>887.25</ele><time>2026-03-22T16:21:10.998Z</time></trkpt><trkpt lat="44.82522249165821" lon="9.381020998324306"><ele>886.0</ele><time>2026-03-22T16:21:11.998Z</time></trkpt><trkpt lat="44.82534248113842" lon="9.381208581994471"><ele>884.0</ele><time>2026-03-22T16:21:12.998Z</time></trkpt><trkpt lat="44.82548152771902" lon="9.381377426584857"><ele>882.0</ele><time>2026-03-22T16:21:13.998Z</time></trkpt><trkpt lat="44.825579786226704" lon="9.381594571799038"><ele>880.0</ele><time>2026-03-22T16:21:14.998Z</time></trkpt><trkpt lat="44.82562531450482" lon="9.381864668496819"><ele>880.0</ele><time>2026-03-22T16:21:15.998Z</time></trkpt><trkpt lat="44.82564858121251" lon="9.382108363774403"><ele>880.0</ele><time>2026-03-22T16:21:16.998Z</time></trkpt><trkpt lat="44.82568026128281" lon="9.382321647598676"><ele>880.0</ele><time>2026-03-22T16:21:17.998Z</time></trkpt><trkpt lat="44.825726480400064" lon="9.382520296532661"><ele>878.3333333333333</ele><time>2026-03-22T16:21:18.998Z</time></trkpt><trkpt lat="44.82580553557463" lon="9.382725935111813"><ele>876.6666666666667</ele><time>2026-03-22T16:21:19.998Z</time></trkpt><trkpt lat="44.825896621010216" lon="9.382914731005116"><ele>875.0</ele><time>2026-03-22T16:21:20.998Z</time></trkpt><trkpt lat="44.825977122820696" lon="9.383069793745845"><ele>874.5</ele><time>2026-03-22T16:21:21.998Z</time></trkpt><trkpt lat="44.82605670214785" lon="9.383197417157911"><ele>874.0</ele><time>2026-03-22T16:21:22.998Z</time></trkpt><trkpt lat="44.82615508742678" lon="9.383280058026346"><ele>873.5</ele><time>2026-03-22T16:21:23.998Z</time></trkpt><trkpt lat="44.82628972163937" lon="9.383312530620112"><ele>873.0</ele><time>2026-03-22T16:21:24.998Z</time></trkpt><trkpt lat="44.8264605171749" lon="9.383305785689725"><ele>873.0</ele><time>2026-03-22T16:21:25.998Z</time></trkpt><trkpt lat="44.826662127616885" lon="9.383277646527123"><ele>873.0</ele><time>2026-03-22T16:21:26.998Z</time></trkpt><trkpt lat="44.82685510538407" lon="9.383256432443035"><ele>873.0</ele><time>2026-03-22T16:21:27.998Z</time></trkpt><trkpt lat="44.82702962278957" lon="9.383244029377101"><ele>871.3333333333333</ele><time>2026-03-22T16:21:28.998Z</time></trkpt><trkpt lat="44.827202956315446" lon="9.383212078968455"><ele>869.6666666666666</ele><time>2026-03-22T16:21:29.998Z</time></trkpt><trkpt lat="44.82740105069558" lon="9.383127351776476"><ele>868.0</ele><time>2026-03-22T16:21:30.998Z</time></trkpt><trkpt lat="44.827607375317825" lon="9.38299773918247"><ele>870.3333333333333</ele><time>2026-03-22T16:21:31.998Z</time></trkpt><trkpt lat="44.82781474401696" lon="9.382862823871868"><ele>872.6666666666667</ele><time>2026-03-22T16:21:32.998Z</time></trkpt><trkpt lat="44.82801456485976" lon="9.382738011012455"><ele>875.0</ele><time>2026-03-22T16:21:33.998Z</time></trkpt><trkpt lat="44.828195754788965" lon="9.382640030716487"><ele>875.0</ele><time>2026-03-22T16:21:34.998Z</time></trkpt><trkpt lat="44.82837045207733" lon="9.382576299372976"><ele>875.0</ele><time>2026-03-22T16:21:35.998Z</time></trkpt><trkpt lat="44.828526380682064" lon="9.382570322958841"><ele>875.0</ele><time>2026-03-22T16:21:36.998Z</time></trkpt><trkpt lat="44.82867550597479" lon="9.382594289601263"><ele>873.3333333333334</ele><time>2026-03-22T16:21:37.998Z</time></trkpt><trkpt lat="44.82881283711122" lon="9.382598792108329"><ele>871.6666666666667</ele><time>2026-03-22T16:21:38.998Z</time></trkpt><trkpt lat="44.8289575306343" lon="9.382521144423858"><ele>870.0</ele><time>2026-03-22T16:21:39.998Z</time></trkpt><trkpt lat="44.82912025265677" lon="9.382380371377614"><ele>870.0</ele><time>2026-03-22T16:21:40.998Z</time></trkpt><trkpt lat="44.82928942677356" lon="9.382253758048106"><ele>870.0</ele><time>2026-03-22T16:21:41.997Z</time></trkpt><trkpt lat="44.82943832282993" lon="9.382182383216797"><ele>870.0</ele><time>2026-03-22T16:21:42.997Z</time></trkpt><trkpt lat="44.82956856592596" lon="9.382135623996245"><ele>870.0</ele><time>2026-03-22T16:21:43.997Z</time></trkpt><trkpt lat="44.8296713812206" lon="9.382081193143891"><ele>870.0</ele><time>2026-03-22T16:21:44.997Z</time></trkpt><trkpt lat="44.829744960057816" lon="9.381977378926237"><ele>870.0</ele><time>2026-03-22T16:21:45.997Z</time></trkpt><trkpt lat="44.82979013901958" lon="9.381827814578507"><ele>870.0</ele><time>2026-03-22T16:21:46.997Z</time></trkpt><trkpt lat="44.82980379236101" lon="9.381668860065808"><ele>870.0</ele><time>2026-03-22T16:21:47.997Z</time></trkpt><trkpt lat="44.829777184157386" lon="9.3815073323867"><ele>867.3333333333333</ele><time>2026-03-22T16:21:48.997Z</time></trkpt><trkpt lat="44.82971378605315" lon="9.38131380466583"><ele>864.6666666666666</ele><time>2026-03-22T16:21:49.997Z</time></trkpt><trkpt lat="44.8296268216376" lon="9.381094837427026"><ele>862.0</ele><time>2026-03-22T16:21:50.997Z</time></trkpt><trkpt lat="44.82952619946461" lon="9.380873438262544"><ele>862.0</ele><time>2026-03-22T16:21:51.997Z</time></trkpt><trkpt lat="44.82941017118909" lon="9.380693896814096"><ele>862.0</ele><time>2026-03-22T16:21:52.997Z</time></trkpt><trkpt lat="44.82930175315302" lon="9.3805078681033"><ele>862.0</ele><time>2026-03-22T16:21:53.997Z</time></trkpt><trkpt lat="44.82923738558164" lon="9.380267343991799"><ele>862.0</ele><time>2026-03-22T16:21:54.997Z</time></trkpt><trkpt lat="44.82923338882147" lon="9.380009524490339"><ele>862.0</ele><time>2026-03-22T16:21:55.997Z</time></trkpt><trkpt lat="44.82922185401341" lon="9.379768781761912"><ele>862.0</ele><time>2026-03-22T16:21:56.997Z</time></trkpt><trkpt lat="44.82918638004094" lon="9.379541466933706"><ele>862.0</ele><time>2026-03-22T16:21:57.997Z</time></trkpt><trkpt lat="44.82913285593471" lon="9.379317949845278"><ele>862.0</ele><time>2026-03-22T16:21:58.997Z</time></trkpt><trkpt lat="44.82906719736091" lon="9.379109366198804"><ele>862.0</ele><time>2026-03-22T16:21:59.997Z</time></trkpt><trkpt lat="44.8289871807101" lon="9.37890828181336"><ele>859.0</ele><time>2026-03-22T16:22:00.997Z</time></trkpt><trkpt lat="44.82892357282982" lon="9.37869587527688"><ele>856.0</ele><time>2026-03-22T16:22:01.997Z</time></trkpt><trkpt lat="44.828884178885836" lon="9.378487590146431"><ele>853.0</ele><time>2026-03-22T16:22:02.997Z</time></trkpt><trkpt lat="44.82885973434301" lon="9.378272537037809"><ele>853.0</ele><time>2026-03-22T16:22:03.997Z</time></trkpt><trkpt lat="44.828856032378724" lon="9.378073470155027"><ele>853.0</ele><time>2026-03-22T16:22:04.997Z</time></trkpt><trkpt lat="44.82885634693632" lon="9.377899042390425"><ele>853.0</ele><time>2026-03-22T16:22:05.997Z</time></trkpt><trkpt lat="44.828850079278034" lon="9.37775646154175"><ele>853.0</ele><time>2026-03-22T16:22:06.997Z</time></trkpt><trkpt lat="44.82886307327793" lon="9.377631939580048"><ele>852.2</ele><time>2026-03-22T16:22:07.997Z</time></trkpt><trkpt lat="44.82892637193401" lon="9.37754148323696"><ele>851.4</ele><time>2026-03-22T16:22:08.997Z</time></trkpt><trkpt lat="44.82901890984901" lon="9.377504883014426"><ele>850.6</ele><time>2026-03-22T16:22:09.997Z</time></trkpt><trkpt lat="44.82910572751658" lon="9.377548982927458"><ele>849.8000000000001</ele><time>2026-03-22T16:22:10.997Z</time></trkpt><trkpt lat="44.82916440783861" lon="9.377658861421875"><ele>849.0</ele><time>2026-03-22T16:22:11.997Z</time></trkpt><trkpt lat="44.82918730769913" lon="9.377820055788076"><ele>849.0</ele><time>2026-03-22T16:22:12.997Z</time></trkpt><trkpt lat="44.8291894758057" lon="9.37800099748579"><ele>849.0</ele><time>2026-03-22T16:22:13.997Z</time></trkpt><trkpt lat="44.829220902608895" lon="9.378198034492968"><ele>849.0</ele><time>2026-03-22T16:22:14.999Z</time></trkpt><trkpt lat="44.82930459502525" lon="9.378415486912665"><ele>849.0</ele><time>2026-03-22T16:22:15.999Z</time></trkpt><trkpt lat="44.8294242891561" lon="9.37861351115672"><ele>845.6666666666667</ele><time>2026-03-22T16:22:16.999Z</time></trkpt><trkpt lat="44.82955283226452" lon="9.378801276551629"><ele>842.3333333333334</ele><time>2026-03-22T16:22:17.999Z</time></trkpt><trkpt lat="44.82964173672913" lon="9.379004986181261"><ele>839.0</ele><time>2026-03-22T16:22:18.999Z</time></trkpt><trkpt lat="44.82969307046135" lon="9.379191640938844"><ele>839.0</ele><time>2026-03-22T16:22:19.999Z</time></trkpt><trkpt lat="44.82973712465673" lon="9.379329627671572"><ele>839.0</ele><time>2026-03-22T16:22:20.999Z</time></trkpt><trkpt lat="44.829817062890505" lon="9.379458956469124"><ele>839.0</ele><time>2026-03-22T16:22:21.999Z</time></trkpt><trkpt lat="44.82990560152001" lon="9.379563575401026"><ele>839.0</ele><time>2026-03-22T16:22:22.999Z</time></trkpt><trkpt lat="44.83000901567335" lon="9.379648410263341"><ele>840.25</ele><time>2026-03-22T16:22:23.999Z</time></trkpt><trkpt lat="44.83013003514171" lon="9.379696370623014"><ele>841.5</ele><time>2026-03-22T16:22:24.999Z</time></trkpt><trkpt lat="44.83025448170835" lon="9.379690063193337"><ele>842.75</ele><time>2026-03-22T16:22:25.999Z</time></trkpt><trkpt lat="44.83040403401841" lon="9.379626483140154"><ele>844.0</ele><time>2026-03-22T16:22:26.999Z</time></trkpt><trkpt lat="44.8305334742415" lon="9.379512463959063"><ele>840.5</ele><time>2026-03-22T16:22:27.999Z</time></trkpt><trkpt lat="44.83066521550759" lon="9.379431238843901"><ele>837.0</ele><time>2026-03-22T16:22:28.999Z</time></trkpt><trkpt lat="44.83081022065311" lon="9.379437682178581"><ele>833.5</ele><time>2026-03-22T16:22:29.999Z</time></trkpt><trkpt lat="44.83095864602294" lon="9.379520710337829"><ele>830.0</ele><time>2026-03-22T16:22:30.999Z</time></trkpt><trkpt lat="44.831105968492345" lon="9.379637109369078"><ele>832.0</ele><time>2026-03-22T16:22:31.999Z</time></trkpt><trkpt lat="44.831249497738646" lon="9.379724453188532"><ele>834.0</ele><time>2026-03-22T16:22:32.999Z</time></trkpt><trkpt lat="44.831404685762315" lon="9.37979270937641"><ele>836.0</ele><time>2026-03-22T16:22:33.999Z</time></trkpt><trkpt lat="44.83157458165229" lon="9.379821296865304"><ele>836.0</ele><time>2026-03-22T16:22:34.999Z</time></trkpt><trkpt lat="44.83175811808775" lon="9.379779420712214"><ele>836.0</ele><time>2026-03-22T16:22:35.999Z</time></trkpt><trkpt lat="44.831938923559605" lon="9.379709357929675"><ele>836.0</ele><time>2026-03-22T16:22:36.999Z</time></trkpt><trkpt lat="44.832128993294184" lon="9.379649745817458"><ele>829.6666666666667</ele><time>2026-03-22T16:22:37.999Z</time></trkpt><trkpt lat="44.83231008319622" lon="9.379600047743024"><ele>823.3333333333333</ele><time>2026-03-22T16:22:38.999Z</time></trkpt><trkpt lat="44.83248103943698" lon="9.3795508421083"><ele>817.0</ele><time>2026-03-22T16:22:39.999Z</time></trkpt><trkpt lat="44.8326419977916" lon="9.379485479470896"><ele>817.0</ele><time>2026-03-22T16:22:40.999Z</time></trkpt><trkpt lat="44.83280205525297" lon="9.379395484281837"><ele>817.0</ele><time>2026-03-22T16:22:41.999Z</time></trkpt><trkpt lat="44.832958815317454" lon="9.379290803485075"><ele>817.0</ele><time>2026-03-22T16:22:42.999Z</time></trkpt><trkpt lat="44.83311447542666" lon="9.379213659320698"><ele>817.0</ele><time>2026-03-22T16:22:43.999Z</time></trkpt><trkpt lat="44.83326383186714" lon="9.37921348588761"><ele>817.0</ele><time>2026-03-22T16:22:44.999Z</time></trkpt><trkpt lat="44.83339709593385" lon="9.379262665014345"><ele>817.0</ele><time>2026-03-22T16:22:45.999Z</time></trkpt><trkpt lat="44.83352887288295" lon="9.379277036483526"><ele>817.0</ele><time>2026-03-22T16:22:46.999Z</time></trkpt><trkpt lat="44.83366843021204" lon="9.379184523526884"><ele>815.5</ele><time>2026-03-22T16:22:47.999Z</time></trkpt><trkpt lat="44.833788218487214" lon="9.379036868599542"><ele>814.0</ele><time>2026-03-22T16:22:48.999Z</time></trkpt><trkpt lat="44.83388788084802" lon="9.378893937575816"><ele>812.5</ele><time>2026-03-22T16:22:49.999Z</time></trkpt><trkpt lat="44.83400864336164" lon="9.378831327696064"><ele>811.0</ele><time>2026-03-22T16:22:50.999Z</time></trkpt><trkpt lat="44.83413575919515" lon="9.378858027983142"><ele>811.0</ele><time>2026-03-22T16:22:51.999Z</time></trkpt><trkpt lat="44.83424070300487" lon="9.378957220343635"><ele>811.0</ele><time>2026-03-22T16:22:52.999Z</time></trkpt><trkpt lat="44.834304838254546" lon="9.3791496132366"><ele>811.0</ele><time>2026-03-22T16:22:53.999Z</time></trkpt><trkpt lat="44.83433459167857" lon="9.379359245007869"><ele>811.0</ele><time>2026-03-22T16:22:54.999Z</time></trkpt><trkpt lat="44.83436469196523" lon="9.379549173664183"><ele>806.3333333333333</ele><time>2026-03-22T16:22:55.999Z</time></trkpt><trkpt lat="44.834433475955436" lon="9.379746099257089"><ele>801.6666666666667</ele><time>2026-03-22T16:22:56.999Z</time></trkpt><trkpt lat="44.83455959767843" lon="9.379954963971453"><ele>797.0</ele><time>2026-03-22T16:22:57.999Z</time></trkpt><trkpt lat="44.83473536043289" lon="9.380127689022244"><ele>797.0</ele><time>2026-03-22T16:22:58.999Z</time></trkpt><trkpt lat="44.834882074913644" lon="9.380281850616619"><ele>797.0</ele><time>2026-03-22T16:22:59.999Z</time></trkpt><trkpt lat="44.83501835243497" lon="9.380441260675981"><ele>797.0</ele><time>2026-03-22T16:23:00.999Z</time></trkpt><trkpt lat="44.83514045484266" lon="9.380598685842084"><ele>792.6666666666667</ele><time>2026-03-22T16:23:01.999Z</time></trkpt><trkpt lat="44.83526168864349" lon="9.38076028544596"><ele>788.3333333333333</ele><time>2026-03-22T16:23:02.999Z</time></trkpt><trkpt lat="44.83537405835128" lon="9.380923484527024"><ele>784.0</ele><time>2026-03-22T16:23:03.999Z</time></trkpt><trkpt lat="44.83548455325828" lon="9.381079622662313"><ele>784.0</ele><time>2026-03-22T16:23:04.999Z</time></trkpt><trkpt lat="44.83557126273744" lon="9.381244780376157"><ele>784.0</ele><time>2026-03-22T16:23:05.999Z</time></trkpt><trkpt lat="44.83562295897461" lon="9.38142267491696"><ele>784.0</ele><time>2026-03-22T16:23:06.999Z</time></trkpt><trkpt lat="44.83564929278421" lon="9.381600476875958"><ele>784.0</ele><time>2026-03-22T16:23:07.999Z</time></trkpt><trkpt lat="44.83568260625706" lon="9.381768207308648"><ele>784.0</ele><time>2026-03-22T16:23:08.999Z</time></trkpt><trkpt lat="44.83573778576466" lon="9.38190539319526"><ele>784.0</ele><time>2026-03-22T16:23:09.999Z</time></trkpt><trkpt lat="44.835828509121804" lon="9.382010317475853"><ele>784.0</ele><time>2026-03-22T16:23:10.999Z</time></trkpt><trkpt lat="44.83595107220559" lon="9.382068967015606"><ele>784.0</ele><time>2026-03-22T16:23:11.999Z</time></trkpt><trkpt lat="44.83610095730372" lon="9.382060696500655"><ele>784.0</ele><time>2026-03-22T16:23:12.999Z</time></trkpt><trkpt lat="44.83625388349075" lon="9.381971743074196"><ele>784.0</ele><time>2026-03-22T16:23:13.999Z</time></trkpt><trkpt lat="44.83641108711965" lon="9.381842677658517"><ele>784.0</ele><time>2026-03-22T16:23:14.999Z</time></trkpt><trkpt lat="44.83658848121298" lon="9.381741859917712"><ele>784.0</ele><time>2026-03-22T16:23:15.999Z</time></trkpt><trkpt lat="44.83676982295022" lon="9.381682438809209"><ele>784.0</ele><time>2026-03-22T16:23:16.998Z</time></trkpt><trkpt lat="44.83695115733348" lon="9.381624242910739"><ele>784.0</ele><time>2026-03-22T16:23:17.998Z</time></trkpt><trkpt lat="44.837133468510565" lon="9.381524089463047"><ele>786.3333333333333</ele><time>2026-03-22T16:23:18.998Z</time></trkpt><trkpt lat="44.83729114037401" lon="9.381394758107485"><ele>788.6666666666667</ele><time>2026-03-22T16:23:19.998Z</time></trkpt><trkpt lat="44.837436742786934" lon="9.381269391545604"><ele>791.0</ele><time>2026-03-22T16:23:20.998Z</time></trkpt><trkpt lat="44.837579452015554" lon="9.381156398626022"><ele>783.3333333333334</ele><time>2026-03-22T16:23:21.998Z</time></trkpt><trkpt lat="44.83773109597907" lon="9.381047265853491"><ele>775.6666666666667</ele><time>2026-03-22T16:23:22.998Z</time></trkpt><trkpt lat="44.83787951595473" lon="9.380944201501176"><ele>768.0</ele><time>2026-03-22T16:23:23.998Z</time></trkpt><trkpt lat="44.838015542832" lon="9.380845847521933"><ele>768.0</ele><time>2026-03-22T16:23:24.998Z</time></trkpt><trkpt lat="44.83815226719016" lon="9.38076995043558"><ele>768.0</ele><time>2026-03-22T16:23:25.998Z</time></trkpt><trkpt lat="44.838296492738166" lon="9.38075479765295"><ele>768.0</ele><time>2026-03-22T16:23:26.998Z</time></trkpt><trkpt lat="44.8384571799212" lon="9.380790131251707"><ele>766.0</ele><time>2026-03-22T16:23:27.998Z</time></trkpt><trkpt lat="44.838621030069085" lon="9.380860793830474"><ele>764.0</ele><time>2026-03-22T16:23:28.998Z</time></trkpt><trkpt lat="44.83878160321336" lon="9.380937567389832"><ele>762.0</ele><time>2026-03-22T16:23:29.998Z</time></trkpt><trkpt lat="44.8389233111497" lon="9.38098378368188"><ele>762.0</ele><time>2026-03-22T16:23:30.998Z</time></trkpt><trkpt lat="44.83906048984608" lon="9.381030833492964"><ele>762.0</ele><time>2026-03-22T16:23:31.998Z</time></trkpt><trkpt lat="44.83918544503112" lon="9.381064251576209"><ele>762.0</ele><time>2026-03-22T16:23:32.998Z</time></trkpt><trkpt lat="44.839308527293184" lon="9.381047539051371"><ele>762.0</ele><time>2026-03-22T16:23:33.998Z</time></trkpt><trkpt lat="44.839422816466325" lon="9.380965701622783"><ele>761.75</ele><time>2026-03-22T16:23:34.998Z</time></trkpt><trkpt lat="44.83950987191742" lon="9.380827690493174"><ele>761.5</ele><time>2026-03-22T16:23:35.998Z</time></trkpt><trkpt lat="44.839559253310945" lon="9.380643166213261"><ele>761.25</ele><time>2026-03-22T16:23:36.998Z</time></trkpt><trkpt lat="44.83957201189555" lon="9.380420830735249"><ele>761.0</ele><time>2026-03-22T16:23:37.998Z</time></trkpt><trkpt lat="44.83956193188399" lon="9.380180776260367"><ele>761.0</ele><time>2026-03-22T16:23:38.998Z</time></trkpt><trkpt lat="44.8395567540131" lon="9.379983136096586"><ele>761.0</ele><time>2026-03-22T16:23:39.998Z</time></trkpt><trkpt lat="44.83958288036945" lon="9.379807954160647"><ele>761.0</ele><time>2026-03-22T16:23:40.998Z</time></trkpt><trkpt lat="44.83965161212879" lon="9.379670625019688"><ele>761.0</ele><time>2026-03-22T16:23:41.998Z</time></trkpt><trkpt lat="44.83975384743466" lon="9.379596873704514"><ele>761.0</ele><time>2026-03-22T16:23:42.998Z</time></trkpt><trkpt lat="44.83986887254859" lon="9.379590810547965"><ele>761.0</ele><time>2026-03-22T16:23:43.998Z</time></trkpt><trkpt lat="44.839983251034184" lon="9.379639895353925"><ele>761.0</ele><time>2026-03-22T16:23:44.998Z</time></trkpt><trkpt lat="44.84009847636715" lon="9.379730338580162"><ele>761.0</ele><time>2026-03-22T16:23:45.998Z</time></trkpt><trkpt lat="44.840199443313885" lon="9.379811350717162"><ele>762.8</ele><time>2026-03-22T16:23:46.998Z</time></trkpt><trkpt lat="44.84029797822108" lon="9.379862512607113"><ele>764.5999999999999</ele><time>2026-03-22T16:23:47.998Z</time></trkpt><trkpt lat="44.84039332277546" lon="9.379864977621345"><ele>766.4</ele><time>2026-03-22T16:23:48.998Z</time></trkpt><trkpt lat="44.840488001294545" lon="9.379829146479349"><ele>768.2</ele><time>2026-03-22T16:23:49.998Z</time></trkpt><trkpt lat="44.84057401930528" lon="9.379754861787532"><ele>770.0</ele><time>2026-03-22T16:23:50.998Z</time></trkpt><trkpt lat="44.840644898235865" lon="9.379655852386975"><ele>764.75</ele><time>2026-03-22T16:23:51.998Z</time></trkpt><trkpt lat="44.840699372327194" lon="9.379504945331856"><ele>759.5</ele><time>2026-03-22T16:23:52.998Z</time></trkpt><trkpt lat="44.84073055059181" lon="9.379320902834529"><ele>754.25</ele><time>2026-03-22T16:23:53.998Z</time></trkpt><trkpt lat="44.84075295161581" lon="9.379163220332378"><ele>749.0</ele><time>2026-03-22T16:23:54.998Z</time></trkpt><trkpt lat="44.840792036750436" lon="9.379026349352621"><ele>749.0</ele><time>2026-03-22T16:23:55.998Z</time></trkpt><trkpt lat="44.84085901644981" lon="9.378898888698979"><ele>749.0</ele><time>2026-03-22T16:23:56.998Z</time></trkpt><trkpt lat="44.84095250088196" lon="9.37878302717221"><ele>749.0</ele><time>2026-03-22T16:23:57.998Z</time></trkpt><trkpt lat="44.841055700160055" lon="9.378677337752093"><ele>749.0</ele><time>2026-03-22T16:23:58.998Z</time></trkpt><trkpt lat="44.84116158385" lon="9.378582360703385"><ele>746.2</ele><time>2026-03-22T16:23:59.998Z</time></trkpt><trkpt lat="44.84126168467524" lon="9.378502438351752"><ele>743.4000000000001</ele><time>2026-03-22T16:24:00.998Z</time></trkpt><trkpt lat="44.841360779315586" lon="9.378445210294664"><ele>740.6</ele><time>2026-03-22T16:24:01.998Z</time></trkpt><trkpt lat="44.84145734903321" lon="9.378440404310211"><ele>737.8</ele><time>2026-03-22T16:24:02.997Z</time></trkpt><trkpt lat="44.84155085216339" lon="9.378480646655893"><ele>735.0</ele><time>2026-03-22T16:24:03.997Z</time></trkpt><trkpt lat="44.841642060818984" lon="9.378552781084851"><ele>735.0</ele><time>2026-03-22T16:24:04.997Z</time></trkpt><trkpt lat="44.8417336923285" lon="9.378635213420115"><ele>735.0</ele><time>2026-03-22T16:24:05.997Z</time></trkpt><trkpt lat="44.84183620085328" lon="9.37870540180522"><ele>735.0</ele><time>2026-03-22T16:24:06.997Z</time></trkpt><trkpt lat="44.841954742394314" lon="9.378728730925058"><ele>735.0</ele><time>2026-03-22T16:24:07.997Z</time></trkpt><trkpt lat="44.84208436428874" lon="9.378701866878972"><ele>735.6666666666666</ele><time>2026-03-22T16:24:08.997Z</time></trkpt><trkpt lat="44.84220914943706" lon="9.378630033624063"><ele>736.3333333333333</ele><time>2026-03-22T16:24:09.997Z</time></trkpt><trkpt lat="44.8423606159624" lon="9.378500513972762"><ele>737.0</ele><time>2026-03-22T16:24:10.997Z</time></trkpt><trkpt lat="44.84254626065312" lon="9.378341662086967"><ele>741.3333333333333</ele><time>2026-03-22T16:24:11.997Z</time></trkpt><trkpt lat="44.84272376054849" lon="9.378199943397322"><ele>745.6666666666666</ele><time>2026-03-22T16:24:12.997Z</time></trkpt><trkpt lat="44.84287451720251" lon="9.378069563502859"><ele>750.0</ele><time>2026-03-22T16:24:13.997Z</time></trkpt><trkpt lat="44.84301463911539" lon="9.377940892855893"><ele>745.5</ele><time>2026-03-22T16:24:14.997Z</time></trkpt><trkpt lat="44.84314429926836" lon="9.3778224444316"><ele>741.0</ele><time>2026-03-22T16:24:15.997Z</time></trkpt><trkpt lat="44.84326210118919" lon="9.377709147427193"><ele>736.5</ele><time>2026-03-22T16:24:16.997Z</time></trkpt><trkpt lat="44.8433792269061" lon="9.377621780394168"><ele>732.0</ele><time>2026-03-22T16:24:17.997Z</time></trkpt><trkpt lat="44.84352554837328" lon="9.37755729184638"><ele>732.0</ele><time>2026-03-22T16:24:18.997Z</time></trkpt><trkpt lat="44.84367470212664" lon="9.377549500236182"><ele>732.0</ele><time>2026-03-22T16:24:19.997Z</time></trkpt><trkpt lat="44.843809558448804" lon="9.377553831459064"><ele>732.0</ele><time>2026-03-22T16:24:21Z</time></trkpt><trkpt lat="44.84393030109242" lon="9.377523577978648"><ele>732.0</ele><time>2026-03-22T16:24:22Z</time></trkpt><trkpt lat="44.844053384414835" lon="9.37743184362104"><ele>732.0</ele><time>2026-03-22T16:24:23Z</time></trkpt><trkpt lat="44.8441500834212" lon="9.377271693886012"><ele>732.0</ele><time>2026-03-22T16:24:24Z</time></trkpt><trkpt lat="44.84422154942716" lon="9.377082158672122"><ele>732.0</ele><time>2026-03-22T16:24:25Z</time></trkpt><trkpt lat="44.84429703991637" lon="9.37691973687711"><ele>732.0</ele><time>2026-03-22T16:24:26Z</time></trkpt><trkpt lat="44.844429611591934" lon="9.376839732865243"><ele>724.3333333333334</ele><time>2026-03-22T16:24:27Z</time></trkpt><trkpt lat="44.84459103841836" lon="9.37680636779405"><ele>716.6666666666667</ele><time>2026-03-22T16:24:28Z</time></trkpt><trkpt lat="44.84476034528289" lon="9.376851924175291"><ele>709.0</ele><time>2026-03-22T16:24:29Z</time></trkpt><trkpt lat="44.84493699143994" lon="9.376948017264485"><ele>709.0</ele><time>2026-03-22T16:24:30Z</time></trkpt><trkpt lat="44.845088731178286" lon="9.377079512667017"><ele>709.0</ele><time>2026-03-22T16:24:31Z</time></trkpt><trkpt lat="44.8452084585438" lon="9.377206150747824"><ele>709.0</ele><time>2026-03-22T16:24:32Z</time></trkpt><trkpt lat="44.84531458276988" lon="9.377310124475022"><ele>709.75</ele><time>2026-03-22T16:24:33Z</time></trkpt><trkpt lat="44.845414560142515" lon="9.377371147824357"><ele>710.5</ele><time>2026-03-22T16:24:34Z</time></trkpt><trkpt lat="44.84552645042381" lon="9.377365395109267"><ele>711.25</ele><time>2026-03-22T16:24:35Z</time></trkpt><trkpt lat="44.845629547668885" lon="9.377282863326128"><ele>712.0</ele><time>2026-03-22T16:24:36Z</time></trkpt><trkpt lat="44.84570943349987" lon="9.377133107896668"><ele>712.0</ele><time>2026-03-22T16:24:37Z</time></trkpt><trkpt lat="44.84576896956607" lon="9.376949238300062"><ele>712.0</ele><time>2026-03-22T16:24:38Z</time></trkpt><trkpt lat="44.845866590604324" lon="9.376747424609462"><ele>712.0</ele><time>2026-03-22T16:24:39Z</time></trkpt><trkpt lat="44.84596224449616" lon="9.376628293947268"><ele>712.0</ele><time>2026-03-22T16:24:40Z</time></trkpt><trkpt lat="44.846080276510484" lon="9.37654100241056"><ele>711.0</ele><time>2026-03-22T16:24:41Z</time></trkpt><trkpt lat="44.84619048785695" lon="9.376480830808038"><ele>710.0</ele><time>2026-03-22T16:24:42Z</time></trkpt><trkpt lat="44.84630892781037" lon="9.37644826146608"><ele>709.0</ele><time>2026-03-22T16:24:43Z</time></trkpt><trkpt lat="44.846441338809996" lon="9.376387606548612"><ele>708.0</ele><time>2026-03-22T16:24:44Z</time></trkpt><trkpt lat="44.84655232595015" lon="9.376252246767578"><ele>708.0</ele><time>2026-03-22T16:24:45Z</time></trkpt><trkpt lat="44.8466434351265" lon="9.37604909296524"><ele>708.0</ele><time>2026-03-22T16:24:46Z</time></trkpt><trkpt lat="44.84672373825096" lon="9.375810424298455"><ele>708.0</ele><time>2026-03-22T16:24:47Z</time></trkpt><trkpt lat="44.84684129259386" lon="9.375572512037216"><ele>706.0</ele><time>2026-03-22T16:24:48Z</time></trkpt><trkpt lat="44.84697503972057" lon="9.375385779525878"><ele>704.0</ele><time>2026-03-22T16:24:48.999Z</time></trkpt><trkpt lat="44.84710011066925" lon="9.375228569935922"><ele>702.0</ele><time>2026-03-22T16:24:49.999Z</time></trkpt><trkpt lat="44.84720925410071" lon="9.3750729681082"><ele>702.0</ele><time>2026-03-22T16:24:50.999Z</time></trkpt><trkpt lat="44.84731123570573" lon="9.374929717591833"><ele>702.0</ele><time>2026-03-22T16:24:51.999Z</time></trkpt><trkpt lat="44.8474169171293" lon="9.374844694558828"><ele>702.0</ele><time>2026-03-22T16:24:52.999Z</time></trkpt><trkpt lat="44.847533830154525" lon="9.374810732933527"><ele>702.0</ele><time>2026-03-22T16:24:53.999Z</time></trkpt><trkpt lat="44.84766813657779" lon="9.374821708347945"><ele>701.25</ele><time>2026-03-22T16:24:54.999Z</time></trkpt><trkpt lat="44.847801375855305" lon="9.37484577237729"><ele>700.5</ele><time>2026-03-22T16:24:55.999Z</time></trkpt><trkpt lat="44.84794053051865" lon="9.374835731197074"><ele>699.75</ele><time>2026-03-22T16:24:56.999Z</time></trkpt><trkpt lat="44.84807493838174" lon="9.374730579044018"><ele>699.0</ele><time>2026-03-22T16:24:57.999Z</time></trkpt><trkpt lat="44.848180282375054" lon="9.374524967138367"><ele>699.0</ele><time>2026-03-22T16:24:58.999Z</time></trkpt><trkpt lat="44.84825176778028" lon="9.374326780746387"><ele>699.0</ele><time>2026-03-22T16:24:59.999Z</time></trkpt><trkpt lat="44.848315779565574" lon="9.374169519296899"><ele>699.0</ele><time>2026-03-22T16:25:00.999Z</time></trkpt><trkpt lat="44.84841146329425" lon="9.374056074105372"><ele>699.0</ele><time>2026-03-22T16:25:01.999Z</time></trkpt><trkpt lat="44.84854017920792" lon="9.373972082674339"><ele>698.0</ele><time>2026-03-22T16:25:02.999Z</time></trkpt><trkpt lat="44.84868894622036" lon="9.37393771196631"><ele>697.0</ele><time>2026-03-22T16:25:03.999Z</time></trkpt><trkpt lat="44.84881505080813" lon="9.373945987354915"><ele>696.0</ele><time>2026-03-22T16:25:04.999Z</time></trkpt><trkpt lat="44.848919663803" lon="9.373997841179554"><ele>695.0</ele><time>2026-03-22T16:25:05.999Z</time></trkpt><trkpt lat="44.849007243636095" lon="9.374095429540427"><ele>695.0</ele><time>2026-03-22T16:25:06.999Z</time></trkpt><trkpt lat="44.84905260066672" lon="9.374231906171197"><ele>695.0</ele><time>2026-03-22T16:25:07.999Z</time></trkpt><trkpt lat="44.84906097400518" lon="9.374400129625505"><ele>695.0</ele><time>2026-03-22T16:25:08.999Z</time></trkpt><trkpt lat="44.849058761574206" lon="9.374593223551603"><ele>695.0</ele><time>2026-03-22T16:25:09.999Z</time></trkpt><trkpt lat="44.84910307643286" lon="9.374784527180497"><ele>697.75</ele><time>2026-03-22T16:25:10.999Z</time></trkpt><trkpt lat="44.84919462886316" lon="9.374968884122836"><ele>700.5</ele><time>2026-03-22T16:25:11.999Z</time></trkpt><trkpt lat="44.84931141841066" lon="9.375108273827868"><ele>703.25</ele><time>2026-03-22T16:25:12.999Z</time></trkpt><trkpt lat="44.849416153738346" lon="9.375212974289632"><ele>706.0</ele><time>2026-03-22T16:25:13.999Z</time></trkpt><trkpt lat="44.84951271758334" lon="9.37526094108214"><ele>706.0</ele><time>2026-03-22T16:25:14.999Z</time></trkpt><trkpt lat="44.84961191141332" lon="9.375216462511062"><ele>706.0</ele><time>2026-03-22T16:25:15.999Z</time></trkpt><trkpt lat="44.84972459241166" lon="9.375107315391778"><ele>706.0</ele><time>2026-03-22T16:25:16.999Z</time></trkpt><trkpt lat="44.84983836466763" lon="9.374949008746137"><ele>706.0</ele><time>2026-03-22T16:25:17.999Z</time></trkpt><trkpt lat="44.84988965449973" lon="9.374751216168322"><ele>704.25</ele><time>2026-03-22T16:25:18.999Z</time></trkpt><trkpt lat="44.849951247315445" lon="9.374614993484926"><ele>702.5</ele><time>2026-03-22T16:25:19.999Z</time></trkpt><trkpt lat="44.85005454225639" lon="9.374567548237248"><ele>700.75</ele><time>2026-03-22T16:25:20.999Z</time></trkpt><trkpt lat="44.85019315956281" lon="9.374577025171734"><ele>699.0</ele><time>2026-03-22T16:25:21.999Z</time></trkpt><trkpt lat="44.85032507461213" lon="9.37464002236391"><ele>699.0</ele><time>2026-03-22T16:25:22.999Z</time></trkpt><trkpt lat="44.8504427914168" lon="9.374676825824247"><ele>699.0</ele><time>2026-03-22T16:25:23.999Z</time></trkpt><trkpt lat="44.85056397292918" lon="9.374636107069486"><ele>699.0</ele><time>2026-03-22T16:25:24.999Z</time></trkpt><trkpt lat="44.850660725568446" lon="9.374494913912025"><ele>699.0</ele><time>2026-03-22T16:25:25.999Z</time></trkpt><trkpt lat="44.850728464390926" lon="9.374297038700684"><ele>699.0</ele><time>2026-03-22T16:25:26.999Z</time></trkpt><trkpt lat="44.850783181516206" lon="9.374076411252119"><ele>699.0</ele><time>2026-03-22T16:25:27.999Z</time></trkpt><trkpt lat="44.85085365512724" lon="9.3739091433531"><ele>699.0</ele><time>2026-03-22T16:25:28.999Z</time></trkpt><trkpt lat="44.85095991086479" lon="9.37378664868541"><ele>699.0</ele><time>2026-03-22T16:25:29.999Z</time></trkpt><trkpt lat="44.85108626183484" lon="9.373714787795935"><ele>699.5</ele><time>2026-03-22T16:25:30.999Z</time></trkpt><trkpt lat="44.851224046900434" lon="9.373695063656728"><ele>700.0</ele><time>2026-03-22T16:25:31.999Z</time></trkpt><trkpt lat="44.85136733254366" lon="9.37372468081498"><ele>700.5</ele><time>2026-03-22T16:25:32.999Z</time></trkpt><trkpt lat="44.851518000523996" lon="9.37382191904667"><ele>701.0</ele><time>2026-03-22T16:25:33.999Z</time></trkpt><trkpt lat="44.85166966791622" lon="9.373978868487086"><ele>694.3333333333333</ele><time>2026-03-22T16:25:34.999Z</time></trkpt><trkpt lat="44.85181850985454" lon="9.374131596149287"><ele>687.6666666666666</ele><time>2026-03-22T16:25:35.999Z</time></trkpt><trkpt lat="44.85195211195676" lon="9.374254918972172"><ele>681.0</ele><time>2026-03-22T16:25:36.999Z</time></trkpt><trkpt lat="44.852069883799146" lon="9.374358382820912"><ele>681.0</ele><time>2026-03-22T16:25:37.999Z</time></trkpt><trkpt lat="44.852165791930965" lon="9.374434450339647"><ele>681.0</ele><time>2026-03-22T16:25:38.999Z</time></trkpt><trkpt lat="44.85226125317765" lon="9.374549856484064"><ele>681.0</ele><time>2026-03-22T16:25:39.998Z</time></trkpt><trkpt lat="44.85229956083667" lon="9.374753357679877"><ele>681.0</ele><time>2026-03-22T16:25:40.998Z</time></trkpt><trkpt lat="44.85227673492723" lon="9.37498313371472"><ele>683.3333333333334</ele><time>2026-03-22T16:25:41.998Z</time></trkpt><trkpt lat="44.85223084456055" lon="9.375230837398266"><ele>685.6666666666667</ele><time>2026-03-22T16:25:42.998Z</time></trkpt><trkpt lat="44.852197224839045" lon="9.375464402307307"><ele>688.0</ele><time>2026-03-22T16:25:43.998Z</time></trkpt><trkpt lat="44.852186845791586" lon="9.375679148772656"><ele>688.0</ele><time>2026-03-22T16:25:44.998Z</time></trkpt><trkpt lat="44.85219823531663" lon="9.375911094657365"><ele>688.0</ele><time>2026-03-22T16:25:45.998Z</time></trkpt><trkpt lat="44.85224058310844" lon="9.376170496332758"><ele>688.0</ele><time>2026-03-22T16:25:46.998Z</time></trkpt><trkpt lat="44.85230399812086" lon="9.37645003579563"><ele>689.0</ele><time>2026-03-22T16:25:47.998Z</time></trkpt><trkpt lat="44.85235610396604" lon="9.376713183695227"><ele>690.0</ele><time>2026-03-22T16:25:48.998Z</time></trkpt><trkpt lat="44.85239332963828" lon="9.37695065957292"><ele>691.0</ele><time>2026-03-22T16:25:49.998Z</time></trkpt><trkpt lat="44.85242158428395" lon="9.377174688035018"><ele>690.3333333333334</ele><time>2026-03-22T16:25:50.998Z</time></trkpt><trkpt lat="44.852447689589056" lon="9.377371130401514"><ele>689.6666666666666</ele><time>2026-03-22T16:25:51.998Z</time></trkpt><trkpt lat="44.85249055754433" lon="9.377564581438898"><ele>689.0</ele><time>2026-03-22T16:25:52.998Z</time></trkpt><trkpt lat="44.852556227522896" lon="9.377789595242142"><ele>689.3333333333333</ele><time>2026-03-22T16:25:53.998Z</time></trkpt><trkpt lat="44.85259380799378" lon="9.378047717461662"><ele>689.6666666666666</ele><time>2026-03-22T16:25:54.998Z</time></trkpt><trkpt lat="44.852564858882616" lon="9.37831715127437"><ele>690.0</ele><time>2026-03-22T16:25:55.998Z</time></trkpt><trkpt lat="44.85252611902293" lon="9.378540991180627"><ele>690.0</ele><time>2026-03-22T16:25:56.998Z</time></trkpt><trkpt lat="44.85250575552786" lon="9.378726836284862"><ele>690.0</ele><time>2026-03-22T16:25:57.998Z</time></trkpt><trkpt lat="44.85251257390657" lon="9.378884830843397"><ele>690.0</ele><time>2026-03-22T16:25:58.998Z</time></trkpt><trkpt lat="44.852559118356915" lon="9.37902510367537"><ele>690.0</ele><time>2026-03-22T16:25:59.998Z</time></trkpt><trkpt lat="44.85266013167961" lon="9.37913116059221"><ele>688.6666666666666</ele><time>2026-03-22T16:26:00.998Z</time></trkpt><trkpt lat="44.85282849583977" lon="9.379197623186743"><ele>687.3333333333333</ele><time>2026-03-22T16:26:01.998Z</time></trkpt><trkpt lat="44.853002627034236" lon="9.379257129076676"><ele>686.0</ele><time>2026-03-22T16:26:02.998Z</time></trkpt><trkpt lat="44.85317508824129" lon="9.37933484304095"><ele>686.0</ele><time>2026-03-22T16:26:03.998Z</time></trkpt><trkpt lat="44.853328624598134" lon="9.379411693482393"><ele>686.0</ele><time>2026-03-22T16:26:04.998Z</time></trkpt><trkpt lat="44.8534670279935" lon="9.379484250204563"><ele>686.0</ele><time>2026-03-22T16:26:05.998Z</time></trkpt><trkpt lat="44.853588132534064" lon="9.379556471070886"><ele>686.0</ele><time>2026-03-22T16:26:06.998Z</time></trkpt><trkpt lat="44.85370517006065" lon="9.37962072517384"><ele>685.6666666666666</ele><time>2026-03-22T16:26:07.998Z</time></trkpt><trkpt lat="44.853837286569" lon="9.379640220122619"><ele>685.3333333333334</ele><time>2026-03-22T16:26:08.998Z</time></trkpt><trkpt lat="44.85401510943862" lon="9.37959337495169"><ele>685.0</ele><time>2026-03-22T16:26:09.998Z</time></trkpt><trkpt lat="44.85420941631491" lon="9.379495345344553"><ele>684.6666666666667</ele><time>2026-03-22T16:26:10.998Z</time></trkpt><trkpt lat="44.854393777220814" lon="9.379412467520932"><ele>684.3333333333334</ele><time>2026-03-22T16:26:11.998Z</time></trkpt><trkpt lat="44.85456314179381" lon="9.379338463897957"><ele>684.0</ele><time>2026-03-22T16:26:12.998Z</time></trkpt><trkpt lat="44.85471399813962" lon="9.379270361000676"><ele>684.0</ele><time>2026-03-22T16:26:13.998Z</time></trkpt><trkpt lat="44.85486783463302" lon="9.379196604045212"><ele>684.0</ele><time>2026-03-22T16:26:14.998Z</time></trkpt><trkpt lat="44.85501818029383" lon="9.37908852448563"><ele>684.0</ele><time>2026-03-22T16:26:15.998Z</time></trkpt><trkpt lat="44.85517867088599" lon="9.378925770053897"><ele>683.6666666666666</ele><time>2026-03-22T16:26:16.998Z</time></trkpt><trkpt lat="44.855329147925" lon="9.378737957042018"><ele>683.3333333333333</ele><time>2026-03-22T16:26:17.998Z</time></trkpt><trkpt lat="44.85545763282727" lon="9.378553248865257"><ele>683.0</ele><time>2026-03-22T16:26:18.998Z</time></trkpt><trkpt lat="44.855565209974614" lon="9.3783747867727"><ele>683.0</ele><time>2026-03-22T16:26:19.998Z</time></trkpt><trkpt lat="44.85565880466345" lon="9.378193920009736"><ele>683.0</ele><time>2026-03-22T16:26:20.998Z</time></trkpt><trkpt lat="44.85574838186108" lon="9.378021564886406"><ele>683.0</ele><time>2026-03-22T16:26:21.998Z</time></trkpt><trkpt lat="44.855829072103134" lon="9.377860257782043"><ele>679.0</ele><time>2026-03-22T16:26:22.998Z</time></trkpt><trkpt lat="44.855928364774925" lon="9.377732620260224"><ele>675.0</ele><time>2026-03-22T16:26:23.998Z</time></trkpt><trkpt lat="44.856066317733536" lon="9.377656027448138"><ele>671.0</ele><time>2026-03-22T16:26:24.998Z</time></trkpt><trkpt lat="44.85621430458483" lon="9.377659603213225"><ele>667.0</ele><time>2026-03-22T16:26:26Z</time></trkpt><trkpt lat="44.85635835496804" lon="9.377720189738627"><ele>664.6666666666667</ele><time>2026-03-22T16:26:27Z</time></trkpt><trkpt lat="44.856501659782595" lon="9.377829371754883"><ele>662.3333333333334</ele><time>2026-03-22T16:26:28Z</time></trkpt><trkpt lat="44.85663186876027" lon="9.378000705575516"><ele>660.0</ele><time>2026-03-22T16:26:29Z</time></trkpt><trkpt lat="44.856743698705436" lon="9.378168179226657"><ele>662.25</ele><time>2026-03-22T16:26:30Z</time></trkpt><trkpt lat="44.856848926168695" lon="9.378307778654385"><ele>664.5</ele><time>2026-03-22T16:26:31Z</time></trkpt><trkpt lat="44.85696531515806" lon="9.37840499974733"><ele>666.75</ele><time>2026-03-22T16:26:32Z</time></trkpt><trkpt lat="44.857110170324354" lon="9.37845690669898"><ele>669.0</ele><time>2026-03-22T16:26:33Z</time></trkpt><trkpt lat="44.85729633637492" lon="9.378497120853822"><ele>669.0</ele><time>2026-03-22T16:26:34Z</time></trkpt><trkpt lat="44.857495695233865" lon="9.37848070242988"><ele>669.0</ele><time>2026-03-22T16:26:35Z</time></trkpt><trkpt lat="44.85767727480538" lon="9.378445400066946"><ele>669.0</ele><time>2026-03-22T16:26:36Z</time></trkpt><trkpt lat="44.857840359458905" lon="9.3784517677835"><ele>666.3333333333334</ele><time>2026-03-22T16:26:37Z</time></trkpt><trkpt lat="44.85800321467112" lon="9.378498305164841"><ele>663.6666666666667</ele><time>2026-03-22T16:26:38Z</time></trkpt><trkpt lat="44.85815384203184" lon="9.378550162599106"><ele>661.0</ele><time>2026-03-22T16:26:39Z</time></trkpt><trkpt lat="44.85828855690375" lon="9.378583204041758"><ele>661.0</ele><time>2026-03-22T16:26:40Z</time></trkpt><trkpt lat="44.85842867165408" lon="9.378557691472801"><ele>661.0</ele><time>2026-03-22T16:26:41Z</time></trkpt><trkpt lat="44.85858208383103" lon="9.378464442796416"><ele>661.0</ele><time>2026-03-22T16:26:42Z</time></trkpt><trkpt lat="44.858733330357204" lon="9.378300925425576"><ele>661.5</ele><time>2026-03-22T16:26:43Z</time></trkpt><trkpt lat="44.85884683941703" lon="9.378127149074349"><ele>662.0</ele><time>2026-03-22T16:26:44Z</time></trkpt><trkpt lat="44.85896014973172" lon="9.37800900194055"><ele>662.5</ele><time>2026-03-22T16:26:45Z</time></trkpt><trkpt lat="44.859088884031856" lon="9.377964094737973"><ele>663.0</ele><time>2026-03-22T16:26:46Z</time></trkpt><trkpt lat="44.85921054399997" lon="9.377987376336783"><ele>656.3333333333334</ele><time>2026-03-22T16:26:47Z</time></trkpt><trkpt lat="44.859329289484755" lon="9.378070191786582"><ele>649.6666666666667</ele><time>2026-03-22T16:26:48Z</time></trkpt><trkpt lat="44.859463641758495" lon="9.378222547938767"><ele>643.0</ele><time>2026-03-22T16:26:49Z</time></trkpt><trkpt lat="44.85961256476706" lon="9.378412273359643"><ele>643.0</ele><time>2026-03-22T16:26:50Z</time></trkpt><trkpt lat="44.85976032230587" lon="9.378585119227633"><ele>643.0</ele><time>2026-03-22T16:26:51Z</time></trkpt><trkpt lat="44.859888545719336" lon="9.378746776715245"><ele>643.0</ele><time>2026-03-22T16:26:52Z</time></trkpt><trkpt lat="44.86000226502696" lon="9.37890758574909"><ele>639.3333333333334</ele><time>2026-03-22T16:26:53Z</time></trkpt><trkpt lat="44.86011118728026" lon="9.379084922429227"><ele>635.6666666666666</ele><time>2026-03-22T16:26:54Z</time></trkpt><trkpt lat="44.86022044411683" lon="9.379278099128479"><ele>632.0</ele><time>2026-03-22T16:26:55Z</time></trkpt><trkpt lat="44.86031845433717" lon="9.379523557029305"><ele>634.0</ele><time>2026-03-22T16:26:56Z</time></trkpt><trkpt lat="44.86039278814453" lon="9.379763594069637"><ele>636.0</ele><time>2026-03-22T16:26:57Z</time></trkpt><trkpt lat="44.860460877743115" lon="9.379988137901352"><ele>638.0</ele><time>2026-03-22T16:26:58Z</time></trkpt><trkpt lat="44.860530479694205" lon="9.380197750561443"><ele>638.0</ele><time>2026-03-22T16:26:59Z</time></trkpt><trkpt lat="44.86059395365392" lon="9.38038548402587"><ele>638.0</ele><time>2026-03-22T16:27:00Z</time></trkpt><trkpt lat="44.86061870198039" lon="9.38058158982534"><ele>638.0</ele><time>2026-03-22T16:27:01Z</time></trkpt><trkpt lat="44.86058880794316" lon="9.380818666837268"><ele>638.0</ele><time>2026-03-22T16:27:02Z</time></trkpt><trkpt lat="44.860534276627384" lon="9.381020703450451"><ele>638.0</ele><time>2026-03-22T16:27:03Z</time></trkpt><trkpt lat="44.86048903404048" lon="9.381193763021368"><ele>638.0</ele><time>2026-03-22T16:27:04Z</time></trkpt><trkpt lat="44.8604758324427" lon="9.381343092559968"><ele>638.0</ele><time>2026-03-22T16:27:05Z</time></trkpt><trkpt lat="44.86052567636526" lon="9.381494497535083"><ele>638.0</ele><time>2026-03-22T16:27:06Z</time></trkpt><trkpt lat="44.86063156307972" lon="9.3816626541042"><ele>638.0</ele><time>2026-03-22T16:27:07Z</time></trkpt><trkpt lat="44.86075140960026" lon="9.381782826433232"><ele>638.0</ele><time>2026-03-22T16:27:08Z</time></trkpt><trkpt lat="44.86084953462949" lon="9.381909289105367"><ele>638.0</ele><time>2026-03-22T16:27:09Z</time></trkpt><trkpt lat="44.86089546645791" lon="9.382064742594627"><ele>636.75</ele><time>2026-03-22T16:27:10Z</time></trkpt><trkpt lat="44.860896787363835" lon="9.382249827625285"><ele>635.5</ele><time>2026-03-22T16:27:11Z</time></trkpt><trkpt lat="44.86086748691448" lon="9.382428084588446"><ele>634.25</ele><time>2026-03-22T16:27:12Z</time></trkpt><trkpt lat="44.860793101932686" lon="9.382575031672859"><ele>633.0</ele><time>2026-03-22T16:27:13Z</time></trkpt><trkpt lat="44.860694012972814" lon="9.382695230361563"><ele>633.0</ele><time>2026-03-22T16:27:14Z</time></trkpt><trkpt lat="44.86058246726335" lon="9.38276235552905"><ele>633.0</ele><time>2026-03-22T16:27:15Z</time></trkpt><trkpt lat="44.860453560411926" lon="9.382775705855433"><ele>633.0</ele><time>2026-03-22T16:27:16Z</time></trkpt><trkpt lat="44.86031438828217" lon="9.382748484043997"><ele>633.0</ele><time>2026-03-22T16:27:16.999Z</time></trkpt><trkpt lat="44.86017438838315" lon="9.382723861792046"><ele>630.0</ele><time>2026-03-22T16:27:17.999Z</time></trkpt><trkpt lat="44.86003024016817" lon="9.38277723705494"><ele>627.0</ele><time>2026-03-22T16:27:18.999Z</time></trkpt><trkpt lat="44.85989901997905" lon="9.382921954069676"><ele>624.0</ele><time>2026-03-22T16:27:19.999Z</time></trkpt><trkpt lat="44.85977360378721" lon="9.383124193888039"><ele>624.0</ele><time>2026-03-22T16:27:20.999Z</time></trkpt><trkpt lat="44.85961779589111" lon="9.383264234460416"><ele>624.0</ele><time>2026-03-22T16:27:21.999Z</time></trkpt><trkpt lat="44.85944525929764" lon="9.383335163129733"><ele>624.0</ele><time>2026-03-22T16:27:22.999Z</time></trkpt><trkpt lat="44.85929015197325" lon="9.383378704184382"><ele>627.6666666666666</ele><time>2026-03-22T16:27:23.999Z</time></trkpt><trkpt lat="44.859152161131014" lon="9.383456485143489"><ele>631.3333333333333</ele><time>2026-03-22T16:27:24.999Z</time></trkpt><trkpt lat="44.85901825230825" lon="9.383575389619866"><ele>635.0</ele><time>2026-03-22T16:27:25.999Z</time></trkpt><trkpt lat="44.858890914027754" lon="9.383746725225818"><ele>628.3333333333333</ele><time>2026-03-22T16:27:26.999Z</time></trkpt><trkpt lat="44.85878214342876" lon="9.38395906451174"><ele>621.6666666666666</ele><time>2026-03-22T16:27:27.999Z</time></trkpt><trkpt lat="44.85871051215954" lon="9.384225848190802"><ele>615.0</ele><time>2026-03-22T16:27:28.999Z</time></trkpt><trkpt lat="44.85866013072625" lon="9.384503563175736"><ele>612.3333333333334</ele><time>2026-03-22T16:27:29.999Z</time></trkpt><trkpt lat="44.85860779559997" lon="9.384747775816654"><ele>609.6666666666667</ele><time>2026-03-22T16:27:30.999Z</time></trkpt><trkpt lat="44.85854627091224" lon="9.38496203660018"><ele>607.0</ele><time>2026-03-22T16:27:31.999Z</time></trkpt><trkpt lat="44.85847327867364" lon="9.385159239615996"><ele>609.0</ele><time>2026-03-22T16:27:32.998Z</time></trkpt><trkpt lat="44.85840072799222" lon="9.385335507830375"><ele>611.0</ele><time>2026-03-22T16:27:33.998Z</time></trkpt><trkpt lat="44.858331805585166" lon="9.385513600533566"><ele>613.0</ele><time>2026-03-22T16:27:34.998Z</time></trkpt><trkpt lat="44.85826264858412" lon="9.38567057391204"><ele>615.0</ele><time>2026-03-22T16:27:35.998Z</time></trkpt><trkpt lat="44.85818130382171" lon="9.38579983573756"><ele>615.0</ele><time>2026-03-22T16:27:36.998Z</time></trkpt><trkpt lat="44.858082125951825" lon="9.385925101248949"><ele>615.0</ele><time>2026-03-22T16:27:37.998Z</time></trkpt><trkpt lat="44.85798045008894" lon="9.386017505715992"><ele>615.0</ele><time>2026-03-22T16:27:38.998Z</time></trkpt><trkpt lat="44.85789958634921" lon="9.386097470110704"><ele>615.0</ele><time>2026-03-22T16:27:39.998Z</time></trkpt><trkpt lat="44.85783634095497" lon="9.38618900454725"><ele>615.0</ele><time>2026-03-22T16:27:40.998Z</time></trkpt><trkpt lat="44.85778894218129" lon="9.38629150448494"><ele>612.4</ele><time>2026-03-22T16:27:41.998Z</time></trkpt><trkpt lat="44.85778145085203" lon="9.386422449634217"><ele>609.8</ele><time>2026-03-22T16:27:42.998Z</time></trkpt><trkpt lat="44.857808497925376" lon="9.386551073263837"><ele>607.2</ele><time>2026-03-22T16:27:43.998Z</time></trkpt><trkpt lat="44.85787373173708" lon="9.38665361982135"><ele>604.6</ele><time>2026-03-22T16:27:44.998Z</time></trkpt><trkpt lat="44.85795963069778" lon="9.386705927215091"><ele>602.0</ele><time>2026-03-22T16:27:45.998Z</time></trkpt><trkpt lat="44.858054996981004" lon="9.38671040622615"><ele>602.0</ele><time>2026-03-22T16:27:46.998Z</time></trkpt><trkpt lat="44.85814996828149" lon="9.386681420678416"><ele>602.0</ele><time>2026-03-22T16:27:47.998Z</time></trkpt><trkpt lat="44.85822611150121" lon="9.386598467111352"><ele>602.0</ele><time>2026-03-22T16:27:48.998Z</time></trkpt><trkpt lat="44.85830423825796" lon="9.386459405175883"><ele>602.0</ele><time>2026-03-22T16:27:49.998Z</time></trkpt><trkpt lat="44.85841192398218" lon="9.386314469499714"><ele>602.0</ele><time>2026-03-22T16:27:50.998Z</time></trkpt><trkpt lat="44.858551197088524" lon="9.38618885271182"><ele>602.0</ele><time>2026-03-22T16:27:51.998Z</time></trkpt><trkpt lat="44.858688435044456" lon="9.386120475178409"><ele>602.0</ele><time>2026-03-22T16:27:52.998Z</time></trkpt><trkpt lat="44.858824806452574" lon="9.386106725748881"><ele>602.0</ele><time>2026-03-22T16:27:53.998Z</time></trkpt><trkpt lat="44.85895129969849" lon="9.386111639467314"><ele>602.0</ele><time>2026-03-22T16:27:54.998Z</time></trkpt><trkpt lat="44.85906277824123" lon="9.386110585662168"><ele>602.0</ele><time>2026-03-22T16:27:55.998Z</time></trkpt><trkpt lat="44.859163533111605" lon="9.386069790433188"><ele>602.0</ele><time>2026-03-22T16:27:56.998Z</time></trkpt><trkpt lat="44.85925401352606" lon="9.385965983546662"><ele>602.0</ele><time>2026-03-22T16:27:57.998Z</time></trkpt><trkpt lat="44.859338742194254" lon="9.385787492762258"><ele>599.0</ele><time>2026-03-22T16:27:58.998Z</time></trkpt><trkpt lat="44.85941111472539" lon="9.385561918835052"><ele>596.0</ele><time>2026-03-22T16:27:59.998Z</time></trkpt><trkpt lat="44.8594997636645" lon="9.38532395398931"><ele>593.0</ele><time>2026-03-22T16:28:00.998Z</time></trkpt><trkpt lat="44.859616292364116" lon="9.385133129582472"><ele>593.0</ele><time>2026-03-22T16:28:01.998Z</time></trkpt><trkpt lat="44.85972987669269" lon="9.384961408164274"><ele>593.0</ele><time>2026-03-22T16:28:02.998Z</time></trkpt><trkpt lat="44.859830497392224" lon="9.38479641715848"><ele>593.0</ele><time>2026-03-22T16:28:03.998Z</time></trkpt><trkpt lat="44.85992240077121" lon="9.384629743203075"><ele>595.3333333333333</ele><time>2026-03-22T16:28:04.998Z</time></trkpt><trkpt lat="44.86002711893703" lon="9.384468294505808"><ele>597.6666666666666</ele><time>2026-03-22T16:28:05.997Z</time></trkpt><trkpt lat="44.86015950113308" lon="9.384356931444492"><ele>600.0</ele><time>2026-03-22T16:28:06.997Z</time></trkpt><trkpt lat="44.86031475527096" lon="9.384295626246399"><ele>600.0</ele><time>2026-03-22T16:28:07.997Z</time></trkpt><trkpt lat="44.86048485509381" lon="9.384297060072647"><ele>600.0</ele><time>2026-03-22T16:28:08.997Z</time></trkpt><trkpt lat="44.86066152617802" lon="9.384337660966374"><ele>600.0</ele><time>2026-03-22T16:28:09.997Z</time></trkpt><trkpt lat="44.86083571833537" lon="9.384416357241037"><ele>600.3333333333334</ele><time>2026-03-22T16:28:10.997Z</time></trkpt><trkpt lat="44.86098786273961" lon="9.384488639777555"><ele>600.6666666666667</ele><time>2026-03-22T16:28:11.997Z</time></trkpt><trkpt lat="44.86113865352542" lon="9.384549542571703"><ele>601.0</ele><time>2026-03-22T16:28:12.997Z</time></trkpt><trkpt lat="44.86128240931337" lon="9.384621234527508"><ele>596.6666666666667</ele><time>2026-03-22T16:28:13.997Z</time></trkpt><trkpt lat="44.861424493193326" lon="9.384736275107956"><ele>592.3333333333334</ele><time>2026-03-22T16:28:14.997Z</time></trkpt><trkpt lat="44.861545995960505" lon="9.38486997951056"><ele>588.0</ele><time>2026-03-22T16:28:15.997Z</time></trkpt><trkpt lat="44.86165120412511" lon="9.384998094207823"><ele>588.0</ele><time>2026-03-22T16:28:16.997Z</time></trkpt><trkpt lat="44.8617669297106" lon="9.385109058909682"><ele>588.0</ele><time>2026-03-22T16:28:17.997Z</time></trkpt><trkpt lat="44.8618871892389" lon="9.385168126620966"><ele>588.0</ele><time>2026-03-22T16:28:18.997Z</time></trkpt><trkpt lat="44.86201395089166" lon="9.385155952155833"><ele>588.0</ele><time>2026-03-22T16:28:19.997Z</time></trkpt><trkpt lat="44.86215599302439" lon="9.38507320733728"><ele>586.6666666666666</ele><time>2026-03-22T16:28:20.997Z</time></trkpt><trkpt lat="44.86229708542339" lon="9.38493610102813"><ele>585.3333333333333</ele><time>2026-03-22T16:28:21.997Z</time></trkpt><trkpt lat="44.86241419138057" lon="9.384788530812813"><ele>584.0</ele><time>2026-03-22T16:28:22.997Z</time></trkpt><trkpt lat="44.862504131659556" lon="9.384649465404166"><ele>584.0</ele><time>2026-03-22T16:28:23.997Z</time></trkpt><trkpt lat="44.86257335746222" lon="9.384465794198917"><ele>584.0</ele><time>2026-03-22T16:28:24.997Z</time></trkpt><trkpt lat="44.862603426382734" lon="9.384245387144663"><ele>584.0</ele><time>2026-03-22T16:28:25.997Z</time></trkpt><trkpt lat="44.86266842105668" lon="9.384047595674321"><ele>583.0</ele><time>2026-03-22T16:28:26.997Z</time></trkpt><trkpt lat="44.862783469665985" lon="9.383896652503848"><ele>582.0</ele><time>2026-03-22T16:28:27.997Z</time></trkpt><trkpt lat="44.86291939559463" lon="9.383806258566366"><ele>581.0</ele><time>2026-03-22T16:28:28.997Z</time></trkpt><trkpt lat="44.86307159830496" lon="9.383804183206815"><ele>577.3333333333333</ele><time>2026-03-22T16:28:29.997Z</time></trkpt><trkpt lat="44.863238842538955" lon="9.383850544927922"><ele>573.6666666666666</ele><time>2026-03-22T16:28:30.997Z</time></trkpt><trkpt lat="44.863403751149725" lon="9.383922910114444"><ele>570.0</ele><time>2026-03-22T16:28:31.999Z</time></trkpt><trkpt lat="44.863548242131785" lon="9.38395217729752"><ele>570.0</ele><time>2026-03-22T16:28:32.999Z</time></trkpt><trkpt lat="44.86371046403359" lon="9.383961105896546"><ele>570.0</ele><time>2026-03-22T16:28:33.999Z</time></trkpt><trkpt lat="44.86387282325466" lon="9.383944618044309"><ele>570.0</ele><time>2026-03-22T16:28:34.999Z</time></trkpt><trkpt lat="44.86402322702758" lon="9.383939800249648"><ele>570.0</ele><time>2026-03-22T16:28:36Z</time></trkpt><trkpt lat="44.86417393667957" lon="9.38392686056538"><ele>570.0</ele><time>2026-03-22T16:28:36.999Z</time></trkpt><trkpt lat="44.86433423341492" lon="9.38388053824879"><ele>570.0</ele><time>2026-03-22T16:28:37.999Z</time></trkpt><trkpt lat="44.86449771106989" lon="9.383815437855837"><ele>565.3333333333334</ele><time>2026-03-22T16:28:39Z</time></trkpt><trkpt lat="44.864659089335035" lon="9.383778420058086"><ele>560.6666666666667</ele><time>2026-03-22T16:28:39.999Z</time></trkpt><trkpt lat="44.86481605605415" lon="9.383757981307504"><ele>556.0</ele><time>2026-03-22T16:28:41Z</time></trkpt><trkpt lat="44.86495819353672" lon="9.383724585099852"><ele>556.0</ele><time>2026-03-22T16:28:42Z</time></trkpt><trkpt lat="44.865089930840725" lon="9.383674396353133"><ele>556.0</ele><time>2026-03-22T16:28:43Z</time></trkpt><trkpt lat="44.86522096803065" lon="9.383656314639527"><ele>556.0</ele><time>2026-03-22T16:28:44Z</time></trkpt><trkpt lat="44.86536486263951" lon="9.383697362469972"><ele>556.0</ele><time>2026-03-22T16:28:45Z</time></trkpt><trkpt lat="44.86551399416794" lon="9.383802780030402"><ele>555.5</ele><time>2026-03-22T16:28:46Z</time></trkpt><trkpt lat="44.86563747404133" lon="9.383896205050194"><ele>555.0</ele><time>2026-03-22T16:28:47Z</time></trkpt><trkpt lat="44.865756724427406" lon="9.383968114886022"><ele>554.5</ele><time>2026-03-22T16:28:47.999Z</time></trkpt><trkpt lat="44.86584610957365" lon="9.384039992265636"><ele>554.0</ele><time>2026-03-22T16:28:48.999Z</time></trkpt><trkpt lat="44.86590192263622" lon="9.384159542766445"><ele>554.0</ele><time>2026-03-22T16:28:49.999Z</time></trkpt><trkpt lat="44.86592448757392" lon="9.384321969850879"><ele>554.0</ele><time>2026-03-22T16:28:50.999Z</time></trkpt><trkpt lat="44.86589525778014" lon="9.384492984294289"><ele>554.0</ele><time>2026-03-22T16:28:51.999Z</time></trkpt><trkpt lat="44.86579943115595" lon="9.384650006081957"><ele>554.0</ele><time>2026-03-22T16:28:52.999Z</time></trkpt><trkpt lat="44.8656687211868" lon="9.384748659294127"><ele>551.75</ele><time>2026-03-22T16:28:53.999Z</time></trkpt><trkpt lat="44.86556178597741" lon="9.384856549188205"><ele>549.5</ele><time>2026-03-22T16:28:54.999Z</time></trkpt><trkpt lat="44.86548792698947" lon="9.38504237377086"><ele>547.25</ele><time>2026-03-22T16:28:55.999Z</time></trkpt><trkpt lat="44.86547536959668" lon="9.385262838519031"><ele>545.0</ele><time>2026-03-22T16:28:56.999Z</time></trkpt><trkpt lat="44.86541967478673" lon="9.385439327128683"><ele>545.3333333333333</ele><time>2026-03-22T16:28:57.999Z</time></trkpt><trkpt lat="44.865315459875276" lon="9.385556227667777"><ele>545.6666666666666</ele><time>2026-03-22T16:28:58.999Z</time></trkpt><trkpt lat="44.86516392046953" lon="9.38564183414477"><ele>546.0</ele><time>2026-03-22T16:28:59.999Z</time></trkpt><trkpt lat="44.86499371617332" lon="9.38569869896959"><ele>546.0</ele><time>2026-03-22T16:29:00.999Z</time></trkpt><trkpt lat="44.864840171902685" lon="9.385741510774537"><ele>546.0</ele><time>2026-03-22T16:29:01.999Z</time></trkpt><trkpt lat="44.86469639966162" lon="9.385815508538956"><ele>546.0</ele><time>2026-03-22T16:29:02.999Z</time></trkpt><trkpt lat="44.86455673352964" lon="9.385919598681962"><ele>546.0</ele><time>2026-03-22T16:29:03.999Z</time></trkpt><trkpt lat="44.86441671701876" lon="9.386036561301177"><ele>546.0</ele><time>2026-03-22T16:29:04.999Z</time></trkpt><trkpt lat="44.86428368405877" lon="9.386155502171457"><ele>546.0</ele><time>2026-03-22T16:29:05.999Z</time></trkpt><trkpt lat="44.86416134449196" lon="9.386229434980512"><ele>546.75</ele><time>2026-03-22T16:29:06.999Z</time></trkpt><trkpt lat="44.864025674115446" lon="9.386243255761231"><ele>547.5</ele><time>2026-03-22T16:29:07.999Z</time></trkpt><trkpt lat="44.863900453487084" lon="9.3861928171397"><ele>548.25</ele><time>2026-03-22T16:29:08.999Z</time></trkpt><trkpt lat="44.863797044876016" lon="9.386083398146532"><ele>549.0</ele><time>2026-03-22T16:29:09.999Z</time></trkpt><trkpt lat="44.863707479633035" lon="9.385968831260662"><ele>549.0</ele><time>2026-03-22T16:29:10.999Z</time></trkpt><trkpt lat="44.86362020680059" lon="9.3858622446286"><ele>549.0</ele><time>2026-03-22T16:29:11.999Z</time></trkpt><trkpt lat="44.86350964273639" lon="9.385806441433107"><ele>549.0</ele><time>2026-03-22T16:29:12.999Z</time></trkpt><trkpt lat="44.86336230830984" lon="9.385829242432639"><ele>549.0</ele><time>2026-03-22T16:29:13.999Z</time></trkpt><trkpt lat="44.863197771295624" lon="9.385933949370527"><ele>546.3333333333334</ele><time>2026-03-22T16:29:14.999Z</time></trkpt><trkpt lat="44.863029204588166" lon="9.386057986740862"><ele>543.6666666666667</ele><time>2026-03-22T16:29:15.999Z</time></trkpt><trkpt lat="44.86287902095294" lon="9.386142718054845"><ele>541.0</ele><time>2026-03-22T16:29:16.999Z</time></trkpt><trkpt lat="44.8627406068247" lon="9.386222979552162"><ele>544.0</ele><time>2026-03-22T16:29:17.999Z</time></trkpt><trkpt lat="44.862613924470544" lon="9.386325975313486"><ele>547.0</ele><time>2026-03-22T16:29:18.999Z</time></trkpt><trkpt lat="44.86250700523045" lon="9.386465692259293"><ele>550.0</ele><time>2026-03-22T16:29:19.999Z</time></trkpt><trkpt lat="44.862433639850856" lon="9.386662906125064"><ele>543.6666666666667</ele><time>2026-03-22T16:29:20.999Z</time></trkpt><trkpt lat="44.86238675424378" lon="9.386889214368336"><ele>537.3333333333334</ele><time>2026-03-22T16:29:21.999Z</time></trkpt><trkpt lat="44.86238815135498" lon="9.387105581010188"><ele>531.0</ele><time>2026-03-22T16:29:22.999Z</time></trkpt><trkpt lat="44.86242873297418" lon="9.387323457358494"><ele>529.3333333333334</ele><time>2026-03-22T16:29:23.999Z</time></trkpt><trkpt lat="44.8625060778979" lon="9.387549255456191"><ele>527.6666666666667</ele><time>2026-03-22T16:29:24.999Z</time></trkpt><trkpt lat="44.86257999971404" lon="9.387778884730864"><ele>526.0</ele><time>2026-03-22T16:29:25.999Z</time></trkpt><trkpt lat="44.86264434965707" lon="9.388003812772316"><ele>518.0</ele><time>2026-03-22T16:29:26.999Z</time></trkpt><trkpt lat="44.86270379922913" lon="9.388214597643856"><ele>510.0</ele><time>2026-03-22T16:29:27.999Z</time></trkpt><trkpt lat="44.862767076402584" lon="9.388406184187783"><ele>502.0</ele><time>2026-03-22T16:29:28.999Z</time></trkpt><trkpt lat="44.86281692440341" lon="9.388604311231399"><ele>502.0</ele><time>2026-03-22T16:29:29.999Z</time></trkpt><trkpt lat="44.862811898940485" lon="9.388805628253078"><ele>502.0</ele><time>2026-03-22T16:29:30.999Z</time></trkpt><trkpt lat="44.86275239478785" lon="9.388991068934713"><ele>502.0</ele><time>2026-03-22T16:29:31.999Z</time></trkpt><trkpt lat="44.862642406355185" lon="9.389125177583162"><ele>502.0</ele><time>2026-03-22T16:29:32.999Z</time></trkpt><trkpt lat="44.86250503750214" lon="9.389217683879926"><ele>505.0</ele><time>2026-03-22T16:29:33.999Z</time></trkpt><trkpt lat="44.86233143351967" lon="9.389228366593363"><ele>508.0</ele><time>2026-03-22T16:29:34.999Z</time></trkpt><trkpt lat="44.8621575245457" lon="9.389176852299377"><ele>511.0</ele><time>2026-03-22T16:29:35.999Z</time></trkpt><trkpt lat="44.86200102869416" lon="9.389110875980611"><ele>511.0</ele><time>2026-03-22T16:29:36.999Z</time></trkpt><trkpt lat="44.861857318451605" lon="9.38905200213545"><ele>511.0</ele><time>2026-03-22T16:29:37.999Z</time></trkpt><trkpt lat="44.86171703096171" lon="9.389000720155105"><ele>511.0</ele><time>2026-03-22T16:29:38.999Z</time></trkpt><trkpt lat="44.861589881922725" lon="9.388954707131644"><ele>511.0</ele><time>2026-03-22T16:29:39.999Z</time></trkpt><trkpt lat="44.8614761401102" lon="9.388948864486384"><ele>512.0</ele><time>2026-03-22T16:29:40.998Z</time></trkpt><trkpt lat="44.86138404549291" lon="9.389001924045182"><ele>513.0</ele><time>2026-03-22T16:29:41.998Z</time></trkpt><trkpt lat="44.861314044686786" lon="9.389115319541427"><ele>514.0</ele><time>2026-03-22T16:29:42.998Z</time></trkpt><trkpt lat="44.861287244240266" lon="9.389291212983156"><ele>515.0</ele><time>2026-03-22T16:29:43.998Z</time></trkpt><trkpt lat="44.861293471314035" lon="9.389478354038586"><ele>515.0</ele><time>2026-03-22T16:29:44.998Z</time></trkpt><trkpt lat="44.86133793829083" lon="9.389663100149747"><ele>515.0</ele><time>2026-03-22T16:29:45.998Z</time></trkpt><trkpt lat="44.861411440069624" lon="9.389824399487349"><ele>515.0</ele><time>2026-03-22T16:29:46.998Z</time></trkpt><trkpt lat="44.861534782707174" lon="9.389945151820847"><ele>515.0</ele><time>2026-03-22T16:29:47.998Z</time></trkpt><trkpt lat="44.86167881544493" lon="9.390038148020468"><ele>510.75</ele><time>2026-03-22T16:29:48.998Z</time></trkpt><trkpt lat="44.86181907971506" lon="9.390107087526214"><ele>506.5</ele><time>2026-03-22T16:29:49.998Z</time></trkpt><trkpt lat="44.86192900011636" lon="9.390202475593647"><ele>502.25</ele><time>2026-03-22T16:29:50.998Z</time></trkpt><trkpt lat="44.86200649928525" lon="9.390340631761168"><ele>498.0</ele><time>2026-03-22T16:29:51.998Z</time></trkpt><trkpt lat="44.86206385703692" lon="9.390503515212142"><ele>499.0</ele><time>2026-03-22T16:29:52.998Z</time></trkpt><trkpt lat="44.8621044767233" lon="9.390661403118107"><ele>499.99999999999994</ele><time>2026-03-22T16:29:53.998Z</time></trkpt><trkpt lat="44.8621365800223" lon="9.390780265969061"><ele>500.99999999999994</ele><time>2026-03-22T16:29:54.998Z</time></trkpt><trkpt lat="44.86217954131495" lon="9.39089293700988"><ele>502.0</ele><time>2026-03-22T16:29:55.998Z</time></trkpt><trkpt lat="44.8622611697409" lon="9.39100196236854"><ele>503.0</ele><time>2026-03-22T16:29:56.998Z</time></trkpt><trkpt lat="44.86238986774234" lon="9.391076449979455"><ele>503.0</ele><time>2026-03-22T16:29:57.998Z</time></trkpt><trkpt lat="44.862573732722154" lon="9.39110202193881"><ele>503.0</ele><time>2026-03-22T16:29:58.998Z</time></trkpt><trkpt lat="44.86277622294796" lon="9.391109327690657"><ele>503.0</ele><time>2026-03-22T16:29:59.998Z</time></trkpt><trkpt lat="44.86298741184117" lon="9.391128869637948"><ele>499.3333333333333</ele><time>2026-03-22T16:30:00.998Z</time></trkpt><trkpt lat="44.86320297044061" lon="9.391148588707978"><ele>495.66666666666663</ele><time>2026-03-22T16:30:01.998Z</time></trkpt><trkpt lat="44.86341467179149" lon="9.391173846599127"><ele>492.0</ele><time>2026-03-22T16:30:02.998Z</time></trkpt><trkpt lat="44.86361062215734" lon="9.391200781860029"><ele>489.66666666666663</ele><time>2026-03-22T16:30:03.998Z</time></trkpt><trkpt lat="44.8637870867639" lon="9.391231255723111"><ele>487.3333333333333</ele><time>2026-03-22T16:30:04.998Z</time></trkpt><trkpt lat="44.86395513972105" lon="9.391246817013783"><ele>485.0</ele><time>2026-03-22T16:30:05.998Z</time></trkpt><trkpt lat="44.864125325708976" lon="9.391228662680826"><ele>485.66666666666663</ele><time>2026-03-22T16:30:06.998Z</time></trkpt><trkpt lat="44.86430152724053" lon="9.391163580872076"><ele>486.33333333333337</ele><time>2026-03-22T16:30:07.998Z</time></trkpt><trkpt lat="44.86448853687723" lon="9.391070571923386"><ele>487.0</ele><time>2026-03-22T16:30:08.998Z</time></trkpt><trkpt lat="44.8646699987865" lon="9.390987381533579"><ele>487.0</ele><time>2026-03-22T16:30:09.998Z</time></trkpt><trkpt lat="44.864840170649245" lon="9.390917066943564"><ele>487.0</ele><time>2026-03-22T16:30:10.998Z</time></trkpt><trkpt lat="44.86499483405636" lon="9.390841322968743"><ele>487.0</ele><time>2026-03-22T16:30:11.998Z</time></trkpt><trkpt lat="44.86514120995682" lon="9.390754421699192"><ele>485.0</ele><time>2026-03-22T16:30:12.998Z</time></trkpt><trkpt lat="44.86528712233604" lon="9.39069708620983"><ele>483.0</ele><time>2026-03-22T16:30:13.998Z</time></trkpt><trkpt lat="44.86543056474371" lon="9.39068707390371"><ele>481.0</ele><time>2026-03-22T16:30:14.998Z</time></trkpt><trkpt lat="44.86558120798043" lon="9.390738225585402"><ele>481.0</ele><time>2026-03-22T16:30:15.998Z</time></trkpt><trkpt lat="44.865729394682376" lon="9.390853398246618"><ele>481.0</ele><time>2026-03-22T16:30:16.998Z</time></trkpt><trkpt lat="44.865846847738425" lon="9.39098682705843"><ele>481.0</ele><time>2026-03-22T16:30:17.998Z</time></trkpt><trkpt lat="44.865957236914475" lon="9.39109934313264"><ele>478.0</ele><time>2026-03-22T16:30:18.998Z</time></trkpt><trkpt lat="44.866084013648845" lon="9.391160412951054"><ele>475.0</ele><time>2026-03-22T16:30:19.998Z</time></trkpt><trkpt lat="44.86624020140851" lon="9.391174148639875"><ele>472.0</ele><time>2026-03-22T16:30:20.998Z</time></trkpt><trkpt lat="44.86640826345671" lon="9.391117558237816"><ele>472.0</ele><time>2026-03-22T16:30:21.998Z</time></trkpt><trkpt lat="44.86655091241048" lon="9.391019052188536"><ele>472.0</ele><time>2026-03-22T16:30:22.998Z</time></trkpt><trkpt lat="44.866677760972415" lon="9.390940455364413"><ele>472.0</ele><time>2026-03-22T16:30:23.998Z</time></trkpt><trkpt lat="44.866811783882525" lon="9.390919045528522"><ele>472.0</ele><time>2026-03-22T16:30:24.998Z</time></trkpt><trkpt lat="44.866951029349224" lon="9.390965939207762"><ele>468.6666666666667</ele><time>2026-03-22T16:30:25.998Z</time></trkpt><trkpt lat="44.86709766862827" lon="9.391069618887347"><ele>465.33333333333337</ele><time>2026-03-22T16:30:26.998Z</time></trkpt><trkpt lat="44.86725153971619" lon="9.391132671241776"><ele>462.0</ele><time>2026-03-22T16:30:27.998Z</time></trkpt><trkpt lat="44.86740668191182" lon="9.391157743058798"><ele>462.0</ele><time>2026-03-22T16:30:28.998Z</time></trkpt><trkpt lat="44.86755456318318" lon="9.39119533527243"><ele>462.0</ele><time>2026-03-22T16:30:29.998Z</time></trkpt><trkpt lat="44.86768766197718" lon="9.391258024480727"><ele>462.0</ele><time>2026-03-22T16:30:30.997Z</time></trkpt><trkpt lat="44.86780593592446" lon="9.39134821354045"><ele>462.0</ele><time>2026-03-22T16:30:31.997Z</time></trkpt><trkpt lat="44.86790826766592" lon="9.391467031707576"><ele>461.8</ele><time>2026-03-22T16:30:32.997Z</time></trkpt><trkpt lat="44.867991537733246" lon="9.391581713371957"><ele>461.6</ele><time>2026-03-22T16:30:33.997Z</time></trkpt><trkpt lat="44.86807126139199" lon="9.391683390780964"><ele>461.40000000000003</ele><time>2026-03-22T16:30:34.997Z</time></trkpt><trkpt lat="44.86816068533304" lon="9.391764398660289"><ele>461.20000000000005</ele><time>2026-03-22T16:30:35.997Z</time></trkpt><trkpt lat="44.86825306386728" lon="9.391820247234685"><ele>461.0</ele><time>2026-03-22T16:30:37Z</time></trkpt><trkpt lat="44.86835025468409" lon="9.391856113817557"><ele>458.8</ele><time>2026-03-22T16:30:38Z</time></trkpt><trkpt lat="44.868443824956294" lon="9.391889120095382"><ele>456.6</ele><time>2026-03-22T16:30:39Z</time></trkpt><trkpt lat="44.868545946395884" lon="9.391927047623339"><ele>454.4</ele><time>2026-03-22T16:30:40Z</time></trkpt><trkpt lat="44.868643185114834" lon="9.391981465434283"><ele>452.2</ele><time>2026-03-22T16:30:41Z</time></trkpt><trkpt lat="44.86872970325301" lon="9.3920697006704"><ele>450.0</ele><time>2026-03-22T16:30:42Z</time></trkpt><trkpt lat="44.868804281684575" lon="9.392180523503555"><ele>450.0</ele><time>2026-03-22T16:30:43Z</time></trkpt><trkpt lat="44.86886197301174" lon="9.392299925837653"><ele>450.0</ele><time>2026-03-22T16:30:44Z</time></trkpt><trkpt lat="44.86891857228027" lon="9.392415964667201"><ele>450.0</ele><time>2026-03-22T16:30:45Z</time></trkpt><trkpt lat="44.86897558571059" lon="9.392525831929023"><ele>450.0</ele><time>2026-03-22T16:30:46Z</time></trkpt><trkpt lat="44.86902371067384" lon="9.392644529354381"><ele>450.0</ele><time>2026-03-22T16:30:47Z</time></trkpt><trkpt lat="44.86904970262002" lon="9.39278856424057"><ele>450.0</ele><time>2026-03-22T16:30:48Z</time></trkpt><trkpt lat="44.869051324196775" lon="9.392948186996998"><ele>450.0</ele><time>2026-03-22T16:30:49Z</time></trkpt><trkpt lat="44.8690330486784" lon="9.393113828537404"><ele>450.0</ele><time>2026-03-22T16:30:50Z</time></trkpt><trkpt lat="44.869018285905995" lon="9.393299169928724"><ele>450.0</ele><time>2026-03-22T16:30:51Z</time></trkpt><trkpt lat="44.869007758089516" lon="9.393557959143159"><ele>451.33333333333337</ele><time>2026-03-22T16:30:52Z</time></trkpt><trkpt lat="44.86901343533306" lon="9.393853907209666"><ele>452.6666666666667</ele><time>2026-03-22T16:30:53Z</time></trkpt><trkpt lat="44.86902712382824" lon="9.394090213273572"><ele>454.0</ele><time>2026-03-22T16:30:54Z</time></trkpt><trkpt lat="44.869045943309835" lon="9.394283851347438"><ele>454.0</ele><time>2026-03-22T16:30:55Z</time></trkpt><trkpt lat="44.86907849620216" lon="9.394428977895547"><ele>454.0</ele><time>2026-03-22T16:30:56Z</time></trkpt><trkpt lat="44.86914875162547" lon="9.394552351206856"><ele>454.0</ele><time>2026-03-22T16:30:57Z</time></trkpt><trkpt lat="44.86927404435141" lon="9.394653369973998"><ele>454.0</ele><time>2026-03-22T16:30:58Z</time></trkpt><trkpt lat="44.86944305893493" lon="9.394718286662906"><ele>453.5</ele><time>2026-03-22T16:30:59Z</time></trkpt><trkpt lat="44.869596596005664" lon="9.394762503443943"><ele>453.0</ele><time>2026-03-22T16:31:00Z</time></trkpt><trkpt lat="44.86971831699307" lon="9.394779352011135"><ele>452.5</ele><time>2026-03-22T16:31:01Z</time></trkpt><trkpt lat="44.86982799697168" lon="9.394743891644206"><ele>452.0</ele><time>2026-03-22T16:31:02Z</time></trkpt><trkpt lat="44.86991206473406" lon="9.394637020691473"><ele>451.3333333333333</ele><time>2026-03-22T16:31:03Z</time></trkpt><trkpt lat="44.87000229974416" lon="9.394468374329358"><ele>450.66666666666663</ele><time>2026-03-22T16:31:04Z</time></trkpt><trkpt lat="44.8701114538447" lon="9.394242342322691"><ele>450.0</ele><time>2026-03-22T16:31:05Z</time></trkpt><trkpt lat="44.870228726357986" lon="9.393978312250074"><ele>458.5</ele><time>2026-03-22T16:31:06Z</time></trkpt><trkpt lat="44.8703283265764" lon="9.39368860683928"><ele>467.0</ele><time>2026-03-22T16:31:07Z</time></trkpt><trkpt lat="44.87040524285332" lon="9.393366582078148"><ele>467.0</ele><time>2026-03-22T16:31:08Z</time></trkpt><trkpt lat="44.870466182108615" lon="9.39302383854417"><ele>467.0</ele><time>2026-03-22T16:31:09Z</time></trkpt><trkpt lat="44.87052028362084" lon="9.392670713652409"><ele>464.5</ele><time>2026-03-22T16:31:10Z</time></trkpt><trkpt lat="44.870570288147576" lon="9.392329310501689"><ele>462.0</ele><time>2026-03-22T16:31:11Z</time></trkpt><trkpt lat="44.87061682602601" lon="9.392018948373092"><ele>460.0</ele><time>2026-03-22T16:31:12Z</time></trkpt><trkpt lat="44.87067947731388" lon="9.391724071618263"><ele>458.0</ele><time>2026-03-22T16:31:13Z</time></trkpt><trkpt lat="44.870740131135086" lon="9.391455592424649"><ele>456.0</ele><time>2026-03-22T16:31:14Z</time></trkpt><trkpt lat="44.870794885194265" lon="9.39121281325249"><ele>453.66666666666663</ele><time>2026-03-22T16:31:15Z</time></trkpt><trkpt lat="44.87085531118507" lon="9.390981255160119"><ele>451.3333333333333</ele><time>2026-03-22T16:31:16Z</time></trkpt><trkpt lat="44.87096128342396" lon="9.390768603361522"><ele>449.0</ele><time>2026-03-22T16:31:16.999Z</time></trkpt><trkpt lat="44.87106161901349" lon="9.39052893143584"><ele>452.3333333333333</ele><time>2026-03-22T16:31:17.999Z</time></trkpt><trkpt lat="44.87118358369171" lon="9.390278073774521"><ele>455.66666666666663</ele><time>2026-03-22T16:31:18.999Z</time></trkpt><trkpt lat="44.8712930402946" lon="9.390047993898504"><ele>459.0</ele><time>2026-03-22T16:31:19.999Z</time></trkpt><trkpt lat="44.871398867741526" lon="9.389852677250145"><ele>456.66666666666663</ele><time>2026-03-22T16:31:20.999Z</time></trkpt><trkpt lat="44.87148215775198" lon="9.38965981251213"><ele>454.3333333333333</ele><time>2026-03-22T16:31:21.999Z</time></trkpt><trkpt lat="44.871533905564206" lon="9.389418049177813"><ele>452.0</ele><time>2026-03-22T16:31:22.999Z</time></trkpt><trkpt lat="44.871543497222504" lon="9.389136372737594"><ele>452.0</ele><time>2026-03-22T16:31:23.999Z</time></trkpt><trkpt lat="44.87154619774077" lon="9.38887580335493"><ele>452.0</ele><time>2026-03-22T16:31:24.999Z</time></trkpt><trkpt lat="44.87154512942134" lon="9.388652070477866"><ele>452.0</ele><time>2026-03-22T16:31:25.999Z</time></trkpt><trkpt lat="44.871559473234576" lon="9.38846700189623"><ele>451.66666666666663</ele><time>2026-03-22T16:31:26.999Z</time></trkpt><trkpt lat="44.87159915356965" lon="9.388293459576335"><ele>451.33333333333337</ele><time>2026-03-22T16:31:27.999Z</time></trkpt><trkpt lat="44.871701117482274" lon="9.388153271987001"><ele>451.0</ele><time>2026-03-22T16:31:28.999Z</time></trkpt><trkpt lat="44.87182748279565" lon="9.387962521450916"><ele>451.0</ele><time>2026-03-22T16:31:29.999Z</time></trkpt><trkpt lat="44.871976595752706" lon="9.38779447400401"><ele>451.0</ele><time>2026-03-22T16:31:30.999Z</time></trkpt><trkpt lat="44.87210270658227" lon="9.387631917586486"><ele>451.0</ele><time>2026-03-22T16:31:31.999Z</time></trkpt><trkpt lat="44.872238637012124" lon="9.38753302677422"><ele>451.0</ele><time>2026-03-22T16:31:32.999Z</time></trkpt><trkpt lat="44.87241220739854" lon="9.387460664181383"><ele>451.0</ele><time>2026-03-22T16:31:33.999Z</time></trkpt><trkpt lat="44.872607696873985" lon="9.387371141791482"><ele>451.0</ele><time>2026-03-22T16:31:34.999Z</time></trkpt><trkpt lat="44.87278024105887" lon="9.3873186660696"><ele>451.0</ele><time>2026-03-22T16:31:35.999Z</time></trkpt><trkpt lat="44.87293628404979" lon="9.387258705632519"><ele>451.0</ele><time>2026-03-22T16:31:36.999Z</time></trkpt><trkpt lat="44.87307714433609" lon="9.387169147863862"><ele>451.0</ele><time>2026-03-22T16:31:37.999Z</time></trkpt><trkpt lat="44.87320239972245" lon="9.387011195867272"><ele>451.0</ele><time>2026-03-22T16:31:38.999Z</time></trkpt><trkpt lat="44.873297162227296" lon="9.38678726404838"><ele>451.0</ele><time>2026-03-22T16:31:39.999Z</time></trkpt><trkpt lat="44.873371796756864" lon="9.386576008854172"><ele>451.0</ele><time>2026-03-22T16:31:40.999Z</time></trkpt><trkpt lat="44.87349933042513" lon="9.386410299427752"><ele>452.33333333333337</ele><time>2026-03-22T16:31:41.999Z</time></trkpt><trkpt lat="44.87365629580334" lon="9.386255913192446"><ele>453.66666666666663</ele><time>2026-03-22T16:31:42.999Z</time></trkpt><trkpt lat="44.873851648994076" lon="9.386099576125016"><ele>455.0</ele><time>2026-03-22T16:31:43.999Z</time></trkpt><trkpt lat="44.87399905058858" lon="9.385957941763452"><ele>455.0</ele><time>2026-03-22T16:31:44.999Z</time></trkpt><trkpt lat="44.87413493246922" lon="9.385819356707819"><ele>455.0</ele><time>2026-03-22T16:31:45.999Z</time></trkpt><trkpt lat="44.87424427079787" lon="9.385637755929187"><ele>455.0</ele><time>2026-03-22T16:31:46.999Z</time></trkpt><trkpt lat="44.87433091283282" lon="9.385417607710792"><ele>459.3333333333333</ele><time>2026-03-22T16:31:47.999Z</time></trkpt><trkpt lat="44.87439760300497" lon="9.385187595014377"><ele>463.66666666666663</ele><time>2026-03-22T16:31:48.999Z</time></trkpt><trkpt lat="44.87445213013524" lon="9.38495604623322"><ele>468.0</ele><time>2026-03-22T16:31:49.999Z</time></trkpt><trkpt lat="44.874525393969776" lon="9.384754835334219"><ele>466.33333333333337</ele><time>2026-03-22T16:31:50.999Z</time></trkpt><trkpt lat="44.87458722565367" lon="9.384547976472346"><ele>464.6666666666667</ele><time>2026-03-22T16:31:51.999Z</time></trkpt><trkpt lat="44.87469290657997" lon="9.384390366254914"><ele>463.0</ele><time>2026-03-22T16:31:52.999Z</time></trkpt><trkpt lat="44.874797135836424" lon="9.384262269010323"><ele>463.0</ele><time>2026-03-22T16:31:53.999Z</time></trkpt><trkpt lat="44.87487919611624" lon="9.384126047984513"><ele>463.0</ele><time>2026-03-22T16:31:54.999Z</time></trkpt><trkpt lat="44.87491991758532" lon="9.383966907738143"><ele>463.0</ele><time>2026-03-22T16:31:55.999Z</time></trkpt><trkpt lat="44.874926161962215" lon="9.383794365024185"><ele>463.0</ele><time>2026-03-22T16:31:56.999Z</time></trkpt><trkpt lat="44.874893014543524" lon="9.383605734121764"><ele>462.0</ele><time>2026-03-22T16:31:57.999Z</time></trkpt><trkpt lat="44.874825389276786" lon="9.383393500972053"><ele>461.0</ele><time>2026-03-22T16:31:58.999Z</time></trkpt><trkpt lat="44.87475427732592" lon="9.383176388071472"><ele>460.0</ele><time>2026-03-22T16:31:59.999Z</time></trkpt><trkpt lat="44.874697246931206" lon="9.382971196043574"><ele>457.5</ele><time>2026-03-22T16:32:00.999Z</time></trkpt><trkpt lat="44.87469927378097" lon="9.382790398561745"><ele>455.0</ele><time>2026-03-22T16:32:01.999Z</time></trkpt><trkpt lat="44.87472978654202" lon="9.382617185740386"><ele>452.5</ele><time>2026-03-22T16:32:02.999Z</time></trkpt><trkpt lat="44.874801485946115" lon="9.382456067152058"><ele>450.0</ele><time>2026-03-22T16:32:03.999Z</time></trkpt><trkpt lat="44.87491525456541" lon="9.38233043120278"><ele>450.0</ele><time>2026-03-22T16:32:04.999Z</time></trkpt><trkpt lat="44.87506271003466" lon="9.382275918705444"><ele>450.0</ele><time>2026-03-22T16:32:05.999Z</time></trkpt><trkpt lat="44.875219836204266" lon="9.382181379715698"><ele>450.0</ele><time>2026-03-22T16:32:06.999Z</time></trkpt><trkpt lat="44.875355833467935" lon="9.382101704287717"><ele>448.33333333333337</ele><time>2026-03-22T16:32:07.998Z</time></trkpt><trkpt lat="44.87551465864978" lon="9.38202224230936"><ele>446.6666666666667</ele><time>2026-03-22T16:32:08.998Z</time></trkpt><trkpt lat="44.87568440380978" lon="9.381926018672209"><ele>445.0</ele><time>2026-03-22T16:32:09.998Z</time></trkpt><trkpt lat="44.87584453025306" lon="9.38181468641111"><ele>448.0</ele><time>2026-03-22T16:32:10.998Z</time></trkpt><trkpt lat="44.876002733293504" lon="9.381749742491012"><ele>451.0</ele><time>2026-03-22T16:32:11.998Z</time></trkpt><trkpt lat="44.87615158803293" lon="9.381663404120026"><ele>454.0</ele><time>2026-03-22T16:32:12.998Z</time></trkpt><trkpt lat="44.8763097893518" lon="9.381567359820462"><ele>454.0</ele><time>2026-03-22T16:32:13.998Z</time></trkpt><trkpt lat="44.87645550431518" lon="9.3814782679707"><ele>454.0</ele><time>2026-03-22T16:32:14.998Z</time></trkpt><trkpt lat="44.87659556271372" lon="9.381369041824554"><ele>454.0</ele><time>2026-03-22T16:32:15.998Z</time></trkpt><trkpt lat="44.876716720842445" lon="9.381186639464515"><ele>450.6666666666667</ele><time>2026-03-22T16:32:16.998Z</time></trkpt><trkpt lat="44.87681898237738" lon="9.380969902349989"><ele>447.33333333333337</ele><time>2026-03-22T16:32:17.998Z</time></trkpt><trkpt lat="44.87691408582601" lon="9.38077866186005"><ele>444.0</ele><time>2026-03-22T16:32:18.998Z</time></trkpt><trkpt lat="44.87702709447904" lon="9.38061258067772"><ele>438.0</ele><time>2026-03-22T16:32:19.998Z</time></trkpt><trkpt lat="44.877162434201196" lon="9.380465038697075"><ele>432.0</ele><time>2026-03-22T16:32:20.998Z</time></trkpt><trkpt lat="44.87731455851213" lon="9.380346568441306"><ele>426.0</ele><time>2026-03-22T16:32:21.998Z</time></trkpt><trkpt lat="44.87749335566777" lon="9.3802877150139"><ele>428.66666666666663</ele><time>2026-03-22T16:32:22.998Z</time></trkpt><trkpt lat="44.87766849719437" lon="9.3802254869977"><ele>431.3333333333333</ele><time>2026-03-22T16:32:23.998Z</time></trkpt><trkpt lat="44.877831853110365" lon="9.380180483804128"><ele>434.0</ele><time>2026-03-22T16:32:24.998Z</time></trkpt><trkpt lat="44.87798947204301" lon="9.380070310931737"><ele>434.0</ele><time>2026-03-22T16:32:25.998Z</time></trkpt><trkpt lat="44.87811807616027" lon="9.379918178717821"><ele>434.0</ele><time>2026-03-22T16:32:26.998Z</time></trkpt><trkpt lat="44.878241745871996" lon="9.37980928459025"><ele>434.0</ele><time>2026-03-22T16:32:27.998Z</time></trkpt><trkpt lat="44.87839045267994" lon="9.379759750465777"><ele>436.3333333333333</ele><time>2026-03-22T16:32:28.998Z</time></trkpt><trkpt lat="44.878567118011794" lon="9.379757134049274"><ele>438.66666666666663</ele><time>2026-03-22T16:32:29.998Z</time></trkpt><trkpt lat="44.87874731345831" lon="9.379748072493198"><ele>441.0</ele><time>2026-03-22T16:32:30.998Z</time></trkpt><trkpt lat="44.87892100753396" lon="9.37970502037126"><ele>442.0</ele><time>2026-03-22T16:32:31.998Z</time></trkpt><trkpt lat="44.879102711026285" lon="9.379632787113048"><ele>443.0</ele><time>2026-03-22T16:32:32.998Z</time></trkpt><trkpt lat="44.879277005017826" lon="9.379530892734062"><ele>444.0</ele><time>2026-03-22T16:32:33.998Z</time></trkpt><trkpt lat="44.87942321260525" lon="9.379383070980401"><ele>444.0</ele><time>2026-03-22T16:32:34.998Z</time></trkpt><trkpt lat="44.87953299144798" lon="9.379214018477963"><ele>444.0</ele><time>2026-03-22T16:32:35.998Z</time></trkpt><trkpt lat="44.879635688515236" lon="9.37903751716031"><ele>444.0</ele><time>2026-03-22T16:32:36.998Z</time></trkpt><trkpt lat="44.87971843811101" lon="9.378851191849163"><ele>438.33333333333337</ele><time>2026-03-22T16:32:37.998Z</time></trkpt><trkpt lat="44.879753172861925" lon="9.378600918607967"><ele>432.6666666666667</ele><time>2026-03-22T16:32:38.998Z</time></trkpt><trkpt lat="44.87976141618631" lon="9.378338960725198"><ele>427.0</ele><time>2026-03-22T16:32:39.998Z</time></trkpt><trkpt lat="44.87983645123283" lon="9.378086943992916"><ele>427.6666666666667</ele><time>2026-03-22T16:32:40.998Z</time></trkpt><trkpt lat="44.87995710696301" lon="9.377849783782391"><ele>428.33333333333337</ele><time>2026-03-22T16:32:42Z</time></trkpt><trkpt lat="44.88006295557197" lon="9.377630761164674"><ele>429.0</ele><time>2026-03-22T16:32:43Z</time></trkpt><trkpt lat="44.8801629751646" lon="9.37745028991046"><ele>429.0</ele><time>2026-03-22T16:32:44Z</time></trkpt><trkpt lat="44.88024880582504" lon="9.377327164588102"><ele>429.0</ele><time>2026-03-22T16:32:45Z</time></trkpt><trkpt lat="44.88037624702859" lon="9.377288699968343"><ele>429.0</ele><time>2026-03-22T16:32:46Z</time></trkpt><trkpt lat="44.88050261539342" lon="9.377356936577822"><ele>429.0</ele><time>2026-03-22T16:32:47Z</time></trkpt><trkpt lat="44.880608500864334" lon="9.377428128648932"><ele>429.0</ele><time>2026-03-22T16:32:48Z</time></trkpt><trkpt lat="44.880714767882935" lon="9.377484405553583"><ele>429.0</ele><time>2026-03-22T16:32:49Z</time></trkpt><trkpt lat="44.880815792444906" lon="9.377518548203184"><ele>429.0</ele><time>2026-03-22T16:32:50Z</time></trkpt><trkpt lat="44.88091290044874" lon="9.377489315666557"><ele>429.0</ele><time>2026-03-22T16:32:51Z</time></trkpt><trkpt lat="44.881000877807885" lon="9.377377338450076"><ele>429.0</ele><time>2026-03-22T16:32:52Z</time></trkpt><trkpt lat="44.881056755079534" lon="9.377222439451263"><ele>432.75</ele><time>2026-03-22T16:32:53Z</time></trkpt><trkpt lat="44.88107053096714" lon="9.377047492129812"><ele>436.5</ele><time>2026-03-22T16:32:54Z</time></trkpt><trkpt lat="44.881022962543966" lon="9.376834754123786"><ele>440.25</ele><time>2026-03-22T16:32:55Z</time></trkpt><trkpt lat="44.88096897957585" lon="9.376618412758432"><ele>444.0</ele><time>2026-03-22T16:32:56Z</time></trkpt><trkpt lat="44.88097974726836" lon="9.376390394346688"><ele>439.33333333333337</ele><time>2026-03-22T16:32:57Z</time></trkpt><trkpt lat="44.881017471788525" lon="9.376177346199594"><ele>434.6666666666667</ele><time>2026-03-22T16:32:58Z</time></trkpt><trkpt lat="44.881079790465336" lon="9.375977081700672"><ele>430.0</ele><time>2026-03-22T16:32:59Z</time></trkpt><trkpt lat="44.88117478512494" lon="9.37579999567928"><ele>430.0</ele><time>2026-03-22T16:33:00Z</time></trkpt><trkpt lat="44.88130611852881" lon="9.375621176160635"><ele>430.0</ele><time>2026-03-22T16:33:01Z</time></trkpt><trkpt lat="44.88144238630303" lon="9.37543089623164"><ele>430.0</ele><time>2026-03-22T16:33:02Z</time></trkpt><trkpt lat="44.88159192437168" lon="9.375246619666324"><ele>425.33333333333337</ele><time>2026-03-22T16:33:03Z</time></trkpt><trkpt lat="44.881718779591885" lon="9.375078720578765"><ele>420.66666666666663</ele><time>2026-03-22T16:33:04Z</time></trkpt><trkpt lat="44.881828479975276" lon="9.374924369968356"><ele>416.0</ele><time>2026-03-22T16:33:05Z</time></trkpt><trkpt lat="44.881935745638366" lon="9.37478994474025"><ele>416.0</ele><time>2026-03-22T16:33:06Z</time></trkpt><trkpt lat="44.88204818054679" lon="9.374761435620938"><ele>416.0</ele><time>2026-03-22T16:33:07Z</time></trkpt><trkpt lat="44.88216220226547" lon="9.374775020764368"><ele>416.0</ele><time>2026-03-22T16:33:08Z</time></trkpt><trkpt lat="44.88230541086652" lon="9.37487382519785"><ele>416.0</ele><time>2026-03-22T16:33:09Z</time></trkpt><trkpt lat="44.882465054703914" lon="9.374966373116678"><ele>415.66666666666663</ele><time>2026-03-22T16:33:10Z</time></trkpt><trkpt lat="44.882601756877136" lon="9.375040145100954"><ele>415.33333333333337</ele><time>2026-03-22T16:33:11Z</time></trkpt><trkpt lat="44.88274737860458" lon="9.375095341809848"><ele>415.0</ele><time>2026-03-22T16:33:12Z</time></trkpt><trkpt lat="44.882908530420536" lon="9.37510044931356"><ele>415.0</ele><time>2026-03-22T16:33:13Z</time></trkpt><trkpt lat="44.88306049799628" lon="9.375062834138596"><ele>415.0</ele><time>2026-03-22T16:33:14Z</time></trkpt><trkpt lat="44.88319494178969" lon="9.374964037846267"><ele>415.0</ele><time>2026-03-22T16:33:15Z</time></trkpt><trkpt lat="44.88332921798982" lon="9.37482437147308"><ele>413.6666666666667</ele><time>2026-03-22T16:33:16Z</time></trkpt><trkpt lat="44.883452525921285" lon="9.374639962900103"><ele>412.33333333333337</ele><time>2026-03-22T16:33:17Z</time></trkpt><trkpt lat="44.8835548701885" lon="9.374450476947375"><ele>411.0</ele><time>2026-03-22T16:33:18Z</time></trkpt><trkpt lat="44.88367236006463" lon="9.374267544679693"><ele>411.0</ele><time>2026-03-22T16:33:19Z</time></trkpt><trkpt lat="44.883810397227876" lon="9.374094656722928"><ele>411.0</ele><time>2026-03-22T16:33:20Z</time></trkpt><trkpt lat="44.88395765827903" lon="9.373931443880426"><ele>411.0</ele><time>2026-03-22T16:33:21Z</time></trkpt><trkpt lat="44.884109743044" lon="9.373768977446218"><ele>410.66666666666663</ele><time>2026-03-22T16:33:22Z</time></trkpt><trkpt lat="44.88423706836185" lon="9.373598326661032"><ele>410.3333333333333</ele><time>2026-03-22T16:33:23Z</time></trkpt><trkpt lat="44.884342638856594" lon="9.373408958028302"><ele>410.0</ele><time>2026-03-22T16:33:24Z</time></trkpt><trkpt lat="44.884422416994774" lon="9.373226281791739"><ele>410.0</ele><time>2026-03-22T16:33:25Z</time></trkpt><trkpt lat="44.884514634224985" lon="9.373072486995648"><ele>410.0</ele><time>2026-03-22T16:33:26Z</time></trkpt><trkpt lat="44.88461441452719" lon="9.372953205971323"><ele>410.0</ele><time>2026-03-22T16:33:27Z</time></trkpt><trkpt lat="44.884735049977465" lon="9.372876536385347"><ele>410.0</ele><time>2026-03-22T16:33:28Z</time></trkpt><trkpt lat="44.88487983767833" lon="9.372837285136704"><ele>407.0</ele><time>2026-03-22T16:33:29Z</time></trkpt><trkpt lat="44.88504674162666" lon="9.372789287673106"><ele>404.0</ele><time>2026-03-22T16:33:30Z</time></trkpt><trkpt lat="44.885218800927255" lon="9.372771545847252"><ele>401.0</ele><time>2026-03-22T16:33:31Z</time></trkpt><trkpt lat="44.885386972896015" lon="9.372749107175565"><ele>401.0</ele><time>2026-03-22T16:33:32Z</time></trkpt><trkpt lat="44.88553425349382" lon="9.372724869203358"><ele>401.0</ele><time>2026-03-22T16:33:33Z</time></trkpt><trkpt lat="44.8856707056127" lon="9.37265471545353"><ele>401.0</ele><time>2026-03-22T16:33:34Z</time></trkpt><trkpt lat="44.88577605467391" lon="9.372501913708964"><ele>401.0</ele><time>2026-03-22T16:33:35Z</time></trkpt><trkpt lat="44.885854374289806" lon="9.372315608166385"><ele>399.0</ele><time>2026-03-22T16:33:36Z</time></trkpt><trkpt lat="44.885891212455995" lon="9.37212406631168"><ele>397.0</ele><time>2026-03-22T16:33:37Z</time></trkpt><trkpt lat="44.88594747454622" lon="9.371965414572736"><ele>395.0</ele><time>2026-03-22T16:33:38Z</time></trkpt><trkpt lat="44.88602391690776" lon="9.371861113905924"><ele>393.0</ele><time>2026-03-22T16:33:39Z</time></trkpt><trkpt lat="44.88613334173463" lon="9.37184316139494"><ele>393.0</ele><time>2026-03-22T16:33:40Z</time></trkpt><trkpt lat="44.886243782271286" lon="9.371849724178658"><ele>393.0</ele><time>2026-03-22T16:33:41Z</time></trkpt><trkpt lat="44.88634765794924" lon="9.371912592588469"><ele>393.0</ele><time>2026-03-22T16:33:42Z</time></trkpt><trkpt lat="44.88644033473276" lon="9.371928122293184"><ele>393.0</ele><time>2026-03-22T16:33:43Z</time></trkpt><trkpt lat="44.886540509755406" lon="9.371884741386353"><ele>393.0</ele><time>2026-03-22T16:33:43.999Z</time></trkpt><trkpt lat="44.88663417805599" lon="9.371791110911238"><ele>393.0</ele><time>2026-03-22T16:33:44.999Z</time></trkpt><trkpt lat="44.886692483912604" lon="9.37163053974603"><ele>393.0</ele><time>2026-03-22T16:33:45.999Z</time></trkpt><trkpt lat="44.88673084898811" lon="9.371453169253254"><ele>393.0</ele><time>2026-03-22T16:33:46.999Z</time></trkpt><trkpt lat="44.88676694324708" lon="9.371295064154502"><ele>393.0</ele><time>2026-03-22T16:33:47.999Z</time></trkpt><trkpt lat="44.88680720942702" lon="9.371151746081175"><ele>392.5</ele><time>2026-03-22T16:33:48.999Z</time></trkpt><trkpt lat="44.88684362214041" lon="9.371015132990722"><ele>392.0</ele><time>2026-03-22T16:33:49.999Z</time></trkpt><trkpt lat="44.88685978184362" lon="9.370868520602079"><ele>391.5</ele><time>2026-03-22T16:33:50.999Z</time></trkpt><trkpt lat="44.88685295408738" lon="9.370701174605236"><ele>391.0</ele><time>2026-03-22T16:33:51.999Z</time></trkpt><trkpt lat="44.88683321023037" lon="9.37051926860801"><ele>391.0</ele><time>2026-03-22T16:33:52.999Z</time></trkpt><trkpt lat="44.886818556820806" lon="9.370341467849277"><ele>391.0</ele><time>2026-03-22T16:33:53.999Z</time></trkpt><trkpt lat="44.88684858834913" lon="9.37016986165205"><ele>391.0</ele><time>2026-03-22T16:33:54.999Z</time></trkpt><trkpt lat="44.88686985954803" lon="9.369991997914022"><ele>391.0</ele><time>2026-03-22T16:33:55.999Z</time></trkpt><trkpt lat="44.88693274802474" lon="9.369819982340172"><ele>388.25</ele><time>2026-03-22T16:33:56.999Z</time></trkpt><trkpt lat="44.88702844580466" lon="9.369681688043398"><ele>385.5</ele><time>2026-03-22T16:33:57.999Z</time></trkpt><trkpt lat="44.88712396988046" lon="9.369556998535781"><ele>382.75</ele><time>2026-03-22T16:33:58.998Z</time></trkpt><trkpt lat="44.88722303746296" lon="9.369464031968967"><ele>380.0</ele><time>2026-03-22T16:33:59.998Z</time></trkpt><trkpt lat="44.887327998151704" lon="9.369401714051326"><ele>380.0</ele><time>2026-03-22T16:34:00.998Z</time></trkpt><trkpt lat="44.88744221648099" lon="9.369334032853006"><ele>380.0</ele><time>2026-03-22T16:34:01.998Z</time></trkpt><trkpt lat="44.88756405251856" lon="9.369315696949636"><ele>380.0</ele><time>2026-03-22T16:34:02.998Z</time></trkpt><trkpt lat="44.887684004106134" lon="9.369362344960162"><ele>380.0</ele><time>2026-03-22T16:34:03.998Z</time></trkpt><trkpt lat="44.8878084291427" lon="9.369393612237044"><ele>381.5</ele><time>2026-03-22T16:34:04.998Z</time></trkpt><trkpt lat="44.887932834095615" lon="9.369471101842834"><ele>383.0</ele><time>2026-03-22T16:34:05.998Z</time></trkpt><trkpt lat="44.88806277517544" lon="9.369554152904264"><ele>384.5</ele><time>2026-03-22T16:34:06.998Z</time></trkpt><trkpt lat="44.88818344096963" lon="9.36962633429559"><ele>386.0</ele><time>2026-03-22T16:34:07.998Z</time></trkpt><trkpt lat="44.88829489332808" lon="9.369694778265433"><ele>386.0</ele><time>2026-03-22T16:34:08.998Z</time></trkpt><trkpt lat="44.8884086447056" lon="9.369769325011388"><ele>386.0</ele><time>2026-03-22T16:34:09.998Z</time></trkpt><trkpt lat="44.88852593912013" lon="9.369850664003934"><ele>386.0</ele><time>2026-03-22T16:34:10.998Z</time></trkpt><trkpt lat="44.888639901509734" lon="9.369923553017431"><ele>386.0</ele><time>2026-03-22T16:34:11.998Z</time></trkpt><trkpt lat="44.888753814493676" lon="9.369991916411212"><ele>385.5</ele><time>2026-03-22T16:34:12.998Z</time></trkpt><trkpt lat="44.888863231117874" lon="9.370058386934385"><ele>385.0</ele><time>2026-03-22T16:34:13.998Z</time></trkpt><trkpt lat="44.888974513171" lon="9.370122945429976"><ele>384.5</ele><time>2026-03-22T16:34:14.998Z</time></trkpt><trkpt lat="44.889087860864414" lon="9.370151679604543"><ele>384.0</ele><time>2026-03-22T16:34:15.998Z</time></trkpt><trkpt lat="44.889211619932944" lon="9.370124874481679"><ele>386.0</ele><time>2026-03-22T16:34:16.998Z</time></trkpt><trkpt lat="44.88932392472089" lon="9.370043041775578"><ele>388.0</ele><time>2026-03-22T16:34:17.998Z</time></trkpt><trkpt lat="44.88941106610218" lon="9.369895104641541"><ele>390.0</ele><time>2026-03-22T16:34:18.998Z</time></trkpt><trkpt lat="44.88946117512238" lon="9.369721043038515"><ele>392.0</ele><time>2026-03-22T16:34:19.998Z</time></trkpt><trkpt lat="44.889477037943266" lon="9.36953567462161"><ele>392.0</ele><time>2026-03-22T16:34:20.998Z</time></trkpt><trkpt lat="44.88947093925069" lon="9.369360545221864"><ele>392.0</ele><time>2026-03-22T16:34:21.998Z</time></trkpt><trkpt lat="44.8894734306162" lon="9.369199162268764"><ele>392.0</ele><time>2026-03-22T16:34:22.998Z</time></trkpt><trkpt lat="44.88948977688069" lon="9.36904476535705"><ele>392.0</ele><time>2026-03-22T16:34:23.998Z</time></trkpt><trkpt lat="44.889546465735435" lon="9.368906128207037"><ele>387.25</ele><time>2026-03-22T16:34:24.998Z</time></trkpt><trkpt lat="44.88960921799138" lon="9.368743930175812"><ele>382.5</ele><time>2026-03-22T16:34:25.998Z</time></trkpt><trkpt lat="44.889721942737225" lon="9.368627514508916"><ele>377.75</ele><time>2026-03-22T16:34:26.998Z</time></trkpt><trkpt lat="44.889831078931266" lon="9.368506872017962"><ele>373.0</ele><time>2026-03-22T16:34:27.998Z</time></trkpt><trkpt lat="44.88993628674251" lon="9.368391411746398"><ele>373.0</ele><time>2026-03-22T16:34:28.998Z</time></trkpt><trkpt lat="44.89003325703974" lon="9.3682906835146"><ele>373.0</ele><time>2026-03-22T16:34:29.998Z</time></trkpt><trkpt lat="44.89012401947012" lon="9.368185029904447"><ele>373.0</ele><time>2026-03-22T16:34:30.998Z</time></trkpt><trkpt lat="44.890210903410576" lon="9.368085522599378"><ele>373.0</ele><time>2026-03-22T16:34:31.998Z</time></trkpt><trkpt lat="44.89031166959656" lon="9.367985756710741"><ele>371.0</ele><time>2026-03-22T16:34:32.997Z</time></trkpt><trkpt lat="44.89042179329763" lon="9.367896624742176"><ele>369.0</ele><time>2026-03-22T16:34:33.997Z</time></trkpt><trkpt lat="44.890536401597146" lon="9.367829681710266"><ele>367.0</ele><time>2026-03-22T16:34:34.997Z</time></trkpt><trkpt lat="44.89065659225646" lon="9.367775250689036"><ele>365.0</ele><time>2026-03-22T16:34:35.997Z</time></trkpt><trkpt lat="44.8907767736125" lon="9.36771461034469"><ele>365.0</ele><time>2026-03-22T16:34:36.997Z</time></trkpt><trkpt lat="44.89089341267012" lon="9.367638683514354"><ele>365.0</ele><time>2026-03-22T16:34:37.997Z</time></trkpt><trkpt lat="44.89100783434972" lon="9.3675436106857"><ele>365.0</ele><time>2026-03-22T16:34:38.997Z</time></trkpt><trkpt lat="44.89111245348069" lon="9.367437463981362"><ele>365.0</ele><time>2026-03-22T16:34:39.997Z</time></trkpt><trkpt lat="44.891205550514414" lon="9.367303250956942"><ele>365.25</ele><time>2026-03-22T16:34:40.997Z</time></trkpt><trkpt lat="44.89128710246159" lon="9.367159939880846"><ele>365.5</ele><time>2026-03-22T16:34:41.997Z</time></trkpt><trkpt lat="44.89136786455019" lon="9.36700179123796"><ele>365.75</ele><time>2026-03-22T16:34:42.997Z</time></trkpt><trkpt lat="44.891441779884936" lon="9.36684769775469"><ele>366.0</ele><time>2026-03-22T16:34:43.997Z</time></trkpt><trkpt lat="44.89151002637996" lon="9.366708563153916"><ele>366.0</ele><time>2026-03-22T16:34:44.997Z</time></trkpt><trkpt lat="44.89157861886551" lon="9.366573018079508"><ele>366.0</ele><time>2026-03-22T16:34:45.997Z</time></trkpt><trkpt lat="44.89164870813351" lon="9.366448231946574"><ele>366.0</ele><time>2026-03-22T16:34:47Z</time></trkpt><trkpt lat="44.89173569194247" lon="9.366354529819965"><ele>366.0</ele><time>2026-03-22T16:34:48Z</time></trkpt><trkpt lat="44.89184861205756" lon="9.366299325791084"><ele>366.0</ele><time>2026-03-22T16:34:49Z</time></trkpt><trkpt lat="44.89197327733597" lon="9.366289750907654"><ele>366.0</ele><time>2026-03-22T16:34:50Z</time></trkpt><trkpt lat="44.892089416974635" lon="9.366307904405929"><ele>366.0</ele><time>2026-03-22T16:34:51Z</time></trkpt><trkpt lat="44.89219424425672" lon="9.366356199675973"><ele>366.0</ele><time>2026-03-22T16:34:52Z</time></trkpt><trkpt lat="44.89230298880874" lon="9.366386008911132"><ele>366.0</ele><time>2026-03-22T16:34:53Z</time></trkpt><trkpt lat="44.89241994604758" lon="9.366368699334076"><ele>366.0</ele><time>2026-03-22T16:34:54Z</time></trkpt><trkpt lat="44.892530733191656" lon="9.36630209342484"><ele>366.0</ele><time>2026-03-22T16:34:55Z</time></trkpt><trkpt lat="44.89261113117662" lon="9.366189862391238"><ele>366.0</ele><time>2026-03-22T16:34:56Z</time></trkpt><trkpt lat="44.892668270861364" lon="9.366046097349194"><ele>367.0</ele><time>2026-03-22T16:34:57Z</time></trkpt><trkpt lat="44.892704515082045" lon="9.365878363503318"><ele>368.0</ele><time>2026-03-22T16:34:58Z</time></trkpt><trkpt lat="44.89271421805019" lon="9.365697747146548"><ele>369.0</ele><time>2026-03-22T16:34:59Z</time></trkpt><trkpt lat="44.89271029549929" lon="9.365508869480205"><ele>370.0</ele><time>2026-03-22T16:35:00Z</time></trkpt><trkpt lat="44.892704714745676" lon="9.365345294468373"><ele>370.0</ele><time>2026-03-22T16:35:01Z</time></trkpt><trkpt lat="44.89270495289806" lon="9.365188500973384"><ele>370.0</ele><time>2026-03-22T16:35:02Z</time></trkpt><trkpt lat="44.89271041951464" lon="9.365024786483888"><ele>370.0</ele><time>2026-03-22T16:35:03Z</time></trkpt><trkpt lat="44.892745555025414" lon="9.364853358860502"><ele>370.0</ele><time>2026-03-22T16:35:04Z</time></trkpt><trkpt lat="44.89279253044916" lon="9.364684355176031"><ele>368.25</ele><time>2026-03-22T16:35:05Z</time></trkpt><trkpt lat="44.89283578471849" lon="9.364512605463396"><ele>366.5</ele><time>2026-03-22T16:35:06Z</time></trkpt><trkpt lat="44.89289381123227" lon="9.36434921391586"><ele>364.75</ele><time>2026-03-22T16:35:07Z</time></trkpt><trkpt lat="44.89294697745451" lon="9.364190481738019"><ele>363.0</ele><time>2026-03-22T16:35:08Z</time></trkpt><trkpt lat="44.89299922262835" lon="9.364034786716537"><ele>363.0</ele><time>2026-03-22T16:35:09Z</time></trkpt><trkpt lat="44.893050828885414" lon="9.363873629197391"><ele>363.0</ele><time>2026-03-22T16:35:10Z</time></trkpt><trkpt lat="44.89310344984306" lon="9.36371318980569"><ele>363.0</ele><time>2026-03-22T16:35:11Z</time></trkpt><trkpt lat="44.89315891855807" lon="9.363554599252074"><ele>363.0</ele><time>2026-03-22T16:35:12Z</time></trkpt><trkpt lat="44.89322519427164" lon="9.363396903634657"><ele>362.75</ele><time>2026-03-22T16:35:13Z</time></trkpt><trkpt lat="44.89330996004705" lon="9.363250168546701"><ele>362.5</ele><time>2026-03-22T16:35:14Z</time></trkpt><trkpt lat="44.89340682492706" lon="9.363110559432233"><ele>362.25</ele><time>2026-03-22T16:35:15Z</time></trkpt><trkpt lat="44.89350093153536" lon="9.362970501175063"><ele>362.0</ele><time>2026-03-22T16:35:15.999Z</time></trkpt><trkpt lat="44.893593414243284" lon="9.362831933502763"><ele>362.0</ele><time>2026-03-22T16:35:16.999Z</time></trkpt><trkpt lat="44.893692551688964" lon="9.362698560823212"><ele>362.0</ele><time>2026-03-22T16:35:17.999Z</time></trkpt><trkpt lat="44.89380162718822" lon="9.362587588302953"><ele>362.0</ele><time>2026-03-22T16:35:18.999Z</time></trkpt><trkpt lat="44.8939157471091" lon="9.362495996375298"><ele>362.0</ele><time>2026-03-22T16:35:19.999Z</time></trkpt><trkpt lat="44.89403209911959" lon="9.362412666633627"><ele>362.0</ele><time>2026-03-22T16:35:20.999Z</time></trkpt><trkpt lat="44.89413922644569" lon="9.362319566261833"><ele>362.0</ele><time>2026-03-22T16:35:21.999Z</time></trkpt><trkpt lat="44.89424344014155" lon="9.362226664035841"><ele>362.0</ele><time>2026-03-22T16:35:22.999Z</time></trkpt><trkpt lat="44.89434528527351" lon="9.362117283869775"><ele>362.0</ele><time>2026-03-22T16:35:23.999Z</time></trkpt><trkpt lat="44.894432160536134" lon="9.361971959555435"><ele>362.25</ele><time>2026-03-22T16:35:24.999Z</time></trkpt><trkpt lat="44.89449445690069" lon="9.36180182547579"><ele>362.5</ele><time>2026-03-22T16:35:25.999Z</time></trkpt><trkpt lat="44.89453089818876" lon="9.361609886562896"><ele>362.75</ele><time>2026-03-22T16:35:26.999Z</time></trkpt><trkpt lat="44.894555102492006" lon="9.361430823355148"><ele>363.0</ele><time>2026-03-22T16:35:27.999Z</time></trkpt><trkpt lat="44.89457499257993" lon="9.3612579618204"><ele>361.0</ele><time>2026-03-22T16:35:28.999Z</time></trkpt><trkpt lat="44.894594304804635" lon="9.361097005048268"><ele>359.0</ele><time>2026-03-22T16:35:29.999Z</time></trkpt><trkpt lat="44.89462200993654" lon="9.360944612610362"><ele>357.0</ele><time>2026-03-22T16:35:30.999Z</time></trkpt><trkpt lat="44.89467363736416" lon="9.360782032784641"><ele>355.0</ele><time>2026-03-22T16:35:31.999Z</time></trkpt><trkpt lat="44.89477413833792" lon="9.36062891536907"><ele>356.25</ele><time>2026-03-22T16:35:32.999Z</time></trkpt><trkpt lat="44.894866202474525" lon="9.360463276765135"><ele>357.5</ele><time>2026-03-22T16:35:33.999Z</time></trkpt><trkpt lat="44.89496947854519" lon="9.360338786917852"><ele>358.75</ele><time>2026-03-22T16:35:34.999Z</time></trkpt><trkpt lat="44.89509274922458" lon="9.360257214934146"><ele>360.0</ele><time>2026-03-22T16:35:35.999Z</time></trkpt><trkpt lat="44.89519506585365" lon="9.360152345497303"><ele>360.0</ele><time>2026-03-22T16:35:36.999Z</time></trkpt><trkpt lat="44.8953088344792" lon="9.360070754939644"><ele>360.0</ele><time>2026-03-22T16:35:37.999Z</time></trkpt><trkpt lat="44.895411775355676" lon="9.359989513858768"><ele>360.0</ele><time>2026-03-22T16:35:38.999Z</time></trkpt><trkpt lat="44.89550449450951" lon="9.359899860976942"><ele>360.0</ele><time>2026-03-22T16:35:39.999Z</time></trkpt><trkpt lat="44.89557530476772" lon="9.359781714956057"><ele>355.6666666666667</ele><time>2026-03-22T16:35:40.999Z</time></trkpt><trkpt lat="44.89562606187455" lon="9.359645748697416"><ele>351.33333333333337</ele><time>2026-03-22T16:35:41.999Z</time></trkpt><trkpt lat="44.89565289061626" lon="9.359438343785547"><ele>347.0</ele><time>2026-03-22T16:35:42.999Z</time></trkpt><trkpt lat="44.895656883510135" lon="9.359162691913339"><ele>347.0</ele><time>2026-03-22T16:35:43.999Z</time></trkpt><trkpt lat="44.89562376951959" lon="9.358918990334478"><ele>347.0</ele><time>2026-03-22T16:35:44.999Z</time></trkpt><trkpt lat="44.89562194632035" lon="9.358710238951387"><ele>347.0</ele><time>2026-03-22T16:35:45.999Z</time></trkpt><trkpt lat="44.895651249789175" lon="9.358524244870868"><ele>348.0</ele><time>2026-03-22T16:35:46.999Z</time></trkpt><trkpt lat="44.89573920303413" lon="9.35837995994245"><ele>349.0</ele><time>2026-03-22T16:35:47.999Z</time></trkpt><trkpt lat="44.895861226596956" lon="9.358276635220065"><ele>350.0</ele><time>2026-03-22T16:35:48.999Z</time></trkpt><trkpt lat="44.89599397008503" lon="9.358128922482027"><ele>351.0</ele><time>2026-03-22T16:35:49.999Z</time></trkpt><trkpt lat="44.89611599437" lon="9.35801553389051"><ele>351.0</ele><time>2026-03-22T16:35:50.999Z</time></trkpt><trkpt lat="44.89620075276442" lon="9.357867446705486"><ele>351.0</ele><time>2026-03-22T16:35:51.999Z</time></trkpt><trkpt lat="44.896247517143415" lon="9.35768069272315"><ele>351.0</ele><time>2026-03-22T16:35:52.999Z</time></trkpt><trkpt lat="44.896271886852716" lon="9.357486102839259"><ele>351.0</ele><time>2026-03-22T16:35:53.999Z</time></trkpt><trkpt lat="44.89629142216327" lon="9.357285890781665"><ele>348.75</ele><time>2026-03-22T16:35:54.999Z</time></trkpt><trkpt lat="44.8963118416851" lon="9.357093341187499"><ele>346.5</ele><time>2026-03-22T16:35:55.999Z</time></trkpt><trkpt lat="44.89634043983966" lon="9.356915128361615"><ele>344.25</ele><time>2026-03-22T16:35:56.999Z</time></trkpt><trkpt lat="44.896377461624745" lon="9.35675170187126"><ele>342.0</ele><time>2026-03-22T16:35:57.999Z</time></trkpt><trkpt lat="44.89644814516741" lon="9.356606630121357"><ele>342.0</ele><time>2026-03-22T16:35:58.999Z</time></trkpt><trkpt lat="44.89652676432464" lon="9.356413642166876"><ele>342.0</ele><time>2026-03-22T16:35:59.999Z</time></trkpt><trkpt lat="44.89661417503038" lon="9.356187441956415"><ele>342.0</ele><time>2026-03-22T16:36:00.999Z</time></trkpt><trkpt lat="44.896674811078725" lon="9.355928721552587"><ele>343.3333333333333</ele><time>2026-03-22T16:36:01.999Z</time></trkpt><trkpt lat="44.89674264642526" lon="9.355672943796852"><ele>344.66666666666663</ele><time>2026-03-22T16:36:02.999Z</time></trkpt><trkpt lat="44.89679051149247" lon="9.355431904883934"><ele>346.0</ele><time>2026-03-22T16:36:03.998Z</time></trkpt><trkpt lat="44.896834026514576" lon="9.355203823398261"><ele>346.0</ele><time>2026-03-22T16:36:04.998Z</time></trkpt><trkpt lat="44.8968565836342" lon="9.354985498074441"><ele>346.0</ele><time>2026-03-22T16:36:05.998Z</time></trkpt><trkpt lat="44.896838677804446" lon="9.354748478686592"><ele>346.0</ele><time>2026-03-22T16:36:06.998Z</time></trkpt><trkpt lat="44.89675877546572" lon="9.354520678119501"><ele>336.0</ele><time>2026-03-22T16:36:07.998Z</time></trkpt><trkpt lat="44.896666985599815" lon="9.354270938764246"><ele>326.0</ele><time>2026-03-22T16:36:08.998Z</time></trkpt><trkpt lat="44.896596836543225" lon="9.3540429037595"><ele>316.0</ele><time>2026-03-22T16:36:09.998Z</time></trkpt><trkpt lat="44.896545224753496" lon="9.353828482153197"><ele>316.0</ele><time>2026-03-22T16:36:10.998Z</time></trkpt><trkpt lat="44.89651932179162" lon="9.353597726298082"><ele>316.0</ele><time>2026-03-22T16:36:11.998Z</time></trkpt><trkpt lat="44.89655113405513" lon="9.353342330823745"><ele>316.0</ele><time>2026-03-22T16:36:12.998Z</time></trkpt><trkpt lat="44.89660959099665" lon="9.353067576362351"><ele>315.3333333333333</ele><time>2026-03-22T16:36:13.998Z</time></trkpt><trkpt lat="44.89666560122171" lon="9.352785943460786"><ele>314.6666666666667</ele><time>2026-03-22T16:36:14.998Z</time></trkpt><trkpt lat="44.89671092455594" lon="9.352515792901258"><ele>314.0</ele><time>2026-03-22T16:36:15.998Z</time></trkpt><trkpt lat="44.8967501292511" lon="9.352269545845347"><ele>317.6666666666667</ele><time>2026-03-22T16:36:16.998Z</time></trkpt><trkpt lat="44.8967919026946" lon="9.352038907982605"><ele>321.3333333333333</ele><time>2026-03-22T16:36:17.998Z</time></trkpt><trkpt lat="44.896850787588825" lon="9.351816765153835"><ele>325.0</ele><time>2026-03-22T16:36:18.998Z</time></trkpt><trkpt lat="44.896940958369704" lon="9.351608140159561"><ele>325.0</ele><time>2026-03-22T16:36:19.998Z</time></trkpt><trkpt lat="44.89704783080512" lon="9.351410713786176"><ele>325.0</ele><time>2026-03-22T16:36:20.998Z</time></trkpt><trkpt lat="44.89714637591273" lon="9.351210243005859"><ele>325.0</ele><time>2026-03-22T16:36:21.998Z</time></trkpt><trkpt lat="44.89723455539168" lon="9.351025402961268"><ele>322.0</ele><time>2026-03-22T16:36:22.998Z</time></trkpt><trkpt lat="44.897318046846095" lon="9.350846820305621"><ele>319.0</ele><time>2026-03-22T16:36:23.998Z</time></trkpt><trkpt lat="44.89737764010246" lon="9.350669118811862"><ele>316.0</ele><time>2026-03-22T16:36:24.998Z</time></trkpt><trkpt lat="44.89739427958557" lon="9.350438064672145"><ele>313.66666666666663</ele><time>2026-03-22T16:36:25.998Z</time></trkpt><trkpt lat="44.897360068932336" lon="9.350184913933997"><ele>311.3333333333333</ele><time>2026-03-22T16:36:26.998Z</time></trkpt><trkpt lat="44.8972876020652" lon="9.349944325753631"><ele>309.0</ele><time>2026-03-22T16:36:27.998Z</time></trkpt><trkpt lat="44.89720199252894" lon="9.349724576960563"><ele>308.25</ele><time>2026-03-22T16:36:28.998Z</time></trkpt><trkpt lat="44.89714362890446" lon="9.349526044356866"><ele>307.5</ele><time>2026-03-22T16:36:29.998Z</time></trkpt><trkpt lat="44.897113937346454" lon="9.349339540446405"><ele>306.75</ele><time>2026-03-22T16:36:30.998Z</time></trkpt><trkpt lat="44.89712407267963" lon="9.349125123848559"><ele>306.0</ele><time>2026-03-22T16:36:31.998Z</time></trkpt><trkpt lat="44.89715692594568" lon="9.348888256550893"><ele>307.0</ele><time>2026-03-22T16:36:32.998Z</time></trkpt><trkpt lat="44.89722185304398" lon="9.348648714177486"><ele>308.0</ele><time>2026-03-22T16:36:33.998Z</time></trkpt><trkpt lat="44.89727847656664" lon="9.348397104310079"><ele>309.0</ele><time>2026-03-22T16:36:34.998Z</time></trkpt><trkpt lat="44.89733158140611" lon="9.348137365910151"><ele>310.3333333333333</ele><time>2026-03-22T16:36:35.998Z</time></trkpt><trkpt lat="44.89738406075309" lon="9.347897124738887"><ele>311.66666666666663</ele><time>2026-03-22T16:36:36.998Z</time></trkpt><trkpt lat="44.89743103739906" lon="9.347660812681342"><ele>313.0</ele><time>2026-03-22T16:36:37.998Z</time></trkpt><trkpt lat="44.897483880046465" lon="9.347402992226641"><ele>313.3333333333333</ele><time>2026-03-22T16:36:38.998Z</time></trkpt><trkpt lat="44.89753855732975" lon="9.347131725057936"><ele>313.6666666666667</ele><time>2026-03-22T16:36:39.998Z</time></trkpt><trkpt lat="44.89758567826026" lon="9.346852231727388"><ele>314.0</ele><time>2026-03-22T16:36:40.998Z</time></trkpt><trkpt lat="44.897610004501175" lon="9.346554330119451"><ele>308.33333333333337</ele><time>2026-03-22T16:36:41.998Z</time></trkpt><trkpt lat="44.89760487912243" lon="9.346246786104599"><ele>302.6666666666667</ele><time>2026-03-22T16:36:42.998Z</time></trkpt><trkpt lat="44.8975965085994" lon="9.345930095253607"><ele>297.0</ele><time>2026-03-22T16:36:43.998Z</time></trkpt><trkpt lat="44.89760130865218" lon="9.345624099787676"><ele>297.0</ele><time>2026-03-22T16:36:44.998Z</time></trkpt><trkpt lat="44.89760621418585" lon="9.345338631124687"><ele>297.0</ele><time>2026-03-22T16:36:45.998Z</time></trkpt><trkpt lat="44.89760807703529" lon="9.345080466853522"><ele>297.0</ele><time>2026-03-22T16:36:46.998Z</time></trkpt><trkpt lat="44.89760901538266" lon="9.344824966586613"><ele>296.6666666666667</ele><time>2026-03-22T16:36:47.998Z</time></trkpt><trkpt lat="44.89760988074481" lon="9.344560239666091"><ele>296.33333333333337</ele><time>2026-03-22T16:36:48.998Z</time></trkpt><trkpt lat="44.89758748036672" lon="9.344301844528417"><ele>296.0</ele><time>2026-03-22T16:36:49.998Z</time></trkpt><trkpt lat="44.89753460801322" lon="9.344055561611514"><ele>295.6666666666667</ele><time>2026-03-22T16:36:50.998Z</time></trkpt><trkpt lat="44.897536914498836" lon="9.343786719508572"><ele>295.3333333333333</ele><time>2026-03-22T16:36:52Z</time></trkpt><trkpt lat="44.897589670010085" lon="9.3434995672122"><ele>295.0</ele><time>2026-03-22T16:36:53Z</time></trkpt><trkpt lat="44.89764406584375" lon="9.3431874812779"><ele>296.5</ele><time>2026-03-22T16:36:54Z</time></trkpt><trkpt lat="44.897721929837076" lon="9.342883623204605"><ele>298.0</ele><time>2026-03-22T16:36:55Z</time></trkpt><trkpt lat="44.89778907536053" lon="9.34257437214704"><ele>298.0</ele><time>2026-03-22T16:36:56Z</time></trkpt><trkpt lat="44.89784902485612" lon="9.34229024879231"><ele>298.0</ele><time>2026-03-22T16:36:57Z</time></trkpt><trkpt lat="44.89790232869157" lon="9.342035418821773"><ele>298.0</ele><time>2026-03-22T16:36:58Z</time></trkpt><trkpt lat="44.89795570038026" lon="9.341795593449504"><ele>297.3333333333333</ele><time>2026-03-22T16:36:59Z</time></trkpt><trkpt lat="44.898007099212975" lon="9.341560622055479"><ele>296.6666666666667</ele><time>2026-03-22T16:37:00Z</time></trkpt><trkpt lat="44.89805344550121" lon="9.341322000946127"><ele>296.0</ele><time>2026-03-22T16:37:01Z</time></trkpt><trkpt lat="44.89812039794435" lon="9.3410833999887"><ele>295.0</ele><time>2026-03-22T16:37:02Z</time></trkpt><trkpt lat="44.898260331963996" lon="9.340881470153564"><ele>294.0</ele><time>2026-03-22T16:37:03Z</time></trkpt><trkpt lat="44.898424043901485" lon="9.34068731129513"><ele>293.0</ele><time>2026-03-22T16:37:04Z</time></trkpt><trkpt lat="44.89860381044103" lon="9.3405261241189"><ele>293.0</ele><time>2026-03-22T16:37:05Z</time></trkpt><trkpt lat="44.898771428340304" lon="9.340321347995323"><ele>293.0</ele><time>2026-03-22T16:37:06Z</time></trkpt><trkpt lat="44.89891982790031" lon="9.340104279834065"><ele>293.0</ele><time>2026-03-22T16:37:07Z</time></trkpt><trkpt lat="44.89905086203929" lon="9.339900451412595"><ele>293.0</ele><time>2026-03-22T16:37:08Z</time></trkpt><trkpt lat="44.89916971201988" lon="9.33971710698824"><ele>293.0</ele><time>2026-03-22T16:37:09Z</time></trkpt><trkpt lat="44.89928389586105" lon="9.33954405465221"><ele>293.0</ele><time>2026-03-22T16:37:10Z</time></trkpt><trkpt lat="44.89939454900596" lon="9.339370288857193"><ele>293.0</ele><time>2026-03-22T16:37:11Z</time></trkpt><trkpt lat="44.89949065655745" lon="9.339173270961101"><ele>293.0</ele><time>2026-03-22T16:37:12Z</time></trkpt><trkpt lat="44.899574999161885" lon="9.33894166352904"><ele>293.0</ele><time>2026-03-22T16:37:13Z</time></trkpt><trkpt lat="44.899639707826346" lon="9.338721338743534"><ele>293.0</ele><time>2026-03-22T16:37:14Z</time></trkpt><trkpt lat="44.89971519455357" lon="9.338519365720012"><ele>293.0</ele><time>2026-03-22T16:37:15Z</time></trkpt><trkpt lat="44.89983339025153" lon="9.338339060434675"><ele>293.0</ele><time>2026-03-22T16:37:16Z</time></trkpt><trkpt lat="44.89998577660714" lon="9.338231148623766"><ele>294.5</ele><time>2026-03-22T16:37:17Z</time></trkpt><trkpt lat="44.90013300475375" lon="9.338161438478613"><ele>296.0</ele><time>2026-03-22T16:37:18Z</time></trkpt><trkpt lat="44.90026533255804" lon="9.338083785668662"><ele>297.5</ele><time>2026-03-22T16:37:19Z</time></trkpt><trkpt lat="44.900392064503755" lon="9.338016545331177"><ele>299.0</ele><time>2026-03-22T16:37:20Z</time></trkpt><trkpt lat="44.900511811277084" lon="9.337948591864137"><ele>299.0</ele><time>2026-03-22T16:37:21Z</time></trkpt><trkpt lat="44.90062522202361" lon="9.337892396189345"><ele>299.0</ele><time>2026-03-22T16:37:22Z</time></trkpt><trkpt lat="44.90073879866885" lon="9.337833793262767"><ele>299.0</ele><time>2026-03-22T16:37:23Z</time></trkpt><trkpt lat="44.90086239685072" lon="9.337763001727138"><ele>299.0</ele><time>2026-03-22T16:37:24Z</time></trkpt><trkpt lat="44.90099472278384" lon="9.337685941585505"><ele>293.6666666666667</ele><time>2026-03-22T16:37:25Z</time></trkpt><trkpt lat="44.9011317952421" lon="9.337604333038824"><ele>288.3333333333333</ele><time>2026-03-22T16:37:26Z</time></trkpt><trkpt lat="44.90125665163771" lon="9.33748744530385"><ele>283.0</ele><time>2026-03-22T16:37:27Z</time></trkpt><trkpt lat="44.9013663715641" lon="9.337317284967897"><ele>285.0</ele><time>2026-03-22T16:37:28Z</time></trkpt><trkpt lat="44.90145031275458" lon="9.337102848400018"><ele>287.0</ele><time>2026-03-22T16:37:29Z</time></trkpt><trkpt lat="44.90150393100867" lon="9.336872315626744"><ele>289.0</ele><time>2026-03-22T16:37:30Z</time></trkpt><trkpt lat="44.90158111297685" lon="9.336656585946143"><ele>289.0</ele><time>2026-03-22T16:37:31Z</time></trkpt><trkpt lat="44.90166579742211" lon="9.336476834401006"><ele>289.0</ele><time>2026-03-22T16:37:32Z</time></trkpt><trkpt lat="44.90175529854416" lon="9.336336136368523"><ele>289.0</ele><time>2026-03-22T16:37:33Z</time></trkpt><trkpt lat="44.90184300988284" lon="9.336203446639418"><ele>289.0</ele><time>2026-03-22T16:37:34Z</time></trkpt><trkpt lat="44.90192537073402" lon="9.336077249847522"><ele>289.4</ele><time>2026-03-22T16:37:34.999Z</time></trkpt><trkpt lat="44.90200005558112" lon="9.33595941999368"><ele>289.79999999999995</ele><time>2026-03-22T16:37:35.999Z</time></trkpt><trkpt lat="44.90207037597257" lon="9.335839225298262"><ele>290.20000000000005</ele><time>2026-03-22T16:37:36.999Z</time></trkpt><trkpt lat="44.902140459355195" lon="9.335727282680597"><ele>290.6</ele><time>2026-03-22T16:37:37.999Z</time></trkpt><trkpt lat="44.902220904619874" lon="9.33561942671514"><ele>291.0</ele><time>2026-03-22T16:37:38.999Z</time></trkpt><trkpt lat="44.902315137865585" lon="9.33550560400445"><ele>291.0</ele><time>2026-03-22T16:37:39.999Z</time></trkpt><trkpt lat="44.902421253247795" lon="9.335398254848975"><ele>291.0</ele><time>2026-03-22T16:37:40.999Z</time></trkpt><trkpt lat="44.90254002219821" lon="9.335291065706336"><ele>291.0</ele><time>2026-03-22T16:37:41.999Z</time></trkpt><trkpt lat="44.90265520327579" lon="9.335183550371466"><ele>291.0</ele><time>2026-03-22T16:37:42.999Z</time></trkpt><trkpt lat="44.90276442173483" lon="9.33506846341116"><ele>289.75</ele><time>2026-03-22T16:37:43.999Z</time></trkpt><trkpt lat="44.90286203468396" lon="9.334954653289024"><ele>288.5</ele><time>2026-03-22T16:37:44.999Z</time></trkpt><trkpt lat="44.902955859916794" lon="9.334837111228916"><ele>287.25</ele><time>2026-03-22T16:37:45.999Z</time></trkpt><trkpt lat="44.90304521529946" lon="9.3347142978248"><ele>286.0</ele><time>2026-03-22T16:37:46.999Z</time></trkpt><trkpt lat="44.90312933013646" lon="9.334579526590112"><ele>286.0</ele><time>2026-03-22T16:37:47.999Z</time></trkpt><trkpt lat="44.90320191309972" lon="9.334428253696466"><ele>286.0</ele><time>2026-03-22T16:37:48.999Z</time></trkpt><trkpt lat="44.90327299899971" lon="9.334285762350884"><ele>286.0</ele><time>2026-03-22T16:37:49.999Z</time></trkpt><trkpt lat="44.90334874379704" lon="9.334160192383372"><ele>286.0</ele><time>2026-03-22T16:37:50.999Z</time></trkpt><trkpt lat="44.90343587148478" lon="9.334044576716266"><ele>284.75</ele><time>2026-03-22T16:37:51.999Z</time></trkpt><trkpt lat="44.90352960836463" lon="9.333955756528612"><ele>283.5</ele><time>2026-03-22T16:37:52.999Z</time></trkpt><trkpt lat="44.903632757804715" lon="9.33389095644449"><ele>282.25</ele><time>2026-03-22T16:37:53.999Z</time></trkpt><trkpt lat="44.90375287552788" lon="9.333852515243787"><ele>281.0</ele><time>2026-03-22T16:37:54.999Z</time></trkpt><trkpt lat="44.90387875132992" lon="9.333836461464017"><ele>281.0</ele><time>2026-03-22T16:37:55.999Z</time></trkpt><trkpt lat="44.90400332823886" lon="9.333835949839319"><ele>281.0</ele><time>2026-03-22T16:37:56.999Z</time></trkpt><trkpt lat="44.904124419095574" lon="9.333830610406809"><ele>281.0</ele><time>2026-03-22T16:37:57.999Z</time></trkpt><trkpt lat="44.9042518707499" lon="9.333813604772772"><ele>281.0</ele><time>2026-03-22T16:37:58.999Z</time></trkpt><trkpt lat="44.904374959977226" lon="9.333787380405571"><ele>279.25</ele><time>2026-03-22T16:37:59.999Z</time></trkpt><trkpt lat="44.904484625011165" lon="9.333739428655003"><ele>277.5</ele><time>2026-03-22T16:38:00.999Z</time></trkpt><trkpt lat="44.90458412977095" lon="9.333657792762748"><ele>275.75</ele><time>2026-03-22T16:38:01.999Z</time></trkpt><trkpt lat="44.904675497599825" lon="9.333550041828376"><ele>274.0</ele><time>2026-03-22T16:38:02.999Z</time></trkpt><trkpt lat="44.90475930889515" lon="9.333431264152537"><ele>274.0</ele><time>2026-03-22T16:38:03.999Z</time></trkpt><trkpt lat="44.904834410291144" lon="9.333292045063157"><ele>274.0</ele><time>2026-03-22T16:38:04.999Z</time></trkpt><trkpt lat="44.90489629002123" lon="9.333131276777152"><ele>274.0</ele><time>2026-03-22T16:38:05.999Z</time></trkpt><trkpt lat="44.90495698911739" lon="9.332963619256068"><ele>274.0</ele><time>2026-03-22T16:38:06.999Z</time></trkpt><trkpt lat="44.90502059818345" lon="9.332797532973926"><ele>274.25</ele><time>2026-03-22T16:38:07.999Z</time></trkpt><trkpt lat="44.905085288742065" lon="9.33264148973655"><ele>274.5</ele><time>2026-03-22T16:38:08.999Z</time></trkpt><trkpt lat="44.90514476065002" lon="9.332501174880381"><ele>274.75</ele><time>2026-03-22T16:38:09.999Z</time></trkpt><trkpt lat="44.90519868179313" lon="9.332363365791721"><ele>275.0</ele><time>2026-03-22T16:38:10.999Z</time></trkpt><trkpt lat="44.905260292162545" lon="9.33221212311143"><ele>275.0</ele><time>2026-03-22T16:38:11.999Z</time></trkpt><trkpt lat="44.90532784283484" lon="9.332045879798043"><ele>275.0</ele><time>2026-03-22T16:38:12.999Z</time></trkpt><trkpt lat="44.90539138611371" lon="9.331885216555596"><ele>275.0</ele><time>2026-03-22T16:38:13.999Z</time></trkpt><trkpt lat="44.90545287672178" lon="9.331730905695888"><ele>275.0</ele><time>2026-03-22T16:38:14.999Z</time></trkpt><trkpt lat="44.9055151423655" lon="9.33158931320987"><ele>275.0</ele><time>2026-03-22T16:38:15.999Z</time></trkpt><trkpt lat="44.905574364715754" lon="9.331460842457037"><ele>275.0</ele><time>2026-03-22T16:38:16.999Z</time></trkpt><trkpt lat="44.90563607386165" lon="9.331351281215795"><ele>275.0</ele><time>2026-03-22T16:38:17.999Z</time></trkpt><trkpt lat="44.905688616503284" lon="9.331282439254112"><ele>275.0</ele><time>2026-03-22T16:38:18.999Z</time></trkpt><trkpt lat="44.90578082130712" lon="9.331190830930598"><ele>275.0</ele><time>2026-03-22T16:38:20.998Z</time></trkpt><trkpt lat="44.905848588804446" lon="9.33117884898064"><ele>276.0</ele><time>2026-03-22T16:38:21.998Z</time></trkpt><trkpt lat="44.90591678889925" lon="9.33116070496379"><ele>277.0</ele><time>2026-03-22T16:38:22.998Z</time></trkpt><trkpt lat="44.90600030083744" lon="9.331261517294271"><ele>278.0</ele><time>2026-03-22T16:38:23.998Z</time></trkpt><trkpt lat="44.90607400036714" lon="9.33133599233494"><ele>279.0</ele><time>2026-03-22T16:38:24.998Z</time></trkpt><trkpt lat="44.90613949790327" lon="9.33141405341038"><ele>280.0</ele><time>2026-03-22T16:38:25.998Z</time></trkpt><trkpt lat="44.90619514131321" lon="9.331484528996633"><ele>281.0</ele><time>2026-03-22T16:38:26.998Z</time></trkpt><trkpt lat="44.90628340900245" lon="9.331557423088583"><ele>281.0</ele><time>2026-03-22T16:38:28.998Z</time></trkpt><trkpt lat="44.90636895520092" lon="9.331591987657712"><ele>281.0</ele><time>2026-03-22T16:38:31.998Z</time></trkpt></trkseg></trk></gpx>